<?xml version="1.0" encoding="UTF-8" standalone="no" ?>
<gpx xmlns="http://www.topografix.com/GPX/1/1" xmlns:xsi="http://www.w3.org/2001/XMLSchema-instance" xsi:schemaLocation="http://www.topografix.com/GPX/1/1 http://www.topografix.com/GPX/1/1/gpx.xsd" version="1.1" creator="VisuGPX - https://www.visugpx.com">
  <metadata>
    <name>MOIXERO XTREM B</name>
    <desc><![CDATA[MOIXERO EXTREM B--------------------]]></desc>
  </metadata>
  <trk>
    <name><![CDATA[MOIXERO EXTREM B]]></name>
    <trkseg>
      <trkpt lat="42.23257" lon="1.87928">
        <ele>745.616</ele>
        <time>2019-04-07T22:12:35Z</time>
      </trkpt>
      <trkpt lat="42.23257" lon="1.87929">
        <ele>738.576</ele>
        <time>2019-04-07T22:12:35Z</time>
      </trkpt>
      <trkpt lat="42.23258" lon="1.87931">
        <ele>734.713</ele>
        <time>2019-04-07T22:12:35Z</time>
      </trkpt>
      <trkpt lat="42.23258" lon="1.87931">
        <ele>733.408</ele>
        <time>2019-04-07T22:12:36Z</time>
      </trkpt>
      <trkpt lat="42.2326" lon="1.87931">
        <ele>732.554</ele>
        <time>2019-04-07T22:12:36Z</time>
      </trkpt>
      <trkpt lat="42.23261" lon="1.87929">
        <ele>732.016</ele>
        <time>2019-04-07T22:12:37Z</time>
      </trkpt>
      <trkpt lat="42.23263" lon="1.87928">
        <ele>731.831</ele>
        <time>2019-04-07T22:12:38Z</time>
      </trkpt>
      <trkpt lat="42.23266" lon="1.87928">
        <ele>732.182</ele>
        <time>2019-04-07T22:12:39Z</time>
      </trkpt>
      <trkpt lat="42.23271" lon="1.87932">
        <ele>732.312</ele>
        <time>2019-04-07T22:12:41Z</time>
      </trkpt>
      <trkpt lat="42.23275" lon="1.87935">
        <ele>732.256</ele>
        <time>2019-04-07T22:12:43Z</time>
      </trkpt>
      <trkpt lat="42.2328" lon="1.87939">
        <ele>732.235</ele>
        <time>2019-04-07T22:12:45Z</time>
      </trkpt>
      <trkpt lat="42.23281" lon="1.87939">
        <ele>732.427</ele>
        <time>2019-04-07T22:12:46Z</time>
      </trkpt>
      <trkpt lat="42.23284" lon="1.8794">
        <ele>732.514</ele>
        <time>2019-04-07T22:12:47Z</time>
      </trkpt>
      <trkpt lat="42.23288" lon="1.87943">
        <ele>732.554</ele>
        <time>2019-04-07T22:12:49Z</time>
      </trkpt>
      <trkpt lat="42.23298" lon="1.87944">
        <ele>732.509</ele>
        <time>2019-04-07T22:12:53Z</time>
      </trkpt>
      <trkpt lat="42.23305" lon="1.87941">
        <ele>733.008</ele>
        <time>2019-04-07T22:12:56Z</time>
      </trkpt>
      <trkpt lat="42.23306" lon="1.8794">
        <ele>733.044</ele>
        <time>2019-04-07T22:12:56Z</time>
      </trkpt>
      <trkpt lat="42.23306" lon="1.87939">
        <ele>733.396</ele>
        <time>2019-04-07T22:12:57Z</time>
      </trkpt>
      <trkpt lat="42.23308" lon="1.87937">
        <ele>733.381</ele>
        <time>2019-04-07T22:12:57Z</time>
      </trkpt>
      <trkpt lat="42.23311" lon="1.87935">
        <ele>733.412</ele>
        <time>2019-04-07T22:12:59Z</time>
      </trkpt>
      <trkpt lat="42.23314" lon="1.87934">
        <ele>733.352</ele>
        <time>2019-04-07T22:13:00Z</time>
      </trkpt>
      <trkpt lat="42.23317" lon="1.87933">
        <ele>733.536</ele>
        <time>2019-04-07T22:13:01Z</time>
      </trkpt>
      <trkpt lat="42.23321" lon="1.87932">
        <ele>733.775</ele>
        <time>2019-04-07T22:13:03Z</time>
      </trkpt>
      <trkpt lat="42.23334" lon="1.87929">
        <ele>733.667</ele>
        <time>2019-04-07T22:13:08Z</time>
      </trkpt>
      <trkpt lat="42.23344" lon="1.87924">
        <ele>733.955</ele>
        <time>2019-04-07T22:13:13Z</time>
      </trkpt>
      <trkpt lat="42.23351" lon="1.87918">
        <ele>734.407</ele>
        <time>2019-04-07T22:13:16Z</time>
      </trkpt>
      <trkpt lat="42.23361" lon="1.87911">
        <ele>734.217</ele>
        <time>2019-04-07T22:13:20Z</time>
      </trkpt>
      <trkpt lat="42.23362" lon="1.87911">
        <ele>734.208</ele>
        <time>2019-04-07T22:13:21Z</time>
      </trkpt>
      <trkpt lat="42.23372" lon="1.87902">
        <ele>734.398</ele>
        <time>2019-04-07T22:13:26Z</time>
      </trkpt>
      <trkpt lat="42.23374" lon="1.87899">
        <ele>734.51</ele>
        <time>2019-04-07T22:13:27Z</time>
      </trkpt>
      <trkpt lat="42.23382" lon="1.87886">
        <ele>734.855</ele>
        <time>2019-04-07T22:13:32Z</time>
      </trkpt>
      <trkpt lat="42.23383" lon="1.87885">
        <ele>734.966</ele>
        <time>2019-04-07T22:13:32Z</time>
      </trkpt>
      <trkpt lat="42.2339" lon="1.87873">
        <ele>735.176</ele>
        <time>2019-04-07T22:13:37Z</time>
      </trkpt>
      <trkpt lat="42.2339" lon="1.87872">
        <ele>735.39</ele>
        <time>2019-04-07T22:13:37Z</time>
      </trkpt>
      <trkpt lat="42.23391" lon="1.87872">
        <ele>735.349</ele>
        <time>2019-04-07T22:13:37Z</time>
      </trkpt>
      <trkpt lat="42.23392" lon="1.87874">
        <ele>735.321</ele>
        <time>2019-04-07T22:13:38Z</time>
      </trkpt>
      <trkpt lat="42.23393" lon="1.87879">
        <ele>735.344</ele>
        <time>2019-04-07T22:13:40Z</time>
      </trkpt>
      <trkpt lat="42.23393" lon="1.87882">
        <ele>735.305</ele>
        <time>2019-04-07T22:13:41Z</time>
      </trkpt>
      <trkpt lat="42.23393" lon="1.87886">
        <ele>735.515</ele>
        <time>2019-04-07T22:13:42Z</time>
      </trkpt>
      <trkpt lat="42.23392" lon="1.87888">
        <ele>735.708</ele>
        <time>2019-04-07T22:13:42Z</time>
      </trkpt>
      <trkpt lat="42.23392" lon="1.87891">
        <ele>736.047</ele>
        <time>2019-04-07T22:13:43Z</time>
      </trkpt>
      <trkpt lat="42.23389" lon="1.87902">
        <ele>735.789</ele>
        <time>2019-04-07T22:13:47Z</time>
      </trkpt>
      <trkpt lat="42.23387" lon="1.87909">
        <ele>735.024</ele>
        <time>2019-04-07T22:13:49Z</time>
      </trkpt>
      <trkpt lat="42.23386" lon="1.8791">
        <ele>736.225</ele>
        <time>2019-04-07T22:13:49Z</time>
      </trkpt>
      <trkpt lat="42.23385" lon="1.87912">
        <ele>734.615</ele>
        <time>2019-04-07T22:13:50Z</time>
      </trkpt>
      <trkpt lat="42.23385" lon="1.87914">
        <ele>733.949</ele>
        <time>2019-04-07T22:13:51Z</time>
      </trkpt>
      <trkpt lat="42.23384" lon="1.87915">
        <ele>734.318</ele>
        <time>2019-04-07T22:13:51Z</time>
      </trkpt>
      <trkpt lat="42.23383" lon="1.87919">
        <ele>734.64</ele>
        <time>2019-04-07T22:13:52Z</time>
      </trkpt>
      <trkpt lat="42.23383" lon="1.87921">
        <ele>735.298</ele>
        <time>2019-04-07T22:13:53Z</time>
      </trkpt>
      <trkpt lat="42.23383" lon="1.87923">
        <ele>735.415</ele>
        <time>2019-04-07T22:13:54Z</time>
      </trkpt>
      <trkpt lat="42.23382" lon="1.87926">
        <ele>736.026</ele>
        <time>2019-04-07T22:13:54Z</time>
      </trkpt>
      <trkpt lat="42.23379" lon="1.87933">
        <ele>734.508</ele>
        <time>2019-04-07T22:13:57Z</time>
      </trkpt>
      <trkpt lat="42.23379" lon="1.87934">
        <ele>734.682</ele>
        <time>2019-04-07T22:13:57Z</time>
      </trkpt>
      <trkpt lat="42.23379" lon="1.87939">
        <ele>735.664</ele>
        <time>2019-04-07T22:13:58Z</time>
      </trkpt>
      <trkpt lat="42.2338" lon="1.87942">
        <ele>735.959</ele>
        <time>2019-04-07T22:13:59Z</time>
      </trkpt>
      <trkpt lat="42.2338" lon="1.87945">
        <ele>736.48</ele>
        <time>2019-04-07T22:14:01Z</time>
      </trkpt>
      <trkpt lat="42.23378" lon="1.87953">
        <ele>737.36</ele>
        <time>2019-04-07T22:14:03Z</time>
      </trkpt>
      <trkpt lat="42.23377" lon="1.87955">
        <ele>737.334</ele>
        <time>2019-04-07T22:14:04Z</time>
      </trkpt>
      <trkpt lat="42.23373" lon="1.87961">
        <ele>737.413</ele>
        <time>2019-04-07T22:14:06Z</time>
      </trkpt>
      <trkpt lat="42.23372" lon="1.87963">
        <ele>737.815</ele>
        <time>2019-04-07T22:14:07Z</time>
      </trkpt>
      <trkpt lat="42.23372" lon="1.87964">
        <ele>738.494</ele>
        <time>2019-04-07T22:14:07Z</time>
      </trkpt>
      <trkpt lat="42.23369" lon="1.8797">
        <ele>738.957</ele>
        <time>2019-04-07T22:14:09Z</time>
      </trkpt>
      <trkpt lat="42.23366" lon="1.87974">
        <ele>739.422</ele>
        <time>2019-04-07T22:14:11Z</time>
      </trkpt>
      <trkpt lat="42.23362" lon="1.87977">
        <ele>739.708</ele>
        <time>2019-04-07T22:14:13Z</time>
      </trkpt>
      <trkpt lat="42.23359" lon="1.87981">
        <ele>740.672</ele>
        <time>2019-04-07T22:14:14Z</time>
      </trkpt>
      <trkpt lat="42.23356" lon="1.87985">
        <ele>741.574</ele>
        <time>2019-04-07T22:14:16Z</time>
      </trkpt>
      <trkpt lat="42.23356" lon="1.87985">
        <ele>741.619</ele>
        <time>2019-04-07T22:14:16Z</time>
      </trkpt>
      <trkpt lat="42.23352" lon="1.87989">
        <ele>742.59</ele>
        <time>2019-04-07T22:14:18Z</time>
      </trkpt>
      <trkpt lat="42.23351" lon="1.87991">
        <ele>742.78</ele>
        <time>2019-04-07T22:14:19Z</time>
      </trkpt>
      <trkpt lat="42.2335" lon="1.87992">
        <ele>743.194</ele>
        <time>2019-04-07T22:14:19Z</time>
      </trkpt>
      <trkpt lat="42.23349" lon="1.87994">
        <ele>743.363</ele>
        <time>2019-04-07T22:14:20Z</time>
      </trkpt>
      <trkpt lat="42.23348" lon="1.87997">
        <ele>743.745</ele>
        <time>2019-04-07T22:14:21Z</time>
      </trkpt>
      <trkpt lat="42.23347" lon="1.87998">
        <ele>743.939</ele>
        <time>2019-04-07T22:14:21Z</time>
      </trkpt>
      <trkpt lat="42.23343" lon="1.88001">
        <ele>744.801</ele>
        <time>2019-04-07T22:14:23Z</time>
      </trkpt>
      <trkpt lat="42.23343" lon="1.88002">
        <ele>745.021</ele>
        <time>2019-04-07T22:14:23Z</time>
      </trkpt>
      <trkpt lat="42.23341" lon="1.88006">
        <ele>745.508</ele>
        <time>2019-04-07T22:14:25Z</time>
      </trkpt>
      <trkpt lat="42.2334" lon="1.88008">
        <ele>745.876</ele>
        <time>2019-04-07T22:14:26Z</time>
      </trkpt>
      <trkpt lat="42.23338" lon="1.8801">
        <ele>746.468</ele>
        <time>2019-04-07T22:14:27Z</time>
      </trkpt>
      <trkpt lat="42.23337" lon="1.88011">
        <ele>746.613</ele>
        <time>2019-04-07T22:14:27Z</time>
      </trkpt>
      <trkpt lat="42.23335" lon="1.88012">
        <ele>746.984</ele>
        <time>2019-04-07T22:14:28Z</time>
      </trkpt>
      <trkpt lat="42.23334" lon="1.88013">
        <ele>747.144</ele>
        <time>2019-04-07T22:14:28Z</time>
      </trkpt>
      <trkpt lat="42.23329" lon="1.88017">
        <ele>747.548</ele>
        <time>2019-04-07T22:14:31Z</time>
      </trkpt>
      <trkpt lat="42.23329" lon="1.88018">
        <ele>747.827</ele>
        <time>2019-04-07T22:14:31Z</time>
      </trkpt>
      <trkpt lat="42.23327" lon="1.88021">
        <ele>748.529</ele>
        <time>2019-04-07T22:14:32Z</time>
      </trkpt>
      <trkpt lat="42.23323" lon="1.88027">
        <ele>749.133</ele>
        <time>2019-04-07T22:14:34Z</time>
      </trkpt>
      <trkpt lat="42.23321" lon="1.8803">
        <ele>749.623</ele>
        <time>2019-04-07T22:14:36Z</time>
      </trkpt>
      <trkpt lat="42.23316" lon="1.88036">
        <ele>750.515</ele>
        <time>2019-04-07T22:14:38Z</time>
      </trkpt>
      <trkpt lat="42.23315" lon="1.88037">
        <ele>750.708</ele>
        <time>2019-04-07T22:14:39Z</time>
      </trkpt>
      <trkpt lat="42.23309" lon="1.88043">
        <ele>751.566</ele>
        <time>2019-04-07T22:14:42Z</time>
      </trkpt>
      <trkpt lat="42.23309" lon="1.88044">
        <ele>752.218</ele>
        <time>2019-04-07T22:14:42Z</time>
      </trkpt>
      <trkpt lat="42.23308" lon="1.88045">
        <ele>752.343</ele>
        <time>2019-04-07T22:14:43Z</time>
      </trkpt>
      <trkpt lat="42.23305" lon="1.88049">
        <ele>753.254</ele>
        <time>2019-04-07T22:14:44Z</time>
      </trkpt>
      <trkpt lat="42.23302" lon="1.88053">
        <ele>753.854</ele>
        <time>2019-04-07T22:14:46Z</time>
      </trkpt>
      <trkpt lat="42.23301" lon="1.88054">
        <ele>754.138</ele>
        <time>2019-04-07T22:14:46Z</time>
      </trkpt>
      <trkpt lat="42.23301" lon="1.88056">
        <ele>754.367</ele>
        <time>2019-04-07T22:14:47Z</time>
      </trkpt>
      <trkpt lat="42.233" lon="1.88056">
        <ele>754.559</ele>
        <time>2019-04-07T22:14:47Z</time>
      </trkpt>
      <trkpt lat="42.233" lon="1.88057">
        <ele>754.645</ele>
        <time>2019-04-07T22:14:47Z</time>
      </trkpt>
      <trkpt lat="42.23297" lon="1.8806">
        <ele>754.847</ele>
        <time>2019-04-07T22:14:49Z</time>
      </trkpt>
      <trkpt lat="42.23295" lon="1.88062">
        <ele>755.411</ele>
        <time>2019-04-07T22:14:50Z</time>
      </trkpt>
      <trkpt lat="42.23289" lon="1.88068">
        <ele>756.408</ele>
        <time>2019-04-07T22:14:53Z</time>
      </trkpt>
      <trkpt lat="42.23283" lon="1.88074">
        <ele>757.527</ele>
        <time>2019-04-07T22:14:56Z</time>
      </trkpt>
      <trkpt lat="42.23281" lon="1.88077">
        <ele>757.999</ele>
        <time>2019-04-07T22:14:57Z</time>
      </trkpt>
      <trkpt lat="42.23279" lon="1.8808">
        <ele>758.554</ele>
        <time>2019-04-07T22:14:58Z</time>
      </trkpt>
      <trkpt lat="42.23277" lon="1.88084">
        <ele>759.615</ele>
        <time>2019-04-07T22:15:00Z</time>
      </trkpt>
      <trkpt lat="42.23276" lon="1.88086">
        <ele>759.975</ele>
        <time>2019-04-07T22:15:00Z</time>
      </trkpt>
      <trkpt lat="42.23275" lon="1.88088">
        <ele>760.089</ele>
        <time>2019-04-07T22:15:01Z</time>
      </trkpt>
      <trkpt lat="42.23269" lon="1.88094">
        <ele>760.858</ele>
        <time>2019-04-07T22:15:04Z</time>
      </trkpt>
      <trkpt lat="42.23269" lon="1.88096">
        <ele>761.24</ele>
        <time>2019-04-07T22:15:05Z</time>
      </trkpt>
      <trkpt lat="42.23266" lon="1.88102">
        <ele>762.215</ele>
        <time>2019-04-07T22:15:07Z</time>
      </trkpt>
      <trkpt lat="42.23267" lon="1.88107">
        <ele>762.565</ele>
        <time>2019-04-07T22:15:08Z</time>
      </trkpt>
      <trkpt lat="42.23268" lon="1.8811">
        <ele>763.011</ele>
        <time>2019-04-07T22:15:09Z</time>
      </trkpt>
      <trkpt lat="42.23267" lon="1.8812">
        <ele>764.008</ele>
        <time>2019-04-07T22:15:12Z</time>
      </trkpt>
      <trkpt lat="42.23268" lon="1.8813">
        <ele>764.064</ele>
        <time>2019-04-07T22:15:15Z</time>
      </trkpt>
      <trkpt lat="42.23269" lon="1.88133">
        <ele>764.096</ele>
        <time>2019-04-07T22:15:16Z</time>
      </trkpt>
      <trkpt lat="42.23273" lon="1.88139">
        <ele>764.661</ele>
        <time>2019-04-07T22:15:19Z</time>
      </trkpt>
      <trkpt lat="42.23275" lon="1.88142">
        <ele>765.022</ele>
        <time>2019-04-07T22:15:20Z</time>
      </trkpt>
      <trkpt lat="42.23278" lon="1.88146">
        <ele>765.672</ele>
        <time>2019-04-07T22:15:22Z</time>
      </trkpt>
      <trkpt lat="42.2328" lon="1.88151">
        <ele>766.156</ele>
        <time>2019-04-07T22:15:23Z</time>
      </trkpt>
      <trkpt lat="42.23284" lon="1.88158">
        <ele>767.465</ele>
        <time>2019-04-07T22:15:26Z</time>
      </trkpt>
      <trkpt lat="42.23285" lon="1.88159">
        <ele>767.387</ele>
        <time>2019-04-07T22:15:26Z</time>
      </trkpt>
      <trkpt lat="42.23288" lon="1.88167">
        <ele>767.555</ele>
        <time>2019-04-07T22:15:29Z</time>
      </trkpt>
      <trkpt lat="42.2329" lon="1.88172">
        <ele>768.407</ele>
        <time>2019-04-07T22:15:30Z</time>
      </trkpt>
      <trkpt lat="42.23292" lon="1.88178">
        <ele>768.717</ele>
        <time>2019-04-07T22:15:33Z</time>
      </trkpt>
      <trkpt lat="42.23294" lon="1.88182">
        <ele>769.008</ele>
        <time>2019-04-07T22:15:34Z</time>
      </trkpt>
      <trkpt lat="42.23297" lon="1.88186">
        <ele>769.548</ele>
        <time>2019-04-07T22:15:36Z</time>
      </trkpt>
      <trkpt lat="42.23299" lon="1.88188">
        <ele>769.99</ele>
        <time>2019-04-07T22:15:37Z</time>
      </trkpt>
      <trkpt lat="42.23302" lon="1.88193">
        <ele>770.685</ele>
        <time>2019-04-07T22:15:39Z</time>
      </trkpt>
      <trkpt lat="42.23305" lon="1.88199">
        <ele>770.716</ele>
        <time>2019-04-07T22:15:41Z</time>
      </trkpt>
      <trkpt lat="42.23311" lon="1.88209">
        <ele>771.736</ele>
        <time>2019-04-07T22:15:45Z</time>
      </trkpt>
      <trkpt lat="42.23311" lon="1.88211">
        <ele>771.78</ele>
        <time>2019-04-07T22:15:45Z</time>
      </trkpt>
      <trkpt lat="42.23313" lon="1.88215">
        <ele>772.569</ele>
        <time>2019-04-07T22:15:47Z</time>
      </trkpt>
      <trkpt lat="42.23315" lon="1.8822">
        <ele>773.011</ele>
        <time>2019-04-07T22:15:48Z</time>
      </trkpt>
      <trkpt lat="42.23318" lon="1.88224">
        <ele>773.823</ele>
        <time>2019-04-07T22:15:50Z</time>
      </trkpt>
      <trkpt lat="42.2332" lon="1.88227">
        <ele>774.183</ele>
        <time>2019-04-07T22:15:51Z</time>
      </trkpt>
      <trkpt lat="42.23325" lon="1.88236">
        <ele>774.511</ele>
        <time>2019-04-07T22:15:54Z</time>
      </trkpt>
      <trkpt lat="42.23326" lon="1.88237">
        <ele>774.708</ele>
        <time>2019-04-07T22:15:55Z</time>
      </trkpt>
      <trkpt lat="42.23328" lon="1.88242">
        <ele>775.475</ele>
        <time>2019-04-07T22:15:57Z</time>
      </trkpt>
      <trkpt lat="42.23332" lon="1.88249">
        <ele>775.877</ele>
        <time>2019-04-07T22:15:59Z</time>
      </trkpt>
      <trkpt lat="42.23333" lon="1.88249">
        <ele>776.222</ele>
        <time>2019-04-07T22:15:59Z</time>
      </trkpt>
      <trkpt lat="42.23335" lon="1.88251">
        <ele>776.073</ele>
        <time>2019-04-07T22:16:01Z</time>
      </trkpt>
      <trkpt lat="42.2334" lon="1.88258">
        <ele>777.133</ele>
        <time>2019-04-07T22:16:03Z</time>
      </trkpt>
      <trkpt lat="42.23339" lon="1.88257">
        <ele>777.287</ele>
        <time>2019-04-07T22:16:03Z</time>
      </trkpt>
      <trkpt lat="42.23343" lon="1.88265">
        <ele>777.636</ele>
        <time>2019-04-07T22:16:06Z</time>
      </trkpt>
      <trkpt lat="42.23344" lon="1.88268">
        <ele>778.048</ele>
        <time>2019-04-07T22:16:07Z</time>
      </trkpt>
      <trkpt lat="42.23344" lon="1.8827">
        <ele>778.363</ele>
        <time>2019-04-07T22:16:08Z</time>
      </trkpt>
      <trkpt lat="42.23348" lon="1.88279">
        <ele>778.544</ele>
        <time>2019-04-07T22:16:11Z</time>
      </trkpt>
      <trkpt lat="42.23351" lon="1.88285">
        <ele>779.418</ele>
        <time>2019-04-07T22:16:13Z</time>
      </trkpt>
      <trkpt lat="42.23352" lon="1.88287">
        <ele>779.708</ele>
        <time>2019-04-07T22:16:14Z</time>
      </trkpt>
      <trkpt lat="42.23354" lon="1.88291">
        <ele>780.189</ele>
        <time>2019-04-07T22:16:15Z</time>
      </trkpt>
      <trkpt lat="42.23355" lon="1.88295">
        <ele>780.561</ele>
        <time>2019-04-07T22:16:16Z</time>
      </trkpt>
      <trkpt lat="42.23355" lon="1.88297">
        <ele>780.756</ele>
        <time>2019-04-07T22:16:17Z</time>
      </trkpt>
      <trkpt lat="42.23359" lon="1.88302">
        <ele>781.387</ele>
        <time>2019-04-07T22:16:19Z</time>
      </trkpt>
      <trkpt lat="42.2336" lon="1.88303">
        <ele>781.257</ele>
        <time>2019-04-07T22:16:19Z</time>
      </trkpt>
      <trkpt lat="42.23363" lon="1.88307">
        <ele>781.691</ele>
        <time>2019-04-07T22:16:21Z</time>
      </trkpt>
      <trkpt lat="42.23365" lon="1.88308">
        <ele>781.61</ele>
        <time>2019-04-07T22:16:22Z</time>
      </trkpt>
      <trkpt lat="42.23372" lon="1.88314">
        <ele>782.692</ele>
        <time>2019-04-07T22:16:25Z</time>
      </trkpt>
      <trkpt lat="42.23374" lon="1.88315">
        <ele>782.763</ele>
        <time>2019-04-07T22:16:26Z</time>
      </trkpt>
      <trkpt lat="42.23384" lon="1.88321">
        <ele>782.744</ele>
        <time>2019-04-07T22:16:31Z</time>
      </trkpt>
      <trkpt lat="42.23387" lon="1.88326">
        <ele>782.718</ele>
        <time>2019-04-07T22:16:33Z</time>
      </trkpt>
      <trkpt lat="42.23391" lon="1.88333">
        <ele>782.708</ele>
        <time>2019-04-07T22:16:35Z</time>
      </trkpt>
      <trkpt lat="42.23394" lon="1.88339">
        <ele>783.559</ele>
        <time>2019-04-07T22:16:37Z</time>
      </trkpt>
      <trkpt lat="42.23394" lon="1.8834">
        <ele>783.851</ele>
        <time>2019-04-07T22:16:38Z</time>
      </trkpt>
      <trkpt lat="42.23396" lon="1.88343">
        <ele>784.216</ele>
        <time>2019-04-07T22:16:39Z</time>
      </trkpt>
      <trkpt lat="42.23402" lon="1.88352">
        <ele>784.947</ele>
        <time>2019-04-07T22:16:42Z</time>
      </trkpt>
      <trkpt lat="42.23403" lon="1.88353">
        <ele>785.137</ele>
        <time>2019-04-07T22:16:43Z</time>
      </trkpt>
      <trkpt lat="42.23404" lon="1.88356">
        <ele>785.481</ele>
        <time>2019-04-07T22:16:44Z</time>
      </trkpt>
      <trkpt lat="42.23408" lon="1.88361">
        <ele>786.06</ele>
        <time>2019-04-07T22:16:46Z</time>
      </trkpt>
      <trkpt lat="42.23409" lon="1.88362">
        <ele>786.012</ele>
        <time>2019-04-07T22:16:46Z</time>
      </trkpt>
      <trkpt lat="42.23412" lon="1.8837">
        <ele>786.699</ele>
        <time>2019-04-07T22:16:49Z</time>
      </trkpt>
      <trkpt lat="42.23414" lon="1.88372">
        <ele>787.007</ele>
        <time>2019-04-07T22:16:50Z</time>
      </trkpt>
      <trkpt lat="42.23426" lon="1.88378">
        <ele>788.227</ele>
        <time>2019-04-07T22:16:55Z</time>
      </trkpt>
      <trkpt lat="42.23427" lon="1.88378">
        <ele>788.508</ele>
        <time>2019-04-07T22:16:56Z</time>
      </trkpt>
      <trkpt lat="42.23434" lon="1.8838">
        <ele>789.422</ele>
        <time>2019-04-07T22:16:58Z</time>
      </trkpt>
      <trkpt lat="42.23441" lon="1.88384">
        <ele>790.474</ele>
        <time>2019-04-07T22:17:02Z</time>
      </trkpt>
      <trkpt lat="42.23443" lon="1.88384">
        <ele>790.599</ele>
        <time>2019-04-07T22:17:02Z</time>
      </trkpt>
      <trkpt lat="42.23447" lon="1.88384">
        <ele>790.87</ele>
        <time>2019-04-07T22:17:04Z</time>
      </trkpt>
      <trkpt lat="42.23448" lon="1.88383">
        <ele>791.24</ele>
        <time>2019-04-07T22:17:04Z</time>
      </trkpt>
      <trkpt lat="42.23453" lon="1.88385">
        <ele>791.574</ele>
        <time>2019-04-07T22:17:06Z</time>
      </trkpt>
      <trkpt lat="42.23456" lon="1.88387">
        <ele>791.513</ele>
        <time>2019-04-07T22:17:08Z</time>
      </trkpt>
      <trkpt lat="42.23463" lon="1.88393">
        <ele>791.715</ele>
        <time>2019-04-07T22:17:11Z</time>
      </trkpt>
      <trkpt lat="42.2347" lon="1.88399">
        <ele>792.686</ele>
        <time>2019-04-07T22:17:14Z</time>
      </trkpt>
      <trkpt lat="42.23471" lon="1.88401">
        <ele>792.56</ele>
        <time>2019-04-07T22:17:15Z</time>
      </trkpt>
      <trkpt lat="42.23476" lon="1.8841">
        <ele>792.726</ele>
        <time>2019-04-07T22:17:18Z</time>
      </trkpt>
      <trkpt lat="42.23477" lon="1.88413">
        <ele>792.708</ele>
        <time>2019-04-07T22:17:19Z</time>
      </trkpt>
      <trkpt lat="42.2348" lon="1.88422">
        <ele>793.331</ele>
        <time>2019-04-07T22:17:22Z</time>
      </trkpt>
      <trkpt lat="42.23481" lon="1.88424">
        <ele>793.533</ele>
        <time>2019-04-07T22:17:23Z</time>
      </trkpt>
      <trkpt lat="42.23483" lon="1.88429">
        <ele>794.258</ele>
        <time>2019-04-07T22:17:25Z</time>
      </trkpt>
      <trkpt lat="42.23483" lon="1.8843">
        <ele>794.169</ele>
        <time>2019-04-07T22:17:25Z</time>
      </trkpt>
      <trkpt lat="42.23484" lon="1.88435">
        <ele>794.479</ele>
        <time>2019-04-07T22:17:27Z</time>
      </trkpt>
      <trkpt lat="42.23484" lon="1.88437">
        <ele>794.483</ele>
        <time>2019-04-07T22:17:27Z</time>
      </trkpt>
      <trkpt lat="42.23485" lon="1.88441">
        <ele>794.562</ele>
        <time>2019-04-07T22:17:28Z</time>
      </trkpt>
      <trkpt lat="42.23486" lon="1.88443">
        <ele>794.774</ele>
        <time>2019-04-07T22:17:29Z</time>
      </trkpt>
      <trkpt lat="42.23491" lon="1.88448">
        <ele>795.635</ele>
        <time>2019-04-07T22:17:32Z</time>
      </trkpt>
      <trkpt lat="42.23493" lon="1.8845">
        <ele>795.786</ele>
        <time>2019-04-07T22:17:32Z</time>
      </trkpt>
      <trkpt lat="42.23494" lon="1.88451">
        <ele>796.014</ele>
        <time>2019-04-07T22:17:33Z</time>
      </trkpt>
      <trkpt lat="42.23499" lon="1.8845">
        <ele>796.708</ele>
        <time>2019-04-07T22:17:35Z</time>
      </trkpt>
      <trkpt lat="42.235" lon="1.8845">
        <ele>796.826</ele>
        <time>2019-04-07T22:17:35Z</time>
      </trkpt>
      <trkpt lat="42.23504" lon="1.88449">
        <ele>797.478</ele>
        <time>2019-04-07T22:17:37Z</time>
      </trkpt>
      <trkpt lat="42.23509" lon="1.8845">
        <ele>797.773</ele>
        <time>2019-04-07T22:17:39Z</time>
      </trkpt>
      <trkpt lat="42.23512" lon="1.8845">
        <ele>797.734</ele>
        <time>2019-04-07T22:17:40Z</time>
      </trkpt>
      <trkpt lat="42.23513" lon="1.8845">
        <ele>798.014</ele>
        <time>2019-04-07T22:17:41Z</time>
      </trkpt>
      <trkpt lat="42.23518" lon="1.88451">
        <ele>798.528</ele>
        <time>2019-04-07T22:17:43Z</time>
      </trkpt>
      <trkpt lat="42.23521" lon="1.88453">
        <ele>799.167</ele>
        <time>2019-04-07T22:17:44Z</time>
      </trkpt>
      <trkpt lat="42.23524" lon="1.88455">
        <ele>799.529</ele>
        <time>2019-04-07T22:17:45Z</time>
      </trkpt>
      <trkpt lat="42.23525" lon="1.88455">
        <ele>799.783</ele>
        <time>2019-04-07T22:17:46Z</time>
      </trkpt>
      <trkpt lat="42.23526" lon="1.88456">
        <ele>799.825</ele>
        <time>2019-04-07T22:17:46Z</time>
      </trkpt>
      <trkpt lat="42.23529" lon="1.88457">
        <ele>800.017</ele>
        <time>2019-04-07T22:17:47Z</time>
      </trkpt>
      <trkpt lat="42.23531" lon="1.88457">
        <ele>800.008</ele>
        <time>2019-04-07T22:17:48Z</time>
      </trkpt>
      <trkpt lat="42.23532" lon="1.88457">
        <ele>800.131</ele>
        <time>2019-04-07T22:17:48Z</time>
      </trkpt>
      <trkpt lat="42.23538" lon="1.8846">
        <ele>801.013</ele>
        <time>2019-04-07T22:17:51Z</time>
      </trkpt>
      <trkpt lat="42.23539" lon="1.8846">
        <ele>801.438</ele>
        <time>2019-04-07T22:17:52Z</time>
      </trkpt>
      <trkpt lat="42.23548" lon="1.88462">
        <ele>801.649</ele>
        <time>2019-04-07T22:17:55Z</time>
      </trkpt>
      <trkpt lat="42.23554" lon="1.88466">
        <ele>802.179</ele>
        <time>2019-04-07T22:17:58Z</time>
      </trkpt>
      <trkpt lat="42.23557" lon="1.88467">
        <ele>802.463</ele>
        <time>2019-04-07T22:17:59Z</time>
      </trkpt>
      <trkpt lat="42.23559" lon="1.88467">
        <ele>802.632</ele>
        <time>2019-04-07T22:18:00Z</time>
      </trkpt>
      <trkpt lat="42.23567" lon="1.88469">
        <ele>803.314</ele>
        <time>2019-04-07T22:18:03Z</time>
      </trkpt>
      <trkpt lat="42.23568" lon="1.8847">
        <ele>803.553</ele>
        <time>2019-04-07T22:18:04Z</time>
      </trkpt>
      <trkpt lat="42.23575" lon="1.88471">
        <ele>804.304</ele>
        <time>2019-04-07T22:18:06Z</time>
      </trkpt>
      <trkpt lat="42.2358" lon="1.8847">
        <ele>804.214</ele>
        <time>2019-04-07T22:18:09Z</time>
      </trkpt>
      <trkpt lat="42.23584" lon="1.8847">
        <ele>804.408</ele>
        <time>2019-04-07T22:18:10Z</time>
      </trkpt>
      <trkpt lat="42.23588" lon="1.88469">
        <ele>804.738</ele>
        <time>2019-04-07T22:18:11Z</time>
      </trkpt>
      <trkpt lat="42.23589" lon="1.88468">
        <ele>805.65</ele>
        <time>2019-04-07T22:18:12Z</time>
      </trkpt>
      <trkpt lat="42.23593" lon="1.88465">
        <ele>806.425</ele>
        <time>2019-04-07T22:18:14Z</time>
      </trkpt>
      <trkpt lat="42.23596" lon="1.88463">
        <ele>806.466</ele>
        <time>2019-04-07T22:18:15Z</time>
      </trkpt>
      <trkpt lat="42.23598" lon="1.88461">
        <ele>806.516</ele>
        <time>2019-04-07T22:18:16Z</time>
      </trkpt>
      <trkpt lat="42.23602" lon="1.88456">
        <ele>807.34</ele>
        <time>2019-04-07T22:18:19Z</time>
      </trkpt>
      <trkpt lat="42.23607" lon="1.88453">
        <ele>807.789</ele>
        <time>2019-04-07T22:18:20Z</time>
      </trkpt>
      <trkpt lat="42.23609" lon="1.8845">
        <ele>808.271</ele>
        <time>2019-04-07T22:18:22Z</time>
      </trkpt>
      <trkpt lat="42.23615" lon="1.88441">
        <ele>808.678</ele>
        <time>2019-04-07T22:18:25Z</time>
      </trkpt>
      <trkpt lat="42.23616" lon="1.8844">
        <ele>808.633</ele>
        <time>2019-04-07T22:18:26Z</time>
      </trkpt>
      <trkpt lat="42.23619" lon="1.88435">
        <ele>809.726</ele>
        <time>2019-04-07T22:18:28Z</time>
      </trkpt>
      <trkpt lat="42.23621" lon="1.88432">
        <ele>810.208</ele>
        <time>2019-04-07T22:18:29Z</time>
      </trkpt>
      <trkpt lat="42.23624" lon="1.88428">
        <ele>810.62</ele>
        <time>2019-04-07T22:18:31Z</time>
      </trkpt>
      <trkpt lat="42.23625" lon="1.88427">
        <ele>810.872</ele>
        <time>2019-04-07T22:18:31Z</time>
      </trkpt>
      <trkpt lat="42.23625" lon="1.88426">
        <ele>811.187</ele>
        <time>2019-04-07T22:18:32Z</time>
      </trkpt>
      <trkpt lat="42.23632" lon="1.88418">
        <ele>811.828</ele>
        <time>2019-04-07T22:18:35Z</time>
      </trkpt>
      <trkpt lat="42.23634" lon="1.88416">
        <ele>811.988</ele>
        <time>2019-04-07T22:18:36Z</time>
      </trkpt>
      <trkpt lat="42.23635" lon="1.88415">
        <ele>812.062</ele>
        <time>2019-04-07T22:18:37Z</time>
      </trkpt>
      <trkpt lat="42.2364" lon="1.88408">
        <ele>813.191</ele>
        <time>2019-04-07T22:18:39Z</time>
      </trkpt>
      <trkpt lat="42.23641" lon="1.88406">
        <ele>813.293</ele>
        <time>2019-04-07T22:18:40Z</time>
      </trkpt>
      <trkpt lat="42.23647" lon="1.88398">
        <ele>813.874</ele>
        <time>2019-04-07T22:18:44Z</time>
      </trkpt>
      <trkpt lat="42.23652" lon="1.88397">
        <ele>813.856</ele>
        <time>2019-04-07T22:18:45Z</time>
      </trkpt>
      <trkpt lat="42.2366" lon="1.88394">
        <ele>814.221</ele>
        <time>2019-04-07T22:18:49Z</time>
      </trkpt>
      <trkpt lat="42.23661" lon="1.88394">
        <ele>814.408</ele>
        <time>2019-04-07T22:18:49Z</time>
      </trkpt>
      <trkpt lat="42.23671" lon="1.88395">
        <ele>814.69</ele>
        <time>2019-04-07T22:18:53Z</time>
      </trkpt>
      <trkpt lat="42.23676" lon="1.88397">
        <ele>814.652</ele>
        <time>2019-04-07T22:18:56Z</time>
      </trkpt>
      <trkpt lat="42.23681" lon="1.884">
        <ele>814.847</ele>
        <time>2019-04-07T22:18:58Z</time>
      </trkpt>
      <trkpt lat="42.23684" lon="1.88402">
        <ele>815.598</ele>
        <time>2019-04-07T22:18:59Z</time>
      </trkpt>
      <trkpt lat="42.23684" lon="1.88401">
        <ele>815.698</ele>
        <time>2019-04-07T22:18:59Z</time>
      </trkpt>
      <trkpt lat="42.23684" lon="1.884">
        <ele>815.542</ele>
        <time>2019-04-07T22:18:59Z</time>
      </trkpt>
      <trkpt lat="42.23688" lon="1.88407">
        <ele>816.011</ele>
        <time>2019-04-07T22:19:02Z</time>
      </trkpt>
      <trkpt lat="42.23694" lon="1.88412">
        <ele>816.213</ele>
        <time>2019-04-07T22:19:05Z</time>
      </trkpt>
      <trkpt lat="42.23696" lon="1.88413">
        <ele>816.265</ele>
        <time>2019-04-07T22:19:05Z</time>
      </trkpt>
      <trkpt lat="42.237" lon="1.88413">
        <ele>815.768</ele>
        <time>2019-04-07T22:19:07Z</time>
      </trkpt>
      <trkpt lat="42.23709" lon="1.88416">
        <ele>816.214</ele>
        <time>2019-04-07T22:19:11Z</time>
      </trkpt>
      <trkpt lat="42.23711" lon="1.88416">
        <ele>816.408</ele>
        <time>2019-04-07T22:19:12Z</time>
      </trkpt>
      <trkpt lat="42.23712" lon="1.88417">
        <ele>816.679</ele>
        <time>2019-04-07T22:19:12Z</time>
      </trkpt>
      <trkpt lat="42.23718" lon="1.88418">
        <ele>817.061</ele>
        <time>2019-04-07T22:19:15Z</time>
      </trkpt>
      <trkpt lat="42.23721" lon="1.88418">
        <ele>817.526</ele>
        <time>2019-04-07T22:19:16Z</time>
      </trkpt>
      <trkpt lat="42.23726" lon="1.88417">
        <ele>818.587</ele>
        <time>2019-04-07T22:19:18Z</time>
      </trkpt>
      <trkpt lat="42.23727" lon="1.88417">
        <ele>818.687</ele>
        <time>2019-04-07T22:19:18Z</time>
      </trkpt>
      <trkpt lat="42.23728" lon="1.88417">
        <ele>818.661</ele>
        <time>2019-04-07T22:19:19Z</time>
      </trkpt>
      <trkpt lat="42.2373" lon="1.88417">
        <ele>818.86</ele>
        <time>2019-04-07T22:19:19Z</time>
      </trkpt>
      <trkpt lat="42.23731" lon="1.88418">
        <ele>818.962</ele>
        <time>2019-04-07T22:19:20Z</time>
      </trkpt>
      <trkpt lat="42.23733" lon="1.88421">
        <ele>818.721</ele>
        <time>2019-04-07T22:19:21Z</time>
      </trkpt>
      <trkpt lat="42.23736" lon="1.88423">
        <ele>819.041</ele>
        <time>2019-04-07T22:19:22Z</time>
      </trkpt>
      <trkpt lat="42.23738" lon="1.88426">
        <ele>819.205</ele>
        <time>2019-04-07T22:19:23Z</time>
      </trkpt>
      <trkpt lat="42.23739" lon="1.88428">
        <ele>819.208</ele>
        <time>2019-04-07T22:19:24Z</time>
      </trkpt>
      <trkpt lat="42.23741" lon="1.88432">
        <ele>819.465</ele>
        <time>2019-04-07T22:19:26Z</time>
      </trkpt>
      <trkpt lat="42.23743" lon="1.88435">
        <ele>819.677</ele>
        <time>2019-04-07T22:19:27Z</time>
      </trkpt>
      <trkpt lat="42.23744" lon="1.88436">
        <ele>819.712</ele>
        <time>2019-04-07T22:19:27Z</time>
      </trkpt>
      <trkpt lat="42.23747" lon="1.88439">
        <ele>820.863</ele>
        <time>2019-04-07T22:19:29Z</time>
      </trkpt>
      <trkpt lat="42.23747" lon="1.8844">
        <ele>821.333</ele>
        <time>2019-04-07T22:19:29Z</time>
      </trkpt>
      <trkpt lat="42.23748" lon="1.88441">
        <ele>822.077</ele>
        <time>2019-04-07T22:19:30Z</time>
      </trkpt>
      <trkpt lat="42.23748" lon="1.88443">
        <ele>822.676</ele>
        <time>2019-04-07T22:19:30Z</time>
      </trkpt>
      <trkpt lat="42.23748" lon="1.88445">
        <ele>822.618</ele>
        <time>2019-04-07T22:19:31Z</time>
      </trkpt>
      <trkpt lat="42.23749" lon="1.88449">
        <ele>823.239</ele>
        <time>2019-04-07T22:19:32Z</time>
      </trkpt>
      <trkpt lat="42.2375" lon="1.8845">
        <ele>823.101</ele>
        <time>2019-04-07T22:19:32Z</time>
      </trkpt>
      <trkpt lat="42.2375" lon="1.88452">
        <ele>823.421</ele>
        <time>2019-04-07T22:19:33Z</time>
      </trkpt>
      <trkpt lat="42.23749" lon="1.88457">
        <ele>823.508</ele>
        <time>2019-04-07T22:19:34Z</time>
      </trkpt>
      <trkpt lat="42.23749" lon="1.88459">
        <ele>824.296</ele>
        <time>2019-04-07T22:19:35Z</time>
      </trkpt>
      <trkpt lat="42.23748" lon="1.8846">
        <ele>824.238</ele>
        <time>2019-04-07T22:19:36Z</time>
      </trkpt>
      <trkpt lat="42.23748" lon="1.88462">
        <ele>824.563</ele>
        <time>2019-04-07T22:19:36Z</time>
      </trkpt>
      <trkpt lat="42.23748" lon="1.88464">
        <ele>824.664</ele>
        <time>2019-04-07T22:19:37Z</time>
      </trkpt>
      <trkpt lat="42.23747" lon="1.88462">
        <ele>824.534</ele>
        <time>2019-04-07T22:19:37Z</time>
      </trkpt>
      <trkpt lat="42.2375" lon="1.88452">
        <ele>823.638</ele>
        <time>2019-04-07T22:19:40Z</time>
      </trkpt>
      <trkpt lat="42.23752" lon="1.88449">
        <ele>823.257</ele>
        <time>2019-04-07T22:19:41Z</time>
      </trkpt>
      <trkpt lat="42.23755" lon="1.88449">
        <ele>822.869</ele>
        <time>2019-04-07T22:19:43Z</time>
      </trkpt>
      <trkpt lat="42.2376" lon="1.88458">
        <ele>822.631</ele>
        <time>2019-04-07T22:19:46Z</time>
      </trkpt>
      <trkpt lat="42.23768" lon="1.88463">
        <ele>822.261</ele>
        <time>2019-04-07T22:19:49Z</time>
      </trkpt>
      <trkpt lat="42.23773" lon="1.88467">
        <ele>822.007</ele>
        <time>2019-04-07T22:19:52Z</time>
      </trkpt>
      <trkpt lat="42.23774" lon="1.88469">
        <ele>822.008</ele>
        <time>2019-04-07T22:19:53Z</time>
      </trkpt>
      <trkpt lat="42.23777" lon="1.88471">
        <ele>822.146</ele>
        <time>2019-04-07T22:19:54Z</time>
      </trkpt>
      <trkpt lat="42.23784" lon="1.88477">
        <ele>822.848</ele>
        <time>2019-04-07T22:19:57Z</time>
      </trkpt>
      <trkpt lat="42.23785" lon="1.88477">
        <ele>823.133</ele>
        <time>2019-04-07T22:19:57Z</time>
      </trkpt>
      <trkpt lat="42.23792" lon="1.88482">
        <ele>824.184</ele>
        <time>2019-04-07T22:20:01Z</time>
      </trkpt>
      <trkpt lat="42.23801" lon="1.88483">
        <ele>824.354</ele>
        <time>2019-04-07T22:20:04Z</time>
      </trkpt>
      <trkpt lat="42.23812" lon="1.8848">
        <ele>824.628</ele>
        <time>2019-04-07T22:20:09Z</time>
      </trkpt>
      <trkpt lat="42.2383" lon="1.88483">
        <ele>825.097</ele>
        <time>2019-04-07T22:20:16Z</time>
      </trkpt>
      <trkpt lat="42.23831" lon="1.88484">
        <ele>825.429</ele>
        <time>2019-04-07T22:20:17Z</time>
      </trkpt>
      <trkpt lat="42.23836" lon="1.88487">
        <ele>825.196</ele>
        <time>2019-04-07T22:20:19Z</time>
      </trkpt>
      <trkpt lat="42.23837" lon="1.88487">
        <ele>825.031</ele>
        <time>2019-04-07T22:20:19Z</time>
      </trkpt>
      <trkpt lat="42.23837" lon="1.88488">
        <ele>824.724</ele>
        <time>2019-04-07T22:20:19Z</time>
      </trkpt>
      <trkpt lat="42.23838" lon="1.88487">
        <ele>824.408</ele>
        <time>2019-04-07T22:20:20Z</time>
      </trkpt>
      <trkpt lat="42.23839" lon="1.88486">
        <ele>824.352</ele>
        <time>2019-04-07T22:20:20Z</time>
      </trkpt>
      <trkpt lat="42.23842" lon="1.88488">
        <ele>823.774</ele>
        <time>2019-04-07T22:20:21Z</time>
      </trkpt>
      <trkpt lat="42.23846" lon="1.8849">
        <ele>823.639</ele>
        <time>2019-04-07T22:20:23Z</time>
      </trkpt>
      <trkpt lat="42.23849" lon="1.8849">
        <ele>823.61</ele>
        <time>2019-04-07T22:20:24Z</time>
      </trkpt>
      <trkpt lat="42.23861" lon="1.88495">
        <ele>823.67</ele>
        <time>2019-04-07T22:20:29Z</time>
      </trkpt>
      <trkpt lat="42.23867" lon="1.88495">
        <ele>823.394</ele>
        <time>2019-04-07T22:20:32Z</time>
      </trkpt>
      <trkpt lat="42.23869" lon="1.88495">
        <ele>823.393</ele>
        <time>2019-04-07T22:20:32Z</time>
      </trkpt>
      <trkpt lat="42.23878" lon="1.88504">
        <ele>823.145</ele>
        <time>2019-04-07T22:20:37Z</time>
      </trkpt>
      <trkpt lat="42.2388" lon="1.88506">
        <ele>823.324</ele>
        <time>2019-04-07T22:20:38Z</time>
      </trkpt>
      <trkpt lat="42.23887" lon="1.88514">
        <ele>822.604</ele>
        <time>2019-04-07T22:20:42Z</time>
      </trkpt>
      <trkpt lat="42.23893" lon="1.88522">
        <ele>822.214</ele>
        <time>2019-04-07T22:20:45Z</time>
      </trkpt>
      <trkpt lat="42.23903" lon="1.8853">
        <ele>821.208</ele>
        <time>2019-04-07T22:20:50Z</time>
      </trkpt>
      <trkpt lat="42.23909" lon="1.88534">
        <ele>821.325</ele>
        <time>2019-04-07T22:20:52Z</time>
      </trkpt>
      <trkpt lat="42.23914" lon="1.88533">
        <ele>821.637</ele>
        <time>2019-04-07T22:20:54Z</time>
      </trkpt>
      <trkpt lat="42.23931" lon="1.88529">
        <ele>820.782</ele>
        <time>2019-04-07T22:21:01Z</time>
      </trkpt>
      <trkpt lat="42.23948" lon="1.88525">
        <ele>821.143</ele>
        <time>2019-04-07T22:21:08Z</time>
      </trkpt>
      <trkpt lat="42.23956" lon="1.88526">
        <ele>820.683</ele>
        <time>2019-04-07T22:21:12Z</time>
      </trkpt>
      <trkpt lat="42.2396" lon="1.88527">
        <ele>820.787</ele>
        <time>2019-04-07T22:21:13Z</time>
      </trkpt>
      <trkpt lat="42.23972" lon="1.88531">
        <ele>820.926</ele>
        <time>2019-04-07T22:21:18Z</time>
      </trkpt>
      <trkpt lat="42.23979" lon="1.88534">
        <ele>820.798</ele>
        <time>2019-04-07T22:21:21Z</time>
      </trkpt>
      <trkpt lat="42.23989" lon="1.88535">
        <ele>821.663</ele>
        <time>2019-04-07T22:21:25Z</time>
      </trkpt>
      <trkpt lat="42.23991" lon="1.88535">
        <ele>821.444</ele>
        <time>2019-04-07T22:21:26Z</time>
      </trkpt>
      <trkpt lat="42.23993" lon="1.88536">
        <ele>821.218</ele>
        <time>2019-04-07T22:21:27Z</time>
      </trkpt>
      <trkpt lat="42.24001" lon="1.88542">
        <ele>820.008</ele>
        <time>2019-04-07T22:21:30Z</time>
      </trkpt>
      <trkpt lat="42.24003" lon="1.88543">
        <ele>820.329</ele>
        <time>2019-04-07T22:21:31Z</time>
      </trkpt>
      <trkpt lat="42.24006" lon="1.88544">
        <ele>821.391</ele>
        <time>2019-04-07T22:21:32Z</time>
      </trkpt>
      <trkpt lat="42.24013" lon="1.88546">
        <ele>822.356</ele>
        <time>2019-04-07T22:21:35Z</time>
      </trkpt>
      <trkpt lat="42.2402" lon="1.88547">
        <ele>822.427</ele>
        <time>2019-04-07T22:21:38Z</time>
      </trkpt>
      <trkpt lat="42.24021" lon="1.88547">
        <ele>822.537</ele>
        <time>2019-04-07T22:21:38Z</time>
      </trkpt>
      <trkpt lat="42.24027" lon="1.88547">
        <ele>822.951</ele>
        <time>2019-04-07T22:21:41Z</time>
      </trkpt>
      <trkpt lat="42.24031" lon="1.88547">
        <ele>822.54</ele>
        <time>2019-04-07T22:21:42Z</time>
      </trkpt>
      <trkpt lat="42.24039" lon="1.88548">
        <ele>822.542</ele>
        <time>2019-04-07T22:21:45Z</time>
      </trkpt>
      <trkpt lat="42.24041" lon="1.88549">
        <ele>822.594</ele>
        <time>2019-04-07T22:21:46Z</time>
      </trkpt>
      <trkpt lat="42.24053" lon="1.88553">
        <ele>821.557</ele>
        <time>2019-04-07T22:21:52Z</time>
      </trkpt>
      <trkpt lat="42.24059" lon="1.88557">
        <ele>821.222</ele>
        <time>2019-04-07T22:21:54Z</time>
      </trkpt>
      <trkpt lat="42.24067" lon="1.8856">
        <ele>821.508</ele>
        <time>2019-04-07T22:21:57Z</time>
      </trkpt>
      <trkpt lat="42.24069" lon="1.88561">
        <ele>821.782</ele>
        <time>2019-04-07T22:21:58Z</time>
      </trkpt>
      <trkpt lat="42.24075" lon="1.88564">
        <ele>820.194</ele>
        <time>2019-04-07T22:22:01Z</time>
      </trkpt>
      <trkpt lat="42.24077" lon="1.88566">
        <ele>819.759</ele>
        <time>2019-04-07T22:22:02Z</time>
      </trkpt>
      <trkpt lat="42.24091" lon="1.88566">
        <ele>819.17</ele>
        <time>2019-04-07T22:22:07Z</time>
      </trkpt>
      <trkpt lat="42.24093" lon="1.88565">
        <ele>818.91</ele>
        <time>2019-04-07T22:22:08Z</time>
      </trkpt>
      <trkpt lat="42.24099" lon="1.88563">
        <ele>818.344</ele>
        <time>2019-04-07T22:22:11Z</time>
      </trkpt>
      <trkpt lat="42.24102" lon="1.88561">
        <ele>818.123</ele>
        <time>2019-04-07T22:22:12Z</time>
      </trkpt>
      <trkpt lat="42.24103" lon="1.88561">
        <ele>817.855</ele>
        <time>2019-04-07T22:22:12Z</time>
      </trkpt>
      <trkpt lat="42.24106" lon="1.8856">
        <ele>817.134</ele>
        <time>2019-04-07T22:22:14Z</time>
      </trkpt>
      <trkpt lat="42.24109" lon="1.88559">
        <ele>816.755</ele>
        <time>2019-04-07T22:22:15Z</time>
      </trkpt>
      <trkpt lat="42.24113" lon="1.88558">
        <ele>816.01</ele>
        <time>2019-04-07T22:22:16Z</time>
      </trkpt>
      <trkpt lat="42.24115" lon="1.88558">
        <ele>815.708</ele>
        <time>2019-04-07T22:22:17Z</time>
      </trkpt>
      <trkpt lat="42.24117" lon="1.88558">
        <ele>815.586</ele>
        <time>2019-04-07T22:22:18Z</time>
      </trkpt>
      <trkpt lat="42.24128" lon="1.88557">
        <ele>814.618</ele>
        <time>2019-04-07T22:22:22Z</time>
      </trkpt>
      <trkpt lat="42.2414" lon="1.88558">
        <ele>813.663</ele>
        <time>2019-04-07T22:22:27Z</time>
      </trkpt>
      <trkpt lat="42.24143" lon="1.88561">
        <ele>813.724</ele>
        <time>2019-04-07T22:22:29Z</time>
      </trkpt>
      <trkpt lat="42.24144" lon="1.88565">
        <ele>813.434</ele>
        <time>2019-04-07T22:22:30Z</time>
      </trkpt>
      <trkpt lat="42.24144" lon="1.88567">
        <ele>813.598</ele>
        <time>2019-04-07T22:22:31Z</time>
      </trkpt>
      <trkpt lat="42.24144" lon="1.88568">
        <ele>813.447</ele>
        <time>2019-04-07T22:22:31Z</time>
      </trkpt>
      <trkpt lat="42.24149" lon="1.88566">
        <ele>813.759</ele>
        <time>2019-04-07T22:22:33Z</time>
      </trkpt>
      <trkpt lat="42.24155" lon="1.88568">
        <ele>814.463</ele>
        <time>2019-04-07T22:22:36Z</time>
      </trkpt>
      <trkpt lat="42.24163" lon="1.88569">
        <ele>814.044</ele>
        <time>2019-04-07T22:22:39Z</time>
      </trkpt>
      <trkpt lat="42.24166" lon="1.88569">
        <ele>813.718</ele>
        <time>2019-04-07T22:22:40Z</time>
      </trkpt>
      <trkpt lat="42.24167" lon="1.88572">
        <ele>814.208</ele>
        <time>2019-04-07T22:22:41Z</time>
      </trkpt>
      <trkpt lat="42.24167" lon="1.88574">
        <ele>814.619</ele>
        <time>2019-04-07T22:22:42Z</time>
      </trkpt>
      <trkpt lat="42.24167" lon="1.88576">
        <ele>814.411</ele>
        <time>2019-04-07T22:22:42Z</time>
      </trkpt>
      <trkpt lat="42.24167" lon="1.88578">
        <ele>814.726</ele>
        <time>2019-04-07T22:22:43Z</time>
      </trkpt>
      <trkpt lat="42.24166" lon="1.88579">
        <ele>814.597</ele>
        <time>2019-04-07T22:22:43Z</time>
      </trkpt>
      <trkpt lat="42.24164" lon="1.8858">
        <ele>814.727</ele>
        <time>2019-04-07T22:22:44Z</time>
      </trkpt>
      <trkpt lat="42.24162" lon="1.88581">
        <ele>814.651</ele>
        <time>2019-04-07T22:22:45Z</time>
      </trkpt>
      <trkpt lat="42.24151" lon="1.88579">
        <ele>814.28</ele>
        <time>2019-04-07T22:22:50Z</time>
      </trkpt>
      <trkpt lat="42.24148" lon="1.88579">
        <ele>810.962</ele>
        <time>2019-04-07T22:22:51Z</time>
      </trkpt>
      <trkpt lat="42.24148" lon="1.88579">
        <ele>812.926</ele>
        <time>2019-04-07T22:22:51Z</time>
      </trkpt>
      <trkpt lat="42.24148" lon="1.88579">
        <ele>813.047</ele>
        <time>2019-04-07T22:22:51Z</time>
      </trkpt>
      <trkpt lat="42.24153" lon="1.8858">
        <ele>813.711</ele>
        <time>2019-04-07T22:22:53Z</time>
      </trkpt>
      <trkpt lat="42.24159" lon="1.88584">
        <ele>813.708</ele>
        <time>2019-04-07T22:22:56Z</time>
      </trkpt>
      <trkpt lat="42.24161" lon="1.88586">
        <ele>813.945</ele>
        <time>2019-04-07T22:22:56Z</time>
      </trkpt>
      <trkpt lat="42.24162" lon="1.88588">
        <ele>813.747</ele>
        <time>2019-04-07T22:22:57Z</time>
      </trkpt>
      <trkpt lat="42.24164" lon="1.8859">
        <ele>813.462</ele>
        <time>2019-04-07T22:22:58Z</time>
      </trkpt>
      <trkpt lat="42.24167" lon="1.88595">
        <ele>812.873</ele>
        <time>2019-04-07T22:23:00Z</time>
      </trkpt>
      <trkpt lat="42.2417" lon="1.88601">
        <ele>812.643</ele>
        <time>2019-04-07T22:23:02Z</time>
      </trkpt>
      <trkpt lat="42.24172" lon="1.88611">
        <ele>812.177</ele>
        <time>2019-04-07T22:23:05Z</time>
      </trkpt>
      <trkpt lat="42.24172" lon="1.88602">
        <ele>812.916</ele>
        <time>2019-04-07T22:23:08Z</time>
      </trkpt>
      <trkpt lat="42.24171" lon="1.88597">
        <ele>813.428</ele>
        <time>2019-04-07T22:23:10Z</time>
      </trkpt>
      <trkpt lat="42.24171" lon="1.88592">
        <ele>813.593</ele>
        <time>2019-04-07T22:23:11Z</time>
      </trkpt>
      <trkpt lat="42.24172" lon="1.88589">
        <ele>813.465</ele>
        <time>2019-04-07T22:23:12Z</time>
      </trkpt>
      <trkpt lat="42.24173" lon="1.88586">
        <ele>813.021</ele>
        <time>2019-04-07T22:23:13Z</time>
      </trkpt>
      <trkpt lat="42.24173" lon="1.88584">
        <ele>813.208</ele>
        <time>2019-04-07T22:23:14Z</time>
      </trkpt>
      <trkpt lat="42.24173" lon="1.88583">
        <ele>813.772</ele>
        <time>2019-04-07T22:23:14Z</time>
      </trkpt>
      <trkpt lat="42.24173" lon="1.88584">
        <ele>813.974</ele>
        <time>2019-04-07T22:23:14Z</time>
      </trkpt>
      <trkpt lat="42.24175" lon="1.8858">
        <ele>815.169</ele>
        <time>2019-04-07T22:23:15Z</time>
      </trkpt>
      <trkpt lat="42.24176" lon="1.88579">
        <ele>815.74</ele>
        <time>2019-04-07T22:23:16Z</time>
      </trkpt>
      <trkpt lat="42.24177" lon="1.88579">
        <ele>816.45</ele>
        <time>2019-04-07T22:23:16Z</time>
      </trkpt>
      <trkpt lat="42.24178" lon="1.88578">
        <ele>816.444</ele>
        <time>2019-04-07T22:23:17Z</time>
      </trkpt>
      <trkpt lat="42.24179" lon="1.88578">
        <ele>816.513</ele>
        <time>2019-04-07T22:23:17Z</time>
      </trkpt>
      <trkpt lat="42.24179" lon="1.88579">
        <ele>816.675</ele>
        <time>2019-04-07T22:23:17Z</time>
      </trkpt>
      <trkpt lat="42.2418" lon="1.88578">
        <ele>816.962</ele>
        <time>2019-04-07T22:23:18Z</time>
      </trkpt>
      <trkpt lat="42.2418" lon="1.88578">
        <ele>817.383</ele>
        <time>2019-04-07T22:23:18Z</time>
      </trkpt>
      <trkpt lat="42.2418" lon="1.88577">
        <ele>817.211</ele>
        <time>2019-04-07T22:23:18Z</time>
      </trkpt>
      <trkpt lat="42.24181" lon="1.88576">
        <ele>817.408</ele>
        <time>2019-04-07T22:23:18Z</time>
      </trkpt>
      <trkpt lat="42.24183" lon="1.88579">
        <ele>817.669</ele>
        <time>2019-04-07T22:23:19Z</time>
      </trkpt>
      <trkpt lat="42.24185" lon="1.88581">
        <ele>818.571</ele>
        <time>2019-04-07T22:23:20Z</time>
      </trkpt>
      <trkpt lat="42.24188" lon="1.88583">
        <ele>819.196</ele>
        <time>2019-04-07T22:23:22Z</time>
      </trkpt>
      <trkpt lat="42.2419" lon="1.88584">
        <ele>819.387</ele>
        <time>2019-04-07T22:23:22Z</time>
      </trkpt>
      <trkpt lat="42.24194" lon="1.88585">
        <ele>819.557</ele>
        <time>2019-04-07T22:23:24Z</time>
      </trkpt>
      <trkpt lat="42.24196" lon="1.88588">
        <ele>819.641</ele>
        <time>2019-04-07T22:23:25Z</time>
      </trkpt>
      <trkpt lat="42.24198" lon="1.88589">
        <ele>819.68</ele>
        <time>2019-04-07T22:23:26Z</time>
      </trkpt>
      <trkpt lat="42.24206" lon="1.88592">
        <ele>820.062</ele>
        <time>2019-04-07T22:23:30Z</time>
      </trkpt>
      <trkpt lat="42.24211" lon="1.88592">
        <ele>820.745</ele>
        <time>2019-04-07T22:23:31Z</time>
      </trkpt>
      <trkpt lat="42.24213" lon="1.88593">
        <ele>820.747</ele>
        <time>2019-04-07T22:23:32Z</time>
      </trkpt>
      <trkpt lat="42.2422" lon="1.88593">
        <ele>821.011</ele>
        <time>2019-04-07T22:23:35Z</time>
      </trkpt>
      <trkpt lat="42.24223" lon="1.88594">
        <ele>821.208</ele>
        <time>2019-04-07T22:23:36Z</time>
      </trkpt>
      <trkpt lat="42.24224" lon="1.88595">
        <ele>821.227</ele>
        <time>2019-04-07T22:23:37Z</time>
      </trkpt>
      <trkpt lat="42.24225" lon="1.88591">
        <ele>821.499</ele>
        <time>2019-04-07T22:23:38Z</time>
      </trkpt>
      <trkpt lat="42.24225" lon="1.88589">
        <ele>821.564</ele>
        <time>2019-04-07T22:23:38Z</time>
      </trkpt>
      <trkpt lat="42.24225" lon="1.88587">
        <ele>821.845</ele>
        <time>2019-04-07T22:23:39Z</time>
      </trkpt>
      <trkpt lat="42.24226" lon="1.88584">
        <ele>822.265</ele>
        <time>2019-04-07T22:23:40Z</time>
      </trkpt>
      <trkpt lat="42.24226" lon="1.88581">
        <ele>823.469</ele>
        <time>2019-04-07T22:23:41Z</time>
      </trkpt>
      <trkpt lat="42.24227" lon="1.88578">
        <ele>824.318</ele>
        <time>2019-04-07T22:23:42Z</time>
      </trkpt>
      <trkpt lat="42.24229" lon="1.88575">
        <ele>825.07</ele>
        <time>2019-04-07T22:23:43Z</time>
      </trkpt>
      <trkpt lat="42.24232" lon="1.88572">
        <ele>825.556</ele>
        <time>2019-04-07T22:23:45Z</time>
      </trkpt>
      <trkpt lat="42.24233" lon="1.88569">
        <ele>825.459</ele>
        <time>2019-04-07T22:23:45Z</time>
      </trkpt>
      <trkpt lat="42.24236" lon="1.8857">
        <ele>825.414</ele>
        <time>2019-04-07T22:23:47Z</time>
      </trkpt>
      <trkpt lat="42.24238" lon="1.88574">
        <ele>825.408</ele>
        <time>2019-04-07T22:23:48Z</time>
      </trkpt>
      <trkpt lat="42.2424" lon="1.88578">
        <ele>825.998</ele>
        <time>2019-04-07T22:23:50Z</time>
      </trkpt>
      <trkpt lat="42.24244" lon="1.88585">
        <ele>826.53</ele>
        <time>2019-04-07T22:23:52Z</time>
      </trkpt>
      <trkpt lat="42.24246" lon="1.88587">
        <ele>827.715</ele>
        <time>2019-04-07T22:23:53Z</time>
      </trkpt>
      <trkpt lat="42.24247" lon="1.88588">
        <ele>828.326</ele>
        <time>2019-04-07T22:23:53Z</time>
      </trkpt>
      <trkpt lat="42.24248" lon="1.88591">
        <ele>828.566</ele>
        <time>2019-04-07T22:23:55Z</time>
      </trkpt>
      <trkpt lat="42.24248" lon="1.88592">
        <ele>828.99</ele>
        <time>2019-04-07T22:23:55Z</time>
      </trkpt>
      <trkpt lat="42.24249" lon="1.88593">
        <ele>829.449</ele>
        <time>2019-04-07T22:23:55Z</time>
      </trkpt>
      <trkpt lat="42.24249" lon="1.88593">
        <ele>829.951</ele>
        <time>2019-04-07T22:23:55Z</time>
      </trkpt>
      <trkpt lat="42.2425" lon="1.88595">
        <ele>829.962</ele>
        <time>2019-04-07T22:23:56Z</time>
      </trkpt>
      <trkpt lat="42.2425" lon="1.88596">
        <ele>830.183</ele>
        <time>2019-04-07T22:23:56Z</time>
      </trkpt>
      <trkpt lat="42.24252" lon="1.88601">
        <ele>830.411</ele>
        <time>2019-04-07T22:23:58Z</time>
      </trkpt>
      <trkpt lat="42.24252" lon="1.88605">
        <ele>830.708</ele>
        <time>2019-04-07T22:23:59Z</time>
      </trkpt>
      <trkpt lat="42.24253" lon="1.88607">
        <ele>831.329</ele>
        <time>2019-04-07T22:24:00Z</time>
      </trkpt>
      <trkpt lat="42.24253" lon="1.88615">
        <ele>832.571</ele>
        <time>2019-04-07T22:24:02Z</time>
      </trkpt>
      <trkpt lat="42.24251" lon="1.88615">
        <ele>833.466</ele>
        <time>2019-04-07T22:24:03Z</time>
      </trkpt>
      <trkpt lat="42.2425" lon="1.88614">
        <ele>833.677</ele>
        <time>2019-04-07T22:24:03Z</time>
      </trkpt>
      <trkpt lat="42.2425" lon="1.88614">
        <ele>833.537</ele>
        <time>2019-04-07T22:24:03Z</time>
      </trkpt>
      <trkpt lat="42.24253" lon="1.88615">
        <ele>833.231</ele>
        <time>2019-04-07T22:24:04Z</time>
      </trkpt>
      <trkpt lat="42.24253" lon="1.88616">
        <ele>832.76</ele>
        <time>2019-04-07T22:24:04Z</time>
      </trkpt>
      <trkpt lat="42.2425" lon="1.88623">
        <ele>833.462</ele>
        <time>2019-04-07T22:24:07Z</time>
      </trkpt>
      <trkpt lat="42.2425" lon="1.88625">
        <ele>833.511</ele>
        <time>2019-04-07T22:24:07Z</time>
      </trkpt>
      <trkpt lat="42.24254" lon="1.88623">
        <ele>832.921</ele>
        <time>2019-04-07T22:24:09Z</time>
      </trkpt>
      <trkpt lat="42.24255" lon="1.88622">
        <ele>832.403</ele>
        <time>2019-04-07T22:24:10Z</time>
      </trkpt>
      <trkpt lat="42.24258" lon="1.8862">
        <ele>833.408</ele>
        <time>2019-04-07T22:24:11Z</time>
      </trkpt>
      <trkpt lat="42.24256" lon="1.8862">
        <ele>833.384</ele>
        <time>2019-04-07T22:24:11Z</time>
      </trkpt>
      <trkpt lat="42.24255" lon="1.88617">
        <ele>833.426</ele>
        <time>2019-04-07T22:24:12Z</time>
      </trkpt>
      <trkpt lat="42.24256" lon="1.88616">
        <ele>833.611</ele>
        <time>2019-04-07T22:24:13Z</time>
      </trkpt>
      <trkpt lat="42.24255" lon="1.88618">
        <ele>833.562</ele>
        <time>2019-04-07T22:24:13Z</time>
      </trkpt>
      <trkpt lat="42.24254" lon="1.8862">
        <ele>833.552</ele>
        <time>2019-04-07T22:24:14Z</time>
      </trkpt>
      <trkpt lat="42.24257" lon="1.88618">
        <ele>833.246</ele>
        <time>2019-04-07T22:24:15Z</time>
      </trkpt>
      <trkpt lat="42.24259" lon="1.88615">
        <ele>832.675</ele>
        <time>2019-04-07T22:24:16Z</time>
      </trkpt>
      <trkpt lat="42.24258" lon="1.88613">
        <ele>832.817</ele>
        <time>2019-04-07T22:24:17Z</time>
      </trkpt>
      <trkpt lat="42.24256" lon="1.88613">
        <ele>832.731</ele>
        <time>2019-04-07T22:24:18Z</time>
      </trkpt>
      <trkpt lat="42.24254" lon="1.88615">
        <ele>833.261</ele>
        <time>2019-04-07T22:24:19Z</time>
      </trkpt>
      <trkpt lat="42.24253" lon="1.88615">
        <ele>833.207</ele>
        <time>2019-04-07T22:24:19Z</time>
      </trkpt>
      <trkpt lat="42.24255" lon="1.88618">
        <ele>833.208</ele>
        <time>2019-04-07T22:24:20Z</time>
      </trkpt>
      <trkpt lat="42.24256" lon="1.88617">
        <ele>833.496</ele>
        <time>2019-04-07T22:24:21Z</time>
      </trkpt>
      <trkpt lat="42.24258" lon="1.88613">
        <ele>833.138</ele>
        <time>2019-04-07T22:24:22Z</time>
      </trkpt>
      <trkpt lat="42.2426" lon="1.88612">
        <ele>832.773</ele>
        <time>2019-04-07T22:24:23Z</time>
      </trkpt>
      <trkpt lat="42.2426" lon="1.88612">
        <ele>832.614</ele>
        <time>2019-04-07T22:24:23Z</time>
      </trkpt>
      <trkpt lat="42.24259" lon="1.88612">
        <ele>832.544</ele>
        <time>2019-04-07T22:24:23Z</time>
      </trkpt>
      <trkpt lat="42.24258" lon="1.88613">
        <ele>832.588</ele>
        <time>2019-04-07T22:24:24Z</time>
      </trkpt>
      <trkpt lat="42.24257" lon="1.88613">
        <ele>832.677</ele>
        <time>2019-04-07T22:24:24Z</time>
      </trkpt>
      <trkpt lat="42.24256" lon="1.88613">
        <ele>832.599</ele>
        <time>2019-04-07T22:24:25Z</time>
      </trkpt>
      <trkpt lat="42.24255" lon="1.88614">
        <ele>832.566</ele>
        <time>2019-04-07T22:24:25Z</time>
      </trkpt>
      <trkpt lat="42.24256" lon="1.88619">
        <ele>832.629</ele>
        <time>2019-04-07T22:24:26Z</time>
      </trkpt>
      <trkpt lat="42.24256" lon="1.8862">
        <ele>832.521</ele>
        <time>2019-04-07T22:24:27Z</time>
      </trkpt>
      <trkpt lat="42.24258" lon="1.88632">
        <ele>833.208</ele>
        <time>2019-04-07T22:24:30Z</time>
      </trkpt>
      <trkpt lat="42.24258" lon="1.88634">
        <ele>833.639</ele>
        <time>2019-04-07T22:24:31Z</time>
      </trkpt>
      <trkpt lat="42.24259" lon="1.8864">
        <ele>834.681</ele>
        <time>2019-04-07T22:24:33Z</time>
      </trkpt>
      <trkpt lat="42.24259" lon="1.88646">
        <ele>835.546</ele>
        <time>2019-04-07T22:24:34Z</time>
      </trkpt>
      <trkpt lat="42.24259" lon="1.88648">
        <ele>835.977</ele>
        <time>2019-04-07T22:24:35Z</time>
      </trkpt>
      <trkpt lat="42.2426" lon="1.88656">
        <ele>835.767</ele>
        <time>2019-04-07T22:24:37Z</time>
      </trkpt>
      <trkpt lat="42.24261" lon="1.88663">
        <ele>835.371</ele>
        <time>2019-04-07T22:24:40Z</time>
      </trkpt>
      <trkpt lat="42.24262" lon="1.88668">
        <ele>835.05</ele>
        <time>2019-04-07T22:24:41Z</time>
      </trkpt>
      <trkpt lat="42.24264" lon="1.8868">
        <ele>834.732</ele>
        <time>2019-04-07T22:24:45Z</time>
      </trkpt>
      <trkpt lat="42.24265" lon="1.88684">
        <ele>834.281</ele>
        <time>2019-04-07T22:24:46Z</time>
      </trkpt>
      <trkpt lat="42.24268" lon="1.88697">
        <ele>834.361</ele>
        <time>2019-04-07T22:24:50Z</time>
      </trkpt>
      <trkpt lat="42.24271" lon="1.88703">
        <ele>834.217</ele>
        <time>2019-04-07T22:24:52Z</time>
      </trkpt>
      <trkpt lat="42.24274" lon="1.88708">
        <ele>833.708</ele>
        <time>2019-04-07T22:24:54Z</time>
      </trkpt>
      <trkpt lat="42.24275" lon="1.88711">
        <ele>833.561</ele>
        <time>2019-04-07T22:24:55Z</time>
      </trkpt>
      <trkpt lat="42.24276" lon="1.88729">
        <ele>833.413</ele>
        <time>2019-04-07T22:25:00Z</time>
      </trkpt>
      <trkpt lat="42.24273" lon="1.88742">
        <ele>832.778</ele>
        <time>2019-04-07T22:25:04Z</time>
      </trkpt>
      <trkpt lat="42.24272" lon="1.88747">
        <ele>833.129</ele>
        <time>2019-04-07T22:25:06Z</time>
      </trkpt>
      <trkpt lat="42.2427" lon="1.8875">
        <ele>833.569</ele>
        <time>2019-04-07T22:25:07Z</time>
      </trkpt>
      <trkpt lat="42.2427" lon="1.88752">
        <ele>833.543</ele>
        <time>2019-04-07T22:25:08Z</time>
      </trkpt>
      <trkpt lat="42.24269" lon="1.8876">
        <ele>834.222</ele>
        <time>2019-04-07T22:25:10Z</time>
      </trkpt>
      <trkpt lat="42.24268" lon="1.88765">
        <ele>834.124</ele>
        <time>2019-04-07T22:25:11Z</time>
      </trkpt>
      <trkpt lat="42.24268" lon="1.88773">
        <ele>833.038</ele>
        <time>2019-04-07T22:25:14Z</time>
      </trkpt>
      <trkpt lat="42.24267" lon="1.88775">
        <ele>832.57</ele>
        <time>2019-04-07T22:25:14Z</time>
      </trkpt>
      <trkpt lat="42.24267" lon="1.88776">
        <ele>832.517</ele>
        <time>2019-04-07T22:25:15Z</time>
      </trkpt>
      <trkpt lat="42.24262" lon="1.88788">
        <ele>833.508</ele>
        <time>2019-04-07T22:25:19Z</time>
      </trkpt>
      <trkpt lat="42.24261" lon="1.88792">
        <ele>833.616</ele>
        <time>2019-04-07T22:25:20Z</time>
      </trkpt>
      <trkpt lat="42.24261" lon="1.88794">
        <ele>834.218</ele>
        <time>2019-04-07T22:25:21Z</time>
      </trkpt>
      <trkpt lat="42.24259" lon="1.888">
        <ele>834.273</ele>
        <time>2019-04-07T22:25:23Z</time>
      </trkpt>
      <trkpt lat="42.24257" lon="1.88803">
        <ele>834.384</ele>
        <time>2019-04-07T22:25:24Z</time>
      </trkpt>
      <trkpt lat="42.24254" lon="1.88808">
        <ele>833.984</ele>
        <time>2019-04-07T22:25:26Z</time>
      </trkpt>
      <trkpt lat="42.24254" lon="1.8881">
        <ele>833.938</ele>
        <time>2019-04-07T22:25:26Z</time>
      </trkpt>
      <trkpt lat="42.24253" lon="1.88816">
        <ele>834.247</ele>
        <time>2019-04-07T22:25:28Z</time>
      </trkpt>
      <trkpt lat="42.24253" lon="1.88821">
        <ele>834.139</ele>
        <time>2019-04-07T22:25:29Z</time>
      </trkpt>
      <trkpt lat="42.24254" lon="1.88824">
        <ele>834.241</ele>
        <time>2019-04-07T22:25:31Z</time>
      </trkpt>
      <trkpt lat="42.24258" lon="1.88838">
        <ele>833.381</ele>
        <time>2019-04-07T22:25:35Z</time>
      </trkpt>
      <trkpt lat="42.24258" lon="1.88837">
        <ele>833.209</ele>
        <time>2019-04-07T22:25:35Z</time>
      </trkpt>
      <trkpt lat="42.24257" lon="1.88835">
        <ele>833.408</ele>
        <time>2019-04-07T22:25:36Z</time>
      </trkpt>
      <trkpt lat="42.24256" lon="1.88835">
        <ele>833.617</ele>
        <time>2019-04-07T22:25:36Z</time>
      </trkpt>
      <trkpt lat="42.24256" lon="1.88839">
        <ele>833.759</ele>
        <time>2019-04-07T22:25:37Z</time>
      </trkpt>
      <trkpt lat="42.24259" lon="1.88853">
        <ele>833.254</ele>
        <time>2019-04-07T22:25:42Z</time>
      </trkpt>
      <trkpt lat="42.24262" lon="1.88863">
        <ele>833.455</ele>
        <time>2019-04-07T22:25:45Z</time>
      </trkpt>
      <trkpt lat="42.24263" lon="1.88864">
        <ele>833.285</ele>
        <time>2019-04-07T22:25:45Z</time>
      </trkpt>
      <trkpt lat="42.24263" lon="1.88866">
        <ele>833.499</ele>
        <time>2019-04-07T22:25:46Z</time>
      </trkpt>
      <trkpt lat="42.24266" lon="1.88873">
        <ele>833.768</ele>
        <time>2019-04-07T22:25:48Z</time>
      </trkpt>
      <trkpt lat="42.24267" lon="1.8888">
        <ele>833.63</ele>
        <time>2019-04-07T22:25:50Z</time>
      </trkpt>
      <trkpt lat="42.24271" lon="1.88886">
        <ele>832.757</ele>
        <time>2019-04-07T22:25:53Z</time>
      </trkpt>
      <trkpt lat="42.24272" lon="1.88887">
        <ele>832.5</ele>
        <time>2019-04-07T22:25:53Z</time>
      </trkpt>
      <trkpt lat="42.24276" lon="1.88888">
        <ele>832.22</ele>
        <time>2019-04-07T22:25:55Z</time>
      </trkpt>
      <trkpt lat="42.24281" lon="1.88889">
        <ele>832.408</ele>
        <time>2019-04-07T22:25:57Z</time>
      </trkpt>
      <trkpt lat="42.24289" lon="1.8889">
        <ele>831.848</ele>
        <time>2019-04-07T22:26:00Z</time>
      </trkpt>
      <trkpt lat="42.24299" lon="1.88893">
        <ele>832.26</ele>
        <time>2019-04-07T22:26:04Z</time>
      </trkpt>
      <trkpt lat="42.24309" lon="1.88897">
        <ele>832.585</ele>
        <time>2019-04-07T22:26:08Z</time>
      </trkpt>
      <trkpt lat="42.24311" lon="1.88898">
        <ele>832.376</ele>
        <time>2019-04-07T22:26:09Z</time>
      </trkpt>
      <trkpt lat="42.24324" lon="1.88906">
        <ele>831.916</ele>
        <time>2019-04-07T22:26:15Z</time>
      </trkpt>
      <trkpt lat="42.24327" lon="1.88911">
        <ele>831.24</ele>
        <time>2019-04-07T22:26:17Z</time>
      </trkpt>
      <trkpt lat="42.24328" lon="1.88915">
        <ele>830.399</ele>
        <time>2019-04-07T22:26:18Z</time>
      </trkpt>
      <trkpt lat="42.2433" lon="1.88919">
        <ele>830.181</ele>
        <time>2019-04-07T22:26:19Z</time>
      </trkpt>
      <trkpt lat="42.24332" lon="1.88923">
        <ele>830.868</ele>
        <time>2019-04-07T22:26:21Z</time>
      </trkpt>
      <trkpt lat="42.24334" lon="1.88928">
        <ele>831.042</ele>
        <time>2019-04-07T22:26:23Z</time>
      </trkpt>
      <trkpt lat="42.24338" lon="1.8893">
        <ele>830.726</ele>
        <time>2019-04-07T22:26:24Z</time>
      </trkpt>
      <trkpt lat="42.24339" lon="1.8893">
        <ele>830.408</ele>
        <time>2019-04-07T22:26:25Z</time>
      </trkpt>
      <trkpt lat="42.24346" lon="1.8893">
        <ele>831.479</ele>
        <time>2019-04-07T22:26:28Z</time>
      </trkpt>
      <trkpt lat="42.24349" lon="1.88931">
        <ele>832.481</ele>
        <time>2019-04-07T22:26:29Z</time>
      </trkpt>
      <trkpt lat="42.2435" lon="1.88932">
        <ele>833.136</ele>
        <time>2019-04-07T22:26:29Z</time>
      </trkpt>
      <trkpt lat="42.24351" lon="1.88933">
        <ele>833.757</ele>
        <time>2019-04-07T22:26:30Z</time>
      </trkpt>
      <trkpt lat="42.24354" lon="1.88936">
        <ele>834.637</ele>
        <time>2019-04-07T22:26:31Z</time>
      </trkpt>
      <trkpt lat="42.24355" lon="1.88937">
        <ele>834.961</ele>
        <time>2019-04-07T22:26:32Z</time>
      </trkpt>
      <trkpt lat="42.24356" lon="1.88938">
        <ele>835.11</ele>
        <time>2019-04-07T22:26:32Z</time>
      </trkpt>
      <trkpt lat="42.24357" lon="1.88939">
        <ele>835.352</ele>
        <time>2019-04-07T22:26:33Z</time>
      </trkpt>
      <trkpt lat="42.24357" lon="1.88939">
        <ele>835.116</ele>
        <time>2019-04-07T22:26:33Z</time>
      </trkpt>
      <trkpt lat="42.24357" lon="1.88939">
        <ele>834.976</ele>
        <time>2019-04-07T22:26:33Z</time>
      </trkpt>
      <trkpt lat="42.24357" lon="1.88938">
        <ele>834.713</ele>
        <time>2019-04-07T22:26:33Z</time>
      </trkpt>
      <trkpt lat="42.24357" lon="1.88938">
        <ele>834.708</ele>
        <time>2019-04-07T22:26:33Z</time>
      </trkpt>
      <trkpt lat="42.24356" lon="1.88936">
        <ele>834.974</ele>
        <time>2019-04-07T22:26:34Z</time>
      </trkpt>
      <trkpt lat="42.24357" lon="1.88935">
        <ele>835.126</ele>
        <time>2019-04-07T22:26:34Z</time>
      </trkpt>
      <trkpt lat="42.24358" lon="1.88934">
        <ele>835.491</ele>
        <time>2019-04-07T22:26:35Z</time>
      </trkpt>
      <trkpt lat="42.24359" lon="1.88934">
        <ele>835.752</ele>
        <time>2019-04-07T22:26:35Z</time>
      </trkpt>
      <trkpt lat="42.24361" lon="1.88935">
        <ele>836.352</ele>
        <time>2019-04-07T22:26:36Z</time>
      </trkpt>
      <trkpt lat="42.24362" lon="1.88935">
        <ele>837.296</ele>
        <time>2019-04-07T22:26:36Z</time>
      </trkpt>
      <trkpt lat="42.24362" lon="1.88935">
        <ele>837.745</ele>
        <time>2019-04-07T22:26:36Z</time>
      </trkpt>
      <trkpt lat="42.24365" lon="1.88937">
        <ele>838.157</ele>
        <time>2019-04-07T22:26:37Z</time>
      </trkpt>
      <trkpt lat="42.24365" lon="1.88937">
        <ele>838.359</ele>
        <time>2019-04-07T22:26:38Z</time>
      </trkpt>
      <trkpt lat="42.24369" lon="1.88935">
        <ele>839.303</ele>
        <time>2019-04-07T22:26:39Z</time>
      </trkpt>
      <trkpt lat="42.24369" lon="1.88934">
        <ele>839.423</ele>
        <time>2019-04-07T22:26:39Z</time>
      </trkpt>
      <trkpt lat="42.24371" lon="1.88933">
        <ele>840.208</ele>
        <time>2019-04-07T22:26:40Z</time>
      </trkpt>
      <trkpt lat="42.24372" lon="1.88933">
        <ele>840.478</ele>
        <time>2019-04-07T22:26:41Z</time>
      </trkpt>
      <trkpt lat="42.24373" lon="1.88933">
        <ele>840.62</ele>
        <time>2019-04-07T22:26:41Z</time>
      </trkpt>
      <trkpt lat="42.24379" lon="1.88935">
        <ele>840.835</ele>
        <time>2019-04-07T22:26:43Z</time>
      </trkpt>
      <trkpt lat="42.2438" lon="1.88937">
        <ele>840.626</ele>
        <time>2019-04-07T22:26:44Z</time>
      </trkpt>
      <trkpt lat="42.24384" lon="1.88943">
        <ele>841.576</ele>
        <time>2019-04-07T22:26:46Z</time>
      </trkpt>
      <trkpt lat="42.24384" lon="1.88945">
        <ele>842.17</ele>
        <time>2019-04-07T22:26:47Z</time>
      </trkpt>
      <trkpt lat="42.24385" lon="1.8895">
        <ele>842.429</ele>
        <time>2019-04-07T22:26:49Z</time>
      </trkpt>
      <trkpt lat="42.24385" lon="1.88952">
        <ele>842.611</ele>
        <time>2019-04-07T22:26:49Z</time>
      </trkpt>
      <trkpt lat="42.24387" lon="1.88957">
        <ele>842.781</ele>
        <time>2019-04-07T22:26:51Z</time>
      </trkpt>
      <trkpt lat="42.24387" lon="1.88961">
        <ele>843.061</ele>
        <time>2019-04-07T22:26:52Z</time>
      </trkpt>
      <trkpt lat="42.24387" lon="1.88964">
        <ele>844.417</ele>
        <time>2019-04-07T22:26:53Z</time>
      </trkpt>
      <trkpt lat="42.24388" lon="1.88966">
        <ele>845.408</ele>
        <time>2019-04-07T22:26:54Z</time>
      </trkpt>
      <trkpt lat="42.24388" lon="1.88967">
        <ele>845.721</ele>
        <time>2019-04-07T22:26:54Z</time>
      </trkpt>
      <trkpt lat="42.24389" lon="1.8897">
        <ele>845.823</ele>
        <time>2019-04-07T22:26:55Z</time>
      </trkpt>
      <trkpt lat="42.2439" lon="1.88971">
        <ele>845.838</ele>
        <time>2019-04-07T22:26:55Z</time>
      </trkpt>
      <trkpt lat="42.24391" lon="1.88974">
        <ele>846.629</ele>
        <time>2019-04-07T22:26:56Z</time>
      </trkpt>
      <trkpt lat="42.2439" lon="1.88975">
        <ele>847.529</ele>
        <time>2019-04-07T22:26:56Z</time>
      </trkpt>
      <trkpt lat="42.2439" lon="1.88975">
        <ele>847.813</ele>
        <time>2019-04-07T22:26:57Z</time>
      </trkpt>
      <trkpt lat="42.2439" lon="1.88976">
        <ele>848.612</ele>
        <time>2019-04-07T22:26:57Z</time>
      </trkpt>
      <trkpt lat="42.24391" lon="1.8898">
        <ele>849.264</ele>
        <time>2019-04-07T22:26:58Z</time>
      </trkpt>
      <trkpt lat="42.24392" lon="1.88982">
        <ele>850.398</ele>
        <time>2019-04-07T22:26:59Z</time>
      </trkpt>
      <trkpt lat="42.24394" lon="1.88987">
        <ele>851.115</ele>
        <time>2019-04-07T22:27:01Z</time>
      </trkpt>
      <trkpt lat="42.24395" lon="1.88991">
        <ele>851.426</ele>
        <time>2019-04-07T22:27:02Z</time>
      </trkpt>
      <trkpt lat="42.24397" lon="1.88994">
        <ele>852.008</ele>
        <time>2019-04-07T22:27:03Z</time>
      </trkpt>
      <trkpt lat="42.24398" lon="1.88997">
        <ele>852.232</ele>
        <time>2019-04-07T22:27:04Z</time>
      </trkpt>
      <trkpt lat="42.24399" lon="1.88998">
        <ele>852.644</ele>
        <time>2019-04-07T22:27:04Z</time>
      </trkpt>
      <trkpt lat="42.244" lon="1.89005">
        <ele>853.259</ele>
        <time>2019-04-07T22:27:06Z</time>
      </trkpt>
      <trkpt lat="42.244" lon="1.89007">
        <ele>853.46</ele>
        <time>2019-04-07T22:27:07Z</time>
      </trkpt>
      <trkpt lat="42.244" lon="1.89009">
        <ele>854.33</ele>
        <time>2019-04-07T22:27:08Z</time>
      </trkpt>
      <trkpt lat="42.244" lon="1.89012">
        <ele>856.174</ele>
        <time>2019-04-07T22:27:09Z</time>
      </trkpt>
      <trkpt lat="42.244" lon="1.89012">
        <ele>856.513</ele>
        <time>2019-04-07T22:27:09Z</time>
      </trkpt>
      <trkpt lat="42.244" lon="1.89013">
        <ele>856.895</ele>
        <time>2019-04-07T22:27:09Z</time>
      </trkpt>
      <trkpt lat="42.24399" lon="1.89015">
        <ele>857.153</ele>
        <time>2019-04-07T22:27:10Z</time>
      </trkpt>
      <trkpt lat="42.244" lon="1.8902">
        <ele>857.404</ele>
        <time>2019-04-07T22:27:11Z</time>
      </trkpt>
      <trkpt lat="42.244" lon="1.89022">
        <ele>856.714</ele>
        <time>2019-04-07T22:27:12Z</time>
      </trkpt>
      <trkpt lat="42.24401" lon="1.89024">
        <ele>857.008</ele>
        <time>2019-04-07T22:27:12Z</time>
      </trkpt>
      <trkpt lat="42.24401" lon="1.89025">
        <ele>857.118</ele>
        <time>2019-04-07T22:27:13Z</time>
      </trkpt>
      <trkpt lat="42.24403" lon="1.89025">
        <ele>857.58</ele>
        <time>2019-04-07T22:27:13Z</time>
      </trkpt>
      <trkpt lat="42.24404" lon="1.89026">
        <ele>858.235</ele>
        <time>2019-04-07T22:27:14Z</time>
      </trkpt>
      <trkpt lat="42.24405" lon="1.89027">
        <ele>859.466</ele>
        <time>2019-04-07T22:27:14Z</time>
      </trkpt>
      <trkpt lat="42.24405" lon="1.89027">
        <ele>859.856</ele>
        <time>2019-04-07T22:27:14Z</time>
      </trkpt>
      <trkpt lat="42.24406" lon="1.89028">
        <ele>860.66</ele>
        <time>2019-04-07T22:27:15Z</time>
      </trkpt>
      <trkpt lat="42.24408" lon="1.8903">
        <ele>862.139</ele>
        <time>2019-04-07T22:27:16Z</time>
      </trkpt>
      <trkpt lat="42.2441" lon="1.89032">
        <ele>862.531</ele>
        <time>2019-04-07T22:27:17Z</time>
      </trkpt>
      <trkpt lat="42.2441" lon="1.89032">
        <ele>862.559</ele>
        <time>2019-04-07T22:27:17Z</time>
      </trkpt>
      <trkpt lat="42.24411" lon="1.89032">
        <ele>862.203</ele>
        <time>2019-04-07T22:27:17Z</time>
      </trkpt>
      <trkpt lat="42.24412" lon="1.8903">
        <ele>863.223</ele>
        <time>2019-04-07T22:27:18Z</time>
      </trkpt>
      <trkpt lat="42.24413" lon="1.89029">
        <ele>863.008</ele>
        <time>2019-04-07T22:27:18Z</time>
      </trkpt>
      <trkpt lat="42.24419" lon="1.89027">
        <ele>862.728</ele>
        <time>2019-04-07T22:27:21Z</time>
      </trkpt>
      <trkpt lat="42.24421" lon="1.89025">
        <ele>864.68</ele>
        <time>2019-04-07T22:27:22Z</time>
      </trkpt>
      <trkpt lat="42.24423" lon="1.89023">
        <ele>864.915</ele>
        <time>2019-04-07T22:27:23Z</time>
      </trkpt>
      <trkpt lat="42.24427" lon="1.89017">
        <ele>864.696</ele>
        <time>2019-04-07T22:27:25Z</time>
      </trkpt>
      <trkpt lat="42.2443" lon="1.89013">
        <ele>865.796</ele>
        <time>2019-04-07T22:27:27Z</time>
      </trkpt>
      <trkpt lat="42.24431" lon="1.89011">
        <ele>866.02</ele>
        <time>2019-04-07T22:27:28Z</time>
      </trkpt>
      <trkpt lat="42.24433" lon="1.8901">
        <ele>866.419</ele>
        <time>2019-04-07T22:27:29Z</time>
      </trkpt>
      <trkpt lat="42.24434" lon="1.8901">
        <ele>866.741</ele>
        <time>2019-04-07T22:27:29Z</time>
      </trkpt>
      <trkpt lat="42.24434" lon="1.89008">
        <ele>867.319</ele>
        <time>2019-04-07T22:27:29Z</time>
      </trkpt>
      <trkpt lat="42.24436" lon="1.89007">
        <ele>868.309</ele>
        <time>2019-04-07T22:27:30Z</time>
      </trkpt>
      <trkpt lat="42.24437" lon="1.89006">
        <ele>868.519</ele>
        <time>2019-04-07T22:27:31Z</time>
      </trkpt>
      <trkpt lat="42.24437" lon="1.89005">
        <ele>868.708</ele>
        <time>2019-04-07T22:27:31Z</time>
      </trkpt>
      <trkpt lat="42.2444" lon="1.89003">
        <ele>869.654</ele>
        <time>2019-04-07T22:27:32Z</time>
      </trkpt>
      <trkpt lat="42.24441" lon="1.89002">
        <ele>869.786</ele>
        <time>2019-04-07T22:27:33Z</time>
      </trkpt>
      <trkpt lat="42.24442" lon="1.89002">
        <ele>870.441</ele>
        <time>2019-04-07T22:27:33Z</time>
      </trkpt>
      <trkpt lat="42.24444" lon="1.89001">
        <ele>870.822</ele>
        <time>2019-04-07T22:27:34Z</time>
      </trkpt>
      <trkpt lat="42.24447" lon="1.88999">
        <ele>871.172</ele>
        <time>2019-04-07T22:27:35Z</time>
      </trkpt>
      <trkpt lat="42.24448" lon="1.88998">
        <ele>871.036</ele>
        <time>2019-04-07T22:27:36Z</time>
      </trkpt>
      <trkpt lat="42.24449" lon="1.88997">
        <ele>872.285</ele>
        <time>2019-04-07T22:27:36Z</time>
      </trkpt>
      <trkpt lat="42.24451" lon="1.88996">
        <ele>873.257</ele>
        <time>2019-04-07T22:27:37Z</time>
      </trkpt>
      <trkpt lat="42.24452" lon="1.88996">
        <ele>873.317</ele>
        <time>2019-04-07T22:27:38Z</time>
      </trkpt>
      <trkpt lat="42.24454" lon="1.88995">
        <ele>873.687</ele>
        <time>2019-04-07T22:27:38Z</time>
      </trkpt>
      <trkpt lat="42.24455" lon="1.88994">
        <ele>873.415</ele>
        <time>2019-04-07T22:27:39Z</time>
      </trkpt>
      <trkpt lat="42.24455" lon="1.88994">
        <ele>874.408</ele>
        <time>2019-04-07T22:27:39Z</time>
      </trkpt>
      <trkpt lat="42.24456" lon="1.88992">
        <ele>874.774</ele>
        <time>2019-04-07T22:27:40Z</time>
      </trkpt>
      <trkpt lat="42.24458" lon="1.88992">
        <ele>875.556</ele>
        <time>2019-04-07T22:27:40Z</time>
      </trkpt>
      <trkpt lat="42.24459" lon="1.88991">
        <ele>876.221</ele>
        <time>2019-04-07T22:27:41Z</time>
      </trkpt>
      <trkpt lat="42.24461" lon="1.88991">
        <ele>876.662</ele>
        <time>2019-04-07T22:27:42Z</time>
      </trkpt>
      <trkpt lat="42.24462" lon="1.88992">
        <ele>876.542</ele>
        <time>2019-04-07T22:27:42Z</time>
      </trkpt>
      <trkpt lat="42.24465" lon="1.88993">
        <ele>876.286</ele>
        <time>2019-04-07T22:27:43Z</time>
      </trkpt>
      <trkpt lat="42.24467" lon="1.88994">
        <ele>875.795</ele>
        <time>2019-04-07T22:27:44Z</time>
      </trkpt>
      <trkpt lat="42.24468" lon="1.88994">
        <ele>875.887</ele>
        <time>2019-04-07T22:27:45Z</time>
      </trkpt>
      <trkpt lat="42.24469" lon="1.88995">
        <ele>876.375</ele>
        <time>2019-04-07T22:27:45Z</time>
      </trkpt>
      <trkpt lat="42.2447" lon="1.88995">
        <ele>876.728</ele>
        <time>2019-04-07T22:27:45Z</time>
      </trkpt>
      <trkpt lat="42.2447" lon="1.88995">
        <ele>877.52</ele>
        <time>2019-04-07T22:27:46Z</time>
      </trkpt>
      <trkpt lat="42.24472" lon="1.88997">
        <ele>878.008</ele>
        <time>2019-04-07T22:27:46Z</time>
      </trkpt>
      <trkpt lat="42.24475" lon="1.88999">
        <ele>878.69</ele>
        <time>2019-04-07T22:27:48Z</time>
      </trkpt>
      <trkpt lat="42.24476" lon="1.89">
        <ele>878.672</ele>
        <time>2019-04-07T22:27:48Z</time>
      </trkpt>
      <trkpt lat="42.24477" lon="1.89001">
        <ele>878.617</ele>
        <time>2019-04-07T22:27:49Z</time>
      </trkpt>
      <trkpt lat="42.24479" lon="1.89">
        <ele>878.528</ele>
        <time>2019-04-07T22:27:50Z</time>
      </trkpt>
      <trkpt lat="42.2448" lon="1.89001">
        <ele>879.338</ele>
        <time>2019-04-07T22:27:50Z</time>
      </trkpt>
      <trkpt lat="42.24482" lon="1.89001">
        <ele>880.252</ele>
        <time>2019-04-07T22:27:51Z</time>
      </trkpt>
      <trkpt lat="42.24485" lon="1.89003">
        <ele>881.191</ele>
        <time>2019-04-07T22:27:52Z</time>
      </trkpt>
      <trkpt lat="42.24486" lon="1.89004">
        <ele>881.633</ele>
        <time>2019-04-07T22:27:53Z</time>
      </trkpt>
      <trkpt lat="42.24488" lon="1.89005">
        <ele>881.946</ele>
        <time>2019-04-07T22:27:53Z</time>
      </trkpt>
      <trkpt lat="42.24489" lon="1.89004">
        <ele>881.888</ele>
        <time>2019-04-07T22:27:54Z</time>
      </trkpt>
      <trkpt lat="42.2449" lon="1.89004">
        <ele>881.716</ele>
        <time>2019-04-07T22:27:54Z</time>
      </trkpt>
      <trkpt lat="42.24493" lon="1.89005">
        <ele>882.708</ele>
        <time>2019-04-07T22:27:56Z</time>
      </trkpt>
      <trkpt lat="42.24493" lon="1.89005">
        <ele>883.997</ele>
        <time>2019-04-07T22:27:56Z</time>
      </trkpt>
      <trkpt lat="42.24494" lon="1.89005">
        <ele>884.369</ele>
        <time>2019-04-07T22:27:56Z</time>
      </trkpt>
      <trkpt lat="42.24496" lon="1.89004">
        <ele>884.684</ele>
        <time>2019-04-07T22:27:57Z</time>
      </trkpt>
      <trkpt lat="42.245" lon="1.89006">
        <ele>884.695</ele>
        <time>2019-04-07T22:27:59Z</time>
      </trkpt>
      <trkpt lat="42.24503" lon="1.89008">
        <ele>885.275</ele>
        <time>2019-04-07T22:28:00Z</time>
      </trkpt>
      <trkpt lat="42.24506" lon="1.8901">
        <ele>885.629</ele>
        <time>2019-04-07T22:28:01Z</time>
      </trkpt>
      <trkpt lat="42.24507" lon="1.89011">
        <ele>885.858</ele>
        <time>2019-04-07T22:28:02Z</time>
      </trkpt>
      <trkpt lat="42.24508" lon="1.89011">
        <ele>885.87</ele>
        <time>2019-04-07T22:28:02Z</time>
      </trkpt>
      <trkpt lat="42.24509" lon="1.89011">
        <ele>886.158</ele>
        <time>2019-04-07T22:28:02Z</time>
      </trkpt>
      <trkpt lat="42.24509" lon="1.89011">
        <ele>886.652</ele>
        <time>2019-04-07T22:28:02Z</time>
      </trkpt>
      <trkpt lat="42.24509" lon="1.89012">
        <ele>887.417</ele>
        <time>2019-04-07T22:28:03Z</time>
      </trkpt>
      <trkpt lat="42.24509" lon="1.89012">
        <ele>888.008</ele>
        <time>2019-04-07T22:28:03Z</time>
      </trkpt>
      <trkpt lat="42.2451" lon="1.89013">
        <ele>887.818</ele>
        <time>2019-04-07T22:28:03Z</time>
      </trkpt>
      <trkpt lat="42.24515" lon="1.89018">
        <ele>888.44</ele>
        <time>2019-04-07T22:28:06Z</time>
      </trkpt>
      <trkpt lat="42.24515" lon="1.89017">
        <ele>888.995</ele>
        <time>2019-04-07T22:28:06Z</time>
      </trkpt>
      <trkpt lat="42.24517" lon="1.8902">
        <ele>888.796</ele>
        <time>2019-04-07T22:28:07Z</time>
      </trkpt>
      <trkpt lat="42.24518" lon="1.89021">
        <ele>888.726</ele>
        <time>2019-04-07T22:28:07Z</time>
      </trkpt>
      <trkpt lat="42.24519" lon="1.89022">
        <ele>888.88</ele>
        <time>2019-04-07T22:28:08Z</time>
      </trkpt>
      <trkpt lat="42.24521" lon="1.89024">
        <ele>889.579</ele>
        <time>2019-04-07T22:28:09Z</time>
      </trkpt>
      <trkpt lat="42.24521" lon="1.89025">
        <ele>890.681</ele>
        <time>2019-04-07T22:28:09Z</time>
      </trkpt>
      <trkpt lat="42.24521" lon="1.89025">
        <ele>891.754</ele>
        <time>2019-04-07T22:28:09Z</time>
      </trkpt>
      <trkpt lat="42.24523" lon="1.89026">
        <ele>892.156</ele>
        <time>2019-04-07T22:28:10Z</time>
      </trkpt>
      <trkpt lat="42.24528" lon="1.89034">
        <ele>892.411</ele>
        <time>2019-04-07T22:28:13Z</time>
      </trkpt>
      <trkpt lat="42.24529" lon="1.89036">
        <ele>892.708</ele>
        <time>2019-04-07T22:28:14Z</time>
      </trkpt>
      <trkpt lat="42.24531" lon="1.89035">
        <ele>892.988</ele>
        <time>2019-04-07T22:28:14Z</time>
      </trkpt>
      <trkpt lat="42.24532" lon="1.89031">
        <ele>893.38</ele>
        <time>2019-04-07T22:28:16Z</time>
      </trkpt>
      <trkpt lat="42.24534" lon="1.8903">
        <ele>893.945</ele>
        <time>2019-04-07T22:28:16Z</time>
      </trkpt>
      <trkpt lat="42.24534" lon="1.8903">
        <ele>893.926</ele>
        <time>2019-04-07T22:28:17Z</time>
      </trkpt>
      <trkpt lat="42.24533" lon="1.89031">
        <ele>893.966</ele>
        <time>2019-04-07T22:28:17Z</time>
      </trkpt>
      <trkpt lat="42.24533" lon="1.89032">
        <ele>893.84</ele>
        <time>2019-04-07T22:28:17Z</time>
      </trkpt>
      <trkpt lat="42.24533" lon="1.89032">
        <ele>894.239</ele>
        <time>2019-04-07T22:28:17Z</time>
      </trkpt>
      <trkpt lat="42.24532" lon="1.89028">
        <ele>893.581</ele>
        <time>2019-04-07T22:28:18Z</time>
      </trkpt>
      <trkpt lat="42.24534" lon="1.89022">
        <ele>893.532</ele>
        <time>2019-04-07T22:28:20Z</time>
      </trkpt>
      <trkpt lat="42.24534" lon="1.89021">
        <ele>893.892</ele>
        <time>2019-04-07T22:28:21Z</time>
      </trkpt>
      <trkpt lat="42.24535" lon="1.8902">
        <ele>894.011</ele>
        <time>2019-04-07T22:28:21Z</time>
      </trkpt>
      <trkpt lat="42.24537" lon="1.8902">
        <ele>893.708</ele>
        <time>2019-04-07T22:28:22Z</time>
      </trkpt>
      <trkpt lat="42.24538" lon="1.8902">
        <ele>893.126</ele>
        <time>2019-04-07T22:28:22Z</time>
      </trkpt>
      <trkpt lat="42.24539" lon="1.89019">
        <ele>893.698</ele>
        <time>2019-04-07T22:28:23Z</time>
      </trkpt>
      <trkpt lat="42.24538" lon="1.89026">
        <ele>893.593</ele>
        <time>2019-04-07T22:28:25Z</time>
      </trkpt>
      <trkpt lat="42.24536" lon="1.89032">
        <ele>894.294</ele>
        <time>2019-04-07T22:28:27Z</time>
      </trkpt>
      <trkpt lat="42.24536" lon="1.89033">
        <ele>893.934</ele>
        <time>2019-04-07T22:28:27Z</time>
      </trkpt>
      <trkpt lat="42.24535" lon="1.89033">
        <ele>893.838</ele>
        <time>2019-04-07T22:28:27Z</time>
      </trkpt>
      <trkpt lat="42.24532" lon="1.8903">
        <ele>893.557</ele>
        <time>2019-04-07T22:28:29Z</time>
      </trkpt>
      <trkpt lat="42.24534" lon="1.8903">
        <ele>892.719</ele>
        <time>2019-04-07T22:28:29Z</time>
      </trkpt>
      <trkpt lat="42.24534" lon="1.8903">
        <ele>891.782</ele>
        <time>2019-04-07T22:28:30Z</time>
      </trkpt>
      <trkpt lat="42.24534" lon="1.8903">
        <ele>892.143</ele>
        <time>2019-04-07T22:28:30Z</time>
      </trkpt>
      <trkpt lat="42.24534" lon="1.89031">
        <ele>892.717</ele>
        <time>2019-04-07T22:28:30Z</time>
      </trkpt>
      <trkpt lat="42.24534" lon="1.89031">
        <ele>893.208</ele>
        <time>2019-04-07T22:28:30Z</time>
      </trkpt>
      <trkpt lat="42.24533" lon="1.89031">
        <ele>893.841</ele>
        <time>2019-04-07T22:28:31Z</time>
      </trkpt>
      <trkpt lat="42.24535" lon="1.89032">
        <ele>894.113</ele>
        <time>2019-04-07T22:28:32Z</time>
      </trkpt>
      <trkpt lat="42.24535" lon="1.89032">
        <ele>893.628</ele>
        <time>2019-04-07T22:28:32Z</time>
      </trkpt>
      <trkpt lat="42.24535" lon="1.89033">
        <ele>893.779</ele>
        <time>2019-04-07T22:28:32Z</time>
      </trkpt>
      <trkpt lat="42.24537" lon="1.89039">
        <ele>893.789</ele>
        <time>2019-04-07T22:28:34Z</time>
      </trkpt>
      <trkpt lat="42.24537" lon="1.8904">
        <ele>893.533</ele>
        <time>2019-04-07T22:28:35Z</time>
      </trkpt>
      <trkpt lat="42.24537" lon="1.89042">
        <ele>893.262</ele>
        <time>2019-04-07T22:28:35Z</time>
      </trkpt>
      <trkpt lat="42.24537" lon="1.89044">
        <ele>892.914</ele>
        <time>2019-04-07T22:28:36Z</time>
      </trkpt>
      <trkpt lat="42.24537" lon="1.89045">
        <ele>892.643</ele>
        <time>2019-04-07T22:28:36Z</time>
      </trkpt>
      <trkpt lat="42.24536" lon="1.89046">
        <ele>892.564</ele>
        <time>2019-04-07T22:28:36Z</time>
      </trkpt>
      <trkpt lat="42.24536" lon="1.89047">
        <ele>892.51</ele>
        <time>2019-04-07T22:28:37Z</time>
      </trkpt>
      <trkpt lat="42.24536" lon="1.89048">
        <ele>892.508</ele>
        <time>2019-04-07T22:28:37Z</time>
      </trkpt>
      <trkpt lat="42.24536" lon="1.89053">
        <ele>893.847</ele>
        <time>2019-04-07T22:28:38Z</time>
      </trkpt>
      <trkpt lat="42.24535" lon="1.89054">
        <ele>894.669</ele>
        <time>2019-04-07T22:28:39Z</time>
      </trkpt>
      <trkpt lat="42.24535" lon="1.89055">
        <ele>895.634</ele>
        <time>2019-04-07T22:28:39Z</time>
      </trkpt>
      <trkpt lat="42.24535" lon="1.89058">
        <ele>896.575</ele>
        <time>2019-04-07T22:28:40Z</time>
      </trkpt>
      <trkpt lat="42.24534" lon="1.8906">
        <ele>897.635</ele>
        <time>2019-04-07T22:28:41Z</time>
      </trkpt>
      <trkpt lat="42.24532" lon="1.89064">
        <ele>898.649</ele>
        <time>2019-04-07T22:28:42Z</time>
      </trkpt>
      <trkpt lat="42.24531" lon="1.89065">
        <ele>898.698</ele>
        <time>2019-04-07T22:28:43Z</time>
      </trkpt>
      <trkpt lat="42.24529" lon="1.89067">
        <ele>899.29</ele>
        <time>2019-04-07T22:28:44Z</time>
      </trkpt>
      <trkpt lat="42.24528" lon="1.89068">
        <ele>899.499</ele>
        <time>2019-04-07T22:28:44Z</time>
      </trkpt>
      <trkpt lat="42.24528" lon="1.89069">
        <ele>899.707</ele>
        <time>2019-04-07T22:28:44Z</time>
      </trkpt>
      <trkpt lat="42.24527" lon="1.8907">
        <ele>899.727</ele>
        <time>2019-04-07T22:28:45Z</time>
      </trkpt>
      <trkpt lat="42.24527" lon="1.89073">
        <ele>900.708</ele>
        <time>2019-04-07T22:28:46Z</time>
      </trkpt>
      <trkpt lat="42.24527" lon="1.89074">
        <ele>900.822</ele>
        <time>2019-04-07T22:28:46Z</time>
      </trkpt>
      <trkpt lat="42.24527" lon="1.89076">
        <ele>901.654</ele>
        <time>2019-04-07T22:28:47Z</time>
      </trkpt>
      <trkpt lat="42.24527" lon="1.89079">
        <ele>902.299</ele>
        <time>2019-04-07T22:28:47Z</time>
      </trkpt>
      <trkpt lat="42.24527" lon="1.89082">
        <ele>902.68</ele>
        <time>2019-04-07T22:28:48Z</time>
      </trkpt>
      <trkpt lat="42.24526" lon="1.89085">
        <ele>903.48</ele>
        <time>2019-04-07T22:28:49Z</time>
      </trkpt>
      <trkpt lat="42.24525" lon="1.89086">
        <ele>903.694</ele>
        <time>2019-04-07T22:28:50Z</time>
      </trkpt>
      <trkpt lat="42.24525" lon="1.89088">
        <ele>904.483</ele>
        <time>2019-04-07T22:28:50Z</time>
      </trkpt>
      <trkpt lat="42.24525" lon="1.8909">
        <ele>905.325</ele>
        <time>2019-04-07T22:28:51Z</time>
      </trkpt>
      <trkpt lat="42.24524" lon="1.89094">
        <ele>906.218</ele>
        <time>2019-04-07T22:28:52Z</time>
      </trkpt>
      <trkpt lat="42.24524" lon="1.89097">
        <ele>906.698</ele>
        <time>2019-04-07T22:28:53Z</time>
      </trkpt>
      <trkpt lat="42.24524" lon="1.89097">
        <ele>906.517</ele>
        <time>2019-04-07T22:28:53Z</time>
      </trkpt>
      <trkpt lat="42.24523" lon="1.891">
        <ele>907.008</ele>
        <time>2019-04-07T22:28:54Z</time>
      </trkpt>
      <trkpt lat="42.24523" lon="1.89102">
        <ele>907.414</ele>
        <time>2019-04-07T22:28:55Z</time>
      </trkpt>
      <trkpt lat="42.24523" lon="1.89104">
        <ele>907.576</ele>
        <time>2019-04-07T22:28:55Z</time>
      </trkpt>
      <trkpt lat="42.24526" lon="1.89106">
        <ele>908.461</ele>
        <time>2019-04-07T22:28:57Z</time>
      </trkpt>
      <trkpt lat="42.24527" lon="1.89109">
        <ele>908.562</ele>
        <time>2019-04-07T22:28:58Z</time>
      </trkpt>
      <trkpt lat="42.24528" lon="1.89118">
        <ele>909.442</ele>
        <time>2019-04-07T22:29:00Z</time>
      </trkpt>
      <trkpt lat="42.24528" lon="1.89118">
        <ele>909.536</ele>
        <time>2019-04-07T22:29:00Z</time>
      </trkpt>
      <trkpt lat="42.24532" lon="1.89117">
        <ele>909.685</ele>
        <time>2019-04-07T22:29:02Z</time>
      </trkpt>
      <trkpt lat="42.24532" lon="1.89117">
        <ele>909.597</ele>
        <time>2019-04-07T22:29:02Z</time>
      </trkpt>
      <trkpt lat="42.24534" lon="1.89117">
        <ele>908.784</ele>
        <time>2019-04-07T22:29:03Z</time>
      </trkpt>
      <trkpt lat="42.24536" lon="1.89118">
        <ele>908.307</ele>
        <time>2019-04-07T22:29:04Z</time>
      </trkpt>
      <trkpt lat="42.24546" lon="1.89115">
        <ele>908.017</ele>
        <time>2019-04-07T22:29:08Z</time>
      </trkpt>
      <trkpt lat="42.2455" lon="1.89114">
        <ele>908.208</ele>
        <time>2019-04-07T22:29:09Z</time>
      </trkpt>
      <trkpt lat="42.24553" lon="1.89113">
        <ele>907.231</ele>
        <time>2019-04-07T22:29:11Z</time>
      </trkpt>
      <trkpt lat="42.24555" lon="1.8911">
        <ele>906.083</ele>
        <time>2019-04-07T22:29:12Z</time>
      </trkpt>
      <trkpt lat="42.24558" lon="1.8911">
        <ele>904.738</ele>
        <time>2019-04-07T22:29:13Z</time>
      </trkpt>
      <trkpt lat="42.24566" lon="1.89111">
        <ele>903.669</ele>
        <time>2019-04-07T22:29:16Z</time>
      </trkpt>
      <trkpt lat="42.24567" lon="1.89111">
        <ele>903.189</ele>
        <time>2019-04-07T22:29:16Z</time>
      </trkpt>
      <trkpt lat="42.24568" lon="1.89112">
        <ele>902.553</ele>
        <time>2019-04-07T22:29:17Z</time>
      </trkpt>
      <trkpt lat="42.24569" lon="1.89112">
        <ele>901.832</ele>
        <time>2019-04-07T22:29:18Z</time>
      </trkpt>
      <trkpt lat="42.24571" lon="1.89113">
        <ele>901.454</ele>
        <time>2019-04-07T22:29:18Z</time>
      </trkpt>
      <trkpt lat="42.2458" lon="1.89121">
        <ele>901.532</ele>
        <time>2019-04-07T22:29:22Z</time>
      </trkpt>
      <trkpt lat="42.24582" lon="1.89123">
        <ele>901.492</ele>
        <time>2019-04-07T22:29:24Z</time>
      </trkpt>
      <trkpt lat="42.2459" lon="1.89124">
        <ele>902.211</ele>
        <time>2019-04-07T22:29:27Z</time>
      </trkpt>
      <trkpt lat="42.24592" lon="1.89125">
        <ele>902.408</ele>
        <time>2019-04-07T22:29:27Z</time>
      </trkpt>
      <trkpt lat="42.24603" lon="1.89121">
        <ele>903.116</ele>
        <time>2019-04-07T22:29:32Z</time>
      </trkpt>
      <trkpt lat="42.24612" lon="1.89124">
        <ele>903.548</ele>
        <time>2019-04-07T22:29:36Z</time>
      </trkpt>
      <trkpt lat="42.24613" lon="1.89124">
        <ele>903.953</ele>
        <time>2019-04-07T22:29:36Z</time>
      </trkpt>
      <trkpt lat="42.24624" lon="1.89118">
        <ele>904.554</ele>
        <time>2019-04-07T22:29:41Z</time>
      </trkpt>
      <trkpt lat="42.24626" lon="1.89117">
        <ele>904.384</ele>
        <time>2019-04-07T22:29:42Z</time>
      </trkpt>
      <trkpt lat="42.24635" lon="1.89108">
        <ele>903.528</ele>
        <time>2019-04-07T22:29:46Z</time>
      </trkpt>
      <trkpt lat="42.24637" lon="1.89106">
        <ele>903.197</ele>
        <time>2019-04-07T22:29:47Z</time>
      </trkpt>
      <trkpt lat="42.24639" lon="1.89104">
        <ele>903.299</ele>
        <time>2019-04-07T22:29:48Z</time>
      </trkpt>
      <trkpt lat="42.24641" lon="1.89102">
        <ele>902.634</ele>
        <time>2019-04-07T22:29:49Z</time>
      </trkpt>
      <trkpt lat="42.24643" lon="1.89101">
        <ele>902.755</ele>
        <time>2019-04-07T22:29:50Z</time>
      </trkpt>
      <trkpt lat="42.24645" lon="1.89101">
        <ele>902.41</ele>
        <time>2019-04-07T22:29:51Z</time>
      </trkpt>
      <trkpt lat="42.24647" lon="1.891">
        <ele>902.408</ele>
        <time>2019-04-07T22:29:52Z</time>
      </trkpt>
      <trkpt lat="42.24653" lon="1.89097">
        <ele>902.476</ele>
        <time>2019-04-07T22:29:54Z</time>
      </trkpt>
      <trkpt lat="42.24656" lon="1.89096">
        <ele>902.458</ele>
        <time>2019-04-07T22:29:55Z</time>
      </trkpt>
      <trkpt lat="42.24657" lon="1.89095">
        <ele>902.513</ele>
        <time>2019-04-07T22:29:56Z</time>
      </trkpt>
      <trkpt lat="42.24662" lon="1.89091">
        <ele>902.714</ele>
        <time>2019-04-07T22:29:58Z</time>
      </trkpt>
      <trkpt lat="42.24663" lon="1.8909">
        <ele>902.644</ele>
        <time>2019-04-07T22:29:59Z</time>
      </trkpt>
      <trkpt lat="42.24667" lon="1.89084">
        <ele>902.628</ele>
        <time>2019-04-07T22:30:01Z</time>
      </trkpt>
      <trkpt lat="42.2467" lon="1.8908">
        <ele>901.847</ele>
        <time>2019-04-07T22:30:03Z</time>
      </trkpt>
      <trkpt lat="42.24673" lon="1.89078">
        <ele>901.399</ele>
        <time>2019-04-07T22:30:04Z</time>
      </trkpt>
      <trkpt lat="42.24675" lon="1.89077">
        <ele>900.691</ele>
        <time>2019-04-07T22:30:05Z</time>
      </trkpt>
      <trkpt lat="42.24679" lon="1.89073">
        <ele>900.581</ele>
        <time>2019-04-07T22:30:07Z</time>
      </trkpt>
      <trkpt lat="42.24679" lon="1.89072">
        <ele>900.219</ele>
        <time>2019-04-07T22:30:07Z</time>
      </trkpt>
      <trkpt lat="42.24678" lon="1.8907">
        <ele>900.408</ele>
        <time>2019-04-07T22:30:08Z</time>
      </trkpt>
      <trkpt lat="42.24678" lon="1.89069">
        <ele>900.272</ele>
        <time>2019-04-07T22:30:08Z</time>
      </trkpt>
      <trkpt lat="42.24679" lon="1.89069">
        <ele>900.274</ele>
        <time>2019-04-07T22:30:08Z</time>
      </trkpt>
      <trkpt lat="42.24682" lon="1.89065">
        <ele>899.579</ele>
        <time>2019-04-07T22:30:10Z</time>
      </trkpt>
      <trkpt lat="42.24685" lon="1.89067">
        <ele>898.81</ele>
        <time>2019-04-07T22:30:11Z</time>
      </trkpt>
      <trkpt lat="42.24687" lon="1.89068">
        <ele>898.63</ele>
        <time>2019-04-07T22:30:12Z</time>
      </trkpt>
      <trkpt lat="42.24689" lon="1.89068">
        <ele>898.564</ele>
        <time>2019-04-07T22:30:13Z</time>
      </trkpt>
      <trkpt lat="42.24691" lon="1.89067">
        <ele>898.413</ele>
        <time>2019-04-07T22:30:14Z</time>
      </trkpt>
      <trkpt lat="42.24692" lon="1.89067">
        <ele>898.625</ele>
        <time>2019-04-07T22:30:14Z</time>
      </trkpt>
      <trkpt lat="42.24693" lon="1.89067">
        <ele>898.455</ele>
        <time>2019-04-07T22:30:15Z</time>
      </trkpt>
      <trkpt lat="42.24694" lon="1.89068">
        <ele>898.407</ele>
        <time>2019-04-07T22:30:15Z</time>
      </trkpt>
      <trkpt lat="42.24693" lon="1.89066">
        <ele>898.517</ele>
        <time>2019-04-07T22:30:16Z</time>
      </trkpt>
      <trkpt lat="42.24692" lon="1.89065">
        <ele>898.708</ele>
        <time>2019-04-07T22:30:16Z</time>
      </trkpt>
      <trkpt lat="42.24699" lon="1.89067">
        <ele>898.388</ele>
        <time>2019-04-07T22:30:19Z</time>
      </trkpt>
      <trkpt lat="42.24703" lon="1.89068">
        <ele>898.57</ele>
        <time>2019-04-07T22:30:20Z</time>
      </trkpt>
      <trkpt lat="42.24706" lon="1.89069">
        <ele>898.665</ele>
        <time>2019-04-07T22:30:22Z</time>
      </trkpt>
      <trkpt lat="42.24709" lon="1.89071">
        <ele>899.246</ele>
        <time>2019-04-07T22:30:23Z</time>
      </trkpt>
      <trkpt lat="42.24713" lon="1.89077">
        <ele>898.626</ele>
        <time>2019-04-07T22:30:25Z</time>
      </trkpt>
      <trkpt lat="42.2472" lon="1.89083">
        <ele>899.99</ele>
        <time>2019-04-07T22:30:29Z</time>
      </trkpt>
      <trkpt lat="42.24721" lon="1.89083">
        <ele>900.099</ele>
        <time>2019-04-07T22:30:29Z</time>
      </trkpt>
      <trkpt lat="42.24727" lon="1.89089">
        <ele>898.981</ele>
        <time>2019-04-07T22:30:32Z</time>
      </trkpt>
      <trkpt lat="42.24732" lon="1.89094">
        <ele>899.468</ele>
        <time>2019-04-07T22:30:34Z</time>
      </trkpt>
      <trkpt lat="42.24735" lon="1.89097">
        <ele>899.642</ele>
        <time>2019-04-07T22:30:36Z</time>
      </trkpt>
      <trkpt lat="42.24736" lon="1.89099">
        <ele>899.726</ele>
        <time>2019-04-07T22:30:37Z</time>
      </trkpt>
      <trkpt lat="42.2474" lon="1.89103">
        <ele>900.408</ele>
        <time>2019-04-07T22:30:39Z</time>
      </trkpt>
      <trkpt lat="42.24743" lon="1.89105">
        <ele>900.719</ele>
        <time>2019-04-07T22:30:40Z</time>
      </trkpt>
      <trkpt lat="42.24746" lon="1.89108">
        <ele>900.991</ele>
        <time>2019-04-07T22:30:42Z</time>
      </trkpt>
      <trkpt lat="42.24751" lon="1.89114">
        <ele>901.396</ele>
        <time>2019-04-07T22:30:44Z</time>
      </trkpt>
      <trkpt lat="42.24756" lon="1.89121">
        <ele>902.197</ele>
        <time>2019-04-07T22:30:47Z</time>
      </trkpt>
      <trkpt lat="42.24758" lon="1.89122">
        <ele>902.287</ele>
        <time>2019-04-07T22:30:48Z</time>
      </trkpt>
      <trkpt lat="42.24761" lon="1.89125">
        <ele>902.161</ele>
        <time>2019-04-07T22:30:49Z</time>
      </trkpt>
      <trkpt lat="42.24762" lon="1.89126">
        <ele>902.12</ele>
        <time>2019-04-07T22:30:50Z</time>
      </trkpt>
      <trkpt lat="42.24764" lon="1.89128">
        <ele>902.042</ele>
        <time>2019-04-07T22:30:51Z</time>
      </trkpt>
      <trkpt lat="42.24765" lon="1.89129">
        <ele>902.116</ele>
        <time>2019-04-07T22:30:52Z</time>
      </trkpt>
      <trkpt lat="42.24769" lon="1.8913">
        <ele>902.776</ele>
        <time>2019-04-07T22:30:53Z</time>
      </trkpt>
      <trkpt lat="42.2477" lon="1.8913">
        <ele>902.713</ele>
        <time>2019-04-07T22:30:53Z</time>
      </trkpt>
      <trkpt lat="42.24774" lon="1.8913">
        <ele>903.008</ele>
        <time>2019-04-07T22:30:55Z</time>
      </trkpt>
      <trkpt lat="42.24778" lon="1.89128">
        <ele>903.754</ele>
        <time>2019-04-07T22:30:56Z</time>
      </trkpt>
      <trkpt lat="42.24778" lon="1.89127">
        <ele>904.366</ele>
        <time>2019-04-07T22:30:57Z</time>
      </trkpt>
      <trkpt lat="42.24778" lon="1.89126">
        <ele>904.881</ele>
        <time>2019-04-07T22:30:57Z</time>
      </trkpt>
      <trkpt lat="42.2478" lon="1.89125">
        <ele>904.742</ele>
        <time>2019-04-07T22:30:58Z</time>
      </trkpt>
      <trkpt lat="42.2479" lon="1.89122">
        <ele>905.712</ele>
        <time>2019-04-07T22:31:02Z</time>
      </trkpt>
      <trkpt lat="42.24794" lon="1.89121">
        <ele>906.776</ele>
        <time>2019-04-07T22:31:03Z</time>
      </trkpt>
      <trkpt lat="42.24798" lon="1.8912">
        <ele>907.615</ele>
        <time>2019-04-07T22:31:05Z</time>
      </trkpt>
      <trkpt lat="42.248" lon="1.89119">
        <ele>907.727</ele>
        <time>2019-04-07T22:31:06Z</time>
      </trkpt>
      <trkpt lat="42.24805" lon="1.89118">
        <ele>908.887</ele>
        <time>2019-04-07T22:31:08Z</time>
      </trkpt>
      <trkpt lat="42.24806" lon="1.89117">
        <ele>909.142</ele>
        <time>2019-04-07T22:31:08Z</time>
      </trkpt>
      <trkpt lat="42.24807" lon="1.89117">
        <ele>909.226</ele>
        <time>2019-04-07T22:31:09Z</time>
      </trkpt>
      <trkpt lat="42.2481" lon="1.89116">
        <ele>910.008</ele>
        <time>2019-04-07T22:31:10Z</time>
      </trkpt>
      <trkpt lat="42.24814" lon="1.89114">
        <ele>911.121</ele>
        <time>2019-04-07T22:31:12Z</time>
      </trkpt>
      <trkpt lat="42.24817" lon="1.89114">
        <ele>911.643</ele>
        <time>2019-04-07T22:31:13Z</time>
      </trkpt>
      <trkpt lat="42.24823" lon="1.89115">
        <ele>912.488</ele>
        <time>2019-04-07T22:31:15Z</time>
      </trkpt>
      <trkpt lat="42.24824" lon="1.89115">
        <ele>912.619</ele>
        <time>2019-04-07T22:31:16Z</time>
      </trkpt>
      <trkpt lat="42.24825" lon="1.89114">
        <ele>912.839</ele>
        <time>2019-04-07T22:31:16Z</time>
      </trkpt>
      <trkpt lat="42.24827" lon="1.89113">
        <ele>913.393</ele>
        <time>2019-04-07T22:31:17Z</time>
      </trkpt>
      <trkpt lat="42.24831" lon="1.89111">
        <ele>913.982</ele>
        <time>2019-04-07T22:31:19Z</time>
      </trkpt>
      <trkpt lat="42.24836" lon="1.89111">
        <ele>914.234</ele>
        <time>2019-04-07T22:31:21Z</time>
      </trkpt>
      <trkpt lat="42.24836" lon="1.8911">
        <ele>914.594</ele>
        <time>2019-04-07T22:31:21Z</time>
      </trkpt>
      <trkpt lat="42.24843" lon="1.89108">
        <ele>915.257</ele>
        <time>2019-04-07T22:31:24Z</time>
      </trkpt>
      <trkpt lat="42.24844" lon="1.89108">
        <ele>915.522</ele>
        <time>2019-04-07T22:31:24Z</time>
      </trkpt>
      <trkpt lat="42.24848" lon="1.89107">
        <ele>916.508</ele>
        <time>2019-04-07T22:31:26Z</time>
      </trkpt>
      <trkpt lat="42.24853" lon="1.89106">
        <ele>917.622</ele>
        <time>2019-04-07T22:31:28Z</time>
      </trkpt>
      <trkpt lat="42.24854" lon="1.89106">
        <ele>917.694</ele>
        <time>2019-04-07T22:31:28Z</time>
      </trkpt>
      <trkpt lat="42.24861" lon="1.89104">
        <ele>918.879</ele>
        <time>2019-04-07T22:31:31Z</time>
      </trkpt>
      <trkpt lat="42.24861" lon="1.89103">
        <ele>919.06</ele>
        <time>2019-04-07T22:31:31Z</time>
      </trkpt>
      <trkpt lat="42.24866" lon="1.89099">
        <ele>920.26</ele>
        <time>2019-04-07T22:31:33Z</time>
      </trkpt>
      <trkpt lat="42.24869" lon="1.89098">
        <ele>920.524</ele>
        <time>2019-04-07T22:31:35Z</time>
      </trkpt>
      <trkpt lat="42.24872" lon="1.89093">
        <ele>921.223</ele>
        <time>2019-04-07T22:31:37Z</time>
      </trkpt>
      <trkpt lat="42.24877" lon="1.89092">
        <ele>921.465</ele>
        <time>2019-04-07T22:31:39Z</time>
      </trkpt>
      <trkpt lat="42.24884" lon="1.89087">
        <ele>921.728</ele>
        <time>2019-04-07T22:31:42Z</time>
      </trkpt>
      <trkpt lat="42.24885" lon="1.89086">
        <ele>922.189</ele>
        <time>2019-04-07T22:31:42Z</time>
      </trkpt>
      <trkpt lat="42.2489" lon="1.89083">
        <ele>923.217</ele>
        <time>2019-04-07T22:31:44Z</time>
      </trkpt>
      <trkpt lat="42.24896" lon="1.89082">
        <ele>924.008</ele>
        <time>2019-04-07T22:31:47Z</time>
      </trkpt>
      <trkpt lat="42.24899" lon="1.89082">
        <ele>924.495</ele>
        <time>2019-04-07T22:31:48Z</time>
      </trkpt>
      <trkpt lat="42.24902" lon="1.89081">
        <ele>925.247</ele>
        <time>2019-04-07T22:31:49Z</time>
      </trkpt>
      <trkpt lat="42.24905" lon="1.89081">
        <ele>925.582</ele>
        <time>2019-04-07T22:31:51Z</time>
      </trkpt>
      <trkpt lat="42.24908" lon="1.89082">
        <ele>926.623</ele>
        <time>2019-04-07T22:31:52Z</time>
      </trkpt>
      <trkpt lat="42.24915" lon="1.89086">
        <ele>927.373</ele>
        <time>2019-04-07T22:31:55Z</time>
      </trkpt>
      <trkpt lat="42.24918" lon="1.89088">
        <ele>927.687</ele>
        <time>2019-04-07T22:31:56Z</time>
      </trkpt>
      <trkpt lat="42.24924" lon="1.89095">
        <ele>927.456</ele>
        <time>2019-04-07T22:31:59Z</time>
      </trkpt>
      <trkpt lat="42.2493" lon="1.89108">
        <ele>926.948</ele>
        <time>2019-04-07T22:32:04Z</time>
      </trkpt>
      <trkpt lat="42.24929" lon="1.8911">
        <ele>926.689</ele>
        <time>2019-04-07T22:32:04Z</time>
      </trkpt>
      <trkpt lat="42.24927" lon="1.89108">
        <ele>926.706</ele>
        <time>2019-04-07T22:32:06Z</time>
      </trkpt>
      <trkpt lat="42.24926" lon="1.89107">
        <ele>926.526</ele>
        <time>2019-04-07T22:32:06Z</time>
      </trkpt>
      <trkpt lat="42.24927" lon="1.89107">
        <ele>926.508</ele>
        <time>2019-04-07T22:32:06Z</time>
      </trkpt>
      <trkpt lat="42.24927" lon="1.89107">
        <ele>926.711</ele>
        <time>2019-04-07T22:32:06Z</time>
      </trkpt>
      <trkpt lat="42.24929" lon="1.89109">
        <ele>926.653</ele>
        <time>2019-04-07T22:32:07Z</time>
      </trkpt>
      <trkpt lat="42.24931" lon="1.89114">
        <ele>926.798</ele>
        <time>2019-04-07T22:32:09Z</time>
      </trkpt>
      <trkpt lat="42.24932" lon="1.89116">
        <ele>926.779</ele>
        <time>2019-04-07T22:32:10Z</time>
      </trkpt>
      <trkpt lat="42.24935" lon="1.89118">
        <ele>926.479</ele>
        <time>2019-04-07T22:32:11Z</time>
      </trkpt>
      <trkpt lat="42.24938" lon="1.89123">
        <ele>926.613</ele>
        <time>2019-04-07T22:32:13Z</time>
      </trkpt>
      <trkpt lat="42.24939" lon="1.89123">
        <ele>926.462</ele>
        <time>2019-04-07T22:32:13Z</time>
      </trkpt>
      <trkpt lat="42.24944" lon="1.89127">
        <ele>926.764</ele>
        <time>2019-04-07T22:32:15Z</time>
      </trkpt>
      <trkpt lat="42.24945" lon="1.89128">
        <ele>926.592</ele>
        <time>2019-04-07T22:32:16Z</time>
      </trkpt>
      <trkpt lat="42.24949" lon="1.8913">
        <ele>927.173</ele>
        <time>2019-04-07T22:32:18Z</time>
      </trkpt>
      <trkpt lat="42.24951" lon="1.89131">
        <ele>927.42</ele>
        <time>2019-04-07T22:32:18Z</time>
      </trkpt>
      <trkpt lat="42.24952" lon="1.89131">
        <ele>927.408</ele>
        <time>2019-04-07T22:32:19Z</time>
      </trkpt>
      <trkpt lat="42.24959" lon="1.89134">
        <ele>928.212</ele>
        <time>2019-04-07T22:32:22Z</time>
      </trkpt>
      <trkpt lat="42.2496" lon="1.89134">
        <ele>928.494</ele>
        <time>2019-04-07T22:32:22Z</time>
      </trkpt>
      <trkpt lat="42.24963" lon="1.89134">
        <ele>929.129</ele>
        <time>2019-04-07T22:32:23Z</time>
      </trkpt>
      <trkpt lat="42.24965" lon="1.89134">
        <ele>929.66</ele>
        <time>2019-04-07T22:32:24Z</time>
      </trkpt>
      <trkpt lat="42.24968" lon="1.89134">
        <ele>930.26</ele>
        <time>2019-04-07T22:32:25Z</time>
      </trkpt>
      <trkpt lat="42.24971" lon="1.89134">
        <ele>930.274</ele>
        <time>2019-04-07T22:32:27Z</time>
      </trkpt>
      <trkpt lat="42.24972" lon="1.89134">
        <ele>930.143</ele>
        <time>2019-04-07T22:32:27Z</time>
      </trkpt>
      <trkpt lat="42.24975" lon="1.89134">
        <ele>930.365</ele>
        <time>2019-04-07T22:32:28Z</time>
      </trkpt>
      <trkpt lat="42.24978" lon="1.89135">
        <ele>930.645</ele>
        <time>2019-04-07T22:32:29Z</time>
      </trkpt>
      <trkpt lat="42.2498" lon="1.89135">
        <ele>931.247</ele>
        <time>2019-04-07T22:32:30Z</time>
      </trkpt>
      <trkpt lat="42.24982" lon="1.89135">
        <ele>931.411</ele>
        <time>2019-04-07T22:32:31Z</time>
      </trkpt>
      <trkpt lat="42.24984" lon="1.89135">
        <ele>932.008</ele>
        <time>2019-04-07T22:32:32Z</time>
      </trkpt>
      <trkpt lat="42.24988" lon="1.89135">
        <ele>932.817</ele>
        <time>2019-04-07T22:32:33Z</time>
      </trkpt>
      <trkpt lat="42.24988" lon="1.89135">
        <ele>933.259</ele>
        <time>2019-04-07T22:32:34Z</time>
      </trkpt>
      <trkpt lat="42.24993" lon="1.89135">
        <ele>934.134</ele>
        <time>2019-04-07T22:32:35Z</time>
      </trkpt>
      <trkpt lat="42.24996" lon="1.89137">
        <ele>934.465</ele>
        <time>2019-04-07T22:32:37Z</time>
      </trkpt>
      <trkpt lat="42.24998" lon="1.89139">
        <ele>934.735</ele>
        <time>2019-04-07T22:32:38Z</time>
      </trkpt>
      <trkpt lat="42.25" lon="1.89141">
        <ele>935.299</ele>
        <time>2019-04-07T22:32:39Z</time>
      </trkpt>
      <trkpt lat="42.25001" lon="1.89141">
        <ele>935.578</ele>
        <time>2019-04-07T22:32:39Z</time>
      </trkpt>
      <trkpt lat="42.25002" lon="1.89141">
        <ele>935.62</ele>
        <time>2019-04-07T22:32:39Z</time>
      </trkpt>
      <trkpt lat="42.25005" lon="1.89141">
        <ele>936.387</ele>
        <time>2019-04-07T22:32:41Z</time>
      </trkpt>
      <trkpt lat="42.25007" lon="1.89141">
        <ele>936.842</ele>
        <time>2019-04-07T22:32:41Z</time>
      </trkpt>
      <trkpt lat="42.25007" lon="1.89141">
        <ele>936.726</ele>
        <time>2019-04-07T22:32:42Z</time>
      </trkpt>
      <trkpt lat="42.2501" lon="1.8914">
        <ele>937.008</ele>
        <time>2019-04-07T22:32:43Z</time>
      </trkpt>
      <trkpt lat="42.25013" lon="1.89144">
        <ele>937.551</ele>
        <time>2019-04-07T22:32:44Z</time>
      </trkpt>
      <trkpt lat="42.25013" lon="1.89144">
        <ele>937.633</ele>
        <time>2019-04-07T22:32:45Z</time>
      </trkpt>
      <trkpt lat="42.25016" lon="1.8915">
        <ele>938.498</ele>
        <time>2019-04-07T22:32:47Z</time>
      </trkpt>
      <trkpt lat="42.25015" lon="1.89154">
        <ele>938.419</ele>
        <time>2019-04-07T22:32:48Z</time>
      </trkpt>
      <trkpt lat="42.25014" lon="1.89154">
        <ele>938.459</ele>
        <time>2019-04-07T22:32:48Z</time>
      </trkpt>
      <trkpt lat="42.25012" lon="1.89146">
        <ele>938.533</ele>
        <time>2019-04-07T22:32:51Z</time>
      </trkpt>
      <trkpt lat="42.25012" lon="1.89145">
        <ele>938.472</ele>
        <time>2019-04-07T22:32:51Z</time>
      </trkpt>
      <trkpt lat="42.25014" lon="1.89148">
        <ele>938.444</ele>
        <time>2019-04-07T22:32:52Z</time>
      </trkpt>
      <trkpt lat="42.25015" lon="1.8915">
        <ele>938.694</ele>
        <time>2019-04-07T22:32:53Z</time>
      </trkpt>
      <trkpt lat="42.25017" lon="1.89154">
        <ele>939.057</ele>
        <time>2019-04-07T22:32:54Z</time>
      </trkpt>
      <trkpt lat="42.25018" lon="1.89155">
        <ele>939.422</ele>
        <time>2019-04-07T22:32:55Z</time>
      </trkpt>
      <trkpt lat="42.25019" lon="1.89156">
        <ele>939.508</ele>
        <time>2019-04-07T22:32:55Z</time>
      </trkpt>
      <trkpt lat="42.2502" lon="1.89158">
        <ele>940.152</ele>
        <time>2019-04-07T22:32:56Z</time>
      </trkpt>
      <trkpt lat="42.25019" lon="1.89158">
        <ele>940.824</ele>
        <time>2019-04-07T22:32:56Z</time>
      </trkpt>
      <trkpt lat="42.25019" lon="1.89156">
        <ele>940.999</ele>
        <time>2019-04-07T22:32:57Z</time>
      </trkpt>
      <trkpt lat="42.25025" lon="1.89155">
        <ele>941.77</ele>
        <time>2019-04-07T22:32:59Z</time>
      </trkpt>
      <trkpt lat="42.25028" lon="1.89156">
        <ele>942.15</ele>
        <time>2019-04-07T22:33:00Z</time>
      </trkpt>
      <trkpt lat="42.25033" lon="1.8916">
        <ele>942.624</ele>
        <time>2019-04-07T22:33:03Z</time>
      </trkpt>
      <trkpt lat="42.25035" lon="1.89162">
        <ele>943.133</ele>
        <time>2019-04-07T22:33:04Z</time>
      </trkpt>
      <trkpt lat="42.25042" lon="1.89162">
        <ele>944.415</ele>
        <time>2019-04-07T22:33:06Z</time>
      </trkpt>
      <trkpt lat="42.25048" lon="1.89163">
        <ele>945.369</ele>
        <time>2019-04-07T22:33:09Z</time>
      </trkpt>
      <trkpt lat="42.25049" lon="1.89164">
        <ele>945.604</ele>
        <time>2019-04-07T22:33:09Z</time>
      </trkpt>
      <trkpt lat="42.25051" lon="1.89166">
        <ele>946.224</ele>
        <time>2019-04-07T22:33:10Z</time>
      </trkpt>
      <trkpt lat="42.25054" lon="1.89167">
        <ele>946.708</ele>
        <time>2019-04-07T22:33:12Z</time>
      </trkpt>
      <trkpt lat="42.25056" lon="1.89166">
        <ele>947.169</ele>
        <time>2019-04-07T22:33:12Z</time>
      </trkpt>
      <trkpt lat="42.25057" lon="1.89166">
        <ele>947.371</ele>
        <time>2019-04-07T22:33:13Z</time>
      </trkpt>
      <trkpt lat="42.25059" lon="1.89165">
        <ele>947.536</ele>
        <time>2019-04-07T22:33:14Z</time>
      </trkpt>
      <trkpt lat="42.25063" lon="1.89165">
        <ele>948.297</ele>
        <time>2019-04-07T22:33:15Z</time>
      </trkpt>
      <trkpt lat="42.25063" lon="1.89164">
        <ele>948.577</ele>
        <time>2019-04-07T22:33:16Z</time>
      </trkpt>
      <trkpt lat="42.25064" lon="1.89164">
        <ele>948.661</ele>
        <time>2019-04-07T22:33:16Z</time>
      </trkpt>
      <trkpt lat="42.25068" lon="1.89164">
        <ele>949.13</ele>
        <time>2019-04-07T22:33:17Z</time>
      </trkpt>
      <trkpt lat="42.2507" lon="1.89165">
        <ele>949.332</ele>
        <time>2019-04-07T22:33:18Z</time>
      </trkpt>
      <trkpt lat="42.25071" lon="1.89165">
        <ele>949.614</ele>
        <time>2019-04-07T22:33:19Z</time>
      </trkpt>
      <trkpt lat="42.25073" lon="1.89165">
        <ele>949.554</ele>
        <time>2019-04-07T22:33:19Z</time>
      </trkpt>
      <trkpt lat="42.25078" lon="1.89165">
        <ele>950.509</ele>
        <time>2019-04-07T22:33:22Z</time>
      </trkpt>
      <trkpt lat="42.2508" lon="1.89165">
        <ele>950.708</ele>
        <time>2019-04-07T22:33:22Z</time>
      </trkpt>
      <trkpt lat="42.25085" lon="1.89163">
        <ele>951.584</ele>
        <time>2019-04-07T22:33:24Z</time>
      </trkpt>
      <trkpt lat="42.25087" lon="1.89162">
        <ele>952.016</ele>
        <time>2019-04-07T22:33:25Z</time>
      </trkpt>
      <trkpt lat="42.25089" lon="1.89162">
        <ele>952.221</ele>
        <time>2019-04-07T22:33:26Z</time>
      </trkpt>
      <trkpt lat="42.25093" lon="1.89162">
        <ele>952.592</ele>
        <time>2019-04-07T22:33:28Z</time>
      </trkpt>
      <trkpt lat="42.25094" lon="1.89161">
        <ele>952.982</ele>
        <time>2019-04-07T22:33:28Z</time>
      </trkpt>
      <trkpt lat="42.25096" lon="1.89161">
        <ele>953.296</ele>
        <time>2019-04-07T22:33:29Z</time>
      </trkpt>
      <trkpt lat="42.25102" lon="1.89161">
        <ele>954.035</ele>
        <time>2019-04-07T22:33:31Z</time>
      </trkpt>
      <trkpt lat="42.25104" lon="1.89161">
        <ele>954.217</ele>
        <time>2019-04-07T22:33:32Z</time>
      </trkpt>
      <trkpt lat="42.25111" lon="1.89162">
        <ele>955.111</ele>
        <time>2019-04-07T22:33:35Z</time>
      </trkpt>
      <trkpt lat="42.25113" lon="1.89164">
        <ele>955.121</ele>
        <time>2019-04-07T22:33:36Z</time>
      </trkpt>
      <trkpt lat="42.25114" lon="1.89164">
        <ele>955.203</ele>
        <time>2019-04-07T22:33:36Z</time>
      </trkpt>
      <trkpt lat="42.25119" lon="1.89166">
        <ele>956.208</ele>
        <time>2019-04-07T22:33:38Z</time>
      </trkpt>
      <trkpt lat="42.25122" lon="1.89168">
        <ele>956.474</ele>
        <time>2019-04-07T22:33:40Z</time>
      </trkpt>
      <trkpt lat="42.25128" lon="1.89171">
        <ele>957.246</ele>
        <time>2019-04-07T22:33:42Z</time>
      </trkpt>
      <trkpt lat="42.2513" lon="1.89173">
        <ele>957.261</ele>
        <time>2019-04-07T22:33:43Z</time>
      </trkpt>
      <trkpt lat="42.25133" lon="1.89176">
        <ele>957.682</ele>
        <time>2019-04-07T22:33:45Z</time>
      </trkpt>
      <trkpt lat="42.25136" lon="1.89178">
        <ele>957.762</ele>
        <time>2019-04-07T22:33:46Z</time>
      </trkpt>
      <trkpt lat="42.25137" lon="1.89183">
        <ele>958.336</ele>
        <time>2019-04-07T22:33:47Z</time>
      </trkpt>
      <trkpt lat="42.25138" lon="1.89183">
        <ele>958.715</ele>
        <time>2019-04-07T22:33:48Z</time>
      </trkpt>
      <trkpt lat="42.25138" lon="1.89184">
        <ele>958.867</ele>
        <time>2019-04-07T22:33:48Z</time>
      </trkpt>
      <trkpt lat="42.25141" lon="1.89187">
        <ele>959.482</ele>
        <time>2019-04-07T22:33:49Z</time>
      </trkpt>
      <trkpt lat="42.25143" lon="1.89189">
        <ele>959.243</ele>
        <time>2019-04-07T22:33:50Z</time>
      </trkpt>
      <trkpt lat="42.25143" lon="1.8919">
        <ele>959.217</ele>
        <time>2019-04-07T22:33:51Z</time>
      </trkpt>
      <trkpt lat="42.25144" lon="1.89191">
        <ele>959.208</ele>
        <time>2019-04-07T22:33:51Z</time>
      </trkpt>
      <trkpt lat="42.25145" lon="1.89192">
        <ele>959.271</ele>
        <time>2019-04-07T22:33:52Z</time>
      </trkpt>
      <trkpt lat="42.25146" lon="1.89194">
        <ele>959.673</ele>
        <time>2019-04-07T22:33:52Z</time>
      </trkpt>
      <trkpt lat="42.25146" lon="1.89198">
        <ele>960.238</ele>
        <time>2019-04-07T22:33:53Z</time>
      </trkpt>
      <trkpt lat="42.25146" lon="1.89198">
        <ele>960.479</ele>
        <time>2019-04-07T22:33:54Z</time>
      </trkpt>
      <trkpt lat="42.25145" lon="1.89196">
        <ele>960.529</ele>
        <time>2019-04-07T22:33:54Z</time>
      </trkpt>
      <trkpt lat="42.25143" lon="1.89191">
        <ele>959.713</ele>
        <time>2019-04-07T22:33:56Z</time>
      </trkpt>
      <trkpt lat="42.25151" lon="1.89194">
        <ele>960.352</ele>
        <time>2019-04-07T22:33:59Z</time>
      </trkpt>
      <trkpt lat="42.25154" lon="1.89196">
        <ele>960.654</ele>
        <time>2019-04-07T22:34:00Z</time>
      </trkpt>
      <trkpt lat="42.25159" lon="1.89203">
        <ele>960.618</ele>
        <time>2019-04-07T22:34:03Z</time>
      </trkpt>
      <trkpt lat="42.25161" lon="1.89204">
        <ele>960.698</ele>
        <time>2019-04-07T22:34:04Z</time>
      </trkpt>
      <trkpt lat="42.25163" lon="1.89207">
        <ele>960.517</ele>
        <time>2019-04-07T22:34:05Z</time>
      </trkpt>
      <trkpt lat="42.25169" lon="1.89214">
        <ele>961.208</ele>
        <time>2019-04-07T22:34:08Z</time>
      </trkpt>
      <trkpt lat="42.25172" lon="1.8922">
        <ele>961.234</ele>
        <time>2019-04-07T22:34:10Z</time>
      </trkpt>
      <trkpt lat="42.25173" lon="1.8922">
        <ele>961.226</ele>
        <time>2019-04-07T22:34:11Z</time>
      </trkpt>
      <trkpt lat="42.25174" lon="1.8922">
        <ele>960.911</ele>
        <time>2019-04-07T22:34:11Z</time>
      </trkpt>
      <trkpt lat="42.25174" lon="1.89221">
        <ele>960.962</ele>
        <time>2019-04-07T22:34:11Z</time>
      </trkpt>
      <trkpt lat="42.25176" lon="1.89222">
        <ele>960.792</ele>
        <time>2019-04-07T22:34:12Z</time>
      </trkpt>
      <trkpt lat="42.25177" lon="1.89223">
        <ele>960.646</ele>
        <time>2019-04-07T22:34:13Z</time>
      </trkpt>
      <trkpt lat="42.25179" lon="1.89226">
        <ele>960.525</ele>
        <time>2019-04-07T22:34:14Z</time>
      </trkpt>
      <trkpt lat="42.25179" lon="1.89226">
        <ele>960.667</ele>
        <time>2019-04-07T22:34:14Z</time>
      </trkpt>
      <trkpt lat="42.25183" lon="1.89225">
        <ele>960.259</ele>
        <time>2019-04-07T22:34:15Z</time>
      </trkpt>
      <trkpt lat="42.25187" lon="1.89225">
        <ele>959.603</ele>
        <time>2019-04-07T22:34:17Z</time>
      </trkpt>
      <trkpt lat="42.25193" lon="1.89227">
        <ele>959.423</ele>
        <time>2019-04-07T22:34:19Z</time>
      </trkpt>
      <trkpt lat="42.25195" lon="1.89227">
        <ele>959.208</ele>
        <time>2019-04-07T22:34:20Z</time>
      </trkpt>
      <trkpt lat="42.25198" lon="1.89226">
        <ele>959.498</ele>
        <time>2019-04-07T22:34:22Z</time>
      </trkpt>
      <trkpt lat="42.25201" lon="1.89223">
        <ele>959.01</ele>
        <time>2019-04-07T22:34:23Z</time>
      </trkpt>
      <trkpt lat="42.25202" lon="1.8922">
        <ele>958.655</ele>
        <time>2019-04-07T22:34:24Z</time>
      </trkpt>
      <trkpt lat="42.25203" lon="1.89219">
        <ele>958.696</ele>
        <time>2019-04-07T22:34:25Z</time>
      </trkpt>
      <trkpt lat="42.25204" lon="1.89213">
        <ele>958.536</ele>
        <time>2019-04-07T22:34:26Z</time>
      </trkpt>
      <trkpt lat="42.25206" lon="1.89206">
        <ele>958.66</ele>
        <time>2019-04-07T22:34:28Z</time>
      </trkpt>
      <trkpt lat="42.25205" lon="1.89202">
        <ele>958.859</ele>
        <time>2019-04-07T22:34:30Z</time>
      </trkpt>
      <trkpt lat="42.25206" lon="1.8919">
        <ele>959.221</ele>
        <time>2019-04-07T22:34:33Z</time>
      </trkpt>
      <trkpt lat="42.25207" lon="1.89181">
        <ele>959.585</ele>
        <time>2019-04-07T22:34:36Z</time>
      </trkpt>
      <trkpt lat="42.25209" lon="1.89173">
        <ele>960.689</ele>
        <time>2019-04-07T22:34:38Z</time>
      </trkpt>
      <trkpt lat="42.25209" lon="1.8917">
        <ele>961.017</ele>
        <time>2019-04-07T22:34:39Z</time>
      </trkpt>
      <trkpt lat="42.2521" lon="1.89168">
        <ele>961.208</ele>
        <time>2019-04-07T22:34:40Z</time>
      </trkpt>
      <trkpt lat="42.2521" lon="1.89165">
        <ele>961.581</ele>
        <time>2019-04-07T22:34:41Z</time>
      </trkpt>
      <trkpt lat="42.2521" lon="1.89162">
        <ele>961.663</ele>
        <time>2019-04-07T22:34:42Z</time>
      </trkpt>
      <trkpt lat="42.25211" lon="1.89161">
        <ele>962.068</ele>
        <time>2019-04-07T22:34:42Z</time>
      </trkpt>
      <trkpt lat="42.25214" lon="1.89164">
        <ele>962.219</ele>
        <time>2019-04-07T22:34:43Z</time>
      </trkpt>
      <trkpt lat="42.25215" lon="1.89164">
        <ele>962.569</ele>
        <time>2019-04-07T22:34:44Z</time>
      </trkpt>
      <trkpt lat="42.25216" lon="1.89164">
        <ele>962.683</ele>
        <time>2019-04-07T22:34:44Z</time>
      </trkpt>
      <trkpt lat="42.25219" lon="1.89165">
        <ele>962.562</ele>
        <time>2019-04-07T22:34:45Z</time>
      </trkpt>
      <trkpt lat="42.2522" lon="1.89165">
        <ele>962.874</ele>
        <time>2019-04-07T22:34:46Z</time>
      </trkpt>
      <trkpt lat="42.25221" lon="1.89165">
        <ele>963.138</ele>
        <time>2019-04-07T22:34:46Z</time>
      </trkpt>
      <trkpt lat="42.25225" lon="1.89167">
        <ele>963.77</ele>
        <time>2019-04-07T22:34:48Z</time>
      </trkpt>
      <trkpt lat="42.25232" lon="1.89172">
        <ele>964.517</ele>
        <time>2019-04-07T22:34:51Z</time>
      </trkpt>
      <trkpt lat="42.25233" lon="1.89172">
        <ele>964.708</ele>
        <time>2019-04-07T22:34:52Z</time>
      </trkpt>
      <trkpt lat="42.25234" lon="1.89175">
        <ele>965.136</ele>
        <time>2019-04-07T22:34:53Z</time>
      </trkpt>
      <trkpt lat="42.25235" lon="1.8919">
        <ele>965.958</ele>
        <time>2019-04-07T22:34:57Z</time>
      </trkpt>
      <trkpt lat="42.25236" lon="1.89201">
        <ele>966.153</ele>
        <time>2019-04-07T22:35:00Z</time>
      </trkpt>
      <trkpt lat="42.25236" lon="1.89203">
        <ele>966.254</ele>
        <time>2019-04-07T22:35:01Z</time>
      </trkpt>
      <trkpt lat="42.25237" lon="1.89204">
        <ele>966.494</ele>
        <time>2019-04-07T22:35:01Z</time>
      </trkpt>
      <trkpt lat="42.25239" lon="1.89212">
        <ele>966.718</ele>
        <time>2019-04-07T22:35:04Z</time>
      </trkpt>
      <trkpt lat="42.25239" lon="1.89221">
        <ele>966.917</ele>
        <time>2019-04-07T22:35:06Z</time>
      </trkpt>
      <trkpt lat="42.2524" lon="1.89223">
        <ele>967.549</ele>
        <time>2019-04-07T22:35:07Z</time>
      </trkpt>
      <trkpt lat="42.25241" lon="1.89229">
        <ele>968.612</ele>
        <time>2019-04-07T22:35:09Z</time>
      </trkpt>
      <trkpt lat="42.25241" lon="1.8923">
        <ele>968.632</ele>
        <time>2019-04-07T22:35:09Z</time>
      </trkpt>
      <trkpt lat="42.25244" lon="1.89236">
        <ele>969.705</ele>
        <time>2019-04-07T22:35:11Z</time>
      </trkpt>
      <trkpt lat="42.25243" lon="1.89237">
        <ele>970.008</ele>
        <time>2019-04-07T22:35:12Z</time>
      </trkpt>
      <trkpt lat="42.25242" lon="1.89237">
        <ele>970.574</ele>
        <time>2019-04-07T22:35:12Z</time>
      </trkpt>
      <trkpt lat="42.25242" lon="1.89236">
        <ele>970.646</ele>
        <time>2019-04-07T22:35:12Z</time>
      </trkpt>
      <trkpt lat="42.25244" lon="1.89236">
        <ele>970.711</ele>
        <time>2019-04-07T22:35:13Z</time>
      </trkpt>
      <trkpt lat="42.25244" lon="1.89235">
        <ele>971.352</ele>
        <time>2019-04-07T22:35:13Z</time>
      </trkpt>
      <trkpt lat="42.25244" lon="1.89238">
        <ele>971.692</ele>
        <time>2019-04-07T22:35:14Z</time>
      </trkpt>
      <trkpt lat="42.25244" lon="1.89239">
        <ele>971.536</ele>
        <time>2019-04-07T22:35:15Z</time>
      </trkpt>
      <trkpt lat="42.25243" lon="1.8924">
        <ele>971.535</ele>
        <time>2019-04-07T22:35:15Z</time>
      </trkpt>
      <trkpt lat="42.25242" lon="1.89242">
        <ele>971.527</ele>
        <time>2019-04-07T22:35:16Z</time>
      </trkpt>
      <trkpt lat="42.25242" lon="1.89244">
        <ele>971.432</ele>
        <time>2019-04-07T22:35:16Z</time>
      </trkpt>
      <trkpt lat="42.25243" lon="1.89247">
        <ele>971.592</ele>
        <time>2019-04-07T22:35:17Z</time>
      </trkpt>
      <trkpt lat="42.25244" lon="1.89251">
        <ele>971.511</ele>
        <time>2019-04-07T22:35:19Z</time>
      </trkpt>
      <trkpt lat="42.25244" lon="1.89253">
        <ele>972.008</ele>
        <time>2019-04-07T22:35:19Z</time>
      </trkpt>
      <trkpt lat="42.25245" lon="1.89254">
        <ele>972.476</ele>
        <time>2019-04-07T22:35:20Z</time>
      </trkpt>
      <trkpt lat="42.25245" lon="1.89255">
        <ele>972.568</ele>
        <time>2019-04-07T22:35:20Z</time>
      </trkpt>
      <trkpt lat="42.25247" lon="1.89258">
        <ele>973.463</ele>
        <time>2019-04-07T22:35:21Z</time>
      </trkpt>
      <trkpt lat="42.25247" lon="1.89259">
        <ele>973.514</ele>
        <time>2019-04-07T22:35:21Z</time>
      </trkpt>
      <trkpt lat="42.25248" lon="1.8926">
        <ele>974.224</ele>
        <time>2019-04-07T22:35:22Z</time>
      </trkpt>
      <trkpt lat="42.25248" lon="1.89259">
        <ele>974.578</ele>
        <time>2019-04-07T22:35:22Z</time>
      </trkpt>
      <trkpt lat="42.25251" lon="1.89261">
        <ele>975.587</ele>
        <time>2019-04-07T22:35:23Z</time>
      </trkpt>
      <trkpt lat="42.25251" lon="1.89262">
        <ele>975.849</ele>
        <time>2019-04-07T22:35:24Z</time>
      </trkpt>
      <trkpt lat="42.25253" lon="1.89262">
        <ele>976.883</ele>
        <time>2019-04-07T22:35:24Z</time>
      </trkpt>
      <trkpt lat="42.25254" lon="1.89262">
        <ele>977.125</ele>
        <time>2019-04-07T22:35:25Z</time>
      </trkpt>
      <trkpt lat="42.25258" lon="1.89263">
        <ele>978.017</ele>
        <time>2019-04-07T22:35:27Z</time>
      </trkpt>
      <trkpt lat="42.2526" lon="1.89266">
        <ele>978.408</ele>
        <time>2019-04-07T22:35:28Z</time>
      </trkpt>
      <trkpt lat="42.25261" lon="1.8927">
        <ele>979.081</ele>
        <time>2019-04-07T22:35:29Z</time>
      </trkpt>
      <trkpt lat="42.25261" lon="1.89271">
        <ele>979.493</ele>
        <time>2019-04-07T22:35:29Z</time>
      </trkpt>
      <trkpt lat="42.25261" lon="1.89271">
        <ele>979.658</ele>
        <time>2019-04-07T22:35:29Z</time>
      </trkpt>
      <trkpt lat="42.25261" lon="1.89273">
        <ele>980.269</ele>
        <time>2019-04-07T22:35:30Z</time>
      </trkpt>
      <trkpt lat="42.25262" lon="1.89276">
        <ele>980.879</ele>
        <time>2019-04-07T22:35:31Z</time>
      </trkpt>
      <trkpt lat="42.25262" lon="1.89277">
        <ele>981.473</ele>
        <time>2019-04-07T22:35:31Z</time>
      </trkpt>
      <trkpt lat="42.25263" lon="1.8928">
        <ele>982.222</ele>
        <time>2019-04-07T22:35:32Z</time>
      </trkpt>
      <trkpt lat="42.25264" lon="1.89284">
        <ele>982.394</ele>
        <time>2019-04-07T22:35:33Z</time>
      </trkpt>
      <trkpt lat="42.25265" lon="1.89284">
        <ele>982.576</ele>
        <time>2019-04-07T22:35:34Z</time>
      </trkpt>
      <trkpt lat="42.25266" lon="1.89287">
        <ele>982.59</ele>
        <time>2019-04-07T22:35:35Z</time>
      </trkpt>
      <trkpt lat="42.25267" lon="1.8929">
        <ele>982.719</ele>
        <time>2019-04-07T22:35:36Z</time>
      </trkpt>
      <trkpt lat="42.25268" lon="1.89291">
        <ele>982.708</ele>
        <time>2019-04-07T22:35:36Z</time>
      </trkpt>
      <trkpt lat="42.25268" lon="1.89293">
        <ele>983.09</ele>
        <time>2019-04-07T22:35:37Z</time>
      </trkpt>
      <trkpt lat="42.25268" lon="1.89295">
        <ele>983.122</ele>
        <time>2019-04-07T22:35:37Z</time>
      </trkpt>
      <trkpt lat="42.25269" lon="1.89299">
        <ele>983.197</ele>
        <time>2019-04-07T22:35:38Z</time>
      </trkpt>
      <trkpt lat="42.25272" lon="1.89308">
        <ele>983.648</ele>
        <time>2019-04-07T22:35:41Z</time>
      </trkpt>
      <trkpt lat="42.25274" lon="1.89311">
        <ele>983.678</ele>
        <time>2019-04-07T22:35:42Z</time>
      </trkpt>
      <trkpt lat="42.25275" lon="1.89313">
        <ele>983.822</ele>
        <time>2019-04-07T22:35:43Z</time>
      </trkpt>
      <trkpt lat="42.25276" lon="1.89318">
        <ele>983.971</ele>
        <time>2019-04-07T22:35:45Z</time>
      </trkpt>
      <trkpt lat="42.25278" lon="1.89323">
        <ele>984.653</ele>
        <time>2019-04-07T22:35:46Z</time>
      </trkpt>
      <trkpt lat="42.2528" lon="1.89326">
        <ele>984.631</ele>
        <time>2019-04-07T22:35:48Z</time>
      </trkpt>
      <trkpt lat="42.25286" lon="1.89333">
        <ele>985.361</ele>
        <time>2019-04-07T22:35:51Z</time>
      </trkpt>
      <trkpt lat="42.25288" lon="1.89335">
        <ele>985.407</ele>
        <time>2019-04-07T22:35:52Z</time>
      </trkpt>
      <trkpt lat="42.2529" lon="1.89338">
        <ele>985.408</ele>
        <time>2019-04-07T22:35:53Z</time>
      </trkpt>
      <trkpt lat="42.25292" lon="1.8934">
        <ele>985.796</ele>
        <time>2019-04-07T22:35:54Z</time>
      </trkpt>
      <trkpt lat="42.25294" lon="1.89345">
        <ele>986.568</ele>
        <time>2019-04-07T22:35:55Z</time>
      </trkpt>
      <trkpt lat="42.25294" lon="1.89347">
        <ele>986.653</ele>
        <time>2019-04-07T22:35:56Z</time>
      </trkpt>
      <trkpt lat="42.25294" lon="1.89347">
        <ele>986.454</ele>
        <time>2019-04-07T22:35:56Z</time>
      </trkpt>
      <trkpt lat="42.25294" lon="1.89346">
        <ele>986.234</ele>
        <time>2019-04-07T22:35:56Z</time>
      </trkpt>
      <trkpt lat="42.25295" lon="1.89347">
        <ele>986.178</ele>
        <time>2019-04-07T22:35:57Z</time>
      </trkpt>
      <trkpt lat="42.25297" lon="1.89347">
        <ele>986.337</ele>
        <time>2019-04-07T22:35:57Z</time>
      </trkpt>
      <trkpt lat="42.25301" lon="1.89349">
        <ele>986.559</ele>
        <time>2019-04-07T22:35:59Z</time>
      </trkpt>
      <trkpt lat="42.25302" lon="1.89352">
        <ele>986.541</ele>
        <time>2019-04-07T22:36:00Z</time>
      </trkpt>
      <trkpt lat="42.25303" lon="1.89354">
        <ele>987.181</ele>
        <time>2019-04-07T22:36:01Z</time>
      </trkpt>
      <trkpt lat="42.25303" lon="1.89355">
        <ele>987.509</ele>
        <time>2019-04-07T22:36:01Z</time>
      </trkpt>
      <trkpt lat="42.25304" lon="1.89358">
        <ele>987.708</ele>
        <time>2019-04-07T22:36:02Z</time>
      </trkpt>
      <trkpt lat="42.25304" lon="1.8936">
        <ele>987.927</ele>
        <time>2019-04-07T22:36:02Z</time>
      </trkpt>
      <trkpt lat="42.25305" lon="1.89362">
        <ele>988.349</ele>
        <time>2019-04-07T22:36:03Z</time>
      </trkpt>
      <trkpt lat="42.25306" lon="1.89365">
        <ele>988.674</ele>
        <time>2019-04-07T22:36:04Z</time>
      </trkpt>
      <trkpt lat="42.25306" lon="1.89366">
        <ele>988.685</ele>
        <time>2019-04-07T22:36:04Z</time>
      </trkpt>
      <trkpt lat="42.25307" lon="1.89367">
        <ele>988.975</ele>
        <time>2019-04-07T22:36:05Z</time>
      </trkpt>
      <trkpt lat="42.25307" lon="1.89368">
        <ele>988.969</ele>
        <time>2019-04-07T22:36:05Z</time>
      </trkpt>
      <trkpt lat="42.25309" lon="1.8937">
        <ele>989.578</ele>
        <time>2019-04-07T22:36:06Z</time>
      </trkpt>
      <trkpt lat="42.25311" lon="1.89373">
        <ele>989.85</ele>
        <time>2019-04-07T22:36:07Z</time>
      </trkpt>
      <trkpt lat="42.25311" lon="1.89374">
        <ele>989.767</ele>
        <time>2019-04-07T22:36:08Z</time>
      </trkpt>
      <trkpt lat="42.25312" lon="1.89378">
        <ele>990.181</ele>
        <time>2019-04-07T22:36:09Z</time>
      </trkpt>
      <trkpt lat="42.25313" lon="1.89379">
        <ele>990.219</ele>
        <time>2019-04-07T22:36:09Z</time>
      </trkpt>
      <trkpt lat="42.25315" lon="1.89381">
        <ele>991.208</ele>
        <time>2019-04-07T22:36:10Z</time>
      </trkpt>
      <trkpt lat="42.25317" lon="1.89383">
        <ele>992.479</ele>
        <time>2019-04-07T22:36:11Z</time>
      </trkpt>
      <trkpt lat="42.25317" lon="1.89383">
        <ele>992.491</ele>
        <time>2019-04-07T22:36:11Z</time>
      </trkpt>
      <trkpt lat="42.25318" lon="1.89384">
        <ele>992.546</ele>
        <time>2019-04-07T22:36:12Z</time>
      </trkpt>
      <trkpt lat="42.25318" lon="1.89384">
        <ele>992.727</ele>
        <time>2019-04-07T22:36:12Z</time>
      </trkpt>
      <trkpt lat="42.2532" lon="1.89386">
        <ele>992.947</ele>
        <time>2019-04-07T22:36:13Z</time>
      </trkpt>
      <trkpt lat="42.2532" lon="1.89388">
        <ele>993.251</ele>
        <time>2019-04-07T22:36:14Z</time>
      </trkpt>
      <trkpt lat="42.25322" lon="1.89389">
        <ele>993.54</ele>
        <time>2019-04-07T22:36:14Z</time>
      </trkpt>
      <trkpt lat="42.25323" lon="1.89392">
        <ele>993.812</ele>
        <time>2019-04-07T22:36:16Z</time>
      </trkpt>
      <trkpt lat="42.25324" lon="1.89399">
        <ele>994.694</ele>
        <time>2019-04-07T22:36:18Z</time>
      </trkpt>
      <trkpt lat="42.25324" lon="1.89404">
        <ele>995.557</ele>
        <time>2019-04-07T22:36:19Z</time>
      </trkpt>
      <trkpt lat="42.25323" lon="1.89409">
        <ele>996.222</ele>
        <time>2019-04-07T22:36:20Z</time>
      </trkpt>
      <trkpt lat="42.25323" lon="1.89411">
        <ele>996.508</ele>
        <time>2019-04-07T22:36:21Z</time>
      </trkpt>
      <trkpt lat="42.25323" lon="1.89415">
        <ele>997.612</ele>
        <time>2019-04-07T22:36:22Z</time>
      </trkpt>
      <trkpt lat="42.25322" lon="1.89415">
        <ele>997.674</ele>
        <time>2019-04-07T22:36:23Z</time>
      </trkpt>
      <trkpt lat="42.25322" lon="1.89415">
        <ele>997.949</ele>
        <time>2019-04-07T22:36:23Z</time>
      </trkpt>
      <trkpt lat="42.25323" lon="1.89417">
        <ele>998.52</ele>
        <time>2019-04-07T22:36:23Z</time>
      </trkpt>
      <trkpt lat="42.25324" lon="1.89418">
        <ele>998.91</ele>
        <time>2019-04-07T22:36:24Z</time>
      </trkpt>
      <trkpt lat="42.25324" lon="1.89423">
        <ele>999.574</ele>
        <time>2019-04-07T22:36:25Z</time>
      </trkpt>
      <trkpt lat="42.25324" lon="1.89424">
        <ele>1000.233</ele>
        <time>2019-04-07T22:36:26Z</time>
      </trkpt>
      <trkpt lat="42.25324" lon="1.89427">
        <ele>1001.125</ele>
        <time>2019-04-07T22:36:26Z</time>
      </trkpt>
      <trkpt lat="42.25324" lon="1.89428">
        <ele>1001.231</ele>
        <time>2019-04-07T22:36:27Z</time>
      </trkpt>
      <trkpt lat="42.25325" lon="1.89431">
        <ele>1002.461</ele>
        <time>2019-04-07T22:36:28Z</time>
      </trkpt>
      <trkpt lat="42.25327" lon="1.89432">
        <ele>1002.707</ele>
        <time>2019-04-07T22:36:28Z</time>
      </trkpt>
      <trkpt lat="42.25328" lon="1.89432">
        <ele>1002.708</ele>
        <time>2019-04-07T22:36:29Z</time>
      </trkpt>
      <trkpt lat="42.2533" lon="1.89434">
        <ele>1003.116</ele>
        <time>2019-04-07T22:36:30Z</time>
      </trkpt>
      <trkpt lat="42.25332" lon="1.89435">
        <ele>1003.088</ele>
        <time>2019-04-07T22:36:31Z</time>
      </trkpt>
      <trkpt lat="42.25332" lon="1.89435">
        <ele>1003.493</ele>
        <time>2019-04-07T22:36:31Z</time>
      </trkpt>
      <trkpt lat="42.25332" lon="1.89435">
        <ele>1003.354</ele>
        <time>2019-04-07T22:36:31Z</time>
      </trkpt>
      <trkpt lat="42.2533" lon="1.89434">
        <ele>1003.364</ele>
        <time>2019-04-07T22:36:32Z</time>
      </trkpt>
      <trkpt lat="42.25328" lon="1.89434">
        <ele>1003.488</ele>
        <time>2019-04-07T22:36:33Z</time>
      </trkpt>
      <trkpt lat="42.25327" lon="1.89433">
        <ele>1003.567</ele>
        <time>2019-04-07T22:36:34Z</time>
      </trkpt>
      <trkpt lat="42.25329" lon="1.8943">
        <ele>1003.669</ele>
        <time>2019-04-07T22:36:35Z</time>
      </trkpt>
      <trkpt lat="42.25335" lon="1.89436">
        <ele>1004.453</ele>
        <time>2019-04-07T22:36:38Z</time>
      </trkpt>
      <trkpt lat="42.25338" lon="1.89441">
        <ele>1004.604</ele>
        <time>2019-04-07T22:36:40Z</time>
      </trkpt>
      <trkpt lat="42.25338" lon="1.89443">
        <ele>1005.014</ele>
        <time>2019-04-07T22:36:40Z</time>
      </trkpt>
      <trkpt lat="42.25338" lon="1.89444">
        <ele>1005.208</ele>
        <time>2019-04-07T22:36:41Z</time>
      </trkpt>
      <trkpt lat="42.25338" lon="1.89445">
        <ele>1005.498</ele>
        <time>2019-04-07T22:36:41Z</time>
      </trkpt>
      <trkpt lat="42.25339" lon="1.89447">
        <ele>1005.57</ele>
        <time>2019-04-07T22:36:42Z</time>
      </trkpt>
      <trkpt lat="42.25337" lon="1.8945">
        <ele>1005.775</ele>
        <time>2019-04-07T22:36:43Z</time>
      </trkpt>
      <trkpt lat="42.25338" lon="1.89453">
        <ele>1005.736</ele>
        <time>2019-04-07T22:36:44Z</time>
      </trkpt>
      <trkpt lat="42.25339" lon="1.89458">
        <ele>1006.656</ele>
        <time>2019-04-07T22:36:45Z</time>
      </trkpt>
      <trkpt lat="42.25339" lon="1.89459">
        <ele>1006.71</ele>
        <time>2019-04-07T22:36:45Z</time>
      </trkpt>
      <trkpt lat="42.25341" lon="1.8946">
        <ele>1007.489</ele>
        <time>2019-04-07T22:36:46Z</time>
      </trkpt>
      <trkpt lat="42.25341" lon="1.89459">
        <ele>1007.731</ele>
        <time>2019-04-07T22:36:46Z</time>
      </trkpt>
      <trkpt lat="42.25341" lon="1.89459">
        <ele>1007.862</ele>
        <time>2019-04-07T22:36:46Z</time>
      </trkpt>
      <trkpt lat="42.25341" lon="1.89459">
        <ele>1008.283</ele>
        <time>2019-04-07T22:36:46Z</time>
      </trkpt>
      <trkpt lat="42.2534" lon="1.89459">
        <ele>1008.411</ele>
        <time>2019-04-07T22:36:47Z</time>
      </trkpt>
      <trkpt lat="42.25341" lon="1.89458">
        <ele>1008.508</ele>
        <time>2019-04-07T22:36:47Z</time>
      </trkpt>
      <trkpt lat="42.25341" lon="1.89458">
        <ele>1009.289</ele>
        <time>2019-04-07T22:36:47Z</time>
      </trkpt>
      <trkpt lat="42.25342" lon="1.89457">
        <ele>1009.331</ele>
        <time>2019-04-07T22:36:47Z</time>
      </trkpt>
      <trkpt lat="42.25344" lon="1.89457">
        <ele>1009.816</ele>
        <time>2019-04-07T22:36:48Z</time>
      </trkpt>
      <trkpt lat="42.25346" lon="1.8946">
        <ele>1010.377</ele>
        <time>2019-04-07T22:36:50Z</time>
      </trkpt>
      <trkpt lat="42.25348" lon="1.89464">
        <ele>1010.657</ele>
        <time>2019-04-07T22:36:51Z</time>
      </trkpt>
      <trkpt lat="42.25348" lon="1.89468">
        <ele>1010.851</ele>
        <time>2019-04-07T22:36:52Z</time>
      </trkpt>
      <trkpt lat="42.25348" lon="1.8947">
        <ele>1010.76</ele>
        <time>2019-04-07T22:36:52Z</time>
      </trkpt>
      <trkpt lat="42.25348" lon="1.8947">
        <ele>1011.362</ele>
        <time>2019-04-07T22:36:53Z</time>
      </trkpt>
      <trkpt lat="42.25347" lon="1.89471">
        <ele>1011.619</ele>
        <time>2019-04-07T22:36:53Z</time>
      </trkpt>
      <trkpt lat="42.25347" lon="1.89471">
        <ele>1012.109</ele>
        <time>2019-04-07T22:36:53Z</time>
      </trkpt>
      <trkpt lat="42.25346" lon="1.89472">
        <ele>1012.419</ele>
        <time>2019-04-07T22:36:53Z</time>
      </trkpt>
      <trkpt lat="42.25346" lon="1.89473">
        <ele>1013.208</ele>
        <time>2019-04-07T22:36:54Z</time>
      </trkpt>
      <trkpt lat="42.25345" lon="1.89475">
        <ele>1013.494</ele>
        <time>2019-04-07T22:36:54Z</time>
      </trkpt>
      <trkpt lat="42.25344" lon="1.89476">
        <ele>1013.646</ele>
        <time>2019-04-07T22:36:55Z</time>
      </trkpt>
      <trkpt lat="42.25343" lon="1.89478">
        <ele>1013.881</ele>
        <time>2019-04-07T22:36:56Z</time>
      </trkpt>
      <trkpt lat="42.25343" lon="1.89479">
        <ele>1013.812</ele>
        <time>2019-04-07T22:36:56Z</time>
      </trkpt>
      <trkpt lat="42.25342" lon="1.8948">
        <ele>1014.692</ele>
        <time>2019-04-07T22:36:57Z</time>
      </trkpt>
      <trkpt lat="42.25337" lon="1.89485">
        <ele>1015.766</ele>
        <time>2019-04-07T22:36:59Z</time>
      </trkpt>
      <trkpt lat="42.25336" lon="1.89485">
        <ele>1016.165</ele>
        <time>2019-04-07T22:36:59Z</time>
      </trkpt>
      <trkpt lat="42.25334" lon="1.89484">
        <ele>1016.677</ele>
        <time>2019-04-07T22:37:00Z</time>
      </trkpt>
      <trkpt lat="42.25333" lon="1.89484">
        <ele>1016.662</ele>
        <time>2019-04-07T22:37:01Z</time>
      </trkpt>
      <trkpt lat="42.25326" lon="1.89479">
        <ele>1017.583</ele>
        <time>2019-04-07T22:37:04Z</time>
      </trkpt>
      <trkpt lat="42.25324" lon="1.89476">
        <ele>1017.711</ele>
        <time>2019-04-07T22:37:05Z</time>
      </trkpt>
      <trkpt lat="42.2532" lon="1.89474">
        <ele>1018.508</ele>
        <time>2019-04-07T22:37:07Z</time>
      </trkpt>
      <trkpt lat="42.25319" lon="1.89474">
        <ele>1018.859</ele>
        <time>2019-04-07T22:37:07Z</time>
      </trkpt>
      <trkpt lat="42.25319" lon="1.89475">
        <ele>1019.081</ele>
        <time>2019-04-07T22:37:07Z</time>
      </trkpt>
      <trkpt lat="42.25317" lon="1.89474">
        <ele>1019.716</ele>
        <time>2019-04-07T22:37:08Z</time>
      </trkpt>
      <trkpt lat="42.25316" lon="1.89473">
        <ele>1020.117</ele>
        <time>2019-04-07T22:37:08Z</time>
      </trkpt>
      <trkpt lat="42.25315" lon="1.89472">
        <ele>1020.517</ele>
        <time>2019-04-07T22:37:09Z</time>
      </trkpt>
      <trkpt lat="42.25314" lon="1.89471">
        <ele>1021.151</ele>
        <time>2019-04-07T22:37:09Z</time>
      </trkpt>
      <trkpt lat="42.25314" lon="1.89471">
        <ele>1021.29</ele>
        <time>2019-04-07T22:37:09Z</time>
      </trkpt>
      <trkpt lat="42.25314" lon="1.89471">
        <ele>1021.592</ele>
        <time>2019-04-07T22:37:09Z</time>
      </trkpt>
      <trkpt lat="42.25315" lon="1.89471">
        <ele>1021.631</ele>
        <time>2019-04-07T22:37:10Z</time>
      </trkpt>
      <trkpt lat="42.25314" lon="1.89472">
        <ele>1021.861</ele>
        <time>2019-04-07T22:37:10Z</time>
      </trkpt>
      <trkpt lat="42.25314" lon="1.89472">
        <ele>1021.707</ele>
        <time>2019-04-07T22:37:10Z</time>
      </trkpt>
      <trkpt lat="42.25314" lon="1.89473">
        <ele>1022.008</ele>
        <time>2019-04-07T22:37:10Z</time>
      </trkpt>
      <trkpt lat="42.25313" lon="1.89474">
        <ele>1022.376</ele>
        <time>2019-04-07T22:37:11Z</time>
      </trkpt>
      <trkpt lat="42.25312" lon="1.89475">
        <ele>1023.178</ele>
        <time>2019-04-07T22:37:11Z</time>
      </trkpt>
      <trkpt lat="42.25312" lon="1.89476">
        <ele>1023.383</ele>
        <time>2019-04-07T22:37:11Z</time>
      </trkpt>
      <trkpt lat="42.25311" lon="1.89476">
        <ele>1023.654</ele>
        <time>2019-04-07T22:37:12Z</time>
      </trkpt>
      <trkpt lat="42.25312" lon="1.89475">
        <ele>1024.694</ele>
        <time>2019-04-07T22:37:12Z</time>
      </trkpt>
      <trkpt lat="42.25313" lon="1.89475">
        <ele>1025.118</ele>
        <time>2019-04-07T22:37:12Z</time>
      </trkpt>
      <trkpt lat="42.25314" lon="1.89476">
        <ele>1025.437</ele>
        <time>2019-04-07T22:37:13Z</time>
      </trkpt>
      <trkpt lat="42.25319" lon="1.8948">
        <ele>1026.359</ele>
        <time>2019-04-07T22:37:15Z</time>
      </trkpt>
      <trkpt lat="42.2532" lon="1.89481">
        <ele>1026.788</ele>
        <time>2019-04-07T22:37:16Z</time>
      </trkpt>
      <trkpt lat="42.25321" lon="1.89482">
        <ele>1026.924</ele>
        <time>2019-04-07T22:37:16Z</time>
      </trkpt>
      <trkpt lat="42.25322" lon="1.89484">
        <ele>1027.426</ele>
        <time>2019-04-07T22:37:17Z</time>
      </trkpt>
      <trkpt lat="42.25323" lon="1.89485">
        <ele>1027.508</ele>
        <time>2019-04-07T22:37:17Z</time>
      </trkpt>
      <trkpt lat="42.25323" lon="1.89489">
        <ele>1028.981</ele>
        <time>2019-04-07T22:37:18Z</time>
      </trkpt>
      <trkpt lat="42.25323" lon="1.89492">
        <ele>1029.693</ele>
        <time>2019-04-07T22:37:19Z</time>
      </trkpt>
      <trkpt lat="42.25324" lon="1.89493">
        <ele>1029.598</ele>
        <time>2019-04-07T22:37:20Z</time>
      </trkpt>
      <trkpt lat="42.25324" lon="1.89495">
        <ele>1030.099</ele>
        <time>2019-04-07T22:37:20Z</time>
      </trkpt>
      <trkpt lat="42.25325" lon="1.89497">
        <ele>1030.589</ele>
        <time>2019-04-07T22:37:21Z</time>
      </trkpt>
      <trkpt lat="42.25326" lon="1.89501">
        <ele>1031.163</ele>
        <time>2019-04-07T22:37:22Z</time>
      </trkpt>
      <trkpt lat="42.25326" lon="1.89504">
        <ele>1031.862</ele>
        <time>2019-04-07T22:37:23Z</time>
      </trkpt>
      <trkpt lat="42.25326" lon="1.89506">
        <ele>1032.084</ele>
        <time>2019-04-07T22:37:24Z</time>
      </trkpt>
      <trkpt lat="42.25326" lon="1.8951">
        <ele>1032.112</ele>
        <time>2019-04-07T22:37:25Z</time>
      </trkpt>
      <trkpt lat="42.25326" lon="1.89513">
        <ele>1033.132</ele>
        <time>2019-04-07T22:37:26Z</time>
      </trkpt>
      <trkpt lat="42.25327" lon="1.89515">
        <ele>1033.105</ele>
        <time>2019-04-07T22:37:27Z</time>
      </trkpt>
      <trkpt lat="42.25328" lon="1.89516">
        <ele>1033.508</ele>
        <time>2019-04-07T22:37:27Z</time>
      </trkpt>
      <trkpt lat="42.25329" lon="1.89519">
        <ele>1034.164</ele>
        <time>2019-04-07T22:37:28Z</time>
      </trkpt>
      <trkpt lat="42.2533" lon="1.8952">
        <ele>1034.586</ele>
        <time>2019-04-07T22:37:29Z</time>
      </trkpt>
      <trkpt lat="42.25331" lon="1.89523">
        <ele>1035.251</ele>
        <time>2019-04-07T22:37:30Z</time>
      </trkpt>
      <trkpt lat="42.25332" lon="1.89525">
        <ele>1035.612</ele>
        <time>2019-04-07T22:37:30Z</time>
      </trkpt>
      <trkpt lat="42.25333" lon="1.89529">
        <ele>1035.952</ele>
        <time>2019-04-07T22:37:31Z</time>
      </trkpt>
      <trkpt lat="42.25335" lon="1.89534">
        <ele>1036.566</ele>
        <time>2019-04-07T22:37:33Z</time>
      </trkpt>
      <trkpt lat="42.25335" lon="1.89536">
        <ele>1037.095</ele>
        <time>2019-04-07T22:37:34Z</time>
      </trkpt>
      <trkpt lat="42.25336" lon="1.89539">
        <ele>1037.827</ele>
        <time>2019-04-07T22:37:35Z</time>
      </trkpt>
      <trkpt lat="42.25337" lon="1.89542">
        <ele>1038.499</ele>
        <time>2019-04-07T22:37:36Z</time>
      </trkpt>
      <trkpt lat="42.25337" lon="1.89543">
        <ele>1039.007</ele>
        <time>2019-04-07T22:37:36Z</time>
      </trkpt>
      <trkpt lat="42.25337" lon="1.89546">
        <ele>1039.827</ele>
        <time>2019-04-07T22:37:37Z</time>
      </trkpt>
      <trkpt lat="42.25337" lon="1.89547">
        <ele>1040.008</ele>
        <time>2019-04-07T22:37:37Z</time>
      </trkpt>
      <trkpt lat="42.25336" lon="1.89548">
        <ele>1040.722</ele>
        <time>2019-04-07T22:37:38Z</time>
      </trkpt>
      <trkpt lat="42.25336" lon="1.89549">
        <ele>1040.994</ele>
        <time>2019-04-07T22:37:38Z</time>
      </trkpt>
      <trkpt lat="42.25336" lon="1.89549">
        <ele>1041.149</ele>
        <time>2019-04-07T22:37:38Z</time>
      </trkpt>
      <trkpt lat="42.25338" lon="1.89553">
        <ele>1042.26</ele>
        <time>2019-04-07T22:37:39Z</time>
      </trkpt>
      <trkpt lat="42.25338" lon="1.89554">
        <ele>1042.61</ele>
        <time>2019-04-07T22:37:40Z</time>
      </trkpt>
      <trkpt lat="42.2534" lon="1.89556">
        <ele>1043.124</ele>
        <time>2019-04-07T22:37:41Z</time>
      </trkpt>
      <trkpt lat="42.2534" lon="1.89558">
        <ele>1043.443</ele>
        <time>2019-04-07T22:37:41Z</time>
      </trkpt>
      <trkpt lat="42.25339" lon="1.89558">
        <ele>1043.655</ele>
        <time>2019-04-07T22:37:42Z</time>
      </trkpt>
      <trkpt lat="42.25338" lon="1.89563">
        <ele>1044.595</ele>
        <time>2019-04-07T22:37:43Z</time>
      </trkpt>
      <trkpt lat="42.25337" lon="1.89565">
        <ele>1044.849</ele>
        <time>2019-04-07T22:37:44Z</time>
      </trkpt>
      <trkpt lat="42.25337" lon="1.89566">
        <ele>1045.423</ele>
        <time>2019-04-07T22:37:44Z</time>
      </trkpt>
      <trkpt lat="42.25336" lon="1.89566">
        <ele>1045.508</ele>
        <time>2019-04-07T22:37:44Z</time>
      </trkpt>
      <trkpt lat="42.25335" lon="1.89567">
        <ele>1046.562</ele>
        <time>2019-04-07T22:37:45Z</time>
      </trkpt>
      <trkpt lat="42.25333" lon="1.89567">
        <ele>1047.024</ele>
        <time>2019-04-07T22:37:46Z</time>
      </trkpt>
      <trkpt lat="42.25333" lon="1.89566">
        <ele>1047.629</ele>
        <time>2019-04-07T22:37:46Z</time>
      </trkpt>
      <trkpt lat="42.25333" lon="1.89565">
        <ele>1047.64</ele>
        <time>2019-04-07T22:37:47Z</time>
      </trkpt>
      <trkpt lat="42.25334" lon="1.89564">
        <ele>1047.83</ele>
        <time>2019-04-07T22:37:47Z</time>
      </trkpt>
      <trkpt lat="42.25336" lon="1.89564">
        <ele>1048.184</ele>
        <time>2019-04-07T22:37:48Z</time>
      </trkpt>
      <trkpt lat="42.25339" lon="1.89564">
        <ele>1048.353</ele>
        <time>2019-04-07T22:37:49Z</time>
      </trkpt>
      <trkpt lat="42.2534" lon="1.89566">
        <ele>1048.545</ele>
        <time>2019-04-07T22:37:50Z</time>
      </trkpt>
      <trkpt lat="42.25343" lon="1.89572">
        <ele>1048.829</ele>
        <time>2019-04-07T22:37:52Z</time>
      </trkpt>
      <trkpt lat="42.25343" lon="1.89576">
        <ele>1049.9</ele>
        <time>2019-04-07T22:37:53Z</time>
      </trkpt>
      <trkpt lat="42.25341" lon="1.89577">
        <ele>1050.52</ele>
        <time>2019-04-07T22:37:54Z</time>
      </trkpt>
      <trkpt lat="42.2534" lon="1.89577">
        <ele>1050.808</ele>
        <time>2019-04-07T22:37:54Z</time>
      </trkpt>
      <trkpt lat="42.25339" lon="1.89583">
        <ele>1051.915</ele>
        <time>2019-04-07T22:37:56Z</time>
      </trkpt>
      <trkpt lat="42.25338" lon="1.89584">
        <ele>1052.187</ele>
        <time>2019-04-07T22:37:56Z</time>
      </trkpt>
      <trkpt lat="42.25338" lon="1.89586">
        <ele>1052.612</ele>
        <time>2019-04-07T22:37:57Z</time>
      </trkpt>
      <trkpt lat="42.25339" lon="1.89591">
        <ele>1052.843</ele>
        <time>2019-04-07T22:37:58Z</time>
      </trkpt>
      <trkpt lat="42.2534" lon="1.89596">
        <ele>1053.313</ele>
        <time>2019-04-07T22:38:00Z</time>
      </trkpt>
      <trkpt lat="42.25341" lon="1.89602">
        <ele>1053.537</ele>
        <time>2019-04-07T22:38:02Z</time>
      </trkpt>
      <trkpt lat="42.2534" lon="1.89609">
        <ele>1054.316</ele>
        <time>2019-04-07T22:38:04Z</time>
      </trkpt>
      <trkpt lat="42.2534" lon="1.89612">
        <ele>1054.158</ele>
        <time>2019-04-07T22:38:05Z</time>
      </trkpt>
      <trkpt lat="42.2534" lon="1.89616">
        <ele>1055.049</ele>
        <time>2019-04-07T22:38:06Z</time>
      </trkpt>
      <trkpt lat="42.2534" lon="1.89618">
        <ele>1055.602</ele>
        <time>2019-04-07T22:38:06Z</time>
      </trkpt>
      <trkpt lat="42.2534" lon="1.8962">
        <ele>1055.522</ele>
        <time>2019-04-07T22:38:07Z</time>
      </trkpt>
      <trkpt lat="42.2534" lon="1.89621">
        <ele>1056.008</ele>
        <time>2019-04-07T22:38:07Z</time>
      </trkpt>
      <trkpt lat="42.2534" lon="1.89622">
        <ele>1056.517</ele>
        <time>2019-04-07T22:38:08Z</time>
      </trkpt>
      <trkpt lat="42.2534" lon="1.89624">
        <ele>1056.949</ele>
        <time>2019-04-07T22:38:08Z</time>
      </trkpt>
      <trkpt lat="42.25339" lon="1.89625">
        <ele>1057.134</ele>
        <time>2019-04-07T22:38:09Z</time>
      </trkpt>
      <trkpt lat="42.25337" lon="1.89626">
        <ele>1057.755</ele>
        <time>2019-04-07T22:38:10Z</time>
      </trkpt>
      <trkpt lat="42.25335" lon="1.89623">
        <ele>1057.925</ele>
        <time>2019-04-07T22:38:11Z</time>
      </trkpt>
      <trkpt lat="42.25336" lon="1.8962">
        <ele>1058.589</ele>
        <time>2019-04-07T22:38:12Z</time>
      </trkpt>
      <trkpt lat="42.25337" lon="1.89619">
        <ele>1058.778</ele>
        <time>2019-04-07T22:38:12Z</time>
      </trkpt>
      <trkpt lat="42.25338" lon="1.89618">
        <ele>1058.92</ele>
        <time>2019-04-07T22:38:13Z</time>
      </trkpt>
      <trkpt lat="42.2534" lon="1.89617">
        <ele>1059.275</ele>
        <time>2019-04-07T22:38:13Z</time>
      </trkpt>
      <trkpt lat="42.25341" lon="1.89615">
        <ele>1059.228</ele>
        <time>2019-04-07T22:38:14Z</time>
      </trkpt>
      <trkpt lat="42.25343" lon="1.89614">
        <ele>1059.82</ele>
        <time>2019-04-07T22:38:15Z</time>
      </trkpt>
      <trkpt lat="42.25347" lon="1.89617">
        <ele>1061.008</ele>
        <time>2019-04-07T22:38:17Z</time>
      </trkpt>
      <trkpt lat="42.25348" lon="1.89614">
        <ele>1061.52</ele>
        <time>2019-04-07T22:38:18Z</time>
      </trkpt>
      <trkpt lat="42.25348" lon="1.8961">
        <ele>1061.622</ele>
        <time>2019-04-07T22:38:19Z</time>
      </trkpt>
      <trkpt lat="42.25349" lon="1.89609">
        <ele>1062.227</ele>
        <time>2019-04-07T22:38:19Z</time>
      </trkpt>
      <trkpt lat="42.2535" lon="1.89608">
        <ele>1062.648</ele>
        <time>2019-04-07T22:38:20Z</time>
      </trkpt>
      <trkpt lat="42.25351" lon="1.89607">
        <ele>1062.928</ele>
        <time>2019-04-07T22:38:21Z</time>
      </trkpt>
      <trkpt lat="42.25353" lon="1.89606">
        <ele>1063.552</ele>
        <time>2019-04-07T22:38:21Z</time>
      </trkpt>
      <trkpt lat="42.25359" lon="1.89606">
        <ele>1064.271</ele>
        <time>2019-04-07T22:38:24Z</time>
      </trkpt>
      <trkpt lat="42.2536" lon="1.89607">
        <ele>1064.573</ele>
        <time>2019-04-07T22:38:24Z</time>
      </trkpt>
      <trkpt lat="42.25362" lon="1.89609">
        <ele>1064.517</ele>
        <time>2019-04-07T22:38:25Z</time>
      </trkpt>
      <trkpt lat="42.25364" lon="1.89613">
        <ele>1065.587</ele>
        <time>2019-04-07T22:38:27Z</time>
      </trkpt>
      <trkpt lat="42.25364" lon="1.89616">
        <ele>1065.515</ele>
        <time>2019-04-07T22:38:28Z</time>
      </trkpt>
      <trkpt lat="42.25363" lon="1.8962">
        <ele>1066.108</ele>
        <time>2019-04-07T22:38:29Z</time>
      </trkpt>
      <trkpt lat="42.25362" lon="1.8962">
        <ele>1066.994</ele>
        <time>2019-04-07T22:38:29Z</time>
      </trkpt>
      <trkpt lat="42.25363" lon="1.89622">
        <ele>1067.866</ele>
        <time>2019-04-07T22:38:30Z</time>
      </trkpt>
      <trkpt lat="42.25364" lon="1.89623">
        <ele>1068.011</ele>
        <time>2019-04-07T22:38:30Z</time>
      </trkpt>
      <trkpt lat="42.25366" lon="1.89626">
        <ele>1069.212</ele>
        <time>2019-04-07T22:38:31Z</time>
      </trkpt>
      <trkpt lat="42.25367" lon="1.89627">
        <ele>1069.372</ele>
        <time>2019-04-07T22:38:32Z</time>
      </trkpt>
      <trkpt lat="42.25367" lon="1.89628">
        <ele>1069.636</ele>
        <time>2019-04-07T22:38:32Z</time>
      </trkpt>
      <trkpt lat="42.25368" lon="1.8963">
        <ele>1070.055</ele>
        <time>2019-04-07T22:38:33Z</time>
      </trkpt>
      <trkpt lat="42.25368" lon="1.89634">
        <ele>1070.357</ele>
        <time>2019-04-07T22:38:34Z</time>
      </trkpt>
      <trkpt lat="42.25368" lon="1.89635">
        <ele>1070.222</ele>
        <time>2019-04-07T22:38:34Z</time>
      </trkpt>
      <trkpt lat="42.25368" lon="1.89636">
        <ele>1070.462</ele>
        <time>2019-04-07T22:38:34Z</time>
      </trkpt>
      <trkpt lat="42.25368" lon="1.89637">
        <ele>1070.508</ele>
        <time>2019-04-07T22:38:35Z</time>
      </trkpt>
      <trkpt lat="42.25368" lon="1.89642">
        <ele>1071.408</ele>
        <time>2019-04-07T22:38:36Z</time>
      </trkpt>
      <trkpt lat="42.25368" lon="1.89643">
        <ele>1071.415</ele>
        <time>2019-04-07T22:38:37Z</time>
      </trkpt>
      <trkpt lat="42.25366" lon="1.89648">
        <ele>1072.087</ele>
        <time>2019-04-07T22:38:38Z</time>
      </trkpt>
      <trkpt lat="42.25366" lon="1.89651">
        <ele>1072.522</ele>
        <time>2019-04-07T22:38:39Z</time>
      </trkpt>
      <trkpt lat="42.25364" lon="1.89661">
        <ele>1073.433</ele>
        <time>2019-04-07T22:38:42Z</time>
      </trkpt>
      <trkpt lat="42.25364" lon="1.89662">
        <ele>1073.643</ele>
        <time>2019-04-07T22:38:43Z</time>
      </trkpt>
      <trkpt lat="42.25361" lon="1.89666">
        <ele>1074.157</ele>
        <time>2019-04-07T22:38:44Z</time>
      </trkpt>
      <trkpt lat="42.25361" lon="1.89668">
        <ele>1074.136</ele>
        <time>2019-04-07T22:38:44Z</time>
      </trkpt>
      <trkpt lat="42.25359" lon="1.89671">
        <ele>1074.998</ele>
        <time>2019-04-07T22:38:46Z</time>
      </trkpt>
      <trkpt lat="42.25358" lon="1.89672">
        <ele>1075.688</ele>
        <time>2019-04-07T22:38:46Z</time>
      </trkpt>
      <trkpt lat="42.25357" lon="1.89674">
        <ele>1075.624</ele>
        <time>2019-04-07T22:38:47Z</time>
      </trkpt>
      <trkpt lat="42.25356" lon="1.89675">
        <ele>1075.826</ele>
        <time>2019-04-07T22:38:47Z</time>
      </trkpt>
      <trkpt lat="42.25353" lon="1.89677">
        <ele>1076.508</ele>
        <time>2019-04-07T22:38:49Z</time>
      </trkpt>
      <trkpt lat="42.25349" lon="1.89681">
        <ele>1077.121</ele>
        <time>2019-04-07T22:38:51Z</time>
      </trkpt>
      <trkpt lat="42.25347" lon="1.89685">
        <ele>1077.543</ele>
        <time>2019-04-07T22:38:52Z</time>
      </trkpt>
      <trkpt lat="42.25347" lon="1.89687">
        <ele>1077.758</ele>
        <time>2019-04-07T22:38:53Z</time>
      </trkpt>
      <trkpt lat="42.25344" lon="1.8969">
        <ele>1078.249</ele>
        <time>2019-04-07T22:38:54Z</time>
      </trkpt>
      <trkpt lat="42.25344" lon="1.89691">
        <ele>1078.119</ele>
        <time>2019-04-07T22:38:55Z</time>
      </trkpt>
      <trkpt lat="42.25344" lon="1.89693">
        <ele>1078.333</ele>
        <time>2019-04-07T22:38:55Z</time>
      </trkpt>
      <trkpt lat="42.25342" lon="1.897">
        <ele>1079.112</ele>
        <time>2019-04-07T22:38:57Z</time>
      </trkpt>
      <trkpt lat="42.25341" lon="1.89701">
        <ele>1079.284</ele>
        <time>2019-04-07T22:38:58Z</time>
      </trkpt>
      <trkpt lat="42.25341" lon="1.89703">
        <ele>1079.241</ele>
        <time>2019-04-07T22:38:58Z</time>
      </trkpt>
      <trkpt lat="42.2534" lon="1.89704">
        <ele>1079.581</ele>
        <time>2019-04-07T22:38:59Z</time>
      </trkpt>
      <trkpt lat="42.25339" lon="1.89706">
        <ele>1080.009</ele>
        <time>2019-04-07T22:38:59Z</time>
      </trkpt>
      <trkpt lat="42.25339" lon="1.89708">
        <ele>1080.108</ele>
        <time>2019-04-07T22:39:00Z</time>
      </trkpt>
      <trkpt lat="42.25337" lon="1.89713">
        <ele>1081.047</ele>
        <time>2019-04-07T22:39:02Z</time>
      </trkpt>
      <trkpt lat="42.25337" lon="1.89715">
        <ele>1081.119</ele>
        <time>2019-04-07T22:39:02Z</time>
      </trkpt>
      <trkpt lat="42.25335" lon="1.89717">
        <ele>1081.374</ele>
        <time>2019-04-07T22:39:03Z</time>
      </trkpt>
      <trkpt lat="42.25334" lon="1.89722">
        <ele>1081.995</ele>
        <time>2019-04-07T22:39:05Z</time>
      </trkpt>
      <trkpt lat="42.25333" lon="1.89724">
        <ele>1082.255</ele>
        <time>2019-04-07T22:39:05Z</time>
      </trkpt>
      <trkpt lat="42.25332" lon="1.89726">
        <ele>1082.529</ele>
        <time>2019-04-07T22:39:06Z</time>
      </trkpt>
      <trkpt lat="42.25331" lon="1.89727">
        <ele>1082.888</ele>
        <time>2019-04-07T22:39:07Z</time>
      </trkpt>
      <trkpt lat="42.2533" lon="1.89722">
        <ele>1083.53</ele>
        <time>2019-04-07T22:39:08Z</time>
      </trkpt>
      <trkpt lat="42.25331" lon="1.89722">
        <ele>1084.061</ele>
        <time>2019-04-07T22:39:08Z</time>
      </trkpt>
      <trkpt lat="42.25333" lon="1.8972">
        <ele>1084.821</ele>
        <time>2019-04-07T22:39:09Z</time>
      </trkpt>
      <trkpt lat="42.25335" lon="1.89717">
        <ele>1085.113</ele>
        <time>2019-04-07T22:39:10Z</time>
      </trkpt>
      <trkpt lat="42.25339" lon="1.89712">
        <ele>1086.008</ele>
        <time>2019-04-07T22:39:13Z</time>
      </trkpt>
      <trkpt lat="42.25342" lon="1.89707">
        <ele>1086.929</ele>
        <time>2019-04-07T22:39:15Z</time>
      </trkpt>
      <trkpt lat="42.25342" lon="1.89709">
        <ele>1087.031</ele>
        <time>2019-04-07T22:39:15Z</time>
      </trkpt>
      <trkpt lat="42.2534" lon="1.89711">
        <ele>1086.966</ele>
        <time>2019-04-07T22:39:16Z</time>
      </trkpt>
      <trkpt lat="42.25339" lon="1.89711">
        <ele>1086.897</ele>
        <time>2019-04-07T22:39:16Z</time>
      </trkpt>
      <trkpt lat="42.25339" lon="1.89709">
        <ele>1087.217</ele>
        <time>2019-04-07T22:39:17Z</time>
      </trkpt>
      <trkpt lat="42.25338" lon="1.89708">
        <ele>1087.221</ele>
        <time>2019-04-07T22:39:17Z</time>
      </trkpt>
      <trkpt lat="42.25339" lon="1.89705">
        <ele>1087.19</ele>
        <time>2019-04-07T22:39:18Z</time>
      </trkpt>
      <trkpt lat="42.25341" lon="1.89704">
        <ele>1087.352</ele>
        <time>2019-04-07T22:39:19Z</time>
      </trkpt>
      <trkpt lat="42.25347" lon="1.89711">
        <ele>1088.055</ele>
        <time>2019-04-07T22:39:22Z</time>
      </trkpt>
      <trkpt lat="42.25348" lon="1.89715">
        <ele>1088.607</ele>
        <time>2019-04-07T22:39:24Z</time>
      </trkpt>
      <trkpt lat="42.25348" lon="1.89716">
        <ele>1088.517</ele>
        <time>2019-04-07T22:39:24Z</time>
      </trkpt>
      <trkpt lat="42.25348" lon="1.89718">
        <ele>1088.808</ele>
        <time>2019-04-07T22:39:24Z</time>
      </trkpt>
      <trkpt lat="42.25348" lon="1.89719">
        <ele>1089.118</ele>
        <time>2019-04-07T22:39:25Z</time>
      </trkpt>
      <trkpt lat="42.25348" lon="1.89722">
        <ele>1089.32</ele>
        <time>2019-04-07T22:39:26Z</time>
      </trkpt>
      <trkpt lat="42.25349" lon="1.89725">
        <ele>1089.955</ele>
        <time>2019-04-07T22:39:27Z</time>
      </trkpt>
      <trkpt lat="42.25349" lon="1.89727">
        <ele>1090.396</ele>
        <time>2019-04-07T22:39:27Z</time>
      </trkpt>
      <trkpt lat="42.25348" lon="1.89733">
        <ele>1091.256</ele>
        <time>2019-04-07T22:39:29Z</time>
      </trkpt>
      <trkpt lat="42.25347" lon="1.89734">
        <ele>1091.56</ele>
        <time>2019-04-07T22:39:29Z</time>
      </trkpt>
      <trkpt lat="42.25347" lon="1.89737">
        <ele>1092.049</ele>
        <time>2019-04-07T22:39:30Z</time>
      </trkpt>
      <trkpt lat="42.25348" lon="1.89738">
        <ele>1091.971</ele>
        <time>2019-04-07T22:39:31Z</time>
      </trkpt>
      <trkpt lat="42.25349" lon="1.8974">
        <ele>1092.371</ele>
        <time>2019-04-07T22:39:31Z</time>
      </trkpt>
      <trkpt lat="42.25349" lon="1.8974">
        <ele>1092.641</ele>
        <time>2019-04-07T22:39:31Z</time>
      </trkpt>
      <trkpt lat="42.25348" lon="1.89743">
        <ele>1093.015</ele>
        <time>2019-04-07T22:39:32Z</time>
      </trkpt>
      <trkpt lat="42.25348" lon="1.89743">
        <ele>1093.508</ele>
        <time>2019-04-07T22:39:32Z</time>
      </trkpt>
      <trkpt lat="42.25348" lon="1.89747">
        <ele>1094.73</ele>
        <time>2019-04-07T22:39:34Z</time>
      </trkpt>
      <trkpt lat="42.25348" lon="1.89749">
        <ele>1094.962</ele>
        <time>2019-04-07T22:39:34Z</time>
      </trkpt>
      <trkpt lat="42.2535" lon="1.89757">
        <ele>1095.547</ele>
        <time>2019-04-07T22:39:37Z</time>
      </trkpt>
      <trkpt lat="42.2535" lon="1.89762">
        <ele>1095.998</ele>
        <time>2019-04-07T22:39:38Z</time>
      </trkpt>
      <trkpt lat="42.2535" lon="1.89763">
        <ele>1096.788</ele>
        <time>2019-04-07T22:39:39Z</time>
      </trkpt>
      <trkpt lat="42.2535" lon="1.89763">
        <ele>1097.242</ele>
        <time>2019-04-07T22:39:39Z</time>
      </trkpt>
      <trkpt lat="42.2535" lon="1.89764">
        <ele>1097.231</ele>
        <time>2019-04-07T22:39:39Z</time>
      </trkpt>
      <trkpt lat="42.2535" lon="1.89763">
        <ele>1097.523</ele>
        <time>2019-04-07T22:39:39Z</time>
      </trkpt>
      <trkpt lat="42.25349" lon="1.89761">
        <ele>1098.123</ele>
        <time>2019-04-07T22:39:40Z</time>
      </trkpt>
      <trkpt lat="42.25349" lon="1.89758">
        <ele>1098.783</ele>
        <time>2019-04-07T22:39:41Z</time>
      </trkpt>
      <trkpt lat="42.25348" lon="1.89755">
        <ele>1099.011</ele>
        <time>2019-04-07T22:39:42Z</time>
      </trkpt>
      <trkpt lat="42.25348" lon="1.89754">
        <ele>1099.108</ele>
        <time>2019-04-07T22:39:42Z</time>
      </trkpt>
      <trkpt lat="42.2535" lon="1.89751">
        <ele>1099.615</ele>
        <time>2019-04-07T22:39:43Z</time>
      </trkpt>
      <trkpt lat="42.2535" lon="1.89751">
        <ele>1099.957</ele>
        <time>2019-04-07T22:39:43Z</time>
      </trkpt>
      <trkpt lat="42.25352" lon="1.89751">
        <ele>1100.292</ele>
        <time>2019-04-07T22:39:44Z</time>
      </trkpt>
      <trkpt lat="42.25354" lon="1.89747">
        <ele>1101.113</ele>
        <time>2019-04-07T22:39:45Z</time>
      </trkpt>
      <trkpt lat="42.25355" lon="1.89746">
        <ele>1101.653</ele>
        <time>2019-04-07T22:39:46Z</time>
      </trkpt>
      <trkpt lat="42.25356" lon="1.89746">
        <ele>1102.097</ele>
        <time>2019-04-07T22:39:46Z</time>
      </trkpt>
      <trkpt lat="42.25359" lon="1.89746">
        <ele>1102.796</ele>
        <time>2019-04-07T22:39:47Z</time>
      </trkpt>
      <trkpt lat="42.25365" lon="1.89754">
        <ele>1103.218</ele>
        <time>2019-04-07T22:39:51Z</time>
      </trkpt>
      <trkpt lat="42.25366" lon="1.89759">
        <ele>1103.581</ele>
        <time>2019-04-07T22:39:52Z</time>
      </trkpt>
      <trkpt lat="42.25365" lon="1.89766">
        <ele>1105.061</ele>
        <time>2019-04-07T22:39:55Z</time>
      </trkpt>
      <trkpt lat="42.25364" lon="1.89773">
        <ele>1105.517</ele>
        <time>2019-04-07T22:39:57Z</time>
      </trkpt>
      <trkpt lat="42.25363" lon="1.89776">
        <ele>1105.808</ele>
        <time>2019-04-07T22:39:57Z</time>
      </trkpt>
      <trkpt lat="42.25363" lon="1.89778">
        <ele>1106.111</ele>
        <time>2019-04-07T22:39:58Z</time>
      </trkpt>
      <trkpt lat="42.25363" lon="1.89778">
        <ele>1106.333</ele>
        <time>2019-04-07T22:39:58Z</time>
      </trkpt>
      <trkpt lat="42.25364" lon="1.89779">
        <ele>1107.048</ele>
        <time>2019-04-07T22:39:59Z</time>
      </trkpt>
      <trkpt lat="42.25365" lon="1.89781">
        <ele>1107.299</ele>
        <time>2019-04-07T22:39:59Z</time>
      </trkpt>
      <trkpt lat="42.25367" lon="1.89783">
        <ele>1108.019</ele>
        <time>2019-04-07T22:40:00Z</time>
      </trkpt>
      <trkpt lat="42.25368" lon="1.89783">
        <ele>1108.093</ele>
        <time>2019-04-07T22:40:01Z</time>
      </trkpt>
      <trkpt lat="42.25366" lon="1.89781">
        <ele>1109.232</ele>
        <time>2019-04-07T22:40:02Z</time>
      </trkpt>
      <trkpt lat="42.25367" lon="1.8978">
        <ele>1109.184</ele>
        <time>2019-04-07T22:40:02Z</time>
      </trkpt>
      <trkpt lat="42.2537" lon="1.89773">
        <ele>1110.233</ele>
        <time>2019-04-07T22:40:04Z</time>
      </trkpt>
      <trkpt lat="42.25373" lon="1.89776">
        <ele>1111.223</ele>
        <time>2019-04-07T22:40:06Z</time>
      </trkpt>
      <trkpt lat="42.25374" lon="1.89777">
        <ele>1111.515</ele>
        <time>2019-04-07T22:40:06Z</time>
      </trkpt>
      <trkpt lat="42.25376" lon="1.89782">
        <ele>1112.108</ele>
        <time>2019-04-07T22:40:08Z</time>
      </trkpt>
      <trkpt lat="42.25377" lon="1.89787">
        <ele>1113.226</ele>
        <time>2019-04-07T22:40:10Z</time>
      </trkpt>
      <trkpt lat="42.25377" lon="1.89788">
        <ele>1113.588</ele>
        <time>2019-04-07T22:40:10Z</time>
      </trkpt>
      <trkpt lat="42.25377" lon="1.89785">
        <ele>1114.583</ele>
        <time>2019-04-07T22:40:11Z</time>
      </trkpt>
      <trkpt lat="42.25378" lon="1.89779">
        <ele>1115.724</ele>
        <time>2019-04-07T22:40:13Z</time>
      </trkpt>
      <trkpt lat="42.25379" lon="1.89778">
        <ele>1115.984</ele>
        <time>2019-04-07T22:40:13Z</time>
      </trkpt>
      <trkpt lat="42.25384" lon="1.8978">
        <ele>1116.438</ele>
        <time>2019-04-07T22:40:15Z</time>
      </trkpt>
      <trkpt lat="42.25385" lon="1.8978">
        <ele>1116.687</ele>
        <time>2019-04-07T22:40:16Z</time>
      </trkpt>
      <trkpt lat="42.25386" lon="1.89779">
        <ele>1117.569</ele>
        <time>2019-04-07T22:40:16Z</time>
      </trkpt>
      <trkpt lat="42.25387" lon="1.89779">
        <ele>1118.068</ele>
        <time>2019-04-07T22:40:17Z</time>
      </trkpt>
      <trkpt lat="42.2539" lon="1.8978">
        <ele>1118.942</ele>
        <time>2019-04-07T22:40:18Z</time>
      </trkpt>
      <trkpt lat="42.25393" lon="1.89782">
        <ele>1119.426</ele>
        <time>2019-04-07T22:40:19Z</time>
      </trkpt>
      <trkpt lat="42.25394" lon="1.89782">
        <ele>1119.808</ele>
        <time>2019-04-07T22:40:20Z</time>
      </trkpt>
      <trkpt lat="42.25396" lon="1.89788">
        <ele>1121.129</ele>
        <time>2019-04-07T22:40:21Z</time>
      </trkpt>
      <trkpt lat="42.25398" lon="1.8979">
        <ele>1122.011</ele>
        <time>2019-04-07T22:40:23Z</time>
      </trkpt>
      <trkpt lat="42.25399" lon="1.89791">
        <ele>1122.556</ele>
        <time>2019-04-07T22:40:23Z</time>
      </trkpt>
      <trkpt lat="42.254" lon="1.89793">
        <ele>1123.217</ele>
        <time>2019-04-07T22:40:24Z</time>
      </trkpt>
      <trkpt lat="42.25402" lon="1.89797">
        <ele>1123.747</ele>
        <time>2019-04-07T22:40:25Z</time>
      </trkpt>
      <trkpt lat="42.25403" lon="1.89798">
        <ele>1123.721</ele>
        <time>2019-04-07T22:40:26Z</time>
      </trkpt>
      <trkpt lat="42.25405" lon="1.89801">
        <ele>1124.25</ele>
        <time>2019-04-07T22:40:27Z</time>
      </trkpt>
      <trkpt lat="42.25405" lon="1.89801">
        <ele>1124.282</ele>
        <time>2019-04-07T22:40:27Z</time>
      </trkpt>
      <trkpt lat="42.25405" lon="1.89802">
        <ele>1124.529</ele>
        <time>2019-04-07T22:40:27Z</time>
      </trkpt>
      <trkpt lat="42.25406" lon="1.89803">
        <ele>1124.6</ele>
        <time>2019-04-07T22:40:28Z</time>
      </trkpt>
      <trkpt lat="42.25408" lon="1.89805">
        <ele>1125.12</ele>
        <time>2019-04-07T22:40:29Z</time>
      </trkpt>
      <trkpt lat="42.25409" lon="1.89805">
        <ele>1125.508</ele>
        <time>2019-04-07T22:40:29Z</time>
      </trkpt>
      <trkpt lat="42.2541" lon="1.89807">
        <ele>1126.275</ele>
        <time>2019-04-07T22:40:30Z</time>
      </trkpt>
      <trkpt lat="42.2541" lon="1.8981">
        <ele>1126.667</ele>
        <time>2019-04-07T22:40:30Z</time>
      </trkpt>
      <trkpt lat="42.2541" lon="1.89811">
        <ele>1126.742</ele>
        <time>2019-04-07T22:40:31Z</time>
      </trkpt>
      <trkpt lat="42.25411" lon="1.89813">
        <ele>1127.113</ele>
        <time>2019-04-07T22:40:31Z</time>
      </trkpt>
      <trkpt lat="42.25411" lon="1.89816">
        <ele>1127.523</ele>
        <time>2019-04-07T22:40:32Z</time>
      </trkpt>
      <trkpt lat="42.25411" lon="1.89818">
        <ele>1127.457</ele>
        <time>2019-04-07T22:40:33Z</time>
      </trkpt>
      <trkpt lat="42.25411" lon="1.89821">
        <ele>1127.786</ele>
        <time>2019-04-07T22:40:34Z</time>
      </trkpt>
      <trkpt lat="42.25412" lon="1.89825">
        <ele>1128.138</ele>
        <time>2019-04-07T22:40:35Z</time>
      </trkpt>
      <trkpt lat="42.25412" lon="1.89829">
        <ele>1128.525</ele>
        <time>2019-04-07T22:40:36Z</time>
      </trkpt>
      <trkpt lat="42.25413" lon="1.8983">
        <ele>1128.626</ele>
        <time>2019-04-07T22:40:36Z</time>
      </trkpt>
      <trkpt lat="42.25414" lon="1.89832">
        <ele>1129.008</ele>
        <time>2019-04-07T22:40:37Z</time>
      </trkpt>
      <trkpt lat="42.25414" lon="1.89833">
        <ele>1129.108</ele>
        <time>2019-04-07T22:40:37Z</time>
      </trkpt>
      <trkpt lat="42.25415" lon="1.89835">
        <ele>1129.615</ele>
        <time>2019-04-07T22:40:38Z</time>
      </trkpt>
      <trkpt lat="42.25415" lon="1.89837">
        <ele>1129.757</ele>
        <time>2019-04-07T22:40:39Z</time>
      </trkpt>
      <trkpt lat="42.25414" lon="1.8984">
        <ele>1130.392</ele>
        <time>2019-04-07T22:40:40Z</time>
      </trkpt>
      <trkpt lat="42.25413" lon="1.89842">
        <ele>1130.683</ele>
        <time>2019-04-07T22:40:41Z</time>
      </trkpt>
      <trkpt lat="42.25412" lon="1.89844">
        <ele>1130.693</ele>
        <time>2019-04-07T22:40:41Z</time>
      </trkpt>
      <trkpt lat="42.25412" lon="1.89845">
        <ele>1131.227</ele>
        <time>2019-04-07T22:40:41Z</time>
      </trkpt>
      <trkpt lat="42.2541" lon="1.89848">
        <ele>1131.226</ele>
        <time>2019-04-07T22:40:43Z</time>
      </trkpt>
      <trkpt lat="42.25409" lon="1.89849">
        <ele>1131.638</ele>
        <time>2019-04-07T22:40:43Z</time>
      </trkpt>
      <trkpt lat="42.25407" lon="1.89853">
        <ele>1131.967</ele>
        <time>2019-04-07T22:40:45Z</time>
      </trkpt>
      <trkpt lat="42.25406" lon="1.89854">
        <ele>1132.081</ele>
        <time>2019-04-07T22:40:45Z</time>
      </trkpt>
      <trkpt lat="42.25405" lon="1.89865">
        <ele>1132.419</ele>
        <time>2019-04-07T22:40:48Z</time>
      </trkpt>
      <trkpt lat="42.25404" lon="1.89868">
        <ele>1132.508</ele>
        <time>2019-04-07T22:40:49Z</time>
      </trkpt>
      <trkpt lat="42.25403" lon="1.8987">
        <ele>1132.629</ele>
        <time>2019-04-07T22:40:50Z</time>
      </trkpt>
      <trkpt lat="42.25402" lon="1.89873">
        <ele>1132.981</ele>
        <time>2019-04-07T22:40:51Z</time>
      </trkpt>
      <trkpt lat="42.25402" lon="1.89874">
        <ele>1133.196</ele>
        <time>2019-04-07T22:40:51Z</time>
      </trkpt>
      <trkpt lat="42.25402" lon="1.89875">
        <ele>1133.147</ele>
        <time>2019-04-07T22:40:51Z</time>
      </trkpt>
      <trkpt lat="42.25402" lon="1.89878">
        <ele>1134.197</ele>
        <time>2019-04-07T22:40:53Z</time>
      </trkpt>
      <trkpt lat="42.25402" lon="1.8988">
        <ele>1134.011</ele>
        <time>2019-04-07T22:40:53Z</time>
      </trkpt>
      <trkpt lat="42.25403" lon="1.89884">
        <ele>1134.75</ele>
        <time>2019-04-07T22:40:54Z</time>
      </trkpt>
      <trkpt lat="42.25403" lon="1.89887">
        <ele>1134.622</ele>
        <time>2019-04-07T22:40:55Z</time>
      </trkpt>
      <trkpt lat="42.25405" lon="1.8989">
        <ele>1135.257</ele>
        <time>2019-04-07T22:40:56Z</time>
      </trkpt>
      <trkpt lat="42.25406" lon="1.89891">
        <ele>1135.1</ele>
        <time>2019-04-07T22:40:57Z</time>
      </trkpt>
      <trkpt lat="42.25406" lon="1.89892">
        <ele>1135.02</ele>
        <time>2019-04-07T22:40:57Z</time>
      </trkpt>
      <trkpt lat="42.25405" lon="1.89892">
        <ele>1135.408</ele>
        <time>2019-04-07T22:40:57Z</time>
      </trkpt>
      <trkpt lat="42.25404" lon="1.89892">
        <ele>1135.968</ele>
        <time>2019-04-07T22:40:58Z</time>
      </trkpt>
      <trkpt lat="42.25404" lon="1.8989">
        <ele>1136.21</ele>
        <time>2019-04-07T22:40:58Z</time>
      </trkpt>
      <trkpt lat="42.25403" lon="1.89889">
        <ele>1136.325</ele>
        <time>2019-04-07T22:40:59Z</time>
      </trkpt>
      <trkpt lat="42.25402" lon="1.89887">
        <ele>1137.266</ele>
        <time>2019-04-07T22:40:59Z</time>
      </trkpt>
      <trkpt lat="42.25403" lon="1.89886">
        <ele>1137.116</ele>
        <time>2019-04-07T22:41:00Z</time>
      </trkpt>
      <trkpt lat="42.25403" lon="1.89883">
        <ele>1137.53</ele>
        <time>2019-04-07T22:41:00Z</time>
      </trkpt>
      <trkpt lat="42.25403" lon="1.89881">
        <ele>1137.589</ele>
        <time>2019-04-07T22:41:01Z</time>
      </trkpt>
      <trkpt lat="42.25402" lon="1.89879">
        <ele>1137.961</ele>
        <time>2019-04-07T22:41:02Z</time>
      </trkpt>
      <trkpt lat="42.25402" lon="1.89876">
        <ele>1138.142</ele>
        <time>2019-04-07T22:41:03Z</time>
      </trkpt>
      <trkpt lat="42.25402" lon="1.89875">
        <ele>1138.522</ele>
        <time>2019-04-07T22:41:03Z</time>
      </trkpt>
      <trkpt lat="42.25402" lon="1.89875">
        <ele>1138.814</ele>
        <time>2019-04-07T22:41:03Z</time>
      </trkpt>
      <trkpt lat="42.25403" lon="1.89875">
        <ele>1139.008</ele>
        <time>2019-04-07T22:41:04Z</time>
      </trkpt>
      <trkpt lat="42.25406" lon="1.89876">
        <ele>1139.527</ele>
        <time>2019-04-07T22:41:05Z</time>
      </trkpt>
      <trkpt lat="42.25411" lon="1.89875">
        <ele>1140.259</ele>
        <time>2019-04-07T22:41:07Z</time>
      </trkpt>
      <trkpt lat="42.25412" lon="1.89876">
        <ele>1140.664</ele>
        <time>2019-04-07T22:41:07Z</time>
      </trkpt>
      <trkpt lat="42.25414" lon="1.89874">
        <ele>1141.515</ele>
        <time>2019-04-07T22:41:08Z</time>
      </trkpt>
      <trkpt lat="42.25414" lon="1.89875">
        <ele>1142.075</ele>
        <time>2019-04-07T22:41:08Z</time>
      </trkpt>
      <trkpt lat="42.25416" lon="1.89877">
        <ele>1142.669</ele>
        <time>2019-04-07T22:41:09Z</time>
      </trkpt>
      <trkpt lat="42.25417" lon="1.89878">
        <ele>1143.088</ele>
        <time>2019-04-07T22:41:10Z</time>
      </trkpt>
      <trkpt lat="42.25418" lon="1.89879">
        <ele>1143.18</ele>
        <time>2019-04-07T22:41:10Z</time>
      </trkpt>
      <trkpt lat="42.25423" lon="1.89881">
        <ele>1144.463</ele>
        <time>2019-04-07T22:41:12Z</time>
      </trkpt>
      <trkpt lat="42.25423" lon="1.8988">
        <ele>1145.644</ele>
        <time>2019-04-07T22:41:13Z</time>
      </trkpt>
      <trkpt lat="42.25424" lon="1.89879">
        <ele>1145.518</ele>
        <time>2019-04-07T22:41:13Z</time>
      </trkpt>
      <trkpt lat="42.25428" lon="1.89872">
        <ele>1146.808</ele>
        <time>2019-04-07T22:41:16Z</time>
      </trkpt>
      <trkpt lat="42.25429" lon="1.89871">
        <ele>1146.989</ele>
        <time>2019-04-07T22:41:16Z</time>
      </trkpt>
      <trkpt lat="42.25433" lon="1.89874">
        <ele>1147.531</ele>
        <time>2019-04-07T22:41:18Z</time>
      </trkpt>
      <trkpt lat="42.25434" lon="1.89879">
        <ele>1148.056</ele>
        <time>2019-04-07T22:41:19Z</time>
      </trkpt>
      <trkpt lat="42.25434" lon="1.8988">
        <ele>1148.087</ele>
        <time>2019-04-07T22:41:20Z</time>
      </trkpt>
      <trkpt lat="42.25435" lon="1.89884">
        <ele>1148.787</ele>
        <time>2019-04-07T22:41:21Z</time>
      </trkpt>
      <trkpt lat="42.25435" lon="1.89886">
        <ele>1149.021</ele>
        <time>2019-04-07T22:41:22Z</time>
      </trkpt>
      <trkpt lat="42.25435" lon="1.89887">
        <ele>1149.25</ele>
        <time>2019-04-07T22:41:22Z</time>
      </trkpt>
      <trkpt lat="42.25437" lon="1.89888">
        <ele>1149.622</ele>
        <time>2019-04-07T22:41:23Z</time>
      </trkpt>
      <trkpt lat="42.25437" lon="1.8989">
        <ele>1149.741</ele>
        <time>2019-04-07T22:41:23Z</time>
      </trkpt>
      <trkpt lat="42.25437" lon="1.89893">
        <ele>1150.081</ele>
        <time>2019-04-07T22:41:24Z</time>
      </trkpt>
      <trkpt lat="42.25439" lon="1.89895">
        <ele>1150.509</ele>
        <time>2019-04-07T22:41:25Z</time>
      </trkpt>
      <trkpt lat="42.25439" lon="1.89895">
        <ele>1150.808</ele>
        <time>2019-04-07T22:41:25Z</time>
      </trkpt>
      <trkpt lat="42.25438" lon="1.89895">
        <ele>1151.047</ele>
        <time>2019-04-07T22:41:26Z</time>
      </trkpt>
      <trkpt lat="42.25436" lon="1.89894">
        <ele>1151.259</ele>
        <time>2019-04-07T22:41:27Z</time>
      </trkpt>
      <trkpt lat="42.25435" lon="1.89893">
        <ele>1151.434</ele>
        <time>2019-04-07T22:41:27Z</time>
      </trkpt>
      <trkpt lat="42.25435" lon="1.89894">
        <ele>1151.545</ele>
        <time>2019-04-07T22:41:28Z</time>
      </trkpt>
      <trkpt lat="42.25433" lon="1.89894">
        <ele>1151.565</ele>
        <time>2019-04-07T22:41:28Z</time>
      </trkpt>
      <trkpt lat="42.25434" lon="1.89888">
        <ele>1151.339</ele>
        <time>2019-04-07T22:41:30Z</time>
      </trkpt>
      <trkpt lat="42.25437" lon="1.89896">
        <ele>1151.288</ele>
        <time>2019-04-07T22:41:33Z</time>
      </trkpt>
      <trkpt lat="42.25447" lon="1.89895">
        <ele>1151.06</ele>
        <time>2019-04-07T22:41:37Z</time>
      </trkpt>
      <trkpt lat="42.2545" lon="1.89894">
        <ele>1151.053</ele>
        <time>2019-04-07T22:41:38Z</time>
      </trkpt>
      <trkpt lat="42.2545" lon="1.89897">
        <ele>1151.104</ele>
        <time>2019-04-07T22:41:39Z</time>
      </trkpt>
      <trkpt lat="42.25452" lon="1.89901">
        <ele>1151.514</ele>
        <time>2019-04-07T22:41:41Z</time>
      </trkpt>
      <trkpt lat="42.25451" lon="1.89902">
        <ele>1152.008</ele>
        <time>2019-04-07T22:41:41Z</time>
      </trkpt>
      <trkpt lat="42.25451" lon="1.89905">
        <ele>1152.148</ele>
        <time>2019-04-07T22:41:42Z</time>
      </trkpt>
      <trkpt lat="42.25451" lon="1.89902">
        <ele>1152.18</ele>
        <time>2019-04-07T22:41:42Z</time>
      </trkpt>
      <trkpt lat="42.25444" lon="1.89904">
        <ele>1152.265</ele>
        <time>2019-04-07T22:41:45Z</time>
      </trkpt>
      <trkpt lat="42.25443" lon="1.89906">
        <ele>1152.146</ele>
        <time>2019-04-07T22:41:46Z</time>
      </trkpt>
      <trkpt lat="42.25442" lon="1.89919">
        <ele>1152.556</ele>
        <time>2019-04-07T22:41:50Z</time>
      </trkpt>
      <trkpt lat="42.25442" lon="1.89919">
        <ele>1152.69</ele>
        <time>2019-04-07T22:41:50Z</time>
      </trkpt>
      <trkpt lat="42.25438" lon="1.89922">
        <ele>1152.159</ele>
        <time>2019-04-07T22:41:52Z</time>
      </trkpt>
      <trkpt lat="42.25439" lon="1.89923">
        <ele>1152.181</ele>
        <time>2019-04-07T22:41:52Z</time>
      </trkpt>
      <trkpt lat="42.25445" lon="1.89905">
        <ele>1152.134</ele>
        <time>2019-04-07T22:41:58Z</time>
      </trkpt>
      <trkpt lat="42.25446" lon="1.89903">
        <ele>1151.855</ele>
        <time>2019-04-07T22:41:59Z</time>
      </trkpt>
      <trkpt lat="42.25449" lon="1.89904">
        <ele>1151.81</ele>
        <time>2019-04-07T22:42:00Z</time>
      </trkpt>
      <trkpt lat="42.25453" lon="1.89905">
        <ele>1152.408</ele>
        <time>2019-04-07T22:42:01Z</time>
      </trkpt>
      <trkpt lat="42.25456" lon="1.89905">
        <ele>1153.386</ele>
        <time>2019-04-07T22:42:02Z</time>
      </trkpt>
      <trkpt lat="42.25457" lon="1.89905">
        <ele>1153.558</ele>
        <time>2019-04-07T22:42:03Z</time>
      </trkpt>
      <trkpt lat="42.25463" lon="1.89902">
        <ele>1154.513</ele>
        <time>2019-04-07T22:42:05Z</time>
      </trkpt>
      <trkpt lat="42.25465" lon="1.89903">
        <ele>1155.014</ele>
        <time>2019-04-07T22:42:06Z</time>
      </trkpt>
      <trkpt lat="42.25466" lon="1.89905">
        <ele>1154.994</ele>
        <time>2019-04-07T22:42:07Z</time>
      </trkpt>
      <trkpt lat="42.25466" lon="1.8991">
        <ele>1155.038</ele>
        <time>2019-04-07T22:42:08Z</time>
      </trkpt>
      <trkpt lat="42.25467" lon="1.89914">
        <ele>1154.967</ele>
        <time>2019-04-07T22:42:10Z</time>
      </trkpt>
      <trkpt lat="42.25468" lon="1.89916">
        <ele>1155.359</ele>
        <time>2019-04-07T22:42:10Z</time>
      </trkpt>
      <trkpt lat="42.25469" lon="1.89914">
        <ele>1155.672</ele>
        <time>2019-04-07T22:42:11Z</time>
      </trkpt>
      <trkpt lat="42.25472" lon="1.89913">
        <ele>1156.113</ele>
        <time>2019-04-07T22:42:12Z</time>
      </trkpt>
      <trkpt lat="42.25474" lon="1.89916">
        <ele>1156.514</ele>
        <time>2019-04-07T22:42:14Z</time>
      </trkpt>
      <trkpt lat="42.25475" lon="1.89918">
        <ele>1156.808</ele>
        <time>2019-04-07T22:42:14Z</time>
      </trkpt>
      <trkpt lat="42.25477" lon="1.89919">
        <ele>1157.92</ele>
        <time>2019-04-07T22:42:15Z</time>
      </trkpt>
      <trkpt lat="42.25477" lon="1.8992">
        <ele>1159.092</ele>
        <time>2019-04-07T22:42:16Z</time>
      </trkpt>
      <trkpt lat="42.25477" lon="1.89918">
        <ele>1159.697</ele>
        <time>2019-04-07T22:42:16Z</time>
      </trkpt>
      <trkpt lat="42.2548" lon="1.89921">
        <ele>1160.188</ele>
        <time>2019-04-07T22:42:18Z</time>
      </trkpt>
      <trkpt lat="42.25484" lon="1.89928">
        <ele>1160.538</ele>
        <time>2019-04-07T22:42:20Z</time>
      </trkpt>
      <trkpt lat="42.25486" lon="1.89931">
        <ele>1161.052</ele>
        <time>2019-04-07T22:42:21Z</time>
      </trkpt>
      <trkpt lat="42.25487" lon="1.89933">
        <ele>1161.131</ele>
        <time>2019-04-07T22:42:22Z</time>
      </trkpt>
      <trkpt lat="42.25488" lon="1.89937">
        <ele>1161.583</ele>
        <time>2019-04-07T22:42:23Z</time>
      </trkpt>
      <trkpt lat="42.25489" lon="1.89938">
        <ele>1161.864</ele>
        <time>2019-04-07T22:42:24Z</time>
      </trkpt>
      <trkpt lat="42.25489" lon="1.89943">
        <ele>1162.106</ele>
        <time>2019-04-07T22:42:25Z</time>
      </trkpt>
      <trkpt lat="42.2549" lon="1.89944">
        <ele>1162.016</ele>
        <time>2019-04-07T22:42:26Z</time>
      </trkpt>
      <trkpt lat="42.25489" lon="1.89949">
        <ele>1163.008</ele>
        <time>2019-04-07T22:42:27Z</time>
      </trkpt>
      <trkpt lat="42.25489" lon="1.8995">
        <ele>1163.259</ele>
        <time>2019-04-07T22:42:27Z</time>
      </trkpt>
      <trkpt lat="42.25492" lon="1.89952">
        <ele>1164.471</ele>
        <time>2019-04-07T22:42:29Z</time>
      </trkpt>
      <trkpt lat="42.25492" lon="1.89953">
        <ele>1164.536</ele>
        <time>2019-04-07T22:42:29Z</time>
      </trkpt>
      <trkpt lat="42.25493" lon="1.89962">
        <ele>1165.647</ele>
        <time>2019-04-07T22:42:32Z</time>
      </trkpt>
      <trkpt lat="42.25493" lon="1.89964">
        <ele>1165.697</ele>
        <time>2019-04-07T22:42:32Z</time>
      </trkpt>
      <trkpt lat="42.25494" lon="1.89967">
        <ele>1166.041</ele>
        <time>2019-04-07T22:42:33Z</time>
      </trkpt>
      <trkpt lat="42.25495" lon="1.89973">
        <ele>1166.29</ele>
        <time>2019-04-07T22:42:35Z</time>
      </trkpt>
      <trkpt lat="42.25495" lon="1.8998">
        <ele>1166.472</ele>
        <time>2019-04-07T22:42:37Z</time>
      </trkpt>
      <trkpt lat="42.25494" lon="1.89985">
        <ele>1167.265</ele>
        <time>2019-04-07T22:42:39Z</time>
      </trkpt>
      <trkpt lat="42.25494" lon="1.89989">
        <ele>1167.668</ele>
        <time>2019-04-07T22:42:40Z</time>
      </trkpt>
      <trkpt lat="42.25494" lon="1.89991">
        <ele>1167.414</ele>
        <time>2019-04-07T22:42:40Z</time>
      </trkpt>
      <trkpt lat="42.25494" lon="1.89992">
        <ele>1167.408</ele>
        <time>2019-04-07T22:42:41Z</time>
      </trkpt>
      <trkpt lat="42.25494" lon="1.89995">
        <ele>1167.629</ele>
        <time>2019-04-07T22:42:42Z</time>
      </trkpt>
      <trkpt lat="42.25494" lon="1.89997">
        <ele>1168.031</ele>
        <time>2019-04-07T22:42:42Z</time>
      </trkpt>
      <trkpt lat="42.25494" lon="1.89998">
        <ele>1167.896</ele>
        <time>2019-04-07T22:42:42Z</time>
      </trkpt>
      <trkpt lat="42.25494" lon="1.89999">
        <ele>1168.117</ele>
        <time>2019-04-07T22:42:43Z</time>
      </trkpt>
      <trkpt lat="42.25494" lon="1.90001">
        <ele>1168.177</ele>
        <time>2019-04-07T22:42:43Z</time>
      </trkpt>
      <trkpt lat="42.25495" lon="1.90002">
        <ele>1168.491</ele>
        <time>2019-04-07T22:42:44Z</time>
      </trkpt>
      <trkpt lat="42.25495" lon="1.90003">
        <ele>1168.79</ele>
        <time>2019-04-07T22:42:44Z</time>
      </trkpt>
      <trkpt lat="42.25495" lon="1.90004">
        <ele>1168.632</ele>
        <time>2019-04-07T22:42:44Z</time>
      </trkpt>
      <trkpt lat="42.25495" lon="1.90007">
        <ele>1169.194</ele>
        <time>2019-04-07T22:42:45Z</time>
      </trkpt>
      <trkpt lat="42.25495" lon="1.90009">
        <ele>1169.357</ele>
        <time>2019-04-07T22:42:46Z</time>
      </trkpt>
      <trkpt lat="42.25496" lon="1.9001">
        <ele>1169.422</ele>
        <time>2019-04-07T22:42:46Z</time>
      </trkpt>
      <trkpt lat="42.25496" lon="1.90013">
        <ele>1169.508</ele>
        <time>2019-04-07T22:42:47Z</time>
      </trkpt>
      <trkpt lat="42.25497" lon="1.90014">
        <ele>1169.942</ele>
        <time>2019-04-07T22:42:47Z</time>
      </trkpt>
      <trkpt lat="42.25497" lon="1.90017">
        <ele>1170.214</ele>
        <time>2019-04-07T22:42:48Z</time>
      </trkpt>
      <trkpt lat="42.25497" lon="1.90022">
        <ele>1170.989</ele>
        <time>2019-04-07T22:42:50Z</time>
      </trkpt>
      <trkpt lat="42.25497" lon="1.90026">
        <ele>1171.16</ele>
        <time>2019-04-07T22:42:51Z</time>
      </trkpt>
      <trkpt lat="42.25497" lon="1.90027">
        <ele>1171.58</ele>
        <time>2019-04-07T22:42:51Z</time>
      </trkpt>
      <trkpt lat="42.25498" lon="1.90029">
        <ele>1172.174</ele>
        <time>2019-04-07T22:42:52Z</time>
      </trkpt>
      <trkpt lat="42.25499" lon="1.90031">
        <ele>1172.673</ele>
        <time>2019-04-07T22:42:53Z</time>
      </trkpt>
      <trkpt lat="42.25501" lon="1.90034">
        <ele>1173.035</ele>
        <time>2019-04-07T22:42:54Z</time>
      </trkpt>
      <trkpt lat="42.25502" lon="1.90037">
        <ele>1173.561</ele>
        <time>2019-04-07T22:42:55Z</time>
      </trkpt>
      <trkpt lat="42.25504" lon="1.9004">
        <ele>1173.721</ele>
        <time>2019-04-07T22:42:56Z</time>
      </trkpt>
      <trkpt lat="42.25505" lon="1.90043">
        <ele>1174.113</ele>
        <time>2019-04-07T22:42:57Z</time>
      </trkpt>
      <trkpt lat="42.25506" lon="1.90049">
        <ele>1174.508</ele>
        <time>2019-04-07T22:42:59Z</time>
      </trkpt>
      <trkpt lat="42.25507" lon="1.90051">
        <ele>1175.359</ele>
        <time>2019-04-07T22:42:59Z</time>
      </trkpt>
      <trkpt lat="42.25507" lon="1.90052">
        <ele>1175.561</ele>
        <time>2019-04-07T22:43:00Z</time>
      </trkpt>
      <trkpt lat="42.25509" lon="1.90058">
        <ele>1176.126</ele>
        <time>2019-04-07T22:43:02Z</time>
      </trkpt>
      <trkpt lat="42.25509" lon="1.90061">
        <ele>1176.657</ele>
        <time>2019-04-07T22:43:02Z</time>
      </trkpt>
      <trkpt lat="42.25509" lon="1.90062">
        <ele>1176.557</ele>
        <time>2019-04-07T22:43:03Z</time>
      </trkpt>
      <trkpt lat="42.25509" lon="1.90063">
        <ele>1177.071</ele>
        <time>2019-04-07T22:43:03Z</time>
      </trkpt>
      <trkpt lat="42.2551" lon="1.90065">
        <ele>1177.24</ele>
        <time>2019-04-07T22:43:04Z</time>
      </trkpt>
      <trkpt lat="42.25509" lon="1.90069">
        <ele>1177.582</ele>
        <time>2019-04-07T22:43:05Z</time>
      </trkpt>
      <trkpt lat="42.25508" lon="1.90072">
        <ele>1178.037</ele>
        <time>2019-04-07T22:43:06Z</time>
      </trkpt>
      <trkpt lat="42.25508" lon="1.90075">
        <ele>1177.549</ele>
        <time>2019-04-07T22:43:07Z</time>
      </trkpt>
      <trkpt lat="42.25507" lon="1.90079">
        <ele>1177.513</ele>
        <time>2019-04-07T22:43:08Z</time>
      </trkpt>
      <trkpt lat="42.25505" lon="1.90082">
        <ele>1177.508</ele>
        <time>2019-04-07T22:43:09Z</time>
      </trkpt>
      <trkpt lat="42.25505" lon="1.90088">
        <ele>1178.176</ele>
        <time>2019-04-07T22:43:11Z</time>
      </trkpt>
      <trkpt lat="42.25506" lon="1.90092">
        <ele>1178.738</ele>
        <time>2019-04-07T22:43:12Z</time>
      </trkpt>
      <trkpt lat="42.25506" lon="1.90094">
        <ele>1178.643</ele>
        <time>2019-04-07T22:43:13Z</time>
      </trkpt>
      <trkpt lat="42.25506" lon="1.90095">
        <ele>1178.994</ele>
        <time>2019-04-07T22:43:13Z</time>
      </trkpt>
      <trkpt lat="42.25506" lon="1.90096">
        <ele>1179.214</ele>
        <time>2019-04-07T22:43:13Z</time>
      </trkpt>
      <trkpt lat="42.25506" lon="1.901">
        <ele>1180.018</ele>
        <time>2019-04-07T22:43:14Z</time>
      </trkpt>
      <trkpt lat="42.25507" lon="1.90104">
        <ele>1180.797</ele>
        <time>2019-04-07T22:43:16Z</time>
      </trkpt>
      <trkpt lat="42.25507" lon="1.90105">
        <ele>1181.269</ele>
        <time>2019-04-07T22:43:16Z</time>
      </trkpt>
      <trkpt lat="42.25507" lon="1.90105">
        <ele>1181.322</ele>
        <time>2019-04-07T22:43:16Z</time>
      </trkpt>
      <trkpt lat="42.25507" lon="1.90107">
        <ele>1182.062</ele>
        <time>2019-04-07T22:43:17Z</time>
      </trkpt>
      <trkpt lat="42.25507" lon="1.90108">
        <ele>1182.008</ele>
        <time>2019-04-07T22:43:17Z</time>
      </trkpt>
      <trkpt lat="42.25508" lon="1.9011">
        <ele>1182.808</ele>
        <time>2019-04-07T22:43:17Z</time>
      </trkpt>
      <trkpt lat="42.25508" lon="1.90111">
        <ele>1183.145</ele>
        <time>2019-04-07T22:43:18Z</time>
      </trkpt>
      <trkpt lat="42.25506" lon="1.90115">
        <ele>1184.077</ele>
        <time>2019-04-07T22:43:19Z</time>
      </trkpt>
      <trkpt lat="42.25504" lon="1.90115">
        <ele>1184.352</ele>
        <time>2019-04-07T22:43:20Z</time>
      </trkpt>
      <trkpt lat="42.25501" lon="1.90121">
        <ele>1185.793</ele>
        <time>2019-04-07T22:43:22Z</time>
      </trkpt>
      <trkpt lat="42.255" lon="1.90122">
        <ele>1186.043</ele>
        <time>2019-04-07T22:43:23Z</time>
      </trkpt>
      <trkpt lat="42.25498" lon="1.90126">
        <ele>1186.837</ele>
        <time>2019-04-07T22:43:24Z</time>
      </trkpt>
      <trkpt lat="42.25497" lon="1.90128">
        <ele>1187.256</ele>
        <time>2019-04-07T22:43:25Z</time>
      </trkpt>
      <trkpt lat="42.25497" lon="1.9013">
        <ele>1188.028</ele>
        <time>2019-04-07T22:43:25Z</time>
      </trkpt>
      <trkpt lat="42.25496" lon="1.90131">
        <ele>1188.655</ele>
        <time>2019-04-07T22:43:26Z</time>
      </trkpt>
      <trkpt lat="42.25495" lon="1.90132">
        <ele>1189.207</ele>
        <time>2019-04-07T22:43:26Z</time>
      </trkpt>
      <trkpt lat="42.25493" lon="1.90132">
        <ele>1189.517</ele>
        <time>2019-04-07T22:43:27Z</time>
      </trkpt>
      <trkpt lat="42.25492" lon="1.90133">
        <ele>1190.008</ele>
        <time>2019-04-07T22:43:28Z</time>
      </trkpt>
      <trkpt lat="42.25491" lon="1.90133">
        <ele>1190.368</ele>
        <time>2019-04-07T22:43:28Z</time>
      </trkpt>
      <trkpt lat="42.25492" lon="1.90136">
        <ele>1191.21</ele>
        <time>2019-04-07T22:43:29Z</time>
      </trkpt>
      <trkpt lat="42.25492" lon="1.90136">
        <ele>1191.175</ele>
        <time>2019-04-07T22:43:29Z</time>
      </trkpt>
      <trkpt lat="42.25494" lon="1.90135">
        <ele>1192.526</ele>
        <time>2019-04-07T22:43:30Z</time>
      </trkpt>
      <trkpt lat="42.25495" lon="1.90136">
        <ele>1192.536</ele>
        <time>2019-04-07T22:43:30Z</time>
      </trkpt>
      <trkpt lat="42.25501" lon="1.90142">
        <ele>1193.63</ele>
        <time>2019-04-07T22:43:33Z</time>
      </trkpt>
      <trkpt lat="42.25503" lon="1.90145">
        <ele>1194.289</ele>
        <time>2019-04-07T22:43:34Z</time>
      </trkpt>
      <trkpt lat="42.25505" lon="1.90146">
        <ele>1194.571</ele>
        <time>2019-04-07T22:43:35Z</time>
      </trkpt>
      <trkpt lat="42.25505" lon="1.90149">
        <ele>1195.242</ele>
        <time>2019-04-07T22:43:36Z</time>
      </trkpt>
      <trkpt lat="42.25505" lon="1.90153">
        <ele>1195.622</ele>
        <time>2019-04-07T22:43:37Z</time>
      </trkpt>
      <trkpt lat="42.25503" lon="1.90153">
        <ele>1195.814</ele>
        <time>2019-04-07T22:43:38Z</time>
      </trkpt>
      <trkpt lat="42.25506" lon="1.90155">
        <ele>1196.008</ele>
        <time>2019-04-07T22:43:39Z</time>
      </trkpt>
      <trkpt lat="42.25507" lon="1.90156">
        <ele>1196.157</ele>
        <time>2019-04-07T22:43:40Z</time>
      </trkpt>
      <trkpt lat="42.2551" lon="1.9016">
        <ele>1196.679</ele>
        <time>2019-04-07T22:43:41Z</time>
      </trkpt>
      <trkpt lat="42.25511" lon="1.90161">
        <ele>1196.754</ele>
        <time>2019-04-07T22:43:42Z</time>
      </trkpt>
      <trkpt lat="42.25511" lon="1.90163">
        <ele>1196.965</ele>
        <time>2019-04-07T22:43:42Z</time>
      </trkpt>
      <trkpt lat="42.25513" lon="1.90164">
        <ele>1196.945</ele>
        <time>2019-04-07T22:43:43Z</time>
      </trkpt>
      <trkpt lat="42.25517" lon="1.90171">
        <ele>1197.619</ele>
        <time>2019-04-07T22:43:46Z</time>
      </trkpt>
      <trkpt lat="42.25518" lon="1.90173">
        <ele>1197.988</ele>
        <time>2019-04-07T22:43:46Z</time>
      </trkpt>
      <trkpt lat="42.25518" lon="1.90174">
        <ele>1198.04</ele>
        <time>2019-04-07T22:43:46Z</time>
      </trkpt>
      <trkpt lat="42.25519" lon="1.90172">
        <ele>1197.959</ele>
        <time>2019-04-07T22:43:47Z</time>
      </trkpt>
      <trkpt lat="42.25521" lon="1.9017">
        <ele>1198.103</ele>
        <time>2019-04-07T22:43:48Z</time>
      </trkpt>
      <trkpt lat="42.25523" lon="1.90165">
        <ele>1198.423</ele>
        <time>2019-04-07T22:43:50Z</time>
      </trkpt>
      <trkpt lat="42.25524" lon="1.90163">
        <ele>1198.408</ele>
        <time>2019-04-07T22:43:50Z</time>
      </trkpt>
      <trkpt lat="42.25528" lon="1.90169">
        <ele>1198.518</ele>
        <time>2019-04-07T22:43:53Z</time>
      </trkpt>
      <trkpt lat="42.25529" lon="1.9017">
        <ele>1198.69</ele>
        <time>2019-04-07T22:43:53Z</time>
      </trkpt>
      <trkpt lat="42.25533" lon="1.90172">
        <ele>1198.865</ele>
        <time>2019-04-07T22:43:55Z</time>
      </trkpt>
      <trkpt lat="42.25537" lon="1.90174">
        <ele>1199.616</ele>
        <time>2019-04-07T22:43:57Z</time>
      </trkpt>
      <trkpt lat="42.25538" lon="1.90175">
        <ele>1199.766</ele>
        <time>2019-04-07T22:43:57Z</time>
      </trkpt>
      <trkpt lat="42.2554" lon="1.90176">
        <ele>1199.99</ele>
        <time>2019-04-07T22:43:58Z</time>
      </trkpt>
      <trkpt lat="42.25542" lon="1.90174">
        <ele>1200.519</ele>
        <time>2019-04-07T22:43:59Z</time>
      </trkpt>
      <trkpt lat="42.25543" lon="1.90172">
        <ele>1200.731</ele>
        <time>2019-04-07T22:44:00Z</time>
      </trkpt>
      <trkpt lat="42.25543" lon="1.90167">
        <ele>1200.825</ele>
        <time>2019-04-07T22:44:01Z</time>
      </trkpt>
      <trkpt lat="42.25544" lon="1.90167">
        <ele>1201.126</ele>
        <time>2019-04-07T22:44:01Z</time>
      </trkpt>
      <trkpt lat="42.25545" lon="1.90164">
        <ele>1201.508</ele>
        <time>2019-04-07T22:44:02Z</time>
      </trkpt>
      <trkpt lat="42.25545" lon="1.90163">
        <ele>1202.008</ele>
        <time>2019-04-07T22:44:02Z</time>
      </trkpt>
      <trkpt lat="42.25545" lon="1.9016">
        <ele>1202.515</ele>
        <time>2019-04-07T22:44:03Z</time>
      </trkpt>
      <trkpt lat="42.25545" lon="1.90158">
        <ele>1202.927</ele>
        <time>2019-04-07T22:44:04Z</time>
      </trkpt>
      <trkpt lat="42.25544" lon="1.90157">
        <ele>1203.242</ele>
        <time>2019-04-07T22:44:04Z</time>
      </trkpt>
      <trkpt lat="42.25545" lon="1.90158">
        <ele>1203.463</ele>
        <time>2019-04-07T22:44:04Z</time>
      </trkpt>
      <trkpt lat="42.25546" lon="1.90158">
        <ele>1203.493</ele>
        <time>2019-04-07T22:44:05Z</time>
      </trkpt>
      <trkpt lat="42.25549" lon="1.9016">
        <ele>1203.967</ele>
        <time>2019-04-07T22:44:06Z</time>
      </trkpt>
      <trkpt lat="42.25554" lon="1.90162">
        <ele>1203.946</ele>
        <time>2019-04-07T22:44:08Z</time>
      </trkpt>
      <trkpt lat="42.25555" lon="1.90164">
        <ele>1204.298</ele>
        <time>2019-04-07T22:44:09Z</time>
      </trkpt>
      <trkpt lat="42.25554" lon="1.90161">
        <ele>1205.263</ele>
        <time>2019-04-07T22:44:10Z</time>
      </trkpt>
      <trkpt lat="42.25555" lon="1.90159">
        <ele>1205.544</ele>
        <time>2019-04-07T22:44:11Z</time>
      </trkpt>
      <trkpt lat="42.25556" lon="1.90155">
        <ele>1206.118</ele>
        <time>2019-04-07T22:44:12Z</time>
      </trkpt>
      <trkpt lat="42.25556" lon="1.90153">
        <ele>1206.408</ele>
        <time>2019-04-07T22:44:13Z</time>
      </trkpt>
      <trkpt lat="42.25557" lon="1.90153">
        <ele>1206.589</ele>
        <time>2019-04-07T22:44:13Z</time>
      </trkpt>
      <trkpt lat="42.25557" lon="1.90153">
        <ele>1206.771</ele>
        <time>2019-04-07T22:44:13Z</time>
      </trkpt>
      <trkpt lat="42.25559" lon="1.90152">
        <ele>1207.226</ele>
        <time>2019-04-07T22:44:14Z</time>
      </trkpt>
      <trkpt lat="42.25562" lon="1.90154">
        <ele>1207.617</ele>
        <time>2019-04-07T22:44:15Z</time>
      </trkpt>
      <trkpt lat="42.25566" lon="1.90159">
        <ele>1208.517</ele>
        <time>2019-04-07T22:44:17Z</time>
      </trkpt>
      <trkpt lat="42.25567" lon="1.90162">
        <ele>1208.971</ele>
        <time>2019-04-07T22:44:18Z</time>
      </trkpt>
      <trkpt lat="42.25567" lon="1.90163">
        <ele>1209.08</ele>
        <time>2019-04-07T22:44:18Z</time>
      </trkpt>
      <trkpt lat="42.25568" lon="1.90164">
        <ele>1209.062</ele>
        <time>2019-04-07T22:44:19Z</time>
      </trkpt>
      <trkpt lat="42.25568" lon="1.90165">
        <ele>1209.163</ele>
        <time>2019-04-07T22:44:19Z</time>
      </trkpt>
      <trkpt lat="42.25569" lon="1.90165">
        <ele>1209.344</ele>
        <time>2019-04-07T22:44:19Z</time>
      </trkpt>
      <trkpt lat="42.25571" lon="1.90168">
        <ele>1209.518</ele>
        <time>2019-04-07T22:44:20Z</time>
      </trkpt>
      <trkpt lat="42.25571" lon="1.90168">
        <ele>1209.808</ele>
        <time>2019-04-07T22:44:20Z</time>
      </trkpt>
      <trkpt lat="42.25572" lon="1.90167">
        <ele>1210.029</ele>
        <time>2019-04-07T22:44:21Z</time>
      </trkpt>
      <trkpt lat="42.25576" lon="1.9017">
        <ele>1210.691</ele>
        <time>2019-04-07T22:44:23Z</time>
      </trkpt>
      <trkpt lat="42.25578" lon="1.90171">
        <ele>1211.116</ele>
        <time>2019-04-07T22:44:24Z</time>
      </trkpt>
      <trkpt lat="42.2558" lon="1.90172">
        <ele>1211.567</ele>
        <time>2019-04-07T22:44:24Z</time>
      </trkpt>
      <trkpt lat="42.2558" lon="1.90169">
        <ele>1212.197</ele>
        <time>2019-04-07T22:44:25Z</time>
      </trkpt>
      <trkpt lat="42.2558" lon="1.90168">
        <ele>1212.281</ele>
        <time>2019-04-07T22:44:25Z</time>
      </trkpt>
      <trkpt lat="42.25582" lon="1.90161">
        <ele>1212.88</ele>
        <time>2019-04-07T22:44:28Z</time>
      </trkpt>
      <trkpt lat="42.25584" lon="1.90161">
        <ele>1213.112</ele>
        <time>2019-04-07T22:44:28Z</time>
      </trkpt>
      <trkpt lat="42.25585" lon="1.90162">
        <ele>1213.254</ele>
        <time>2019-04-07T22:44:29Z</time>
      </trkpt>
      <trkpt lat="42.25589" lon="1.90168">
        <ele>1214.156</ele>
        <time>2019-04-07T22:44:31Z</time>
      </trkpt>
      <trkpt lat="42.2559" lon="1.90173">
        <ele>1214.811</ele>
        <time>2019-04-07T22:44:33Z</time>
      </trkpt>
      <trkpt lat="42.25592" lon="1.90177">
        <ele>1215.108</ele>
        <time>2019-04-07T22:44:34Z</time>
      </trkpt>
      <trkpt lat="42.25592" lon="1.90178">
        <ele>1215.688</ele>
        <time>2019-04-07T22:44:34Z</time>
      </trkpt>
      <trkpt lat="42.25594" lon="1.90181">
        <ele>1216.12</ele>
        <time>2019-04-07T22:44:36Z</time>
      </trkpt>
      <trkpt lat="42.25595" lon="1.90182">
        <ele>1216.215</ele>
        <time>2019-04-07T22:44:36Z</time>
      </trkpt>
      <trkpt lat="42.25596" lon="1.90183">
        <ele>1216.116</ele>
        <time>2019-04-07T22:44:36Z</time>
      </trkpt>
      <trkpt lat="42.25599" lon="1.90189">
        <ele>1216.666</ele>
        <time>2019-04-07T22:44:38Z</time>
      </trkpt>
      <trkpt lat="42.25599" lon="1.9019">
        <ele>1216.71</ele>
        <time>2019-04-07T22:44:39Z</time>
      </trkpt>
      <trkpt lat="42.25602" lon="1.90196">
        <ele>1217.629</ele>
        <time>2019-04-07T22:44:41Z</time>
      </trkpt>
      <trkpt lat="42.25603" lon="1.90198">
        <ele>1217.641</ele>
        <time>2019-04-07T22:44:42Z</time>
      </trkpt>
      <trkpt lat="42.25604" lon="1.90199">
        <ele>1218.041</ele>
        <time>2019-04-07T22:44:42Z</time>
      </trkpt>
      <trkpt lat="42.25606" lon="1.90199">
        <ele>1218.281</ele>
        <time>2019-04-07T22:44:43Z</time>
      </trkpt>
      <trkpt lat="42.25609" lon="1.902">
        <ele>1218.509</ele>
        <time>2019-04-07T22:44:44Z</time>
      </trkpt>
      <trkpt lat="42.2561" lon="1.90201">
        <ele>1219.008</ele>
        <time>2019-04-07T22:44:45Z</time>
      </trkpt>
      <trkpt lat="42.25611" lon="1.90201">
        <ele>1219.657</ele>
        <time>2019-04-07T22:44:45Z</time>
      </trkpt>
      <trkpt lat="42.25611" lon="1.90202">
        <ele>1219.899</ele>
        <time>2019-04-07T22:44:45Z</time>
      </trkpt>
      <trkpt lat="42.25613" lon="1.90203">
        <ele>1220.534</ele>
        <time>2019-04-07T22:44:46Z</time>
      </trkpt>
      <trkpt lat="42.25614" lon="1.90202">
        <ele>1220.535</ele>
        <time>2019-04-07T22:44:46Z</time>
      </trkpt>
      <trkpt lat="42.25614" lon="1.90202">
        <ele>1220.945</ele>
        <time>2019-04-07T22:44:47Z</time>
      </trkpt>
      <trkpt lat="42.25617" lon="1.90205">
        <ele>1221.499</ele>
        <time>2019-04-07T22:44:48Z</time>
      </trkpt>
      <trkpt lat="42.25618" lon="1.90205">
        <ele>1222.178</ele>
        <time>2019-04-07T22:44:48Z</time>
      </trkpt>
      <trkpt lat="42.25621" lon="1.90206">
        <ele>1222.83</ele>
        <time>2019-04-07T22:44:50Z</time>
      </trkpt>
      <trkpt lat="42.25621" lon="1.90206">
        <ele>1223.254</ele>
        <time>2019-04-07T22:44:50Z</time>
      </trkpt>
      <trkpt lat="42.25624" lon="1.90208">
        <ele>1223.856</ele>
        <time>2019-04-07T22:44:51Z</time>
      </trkpt>
      <trkpt lat="42.25626" lon="1.90209">
        <ele>1224.011</ele>
        <time>2019-04-07T22:44:52Z</time>
      </trkpt>
      <trkpt lat="42.25628" lon="1.9021">
        <ele>1224.508</ele>
        <time>2019-04-07T22:44:53Z</time>
      </trkpt>
      <trkpt lat="42.25629" lon="1.90211">
        <ele>1225.178</ele>
        <time>2019-04-07T22:44:53Z</time>
      </trkpt>
      <trkpt lat="42.2563" lon="1.90211">
        <ele>1225.43</ele>
        <time>2019-04-07T22:44:54Z</time>
      </trkpt>
      <trkpt lat="42.25633" lon="1.90213">
        <ele>1226.655</ele>
        <time>2019-04-07T22:44:55Z</time>
      </trkpt>
      <trkpt lat="42.25634" lon="1.90214">
        <ele>1226.646</ele>
        <time>2019-04-07T22:44:55Z</time>
      </trkpt>
      <trkpt lat="42.25636" lon="1.90216">
        <ele>1227.716</ele>
        <time>2019-04-07T22:44:56Z</time>
      </trkpt>
      <trkpt lat="42.25636" lon="1.90214">
        <ele>1228.22</ele>
        <time>2019-04-07T22:44:57Z</time>
      </trkpt>
      <trkpt lat="42.25637" lon="1.90214">
        <ele>1228.289</ele>
        <time>2019-04-07T22:44:57Z</time>
      </trkpt>
      <trkpt lat="42.25637" lon="1.90213">
        <ele>1228.221</ele>
        <time>2019-04-07T22:44:58Z</time>
      </trkpt>
      <trkpt lat="42.25637" lon="1.90212">
        <ele>1228.615</ele>
        <time>2019-04-07T22:44:58Z</time>
      </trkpt>
      <trkpt lat="42.25637" lon="1.90211">
        <ele>1228.665</ele>
        <time>2019-04-07T22:44:58Z</time>
      </trkpt>
      <trkpt lat="42.25635" lon="1.90207">
        <ele>1229.111</ele>
        <time>2019-04-07T22:45:00Z</time>
      </trkpt>
      <trkpt lat="42.25636" lon="1.90204">
        <ele>1229.808</ele>
        <time>2019-04-07T22:45:01Z</time>
      </trkpt>
      <trkpt lat="42.25637" lon="1.90205">
        <ele>1230.264</ele>
        <time>2019-04-07T22:45:01Z</time>
      </trkpt>
      <trkpt lat="42.25637" lon="1.90205">
        <ele>1230.636</ele>
        <time>2019-04-07T22:45:01Z</time>
      </trkpt>
      <trkpt lat="42.25637" lon="1.90203">
        <ele>1230.861</ele>
        <time>2019-04-07T22:45:02Z</time>
      </trkpt>
      <trkpt lat="42.25637" lon="1.90202">
        <ele>1231.052</ele>
        <time>2019-04-07T22:45:02Z</time>
      </trkpt>
      <trkpt lat="42.25638" lon="1.90199">
        <ele>1231.682</ele>
        <time>2019-04-07T22:45:03Z</time>
      </trkpt>
      <trkpt lat="42.25639" lon="1.90198">
        <ele>1232.236</ele>
        <time>2019-04-07T22:45:03Z</time>
      </trkpt>
      <trkpt lat="42.25641" lon="1.90195">
        <ele>1233.165</ele>
        <time>2019-04-07T22:45:04Z</time>
      </trkpt>
      <trkpt lat="42.25641" lon="1.90193">
        <ele>1233.527</ele>
        <time>2019-04-07T22:45:05Z</time>
      </trkpt>
      <trkpt lat="42.25641" lon="1.90192">
        <ele>1233.958</ele>
        <time>2019-04-07T22:45:05Z</time>
      </trkpt>
      <trkpt lat="42.25641" lon="1.9019">
        <ele>1234.052</ele>
        <time>2019-04-07T22:45:06Z</time>
      </trkpt>
      <trkpt lat="42.25641" lon="1.90188">
        <ele>1234.417</ele>
        <time>2019-04-07T22:45:07Z</time>
      </trkpt>
      <trkpt lat="42.25641" lon="1.90187">
        <ele>1234.508</ele>
        <time>2019-04-07T22:45:07Z</time>
      </trkpt>
      <trkpt lat="42.25642" lon="1.90186">
        <ele>1235.148</ele>
        <time>2019-04-07T22:45:07Z</time>
      </trkpt>
      <trkpt lat="42.25643" lon="1.90184">
        <ele>1235.41</ele>
        <time>2019-04-07T22:45:08Z</time>
      </trkpt>
      <trkpt lat="42.25644" lon="1.90183">
        <ele>1235.765</ele>
        <time>2019-04-07T22:45:09Z</time>
      </trkpt>
      <trkpt lat="42.25646" lon="1.90182">
        <ele>1236.516</ele>
        <time>2019-04-07T22:45:09Z</time>
      </trkpt>
      <trkpt lat="42.25646" lon="1.90182">
        <ele>1237.066</ele>
        <time>2019-04-07T22:45:09Z</time>
      </trkpt>
      <trkpt lat="42.25648" lon="1.90181">
        <ele>1238.29</ele>
        <time>2019-04-07T22:45:10Z</time>
      </trkpt>
      <trkpt lat="42.25649" lon="1.90181">
        <ele>1238.319</ele>
        <time>2019-04-07T22:45:10Z</time>
      </trkpt>
      <trkpt lat="42.25652" lon="1.9018">
        <ele>1239.261</ele>
        <time>2019-04-07T22:45:12Z</time>
      </trkpt>
      <trkpt lat="42.25654" lon="1.90181">
        <ele>1239.114</ele>
        <time>2019-04-07T22:45:13Z</time>
      </trkpt>
      <trkpt lat="42.25658" lon="1.90185">
        <ele>1240.354</ele>
        <time>2019-04-07T22:45:15Z</time>
      </trkpt>
      <trkpt lat="42.25658" lon="1.90185">
        <ele>1240.509</ele>
        <time>2019-04-07T22:45:15Z</time>
      </trkpt>
      <trkpt lat="42.25659" lon="1.90186">
        <ele>1240.808</ele>
        <time>2019-04-07T22:45:15Z</time>
      </trkpt>
      <trkpt lat="42.25659" lon="1.90187">
        <ele>1240.894</ele>
        <time>2019-04-07T22:45:15Z</time>
      </trkpt>
      <trkpt lat="42.25662" lon="1.9019">
        <ele>1241.366</ele>
        <time>2019-04-07T22:45:17Z</time>
      </trkpt>
      <trkpt lat="42.25665" lon="1.90192">
        <ele>1242.111</ele>
        <time>2019-04-07T22:45:18Z</time>
      </trkpt>
      <trkpt lat="42.25666" lon="1.90194">
        <ele>1242.562</ele>
        <time>2019-04-07T22:45:19Z</time>
      </trkpt>
      <trkpt lat="42.25666" lon="1.90197">
        <ele>1242.992</ele>
        <time>2019-04-07T22:45:20Z</time>
      </trkpt>
      <trkpt lat="42.25667" lon="1.90198">
        <ele>1243.296</ele>
        <time>2019-04-07T22:45:20Z</time>
      </trkpt>
      <trkpt lat="42.25668" lon="1.90199">
        <ele>1243.555</ele>
        <time>2019-04-07T22:45:21Z</time>
      </trkpt>
      <trkpt lat="42.2567" lon="1.90203">
        <ele>1244.117</ele>
        <time>2019-04-07T22:45:22Z</time>
      </trkpt>
      <trkpt lat="42.2567" lon="1.90202">
        <ele>1244.595</ele>
        <time>2019-04-07T22:45:22Z</time>
      </trkpt>
      <trkpt lat="42.2567" lon="1.90202">
        <ele>1244.549</ele>
        <time>2019-04-07T22:45:22Z</time>
      </trkpt>
      <trkpt lat="42.2567" lon="1.90203">
        <ele>1244.523</ele>
        <time>2019-04-07T22:45:22Z</time>
      </trkpt>
      <trkpt lat="42.2567" lon="1.90202">
        <ele>1244.508</ele>
        <time>2019-04-07T22:45:22Z</time>
      </trkpt>
      <trkpt lat="42.25671" lon="1.90201">
        <ele>1244.582</ele>
        <time>2019-04-07T22:45:23Z</time>
      </trkpt>
      <trkpt lat="42.25672" lon="1.902">
        <ele>1244.784</ele>
        <time>2019-04-07T22:45:23Z</time>
      </trkpt>
      <trkpt lat="42.25672" lon="1.90205">
        <ele>1244.689</ele>
        <time>2019-04-07T22:45:25Z</time>
      </trkpt>
      <trkpt lat="42.25674" lon="1.90209">
        <ele>1245.44</ele>
        <time>2019-04-07T22:45:27Z</time>
      </trkpt>
      <trkpt lat="42.25675" lon="1.90211">
        <ele>1245.62</ele>
        <time>2019-04-07T22:45:27Z</time>
      </trkpt>
      <trkpt lat="42.25676" lon="1.90212">
        <ele>1246.094</ele>
        <time>2019-04-07T22:45:28Z</time>
      </trkpt>
      <trkpt lat="42.25676" lon="1.90215">
        <ele>1246.913</ele>
        <time>2019-04-07T22:45:28Z</time>
      </trkpt>
      <trkpt lat="42.25676" lon="1.90222">
        <ele>1247.675</ele>
        <time>2019-04-07T22:45:30Z</time>
      </trkpt>
      <trkpt lat="42.25676" lon="1.90223">
        <ele>1247.845</ele>
        <time>2019-04-07T22:45:31Z</time>
      </trkpt>
      <trkpt lat="42.25678" lon="1.90225">
        <ele>1248.347</ele>
        <time>2019-04-07T22:45:32Z</time>
      </trkpt>
      <trkpt lat="42.25679" lon="1.90227">
        <ele>1248.811</ele>
        <time>2019-04-07T22:45:33Z</time>
      </trkpt>
      <trkpt lat="42.25679" lon="1.90229">
        <ele>1249.408</ele>
        <time>2019-04-07T22:45:33Z</time>
      </trkpt>
      <trkpt lat="42.2568" lon="1.9023">
        <ele>1249.827</ele>
        <time>2019-04-07T22:45:33Z</time>
      </trkpt>
      <trkpt lat="42.2568" lon="1.90231">
        <ele>1250.129</ele>
        <time>2019-04-07T22:45:34Z</time>
      </trkpt>
      <trkpt lat="42.25682" lon="1.90234">
        <ele>1250.594</ele>
        <time>2019-04-07T22:45:35Z</time>
      </trkpt>
      <trkpt lat="42.25684" lon="1.90238">
        <ele>1251.285</ele>
        <time>2019-04-07T22:45:36Z</time>
      </trkpt>
      <trkpt lat="42.25684" lon="1.9024">
        <ele>1251.665</ele>
        <time>2019-04-07T22:45:37Z</time>
      </trkpt>
      <trkpt lat="42.25684" lon="1.90241">
        <ele>1251.629</ele>
        <time>2019-04-07T22:45:37Z</time>
      </trkpt>
      <trkpt lat="42.25684" lon="1.90243">
        <ele>1251.638</ele>
        <time>2019-04-07T22:45:38Z</time>
      </trkpt>
      <trkpt lat="42.25685" lon="1.90244">
        <ele>1252.36</ele>
        <time>2019-04-07T22:45:38Z</time>
      </trkpt>
      <trkpt lat="42.25685" lon="1.90244">
        <ele>1252.991</ele>
        <time>2019-04-07T22:45:38Z</time>
      </trkpt>
      <trkpt lat="42.25687" lon="1.90247">
        <ele>1253.281</ele>
        <time>2019-04-07T22:45:40Z</time>
      </trkpt>
      <trkpt lat="42.25688" lon="1.90249">
        <ele>1253.519</ele>
        <time>2019-04-07T22:45:40Z</time>
      </trkpt>
      <trkpt lat="42.25687" lon="1.90252">
        <ele>1254.408</ele>
        <time>2019-04-07T22:45:41Z</time>
      </trkpt>
      <trkpt lat="42.25687" lon="1.90253">
        <ele>1254.532</ele>
        <time>2019-04-07T22:45:42Z</time>
      </trkpt>
      <trkpt lat="42.25688" lon="1.90255">
        <ele>1255.654</ele>
        <time>2019-04-07T22:45:42Z</time>
      </trkpt>
      <trkpt lat="42.25689" lon="1.90256">
        <ele>1256.649</ele>
        <time>2019-04-07T22:45:43Z</time>
      </trkpt>
      <trkpt lat="42.25691" lon="1.90259">
        <ele>1257.72</ele>
        <time>2019-04-07T22:45:44Z</time>
      </trkpt>
      <trkpt lat="42.25691" lon="1.90261">
        <ele>1258.26</ele>
        <time>2019-04-07T22:45:45Z</time>
      </trkpt>
      <trkpt lat="42.25692" lon="1.90265">
        <ele>1258.594</ele>
        <time>2019-04-07T22:45:46Z</time>
      </trkpt>
      <trkpt lat="42.25689" lon="1.9027">
        <ele>1259.173</ele>
        <time>2019-04-07T22:45:48Z</time>
      </trkpt>
      <trkpt lat="42.25688" lon="1.90276">
        <ele>1259.545</ele>
        <time>2019-04-07T22:45:49Z</time>
      </trkpt>
      <trkpt lat="42.25689" lon="1.90279">
        <ele>1260.194</ele>
        <time>2019-04-07T22:45:50Z</time>
      </trkpt>
      <trkpt lat="42.2569" lon="1.90281">
        <ele>1260.157</ele>
        <time>2019-04-07T22:45:51Z</time>
      </trkpt>
      <trkpt lat="42.2569" lon="1.90283">
        <ele>1260.422</ele>
        <time>2019-04-07T22:45:51Z</time>
      </trkpt>
      <trkpt lat="42.2569" lon="1.90284">
        <ele>1260.808</ele>
        <time>2019-04-07T22:45:52Z</time>
      </trkpt>
      <trkpt lat="42.25691" lon="1.90285">
        <ele>1261.632</ele>
        <time>2019-04-07T22:45:52Z</time>
      </trkpt>
      <trkpt lat="42.25693" lon="1.90287">
        <ele>1262.044</ele>
        <time>2019-04-07T22:45:53Z</time>
      </trkpt>
      <trkpt lat="42.25692" lon="1.90287">
        <ele>1262.749</ele>
        <time>2019-04-07T22:45:54Z</time>
      </trkpt>
      <trkpt lat="42.25691" lon="1.90286">
        <ele>1263.28</ele>
        <time>2019-04-07T22:45:54Z</time>
      </trkpt>
      <trkpt lat="42.25691" lon="1.90283">
        <ele>1263.68</ele>
        <time>2019-04-07T22:45:55Z</time>
      </trkpt>
      <trkpt lat="42.25692" lon="1.90283">
        <ele>1263.664</ele>
        <time>2019-04-07T22:45:55Z</time>
      </trkpt>
      <trkpt lat="42.25694" lon="1.90279">
        <ele>1263.913</ele>
        <time>2019-04-07T22:45:57Z</time>
      </trkpt>
      <trkpt lat="42.25696" lon="1.90276">
        <ele>1264.065</ele>
        <time>2019-04-07T22:45:58Z</time>
      </trkpt>
      <trkpt lat="42.25698" lon="1.90273">
        <ele>1264.247</ele>
        <time>2019-04-07T22:45:59Z</time>
      </trkpt>
      <trkpt lat="42.25698" lon="1.90272">
        <ele>1264.229</ele>
        <time>2019-04-07T22:45:59Z</time>
      </trkpt>
      <trkpt lat="42.25699" lon="1.90269">
        <ele>1264.821</ele>
        <time>2019-04-07T22:46:00Z</time>
      </trkpt>
      <trkpt lat="42.25702" lon="1.9027">
        <ele>1265.408</ele>
        <time>2019-04-07T22:46:01Z</time>
      </trkpt>
      <trkpt lat="42.25705" lon="1.9027">
        <ele>1265.857</ele>
        <time>2019-04-07T22:46:03Z</time>
      </trkpt>
      <trkpt lat="42.25705" lon="1.9027">
        <ele>1266.629</ele>
        <time>2019-04-07T22:46:03Z</time>
      </trkpt>
      <trkpt lat="42.25706" lon="1.9027">
        <ele>1266.694</ele>
        <time>2019-04-07T22:46:03Z</time>
      </trkpt>
      <trkpt lat="42.25707" lon="1.90269">
        <ele>1267.675</ele>
        <time>2019-04-07T22:46:03Z</time>
      </trkpt>
      <trkpt lat="42.25707" lon="1.90268">
        <ele>1268.035</ele>
        <time>2019-04-07T22:46:04Z</time>
      </trkpt>
      <trkpt lat="42.25708" lon="1.90264">
        <ele>1268.869</ele>
        <time>2019-04-07T22:46:05Z</time>
      </trkpt>
      <trkpt lat="42.25711" lon="1.90259">
        <ele>1269.798</ele>
        <time>2019-04-07T22:46:07Z</time>
      </trkpt>
      <trkpt lat="42.25711" lon="1.90259">
        <ele>1270.05</ele>
        <time>2019-04-07T22:46:07Z</time>
      </trkpt>
      <trkpt lat="42.25713" lon="1.90256">
        <ele>1271.065</ele>
        <time>2019-04-07T22:46:08Z</time>
      </trkpt>
      <trkpt lat="42.25714" lon="1.90255">
        <ele>1271.168</ele>
        <time>2019-04-07T22:46:09Z</time>
      </trkpt>
      <trkpt lat="42.25718" lon="1.90248">
        <ele>1272.014</ele>
        <time>2019-04-07T22:46:11Z</time>
      </trkpt>
      <trkpt lat="42.25719" lon="1.90247">
        <ele>1272.108</ele>
        <time>2019-04-07T22:46:12Z</time>
      </trkpt>
      <trkpt lat="42.25721" lon="1.90244">
        <ele>1273.169</ele>
        <time>2019-04-07T22:46:13Z</time>
      </trkpt>
      <trkpt lat="42.25725" lon="1.90245">
        <ele>1273.261</ele>
        <time>2019-04-07T22:46:14Z</time>
      </trkpt>
      <trkpt lat="42.25726" lon="1.90245">
        <ele>1273.146</ele>
        <time>2019-04-07T22:46:15Z</time>
      </trkpt>
      <trkpt lat="42.25727" lon="1.90246">
        <ele>1273.257</ele>
        <time>2019-04-07T22:46:15Z</time>
      </trkpt>
      <trkpt lat="42.25728" lon="1.90246">
        <ele>1273.717</ele>
        <time>2019-04-07T22:46:16Z</time>
      </trkpt>
      <trkpt lat="42.2573" lon="1.90249">
        <ele>1274.471</ele>
        <time>2019-04-07T22:46:17Z</time>
      </trkpt>
      <trkpt lat="42.25731" lon="1.90251">
        <ele>1274.51</ele>
        <time>2019-04-07T22:46:18Z</time>
      </trkpt>
      <trkpt lat="42.25733" lon="1.90254">
        <ele>1275.582</ele>
        <time>2019-04-07T22:46:19Z</time>
      </trkpt>
      <trkpt lat="42.25733" lon="1.90254">
        <ele>1275.614</ele>
        <time>2019-04-07T22:46:19Z</time>
      </trkpt>
      <trkpt lat="42.25734" lon="1.90254">
        <ele>1275.954</ele>
        <time>2019-04-07T22:46:19Z</time>
      </trkpt>
      <trkpt lat="42.25734" lon="1.90253">
        <ele>1276.409</ele>
        <time>2019-04-07T22:46:19Z</time>
      </trkpt>
      <trkpt lat="42.25734" lon="1.90251">
        <ele>1277.008</ele>
        <time>2019-04-07T22:46:20Z</time>
      </trkpt>
      <trkpt lat="42.25734" lon="1.9025">
        <ele>1277.634</ele>
        <time>2019-04-07T22:46:20Z</time>
      </trkpt>
      <trkpt lat="42.25734" lon="1.90247">
        <ele>1278.156</ele>
        <time>2019-04-07T22:46:21Z</time>
      </trkpt>
      <trkpt lat="42.25735" lon="1.90247">
        <ele>1278.641</ele>
        <time>2019-04-07T22:46:21Z</time>
      </trkpt>
      <trkpt lat="42.25737" lon="1.90247">
        <ele>1279.242</ele>
        <time>2019-04-07T22:46:22Z</time>
      </trkpt>
      <trkpt lat="42.25738" lon="1.90247">
        <ele>1279.242</ele>
        <time>2019-04-07T22:46:23Z</time>
      </trkpt>
      <trkpt lat="42.2574" lon="1.90248">
        <ele>1279.456</ele>
        <time>2019-04-07T22:46:23Z</time>
      </trkpt>
      <trkpt lat="42.2574" lon="1.90248">
        <ele>1279.665</ele>
        <time>2019-04-07T22:46:24Z</time>
      </trkpt>
      <trkpt lat="42.25742" lon="1.90249">
        <ele>1280.267</ele>
        <time>2019-04-07T22:46:24Z</time>
      </trkpt>
      <trkpt lat="42.25746" lon="1.90251">
        <ele>1280.971</ele>
        <time>2019-04-07T22:46:26Z</time>
      </trkpt>
      <trkpt lat="42.25748" lon="1.90251">
        <ele>1281.141</ele>
        <time>2019-04-07T22:46:27Z</time>
      </trkpt>
      <trkpt lat="42.25751" lon="1.90252">
        <ele>1281.115</ele>
        <time>2019-04-07T22:46:28Z</time>
      </trkpt>
      <trkpt lat="42.25753" lon="1.90252">
        <ele>1281.408</ele>
        <time>2019-04-07T22:46:29Z</time>
      </trkpt>
      <trkpt lat="42.25754" lon="1.90251">
        <ele>1281.71</ele>
        <time>2019-04-07T22:46:29Z</time>
      </trkpt>
      <trkpt lat="42.25756" lon="1.90253">
        <ele>1281.612</ele>
        <time>2019-04-07T22:46:30Z</time>
      </trkpt>
      <trkpt lat="42.25758" lon="1.90253">
        <ele>1282.057</ele>
        <time>2019-04-07T22:46:31Z</time>
      </trkpt>
      <trkpt lat="42.25766" lon="1.90256">
        <ele>1282.318</ele>
        <time>2019-04-07T22:46:34Z</time>
      </trkpt>
      <trkpt lat="42.25771" lon="1.90259">
        <ele>1282.128</ele>
        <time>2019-04-07T22:46:37Z</time>
      </trkpt>
      <trkpt lat="42.25772" lon="1.90259">
        <ele>1282.212</ele>
        <time>2019-04-07T22:46:37Z</time>
      </trkpt>
      <trkpt lat="42.25778" lon="1.9026">
        <ele>1283.051</ele>
        <time>2019-04-07T22:46:39Z</time>
      </trkpt>
      <trkpt lat="42.25785" lon="1.90258">
        <ele>1283.683</ele>
        <time>2019-04-07T22:46:42Z</time>
      </trkpt>
      <trkpt lat="42.25786" lon="1.90258">
        <ele>1283.658</ele>
        <time>2019-04-07T22:46:43Z</time>
      </trkpt>
      <trkpt lat="42.25788" lon="1.90257">
        <ele>1284.152</ele>
        <time>2019-04-07T22:46:44Z</time>
      </trkpt>
      <trkpt lat="42.2579" lon="1.90255">
        <ele>1284.517</ele>
        <time>2019-04-07T22:46:44Z</time>
      </trkpt>
      <trkpt lat="42.2579" lon="1.90255">
        <ele>1284.808</ele>
        <time>2019-04-07T22:46:44Z</time>
      </trkpt>
      <trkpt lat="42.25793" lon="1.90254">
        <ele>1285.278</ele>
        <time>2019-04-07T22:46:46Z</time>
      </trkpt>
      <trkpt lat="42.25797" lon="1.90252">
        <ele>1285.77</ele>
        <time>2019-04-07T22:46:47Z</time>
      </trkpt>
      <trkpt lat="42.25805" lon="1.90249">
        <ele>1285.775</ele>
        <time>2019-04-07T22:46:51Z</time>
      </trkpt>
      <trkpt lat="42.25812" lon="1.90244">
        <ele>1285.596</ele>
        <time>2019-04-07T22:46:54Z</time>
      </trkpt>
      <trkpt lat="42.25821" lon="1.90244">
        <ele>1285.916</ele>
        <time>2019-04-07T22:46:58Z</time>
      </trkpt>
      <trkpt lat="42.25824" lon="1.90245">
        <ele>1286.27</ele>
        <time>2019-04-07T22:46:59Z</time>
      </trkpt>
      <trkpt lat="42.25825" lon="1.90246">
        <ele>1286.269</ele>
        <time>2019-04-07T22:46:59Z</time>
      </trkpt>
      <trkpt lat="42.25827" lon="1.90247">
        <ele>1286.581</ele>
        <time>2019-04-07T22:47:00Z</time>
      </trkpt>
      <trkpt lat="42.2583" lon="1.90248">
        <ele>1287.365</ele>
        <time>2019-04-07T22:47:01Z</time>
      </trkpt>
      <trkpt lat="42.25835" lon="1.9025">
        <ele>1287.868</ele>
        <time>2019-04-07T22:47:04Z</time>
      </trkpt>
      <trkpt lat="42.25837" lon="1.90251">
        <ele>1287.814</ele>
        <time>2019-04-07T22:47:04Z</time>
      </trkpt>
      <trkpt lat="42.25844" lon="1.90257">
        <ele>1288.108</ele>
        <time>2019-04-07T22:47:08Z</time>
      </trkpt>
      <trkpt lat="42.25847" lon="1.90258">
        <ele>1288.349</ele>
        <time>2019-04-07T22:47:09Z</time>
      </trkpt>
      <trkpt lat="42.25848" lon="1.90258">
        <ele>1288.221</ele>
        <time>2019-04-07T22:47:09Z</time>
      </trkpt>
      <trkpt lat="42.25849" lon="1.90258">
        <ele>1288.166</ele>
        <time>2019-04-07T22:47:09Z</time>
      </trkpt>
      <trkpt lat="42.2585" lon="1.90258">
        <ele>1288.187</ele>
        <time>2019-04-07T22:47:10Z</time>
      </trkpt>
      <trkpt lat="42.25851" lon="1.90258">
        <ele>1288.117</ele>
        <time>2019-04-07T22:47:11Z</time>
      </trkpt>
      <trkpt lat="42.25852" lon="1.90257">
        <ele>1288.171</ele>
        <time>2019-04-07T22:47:11Z</time>
      </trkpt>
      <trkpt lat="42.25858" lon="1.9025">
        <ele>1288.61</ele>
        <time>2019-04-07T22:47:14Z</time>
      </trkpt>
      <trkpt lat="42.25859" lon="1.90249">
        <ele>1288.652</ele>
        <time>2019-04-07T22:47:15Z</time>
      </trkpt>
      <trkpt lat="42.25861" lon="1.90246">
        <ele>1288.924</ele>
        <time>2019-04-07T22:47:16Z</time>
      </trkpt>
      <trkpt lat="42.25862" lon="1.90244">
        <ele>1288.904</ele>
        <time>2019-04-07T22:47:16Z</time>
      </trkpt>
      <trkpt lat="42.25865" lon="1.90238">
        <ele>1289.014</ele>
        <time>2019-04-07T22:47:19Z</time>
      </trkpt>
      <trkpt lat="42.25866" lon="1.90235">
        <ele>1289.408</ele>
        <time>2019-04-07T22:47:20Z</time>
      </trkpt>
      <trkpt lat="42.25869" lon="1.90229">
        <ele>1289.915</ele>
        <time>2019-04-07T22:47:22Z</time>
      </trkpt>
      <trkpt lat="42.2587" lon="1.90227">
        <ele>1290.287</ele>
        <time>2019-04-07T22:47:23Z</time>
      </trkpt>
      <trkpt lat="42.25873" lon="1.90223">
        <ele>1290.622</ele>
        <time>2019-04-07T22:47:24Z</time>
      </trkpt>
      <trkpt lat="42.25874" lon="1.90222">
        <ele>1291.273</ele>
        <time>2019-04-07T22:47:25Z</time>
      </trkpt>
      <trkpt lat="42.25878" lon="1.90218">
        <ele>1291.553</ele>
        <time>2019-04-07T22:47:27Z</time>
      </trkpt>
      <trkpt lat="42.25879" lon="1.90217">
        <ele>1291.617</ele>
        <time>2019-04-07T22:47:27Z</time>
      </trkpt>
      <trkpt lat="42.2588" lon="1.90216">
        <ele>1291.976</ele>
        <time>2019-04-07T22:47:27Z</time>
      </trkpt>
      <trkpt lat="42.2588" lon="1.90215">
        <ele>1292.118</ele>
        <time>2019-04-07T22:47:28Z</time>
      </trkpt>
      <trkpt lat="42.25881" lon="1.90211">
        <ele>1292.997</ele>
        <time>2019-04-07T22:47:29Z</time>
      </trkpt>
      <trkpt lat="42.25882" lon="1.9021">
        <ele>1293.123</ele>
        <time>2019-04-07T22:47:30Z</time>
      </trkpt>
      <trkpt lat="42.25883" lon="1.90206">
        <ele>1293.425</ele>
        <time>2019-04-07T22:47:31Z</time>
      </trkpt>
      <trkpt lat="42.25885" lon="1.90203">
        <ele>1294.008</ele>
        <time>2019-04-07T22:47:32Z</time>
      </trkpt>
      <trkpt lat="42.25887" lon="1.90201">
        <ele>1294.672</ele>
        <time>2019-04-07T22:47:33Z</time>
      </trkpt>
      <trkpt lat="42.2589" lon="1.90195">
        <ele>1295.254</ele>
        <time>2019-04-07T22:47:35Z</time>
      </trkpt>
      <trkpt lat="42.25892" lon="1.90193">
        <ele>1295.619</ele>
        <time>2019-04-07T22:47:36Z</time>
      </trkpt>
      <trkpt lat="42.25892" lon="1.9019">
        <ele>1296.11</ele>
        <time>2019-04-07T22:47:37Z</time>
      </trkpt>
      <trkpt lat="42.25892" lon="1.9019">
        <ele>1296.43</ele>
        <time>2019-04-07T22:47:37Z</time>
      </trkpt>
      <trkpt lat="42.25891" lon="1.90189">
        <ele>1296.654</ele>
        <time>2019-04-07T22:47:37Z</time>
      </trkpt>
      <trkpt lat="42.25893" lon="1.90189">
        <ele>1297.323</ele>
        <time>2019-04-07T22:47:38Z</time>
      </trkpt>
      <trkpt lat="42.25893" lon="1.90189">
        <ele>1297.265</ele>
        <time>2019-04-07T22:47:38Z</time>
      </trkpt>
      <trkpt lat="42.25893" lon="1.90188">
        <ele>1297.114</ele>
        <time>2019-04-07T22:47:38Z</time>
      </trkpt>
      <trkpt lat="42.25891" lon="1.90184">
        <ele>1297.154</ele>
        <time>2019-04-07T22:47:40Z</time>
      </trkpt>
      <trkpt lat="42.25892" lon="1.90184">
        <ele>1297.109</ele>
        <time>2019-04-07T22:47:40Z</time>
      </trkpt>
      <trkpt lat="42.25892" lon="1.90184">
        <ele>1297.108</ele>
        <time>2019-04-07T22:47:40Z</time>
      </trkpt>
      <trkpt lat="42.25893" lon="1.90183">
        <ele>1297.544</ele>
        <time>2019-04-07T22:47:41Z</time>
      </trkpt>
      <trkpt lat="42.25893" lon="1.90182">
        <ele>1297.446</ele>
        <time>2019-04-07T22:47:41Z</time>
      </trkpt>
      <trkpt lat="42.25896" lon="1.90177">
        <ele>1298.681</ele>
        <time>2019-04-07T22:47:43Z</time>
      </trkpt>
      <trkpt lat="42.25901" lon="1.9017">
        <ele>1299.542</ele>
        <time>2019-04-07T22:47:46Z</time>
      </trkpt>
      <trkpt lat="42.25901" lon="1.90168">
        <ele>1299.992</ele>
        <time>2019-04-07T22:47:46Z</time>
      </trkpt>
      <trkpt lat="42.25902" lon="1.90165">
        <ele>1300.596</ele>
        <time>2019-04-07T22:47:48Z</time>
      </trkpt>
      <trkpt lat="42.25902" lon="1.90162">
        <ele>1301.135</ele>
        <time>2019-04-07T22:47:48Z</time>
      </trkpt>
      <trkpt lat="42.25903" lon="1.90161">
        <ele>1301.527</ele>
        <time>2019-04-07T22:47:49Z</time>
      </trkpt>
      <trkpt lat="42.25903" lon="1.9016">
        <ele>1301.996</ele>
        <time>2019-04-07T22:47:49Z</time>
      </trkpt>
      <trkpt lat="42.25903" lon="1.90158">
        <ele>1301.831</ele>
        <time>2019-04-07T22:47:49Z</time>
      </trkpt>
      <trkpt lat="42.25904" lon="1.90157">
        <ele>1302.024</ele>
        <time>2019-04-07T22:47:50Z</time>
      </trkpt>
      <trkpt lat="42.25905" lon="1.90154">
        <ele>1302.408</ele>
        <time>2019-04-07T22:47:51Z</time>
      </trkpt>
      <trkpt lat="42.25906" lon="1.90151">
        <ele>1303.072</ele>
        <time>2019-04-07T22:47:52Z</time>
      </trkpt>
      <trkpt lat="42.25907" lon="1.90147">
        <ele>1304.094</ele>
        <time>2019-04-07T22:47:53Z</time>
      </trkpt>
      <trkpt lat="42.25908" lon="1.90146">
        <ele>1304.229</ele>
        <time>2019-04-07T22:47:54Z</time>
      </trkpt>
      <trkpt lat="42.25908" lon="1.90144">
        <ele>1304.74</ele>
        <time>2019-04-07T22:47:54Z</time>
      </trkpt>
      <trkpt lat="42.2591" lon="1.9014">
        <ele>1305.31</ele>
        <time>2019-04-07T22:47:56Z</time>
      </trkpt>
      <trkpt lat="42.25912" lon="1.90137">
        <ele>1305.834</ele>
        <time>2019-04-07T22:47:57Z</time>
      </trkpt>
      <trkpt lat="42.25913" lon="1.90135">
        <ele>1306.493</ele>
        <time>2019-04-07T22:47:58Z</time>
      </trkpt>
      <trkpt lat="42.25914" lon="1.90133">
        <ele>1306.665</ele>
        <time>2019-04-07T22:47:58Z</time>
      </trkpt>
      <trkpt lat="42.25915" lon="1.90126">
        <ele>1307.878</ele>
        <time>2019-04-07T22:48:01Z</time>
      </trkpt>
      <trkpt lat="42.25916" lon="1.90123">
        <ele>1308.233</ele>
        <time>2019-04-07T22:48:01Z</time>
      </trkpt>
      <trkpt lat="42.25917" lon="1.9012">
        <ele>1308.826</ele>
        <time>2019-04-07T22:48:02Z</time>
      </trkpt>
      <trkpt lat="42.25918" lon="1.90119">
        <ele>1309.108</ele>
        <time>2019-04-07T22:48:03Z</time>
      </trkpt>
      <trkpt lat="42.25919" lon="1.90115">
        <ele>1309.62</ele>
        <time>2019-04-07T22:48:04Z</time>
      </trkpt>
      <trkpt lat="42.2592" lon="1.90111">
        <ele>1310.152</ele>
        <time>2019-04-07T22:48:05Z</time>
      </trkpt>
      <trkpt lat="42.25921" lon="1.90105">
        <ele>1311.077</ele>
        <time>2019-04-07T22:48:07Z</time>
      </trkpt>
      <trkpt lat="42.25922" lon="1.90103">
        <ele>1311.148</ele>
        <time>2019-04-07T22:48:08Z</time>
      </trkpt>
      <trkpt lat="42.25925" lon="1.90098">
        <ele>1312.268</ele>
        <time>2019-04-07T22:48:10Z</time>
      </trkpt>
      <trkpt lat="42.25926" lon="1.90098">
        <ele>1312.552</ele>
        <time>2019-04-07T22:48:10Z</time>
      </trkpt>
      <trkpt lat="42.25932" lon="1.90101">
        <ele>1313.221</ele>
        <time>2019-04-07T22:48:13Z</time>
      </trkpt>
      <trkpt lat="42.25934" lon="1.90105">
        <ele>1313.333</ele>
        <time>2019-04-07T22:48:14Z</time>
      </trkpt>
      <trkpt lat="42.25936" lon="1.90108">
        <ele>1313.798</ele>
        <time>2019-04-07T22:48:15Z</time>
      </trkpt>
      <trkpt lat="42.25936" lon="1.9011">
        <ele>1313.515</ele>
        <time>2019-04-07T22:48:16Z</time>
      </trkpt>
      <trkpt lat="42.25937" lon="1.90116">
        <ele>1314.526</ele>
        <time>2019-04-07T22:48:18Z</time>
      </trkpt>
      <trkpt lat="42.25937" lon="1.90117">
        <ele>1315.008</ele>
        <time>2019-04-07T22:48:18Z</time>
      </trkpt>
      <trkpt lat="42.25939" lon="1.90123">
        <ele>1315.722</ele>
        <time>2019-04-07T22:48:20Z</time>
      </trkpt>
      <trkpt lat="42.2594" lon="1.90126">
        <ele>1316.184</ele>
        <time>2019-04-07T22:48:21Z</time>
      </trkpt>
      <trkpt lat="42.25941" lon="1.90126">
        <ele>1316.249</ele>
        <time>2019-04-07T22:48:21Z</time>
      </trkpt>
      <trkpt lat="42.25943" lon="1.90128">
        <ele>1316.98</ele>
        <time>2019-04-07T22:48:22Z</time>
      </trkpt>
      <trkpt lat="42.25945" lon="1.90132">
        <ele>1317.57</ele>
        <time>2019-04-07T22:48:24Z</time>
      </trkpt>
      <trkpt lat="42.25947" lon="1.90134">
        <ele>1317.994</ele>
        <time>2019-04-07T22:48:24Z</time>
      </trkpt>
      <trkpt lat="42.25949" lon="1.90137">
        <ele>1318.593</ele>
        <time>2019-04-07T22:48:26Z</time>
      </trkpt>
      <trkpt lat="42.25952" lon="1.90139">
        <ele>1319.225</ele>
        <time>2019-04-07T22:48:27Z</time>
      </trkpt>
      <trkpt lat="42.25954" lon="1.90142">
        <ele>1320.022</ele>
        <time>2019-04-07T22:48:28Z</time>
      </trkpt>
      <trkpt lat="42.25955" lon="1.90143">
        <ele>1320.262</ele>
        <time>2019-04-07T22:48:29Z</time>
      </trkpt>
      <trkpt lat="42.25956" lon="1.90152">
        <ele>1321.008</ele>
        <time>2019-04-07T22:48:31Z</time>
      </trkpt>
      <trkpt lat="42.25957" lon="1.90155">
        <ele>1321.408</ele>
        <time>2019-04-07T22:48:32Z</time>
      </trkpt>
      <trkpt lat="42.25958" lon="1.90158">
        <ele>1322.155</ele>
        <time>2019-04-07T22:48:33Z</time>
      </trkpt>
      <trkpt lat="42.25957" lon="1.90159">
        <ele>1322.737</ele>
        <time>2019-04-07T22:48:34Z</time>
      </trkpt>
      <trkpt lat="42.25957" lon="1.90161">
        <ele>1322.982</ele>
        <time>2019-04-07T22:48:34Z</time>
      </trkpt>
      <trkpt lat="42.25957" lon="1.90167">
        <ele>1323.113</ele>
        <time>2019-04-07T22:48:36Z</time>
      </trkpt>
      <trkpt lat="42.25958" lon="1.9017">
        <ele>1323.913</ele>
        <time>2019-04-07T22:48:37Z</time>
      </trkpt>
      <trkpt lat="42.25958" lon="1.90176">
        <ele>1324.627</ele>
        <time>2019-04-07T22:48:39Z</time>
      </trkpt>
      <trkpt lat="42.25958" lon="1.90177">
        <ele>1325.026</ele>
        <time>2019-04-07T22:48:39Z</time>
      </trkpt>
      <trkpt lat="42.2596" lon="1.90181">
        <ele>1325.698</ele>
        <time>2019-04-07T22:48:40Z</time>
      </trkpt>
      <trkpt lat="42.25961" lon="1.90184">
        <ele>1325.979</ele>
        <time>2019-04-07T22:48:41Z</time>
      </trkpt>
      <trkpt lat="42.25964" lon="1.90187">
        <ele>1326.305</ele>
        <time>2019-04-07T22:48:43Z</time>
      </trkpt>
      <trkpt lat="42.25964" lon="1.90186">
        <ele>1326.125</ele>
        <time>2019-04-07T22:48:43Z</time>
      </trkpt>
      <trkpt lat="42.25966" lon="1.90183">
        <ele>1326.408</ele>
        <time>2019-04-07T22:48:44Z</time>
      </trkpt>
      <trkpt lat="42.25967" lon="1.90184">
        <ele>1326.32</ele>
        <time>2019-04-07T22:48:45Z</time>
      </trkpt>
      <trkpt lat="42.25966" lon="1.90184">
        <ele>1326.182</ele>
        <time>2019-04-07T22:48:45Z</time>
      </trkpt>
      <trkpt lat="42.25965" lon="1.90186">
        <ele>1326.027</ele>
        <time>2019-04-07T22:48:46Z</time>
      </trkpt>
      <trkpt lat="42.25966" lon="1.90187">
        <ele>1326.138</ele>
        <time>2019-04-07T22:48:46Z</time>
      </trkpt>
      <trkpt lat="42.25969" lon="1.90187">
        <ele>1326.328</ele>
        <time>2019-04-07T22:48:47Z</time>
      </trkpt>
      <trkpt lat="42.2597" lon="1.90186">
        <ele>1326.132</ele>
        <time>2019-04-07T22:48:48Z</time>
      </trkpt>
      <trkpt lat="42.25968" lon="1.90187">
        <ele>1326.161</ele>
        <time>2019-04-07T22:48:48Z</time>
      </trkpt>
      <trkpt lat="42.25968" lon="1.90188">
        <ele>1326.273</ele>
        <time>2019-04-07T22:48:49Z</time>
      </trkpt>
      <trkpt lat="42.25968" lon="1.9019">
        <ele>1325.925</ele>
        <time>2019-04-07T22:48:49Z</time>
      </trkpt>
      <trkpt lat="42.25974" lon="1.902">
        <ele>1325.926</ele>
        <time>2019-04-07T22:48:53Z</time>
      </trkpt>
      <trkpt lat="42.25976" lon="1.90203">
        <ele>1325.508</ele>
        <time>2019-04-07T22:48:54Z</time>
      </trkpt>
      <trkpt lat="42.25977" lon="1.90206">
        <ele>1325.808</ele>
        <time>2019-04-07T22:48:55Z</time>
      </trkpt>
      <trkpt lat="42.25978" lon="1.9021">
        <ele>1326.215</ele>
        <time>2019-04-07T22:48:57Z</time>
      </trkpt>
      <trkpt lat="42.25979" lon="1.90211">
        <ele>1326.587</ele>
        <time>2019-04-07T22:48:57Z</time>
      </trkpt>
      <trkpt lat="42.2598" lon="1.90214">
        <ele>1327.262</ele>
        <time>2019-04-07T22:48:58Z</time>
      </trkpt>
      <trkpt lat="42.25986" lon="1.90223">
        <ele>1327.653</ele>
        <time>2019-04-07T22:49:01Z</time>
      </trkpt>
      <trkpt lat="42.25987" lon="1.90225">
        <ele>1327.633</ele>
        <time>2019-04-07T22:49:02Z</time>
      </trkpt>
      <trkpt lat="42.25988" lon="1.90225">
        <ele>1327.637</ele>
        <time>2019-04-07T22:49:03Z</time>
      </trkpt>
      <trkpt lat="42.2599" lon="1.90225">
        <ele>1327.196</ele>
        <time>2019-04-07T22:49:03Z</time>
      </trkpt>
      <trkpt lat="42.2599" lon="1.90225">
        <ele>1326.988</ele>
        <time>2019-04-07T22:49:04Z</time>
      </trkpt>
      <trkpt lat="42.2599" lon="1.90226">
        <ele>1326.933</ele>
        <time>2019-04-07T22:49:04Z</time>
      </trkpt>
      <trkpt lat="42.25992" lon="1.90219">
        <ele>1328.123</ele>
        <time>2019-04-07T22:49:06Z</time>
      </trkpt>
      <trkpt lat="42.25994" lon="1.90219">
        <ele>1328.815</ele>
        <time>2019-04-07T22:49:06Z</time>
      </trkpt>
      <trkpt lat="42.25994" lon="1.90218">
        <ele>1329.508</ele>
        <time>2019-04-07T22:49:07Z</time>
      </trkpt>
      <trkpt lat="42.25994" lon="1.90218">
        <ele>1329.986</ele>
        <time>2019-04-07T22:49:07Z</time>
      </trkpt>
      <trkpt lat="42.25995" lon="1.90217">
        <ele>1330.668</ele>
        <time>2019-04-07T22:49:07Z</time>
      </trkpt>
      <trkpt lat="42.25994" lon="1.90218">
        <ele>1330.533</ele>
        <time>2019-04-07T22:49:07Z</time>
      </trkpt>
      <trkpt lat="42.25993" lon="1.90217">
        <ele>1331.554</ele>
        <time>2019-04-07T22:49:08Z</time>
      </trkpt>
      <trkpt lat="42.25993" lon="1.90217">
        <ele>1331.684</ele>
        <time>2019-04-07T22:49:08Z</time>
      </trkpt>
      <trkpt lat="42.25992" lon="1.90215">
        <ele>1332.238</ele>
        <time>2019-04-07T22:49:09Z</time>
      </trkpt>
      <trkpt lat="42.25991" lon="1.90214">
        <ele>1333.077</ele>
        <time>2019-04-07T22:49:09Z</time>
      </trkpt>
      <trkpt lat="42.2599" lon="1.90211">
        <ele>1333.679</ele>
        <time>2019-04-07T22:49:10Z</time>
      </trkpt>
      <trkpt lat="42.25989" lon="1.90208">
        <ele>1334.241</ele>
        <time>2019-04-07T22:49:11Z</time>
      </trkpt>
      <trkpt lat="42.25988" lon="1.90206">
        <ele>1335.181</ele>
        <time>2019-04-07T22:49:12Z</time>
      </trkpt>
      <trkpt lat="42.25988" lon="1.90205">
        <ele>1335.109</ele>
        <time>2019-04-07T22:49:12Z</time>
      </trkpt>
      <trkpt lat="42.25989" lon="1.90201">
        <ele>1336.008</ele>
        <time>2019-04-07T22:49:14Z</time>
      </trkpt>
      <trkpt lat="42.25989" lon="1.902">
        <ele>1336.397</ele>
        <time>2019-04-07T22:49:14Z</time>
      </trkpt>
      <trkpt lat="42.25989" lon="1.90199">
        <ele>1336.249</ele>
        <time>2019-04-07T22:49:14Z</time>
      </trkpt>
      <trkpt lat="42.25988" lon="1.90195">
        <ele>1337.624</ele>
        <time>2019-04-07T22:49:16Z</time>
      </trkpt>
      <trkpt lat="42.25988" lon="1.90194">
        <ele>1337.965</ele>
        <time>2019-04-07T22:49:16Z</time>
      </trkpt>
      <trkpt lat="42.25988" lon="1.90194">
        <ele>1338.195</ele>
        <time>2019-04-07T22:49:16Z</time>
      </trkpt>
      <trkpt lat="42.25988" lon="1.90191">
        <ele>1338.739</ele>
        <time>2019-04-07T22:49:17Z</time>
      </trkpt>
      <trkpt lat="42.25988" lon="1.90189">
        <ele>1338.898</ele>
        <time>2019-04-07T22:49:17Z</time>
      </trkpt>
      <trkpt lat="42.25989" lon="1.90188">
        <ele>1339.22</ele>
        <time>2019-04-07T22:49:18Z</time>
      </trkpt>
      <trkpt lat="42.2599" lon="1.90188">
        <ele>1339.367</ele>
        <time>2019-04-07T22:49:18Z</time>
      </trkpt>
      <trkpt lat="42.25991" lon="1.90185">
        <ele>1339.581</ele>
        <time>2019-04-07T22:49:19Z</time>
      </trkpt>
      <trkpt lat="42.25991" lon="1.90184">
        <ele>1340.019</ele>
        <time>2019-04-07T22:49:19Z</time>
      </trkpt>
      <trkpt lat="42.25992" lon="1.90182">
        <ele>1340.408</ele>
        <time>2019-04-07T22:49:20Z</time>
      </trkpt>
      <trkpt lat="42.25993" lon="1.90182">
        <ele>1340.749</ele>
        <time>2019-04-07T22:49:20Z</time>
      </trkpt>
      <trkpt lat="42.25994" lon="1.90182">
        <ele>1340.921</ele>
        <time>2019-04-07T22:49:21Z</time>
      </trkpt>
      <trkpt lat="42.25994" lon="1.90182">
        <ele>1341.386</ele>
        <time>2019-04-07T22:49:21Z</time>
      </trkpt>
      <trkpt lat="42.25994" lon="1.90181">
        <ele>1341.937</ele>
        <time>2019-04-07T22:49:21Z</time>
      </trkpt>
      <trkpt lat="42.25995" lon="1.90179">
        <ele>1342.637</ele>
        <time>2019-04-07T22:49:22Z</time>
      </trkpt>
      <trkpt lat="42.25996" lon="1.90178">
        <ele>1342.951</ele>
        <time>2019-04-07T22:49:22Z</time>
      </trkpt>
      <trkpt lat="42.25996" lon="1.90178">
        <ele>1343.16</ele>
        <time>2019-04-07T22:49:22Z</time>
      </trkpt>
      <trkpt lat="42.25996" lon="1.90175">
        <ele>1344.122</ele>
        <time>2019-04-07T22:49:23Z</time>
      </trkpt>
      <trkpt lat="42.25996" lon="1.90172">
        <ele>1344.523</ele>
        <time>2019-04-07T22:49:24Z</time>
      </trkpt>
      <trkpt lat="42.25996" lon="1.90172">
        <ele>1344.583</ele>
        <time>2019-04-07T22:49:24Z</time>
      </trkpt>
      <trkpt lat="42.25996" lon="1.90171">
        <ele>1344.511</ele>
        <time>2019-04-07T22:49:25Z</time>
      </trkpt>
      <trkpt lat="42.25997" lon="1.90169">
        <ele>1345.108</ele>
        <time>2019-04-07T22:49:25Z</time>
      </trkpt>
      <trkpt lat="42.25997" lon="1.90168">
        <ele>1346.015</ele>
        <time>2019-04-07T22:49:26Z</time>
      </trkpt>
      <trkpt lat="42.25997" lon="1.90167">
        <ele>1346.277</ele>
        <time>2019-04-07T22:49:26Z</time>
      </trkpt>
      <trkpt lat="42.25994" lon="1.90164">
        <ele>1347.272</ele>
        <time>2019-04-07T22:49:27Z</time>
      </trkpt>
      <trkpt lat="42.25993" lon="1.90163">
        <ele>1347.263</ele>
        <time>2019-04-07T22:49:28Z</time>
      </trkpt>
      <trkpt lat="42.25993" lon="1.90161">
        <ele>1347.283</ele>
        <time>2019-04-07T22:49:28Z</time>
      </trkpt>
      <trkpt lat="42.25993" lon="1.90158">
        <ele>1347.537</ele>
        <time>2019-04-07T22:49:29Z</time>
      </trkpt>
      <trkpt lat="42.25994" lon="1.90156">
        <ele>1347.966</ele>
        <time>2019-04-07T22:49:30Z</time>
      </trkpt>
      <trkpt lat="42.25995" lon="1.90155">
        <ele>1347.998</ele>
        <time>2019-04-07T22:49:31Z</time>
      </trkpt>
      <trkpt lat="42.25996" lon="1.90153">
        <ele>1348.192</ele>
        <time>2019-04-07T22:49:31Z</time>
      </trkpt>
      <trkpt lat="42.25997" lon="1.90153">
        <ele>1348.373</ele>
        <time>2019-04-07T22:49:32Z</time>
      </trkpt>
      <trkpt lat="42.25998" lon="1.90151">
        <ele>1348.82</ele>
        <time>2019-04-07T22:49:32Z</time>
      </trkpt>
      <trkpt lat="42.26" lon="1.90152">
        <ele>1349.408</ele>
        <time>2019-04-07T22:49:33Z</time>
      </trkpt>
      <trkpt lat="42.26" lon="1.90153">
        <ele>1349.582</ele>
        <time>2019-04-07T22:49:33Z</time>
      </trkpt>
      <trkpt lat="42.26" lon="1.90152">
        <ele>1350.644</ele>
        <time>2019-04-07T22:49:34Z</time>
      </trkpt>
      <trkpt lat="42.26" lon="1.90151">
        <ele>1350.569</ele>
        <time>2019-04-07T22:49:34Z</time>
      </trkpt>
      <trkpt lat="42.26001" lon="1.90147">
        <ele>1351.29</ele>
        <time>2019-04-07T22:49:35Z</time>
      </trkpt>
      <trkpt lat="42.26002" lon="1.90147">
        <ele>1351.68</ele>
        <time>2019-04-07T22:49:35Z</time>
      </trkpt>
      <trkpt lat="42.26002" lon="1.90146">
        <ele>1351.854</ele>
        <time>2019-04-07T22:49:36Z</time>
      </trkpt>
      <trkpt lat="42.26005" lon="1.90142">
        <ele>1352.783</ele>
        <time>2019-04-07T22:49:37Z</time>
      </trkpt>
      <trkpt lat="42.26008" lon="1.90143">
        <ele>1353.595</ele>
        <time>2019-04-07T22:49:38Z</time>
      </trkpt>
      <trkpt lat="42.26008" lon="1.90142">
        <ele>1353.611</ele>
        <time>2019-04-07T22:49:38Z</time>
      </trkpt>
      <trkpt lat="42.26012" lon="1.90137">
        <ele>1354.521</ele>
        <time>2019-04-07T22:49:41Z</time>
      </trkpt>
      <trkpt lat="42.26013" lon="1.90137">
        <ele>1355.003</ele>
        <time>2019-04-07T22:49:41Z</time>
      </trkpt>
      <trkpt lat="42.26015" lon="1.90133">
        <ele>1356.008</ele>
        <time>2019-04-07T22:49:42Z</time>
      </trkpt>
      <trkpt lat="42.26016" lon="1.90132">
        <ele>1356.714</ele>
        <time>2019-04-07T22:49:43Z</time>
      </trkpt>
      <trkpt lat="42.26018" lon="1.9013">
        <ele>1357.216</ele>
        <time>2019-04-07T22:49:44Z</time>
      </trkpt>
      <trkpt lat="42.26019" lon="1.90127">
        <ele>1357.231</ele>
        <time>2019-04-07T22:49:45Z</time>
      </trkpt>
      <trkpt lat="42.26019" lon="1.90127">
        <ele>1357.592</ele>
        <time>2019-04-07T22:49:45Z</time>
      </trkpt>
      <trkpt lat="42.26022" lon="1.90123">
        <ele>1358.082</ele>
        <time>2019-04-07T22:49:46Z</time>
      </trkpt>
      <trkpt lat="42.26023" lon="1.9012">
        <ele>1358.536</ele>
        <time>2019-04-07T22:49:47Z</time>
      </trkpt>
      <trkpt lat="42.26025" lon="1.90116">
        <ele>1359.355</ele>
        <time>2019-04-07T22:49:49Z</time>
      </trkpt>
      <trkpt lat="42.26026" lon="1.90114">
        <ele>1359.637</ele>
        <time>2019-04-07T22:49:50Z</time>
      </trkpt>
      <trkpt lat="42.26027" lon="1.90114">
        <ele>1359.681</ele>
        <time>2019-04-07T22:49:50Z</time>
      </trkpt>
      <trkpt lat="42.26028" lon="1.90113">
        <ele>1360.061</ele>
        <time>2019-04-07T22:49:51Z</time>
      </trkpt>
      <trkpt lat="42.26029" lon="1.90112">
        <ele>1360.417</ele>
        <time>2019-04-07T22:49:51Z</time>
      </trkpt>
      <trkpt lat="42.26029" lon="1.90111">
        <ele>1360.408</ele>
        <time>2019-04-07T22:49:51Z</time>
      </trkpt>
      <trkpt lat="42.2603" lon="1.90111">
        <ele>1360.631</ele>
        <time>2019-04-07T22:49:51Z</time>
      </trkpt>
      <trkpt lat="42.26029" lon="1.90105">
        <ele>1361.633</ele>
        <time>2019-04-07T22:49:53Z</time>
      </trkpt>
      <trkpt lat="42.2603" lon="1.90103">
        <ele>1362.148</ele>
        <time>2019-04-07T22:49:54Z</time>
      </trkpt>
      <trkpt lat="42.2603" lon="1.90103">
        <ele>1362.239</ele>
        <time>2019-04-07T22:49:54Z</time>
      </trkpt>
      <trkpt lat="42.26032" lon="1.90101">
        <ele>1362.769</ele>
        <time>2019-04-07T22:49:55Z</time>
      </trkpt>
      <trkpt lat="42.26033" lon="1.90098">
        <ele>1363.723</ele>
        <time>2019-04-07T22:49:56Z</time>
      </trkpt>
      <trkpt lat="42.26034" lon="1.90097">
        <ele>1364.082</ele>
        <time>2019-04-07T22:49:56Z</time>
      </trkpt>
      <trkpt lat="42.26035" lon="1.90094">
        <ele>1365.064</ele>
        <time>2019-04-07T22:49:57Z</time>
      </trkpt>
      <trkpt lat="42.26036" lon="1.90091">
        <ele>1365.627</ele>
        <time>2019-04-07T22:49:58Z</time>
      </trkpt>
      <trkpt lat="42.26038" lon="1.90087">
        <ele>1366.168</ele>
        <time>2019-04-07T22:50:00Z</time>
      </trkpt>
      <trkpt lat="42.26039" lon="1.90082">
        <ele>1366.814</ele>
        <time>2019-04-07T22:50:01Z</time>
      </trkpt>
      <trkpt lat="42.26039" lon="1.90081">
        <ele>1367.108</ele>
        <time>2019-04-07T22:50:02Z</time>
      </trkpt>
      <trkpt lat="42.26039" lon="1.90079">
        <ele>1367.545</ele>
        <time>2019-04-07T22:50:02Z</time>
      </trkpt>
      <trkpt lat="42.26041" lon="1.90076">
        <ele>1368.127</ele>
        <time>2019-04-07T22:50:03Z</time>
      </trkpt>
      <trkpt lat="42.26041" lon="1.90074">
        <ele>1368.782</ele>
        <time>2019-04-07T22:50:04Z</time>
      </trkpt>
      <trkpt lat="42.26041" lon="1.90072">
        <ele>1369.263</ele>
        <time>2019-04-07T22:50:04Z</time>
      </trkpt>
      <trkpt lat="42.26043" lon="1.90071">
        <ele>1369.993</ele>
        <time>2019-04-07T22:50:05Z</time>
      </trkpt>
      <trkpt lat="42.26043" lon="1.90071">
        <ele>1370.697</ele>
        <time>2019-04-07T22:50:05Z</time>
      </trkpt>
      <trkpt lat="42.26046" lon="1.90065">
        <ele>1371.626</ele>
        <time>2019-04-07T22:50:07Z</time>
      </trkpt>
      <trkpt lat="42.26046" lon="1.90064">
        <ele>1371.668</ele>
        <time>2019-04-07T22:50:08Z</time>
      </trkpt>
      <trkpt lat="42.26049" lon="1.90056">
        <ele>1372.614</ele>
        <time>2019-04-07T22:50:10Z</time>
      </trkpt>
      <trkpt lat="42.26051" lon="1.90054">
        <ele>1373.254</ele>
        <time>2019-04-07T22:50:11Z</time>
      </trkpt>
      <trkpt lat="42.26056" lon="1.90051">
        <ele>1373.809</ele>
        <time>2019-04-07T22:50:13Z</time>
      </trkpt>
      <trkpt lat="42.26057" lon="1.9005">
        <ele>1374.108</ele>
        <time>2019-04-07T22:50:14Z</time>
      </trkpt>
      <trkpt lat="42.26058" lon="1.90047">
        <ele>1374.864</ele>
        <time>2019-04-07T22:50:15Z</time>
      </trkpt>
      <trkpt lat="42.26058" lon="1.90046">
        <ele>1375.276</ele>
        <time>2019-04-07T22:50:15Z</time>
      </trkpt>
      <trkpt lat="42.26058" lon="1.90045">
        <ele>1375.281</ele>
        <time>2019-04-07T22:50:16Z</time>
      </trkpt>
      <trkpt lat="42.26058" lon="1.90043">
        <ele>1375.622</ele>
        <time>2019-04-07T22:50:16Z</time>
      </trkpt>
      <trkpt lat="42.26058" lon="1.9004">
        <ele>1376.132</ele>
        <time>2019-04-07T22:50:17Z</time>
      </trkpt>
      <trkpt lat="42.26061" lon="1.90033">
        <ele>1376.636</ele>
        <time>2019-04-07T22:50:20Z</time>
      </trkpt>
      <trkpt lat="42.26063" lon="1.90028">
        <ele>1377.265</ele>
        <time>2019-04-07T22:50:21Z</time>
      </trkpt>
      <trkpt lat="42.26065" lon="1.90023">
        <ele>1378.167</ele>
        <time>2019-04-07T22:50:23Z</time>
      </trkpt>
      <trkpt lat="42.26066" lon="1.90021">
        <ele>1378.356</ele>
        <time>2019-04-07T22:50:23Z</time>
      </trkpt>
      <trkpt lat="42.26068" lon="1.90016">
        <ele>1379.659</ele>
        <time>2019-04-07T22:50:25Z</time>
      </trkpt>
      <trkpt lat="42.26068" lon="1.90015">
        <ele>1379.414</ele>
        <time>2019-04-07T22:50:26Z</time>
      </trkpt>
      <trkpt lat="42.2607" lon="1.90009">
        <ele>1380.408</ele>
        <time>2019-04-07T22:50:27Z</time>
      </trkpt>
      <trkpt lat="42.26072" lon="1.90009">
        <ele>1380.758</ele>
        <time>2019-04-07T22:50:28Z</time>
      </trkpt>
      <trkpt lat="42.26074" lon="1.90007">
        <ele>1380.96</ele>
        <time>2019-04-07T22:50:29Z</time>
      </trkpt>
      <trkpt lat="42.26077" lon="1.90005">
        <ele>1381.595</ele>
        <time>2019-04-07T22:50:30Z</time>
      </trkpt>
      <trkpt lat="42.26077" lon="1.90003">
        <ele>1382.226</ele>
        <time>2019-04-07T22:50:31Z</time>
      </trkpt>
      <trkpt lat="42.26077" lon="1.90001">
        <ele>1382.556</ele>
        <time>2019-04-07T22:50:32Z</time>
      </trkpt>
      <trkpt lat="42.26076" lon="1.89995">
        <ele>1383.65</ele>
        <time>2019-04-07T22:50:33Z</time>
      </trkpt>
      <trkpt lat="42.26076" lon="1.89994">
        <ele>1383.949</ele>
        <time>2019-04-07T22:50:34Z</time>
      </trkpt>
      <trkpt lat="42.26079" lon="1.89985">
        <ele>1384.611</ele>
        <time>2019-04-07T22:50:37Z</time>
      </trkpt>
      <trkpt lat="42.26079" lon="1.89983">
        <ele>1384.951</ele>
        <time>2019-04-07T22:50:37Z</time>
      </trkpt>
      <trkpt lat="42.26078" lon="1.89977">
        <ele>1385.901</ele>
        <time>2019-04-07T22:50:39Z</time>
      </trkpt>
      <trkpt lat="42.26079" lon="1.89977">
        <ele>1386.011</ele>
        <time>2019-04-07T22:50:39Z</time>
      </trkpt>
      <trkpt lat="42.26079" lon="1.89975">
        <ele>1386.508</ele>
        <time>2019-04-07T22:50:40Z</time>
      </trkpt>
      <trkpt lat="42.26079" lon="1.89974">
        <ele>1387.118</ele>
        <time>2019-04-07T22:50:40Z</time>
      </trkpt>
      <trkpt lat="42.26079" lon="1.89972">
        <ele>1387.18</ele>
        <time>2019-04-07T22:50:41Z</time>
      </trkpt>
      <trkpt lat="42.26079" lon="1.89971">
        <ele>1387.545</ele>
        <time>2019-04-07T22:50:41Z</time>
      </trkpt>
      <trkpt lat="42.2608" lon="1.89971">
        <ele>1387.596</ele>
        <time>2019-04-07T22:50:41Z</time>
      </trkpt>
      <trkpt lat="42.2608" lon="1.89969">
        <ele>1388.066</ele>
        <time>2019-04-07T22:50:42Z</time>
      </trkpt>
      <trkpt lat="42.26082" lon="1.89966">
        <ele>1388.54</ele>
        <time>2019-04-07T22:50:43Z</time>
      </trkpt>
      <trkpt lat="42.26083" lon="1.89964">
        <ele>1389.299</ele>
        <time>2019-04-07T22:50:44Z</time>
      </trkpt>
      <trkpt lat="42.26086" lon="1.89962">
        <ele>1390.141</ele>
        <time>2019-04-07T22:50:45Z</time>
      </trkpt>
      <trkpt lat="42.26086" lon="1.89962">
        <ele>1390.576</ele>
        <time>2019-04-07T22:50:45Z</time>
      </trkpt>
      <trkpt lat="42.26088" lon="1.89957">
        <ele>1391.49</ele>
        <time>2019-04-07T22:50:47Z</time>
      </trkpt>
      <trkpt lat="42.26088" lon="1.89956">
        <ele>1391.519</ele>
        <time>2019-04-07T22:50:47Z</time>
      </trkpt>
      <trkpt lat="42.26088" lon="1.89956">
        <ele>1391.808</ele>
        <time>2019-04-07T22:50:47Z</time>
      </trkpt>
      <trkpt lat="42.2609" lon="1.89954">
        <ele>1392.54</ele>
        <time>2019-04-07T22:50:48Z</time>
      </trkpt>
      <trkpt lat="42.2609" lon="1.89952">
        <ele>1393.192</ele>
        <time>2019-04-07T22:50:49Z</time>
      </trkpt>
      <trkpt lat="42.26092" lon="1.89949">
        <ele>1393.767</ele>
        <time>2019-04-07T22:50:50Z</time>
      </trkpt>
      <trkpt lat="42.26093" lon="1.89948">
        <ele>1394.628</ele>
        <time>2019-04-07T22:50:50Z</time>
      </trkpt>
      <trkpt lat="42.26093" lon="1.89948">
        <ele>1395.028</ele>
        <time>2019-04-07T22:50:50Z</time>
      </trkpt>
      <trkpt lat="42.26096" lon="1.89945">
        <ele>1395.912</ele>
        <time>2019-04-07T22:50:52Z</time>
      </trkpt>
      <trkpt lat="42.26096" lon="1.89944">
        <ele>1396.171</ele>
        <time>2019-04-07T22:50:52Z</time>
      </trkpt>
      <trkpt lat="42.26097" lon="1.89941">
        <ele>1396.683</ele>
        <time>2019-04-07T22:50:53Z</time>
      </trkpt>
      <trkpt lat="42.26097" lon="1.89939">
        <ele>1397.062</ele>
        <time>2019-04-07T22:50:53Z</time>
      </trkpt>
      <trkpt lat="42.26097" lon="1.89938">
        <ele>1397.283</ele>
        <time>2019-04-07T22:50:54Z</time>
      </trkpt>
      <trkpt lat="42.26097" lon="1.89937">
        <ele>1397.511</ele>
        <time>2019-04-07T22:50:54Z</time>
      </trkpt>
      <trkpt lat="42.26097" lon="1.89936">
        <ele>1398.008</ele>
        <time>2019-04-07T22:50:54Z</time>
      </trkpt>
      <trkpt lat="42.26098" lon="1.89933">
        <ele>1398.519</ele>
        <time>2019-04-07T22:50:55Z</time>
      </trkpt>
      <trkpt lat="42.26099" lon="1.89931">
        <ele>1399.031</ele>
        <time>2019-04-07T22:50:56Z</time>
      </trkpt>
      <trkpt lat="42.261" lon="1.8993">
        <ele>1399.266</ele>
        <time>2019-04-07T22:50:56Z</time>
      </trkpt>
      <trkpt lat="42.26099" lon="1.89933">
        <ele>1399.847</ele>
        <time>2019-04-07T22:50:57Z</time>
      </trkpt>
      <trkpt lat="42.26103" lon="1.89926">
        <ele>1400.257</ele>
        <time>2019-04-07T22:51:00Z</time>
      </trkpt>
      <trkpt lat="42.26103" lon="1.89924">
        <ele>1400.251</ele>
        <time>2019-04-07T22:51:00Z</time>
      </trkpt>
      <trkpt lat="42.26106" lon="1.89922">
        <ele>1401.32</ele>
        <time>2019-04-07T22:51:02Z</time>
      </trkpt>
      <trkpt lat="42.26107" lon="1.89921">
        <ele>1401.952</ele>
        <time>2019-04-07T22:51:02Z</time>
      </trkpt>
      <trkpt lat="42.26108" lon="1.8992">
        <ele>1402.974</ele>
        <time>2019-04-07T22:51:03Z</time>
      </trkpt>
      <trkpt lat="42.26108" lon="1.89917">
        <ele>1403.156</ele>
        <time>2019-04-07T22:51:04Z</time>
      </trkpt>
      <trkpt lat="42.26109" lon="1.89916">
        <ele>1403.021</ele>
        <time>2019-04-07T22:51:04Z</time>
      </trkpt>
      <trkpt lat="42.2611" lon="1.89914">
        <ele>1403.808</ele>
        <time>2019-04-07T22:51:05Z</time>
      </trkpt>
      <trkpt lat="42.26111" lon="1.89913">
        <ele>1404.15</ele>
        <time>2019-04-07T22:51:05Z</time>
      </trkpt>
      <trkpt lat="42.26115" lon="1.89911">
        <ele>1404.572</ele>
        <time>2019-04-07T22:51:07Z</time>
      </trkpt>
      <trkpt lat="42.26116" lon="1.89911">
        <ele>1405.257</ele>
        <time>2019-04-07T22:51:07Z</time>
      </trkpt>
      <trkpt lat="42.26117" lon="1.89909">
        <ele>1406.368</ele>
        <time>2019-04-07T22:51:08Z</time>
      </trkpt>
      <trkpt lat="42.26118" lon="1.89906">
        <ele>1406.528</ele>
        <time>2019-04-07T22:51:09Z</time>
      </trkpt>
      <trkpt lat="42.26121" lon="1.89904">
        <ele>1407.282</ele>
        <time>2019-04-07T22:51:10Z</time>
      </trkpt>
      <trkpt lat="42.26122" lon="1.89904">
        <ele>1407.681</ele>
        <time>2019-04-07T22:51:11Z</time>
      </trkpt>
      <trkpt lat="42.26124" lon="1.89902">
        <ele>1407.733</ele>
        <time>2019-04-07T22:51:11Z</time>
      </trkpt>
      <trkpt lat="42.26126" lon="1.89896">
        <ele>1408.515</ele>
        <time>2019-04-07T22:51:14Z</time>
      </trkpt>
      <trkpt lat="42.26127" lon="1.89895">
        <ele>1408.665</ele>
        <time>2019-04-07T22:51:14Z</time>
      </trkpt>
      <trkpt lat="42.26127" lon="1.89895">
        <ele>1408.811</ele>
        <time>2019-04-07T22:51:14Z</time>
      </trkpt>
      <trkpt lat="42.26128" lon="1.89895">
        <ele>1409.008</ele>
        <time>2019-04-07T22:51:14Z</time>
      </trkpt>
      <trkpt lat="42.26128" lon="1.89896">
        <ele>1409.214</ele>
        <time>2019-04-07T22:51:15Z</time>
      </trkpt>
      <trkpt lat="42.26128" lon="1.89897">
        <ele>1409.626</ele>
        <time>2019-04-07T22:51:15Z</time>
      </trkpt>
      <trkpt lat="42.26128" lon="1.89898">
        <ele>1409.911</ele>
        <time>2019-04-07T22:51:15Z</time>
      </trkpt>
      <trkpt lat="42.26127" lon="1.89899">
        <ele>1410.232</ele>
        <time>2019-04-07T22:51:16Z</time>
      </trkpt>
      <trkpt lat="42.26127" lon="1.89903">
        <ele>1410.712</ele>
        <time>2019-04-07T22:51:17Z</time>
      </trkpt>
      <trkpt lat="42.26128" lon="1.89906">
        <ele>1411.076</ele>
        <time>2019-04-07T22:51:18Z</time>
      </trkpt>
      <trkpt lat="42.2613" lon="1.89911">
        <ele>1411.915</ele>
        <time>2019-04-07T22:51:19Z</time>
      </trkpt>
      <trkpt lat="42.2613" lon="1.89913">
        <ele>1412.087</ele>
        <time>2019-04-07T22:51:20Z</time>
      </trkpt>
      <trkpt lat="42.2613" lon="1.89914">
        <ele>1413.016</ele>
        <time>2019-04-07T22:51:20Z</time>
      </trkpt>
      <trkpt lat="42.2613" lon="1.89913">
        <ele>1413.076</ele>
        <time>2019-04-07T22:51:20Z</time>
      </trkpt>
      <trkpt lat="42.26131" lon="1.89907">
        <ele>1414.013</ele>
        <time>2019-04-07T22:51:22Z</time>
      </trkpt>
      <trkpt lat="42.26131" lon="1.89904">
        <ele>1414.808</ele>
        <time>2019-04-07T22:51:23Z</time>
      </trkpt>
      <trkpt lat="42.26132" lon="1.89903">
        <ele>1415.244</ele>
        <time>2019-04-07T22:51:24Z</time>
      </trkpt>
      <trkpt lat="42.26132" lon="1.89901">
        <ele>1415.596</ele>
        <time>2019-04-07T22:51:24Z</time>
      </trkpt>
      <trkpt lat="42.26134" lon="1.89894">
        <ele>1416.261</ele>
        <time>2019-04-07T22:51:26Z</time>
      </trkpt>
      <trkpt lat="42.26136" lon="1.89892">
        <ele>1417.062</ele>
        <time>2019-04-07T22:51:27Z</time>
      </trkpt>
      <trkpt lat="42.26139" lon="1.89889">
        <ele>1417.522</ele>
        <time>2019-04-07T22:51:29Z</time>
      </trkpt>
      <trkpt lat="42.26142" lon="1.89887">
        <ele>1417.946</ele>
        <time>2019-04-07T22:51:30Z</time>
      </trkpt>
      <trkpt lat="42.26143" lon="1.89888">
        <ele>1418.545</ele>
        <time>2019-04-07T22:51:31Z</time>
      </trkpt>
      <trkpt lat="42.26146" lon="1.89888">
        <ele>1419.687</ele>
        <time>2019-04-07T22:51:32Z</time>
      </trkpt>
      <trkpt lat="42.2615" lon="1.89886">
        <ele>1420.311</ele>
        <time>2019-04-07T22:51:33Z</time>
      </trkpt>
      <trkpt lat="42.26151" lon="1.89885">
        <ele>1420.921</ele>
        <time>2019-04-07T22:51:34Z</time>
      </trkpt>
      <trkpt lat="42.26151" lon="1.89884">
        <ele>1421.403</ele>
        <time>2019-04-07T22:51:34Z</time>
      </trkpt>
      <trkpt lat="42.26151" lon="1.89884">
        <ele>1421.808</ele>
        <time>2019-04-07T22:51:34Z</time>
      </trkpt>
      <trkpt lat="42.26149" lon="1.89882">
        <ele>1422.794</ele>
        <time>2019-04-07T22:51:36Z</time>
      </trkpt>
      <trkpt lat="42.26145" lon="1.89882">
        <ele>1422.646</ele>
        <time>2019-04-07T22:51:37Z</time>
      </trkpt>
      <trkpt lat="42.26146" lon="1.8988">
        <ele>1422.711</ele>
        <time>2019-04-07T22:51:37Z</time>
      </trkpt>
      <trkpt lat="42.26147" lon="1.89879">
        <ele>1422.762</ele>
        <time>2019-04-07T22:51:38Z</time>
      </trkpt>
      <trkpt lat="42.26147" lon="1.89878">
        <ele>1422.982</ele>
        <time>2019-04-07T22:51:38Z</time>
      </trkpt>
      <trkpt lat="42.26147" lon="1.89878">
        <ele>1422.986</ele>
        <time>2019-04-07T22:51:38Z</time>
      </trkpt>
      <trkpt lat="42.26149" lon="1.8988">
        <ele>1423.055</ele>
        <time>2019-04-07T22:51:39Z</time>
      </trkpt>
      <trkpt lat="42.2615" lon="1.8988">
        <ele>1423.117</ele>
        <time>2019-04-07T22:51:40Z</time>
      </trkpt>
      <trkpt lat="42.2615" lon="1.8988">
        <ele>1423.198</ele>
        <time>2019-04-07T22:51:40Z</time>
      </trkpt>
      <trkpt lat="42.26149" lon="1.89884">
        <ele>1423.015</ele>
        <time>2019-04-07T22:51:41Z</time>
      </trkpt>
      <trkpt lat="42.2615" lon="1.89882">
        <ele>1423.026</ele>
        <time>2019-04-07T22:51:41Z</time>
      </trkpt>
      <trkpt lat="42.26153" lon="1.89885">
        <ele>1422.508</ele>
        <time>2019-04-07T22:51:43Z</time>
      </trkpt>
      <trkpt lat="42.26153" lon="1.89885">
        <ele>1422.562</ele>
        <time>2019-04-07T22:51:43Z</time>
      </trkpt>
      <trkpt lat="42.26152" lon="1.89884">
        <ele>1422.514</ele>
        <time>2019-04-07T22:51:44Z</time>
      </trkpt>
      <trkpt lat="42.26152" lon="1.89882">
        <ele>1422.599</ele>
        <time>2019-04-07T22:51:44Z</time>
      </trkpt>
      <trkpt lat="42.26157" lon="1.89881">
        <ele>1422.92</ele>
        <time>2019-04-07T22:51:46Z</time>
      </trkpt>
      <trkpt lat="42.26157" lon="1.89881">
        <ele>1423.11</ele>
        <time>2019-04-07T22:51:46Z</time>
      </trkpt>
      <trkpt lat="42.26157" lon="1.89881">
        <ele>1423.224</ele>
        <time>2019-04-07T22:51:46Z</time>
      </trkpt>
      <trkpt lat="42.26157" lon="1.89883">
        <ele>1423.843</ele>
        <time>2019-04-07T22:51:47Z</time>
      </trkpt>
      <trkpt lat="42.26157" lon="1.89882">
        <ele>1424.095</ele>
        <time>2019-04-07T22:51:47Z</time>
      </trkpt>
      <trkpt lat="42.26158" lon="1.89882">
        <ele>1424.017</ele>
        <time>2019-04-07T22:51:48Z</time>
      </trkpt>
      <trkpt lat="42.26159" lon="1.89881">
        <ele>1424.187</ele>
        <time>2019-04-07T22:51:48Z</time>
      </trkpt>
      <trkpt lat="42.26161" lon="1.8988">
        <ele>1424.115</ele>
        <time>2019-04-07T22:51:49Z</time>
      </trkpt>
      <trkpt lat="42.26162" lon="1.89878">
        <ele>1424.508</ele>
        <time>2019-04-07T22:51:49Z</time>
      </trkpt>
      <trkpt lat="42.26163" lon="1.89878">
        <ele>1425.124</ele>
        <time>2019-04-07T22:51:50Z</time>
      </trkpt>
      <trkpt lat="42.26164" lon="1.89877">
        <ele>1425.276</ele>
        <time>2019-04-07T22:51:50Z</time>
      </trkpt>
      <trkpt lat="42.26164" lon="1.89877">
        <ele>1425.521</ele>
        <time>2019-04-07T22:51:50Z</time>
      </trkpt>
      <trkpt lat="42.26166" lon="1.89877">
        <ele>1426.212</ele>
        <time>2019-04-07T22:51:51Z</time>
      </trkpt>
      <trkpt lat="42.26167" lon="1.89875">
        <ele>1426.462</ele>
        <time>2019-04-07T22:51:52Z</time>
      </trkpt>
      <trkpt lat="42.26168" lon="1.89872">
        <ele>1427.216</ele>
        <time>2019-04-07T22:51:53Z</time>
      </trkpt>
      <trkpt lat="42.26169" lon="1.89872">
        <ele>1427.725</ele>
        <time>2019-04-07T22:51:53Z</time>
      </trkpt>
      <trkpt lat="42.26172" lon="1.89871">
        <ele>1428.697</ele>
        <time>2019-04-07T22:51:54Z</time>
      </trkpt>
      <trkpt lat="42.26172" lon="1.89871">
        <ele>1428.652</ele>
        <time>2019-04-07T22:51:54Z</time>
      </trkpt>
      <trkpt lat="42.26173" lon="1.89867">
        <ele>1429.553</ele>
        <time>2019-04-07T22:51:56Z</time>
      </trkpt>
      <trkpt lat="42.26174" lon="1.89866">
        <ele>1429.508</ele>
        <time>2019-04-07T22:51:56Z</time>
      </trkpt>
      <trkpt lat="42.26175" lon="1.89865">
        <ele>1429.808</ele>
        <time>2019-04-07T22:51:56Z</time>
      </trkpt>
      <trkpt lat="42.26177" lon="1.89863">
        <ele>1430.628</ele>
        <time>2019-04-07T22:51:57Z</time>
      </trkpt>
      <trkpt lat="42.26177" lon="1.89861">
        <ele>1430.66</ele>
        <time>2019-04-07T22:51:58Z</time>
      </trkpt>
      <trkpt lat="42.2618" lon="1.89856">
        <ele>1431.975</ele>
        <time>2019-04-07T22:52:00Z</time>
      </trkpt>
      <trkpt lat="42.26182" lon="1.89854">
        <ele>1432.266</ele>
        <time>2019-04-07T22:52:01Z</time>
      </trkpt>
      <trkpt lat="42.26183" lon="1.89852">
        <ele>1432.696</ele>
        <time>2019-04-07T22:52:02Z</time>
      </trkpt>
      <trkpt lat="42.26184" lon="1.89852">
        <ele>1432.94</ele>
        <time>2019-04-07T22:52:02Z</time>
      </trkpt>
      <trkpt lat="42.26186" lon="1.89849">
        <ele>1433.889</ele>
        <time>2019-04-07T22:52:03Z</time>
      </trkpt>
      <trkpt lat="42.26187" lon="1.89849">
        <ele>1433.811</ele>
        <time>2019-04-07T22:52:03Z</time>
      </trkpt>
      <trkpt lat="42.26187" lon="1.89848">
        <ele>1434.223</ele>
        <time>2019-04-07T22:52:04Z</time>
      </trkpt>
      <trkpt lat="42.26187" lon="1.89847">
        <ele>1434.283</ele>
        <time>2019-04-07T22:52:04Z</time>
      </trkpt>
      <trkpt lat="42.2619" lon="1.8984">
        <ele>1434.511</ele>
        <time>2019-04-07T22:52:06Z</time>
      </trkpt>
      <trkpt lat="42.26191" lon="1.89839">
        <ele>1434.808</ele>
        <time>2019-04-07T22:52:07Z</time>
      </trkpt>
      <trkpt lat="42.26192" lon="1.89835">
        <ele>1435.155</ele>
        <time>2019-04-07T22:52:08Z</time>
      </trkpt>
      <trkpt lat="42.26193" lon="1.89833">
        <ele>1435.677</ele>
        <time>2019-04-07T22:52:09Z</time>
      </trkpt>
      <trkpt lat="42.26194" lon="1.89832">
        <ele>1435.892</ele>
        <time>2019-04-07T22:52:09Z</time>
      </trkpt>
      <trkpt lat="42.26195" lon="1.89831">
        <ele>1435.933</ele>
        <time>2019-04-07T22:52:09Z</time>
      </trkpt>
      <trkpt lat="42.26196" lon="1.8983">
        <ele>1436.153</ele>
        <time>2019-04-07T22:52:10Z</time>
      </trkpt>
      <trkpt lat="42.26196" lon="1.89829">
        <ele>1436.287</ele>
        <time>2019-04-07T22:52:10Z</time>
      </trkpt>
      <trkpt lat="42.26197" lon="1.89828">
        <ele>1436.656</ele>
        <time>2019-04-07T22:52:11Z</time>
      </trkpt>
      <trkpt lat="42.26198" lon="1.89826">
        <ele>1437.198</ele>
        <time>2019-04-07T22:52:11Z</time>
      </trkpt>
      <trkpt lat="42.26198" lon="1.89826">
        <ele>1437.196</ele>
        <time>2019-04-07T22:52:12Z</time>
      </trkpt>
      <trkpt lat="42.26199" lon="1.89824">
        <ele>1437.331</ele>
        <time>2019-04-07T22:52:12Z</time>
      </trkpt>
      <trkpt lat="42.26202" lon="1.89821">
        <ele>1438.024</ele>
        <time>2019-04-07T22:52:14Z</time>
      </trkpt>
      <trkpt lat="42.26203" lon="1.8982">
        <ele>1438.108</ele>
        <time>2019-04-07T22:52:14Z</time>
      </trkpt>
      <trkpt lat="42.26203" lon="1.89818">
        <ele>1438.682</ele>
        <time>2019-04-07T22:52:15Z</time>
      </trkpt>
      <trkpt lat="42.26205" lon="1.89815">
        <ele>1439.224</ele>
        <time>2019-04-07T22:52:16Z</time>
      </trkpt>
      <trkpt lat="42.26209" lon="1.89813">
        <ele>1439.579</ele>
        <time>2019-04-07T22:52:17Z</time>
      </trkpt>
      <trkpt lat="42.2621" lon="1.89813">
        <ele>1439.96</ele>
        <time>2019-04-07T22:52:18Z</time>
      </trkpt>
      <trkpt lat="42.26212" lon="1.8981">
        <ele>1440.59</ele>
        <time>2019-04-07T22:52:19Z</time>
      </trkpt>
      <trkpt lat="42.26213" lon="1.89809">
        <ele>1441.174</ele>
        <time>2019-04-07T22:52:20Z</time>
      </trkpt>
      <trkpt lat="42.26215" lon="1.89809">
        <ele>1441.593</ele>
        <time>2019-04-07T22:52:21Z</time>
      </trkpt>
      <trkpt lat="42.26217" lon="1.89807">
        <ele>1441.815</ele>
        <time>2019-04-07T22:52:21Z</time>
      </trkpt>
      <trkpt lat="42.26217" lon="1.89807">
        <ele>1442.099</ele>
        <time>2019-04-07T22:52:22Z</time>
      </trkpt>
      <trkpt lat="42.26222" lon="1.89805">
        <ele>1442.907</ele>
        <time>2019-04-07T22:52:24Z</time>
      </trkpt>
      <trkpt lat="42.26223" lon="1.89804">
        <ele>1443.027</ele>
        <time>2019-04-07T22:52:24Z</time>
      </trkpt>
      <trkpt lat="42.26226" lon="1.89801">
        <ele>1443.508</ele>
        <time>2019-04-07T22:52:26Z</time>
      </trkpt>
      <trkpt lat="42.26227" lon="1.89799">
        <ele>1444.112</ele>
        <time>2019-04-07T22:52:26Z</time>
      </trkpt>
      <trkpt lat="42.26227" lon="1.89798">
        <ele>1444.114</ele>
        <time>2019-04-07T22:52:27Z</time>
      </trkpt>
      <trkpt lat="42.2623" lon="1.89794">
        <ele>1445.249</ele>
        <time>2019-04-07T22:52:28Z</time>
      </trkpt>
      <trkpt lat="42.2623" lon="1.89793">
        <ele>1445.26</ele>
        <time>2019-04-07T22:52:28Z</time>
      </trkpt>
      <trkpt lat="42.26231" lon="1.89793">
        <ele>1445.59</ele>
        <time>2019-04-07T22:52:29Z</time>
      </trkpt>
      <trkpt lat="42.26232" lon="1.89792">
        <ele>1446.014</ele>
        <time>2019-04-07T22:52:29Z</time>
      </trkpt>
      <trkpt lat="42.26233" lon="1.89791">
        <ele>1446.293</ele>
        <time>2019-04-07T22:52:30Z</time>
      </trkpt>
      <trkpt lat="42.26234" lon="1.8979">
        <ele>1446.275</ele>
        <time>2019-04-07T22:52:30Z</time>
      </trkpt>
      <trkpt lat="42.26235" lon="1.89788">
        <ele>1446.899</ele>
        <time>2019-04-07T22:52:31Z</time>
      </trkpt>
      <trkpt lat="42.26237" lon="1.89785">
        <ele>1447.107</ele>
        <time>2019-04-07T22:52:32Z</time>
      </trkpt>
      <trkpt lat="42.26238" lon="1.89783">
        <ele>1447.127</ele>
        <time>2019-04-07T22:52:33Z</time>
      </trkpt>
      <trkpt lat="42.26239" lon="1.8978">
        <ele>1447.508</ele>
        <time>2019-04-07T22:52:34Z</time>
      </trkpt>
      <trkpt lat="42.26239" lon="1.89778">
        <ele>1448.152</ele>
        <time>2019-04-07T22:52:35Z</time>
      </trkpt>
      <trkpt lat="42.2624" lon="1.89777">
        <ele>1448.494</ele>
        <time>2019-04-07T22:52:35Z</time>
      </trkpt>
      <trkpt lat="42.26241" lon="1.89778">
        <ele>1449.159</ele>
        <time>2019-04-07T22:52:35Z</time>
      </trkpt>
      <trkpt lat="42.26241" lon="1.89778">
        <ele>1449.29</ele>
        <time>2019-04-07T22:52:36Z</time>
      </trkpt>
      <trkpt lat="42.26242" lon="1.8978">
        <ele>1449.58</ele>
        <time>2019-04-07T22:52:36Z</time>
      </trkpt>
      <trkpt lat="42.26242" lon="1.89781">
        <ele>1449.654</ele>
        <time>2019-04-07T22:52:36Z</time>
      </trkpt>
      <trkpt lat="42.26244" lon="1.89784">
        <ele>1449.973</ele>
        <time>2019-04-07T22:52:37Z</time>
      </trkpt>
      <trkpt lat="42.26244" lon="1.89785">
        <ele>1450.015</ele>
        <time>2019-04-07T22:52:38Z</time>
      </trkpt>
      <trkpt lat="42.26247" lon="1.8979">
        <ele>1450.211</ele>
        <time>2019-04-07T22:52:40Z</time>
      </trkpt>
      <trkpt lat="42.26247" lon="1.89792">
        <ele>1450.521</ele>
        <time>2019-04-07T22:52:40Z</time>
      </trkpt>
      <trkpt lat="42.26248" lon="1.89793">
        <ele>1450.503</ele>
        <time>2019-04-07T22:52:41Z</time>
      </trkpt>
      <trkpt lat="42.26248" lon="1.89794">
        <ele>1451.008</ele>
        <time>2019-04-07T22:52:41Z</time>
      </trkpt>
      <trkpt lat="42.26248" lon="1.89796">
        <ele>1451.954</ele>
        <time>2019-04-07T22:52:41Z</time>
      </trkpt>
      <trkpt lat="42.26249" lon="1.89798">
        <ele>1452.076</ele>
        <time>2019-04-07T22:52:42Z</time>
      </trkpt>
      <trkpt lat="42.2625" lon="1.898">
        <ele>1452.251</ele>
        <time>2019-04-07T22:52:43Z</time>
      </trkpt>
      <trkpt lat="42.2625" lon="1.89802">
        <ele>1453.222</ele>
        <time>2019-04-07T22:52:44Z</time>
      </trkpt>
      <trkpt lat="42.26249" lon="1.89805">
        <ele>1453.272</ele>
        <time>2019-04-07T22:52:44Z</time>
      </trkpt>
      <trkpt lat="42.26249" lon="1.89806">
        <ele>1453.646</ele>
        <time>2019-04-07T22:52:45Z</time>
      </trkpt>
      <trkpt lat="42.26249" lon="1.89808">
        <ele>1454.085</ele>
        <time>2019-04-07T22:52:45Z</time>
      </trkpt>
      <trkpt lat="42.26249" lon="1.89808">
        <ele>1454.117</ele>
        <time>2019-04-07T22:52:45Z</time>
      </trkpt>
      <trkpt lat="42.26249" lon="1.89809">
        <ele>1454.385</ele>
        <time>2019-04-07T22:52:46Z</time>
      </trkpt>
      <trkpt lat="42.26249" lon="1.89812">
        <ele>1454.689</ele>
        <time>2019-04-07T22:52:46Z</time>
      </trkpt>
      <trkpt lat="42.2625" lon="1.89813">
        <ele>1454.817</ele>
        <time>2019-04-07T22:52:47Z</time>
      </trkpt>
      <trkpt lat="42.2625" lon="1.89816">
        <ele>1455.008</ele>
        <time>2019-04-07T22:52:48Z</time>
      </trkpt>
      <trkpt lat="42.2625" lon="1.89817">
        <ele>1455.381</ele>
        <time>2019-04-07T22:52:48Z</time>
      </trkpt>
      <trkpt lat="42.26251" lon="1.8982">
        <ele>1455.833</ele>
        <time>2019-04-07T22:52:49Z</time>
      </trkpt>
      <trkpt lat="42.26251" lon="1.89822">
        <ele>1456.188</ele>
        <time>2019-04-07T22:52:50Z</time>
      </trkpt>
      <trkpt lat="42.26252" lon="1.89824">
        <ele>1456.659</ele>
        <time>2019-04-07T22:52:50Z</time>
      </trkpt>
      <trkpt lat="42.26251" lon="1.89825">
        <ele>1456.759</ele>
        <time>2019-04-07T22:52:51Z</time>
      </trkpt>
      <trkpt lat="42.26251" lon="1.89826">
        <ele>1456.943</ele>
        <time>2019-04-07T22:52:51Z</time>
      </trkpt>
      <trkpt lat="42.26251" lon="1.89828">
        <ele>1457.252</ele>
        <time>2019-04-07T22:52:51Z</time>
      </trkpt>
      <trkpt lat="42.26251" lon="1.89828">
        <ele>1457.364</ele>
        <time>2019-04-07T22:52:52Z</time>
      </trkpt>
      <trkpt lat="42.26252" lon="1.8983">
        <ele>1457.683</ele>
        <time>2019-04-07T22:52:52Z</time>
      </trkpt>
      <trkpt lat="42.26251" lon="1.89831">
        <ele>1458.125</ele>
        <time>2019-04-07T22:52:52Z</time>
      </trkpt>
      <trkpt lat="42.26251" lon="1.89831">
        <ele>1458.117</ele>
        <time>2019-04-07T22:52:52Z</time>
      </trkpt>
      <trkpt lat="42.26251" lon="1.89831">
        <ele>1458.508</ele>
        <time>2019-04-07T22:52:52Z</time>
      </trkpt>
      <trkpt lat="42.26251" lon="1.89832">
        <ele>1459.041</ele>
        <time>2019-04-07T22:52:53Z</time>
      </trkpt>
      <trkpt lat="42.26251" lon="1.89833">
        <ele>1459.343</ele>
        <time>2019-04-07T22:52:53Z</time>
      </trkpt>
      <trkpt lat="42.26251" lon="1.89834">
        <ele>1459.478</ele>
        <time>2019-04-07T22:52:53Z</time>
      </trkpt>
      <trkpt lat="42.2625" lon="1.89834">
        <ele>1459.729</ele>
        <time>2019-04-07T22:52:53Z</time>
      </trkpt>
      <trkpt lat="42.2625" lon="1.89833">
        <ele>1460.279</ele>
        <time>2019-04-07T22:52:54Z</time>
      </trkpt>
      <trkpt lat="42.2625" lon="1.89831">
        <ele>1460.953</ele>
        <time>2019-04-07T22:52:55Z</time>
      </trkpt>
      <trkpt lat="42.26251" lon="1.8983">
        <ele>1461.142</ele>
        <time>2019-04-07T22:52:55Z</time>
      </trkpt>
      <trkpt lat="42.26252" lon="1.8983">
        <ele>1461.934</ele>
        <time>2019-04-07T22:52:55Z</time>
      </trkpt>
      <trkpt lat="42.26253" lon="1.89829">
        <ele>1462.443</ele>
        <time>2019-04-07T22:52:56Z</time>
      </trkpt>
      <trkpt lat="42.26254" lon="1.89826">
        <ele>1463.364</ele>
        <time>2019-04-07T22:52:57Z</time>
      </trkpt>
      <trkpt lat="42.26256" lon="1.89821">
        <ele>1464.51</ele>
        <time>2019-04-07T22:52:58Z</time>
      </trkpt>
      <trkpt lat="42.26257" lon="1.8982">
        <ele>1465.008</ele>
        <time>2019-04-07T22:52:59Z</time>
      </trkpt>
      <trkpt lat="42.26258" lon="1.8982">
        <ele>1465.217</ele>
        <time>2019-04-07T22:52:59Z</time>
      </trkpt>
      <trkpt lat="42.26259" lon="1.89822">
        <ele>1465.649</ele>
        <time>2019-04-07T22:53:00Z</time>
      </trkpt>
      <trkpt lat="42.26259" lon="1.89822">
        <ele>1466.264</ele>
        <time>2019-04-07T22:53:00Z</time>
      </trkpt>
      <trkpt lat="42.2626" lon="1.89821">
        <ele>1467.045</ele>
        <time>2019-04-07T22:53:01Z</time>
      </trkpt>
      <trkpt lat="42.26261" lon="1.89819">
        <ele>1467.865</ele>
        <time>2019-04-07T22:53:01Z</time>
      </trkpt>
      <trkpt lat="42.26267" lon="1.89818">
        <ele>1469.069</ele>
        <time>2019-04-07T22:53:04Z</time>
      </trkpt>
      <trkpt lat="42.26268" lon="1.89818">
        <ele>1469.188</ele>
        <time>2019-04-07T22:53:04Z</time>
      </trkpt>
      <trkpt lat="42.2627" lon="1.89815">
        <ele>1470.19</ele>
        <time>2019-04-07T22:53:05Z</time>
      </trkpt>
      <trkpt lat="42.26274" lon="1.89811">
        <ele>1471.181</ele>
        <time>2019-04-07T22:53:07Z</time>
      </trkpt>
      <trkpt lat="42.26274" lon="1.8981">
        <ele>1471.161</ele>
        <time>2019-04-07T22:53:07Z</time>
      </trkpt>
      <trkpt lat="42.2628" lon="1.89806">
        <ele>1472.017</ele>
        <time>2019-04-07T22:53:10Z</time>
      </trkpt>
      <trkpt lat="42.26281" lon="1.89806">
        <ele>1472.108</ele>
        <time>2019-04-07T22:53:10Z</time>
      </trkpt>
      <trkpt lat="42.26282" lon="1.89805">
        <ele>1472.651</ele>
        <time>2019-04-07T22:53:11Z</time>
      </trkpt>
      <trkpt lat="42.26284" lon="1.89802">
        <ele>1473.393</ele>
        <time>2019-04-07T22:53:12Z</time>
      </trkpt>
      <trkpt lat="42.26286" lon="1.89801">
        <ele>1473.998</ele>
        <time>2019-04-07T22:53:13Z</time>
      </trkpt>
      <trkpt lat="42.26288" lon="1.89799">
        <ele>1474.229</ele>
        <time>2019-04-07T22:53:14Z</time>
      </trkpt>
      <trkpt lat="42.26289" lon="1.89798">
        <ele>1474.579</ele>
        <time>2019-04-07T22:53:15Z</time>
      </trkpt>
      <trkpt lat="42.2629" lon="1.89797">
        <ele>1474.573</ele>
        <time>2019-04-07T22:53:15Z</time>
      </trkpt>
      <trkpt lat="42.26291" lon="1.89796">
        <ele>1475.592</ele>
        <time>2019-04-07T22:53:15Z</time>
      </trkpt>
      <trkpt lat="42.26292" lon="1.89795">
        <ele>1475.944</ele>
        <time>2019-04-07T22:53:16Z</time>
      </trkpt>
      <trkpt lat="42.26292" lon="1.89794">
        <ele>1476.371</ele>
        <time>2019-04-07T22:53:16Z</time>
      </trkpt>
      <trkpt lat="42.26293" lon="1.89793">
        <ele>1476.541</ele>
        <time>2019-04-07T22:53:16Z</time>
      </trkpt>
      <trkpt lat="42.26294" lon="1.89793">
        <ele>1476.815</ele>
        <time>2019-04-07T22:53:17Z</time>
      </trkpt>
      <trkpt lat="42.26297" lon="1.8979">
        <ele>1477.408</ele>
        <time>2019-04-07T22:53:18Z</time>
      </trkpt>
      <trkpt lat="42.26298" lon="1.8979">
        <ele>1477.72</ele>
        <time>2019-04-07T22:53:19Z</time>
      </trkpt>
      <trkpt lat="42.26301" lon="1.89786">
        <ele>1478.682</ele>
        <time>2019-04-07T22:53:21Z</time>
      </trkpt>
      <trkpt lat="42.26302" lon="1.89786">
        <ele>1478.997</ele>
        <time>2019-04-07T22:53:21Z</time>
      </trkpt>
      <trkpt lat="42.26304" lon="1.89784">
        <ele>1479.728</ele>
        <time>2019-04-07T22:53:22Z</time>
      </trkpt>
      <trkpt lat="42.26305" lon="1.89783">
        <ele>1479.798</ele>
        <time>2019-04-07T22:53:22Z</time>
      </trkpt>
      <trkpt lat="42.26307" lon="1.89781">
        <ele>1480.522</ele>
        <time>2019-04-07T22:53:23Z</time>
      </trkpt>
      <trkpt lat="42.26309" lon="1.8978">
        <ele>1480.631</ele>
        <time>2019-04-07T22:53:24Z</time>
      </trkpt>
      <trkpt lat="42.2631" lon="1.89779">
        <ele>1481.653</ele>
        <time>2019-04-07T22:53:25Z</time>
      </trkpt>
      <trkpt lat="42.26311" lon="1.8978">
        <ele>1482.011</ele>
        <time>2019-04-07T22:53:25Z</time>
      </trkpt>
      <trkpt lat="42.26312" lon="1.8978">
        <ele>1482.021</ele>
        <time>2019-04-07T22:53:25Z</time>
      </trkpt>
      <trkpt lat="42.26313" lon="1.8978">
        <ele>1482.403</ele>
        <time>2019-04-07T22:53:26Z</time>
      </trkpt>
      <trkpt lat="42.26315" lon="1.89779">
        <ele>1482.808</ele>
        <time>2019-04-07T22:53:27Z</time>
      </trkpt>
      <trkpt lat="42.26316" lon="1.89778">
        <ele>1483.294</ele>
        <time>2019-04-07T22:53:27Z</time>
      </trkpt>
      <trkpt lat="42.26318" lon="1.89778">
        <ele>1484.246</ele>
        <time>2019-04-07T22:53:28Z</time>
      </trkpt>
      <trkpt lat="42.26319" lon="1.89775">
        <ele>1484.581</ele>
        <time>2019-04-07T22:53:29Z</time>
      </trkpt>
      <trkpt lat="42.26319" lon="1.89774">
        <ele>1484.962</ele>
        <time>2019-04-07T22:53:29Z</time>
      </trkpt>
      <trkpt lat="42.26319" lon="1.89773">
        <ele>1485.162</ele>
        <time>2019-04-07T22:53:30Z</time>
      </trkpt>
      <trkpt lat="42.2632" lon="1.89772">
        <ele>1485.646</ele>
        <time>2019-04-07T22:53:30Z</time>
      </trkpt>
      <trkpt lat="42.2632" lon="1.89771">
        <ele>1485.695</ele>
        <time>2019-04-07T22:53:30Z</time>
      </trkpt>
      <trkpt lat="42.26321" lon="1.89771">
        <ele>1486.037</ele>
        <time>2019-04-07T22:53:30Z</time>
      </trkpt>
      <trkpt lat="42.26321" lon="1.89771">
        <ele>1485.941</ele>
        <time>2019-04-07T22:53:31Z</time>
      </trkpt>
      <trkpt lat="42.26324" lon="1.89769">
        <ele>1486.481</ele>
        <time>2019-04-07T22:53:32Z</time>
      </trkpt>
      <trkpt lat="42.26324" lon="1.89762">
        <ele>1487.009</ele>
        <time>2019-04-07T22:53:34Z</time>
      </trkpt>
      <trkpt lat="42.26323" lon="1.8976">
        <ele>1487.408</ele>
        <time>2019-04-07T22:53:34Z</time>
      </trkpt>
      <trkpt lat="42.26323" lon="1.89759">
        <ele>1488.057</ele>
        <time>2019-04-07T22:53:35Z</time>
      </trkpt>
      <trkpt lat="42.26324" lon="1.89758">
        <ele>1488.579</ele>
        <time>2019-04-07T22:53:35Z</time>
      </trkpt>
      <trkpt lat="42.26326" lon="1.89757">
        <ele>1489.634</ele>
        <time>2019-04-07T22:53:36Z</time>
      </trkpt>
      <trkpt lat="42.26328" lon="1.8975">
        <ele>1490.715</ele>
        <time>2019-04-07T22:53:38Z</time>
      </trkpt>
      <trkpt lat="42.26328" lon="1.89749">
        <ele>1490.825</ele>
        <time>2019-04-07T22:53:38Z</time>
      </trkpt>
      <trkpt lat="42.26329" lon="1.89747">
        <ele>1491.569</ele>
        <time>2019-04-07T22:53:39Z</time>
      </trkpt>
      <trkpt lat="42.26331" lon="1.89745">
        <ele>1492.878</ele>
        <time>2019-04-07T22:53:40Z</time>
      </trkpt>
      <trkpt lat="42.26332" lon="1.8975">
        <ele>1493.93</ele>
        <time>2019-04-07T22:53:42Z</time>
      </trkpt>
      <trkpt lat="42.26334" lon="1.89752">
        <ele>1494.785</ele>
        <time>2019-04-07T22:53:43Z</time>
      </trkpt>
      <trkpt lat="42.26335" lon="1.89751">
        <ele>1494.889</ele>
        <time>2019-04-07T22:53:43Z</time>
      </trkpt>
      <trkpt lat="42.26336" lon="1.89747">
        <ele>1495.117</ele>
        <time>2019-04-07T22:53:44Z</time>
      </trkpt>
      <trkpt lat="42.26337" lon="1.89746">
        <ele>1495.408</ele>
        <time>2019-04-07T22:53:45Z</time>
      </trkpt>
      <trkpt lat="42.26338" lon="1.89745">
        <ele>1495.671</ele>
        <time>2019-04-07T22:53:45Z</time>
      </trkpt>
      <trkpt lat="42.26339" lon="1.89743">
        <ele>1496.093</ele>
        <time>2019-04-07T22:53:46Z</time>
      </trkpt>
      <trkpt lat="42.26343" lon="1.8974">
        <ele>1497.238</ele>
        <time>2019-04-07T22:53:48Z</time>
      </trkpt>
      <trkpt lat="42.26344" lon="1.89745">
        <ele>1498.369</ele>
        <time>2019-04-07T22:53:49Z</time>
      </trkpt>
      <trkpt lat="42.26344" lon="1.89745">
        <ele>1498.529</ele>
        <time>2019-04-07T22:53:49Z</time>
      </trkpt>
      <trkpt lat="42.26343" lon="1.89748">
        <ele>1499.153</ele>
        <time>2019-04-07T22:53:50Z</time>
      </trkpt>
      <trkpt lat="42.26343" lon="1.89749">
        <ele>1499.612</ele>
        <time>2019-04-07T22:53:51Z</time>
      </trkpt>
      <trkpt lat="42.26349" lon="1.8975">
        <ele>1500.694</ele>
        <time>2019-04-07T22:53:53Z</time>
      </trkpt>
      <trkpt lat="42.26352" lon="1.89749">
        <ele>1501.154</ele>
        <time>2019-04-07T22:53:54Z</time>
      </trkpt>
      <trkpt lat="42.26353" lon="1.8975">
        <ele>1501.556</ele>
        <time>2019-04-07T22:53:55Z</time>
      </trkpt>
      <trkpt lat="42.26356" lon="1.89751">
        <ele>1502.811</ele>
        <time>2019-04-07T22:53:56Z</time>
      </trkpt>
      <trkpt lat="42.26356" lon="1.89751">
        <ele>1503.008</ele>
        <time>2019-04-07T22:53:56Z</time>
      </trkpt>
      <trkpt lat="42.26356" lon="1.89754">
        <ele>1503.818</ele>
        <time>2019-04-07T22:53:57Z</time>
      </trkpt>
      <trkpt lat="42.26356" lon="1.89756">
        <ele>1504.42</ele>
        <time>2019-04-07T22:53:57Z</time>
      </trkpt>
      <trkpt lat="42.26356" lon="1.89758">
        <ele>1505.045</ele>
        <time>2019-04-07T22:53:58Z</time>
      </trkpt>
      <trkpt lat="42.26354" lon="1.89763">
        <ele>1506.066</ele>
        <time>2019-04-07T22:54:00Z</time>
      </trkpt>
      <trkpt lat="42.26354" lon="1.89765">
        <ele>1506.516</ele>
        <time>2019-04-07T22:54:00Z</time>
      </trkpt>
      <trkpt lat="42.26354" lon="1.89767">
        <ele>1506.81</ele>
        <time>2019-04-07T22:54:01Z</time>
      </trkpt>
      <trkpt lat="42.26354" lon="1.89768">
        <ele>1507.189</ele>
        <time>2019-04-07T22:54:01Z</time>
      </trkpt>
      <trkpt lat="42.26355" lon="1.89768">
        <ele>1507.311</ele>
        <time>2019-04-07T22:54:01Z</time>
      </trkpt>
      <trkpt lat="42.26354" lon="1.89775">
        <ele>1507.614</ele>
        <time>2019-04-07T22:54:03Z</time>
      </trkpt>
      <trkpt lat="42.26354" lon="1.89778">
        <ele>1507.554</ele>
        <time>2019-04-07T22:54:04Z</time>
      </trkpt>
      <trkpt lat="42.26354" lon="1.89778">
        <ele>1507.409</ele>
        <time>2019-04-07T22:54:04Z</time>
      </trkpt>
      <trkpt lat="42.26354" lon="1.89781">
        <ele>1508.008</ele>
        <time>2019-04-07T22:54:05Z</time>
      </trkpt>
      <trkpt lat="42.26354" lon="1.89786">
        <ele>1509.114</ele>
        <time>2019-04-07T22:54:06Z</time>
      </trkpt>
      <trkpt lat="42.26354" lon="1.89787">
        <ele>1509.696</ele>
        <time>2019-04-07T22:54:07Z</time>
      </trkpt>
      <trkpt lat="42.26354" lon="1.89791">
        <ele>1510.241</ele>
        <time>2019-04-07T22:54:08Z</time>
      </trkpt>
      <trkpt lat="42.26354" lon="1.89792">
        <ele>1510.792</ele>
        <time>2019-04-07T22:54:08Z</time>
      </trkpt>
      <trkpt lat="42.26354" lon="1.89793">
        <ele>1511.512</ele>
        <time>2019-04-07T22:54:09Z</time>
      </trkpt>
      <trkpt lat="42.26355" lon="1.89794">
        <ele>1511.646</ele>
        <time>2019-04-07T22:54:09Z</time>
      </trkpt>
      <trkpt lat="42.26354" lon="1.89796">
        <ele>1511.635</ele>
        <time>2019-04-07T22:54:10Z</time>
      </trkpt>
      <trkpt lat="42.26353" lon="1.898">
        <ele>1512.127</ele>
        <time>2019-04-07T22:54:11Z</time>
      </trkpt>
      <trkpt lat="42.2635" lon="1.89809">
        <ele>1511.936</ele>
        <time>2019-04-07T22:54:14Z</time>
      </trkpt>
      <trkpt lat="42.2635" lon="1.89812">
        <ele>1511.417</ele>
        <time>2019-04-07T22:54:15Z</time>
      </trkpt>
      <trkpt lat="42.2635" lon="1.89813">
        <ele>1511.418</ele>
        <time>2019-04-07T22:54:15Z</time>
      </trkpt>
      <trkpt lat="42.26351" lon="1.89818">
        <ele>1511.108</ele>
        <time>2019-04-07T22:54:16Z</time>
      </trkpt>
      <trkpt lat="42.26351" lon="1.89821">
        <ele>1512.616</ele>
        <time>2019-04-07T22:54:18Z</time>
      </trkpt>
      <trkpt lat="42.26351" lon="1.89822">
        <ele>1512.678</ele>
        <time>2019-04-07T22:54:18Z</time>
      </trkpt>
      <trkpt lat="42.2635" lon="1.89827">
        <ele>1513.413</ele>
        <time>2019-04-07T22:54:19Z</time>
      </trkpt>
      <trkpt lat="42.26349" lon="1.8983">
        <ele>1513.854</ele>
        <time>2019-04-07T22:54:20Z</time>
      </trkpt>
      <trkpt lat="42.2635" lon="1.89834">
        <ele>1514.364</ele>
        <time>2019-04-07T22:54:22Z</time>
      </trkpt>
      <trkpt lat="42.26349" lon="1.89837">
        <ele>1514.558</ele>
        <time>2019-04-07T22:54:22Z</time>
      </trkpt>
      <trkpt lat="42.26348" lon="1.89838">
        <ele>1514.987</ele>
        <time>2019-04-07T22:54:23Z</time>
      </trkpt>
      <trkpt lat="42.26348" lon="1.8984">
        <ele>1515.579</ele>
        <time>2019-04-07T22:54:23Z</time>
      </trkpt>
      <trkpt lat="42.26347" lon="1.89842">
        <ele>1516.147</ele>
        <time>2019-04-07T22:54:24Z</time>
      </trkpt>
      <trkpt lat="42.26347" lon="1.89843">
        <ele>1516.629</ele>
        <time>2019-04-07T22:54:24Z</time>
      </trkpt>
      <trkpt lat="42.26347" lon="1.89846">
        <ele>1517.021</ele>
        <time>2019-04-07T22:54:25Z</time>
      </trkpt>
      <trkpt lat="42.26347" lon="1.89847">
        <ele>1517.108</ele>
        <time>2019-04-07T22:54:26Z</time>
      </trkpt>
      <trkpt lat="42.26344" lon="1.89851">
        <ele>1518.387</ele>
        <time>2019-04-07T22:54:27Z</time>
      </trkpt>
      <trkpt lat="42.26343" lon="1.89852">
        <ele>1518.379</ele>
        <time>2019-04-07T22:54:28Z</time>
      </trkpt>
      <trkpt lat="42.26341" lon="1.89854">
        <ele>1519.274</ele>
        <time>2019-04-07T22:54:29Z</time>
      </trkpt>
      <trkpt lat="42.2634" lon="1.89854">
        <ele>1519.765</ele>
        <time>2019-04-07T22:54:29Z</time>
      </trkpt>
      <trkpt lat="42.2634" lon="1.89857">
        <ele>1520.215</ele>
        <time>2019-04-07T22:54:30Z</time>
      </trkpt>
      <trkpt lat="42.26343" lon="1.89858">
        <ele>1521.259</ele>
        <time>2019-04-07T22:54:31Z</time>
      </trkpt>
      <trkpt lat="42.26343" lon="1.89859">
        <ele>1521.678</ele>
        <time>2019-04-07T22:54:31Z</time>
      </trkpt>
      <trkpt lat="42.26344" lon="1.89862">
        <ele>1522.56</ele>
        <time>2019-04-07T22:54:32Z</time>
      </trkpt>
      <trkpt lat="42.26343" lon="1.8987">
        <ele>1523.618</ele>
        <time>2019-04-07T22:54:35Z</time>
      </trkpt>
      <trkpt lat="42.26342" lon="1.89872">
        <ele>1523.898</ele>
        <time>2019-04-07T22:54:35Z</time>
      </trkpt>
      <trkpt lat="42.26341" lon="1.89874">
        <ele>1524.417</ele>
        <time>2019-04-07T22:54:36Z</time>
      </trkpt>
      <trkpt lat="42.26341" lon="1.89874">
        <ele>1524.508</ele>
        <time>2019-04-07T22:54:36Z</time>
      </trkpt>
      <trkpt lat="42.26341" lon="1.89875">
        <ele>1525.144</ele>
        <time>2019-04-07T22:54:37Z</time>
      </trkpt>
      <trkpt lat="42.2634" lon="1.89881">
        <ele>1525.996</ele>
        <time>2019-04-07T22:54:38Z</time>
      </trkpt>
      <trkpt lat="42.26339" lon="1.89882">
        <ele>1526.271</ele>
        <time>2019-04-07T22:54:39Z</time>
      </trkpt>
      <trkpt lat="42.26338" lon="1.89886">
        <ele>1527.072</ele>
        <time>2019-04-07T22:54:40Z</time>
      </trkpt>
      <trkpt lat="42.26337" lon="1.89888">
        <ele>1527.362</ele>
        <time>2019-04-07T22:54:41Z</time>
      </trkpt>
      <trkpt lat="42.26337" lon="1.8989">
        <ele>1528.076</ele>
        <time>2019-04-07T22:54:41Z</time>
      </trkpt>
      <trkpt lat="42.26337" lon="1.89894">
        <ele>1528.595</ele>
        <time>2019-04-07T22:54:42Z</time>
      </trkpt>
      <trkpt lat="42.26337" lon="1.89895">
        <ele>1528.617</ele>
        <time>2019-04-07T22:54:43Z</time>
      </trkpt>
      <trkpt lat="42.26335" lon="1.89897">
        <ele>1529.155</ele>
        <time>2019-04-07T22:54:44Z</time>
      </trkpt>
      <trkpt lat="42.26334" lon="1.89899">
        <ele>1530.207</ele>
        <time>2019-04-07T22:54:45Z</time>
      </trkpt>
      <trkpt lat="42.26333" lon="1.899">
        <ele>1530.117</ele>
        <time>2019-04-07T22:54:45Z</time>
      </trkpt>
      <trkpt lat="42.26333" lon="1.89898">
        <ele>1530.808</ele>
        <time>2019-04-07T22:54:46Z</time>
      </trkpt>
      <trkpt lat="42.26333" lon="1.89897">
        <ele>1530.828</ele>
        <time>2019-04-07T22:54:46Z</time>
      </trkpt>
      <trkpt lat="42.26333" lon="1.89896">
        <ele>1530.96</ele>
        <time>2019-04-07T22:54:46Z</time>
      </trkpt>
      <trkpt lat="42.26336" lon="1.89898">
        <ele>1531.225</ele>
        <time>2019-04-07T22:54:48Z</time>
      </trkpt>
      <trkpt lat="42.26338" lon="1.899">
        <ele>1531.256</ele>
        <time>2019-04-07T22:54:49Z</time>
      </trkpt>
      <trkpt lat="42.26338" lon="1.89904">
        <ele>1531.286</ele>
        <time>2019-04-07T22:54:50Z</time>
      </trkpt>
      <trkpt lat="42.26337" lon="1.8991">
        <ele>1531.61</ele>
        <time>2019-04-07T22:54:52Z</time>
      </trkpt>
      <trkpt lat="42.26335" lon="1.89914">
        <ele>1532.519</ele>
        <time>2019-04-07T22:54:53Z</time>
      </trkpt>
      <trkpt lat="42.26333" lon="1.89916">
        <ele>1533.171</ele>
        <time>2019-04-07T22:54:54Z</time>
      </trkpt>
      <trkpt lat="42.26332" lon="1.89916">
        <ele>1533.287</ele>
        <time>2019-04-07T22:54:54Z</time>
      </trkpt>
      <trkpt lat="42.26331" lon="1.89916">
        <ele>1533.442</ele>
        <time>2019-04-07T22:54:55Z</time>
      </trkpt>
      <trkpt lat="42.26326" lon="1.89924">
        <ele>1534.826</ele>
        <time>2019-04-07T22:54:58Z</time>
      </trkpt>
      <trkpt lat="42.26325" lon="1.89929">
        <ele>1535.408</ele>
        <time>2019-04-07T22:54:59Z</time>
      </trkpt>
      <trkpt lat="42.26325" lon="1.89934">
        <ele>1535.991</ele>
        <time>2019-04-07T22:55:01Z</time>
      </trkpt>
      <trkpt lat="42.26326" lon="1.89936">
        <ele>1536.163</ele>
        <time>2019-04-07T22:55:02Z</time>
      </trkpt>
      <trkpt lat="42.26328" lon="1.89946">
        <ele>1536.938</ele>
        <time>2019-04-07T22:55:05Z</time>
      </trkpt>
      <trkpt lat="42.26322" lon="1.89952">
        <ele>1537.969</ele>
        <time>2019-04-07T22:55:08Z</time>
      </trkpt>
      <trkpt lat="42.26322" lon="1.8996">
        <ele>1538.699</ele>
        <time>2019-04-07T22:55:10Z</time>
      </trkpt>
      <trkpt lat="42.26321" lon="1.89962">
        <ele>1539.183</ele>
        <time>2019-04-07T22:55:11Z</time>
      </trkpt>
      <trkpt lat="42.2632" lon="1.89961">
        <ele>1539.122</ele>
        <time>2019-04-07T22:55:11Z</time>
      </trkpt>
      <trkpt lat="42.2632" lon="1.8996">
        <ele>1539.594</ele>
        <time>2019-04-07T22:55:11Z</time>
      </trkpt>
      <trkpt lat="42.2632" lon="1.89961">
        <ele>1540.023</ele>
        <time>2019-04-07T22:55:11Z</time>
      </trkpt>
      <trkpt lat="42.26321" lon="1.89963">
        <ele>1540.083</ele>
        <time>2019-04-07T22:55:12Z</time>
      </trkpt>
      <trkpt lat="42.26324" lon="1.89968">
        <ele>1541.011</ele>
        <time>2019-04-07T22:55:14Z</time>
      </trkpt>
      <trkpt lat="42.26324" lon="1.89968">
        <ele>1541.108</ele>
        <time>2019-04-07T22:55:14Z</time>
      </trkpt>
      <trkpt lat="42.26324" lon="1.8997">
        <ele>1542.065</ele>
        <time>2019-04-07T22:55:15Z</time>
      </trkpt>
      <trkpt lat="42.26326" lon="1.8997">
        <ele>1542.227</ele>
        <time>2019-04-07T22:55:15Z</time>
      </trkpt>
      <trkpt lat="42.26327" lon="1.8997">
        <ele>1542.522</ele>
        <time>2019-04-07T22:55:16Z</time>
      </trkpt>
      <trkpt lat="42.26328" lon="1.89969">
        <ele>1543.023</ele>
        <time>2019-04-07T22:55:16Z</time>
      </trkpt>
      <trkpt lat="42.26328" lon="1.89968">
        <ele>1543.683</ele>
        <time>2019-04-07T22:55:17Z</time>
      </trkpt>
      <trkpt lat="42.26328" lon="1.89967">
        <ele>1543.777</ele>
        <time>2019-04-07T22:55:17Z</time>
      </trkpt>
      <trkpt lat="42.26329" lon="1.89966">
        <ele>1544.476</ele>
        <time>2019-04-07T22:55:17Z</time>
      </trkpt>
      <trkpt lat="42.2633" lon="1.89963">
        <ele>1545.548</ele>
        <time>2019-04-07T22:55:18Z</time>
      </trkpt>
      <trkpt lat="42.26331" lon="1.89962">
        <ele>1545.783</ele>
        <time>2019-04-07T22:55:19Z</time>
      </trkpt>
      <trkpt lat="42.26334" lon="1.89953">
        <ele>1546.425</ele>
        <time>2019-04-07T22:55:22Z</time>
      </trkpt>
      <trkpt lat="42.26335" lon="1.89952">
        <ele>1546.517</ele>
        <time>2019-04-07T22:55:22Z</time>
      </trkpt>
      <trkpt lat="42.26338" lon="1.8995">
        <ele>1547.108</ele>
        <time>2019-04-07T22:55:23Z</time>
      </trkpt>
      <trkpt lat="42.26339" lon="1.89952">
        <ele>1547.631</ele>
        <time>2019-04-07T22:55:24Z</time>
      </trkpt>
      <trkpt lat="42.26339" lon="1.89954">
        <ele>1548.263</ele>
        <time>2019-04-07T22:55:25Z</time>
      </trkpt>
      <trkpt lat="42.2634" lon="1.89957">
        <ele>1548.538</ele>
        <time>2019-04-07T22:55:26Z</time>
      </trkpt>
      <trkpt lat="42.2634" lon="1.89958">
        <ele>1548.679</ele>
        <time>2019-04-07T22:55:26Z</time>
      </trkpt>
      <trkpt lat="42.26342" lon="1.89955">
        <ele>1549.539</ele>
        <time>2019-04-07T22:55:27Z</time>
      </trkpt>
      <trkpt lat="42.26342" lon="1.89954">
        <ele>1549.973</ele>
        <time>2019-04-07T22:55:27Z</time>
      </trkpt>
      <trkpt lat="42.26343" lon="1.89955">
        <ele>1551.082</ele>
        <time>2019-04-07T22:55:28Z</time>
      </trkpt>
      <trkpt lat="42.26343" lon="1.89956">
        <ele>1551.154</ele>
        <time>2019-04-07T22:55:28Z</time>
      </trkpt>
      <trkpt lat="42.26343" lon="1.89962">
        <ele>1552.279</ele>
        <time>2019-04-07T22:55:30Z</time>
      </trkpt>
      <trkpt lat="42.26343" lon="1.89963">
        <ele>1552.205</ele>
        <time>2019-04-07T22:55:30Z</time>
      </trkpt>
      <trkpt lat="42.2634" lon="1.89974">
        <ele>1552.525</ele>
        <time>2019-04-07T22:55:34Z</time>
      </trkpt>
      <trkpt lat="42.26339" lon="1.89979">
        <ele>1553.108</ele>
        <time>2019-04-07T22:55:35Z</time>
      </trkpt>
      <trkpt lat="42.26339" lon="1.89983">
        <ele>1553.62</ele>
        <time>2019-04-07T22:55:36Z</time>
      </trkpt>
      <trkpt lat="42.26339" lon="1.89984">
        <ele>1553.562</ele>
        <time>2019-04-07T22:55:37Z</time>
      </trkpt>
      <trkpt lat="42.26338" lon="1.89992">
        <ele>1553.527</ele>
        <time>2019-04-07T22:55:39Z</time>
      </trkpt>
      <trkpt lat="42.26338" lon="1.89996">
        <ele>1554.128</ele>
        <time>2019-04-07T22:55:40Z</time>
      </trkpt>
      <trkpt lat="42.26338" lon="1.9">
        <ele>1554.148</ele>
        <time>2019-04-07T22:55:41Z</time>
      </trkpt>
      <trkpt lat="42.26338" lon="1.90006">
        <ele>1554.742</ele>
        <time>2019-04-07T22:55:43Z</time>
      </trkpt>
      <trkpt lat="42.26339" lon="1.90013">
        <ele>1555.151</ele>
        <time>2019-04-07T22:55:45Z</time>
      </trkpt>
      <trkpt lat="42.26339" lon="1.90014">
        <ele>1555.233</ele>
        <time>2019-04-07T22:55:46Z</time>
      </trkpt>
      <trkpt lat="42.26339" lon="1.90015">
        <ele>1555.521</ele>
        <time>2019-04-07T22:55:46Z</time>
      </trkpt>
      <trkpt lat="42.26338" lon="1.90017">
        <ele>1555.541</ele>
        <time>2019-04-07T22:55:46Z</time>
      </trkpt>
      <trkpt lat="42.26339" lon="1.9002">
        <ele>1556.405</ele>
        <time>2019-04-07T22:55:47Z</time>
      </trkpt>
      <trkpt lat="42.2634" lon="1.90023">
        <ele>1557.008</ele>
        <time>2019-04-07T22:55:48Z</time>
      </trkpt>
      <trkpt lat="42.26341" lon="1.90025">
        <ele>1557.515</ele>
        <time>2019-04-07T22:55:49Z</time>
      </trkpt>
      <trkpt lat="42.26341" lon="1.90027">
        <ele>1557.677</ele>
        <time>2019-04-07T22:55:50Z</time>
      </trkpt>
      <trkpt lat="42.26341" lon="1.9003">
        <ele>1557.632</ele>
        <time>2019-04-07T22:55:50Z</time>
      </trkpt>
      <trkpt lat="42.26341" lon="1.90031">
        <ele>1557.973</ele>
        <time>2019-04-07T22:55:51Z</time>
      </trkpt>
      <trkpt lat="42.26341" lon="1.90034">
        <ele>1558.053</ele>
        <time>2019-04-07T22:55:52Z</time>
      </trkpt>
      <trkpt lat="42.26342" lon="1.90038">
        <ele>1559.077</ele>
        <time>2019-04-07T22:55:53Z</time>
      </trkpt>
      <trkpt lat="42.26343" lon="1.90038">
        <ele>1559.126</ele>
        <time>2019-04-07T22:55:53Z</time>
      </trkpt>
      <trkpt lat="42.26343" lon="1.9004">
        <ele>1559.688</ele>
        <time>2019-04-07T22:55:54Z</time>
      </trkpt>
      <trkpt lat="42.26344" lon="1.9004">
        <ele>1559.985</ele>
        <time>2019-04-07T22:55:54Z</time>
      </trkpt>
      <trkpt lat="42.26345" lon="1.9004">
        <ele>1560.189</ele>
        <time>2019-04-07T22:55:54Z</time>
      </trkpt>
      <trkpt lat="42.26346" lon="1.9004">
        <ele>1560.117</ele>
        <time>2019-04-07T22:55:55Z</time>
      </trkpt>
      <trkpt lat="42.26346" lon="1.90037">
        <ele>1560.808</ele>
        <time>2019-04-07T22:55:55Z</time>
      </trkpt>
      <trkpt lat="42.26346" lon="1.90035">
        <ele>1561.181</ele>
        <time>2019-04-07T22:55:56Z</time>
      </trkpt>
      <trkpt lat="42.26346" lon="1.90032">
        <ele>1561.643</ele>
        <time>2019-04-07T22:55:57Z</time>
      </trkpt>
      <trkpt lat="42.26345" lon="1.90028">
        <ele>1561.938</ele>
        <time>2019-04-07T22:55:58Z</time>
      </trkpt>
      <trkpt lat="42.26344" lon="1.90026">
        <ele>1562.149</ele>
        <time>2019-04-07T22:55:59Z</time>
      </trkpt>
      <trkpt lat="42.26343" lon="1.90026">
        <ele>1562.589</ele>
        <time>2019-04-07T22:55:59Z</time>
      </trkpt>
      <trkpt lat="42.26343" lon="1.90024">
        <ele>1562.633</ele>
        <time>2019-04-07T22:56:00Z</time>
      </trkpt>
      <trkpt lat="42.26346" lon="1.90021">
        <ele>1563.262</ele>
        <time>2019-04-07T22:56:02Z</time>
      </trkpt>
      <trkpt lat="42.2635" lon="1.9002">
        <ele>1563.964</ele>
        <time>2019-04-07T22:56:03Z</time>
      </trkpt>
      <trkpt lat="42.26353" lon="1.9002">
        <ele>1564.217</ele>
        <time>2019-04-07T22:56:04Z</time>
      </trkpt>
      <trkpt lat="42.26354" lon="1.9002">
        <ele>1564.587</ele>
        <time>2019-04-07T22:56:05Z</time>
      </trkpt>
      <trkpt lat="42.26359" lon="1.90022">
        <ele>1565.115</ele>
        <time>2019-04-07T22:56:07Z</time>
      </trkpt>
      <trkpt lat="42.26359" lon="1.90022">
        <ele>1565.408</ele>
        <time>2019-04-07T22:56:07Z</time>
      </trkpt>
      <trkpt lat="42.2636" lon="1.90025">
        <ele>1566.254</ele>
        <time>2019-04-07T22:56:08Z</time>
      </trkpt>
      <trkpt lat="42.2636" lon="1.90026">
        <ele>1566.126</ele>
        <time>2019-04-07T22:56:08Z</time>
      </trkpt>
      <trkpt lat="42.26361" lon="1.90027">
        <ele>1566.711</ele>
        <time>2019-04-07T22:56:09Z</time>
      </trkpt>
      <trkpt lat="42.26365" lon="1.90031">
        <ele>1567.532</ele>
        <time>2019-04-07T22:56:11Z</time>
      </trkpt>
      <trkpt lat="42.26367" lon="1.90033">
        <ele>1568.532</ele>
        <time>2019-04-07T22:56:12Z</time>
      </trkpt>
      <trkpt lat="42.26368" lon="1.90032">
        <ele>1569.536</ele>
        <time>2019-04-07T22:56:12Z</time>
      </trkpt>
      <trkpt lat="42.26367" lon="1.90031">
        <ele>1569.765</ele>
        <time>2019-04-07T22:56:13Z</time>
      </trkpt>
      <trkpt lat="42.26367" lon="1.9003">
        <ele>1570.737</ele>
        <time>2019-04-07T22:56:13Z</time>
      </trkpt>
      <trkpt lat="42.26366" lon="1.90026">
        <ele>1571.787</ele>
        <time>2019-04-07T22:56:14Z</time>
      </trkpt>
      <trkpt lat="42.26367" lon="1.90022">
        <ele>1572.542</ele>
        <time>2019-04-07T22:56:15Z</time>
      </trkpt>
      <trkpt lat="42.26368" lon="1.90019">
        <ele>1572.826</ele>
        <time>2019-04-07T22:56:16Z</time>
      </trkpt>
      <trkpt lat="42.26369" lon="1.90016">
        <ele>1573.408</ele>
        <time>2019-04-07T22:56:17Z</time>
      </trkpt>
      <trkpt lat="42.2637" lon="1.90014">
        <ele>1573.641</ele>
        <time>2019-04-07T22:56:18Z</time>
      </trkpt>
      <trkpt lat="42.2637" lon="1.90013">
        <ele>1574.093</ele>
        <time>2019-04-07T22:56:18Z</time>
      </trkpt>
      <trkpt lat="42.26373" lon="1.90012">
        <ele>1574.858</ele>
        <time>2019-04-07T22:56:20Z</time>
      </trkpt>
      <trkpt lat="42.26375" lon="1.90013">
        <ele>1575.119</ele>
        <time>2019-04-07T22:56:20Z</time>
      </trkpt>
      <trkpt lat="42.26379" lon="1.90014">
        <ele>1575.949</ele>
        <time>2019-04-07T22:56:22Z</time>
      </trkpt>
      <trkpt lat="42.26378" lon="1.90013">
        <ele>1576.193</ele>
        <time>2019-04-07T22:56:22Z</time>
      </trkpt>
      <trkpt lat="42.26379" lon="1.90011">
        <ele>1577.152</ele>
        <time>2019-04-07T22:56:23Z</time>
      </trkpt>
      <trkpt lat="42.26379" lon="1.9001">
        <ele>1577.354</ele>
        <time>2019-04-07T22:56:23Z</time>
      </trkpt>
      <trkpt lat="42.26382" lon="1.90004">
        <ele>1578.128</ele>
        <time>2019-04-07T22:56:25Z</time>
      </trkpt>
      <trkpt lat="42.26385" lon="1.90003">
        <ele>1578.489</ele>
        <time>2019-04-07T22:56:26Z</time>
      </trkpt>
      <trkpt lat="42.26386" lon="1.90002">
        <ele>1579.017</ele>
        <time>2019-04-07T22:56:27Z</time>
      </trkpt>
      <trkpt lat="42.26387" lon="1.90001">
        <ele>1579.508</ele>
        <time>2019-04-07T22:56:27Z</time>
      </trkpt>
      <trkpt lat="42.26388" lon="1.89995">
        <ele>1580.925</ele>
        <time>2019-04-07T22:56:29Z</time>
      </trkpt>
      <trkpt lat="42.26389" lon="1.89992">
        <ele>1581.277</ele>
        <time>2019-04-07T22:56:30Z</time>
      </trkpt>
      <trkpt lat="42.2639" lon="1.89989">
        <ele>1581.952</ele>
        <time>2019-04-07T22:56:31Z</time>
      </trkpt>
      <trkpt lat="42.26391" lon="1.89989">
        <ele>1582.343</ele>
        <time>2019-04-07T22:56:31Z</time>
      </trkpt>
      <trkpt lat="42.26392" lon="1.89987">
        <ele>1582.963</ele>
        <time>2019-04-07T22:56:32Z</time>
      </trkpt>
      <trkpt lat="42.26392" lon="1.89987">
        <ele>1583.017</ele>
        <time>2019-04-07T22:56:32Z</time>
      </trkpt>
      <trkpt lat="42.26394" lon="1.89985">
        <ele>1583.646</ele>
        <time>2019-04-07T22:56:33Z</time>
      </trkpt>
      <trkpt lat="42.26396" lon="1.89984">
        <ele>1584.198</ele>
        <time>2019-04-07T22:56:34Z</time>
      </trkpt>
      <trkpt lat="42.26399" lon="1.8998">
        <ele>1585.122</ele>
        <time>2019-04-07T22:56:35Z</time>
      </trkpt>
      <trkpt lat="42.264" lon="1.8998">
        <ele>1585.162</ele>
        <time>2019-04-07T22:56:36Z</time>
      </trkpt>
      <trkpt lat="42.26402" lon="1.89984">
        <ele>1586.108</ele>
        <time>2019-04-07T22:56:37Z</time>
      </trkpt>
      <trkpt lat="42.26404" lon="1.89988">
        <ele>1586.508</ele>
        <time>2019-04-07T22:56:39Z</time>
      </trkpt>
      <trkpt lat="42.26405" lon="1.89992">
        <ele>1587.635</ele>
        <time>2019-04-07T22:56:40Z</time>
      </trkpt>
      <trkpt lat="42.26406" lon="1.89996">
        <ele>1588.027</ele>
        <time>2019-04-07T22:56:41Z</time>
      </trkpt>
      <trkpt lat="42.26408" lon="1.89999">
        <ele>1588.262</ele>
        <time>2019-04-07T22:56:42Z</time>
      </trkpt>
      <trkpt lat="42.26409" lon="1.90002">
        <ele>1588.653</ele>
        <time>2019-04-07T22:56:43Z</time>
      </trkpt>
      <trkpt lat="42.2641" lon="1.90003">
        <ele>1589.233</ele>
        <time>2019-04-07T22:56:44Z</time>
      </trkpt>
      <trkpt lat="42.2641" lon="1.90004">
        <ele>1589.087</ele>
        <time>2019-04-07T22:56:44Z</time>
      </trkpt>
      <trkpt lat="42.2641" lon="1.90004">
        <ele>1589.246</ele>
        <time>2019-04-07T22:56:44Z</time>
      </trkpt>
      <trkpt lat="42.2641" lon="1.90003">
        <ele>1589.548</ele>
        <time>2019-04-07T22:56:44Z</time>
      </trkpt>
      <trkpt lat="42.2641" lon="1.90001">
        <ele>1590.215</ele>
        <time>2019-04-07T22:56:45Z</time>
      </trkpt>
      <trkpt lat="42.2641" lon="1.9">
        <ele>1590.465</ele>
        <time>2019-04-07T22:56:45Z</time>
      </trkpt>
      <trkpt lat="42.26409" lon="1.89995">
        <ele>1591.111</ele>
        <time>2019-04-07T22:56:47Z</time>
      </trkpt>
      <trkpt lat="42.26408" lon="1.89992">
        <ele>1591.508</ele>
        <time>2019-04-07T22:56:48Z</time>
      </trkpt>
      <trkpt lat="42.26409" lon="1.89984">
        <ele>1592.874</ele>
        <time>2019-04-07T22:56:50Z</time>
      </trkpt>
      <trkpt lat="42.26414" lon="1.8998">
        <ele>1593.986</ele>
        <time>2019-04-07T22:56:52Z</time>
      </trkpt>
      <trkpt lat="42.26414" lon="1.8998">
        <ele>1594.151</ele>
        <time>2019-04-07T22:56:52Z</time>
      </trkpt>
      <trkpt lat="42.26416" lon="1.8998">
        <ele>1594.552</ele>
        <time>2019-04-07T22:56:53Z</time>
      </trkpt>
      <trkpt lat="42.26418" lon="1.89981">
        <ele>1595.022</ele>
        <time>2019-04-07T22:56:54Z</time>
      </trkpt>
      <trkpt lat="42.26418" lon="1.89982">
        <ele>1595.156</ele>
        <time>2019-04-07T22:56:54Z</time>
      </trkpt>
      <trkpt lat="42.26423" lon="1.89979">
        <ele>1596.155</ele>
        <time>2019-04-07T22:56:56Z</time>
      </trkpt>
      <trkpt lat="42.26424" lon="1.89976">
        <ele>1596.737</ele>
        <time>2019-04-07T22:56:57Z</time>
      </trkpt>
      <trkpt lat="42.26426" lon="1.89975">
        <ele>1597.238</ele>
        <time>2019-04-07T22:56:58Z</time>
      </trkpt>
      <trkpt lat="42.26427" lon="1.89974">
        <ele>1597.57</ele>
        <time>2019-04-07T22:56:58Z</time>
      </trkpt>
      <trkpt lat="42.26428" lon="1.89972">
        <ele>1598.017</ele>
        <time>2019-04-07T22:56:59Z</time>
      </trkpt>
      <trkpt lat="42.2643" lon="1.8997">
        <ele>1598.408</ele>
        <time>2019-04-07T22:57:00Z</time>
      </trkpt>
      <trkpt lat="42.26431" lon="1.89967">
        <ele>1599.386</ele>
        <time>2019-04-07T22:57:01Z</time>
      </trkpt>
      <trkpt lat="42.26431" lon="1.89966">
        <ele>1599.788</ele>
        <time>2019-04-07T22:57:01Z</time>
      </trkpt>
      <trkpt lat="42.26436" lon="1.89963">
        <ele>1601.053</ele>
        <time>2019-04-07T22:57:03Z</time>
      </trkpt>
      <trkpt lat="42.26436" lon="1.89962">
        <ele>1601.134</ele>
        <time>2019-04-07T22:57:04Z</time>
      </trkpt>
      <trkpt lat="42.26439" lon="1.89961">
        <ele>1602.044</ele>
        <time>2019-04-07T22:57:05Z</time>
      </trkpt>
      <trkpt lat="42.2644" lon="1.89958">
        <ele>1602.628</ele>
        <time>2019-04-07T22:57:06Z</time>
      </trkpt>
      <trkpt lat="42.26441" lon="1.89958">
        <ele>1602.977</ele>
        <time>2019-04-07T22:57:06Z</time>
      </trkpt>
      <trkpt lat="42.26444" lon="1.89961">
        <ele>1603.279</ele>
        <time>2019-04-07T22:57:08Z</time>
      </trkpt>
      <trkpt lat="42.26446" lon="1.89961">
        <ele>1603.673</ele>
        <time>2019-04-07T22:57:08Z</time>
      </trkpt>
      <trkpt lat="42.26446" lon="1.89959">
        <ele>1604.285</ele>
        <time>2019-04-07T22:57:09Z</time>
      </trkpt>
      <trkpt lat="42.26447" lon="1.89954">
        <ele>1605.013</ele>
        <time>2019-04-07T22:57:10Z</time>
      </trkpt>
      <trkpt lat="42.26447" lon="1.89952">
        <ele>1605.408</ele>
        <time>2019-04-07T22:57:11Z</time>
      </trkpt>
      <trkpt lat="42.26447" lon="1.89945">
        <ele>1606.29</ele>
        <time>2019-04-07T22:57:13Z</time>
      </trkpt>
      <trkpt lat="42.26447" lon="1.89939">
        <ele>1606.412</ele>
        <time>2019-04-07T22:57:15Z</time>
      </trkpt>
      <trkpt lat="42.26447" lon="1.89939">
        <ele>1607.077</ele>
        <time>2019-04-07T22:57:15Z</time>
      </trkpt>
      <trkpt lat="42.26447" lon="1.8994">
        <ele>1607.018</ele>
        <time>2019-04-07T22:57:15Z</time>
      </trkpt>
      <trkpt lat="42.26447" lon="1.8994">
        <ele>1606.918</ele>
        <time>2019-04-07T22:57:15Z</time>
      </trkpt>
      <trkpt lat="42.26451" lon="1.89942">
        <ele>1606.992</ele>
        <time>2019-04-07T22:57:17Z</time>
      </trkpt>
      <trkpt lat="42.26452" lon="1.89943">
        <ele>1607.171</ele>
        <time>2019-04-07T22:57:17Z</time>
      </trkpt>
      <trkpt lat="42.26451" lon="1.89945">
        <ele>1607.123</ele>
        <time>2019-04-07T22:57:18Z</time>
      </trkpt>
      <trkpt lat="42.26451" lon="1.89945">
        <ele>1607.227</ele>
        <time>2019-04-07T22:57:18Z</time>
      </trkpt>
      <trkpt lat="42.26451" lon="1.89945">
        <ele>1607.168</ele>
        <time>2019-04-07T22:57:18Z</time>
      </trkpt>
      <trkpt lat="42.2645" lon="1.89945">
        <ele>1607.114</ele>
        <time>2019-04-07T22:57:18Z</time>
      </trkpt>
      <trkpt lat="42.26452" lon="1.89941">
        <ele>1607.008</ele>
        <time>2019-04-07T22:57:20Z</time>
      </trkpt>
      <trkpt lat="42.26454" lon="1.89939">
        <ele>1606.775</ele>
        <time>2019-04-07T22:57:21Z</time>
      </trkpt>
      <trkpt lat="42.26454" lon="1.8994">
        <ele>1606.667</ele>
        <time>2019-04-07T22:57:21Z</time>
      </trkpt>
      <trkpt lat="42.26453" lon="1.8994">
        <ele>1606.552</ele>
        <time>2019-04-07T22:57:21Z</time>
      </trkpt>
      <trkpt lat="42.2645" lon="1.89938">
        <ele>1606.653</ele>
        <time>2019-04-07T22:57:22Z</time>
      </trkpt>
      <trkpt lat="42.2645" lon="1.89935">
        <ele>1606.673</ele>
        <time>2019-04-07T22:57:23Z</time>
      </trkpt>
      <trkpt lat="42.26452" lon="1.89924">
        <ele>1607.377</ele>
        <time>2019-04-07T22:57:26Z</time>
      </trkpt>
      <trkpt lat="42.26452" lon="1.89922">
        <ele>1607.676</ele>
        <time>2019-04-07T22:57:27Z</time>
      </trkpt>
      <trkpt lat="42.26452" lon="1.89915">
        <ele>1608.198</ele>
        <time>2019-04-07T22:57:29Z</time>
      </trkpt>
      <trkpt lat="42.26452" lon="1.8991">
        <ele>1608.266</ele>
        <time>2019-04-07T22:57:31Z</time>
      </trkpt>
      <trkpt lat="42.26451" lon="1.89905">
        <ele>1608.329</ele>
        <time>2019-04-07T22:57:32Z</time>
      </trkpt>
      <trkpt lat="42.26451" lon="1.89899">
        <ele>1608.421</ele>
        <time>2019-04-07T22:57:34Z</time>
      </trkpt>
      <trkpt lat="42.26451" lon="1.89898">
        <ele>1608.508</ele>
        <time>2019-04-07T22:57:34Z</time>
      </trkpt>
      <trkpt lat="42.26451" lon="1.89897">
        <ele>1609.249</ele>
        <time>2019-04-07T22:57:35Z</time>
      </trkpt>
      <trkpt lat="42.26451" lon="1.89896">
        <ele>1609.271</ele>
        <time>2019-04-07T22:57:35Z</time>
      </trkpt>
      <trkpt lat="42.26452" lon="1.89894">
        <ele>1609.676</ele>
        <time>2019-04-07T22:57:36Z</time>
      </trkpt>
      <trkpt lat="42.26451" lon="1.89892">
        <ele>1609.657</ele>
        <time>2019-04-07T22:57:36Z</time>
      </trkpt>
      <trkpt lat="42.26451" lon="1.89892">
        <ele>1609.877</ele>
        <time>2019-04-07T22:57:36Z</time>
      </trkpt>
      <trkpt lat="42.26459" lon="1.89893">
        <ele>1610.011</ele>
        <time>2019-04-07T22:57:40Z</time>
      </trkpt>
      <trkpt lat="42.26465" lon="1.89897">
        <ele>1609.99</ele>
        <time>2019-04-07T22:57:42Z</time>
      </trkpt>
      <trkpt lat="42.26464" lon="1.89902">
        <ele>1609.612</ele>
        <time>2019-04-07T22:57:43Z</time>
      </trkpt>
      <trkpt lat="42.26467" lon="1.89904">
        <ele>1609.543</ele>
        <time>2019-04-07T22:57:45Z</time>
      </trkpt>
      <trkpt lat="42.26469" lon="1.89902">
        <ele>1609.264</ele>
        <time>2019-04-07T22:57:46Z</time>
      </trkpt>
      <trkpt lat="42.26465" lon="1.89895">
        <ele>1609.11</ele>
        <time>2019-04-07T22:57:48Z</time>
      </trkpt>
      <trkpt lat="42.26464" lon="1.89893">
        <ele>1609.108</ele>
        <time>2019-04-07T22:57:49Z</time>
      </trkpt>
      <trkpt lat="42.26462" lon="1.89884">
        <ele>1609.277</ele>
        <time>2019-04-07T22:57:52Z</time>
      </trkpt>
      <trkpt lat="42.26462" lon="1.89879">
        <ele>1609.259</ele>
        <time>2019-04-07T22:57:53Z</time>
      </trkpt>
      <trkpt lat="42.26466" lon="1.89877">
        <ele>1608.974</ele>
        <time>2019-04-07T22:57:55Z</time>
      </trkpt>
      <trkpt lat="42.26469" lon="1.89878">
        <ele>1608.625</ele>
        <time>2019-04-07T22:57:56Z</time>
      </trkpt>
      <trkpt lat="42.26471" lon="1.8988">
        <ele>1608.585</ele>
        <time>2019-04-07T22:57:57Z</time>
      </trkpt>
      <trkpt lat="42.26474" lon="1.89881">
        <ele>1608.669</ele>
        <time>2019-04-07T22:57:58Z</time>
      </trkpt>
      <trkpt lat="42.26482" lon="1.89883">
        <ele>1608.658</ele>
        <time>2019-04-07T22:58:02Z</time>
      </trkpt>
      <trkpt lat="42.26483" lon="1.89882">
        <ele>1608.26</ele>
        <time>2019-04-07T22:58:02Z</time>
      </trkpt>
      <trkpt lat="42.26485" lon="1.89878">
        <ele>1608.576</ele>
        <time>2019-04-07T22:58:04Z</time>
      </trkpt>
      <trkpt lat="42.26485" lon="1.89874">
        <ele>1608.89</ele>
        <time>2019-04-07T22:58:05Z</time>
      </trkpt>
      <trkpt lat="42.26484" lon="1.89871">
        <ele>1608.819</ele>
        <time>2019-04-07T22:58:06Z</time>
      </trkpt>
      <trkpt lat="42.26485" lon="1.89867">
        <ele>1608.808</ele>
        <time>2019-04-07T22:58:07Z</time>
      </trkpt>
      <trkpt lat="42.26493" lon="1.89855">
        <ele>1608.59</ele>
        <time>2019-04-07T22:58:12Z</time>
      </trkpt>
      <trkpt lat="42.26504" lon="1.89845">
        <ele>1608.512</ele>
        <time>2019-04-07T22:58:17Z</time>
      </trkpt>
      <trkpt lat="42.26508" lon="1.89846">
        <ele>1608.297</ele>
        <time>2019-04-07T22:58:19Z</time>
      </trkpt>
      <trkpt lat="42.26508" lon="1.89848">
        <ele>1608.158</ele>
        <time>2019-04-07T22:58:19Z</time>
      </trkpt>
      <trkpt lat="42.26509" lon="1.89852">
        <ele>1607.628</ele>
        <time>2019-04-07T22:58:20Z</time>
      </trkpt>
      <trkpt lat="42.26508" lon="1.89851">
        <ele>1607.762</ele>
        <time>2019-04-07T22:58:21Z</time>
      </trkpt>
      <trkpt lat="42.26509" lon="1.89846">
        <ele>1607.651</ele>
        <time>2019-04-07T22:58:22Z</time>
      </trkpt>
      <trkpt lat="42.26513" lon="1.8984">
        <ele>1607.233</ele>
        <time>2019-04-07T22:58:24Z</time>
      </trkpt>
      <trkpt lat="42.26522" lon="1.89832">
        <ele>1606.622</ele>
        <time>2019-04-07T22:58:29Z</time>
      </trkpt>
      <trkpt lat="42.26524" lon="1.8983">
        <ele>1606.462</ele>
        <time>2019-04-07T22:58:30Z</time>
      </trkpt>
      <trkpt lat="42.26529" lon="1.89824">
        <ele>1605.808</ele>
        <time>2019-04-07T22:58:32Z</time>
      </trkpt>
      <trkpt lat="42.26531" lon="1.89823">
        <ele>1605.508</ele>
        <time>2019-04-07T22:58:33Z</time>
      </trkpt>
      <trkpt lat="42.26532" lon="1.89821">
        <ele>1605.615</ele>
        <time>2019-04-07T22:58:34Z</time>
      </trkpt>
      <trkpt lat="42.26537" lon="1.89818">
        <ele>1604.287</ele>
        <time>2019-04-07T22:58:36Z</time>
      </trkpt>
      <trkpt lat="42.26541" lon="1.89814">
        <ele>1602.882</ele>
        <time>2019-04-07T22:58:38Z</time>
      </trkpt>
      <trkpt lat="42.26546" lon="1.89808">
        <ele>1601.963</ele>
        <time>2019-04-07T22:58:41Z</time>
      </trkpt>
      <trkpt lat="42.26548" lon="1.89808">
        <ele>1601.293</ele>
        <time>2019-04-07T22:58:42Z</time>
      </trkpt>
      <trkpt lat="42.26552" lon="1.89806">
        <ele>1600.637</ele>
        <time>2019-04-07T22:58:43Z</time>
      </trkpt>
      <trkpt lat="42.26553" lon="1.89805">
        <ele>1600.586</ele>
        <time>2019-04-07T22:58:44Z</time>
      </trkpt>
      <trkpt lat="42.26554" lon="1.89804">
        <ele>1600.268</ele>
        <time>2019-04-07T22:58:44Z</time>
      </trkpt>
      <trkpt lat="42.26555" lon="1.89803">
        <ele>1599.619</ele>
        <time>2019-04-07T22:58:45Z</time>
      </trkpt>
      <trkpt lat="42.26556" lon="1.89803">
        <ele>1599.509</ele>
        <time>2019-04-07T22:58:45Z</time>
      </trkpt>
      <trkpt lat="42.26561" lon="1.898">
        <ele>1598.819</ele>
        <time>2019-04-07T22:58:47Z</time>
      </trkpt>
      <trkpt lat="42.26564" lon="1.89799">
        <ele>1598.108</ele>
        <time>2019-04-07T22:58:48Z</time>
      </trkpt>
      <trkpt lat="42.26568" lon="1.89795">
        <ele>1597.154</ele>
        <time>2019-04-07T22:58:50Z</time>
      </trkpt>
      <trkpt lat="42.26569" lon="1.89794">
        <ele>1596.566</ele>
        <time>2019-04-07T22:58:51Z</time>
      </trkpt>
      <trkpt lat="42.26572" lon="1.89793">
        <ele>1595.691</ele>
        <time>2019-04-07T22:58:52Z</time>
      </trkpt>
      <trkpt lat="42.26574" lon="1.89792">
        <ele>1595.562</ele>
        <time>2019-04-07T22:58:53Z</time>
      </trkpt>
      <trkpt lat="42.26575" lon="1.89792">
        <ele>1595.182</ele>
        <time>2019-04-07T22:58:53Z</time>
      </trkpt>
      <trkpt lat="42.26576" lon="1.89791">
        <ele>1594.916</ele>
        <time>2019-04-07T22:58:54Z</time>
      </trkpt>
      <trkpt lat="42.26577" lon="1.8979">
        <ele>1594.765</ele>
        <time>2019-04-07T22:58:54Z</time>
      </trkpt>
      <trkpt lat="42.2658" lon="1.89788">
        <ele>1594.117</ele>
        <time>2019-04-07T22:58:56Z</time>
      </trkpt>
      <trkpt lat="42.26583" lon="1.89785">
        <ele>1593.699</ele>
        <time>2019-04-07T22:58:57Z</time>
      </trkpt>
      <trkpt lat="42.26585" lon="1.89783">
        <ele>1593.007</ele>
        <time>2019-04-07T22:58:58Z</time>
      </trkpt>
      <trkpt lat="42.26587" lon="1.8978">
        <ele>1592.427</ele>
        <time>2019-04-07T22:58:59Z</time>
      </trkpt>
      <trkpt lat="42.2659" lon="1.89776">
        <ele>1591.408</ele>
        <time>2019-04-07T22:59:01Z</time>
      </trkpt>
      <trkpt lat="42.26591" lon="1.89774">
        <ele>1591.132</ele>
        <time>2019-04-07T22:59:02Z</time>
      </trkpt>
      <trkpt lat="42.26596" lon="1.89766">
        <ele>1590.214</ele>
        <time>2019-04-07T22:59:05Z</time>
      </trkpt>
      <trkpt lat="42.26597" lon="1.89765">
        <ele>1590.039</ele>
        <time>2019-04-07T22:59:05Z</time>
      </trkpt>
      <trkpt lat="42.26601" lon="1.8976">
        <ele>1589.27</ele>
        <time>2019-04-07T22:59:07Z</time>
      </trkpt>
      <trkpt lat="42.26602" lon="1.89758">
        <ele>1588.99</ele>
        <time>2019-04-07T22:59:08Z</time>
      </trkpt>
      <trkpt lat="42.26607" lon="1.89751">
        <ele>1588.244</ele>
        <time>2019-04-07T22:59:11Z</time>
      </trkpt>
      <trkpt lat="42.26615" lon="1.8974">
        <ele>1587.073</ele>
        <time>2019-04-07T22:59:16Z</time>
      </trkpt>
      <trkpt lat="42.26617" lon="1.89737">
        <ele>1586.685</ele>
        <time>2019-04-07T22:59:17Z</time>
      </trkpt>
      <trkpt lat="42.26618" lon="1.89734">
        <ele>1586.029</ele>
        <time>2019-04-07T22:59:18Z</time>
      </trkpt>
      <trkpt lat="42.2662" lon="1.89732">
        <ele>1586.1</ele>
        <time>2019-04-07T22:59:19Z</time>
      </trkpt>
      <trkpt lat="42.26621" lon="1.8973">
        <ele>1585.52</ele>
        <time>2019-04-07T22:59:20Z</time>
      </trkpt>
      <trkpt lat="42.26623" lon="1.89727">
        <ele>1585.408</ele>
        <time>2019-04-07T22:59:21Z</time>
      </trkpt>
      <trkpt lat="42.26624" lon="1.89725">
        <ele>1585.275</ele>
        <time>2019-04-07T22:59:21Z</time>
      </trkpt>
      <trkpt lat="42.26626" lon="1.89722">
        <ele>1584.537</ele>
        <time>2019-04-07T22:59:23Z</time>
      </trkpt>
      <trkpt lat="42.26627" lon="1.8972">
        <ele>1584.142</ele>
        <time>2019-04-07T22:59:23Z</time>
      </trkpt>
      <trkpt lat="42.26628" lon="1.89718">
        <ele>1584.033</ele>
        <time>2019-04-07T22:59:24Z</time>
      </trkpt>
      <trkpt lat="42.2663" lon="1.89716">
        <ele>1583.763</ele>
        <time>2019-04-07T22:59:25Z</time>
      </trkpt>
      <trkpt lat="42.26631" lon="1.89714">
        <ele>1583.347</ele>
        <time>2019-04-07T22:59:26Z</time>
      </trkpt>
      <trkpt lat="42.26635" lon="1.89708">
        <ele>1582.256</ele>
        <time>2019-04-07T22:59:28Z</time>
      </trkpt>
      <trkpt lat="42.26638" lon="1.89703">
        <ele>1580.948</ele>
        <time>2019-04-07T22:59:30Z</time>
      </trkpt>
      <trkpt lat="42.26645" lon="1.89697">
        <ele>1579.561</ele>
        <time>2019-04-07T22:59:33Z</time>
      </trkpt>
      <trkpt lat="42.26647" lon="1.89695">
        <ele>1578.521</ele>
        <time>2019-04-07T22:59:34Z</time>
      </trkpt>
      <trkpt lat="42.26648" lon="1.89693">
        <ele>1578.113</ele>
        <time>2019-04-07T22:59:35Z</time>
      </trkpt>
      <trkpt lat="42.2665" lon="1.8969">
        <ele>1577.808</ele>
        <time>2019-04-07T22:59:36Z</time>
      </trkpt>
      <trkpt lat="42.26651" lon="1.89689">
        <ele>1577.769</ele>
        <time>2019-04-07T22:59:37Z</time>
      </trkpt>
      <trkpt lat="42.26654" lon="1.89686">
        <ele>1576.971</ele>
        <time>2019-04-07T22:59:38Z</time>
      </trkpt>
      <trkpt lat="42.26659" lon="1.89681">
        <ele>1575.666</ele>
        <time>2019-04-07T22:59:41Z</time>
      </trkpt>
      <trkpt lat="42.26663" lon="1.89675">
        <ele>1574.157</ele>
        <time>2019-04-07T22:59:43Z</time>
      </trkpt>
      <trkpt lat="42.26667" lon="1.89671">
        <ele>1573.287</ele>
        <time>2019-04-07T22:59:45Z</time>
      </trkpt>
      <trkpt lat="42.2667" lon="1.89662">
        <ele>1572.251</ele>
        <time>2019-04-07T22:59:48Z</time>
      </trkpt>
      <trkpt lat="42.26672" lon="1.8966">
        <ele>1571.99</ele>
        <time>2019-04-07T22:59:49Z</time>
      </trkpt>
      <trkpt lat="42.26673" lon="1.89658">
        <ele>1571.282</ele>
        <time>2019-04-07T22:59:50Z</time>
      </trkpt>
      <trkpt lat="42.26677" lon="1.89653">
        <ele>1570.795</ele>
        <time>2019-04-07T22:59:52Z</time>
      </trkpt>
      <trkpt lat="42.26679" lon="1.89649">
        <ele>1569.549</ele>
        <time>2019-04-07T22:59:53Z</time>
      </trkpt>
      <trkpt lat="42.26683" lon="1.89644">
        <ele>1568.023</ele>
        <time>2019-04-07T22:59:55Z</time>
      </trkpt>
      <trkpt lat="42.26684" lon="1.89643">
        <ele>1567.508</ele>
        <time>2019-04-07T22:59:56Z</time>
      </trkpt>
      <trkpt lat="42.26684" lon="1.89641">
        <ele>1567.152</ele>
        <time>2019-04-07T22:59:56Z</time>
      </trkpt>
      <trkpt lat="42.26687" lon="1.89636">
        <ele>1566.234</ele>
        <time>2019-04-07T22:59:58Z</time>
      </trkpt>
      <trkpt lat="42.26691" lon="1.8963">
        <ele>1564.879</ele>
        <time>2019-04-07T23:00:01Z</time>
      </trkpt>
      <trkpt lat="42.26692" lon="1.89628">
        <ele>1564.65</ele>
        <time>2019-04-07T23:00:01Z</time>
      </trkpt>
      <trkpt lat="42.26695" lon="1.89623">
        <ele>1563.66</ele>
        <time>2019-04-07T23:00:03Z</time>
      </trkpt>
      <trkpt lat="42.26699" lon="1.89618">
        <ele>1562.584</ele>
        <time>2019-04-07T23:00:06Z</time>
      </trkpt>
      <trkpt lat="42.26701" lon="1.89617">
        <ele>1562.263</ele>
        <time>2019-04-07T23:00:07Z</time>
      </trkpt>
      <trkpt lat="42.26705" lon="1.89615">
        <ele>1561.275</ele>
        <time>2019-04-07T23:00:08Z</time>
      </trkpt>
      <trkpt lat="42.26708" lon="1.89613">
        <ele>1560.215</ele>
        <time>2019-04-07T23:00:10Z</time>
      </trkpt>
      <trkpt lat="42.26713" lon="1.89607">
        <ele>1558.865</ele>
        <time>2019-04-07T23:00:12Z</time>
      </trkpt>
      <trkpt lat="42.26715" lon="1.89602">
        <ele>1557.511</ele>
        <time>2019-04-07T23:00:14Z</time>
      </trkpt>
      <trkpt lat="42.26718" lon="1.89598">
        <ele>1556.808</ele>
        <time>2019-04-07T23:00:15Z</time>
      </trkpt>
      <trkpt lat="42.26719" lon="1.89597">
        <ele>1556.434</ele>
        <time>2019-04-07T23:00:16Z</time>
      </trkpt>
      <trkpt lat="42.26721" lon="1.89595">
        <ele>1556.296</ele>
        <time>2019-04-07T23:00:17Z</time>
      </trkpt>
      <trkpt lat="42.26723" lon="1.89593">
        <ele>1555.691</ele>
        <time>2019-04-07T23:00:18Z</time>
      </trkpt>
      <trkpt lat="42.26724" lon="1.89591">
        <ele>1555.282</ele>
        <time>2019-04-07T23:00:19Z</time>
      </trkpt>
      <trkpt lat="42.26728" lon="1.89587">
        <ele>1554.222</ele>
        <time>2019-04-07T23:00:21Z</time>
      </trkpt>
      <trkpt lat="42.26733" lon="1.89581">
        <ele>1553.186</ele>
        <time>2019-04-07T23:00:23Z</time>
      </trkpt>
      <trkpt lat="42.26735" lon="1.89579">
        <ele>1552.765</ele>
        <time>2019-04-07T23:00:24Z</time>
      </trkpt>
      <trkpt lat="42.26738" lon="1.89576">
        <ele>1551.417</ele>
        <time>2019-04-07T23:00:26Z</time>
      </trkpt>
      <trkpt lat="42.2674" lon="1.89572">
        <ele>1550.486</ele>
        <time>2019-04-07T23:00:27Z</time>
      </trkpt>
      <trkpt lat="42.26742" lon="1.8957">
        <ele>1550.16</ele>
        <time>2019-04-07T23:00:28Z</time>
      </trkpt>
      <trkpt lat="42.26745" lon="1.89567">
        <ele>1549.026</ele>
        <time>2019-04-07T23:00:30Z</time>
      </trkpt>
      <trkpt lat="42.26748" lon="1.89561">
        <ele>1547.408</ele>
        <time>2019-04-07T23:00:32Z</time>
      </trkpt>
      <trkpt lat="42.26749" lon="1.89559">
        <ele>1546.521</ele>
        <time>2019-04-07T23:00:32Z</time>
      </trkpt>
      <trkpt lat="42.26749" lon="1.89557">
        <ele>1545.953</ele>
        <time>2019-04-07T23:00:33Z</time>
      </trkpt>
      <trkpt lat="42.26751" lon="1.89553">
        <ele>1545.168</ele>
        <time>2019-04-07T23:00:34Z</time>
      </trkpt>
      <trkpt lat="42.26752" lon="1.89551">
        <ele>1544.659</ele>
        <time>2019-04-07T23:00:35Z</time>
      </trkpt>
      <trkpt lat="42.26753" lon="1.89549">
        <ele>1544.179</ele>
        <time>2019-04-07T23:00:36Z</time>
      </trkpt>
      <trkpt lat="42.26755" lon="1.89545">
        <ele>1543.293</ele>
        <time>2019-04-07T23:00:38Z</time>
      </trkpt>
      <trkpt lat="42.26758" lon="1.89541">
        <ele>1541.822</ele>
        <time>2019-04-07T23:00:39Z</time>
      </trkpt>
      <trkpt lat="42.26759" lon="1.89539">
        <ele>1541.264</ele>
        <time>2019-04-07T23:00:40Z</time>
      </trkpt>
      <trkpt lat="42.26761" lon="1.89536">
        <ele>1540.552</ele>
        <time>2019-04-07T23:00:41Z</time>
      </trkpt>
      <trkpt lat="42.26764" lon="1.89529">
        <ele>1539.553</ele>
        <time>2019-04-07T23:00:43Z</time>
      </trkpt>
      <trkpt lat="42.26764" lon="1.89525">
        <ele>1539.008</ele>
        <time>2019-04-07T23:00:44Z</time>
      </trkpt>
      <trkpt lat="42.26766" lon="1.8952">
        <ele>1538.408</ele>
        <time>2019-04-07T23:00:46Z</time>
      </trkpt>
      <trkpt lat="42.26767" lon="1.89515">
        <ele>1537.288</ele>
        <time>2019-04-07T23:00:47Z</time>
      </trkpt>
      <trkpt lat="42.26767" lon="1.89513">
        <ele>1536.98</ele>
        <time>2019-04-07T23:00:48Z</time>
      </trkpt>
      <trkpt lat="42.26768" lon="1.89506">
        <ele>1536.165</ele>
        <time>2019-04-07T23:00:50Z</time>
      </trkpt>
      <trkpt lat="42.2677" lon="1.89502">
        <ele>1535.466</ele>
        <time>2019-04-07T23:00:52Z</time>
      </trkpt>
      <trkpt lat="42.26771" lon="1.89497">
        <ele>1534.676</ele>
        <time>2019-04-07T23:00:53Z</time>
      </trkpt>
      <trkpt lat="42.26772" lon="1.89491">
        <ele>1534.26</ele>
        <time>2019-04-07T23:00:55Z</time>
      </trkpt>
      <trkpt lat="42.26773" lon="1.89489">
        <ele>1533.579</ele>
        <time>2019-04-07T23:00:56Z</time>
      </trkpt>
      <trkpt lat="42.26772" lon="1.89484">
        <ele>1532.541</ele>
        <time>2019-04-07T23:00:57Z</time>
      </trkpt>
      <trkpt lat="42.26772" lon="1.8948">
        <ele>1531.235</ele>
        <time>2019-04-07T23:00:58Z</time>
      </trkpt>
      <trkpt lat="42.26773" lon="1.89472">
        <ele>1530.186</ele>
        <time>2019-04-07T23:01:01Z</time>
      </trkpt>
      <trkpt lat="42.26776" lon="1.89464">
        <ele>1528.514</ele>
        <time>2019-04-07T23:01:03Z</time>
      </trkpt>
      <trkpt lat="42.26779" lon="1.89454">
        <ele>1527.408</ele>
        <time>2019-04-07T23:01:06Z</time>
      </trkpt>
      <trkpt lat="42.26781" lon="1.89448">
        <ele>1526.376</ele>
        <time>2019-04-07T23:01:09Z</time>
      </trkpt>
      <trkpt lat="42.2678" lon="1.89446">
        <ele>1525.178</ele>
        <time>2019-04-07T23:01:09Z</time>
      </trkpt>
      <trkpt lat="42.2678" lon="1.89442">
        <ele>1523.633</ele>
        <time>2019-04-07T23:01:10Z</time>
      </trkpt>
      <trkpt lat="42.2678" lon="1.8944">
        <ele>1523.254</ele>
        <time>2019-04-07T23:01:11Z</time>
      </trkpt>
      <trkpt lat="42.2678" lon="1.89437">
        <ele>1522.684</ele>
        <time>2019-04-07T23:01:12Z</time>
      </trkpt>
      <trkpt lat="42.26782" lon="1.89434">
        <ele>1522.258</ele>
        <time>2019-04-07T23:01:13Z</time>
      </trkpt>
      <trkpt lat="42.26783" lon="1.89429">
        <ele>1521.677</ele>
        <time>2019-04-07T23:01:15Z</time>
      </trkpt>
      <trkpt lat="42.26784" lon="1.89426">
        <ele>1521.269</ele>
        <time>2019-04-07T23:01:15Z</time>
      </trkpt>
      <trkpt lat="42.26785" lon="1.89421">
        <ele>1520.529</ele>
        <time>2019-04-07T23:01:17Z</time>
      </trkpt>
      <trkpt lat="42.26785" lon="1.8942">
        <ele>1520.1</ele>
        <time>2019-04-07T23:01:17Z</time>
      </trkpt>
      <trkpt lat="42.26788" lon="1.89418">
        <ele>1519.42</ele>
        <time>2019-04-07T23:01:18Z</time>
      </trkpt>
      <trkpt lat="42.26791" lon="1.8942">
        <ele>1519.008</ele>
        <time>2019-04-07T23:01:20Z</time>
      </trkpt>
      <trkpt lat="42.26793" lon="1.89422">
        <ele>1518.965</ele>
        <time>2019-04-07T23:01:21Z</time>
      </trkpt>
      <trkpt lat="42.26795" lon="1.89424">
        <ele>1519.047</ele>
        <time>2019-04-07T23:01:22Z</time>
      </trkpt>
      <trkpt lat="42.26798" lon="1.89428">
        <ele>1518.712</ele>
        <time>2019-04-07T23:01:23Z</time>
      </trkpt>
      <trkpt lat="42.26799" lon="1.8943">
        <ele>1518.663</ele>
        <time>2019-04-07T23:01:24Z</time>
      </trkpt>
      <trkpt lat="42.268" lon="1.89431">
        <ele>1518.173</ele>
        <time>2019-04-07T23:01:25Z</time>
      </trkpt>
      <trkpt lat="42.26804" lon="1.89436">
        <ele>1517.937</ele>
        <time>2019-04-07T23:01:27Z</time>
      </trkpt>
      <trkpt lat="42.26807" lon="1.8944">
        <ele>1517.536</ele>
        <time>2019-04-07T23:01:29Z</time>
      </trkpt>
      <trkpt lat="42.2681" lon="1.89443">
        <ele>1517.288</ele>
        <time>2019-04-07T23:01:30Z</time>
      </trkpt>
      <trkpt lat="42.26812" lon="1.89447">
        <ele>1516.541</ele>
        <time>2019-04-07T23:01:32Z</time>
      </trkpt>
      <trkpt lat="42.26813" lon="1.89449">
        <ele>1516.581</ele>
        <time>2019-04-07T23:01:32Z</time>
      </trkpt>
      <trkpt lat="42.26816" lon="1.89453">
        <ele>1515.809</ele>
        <time>2019-04-07T23:01:34Z</time>
      </trkpt>
      <trkpt lat="42.26818" lon="1.89456">
        <ele>1515.008</ele>
        <time>2019-04-07T23:01:35Z</time>
      </trkpt>
      <trkpt lat="42.26818" lon="1.89457">
        <ele>1514.697</ele>
        <time>2019-04-07T23:01:36Z</time>
      </trkpt>
      <trkpt lat="42.26819" lon="1.89459">
        <ele>1514.319</ele>
        <time>2019-04-07T23:01:36Z</time>
      </trkpt>
      <trkpt lat="42.26821" lon="1.89461">
        <ele>1513.214</ele>
        <time>2019-04-07T23:01:37Z</time>
      </trkpt>
      <trkpt lat="42.26823" lon="1.89463">
        <ele>1512.325</ele>
        <time>2019-04-07T23:01:38Z</time>
      </trkpt>
      <trkpt lat="42.26824" lon="1.89464">
        <ele>1511.825</ele>
        <time>2019-04-07T23:01:39Z</time>
      </trkpt>
      <trkpt lat="42.26828" lon="1.89466">
        <ele>1511.259</ele>
        <time>2019-04-07T23:01:40Z</time>
      </trkpt>
      <trkpt lat="42.26831" lon="1.89467">
        <ele>1510.058</ele>
        <time>2019-04-07T23:01:42Z</time>
      </trkpt>
      <trkpt lat="42.26833" lon="1.89469">
        <ele>1509.68</ele>
        <time>2019-04-07T23:01:43Z</time>
      </trkpt>
      <trkpt lat="42.26837" lon="1.89472">
        <ele>1508.933</ele>
        <time>2019-04-07T23:01:44Z</time>
      </trkpt>
      <trkpt lat="42.26841" lon="1.89471">
        <ele>1508.323</ele>
        <time>2019-04-07T23:01:46Z</time>
      </trkpt>
      <trkpt lat="42.26842" lon="1.8947">
        <ele>1508.015</ele>
        <time>2019-04-07T23:01:46Z</time>
      </trkpt>
      <trkpt lat="42.26844" lon="1.89466">
        <ele>1508.008</ele>
        <time>2019-04-07T23:01:48Z</time>
      </trkpt>
      <trkpt lat="42.26845" lon="1.89464">
        <ele>1507.826</ele>
        <time>2019-04-07T23:01:49Z</time>
      </trkpt>
      <trkpt lat="42.26848" lon="1.89459">
        <ele>1507.288</ele>
        <time>2019-04-07T23:01:50Z</time>
      </trkpt>
      <trkpt lat="42.26849" lon="1.89454">
        <ele>1507.483</ele>
        <time>2019-04-07T23:01:52Z</time>
      </trkpt>
      <trkpt lat="42.2685" lon="1.89449">
        <ele>1506.844</ele>
        <time>2019-04-07T23:01:53Z</time>
      </trkpt>
      <trkpt lat="42.26848" lon="1.89444">
        <ele>1506.514</ele>
        <time>2019-04-07T23:01:55Z</time>
      </trkpt>
      <trkpt lat="42.26846" lon="1.89429">
        <ele>1505.968</ele>
        <time>2019-04-07T23:02:00Z</time>
      </trkpt>
      <trkpt lat="42.26847" lon="1.89426">
        <ele>1505.627</ele>
        <time>2019-04-07T23:02:01Z</time>
      </trkpt>
      <trkpt lat="42.26851" lon="1.89407">
        <ele>1505.139</ele>
        <time>2019-04-07T23:02:06Z</time>
      </trkpt>
      <trkpt lat="42.26852" lon="1.89405">
        <ele>1504.791</ele>
        <time>2019-04-07T23:02:07Z</time>
      </trkpt>
      <trkpt lat="42.26857" lon="1.89409">
        <ele>1504.281</ele>
        <time>2019-04-07T23:02:10Z</time>
      </trkpt>
      <trkpt lat="42.26859" lon="1.8941">
        <ele>1504.119</ele>
        <time>2019-04-07T23:02:11Z</time>
      </trkpt>
      <trkpt lat="42.26861" lon="1.89408">
        <ele>1504.408</ele>
        <time>2019-04-07T23:02:11Z</time>
      </trkpt>
      <trkpt lat="42.26862" lon="1.89406">
        <ele>1504.742</ele>
        <time>2019-04-07T23:02:12Z</time>
      </trkpt>
      <trkpt lat="42.26864" lon="1.89404">
        <ele>1505.164</ele>
        <time>2019-04-07T23:02:13Z</time>
      </trkpt>
      <trkpt lat="42.26867" lon="1.894">
        <ele>1506.029</ele>
        <time>2019-04-07T23:02:15Z</time>
      </trkpt>
      <trkpt lat="42.26871" lon="1.89396">
        <ele>1505.77</ele>
        <time>2019-04-07T23:02:17Z</time>
      </trkpt>
      <trkpt lat="42.26877" lon="1.89391">
        <ele>1505.07</ele>
        <time>2019-04-07T23:02:20Z</time>
      </trkpt>
      <trkpt lat="42.26879" lon="1.8939">
        <ele>1504.534</ele>
        <time>2019-04-07T23:02:21Z</time>
      </trkpt>
      <trkpt lat="42.26884" lon="1.89388">
        <ele>1503.873</ele>
        <time>2019-04-07T23:02:23Z</time>
      </trkpt>
      <trkpt lat="42.2689" lon="1.89385">
        <ele>1503.575</ele>
        <time>2019-04-07T23:02:25Z</time>
      </trkpt>
      <trkpt lat="42.26894" lon="1.89384">
        <ele>1503.252</ele>
        <time>2019-04-07T23:02:27Z</time>
      </trkpt>
      <trkpt lat="42.26896" lon="1.89382">
        <ele>1503.053</ele>
        <time>2019-04-07T23:02:28Z</time>
      </trkpt>
      <trkpt lat="42.269" lon="1.89377">
        <ele>1502.508</ele>
        <time>2019-04-07T23:02:30Z</time>
      </trkpt>
      <trkpt lat="42.26902" lon="1.89375">
        <ele>1502.408</ele>
        <time>2019-04-07T23:02:31Z</time>
      </trkpt>
      <trkpt lat="42.26907" lon="1.8937">
        <ele>1501.388</ele>
        <time>2019-04-07T23:02:33Z</time>
      </trkpt>
      <trkpt lat="42.26909" lon="1.89369">
        <ele>1501.26</ele>
        <time>2019-04-07T23:02:34Z</time>
      </trkpt>
      <trkpt lat="42.26913" lon="1.89364">
        <ele>1500.285</ele>
        <time>2019-04-07T23:02:36Z</time>
      </trkpt>
      <trkpt lat="42.26915" lon="1.89362">
        <ele>1500.166</ele>
        <time>2019-04-07T23:02:37Z</time>
      </trkpt>
      <trkpt lat="42.26919" lon="1.89358">
        <ele>1499.686</ele>
        <time>2019-04-07T23:02:39Z</time>
      </trkpt>
      <trkpt lat="42.26925" lon="1.89354">
        <ele>1499.26</ele>
        <time>2019-04-07T23:02:42Z</time>
      </trkpt>
      <trkpt lat="42.26927" lon="1.89352">
        <ele>1498.919</ele>
        <time>2019-04-07T23:02:43Z</time>
      </trkpt>
      <trkpt lat="42.26935" lon="1.89347">
        <ele>1497.981</ele>
        <time>2019-04-07T23:02:47Z</time>
      </trkpt>
      <trkpt lat="42.26939" lon="1.89347">
        <ele>1497.394</ele>
        <time>2019-04-07T23:02:48Z</time>
      </trkpt>
      <trkpt lat="42.26942" lon="1.89346">
        <ele>1496.957</ele>
        <time>2019-04-07T23:02:50Z</time>
      </trkpt>
      <trkpt lat="42.26947" lon="1.89344">
        <ele>1496.522</ele>
        <time>2019-04-07T23:02:51Z</time>
      </trkpt>
      <trkpt lat="42.26949" lon="1.89343">
        <ele>1496.408</ele>
        <time>2019-04-07T23:02:52Z</time>
      </trkpt>
      <trkpt lat="42.26953" lon="1.89341">
        <ele>1496.042</ele>
        <time>2019-04-07T23:02:54Z</time>
      </trkpt>
      <trkpt lat="42.26956" lon="1.8934">
        <ele>1495.564</ele>
        <time>2019-04-07T23:02:55Z</time>
      </trkpt>
      <trkpt lat="42.26962" lon="1.89337">
        <ele>1494.599</ele>
        <time>2019-04-07T23:02:58Z</time>
      </trkpt>
      <trkpt lat="42.26974" lon="1.89343">
        <ele>1493.67</ele>
        <time>2019-04-07T23:03:03Z</time>
      </trkpt>
      <trkpt lat="42.26976" lon="1.89351">
        <ele>1493.35</ele>
        <time>2019-04-07T23:03:06Z</time>
      </trkpt>
      <trkpt lat="42.26976" lon="1.89355">
        <ele>1493.124</ele>
        <time>2019-04-07T23:03:07Z</time>
      </trkpt>
      <trkpt lat="42.26976" lon="1.89359">
        <ele>1492.973</ele>
        <time>2019-04-07T23:03:08Z</time>
      </trkpt>
      <trkpt lat="42.26974" lon="1.89378">
        <ele>1492.555</ele>
        <time>2019-04-07T23:03:14Z</time>
      </trkpt>
      <trkpt lat="42.26973" lon="1.89379">
        <ele>1492.391</ele>
        <time>2019-04-07T23:03:14Z</time>
      </trkpt>
      <trkpt lat="42.26969" lon="1.89388">
        <ele>1491.481</ele>
        <time>2019-04-07T23:03:17Z</time>
      </trkpt>
      <trkpt lat="42.26969" lon="1.8939">
        <ele>1491.119</ele>
        <time>2019-04-07T23:03:18Z</time>
      </trkpt>
      <trkpt lat="42.26966" lon="1.89396">
        <ele>1490.008</ele>
        <time>2019-04-07T23:03:20Z</time>
      </trkpt>
      <trkpt lat="42.26966" lon="1.89397">
        <ele>1490.062</ele>
        <time>2019-04-07T23:03:20Z</time>
      </trkpt>
      <trkpt lat="42.26966" lon="1.89397">
        <ele>1490.014</ele>
        <time>2019-04-07T23:03:20Z</time>
      </trkpt>
      <trkpt lat="42.26966" lon="1.89396">
        <ele>1489.629</ele>
        <time>2019-04-07T23:03:20Z</time>
      </trkpt>
      <trkpt lat="42.26964" lon="1.89394">
        <ele>1489.11</ele>
        <time>2019-04-07T23:03:21Z</time>
      </trkpt>
      <trkpt lat="42.26962" lon="1.89389">
        <ele>1489.01</ele>
        <time>2019-04-07T23:03:23Z</time>
      </trkpt>
      <trkpt lat="42.26961" lon="1.89382">
        <ele>1489.214</ele>
        <time>2019-04-07T23:03:25Z</time>
      </trkpt>
      <trkpt lat="42.26961" lon="1.89379">
        <ele>1489.253</ele>
        <time>2019-04-07T23:03:26Z</time>
      </trkpt>
      <trkpt lat="42.26963" lon="1.89373">
        <ele>1489.725</ele>
        <time>2019-04-07T23:03:28Z</time>
      </trkpt>
      <trkpt lat="42.26965" lon="1.89369">
        <ele>1490.222</ele>
        <time>2019-04-07T23:03:29Z</time>
      </trkpt>
      <trkpt lat="42.26966" lon="1.89367">
        <ele>1490.562</ele>
        <time>2019-04-07T23:03:30Z</time>
      </trkpt>
      <trkpt lat="42.26967" lon="1.89359">
        <ele>1491.108</ele>
        <time>2019-04-07T23:03:32Z</time>
      </trkpt>
      <trkpt lat="42.26968" lon="1.89356">
        <ele>1491.108</ele>
        <time>2019-04-07T23:03:33Z</time>
      </trkpt>
      <trkpt lat="42.26969" lon="1.89353">
        <ele>1491.635</ele>
        <time>2019-04-07T23:03:34Z</time>
      </trkpt>
      <trkpt lat="42.2697" lon="1.89349">
        <ele>1492.397</ele>
        <time>2019-04-07T23:03:36Z</time>
      </trkpt>
      <trkpt lat="42.26973" lon="1.89336">
        <ele>1493.282</ele>
        <time>2019-04-07T23:03:40Z</time>
      </trkpt>
      <trkpt lat="42.26974" lon="1.89334">
        <ele>1493.053</ele>
        <time>2019-04-07T23:03:40Z</time>
      </trkpt>
      <trkpt lat="42.26977" lon="1.89327">
        <ele>1493.313</ele>
        <time>2019-04-07T23:03:43Z</time>
      </trkpt>
      <trkpt lat="42.26982" lon="1.89324">
        <ele>1493.637</ele>
        <time>2019-04-07T23:03:45Z</time>
      </trkpt>
      <trkpt lat="42.26984" lon="1.89324">
        <ele>1493.566</ele>
        <time>2019-04-07T23:03:46Z</time>
      </trkpt>
      <trkpt lat="42.26988" lon="1.89323">
        <ele>1493.918</ele>
        <time>2019-04-07T23:03:47Z</time>
      </trkpt>
      <trkpt lat="42.26991" lon="1.89322">
        <ele>1493.834</ele>
        <time>2019-04-07T23:03:49Z</time>
      </trkpt>
      <trkpt lat="42.26997" lon="1.89324">
        <ele>1493.855</ele>
        <time>2019-04-07T23:03:51Z</time>
      </trkpt>
      <trkpt lat="42.27007" lon="1.89338">
        <ele>1493.81</ele>
        <time>2019-04-07T23:03:57Z</time>
      </trkpt>
      <trkpt lat="42.27014" lon="1.89347">
        <ele>1493.808</ele>
        <time>2019-04-07T23:04:01Z</time>
      </trkpt>
      <trkpt lat="42.27017" lon="1.89353">
        <ele>1494.126</ele>
        <time>2019-04-07T23:04:03Z</time>
      </trkpt>
      <trkpt lat="42.27019" lon="1.89356">
        <ele>1494.258</ele>
        <time>2019-04-07T23:04:04Z</time>
      </trkpt>
      <trkpt lat="42.27021" lon="1.89358">
        <ele>1494.583</ele>
        <time>2019-04-07T23:04:05Z</time>
      </trkpt>
      <trkpt lat="42.27025" lon="1.89364">
        <ele>1495.354</ele>
        <time>2019-04-07T23:04:08Z</time>
      </trkpt>
      <trkpt lat="42.27026" lon="1.89366">
        <ele>1495.554</ele>
        <time>2019-04-07T23:04:08Z</time>
      </trkpt>
      <trkpt lat="42.27026" lon="1.89367">
        <ele>1495.438</ele>
        <time>2019-04-07T23:04:08Z</time>
      </trkpt>
      <trkpt lat="42.2703" lon="1.89372">
        <ele>1496.537</ele>
        <time>2019-04-07T23:04:11Z</time>
      </trkpt>
      <trkpt lat="42.27034" lon="1.89377">
        <ele>1497.269</ele>
        <time>2019-04-07T23:04:13Z</time>
      </trkpt>
      <trkpt lat="42.27035" lon="1.89379">
        <ele>1497.378</ele>
        <time>2019-04-07T23:04:14Z</time>
      </trkpt>
      <trkpt lat="42.27035" lon="1.89379">
        <ele>1497.533</ele>
        <time>2019-04-07T23:04:14Z</time>
      </trkpt>
      <trkpt lat="42.27035" lon="1.89384">
        <ele>1497.526</ele>
        <time>2019-04-07T23:04:15Z</time>
      </trkpt>
      <trkpt lat="42.27036" lon="1.89385">
        <ele>1497.808</ele>
        <time>2019-04-07T23:04:15Z</time>
      </trkpt>
      <trkpt lat="42.27037" lon="1.89389">
        <ele>1498.52</ele>
        <time>2019-04-07T23:04:17Z</time>
      </trkpt>
      <trkpt lat="42.27038" lon="1.8939">
        <ele>1498.712</ele>
        <time>2019-04-07T23:04:17Z</time>
      </trkpt>
      <trkpt lat="42.27038" lon="1.89392">
        <ele>1499.097</ele>
        <time>2019-04-07T23:04:18Z</time>
      </trkpt>
      <trkpt lat="42.27039" lon="1.89399">
        <ele>1499.948</ele>
        <time>2019-04-07T23:04:20Z</time>
      </trkpt>
      <trkpt lat="42.27039" lon="1.894">
        <ele>1500.188</ele>
        <time>2019-04-07T23:04:20Z</time>
      </trkpt>
      <trkpt lat="42.27042" lon="1.89405">
        <ele>1501.112</ele>
        <time>2019-04-07T23:04:22Z</time>
      </trkpt>
      <trkpt lat="42.27043" lon="1.89406">
        <ele>1501.031</ele>
        <time>2019-04-07T23:04:22Z</time>
      </trkpt>
      <trkpt lat="42.27043" lon="1.89408">
        <ele>1501.593</ele>
        <time>2019-04-07T23:04:23Z</time>
      </trkpt>
      <trkpt lat="42.27044" lon="1.8941">
        <ele>1501.992</ele>
        <time>2019-04-07T23:04:24Z</time>
      </trkpt>
      <trkpt lat="42.27045" lon="1.89412">
        <ele>1502.673</ele>
        <time>2019-04-07T23:04:25Z</time>
      </trkpt>
      <trkpt lat="42.27047" lon="1.89415">
        <ele>1503.02</ele>
        <time>2019-04-07T23:04:26Z</time>
      </trkpt>
      <trkpt lat="42.27048" lon="1.89417">
        <ele>1503.108</ele>
        <time>2019-04-07T23:04:26Z</time>
      </trkpt>
      <trkpt lat="42.27049" lon="1.8942">
        <ele>1503.592</ele>
        <time>2019-04-07T23:04:27Z</time>
      </trkpt>
      <trkpt lat="42.27051" lon="1.89421">
        <ele>1503.824</ele>
        <time>2019-04-07T23:04:28Z</time>
      </trkpt>
      <trkpt lat="42.27052" lon="1.89422">
        <ele>1504.279</ele>
        <time>2019-04-07T23:04:29Z</time>
      </trkpt>
      <trkpt lat="42.27053" lon="1.89426">
        <ele>1504.71</ele>
        <time>2019-04-07T23:04:30Z</time>
      </trkpt>
      <trkpt lat="42.27053" lon="1.89427">
        <ele>1504.95</ele>
        <time>2019-04-07T23:04:30Z</time>
      </trkpt>
      <trkpt lat="42.27054" lon="1.89431">
        <ele>1505.464</ele>
        <time>2019-04-07T23:04:31Z</time>
      </trkpt>
      <trkpt lat="42.27056" lon="1.89432">
        <ele>1505.653</ele>
        <time>2019-04-07T23:04:32Z</time>
      </trkpt>
      <trkpt lat="42.27058" lon="1.89435">
        <ele>1506.955</ele>
        <time>2019-04-07T23:04:33Z</time>
      </trkpt>
      <trkpt lat="42.27058" lon="1.89438">
        <ele>1507.286</ele>
        <time>2019-04-07T23:04:34Z</time>
      </trkpt>
      <trkpt lat="42.27057" lon="1.8944">
        <ele>1507.66</ele>
        <time>2019-04-07T23:04:35Z</time>
      </trkpt>
      <trkpt lat="42.27058" lon="1.89441">
        <ele>1507.826</ele>
        <time>2019-04-07T23:04:35Z</time>
      </trkpt>
      <trkpt lat="42.27058" lon="1.89442">
        <ele>1508.008</ele>
        <time>2019-04-07T23:04:35Z</time>
      </trkpt>
      <trkpt lat="42.27059" lon="1.89443">
        <ele>1508.361</ele>
        <time>2019-04-07T23:04:36Z</time>
      </trkpt>
      <trkpt lat="42.2706" lon="1.89446">
        <ele>1508.563</ele>
        <time>2019-04-07T23:04:37Z</time>
      </trkpt>
      <trkpt lat="42.2706" lon="1.89449">
        <ele>1509.288</ele>
        <time>2019-04-07T23:04:37Z</time>
      </trkpt>
      <trkpt lat="42.2706" lon="1.8945">
        <ele>1509.569</ele>
        <time>2019-04-07T23:04:38Z</time>
      </trkpt>
      <trkpt lat="42.2706" lon="1.89451">
        <ele>1509.589</ele>
        <time>2019-04-07T23:04:38Z</time>
      </trkpt>
      <trkpt lat="42.27062" lon="1.89456">
        <ele>1510.183</ele>
        <time>2019-04-07T23:04:40Z</time>
      </trkpt>
      <trkpt lat="42.27063" lon="1.89458">
        <ele>1510.392</ele>
        <time>2019-04-07T23:04:41Z</time>
      </trkpt>
      <trkpt lat="42.27064" lon="1.89459">
        <ele>1510.474</ele>
        <time>2019-04-07T23:04:41Z</time>
      </trkpt>
      <trkpt lat="42.27067" lon="1.89464">
        <ele>1511.398</ele>
        <time>2019-04-07T23:04:43Z</time>
      </trkpt>
      <trkpt lat="42.27068" lon="1.89465">
        <ele>1511.515</ele>
        <time>2019-04-07T23:04:43Z</time>
      </trkpt>
      <trkpt lat="42.27069" lon="1.89466">
        <ele>1511.826</ele>
        <time>2019-04-07T23:04:44Z</time>
      </trkpt>
      <trkpt lat="42.27069" lon="1.89466">
        <ele>1512.108</ele>
        <time>2019-04-07T23:04:44Z</time>
      </trkpt>
      <trkpt lat="42.2707" lon="1.89464">
        <ele>1512.652</ele>
        <time>2019-04-07T23:04:45Z</time>
      </trkpt>
      <trkpt lat="42.27071" lon="1.89463">
        <ele>1513.234</ele>
        <time>2019-04-07T23:04:45Z</time>
      </trkpt>
      <trkpt lat="42.27071" lon="1.89463">
        <ele>1513.479</ele>
        <time>2019-04-07T23:04:46Z</time>
      </trkpt>
      <trkpt lat="42.27072" lon="1.89463">
        <ele>1513.54</ele>
        <time>2019-04-07T23:04:46Z</time>
      </trkpt>
      <trkpt lat="42.27073" lon="1.89462">
        <ele>1514.21</ele>
        <time>2019-04-07T23:04:46Z</time>
      </trkpt>
      <trkpt lat="42.27074" lon="1.89462">
        <ele>1514.464</ele>
        <time>2019-04-07T23:04:47Z</time>
      </trkpt>
      <trkpt lat="42.27075" lon="1.89462">
        <ele>1514.543</ele>
        <time>2019-04-07T23:04:47Z</time>
      </trkpt>
      <trkpt lat="42.27075" lon="1.89462">
        <ele>1514.885</ele>
        <time>2019-04-07T23:04:47Z</time>
      </trkpt>
      <trkpt lat="42.27076" lon="1.89462">
        <ele>1515.282</ele>
        <time>2019-04-07T23:04:48Z</time>
      </trkpt>
      <trkpt lat="42.27077" lon="1.89462">
        <ele>1515.543</ele>
        <time>2019-04-07T23:04:48Z</time>
      </trkpt>
      <trkpt lat="42.27077" lon="1.89461">
        <ele>1515.517</ele>
        <time>2019-04-07T23:04:48Z</time>
      </trkpt>
      <trkpt lat="42.27078" lon="1.89459">
        <ele>1516.008</ele>
        <time>2019-04-07T23:04:49Z</time>
      </trkpt>
      <trkpt lat="42.27079" lon="1.89457">
        <ele>1516.521</ele>
        <time>2019-04-07T23:04:49Z</time>
      </trkpt>
      <trkpt lat="42.27079" lon="1.89455">
        <ele>1516.873</ele>
        <time>2019-04-07T23:04:50Z</time>
      </trkpt>
      <trkpt lat="42.27079" lon="1.89453">
        <ele>1517.328</ele>
        <time>2019-04-07T23:04:51Z</time>
      </trkpt>
      <trkpt lat="42.27079" lon="1.89451">
        <ele>1517.619</ele>
        <time>2019-04-07T23:04:51Z</time>
      </trkpt>
      <trkpt lat="42.27079" lon="1.8945">
        <ele>1518.069</ele>
        <time>2019-04-07T23:04:51Z</time>
      </trkpt>
      <trkpt lat="42.27079" lon="1.8945">
        <ele>1518.253</ele>
        <time>2019-04-07T23:04:52Z</time>
      </trkpt>
      <trkpt lat="42.27079" lon="1.89447">
        <ele>1518.612</ele>
        <time>2019-04-07T23:04:52Z</time>
      </trkpt>
      <trkpt lat="42.27079" lon="1.89445">
        <ele>1519.084</ele>
        <time>2019-04-07T23:04:53Z</time>
      </trkpt>
      <trkpt lat="42.27079" lon="1.89444">
        <ele>1519.294</ele>
        <time>2019-04-07T23:04:53Z</time>
      </trkpt>
      <trkpt lat="42.2708" lon="1.89441">
        <ele>1519.657</ele>
        <time>2019-04-07T23:04:54Z</time>
      </trkpt>
      <trkpt lat="42.27083" lon="1.89438">
        <ele>1520.122</ele>
        <time>2019-04-07T23:04:55Z</time>
      </trkpt>
      <trkpt lat="42.27086" lon="1.89434">
        <ele>1520.508</ele>
        <time>2019-04-07T23:04:57Z</time>
      </trkpt>
      <trkpt lat="42.27087" lon="1.89432">
        <ele>1521.072</ele>
        <time>2019-04-07T23:04:58Z</time>
      </trkpt>
      <trkpt lat="42.27088" lon="1.8943">
        <ele>1521.244</ele>
        <time>2019-04-07T23:04:59Z</time>
      </trkpt>
      <trkpt lat="42.27091" lon="1.89427">
        <ele>1521.259</ele>
        <time>2019-04-07T23:05:00Z</time>
      </trkpt>
      <trkpt lat="42.27091" lon="1.89426">
        <ele>1521.43</ele>
        <time>2019-04-07T23:05:01Z</time>
      </trkpt>
      <trkpt lat="42.27092" lon="1.89425">
        <ele>1521.68</ele>
        <time>2019-04-07T23:05:01Z</time>
      </trkpt>
      <trkpt lat="42.27095" lon="1.89423">
        <ele>1522.294</ele>
        <time>2019-04-07T23:05:02Z</time>
      </trkpt>
      <trkpt lat="42.27097" lon="1.89422">
        <ele>1522.493</ele>
        <time>2019-04-07T23:05:03Z</time>
      </trkpt>
      <trkpt lat="42.27099" lon="1.8942">
        <ele>1522.985</ele>
        <time>2019-04-07T23:05:04Z</time>
      </trkpt>
      <trkpt lat="42.271" lon="1.89418">
        <ele>1523.635</ele>
        <time>2019-04-07T23:05:05Z</time>
      </trkpt>
      <trkpt lat="42.271" lon="1.89417">
        <ele>1523.686</ele>
        <time>2019-04-07T23:05:05Z</time>
      </trkpt>
      <trkpt lat="42.27101" lon="1.89416">
        <ele>1523.814</ele>
        <time>2019-04-07T23:05:06Z</time>
      </trkpt>
      <trkpt lat="42.27102" lon="1.89414">
        <ele>1524.008</ele>
        <time>2019-04-07T23:05:06Z</time>
      </trkpt>
      <trkpt lat="42.27102" lon="1.89414">
        <ele>1524.256</ele>
        <time>2019-04-07T23:05:06Z</time>
      </trkpt>
      <trkpt lat="42.27103" lon="1.89414">
        <ele>1524.988</ele>
        <time>2019-04-07T23:05:07Z</time>
      </trkpt>
      <trkpt lat="42.27104" lon="1.8941">
        <ele>1525.213</ele>
        <time>2019-04-07T23:05:08Z</time>
      </trkpt>
      <trkpt lat="42.27106" lon="1.89407">
        <ele>1525.594</ele>
        <time>2019-04-07T23:05:09Z</time>
      </trkpt>
      <trkpt lat="42.27107" lon="1.89405">
        <ele>1526.284</ele>
        <time>2019-04-07T23:05:10Z</time>
      </trkpt>
      <trkpt lat="42.27109" lon="1.89401">
        <ele>1526.978</ele>
        <time>2019-04-07T23:05:11Z</time>
      </trkpt>
      <trkpt lat="42.2711" lon="1.894">
        <ele>1527.237</ele>
        <time>2019-04-07T23:05:12Z</time>
      </trkpt>
      <trkpt lat="42.27111" lon="1.894">
        <ele>1527.159</ele>
        <time>2019-04-07T23:05:12Z</time>
      </trkpt>
      <trkpt lat="42.27112" lon="1.89398">
        <ele>1527.751</ele>
        <time>2019-04-07T23:05:13Z</time>
      </trkpt>
      <trkpt lat="42.27113" lon="1.89399">
        <ele>1528.001</ele>
        <time>2019-04-07T23:05:13Z</time>
      </trkpt>
      <trkpt lat="42.27114" lon="1.89398">
        <ele>1528.111</ele>
        <time>2019-04-07T23:05:13Z</time>
      </trkpt>
      <trkpt lat="42.27115" lon="1.89397">
        <ele>1528.808</ele>
        <time>2019-04-07T23:05:14Z</time>
      </trkpt>
      <trkpt lat="42.27116" lon="1.89396">
        <ele>1529.298</ele>
        <time>2019-04-07T23:05:15Z</time>
      </trkpt>
      <trkpt lat="42.27118" lon="1.89395">
        <ele>1529.55</ele>
        <time>2019-04-07T23:05:15Z</time>
      </trkpt>
      <trkpt lat="42.27121" lon="1.89393">
        <ele>1530.115</ele>
        <time>2019-04-07T23:05:16Z</time>
      </trkpt>
      <trkpt lat="42.27121" lon="1.89392">
        <ele>1530.456</ele>
        <time>2019-04-07T23:05:17Z</time>
      </trkpt>
      <trkpt lat="42.27122" lon="1.8939">
        <ele>1530.966</ele>
        <time>2019-04-07T23:05:17Z</time>
      </trkpt>
      <trkpt lat="42.27125" lon="1.89389">
        <ele>1531.67</ele>
        <time>2019-04-07T23:05:19Z</time>
      </trkpt>
      <trkpt lat="42.27129" lon="1.89386">
        <ele>1532.139</ele>
        <time>2019-04-07T23:05:21Z</time>
      </trkpt>
      <trkpt lat="42.27131" lon="1.89383">
        <ele>1532.531</ele>
        <time>2019-04-07T23:05:22Z</time>
      </trkpt>
      <trkpt lat="42.27132" lon="1.89381">
        <ele>1532.512</ele>
        <time>2019-04-07T23:05:22Z</time>
      </trkpt>
      <trkpt lat="42.27133" lon="1.89378">
        <ele>1532.632</ele>
        <time>2019-04-07T23:05:23Z</time>
      </trkpt>
      <trkpt lat="42.27138" lon="1.89369">
        <ele>1533.505</ele>
        <time>2019-04-07T23:05:27Z</time>
      </trkpt>
      <trkpt lat="42.27144" lon="1.89362">
        <ele>1534.508</ele>
        <time>2019-04-07T23:05:30Z</time>
      </trkpt>
      <trkpt lat="42.27144" lon="1.8936">
        <ele>1534.944</ele>
        <time>2019-04-07T23:05:30Z</time>
      </trkpt>
      <trkpt lat="42.27146" lon="1.89358">
        <ele>1535.046</ele>
        <time>2019-04-07T23:05:31Z</time>
      </trkpt>
      <trkpt lat="42.27148" lon="1.89357">
        <ele>1535.671</ele>
        <time>2019-04-07T23:05:32Z</time>
      </trkpt>
      <trkpt lat="42.27149" lon="1.89356">
        <ele>1536.062</ele>
        <time>2019-04-07T23:05:33Z</time>
      </trkpt>
      <trkpt lat="42.27149" lon="1.89356">
        <ele>1536.152</ele>
        <time>2019-04-07T23:05:33Z</time>
      </trkpt>
      <trkpt lat="42.27151" lon="1.89354">
        <ele>1536.566</ele>
        <time>2019-04-07T23:05:34Z</time>
      </trkpt>
      <trkpt lat="42.27154" lon="1.89352">
        <ele>1537.025</ele>
        <time>2019-04-07T23:05:35Z</time>
      </trkpt>
      <trkpt lat="42.2716" lon="1.8935">
        <ele>1537.667</ele>
        <time>2019-04-07T23:05:37Z</time>
      </trkpt>
      <trkpt lat="42.27161" lon="1.89349">
        <ele>1538.018</ele>
        <time>2019-04-07T23:05:38Z</time>
      </trkpt>
      <trkpt lat="42.27163" lon="1.89347">
        <ele>1538.698</ele>
        <time>2019-04-07T23:05:39Z</time>
      </trkpt>
      <trkpt lat="42.27164" lon="1.89346">
        <ele>1539.017</ele>
        <time>2019-04-07T23:05:40Z</time>
      </trkpt>
      <trkpt lat="42.27167" lon="1.89344">
        <ele>1540.008</ele>
        <time>2019-04-07T23:05:41Z</time>
      </trkpt>
      <trkpt lat="42.27168" lon="1.89343">
        <ele>1540.324</ele>
        <time>2019-04-07T23:05:41Z</time>
      </trkpt>
      <trkpt lat="42.2717" lon="1.89343">
        <ele>1540.976</ele>
        <time>2019-04-07T23:05:42Z</time>
      </trkpt>
      <trkpt lat="42.27171" lon="1.89343">
        <ele>1541.061</ele>
        <time>2019-04-07T23:05:43Z</time>
      </trkpt>
      <trkpt lat="42.27173" lon="1.89344">
        <ele>1541.262</ele>
        <time>2019-04-07T23:05:43Z</time>
      </trkpt>
      <trkpt lat="42.27178" lon="1.89345">
        <ele>1542.272</ele>
        <time>2019-04-07T23:05:45Z</time>
      </trkpt>
      <trkpt lat="42.2718" lon="1.89346">
        <ele>1542.266</ele>
        <time>2019-04-07T23:05:46Z</time>
      </trkpt>
      <trkpt lat="42.27182" lon="1.89347">
        <ele>1543.695</ele>
        <time>2019-04-07T23:05:47Z</time>
      </trkpt>
      <trkpt lat="42.27184" lon="1.89344">
        <ele>1543.587</ele>
        <time>2019-04-07T23:05:48Z</time>
      </trkpt>
      <trkpt lat="42.27185" lon="1.89342">
        <ele>1543.561</ele>
        <time>2019-04-07T23:05:49Z</time>
      </trkpt>
      <trkpt lat="42.2719" lon="1.89334">
        <ele>1543.221</ele>
        <time>2019-04-07T23:05:52Z</time>
      </trkpt>
      <trkpt lat="42.27195" lon="1.89329">
        <ele>1542.513</ele>
        <time>2019-04-07T23:05:55Z</time>
      </trkpt>
      <trkpt lat="42.27195" lon="1.89329">
        <ele>1542.508</ele>
        <time>2019-04-07T23:05:55Z</time>
      </trkpt>
      <trkpt lat="42.27195" lon="1.8933">
        <ele>1542.769</ele>
        <time>2019-04-07T23:05:55Z</time>
      </trkpt>
      <trkpt lat="42.27194" lon="1.8933">
        <ele>1542.371</ele>
        <time>2019-04-07T23:05:55Z</time>
      </trkpt>
      <trkpt lat="42.27194" lon="1.89331">
        <ele>1542.256</ele>
        <time>2019-04-07T23:05:55Z</time>
      </trkpt>
      <trkpt lat="42.27192" lon="1.89331">
        <ele>1542.117</ele>
        <time>2019-04-07T23:05:56Z</time>
      </trkpt>
      <trkpt lat="42.27193" lon="1.89328">
        <ele>1542.427</ele>
        <time>2019-04-07T23:05:57Z</time>
      </trkpt>
      <trkpt lat="42.27197" lon="1.89323">
        <ele>1542.231</ele>
        <time>2019-04-07T23:05:59Z</time>
      </trkpt>
      <trkpt lat="42.27198" lon="1.8932">
        <ele>1542.27</ele>
        <time>2019-04-07T23:06:00Z</time>
      </trkpt>
      <trkpt lat="42.27201" lon="1.89316">
        <ele>1542.552</ele>
        <time>2019-04-07T23:06:02Z</time>
      </trkpt>
      <trkpt lat="42.27202" lon="1.89314">
        <ele>1542.597</ele>
        <time>2019-04-07T23:06:02Z</time>
      </trkpt>
      <trkpt lat="42.27203" lon="1.8931">
        <ele>1543.623</ele>
        <time>2019-04-07T23:06:04Z</time>
      </trkpt>
      <trkpt lat="42.27205" lon="1.89307">
        <ele>1543.825</ele>
        <time>2019-04-07T23:06:05Z</time>
      </trkpt>
      <trkpt lat="42.27206" lon="1.89305">
        <ele>1543.808</ele>
        <time>2019-04-07T23:06:06Z</time>
      </trkpt>
      <trkpt lat="42.27206" lon="1.89302">
        <ele>1543.842</ele>
        <time>2019-04-07T23:06:06Z</time>
      </trkpt>
      <trkpt lat="42.27207" lon="1.893">
        <ele>1544.354</ele>
        <time>2019-04-07T23:06:07Z</time>
      </trkpt>
      <trkpt lat="42.27207" lon="1.89299">
        <ele>1544.559</ele>
        <time>2019-04-07T23:06:08Z</time>
      </trkpt>
      <trkpt lat="42.27209" lon="1.89288">
        <ele>1545.63</ele>
        <time>2019-04-07T23:06:11Z</time>
      </trkpt>
      <trkpt lat="42.27211" lon="1.89284">
        <ele>1545.99</ele>
        <time>2019-04-07T23:06:12Z</time>
      </trkpt>
      <trkpt lat="42.27213" lon="1.89281">
        <ele>1546.194</ele>
        <time>2019-04-07T23:06:13Z</time>
      </trkpt>
      <trkpt lat="42.27213" lon="1.89279">
        <ele>1546.323</ele>
        <time>2019-04-07T23:06:14Z</time>
      </trkpt>
      <trkpt lat="42.27215" lon="1.89276">
        <ele>1546.795</ele>
        <time>2019-04-07T23:06:15Z</time>
      </trkpt>
      <trkpt lat="42.2722" lon="1.89271">
        <ele>1546.928</ele>
        <time>2019-04-07T23:06:17Z</time>
      </trkpt>
      <trkpt lat="42.27231" lon="1.89261">
        <ele>1545.489</ele>
        <time>2019-04-07T23:06:23Z</time>
      </trkpt>
      <trkpt lat="42.27235" lon="1.89256">
        <ele>1544.417</ele>
        <time>2019-04-07T23:06:25Z</time>
      </trkpt>
      <trkpt lat="42.27236" lon="1.89255">
        <ele>1544.108</ele>
        <time>2019-04-07T23:06:26Z</time>
      </trkpt>
      <trkpt lat="42.27239" lon="1.89245">
        <ele>1543.165</ele>
        <time>2019-04-07T23:06:29Z</time>
      </trkpt>
      <trkpt lat="42.27241" lon="1.89239">
        <ele>1541.947</ele>
        <time>2019-04-07T23:06:31Z</time>
      </trkpt>
      <trkpt lat="42.27243" lon="1.89235">
        <ele>1540.932</ele>
        <time>2019-04-07T23:06:32Z</time>
      </trkpt>
      <trkpt lat="42.27245" lon="1.89232">
        <ele>1540.553</ele>
        <time>2019-04-07T23:06:33Z</time>
      </trkpt>
      <trkpt lat="42.27247" lon="1.89228">
        <ele>1539.673</ele>
        <time>2019-04-07T23:06:35Z</time>
      </trkpt>
      <trkpt lat="42.2725" lon="1.89221">
        <ele>1538.497</ele>
        <time>2019-04-07T23:06:37Z</time>
      </trkpt>
      <trkpt lat="42.27251" lon="1.89219">
        <ele>1538.136</ele>
        <time>2019-04-07T23:06:38Z</time>
      </trkpt>
      <trkpt lat="42.27253" lon="1.89216">
        <ele>1537.278</ele>
        <time>2019-04-07T23:06:39Z</time>
      </trkpt>
      <trkpt lat="42.27254" lon="1.89212">
        <ele>1536.049</ele>
        <time>2019-04-07T23:06:40Z</time>
      </trkpt>
      <trkpt lat="42.27254" lon="1.89212">
        <ele>1535.302</ele>
        <time>2019-04-07T23:06:41Z</time>
      </trkpt>
      <trkpt lat="42.27254" lon="1.89211">
        <ele>1534.822</ele>
        <time>2019-04-07T23:06:41Z</time>
      </trkpt>
      <trkpt lat="42.27255" lon="1.8921">
        <ele>1534.008</ele>
        <time>2019-04-07T23:06:41Z</time>
      </trkpt>
      <trkpt lat="42.27257" lon="1.89206">
        <ele>1534.117</ele>
        <time>2019-04-07T23:06:43Z</time>
      </trkpt>
      <trkpt lat="42.27258" lon="1.89203">
        <ele>1533.549</ele>
        <time>2019-04-07T23:06:44Z</time>
      </trkpt>
      <trkpt lat="42.27263" lon="1.89196">
        <ele>1532.114</ele>
        <time>2019-04-07T23:06:47Z</time>
      </trkpt>
      <trkpt lat="42.27267" lon="1.89189">
        <ele>1531.565</ele>
        <time>2019-04-07T23:06:49Z</time>
      </trkpt>
      <trkpt lat="42.27269" lon="1.89188">
        <ele>1531.025</ele>
        <time>2019-04-07T23:06:50Z</time>
      </trkpt>
      <trkpt lat="42.27271" lon="1.89184">
        <ele>1530.599</ele>
        <time>2019-04-07T23:06:51Z</time>
      </trkpt>
      <trkpt lat="42.27272" lon="1.89182">
        <ele>1529.848</ele>
        <time>2019-04-07T23:06:52Z</time>
      </trkpt>
      <trkpt lat="42.27275" lon="1.89179">
        <ele>1528.91</ele>
        <time>2019-04-07T23:06:53Z</time>
      </trkpt>
      <trkpt lat="42.27279" lon="1.89174">
        <ele>1527.821</ele>
        <time>2019-04-07T23:06:56Z</time>
      </trkpt>
      <trkpt lat="42.2728" lon="1.89171">
        <ele>1527.541</ele>
        <time>2019-04-07T23:06:56Z</time>
      </trkpt>
      <trkpt lat="42.27282" lon="1.89167">
        <ele>1526.505</ele>
        <time>2019-04-07T23:06:58Z</time>
      </trkpt>
      <trkpt lat="42.27286" lon="1.89158">
        <ele>1525.808</ele>
        <time>2019-04-07T23:07:01Z</time>
      </trkpt>
      <trkpt lat="42.27286" lon="1.89156">
        <ele>1525.275</ele>
        <time>2019-04-07T23:07:02Z</time>
      </trkpt>
      <trkpt lat="42.27288" lon="1.89151">
        <ele>1524.177</ele>
        <time>2019-04-07T23:07:03Z</time>
      </trkpt>
      <trkpt lat="42.27289" lon="1.89147">
        <ele>1523.112</ele>
        <time>2019-04-07T23:07:05Z</time>
      </trkpt>
      <trkpt lat="42.2729" lon="1.89146">
        <ele>1522.593</ele>
        <time>2019-04-07T23:07:05Z</time>
      </trkpt>
      <trkpt lat="42.27292" lon="1.89143">
        <ele>1521.783</ele>
        <time>2019-04-07T23:07:06Z</time>
      </trkpt>
      <trkpt lat="42.27295" lon="1.8914">
        <ele>1521.297</ele>
        <time>2019-04-07T23:07:08Z</time>
      </trkpt>
      <trkpt lat="42.27296" lon="1.89138">
        <ele>1520.656</ele>
        <time>2019-04-07T23:07:08Z</time>
      </trkpt>
      <trkpt lat="42.27301" lon="1.89134">
        <ele>1519.258</ele>
        <time>2019-04-07T23:07:11Z</time>
      </trkpt>
      <trkpt lat="42.27302" lon="1.89134">
        <ele>1518.643</ele>
        <time>2019-04-07T23:07:11Z</time>
      </trkpt>
      <trkpt lat="42.27304" lon="1.89133">
        <ele>1517.964</ele>
        <time>2019-04-07T23:07:12Z</time>
      </trkpt>
      <trkpt lat="42.27306" lon="1.89131">
        <ele>1516.51</ele>
        <time>2019-04-07T23:07:13Z</time>
      </trkpt>
      <trkpt lat="42.27308" lon="1.89128">
        <ele>1515.808</ele>
        <time>2019-04-07T23:07:14Z</time>
      </trkpt>
      <trkpt lat="42.27309" lon="1.89128">
        <ele>1515.377</ele>
        <time>2019-04-07T23:07:14Z</time>
      </trkpt>
      <trkpt lat="42.2731" lon="1.89126">
        <ele>1514.189</ele>
        <time>2019-04-07T23:07:15Z</time>
      </trkpt>
      <trkpt lat="42.2731" lon="1.89125">
        <ele>1513.224</ele>
        <time>2019-04-07T23:07:16Z</time>
      </trkpt>
      <trkpt lat="42.2731" lon="1.89125">
        <ele>1513.265</ele>
        <time>2019-04-07T23:07:16Z</time>
      </trkpt>
      <trkpt lat="42.27308" lon="1.89125">
        <ele>1513.035</ele>
        <time>2019-04-07T23:07:16Z</time>
      </trkpt>
      <trkpt lat="42.27308" lon="1.89125">
        <ele>1512.979</ele>
        <time>2019-04-07T23:07:16Z</time>
      </trkpt>
      <trkpt lat="42.27311" lon="1.89116">
        <ele>1512.678</ele>
        <time>2019-04-07T23:07:19Z</time>
      </trkpt>
      <trkpt lat="42.27312" lon="1.89115">
        <ele>1512.68</ele>
        <time>2019-04-07T23:07:20Z</time>
      </trkpt>
      <trkpt lat="42.27316" lon="1.89111">
        <ele>1511.937</ele>
        <time>2019-04-07T23:07:22Z</time>
      </trkpt>
      <trkpt lat="42.27319" lon="1.89107">
        <ele>1510.549</ele>
        <time>2019-04-07T23:07:23Z</time>
      </trkpt>
      <trkpt lat="42.2732" lon="1.89105">
        <ele>1510.013</ele>
        <time>2019-04-07T23:07:24Z</time>
      </trkpt>
      <trkpt lat="42.27322" lon="1.89101">
        <ele>1509.008</ele>
        <time>2019-04-07T23:07:26Z</time>
      </trkpt>
      <trkpt lat="42.27324" lon="1.89098">
        <ele>1507.916</ele>
        <time>2019-04-07T23:07:27Z</time>
      </trkpt>
      <trkpt lat="42.27325" lon="1.89097">
        <ele>1507.538</ele>
        <time>2019-04-07T23:07:27Z</time>
      </trkpt>
      <trkpt lat="42.27327" lon="1.89095">
        <ele>1506.963</ele>
        <time>2019-04-07T23:07:28Z</time>
      </trkpt>
      <trkpt lat="42.27331" lon="1.89092">
        <ele>1505.374</ele>
        <time>2019-04-07T23:07:30Z</time>
      </trkpt>
      <trkpt lat="42.27333" lon="1.8909">
        <ele>1504.264</ele>
        <time>2019-04-07T23:07:31Z</time>
      </trkpt>
      <trkpt lat="42.27335" lon="1.89088">
        <ele>1503.658</ele>
        <time>2019-04-07T23:07:32Z</time>
      </trkpt>
      <trkpt lat="42.27337" lon="1.89085">
        <ele>1502.577</ele>
        <time>2019-04-07T23:07:33Z</time>
      </trkpt>
      <trkpt lat="42.27342" lon="1.89079">
        <ele>1501.669</ele>
        <time>2019-04-07T23:07:36Z</time>
      </trkpt>
      <trkpt lat="42.27346" lon="1.89075">
        <ele>1500.374</ele>
        <time>2019-04-07T23:07:38Z</time>
      </trkpt>
      <trkpt lat="42.27349" lon="1.89069">
        <ele>1498.956</ele>
        <time>2019-04-07T23:07:40Z</time>
      </trkpt>
      <trkpt lat="42.27353" lon="1.89062">
        <ele>1497.821</ele>
        <time>2019-04-07T23:07:43Z</time>
      </trkpt>
      <trkpt lat="42.27356" lon="1.89059">
        <ele>1496.808</ele>
        <time>2019-04-07T23:07:44Z</time>
      </trkpt>
      <trkpt lat="42.27358" lon="1.89057">
        <ele>1496.29</ele>
        <time>2019-04-07T23:07:45Z</time>
      </trkpt>
      <trkpt lat="42.27359" lon="1.89055">
        <ele>1495.632</ele>
        <time>2019-04-07T23:07:46Z</time>
      </trkpt>
      <trkpt lat="42.27361" lon="1.89054">
        <ele>1495.317</ele>
        <time>2019-04-07T23:07:47Z</time>
      </trkpt>
      <trkpt lat="42.27365" lon="1.89051">
        <ele>1494.548</ele>
        <time>2019-04-07T23:07:48Z</time>
      </trkpt>
      <trkpt lat="42.27368" lon="1.89047">
        <ele>1494.258</ele>
        <time>2019-04-07T23:07:50Z</time>
      </trkpt>
      <trkpt lat="42.27371" lon="1.89041">
        <ele>1493.222</ele>
        <time>2019-04-07T23:07:52Z</time>
      </trkpt>
      <trkpt lat="42.27374" lon="1.89036">
        <ele>1492.021</ele>
        <time>2019-04-07T23:07:54Z</time>
      </trkpt>
      <trkpt lat="42.27376" lon="1.89034">
        <ele>1491.053</ele>
        <time>2019-04-07T23:07:55Z</time>
      </trkpt>
      <trkpt lat="42.27379" lon="1.89032">
        <ele>1490.291</ele>
        <time>2019-04-07T23:07:57Z</time>
      </trkpt>
      <trkpt lat="42.2738" lon="1.8903">
        <ele>1489.881</ele>
        <time>2019-04-07T23:07:57Z</time>
      </trkpt>
      <trkpt lat="42.27383" lon="1.89027">
        <ele>1489.019</ele>
        <time>2019-04-07T23:07:59Z</time>
      </trkpt>
      <trkpt lat="42.27385" lon="1.89025">
        <ele>1488.408</ele>
        <time>2019-04-07T23:08:00Z</time>
      </trkpt>
      <trkpt lat="42.27386" lon="1.89024">
        <ele>1487.952</ele>
        <time>2019-04-07T23:08:00Z</time>
      </trkpt>
      <trkpt lat="42.27388" lon="1.89022">
        <ele>1487.264</ele>
        <time>2019-04-07T23:08:01Z</time>
      </trkpt>
      <trkpt lat="42.27392" lon="1.89017">
        <ele>1486.019</ele>
        <time>2019-04-07T23:08:03Z</time>
      </trkpt>
      <trkpt lat="42.27393" lon="1.89015">
        <ele>1485.87</ele>
        <time>2019-04-07T23:08:04Z</time>
      </trkpt>
      <trkpt lat="42.27395" lon="1.89013">
        <ele>1485.72</ele>
        <time>2019-04-07T23:08:05Z</time>
      </trkpt>
      <trkpt lat="42.27399" lon="1.8901">
        <ele>1484.884</ele>
        <time>2019-04-07T23:08:07Z</time>
      </trkpt>
      <trkpt lat="42.27405" lon="1.89006">
        <ele>1484.053</ele>
        <time>2019-04-07T23:08:10Z</time>
      </trkpt>
      <trkpt lat="42.27409" lon="1.89002">
        <ele>1483.165</ele>
        <time>2019-04-07T23:08:12Z</time>
      </trkpt>
      <trkpt lat="42.27411" lon="1.88999">
        <ele>1482.627</ele>
        <time>2019-04-07T23:08:13Z</time>
      </trkpt>
      <trkpt lat="42.27419" lon="1.88987">
        <ele>1481.568</ele>
        <time>2019-04-07T23:08:18Z</time>
      </trkpt>
      <trkpt lat="42.27425" lon="1.88976">
        <ele>1480.414</ele>
        <time>2019-04-07T23:08:22Z</time>
      </trkpt>
      <trkpt lat="42.27428" lon="1.88973">
        <ele>1480.008</ele>
        <time>2019-04-07T23:08:23Z</time>
      </trkpt>
      <trkpt lat="42.27433" lon="1.88967">
        <ele>1479.725</ele>
        <time>2019-04-07T23:08:26Z</time>
      </trkpt>
      <trkpt lat="42.27435" lon="1.88966">
        <ele>1479.547</ele>
        <time>2019-04-07T23:08:27Z</time>
      </trkpt>
      <trkpt lat="42.27438" lon="1.88962">
        <ele>1478.922</ele>
        <time>2019-04-07T23:08:28Z</time>
      </trkpt>
      <trkpt lat="42.27445" lon="1.88951">
        <ele>1478.653</ele>
        <time>2019-04-07T23:08:33Z</time>
      </trkpt>
      <trkpt lat="42.27449" lon="1.88944">
        <ele>1478.283</ele>
        <time>2019-04-07T23:08:35Z</time>
      </trkpt>
      <trkpt lat="42.27457" lon="1.88933">
        <ele>1478.137</ele>
        <time>2019-04-07T23:08:40Z</time>
      </trkpt>
      <trkpt lat="42.27467" lon="1.8892">
        <ele>1478.156</ele>
        <time>2019-04-07T23:08:45Z</time>
      </trkpt>
      <trkpt lat="42.27475" lon="1.8891">
        <ele>1477.728</ele>
        <time>2019-04-07T23:08:50Z</time>
      </trkpt>
      <trkpt lat="42.27484" lon="1.88899">
        <ele>1477.523</ele>
        <time>2019-04-07T23:08:55Z</time>
      </trkpt>
      <trkpt lat="42.27487" lon="1.88895">
        <ele>1477.283</ele>
        <time>2019-04-07T23:08:56Z</time>
      </trkpt>
      <trkpt lat="42.27492" lon="1.88886">
        <ele>1476.511</ele>
        <time>2019-04-07T23:09:00Z</time>
      </trkpt>
      <trkpt lat="42.27493" lon="1.8888">
        <ele>1476.508</ele>
        <time>2019-04-07T23:09:01Z</time>
      </trkpt>
      <trkpt lat="42.27495" lon="1.88874">
        <ele>1476.265</ele>
        <time>2019-04-07T23:09:03Z</time>
      </trkpt>
      <trkpt lat="42.27496" lon="1.88871">
        <ele>1476.187</ele>
        <time>2019-04-07T23:09:04Z</time>
      </trkpt>
      <trkpt lat="42.27506" lon="1.88858">
        <ele>1475.162</ele>
        <time>2019-04-07T23:09:10Z</time>
      </trkpt>
      <trkpt lat="42.27513" lon="1.88851">
        <ele>1474.243</ele>
        <time>2019-04-07T23:09:13Z</time>
      </trkpt>
      <trkpt lat="42.27515" lon="1.88849">
        <ele>1473.913</ele>
        <time>2019-04-07T23:09:15Z</time>
      </trkpt>
      <trkpt lat="42.27522" lon="1.88838">
        <ele>1473.477</ele>
        <time>2019-04-07T23:09:19Z</time>
      </trkpt>
      <trkpt lat="42.27528" lon="1.88829">
        <ele>1473.056</ele>
        <time>2019-04-07T23:09:22Z</time>
      </trkpt>
      <trkpt lat="42.27529" lon="1.88828">
        <ele>1473.138</ele>
        <time>2019-04-07T23:09:23Z</time>
      </trkpt>
      <trkpt lat="42.27533" lon="1.88822">
        <ele>1473.085</ele>
        <time>2019-04-07T23:09:25Z</time>
      </trkpt>
      <trkpt lat="42.27534" lon="1.88819">
        <ele>1473.389</ele>
        <time>2019-04-07T23:09:26Z</time>
      </trkpt>
      <trkpt lat="42.27534" lon="1.88818">
        <ele>1473.117</ele>
        <time>2019-04-07T23:09:26Z</time>
      </trkpt>
      <trkpt lat="42.27535" lon="1.88816">
        <ele>1473.108</ele>
        <time>2019-04-07T23:09:27Z</time>
      </trkpt>
      <trkpt lat="42.27538" lon="1.88807">
        <ele>1474.351</ele>
        <time>2019-04-07T23:09:30Z</time>
      </trkpt>
      <trkpt lat="42.2754" lon="1.88802">
        <ele>1474.993</ele>
        <time>2019-04-07T23:09:32Z</time>
      </trkpt>
      <trkpt lat="42.27542" lon="1.88795">
        <ele>1475.158</ele>
        <time>2019-04-07T23:09:34Z</time>
      </trkpt>
      <trkpt lat="42.27545" lon="1.88787">
        <ele>1475.239</ele>
        <time>2019-04-07T23:09:37Z</time>
      </trkpt>
      <trkpt lat="42.27545" lon="1.88786">
        <ele>1475.199</ele>
        <time>2019-04-07T23:09:37Z</time>
      </trkpt>
      <trkpt lat="42.27546" lon="1.88785">
        <ele>1475.543</ele>
        <time>2019-04-07T23:09:37Z</time>
      </trkpt>
      <trkpt lat="42.27548" lon="1.88784">
        <ele>1475.592</ele>
        <time>2019-04-07T23:09:38Z</time>
      </trkpt>
      <trkpt lat="42.27549" lon="1.88782">
        <ele>1475.744</ele>
        <time>2019-04-07T23:09:39Z</time>
      </trkpt>
      <trkpt lat="42.2755" lon="1.88781">
        <ele>1475.955</ele>
        <time>2019-04-07T23:09:39Z</time>
      </trkpt>
      <trkpt lat="42.2755" lon="1.8878">
        <ele>1476.007</ele>
        <time>2019-04-07T23:09:40Z</time>
      </trkpt>
      <trkpt lat="42.27553" lon="1.88778">
        <ele>1476.417</ele>
        <time>2019-04-07T23:09:41Z</time>
      </trkpt>
      <trkpt lat="42.27554" lon="1.88777">
        <ele>1476.408</ele>
        <time>2019-04-07T23:09:41Z</time>
      </trkpt>
      <trkpt lat="42.27558" lon="1.88775">
        <ele>1476.538</ele>
        <time>2019-04-07T23:09:43Z</time>
      </trkpt>
      <trkpt lat="42.27564" lon="1.88778">
        <ele>1477.02</ele>
        <time>2019-04-07T23:09:46Z</time>
      </trkpt>
      <trkpt lat="42.27568" lon="1.88781">
        <ele>1477.155</ele>
        <time>2019-04-07T23:09:47Z</time>
      </trkpt>
      <trkpt lat="42.2757" lon="1.88782">
        <ele>1477.136</ele>
        <time>2019-04-07T23:09:49Z</time>
      </trkpt>
      <trkpt lat="42.27577" lon="1.88783">
        <ele>1477.416</ele>
        <time>2019-04-07T23:09:51Z</time>
      </trkpt>
      <trkpt lat="42.27578" lon="1.88783">
        <ele>1477.64</ele>
        <time>2019-04-07T23:09:52Z</time>
      </trkpt>
      <trkpt lat="42.27582" lon="1.88783">
        <ele>1477.829</ele>
        <time>2019-04-07T23:09:53Z</time>
      </trkpt>
      <trkpt lat="42.27586" lon="1.88782">
        <ele>1478.331</ele>
        <time>2019-04-07T23:09:55Z</time>
      </trkpt>
      <trkpt lat="42.27587" lon="1.88782">
        <ele>1478.555</ele>
        <time>2019-04-07T23:09:55Z</time>
      </trkpt>
      <trkpt lat="42.27589" lon="1.88782">
        <ele>1479.207</ele>
        <time>2019-04-07T23:09:56Z</time>
      </trkpt>
      <trkpt lat="42.2759" lon="1.88781">
        <ele>1479.417</ele>
        <time>2019-04-07T23:09:57Z</time>
      </trkpt>
      <trkpt lat="42.27591" lon="1.88781">
        <ele>1479.508</ele>
        <time>2019-04-07T23:09:57Z</time>
      </trkpt>
      <trkpt lat="42.27592" lon="1.8878">
        <ele>1479.748</ele>
        <time>2019-04-07T23:09:57Z</time>
      </trkpt>
      <trkpt lat="42.27593" lon="1.8878">
        <ele>1479.74</ele>
        <time>2019-04-07T23:09:58Z</time>
      </trkpt>
      <trkpt lat="42.27595" lon="1.88778">
        <ele>1480.185</ele>
        <time>2019-04-07T23:09:59Z</time>
      </trkpt>
      <trkpt lat="42.27595" lon="1.88778">
        <ele>1480.246</ele>
        <time>2019-04-07T23:09:59Z</time>
      </trkpt>
      <trkpt lat="42.27595" lon="1.88778">
        <ele>1480.226</ele>
        <time>2019-04-07T23:09:59Z</time>
      </trkpt>
      <trkpt lat="42.27596" lon="1.88778">
        <ele>1480.59</ele>
        <time>2019-04-07T23:09:59Z</time>
      </trkpt>
      <trkpt lat="42.27596" lon="1.88778">
        <ele>1480.659</ele>
        <time>2019-04-07T23:09:59Z</time>
      </trkpt>
      <trkpt lat="42.27597" lon="1.88778">
        <ele>1480.751</ele>
        <time>2019-04-07T23:10:00Z</time>
      </trkpt>
      <trkpt lat="42.276" lon="1.88781">
        <ele>1481.012</ele>
        <time>2019-04-07T23:10:01Z</time>
      </trkpt>
      <trkpt lat="42.27602" lon="1.88782">
        <ele>1481.232</ele>
        <time>2019-04-07T23:10:02Z</time>
      </trkpt>
      <trkpt lat="42.27605" lon="1.88784">
        <ele>1481.405</ele>
        <time>2019-04-07T23:10:03Z</time>
      </trkpt>
      <trkpt lat="42.27607" lon="1.88787">
        <ele>1481.808</ele>
        <time>2019-04-07T23:10:05Z</time>
      </trkpt>
      <trkpt lat="42.27608" lon="1.88789">
        <ele>1481.924</ele>
        <time>2019-04-07T23:10:05Z</time>
      </trkpt>
      <trkpt lat="42.2761" lon="1.88792">
        <ele>1482.356</ele>
        <time>2019-04-07T23:10:06Z</time>
      </trkpt>
      <trkpt lat="42.27613" lon="1.88798">
        <ele>1483.021</ele>
        <time>2019-04-07T23:10:08Z</time>
      </trkpt>
      <trkpt lat="42.27613" lon="1.88798">
        <ele>1483.242</ele>
        <time>2019-04-07T23:10:09Z</time>
      </trkpt>
      <trkpt lat="42.27615" lon="1.88799">
        <ele>1483.882</ele>
        <time>2019-04-07T23:10:10Z</time>
      </trkpt>
      <trkpt lat="42.27618" lon="1.888">
        <ele>1484.116</ele>
        <time>2019-04-07T23:10:10Z</time>
      </trkpt>
      <trkpt lat="42.27618" lon="1.888">
        <ele>1484.725</ele>
        <time>2019-04-07T23:10:11Z</time>
      </trkpt>
      <trkpt lat="42.2762" lon="1.88801">
        <ele>1485.547</ele>
        <time>2019-04-07T23:10:11Z</time>
      </trkpt>
      <trkpt lat="42.27621" lon="1.888">
        <ele>1485.722</ele>
        <time>2019-04-07T23:10:12Z</time>
      </trkpt>
      <trkpt lat="42.27622" lon="1.888">
        <ele>1485.962</ele>
        <time>2019-04-07T23:10:12Z</time>
      </trkpt>
      <trkpt lat="42.27624" lon="1.88801">
        <ele>1486.408</ele>
        <time>2019-04-07T23:10:13Z</time>
      </trkpt>
      <trkpt lat="42.27624" lon="1.888">
        <ele>1486.508</ele>
        <time>2019-04-07T23:10:13Z</time>
      </trkpt>
      <trkpt lat="42.27624" lon="1.888">
        <ele>1487.255</ele>
        <time>2019-04-07T23:10:13Z</time>
      </trkpt>
      <trkpt lat="42.27625" lon="1.88799">
        <ele>1487.647</ele>
        <time>2019-04-07T23:10:14Z</time>
      </trkpt>
      <trkpt lat="42.27626" lon="1.88799">
        <ele>1487.942</ele>
        <time>2019-04-07T23:10:14Z</time>
      </trkpt>
      <trkpt lat="42.2763" lon="1.88798">
        <ele>1488.323</ele>
        <time>2019-04-07T23:10:16Z</time>
      </trkpt>
      <trkpt lat="42.27631" lon="1.88798">
        <ele>1488.583</ele>
        <time>2019-04-07T23:10:16Z</time>
      </trkpt>
      <trkpt lat="42.27634" lon="1.88799">
        <ele>1489.187</ele>
        <time>2019-04-07T23:10:17Z</time>
      </trkpt>
      <trkpt lat="42.27635" lon="1.888">
        <ele>1489.236</ele>
        <time>2019-04-07T23:10:18Z</time>
      </trkpt>
      <trkpt lat="42.27636" lon="1.888">
        <ele>1489.538</ele>
        <time>2019-04-07T23:10:18Z</time>
      </trkpt>
      <trkpt lat="42.27637" lon="1.888">
        <ele>1489.727</ele>
        <time>2019-04-07T23:10:19Z</time>
      </trkpt>
      <trkpt lat="42.27643" lon="1.888">
        <ele>1490.568</ele>
        <time>2019-04-07T23:10:21Z</time>
      </trkpt>
      <trkpt lat="42.27648" lon="1.88797">
        <ele>1491.114</ele>
        <time>2019-04-07T23:10:23Z</time>
      </trkpt>
      <trkpt lat="42.27649" lon="1.88796">
        <ele>1491.808</ele>
        <time>2019-04-07T23:10:24Z</time>
      </trkpt>
      <trkpt lat="42.27651" lon="1.88798">
        <ele>1492.595</ele>
        <time>2019-04-07T23:10:25Z</time>
      </trkpt>
      <trkpt lat="42.27653" lon="1.88798">
        <ele>1492.997</ele>
        <time>2019-04-07T23:10:25Z</time>
      </trkpt>
      <trkpt lat="42.27654" lon="1.88798">
        <ele>1492.922</ele>
        <time>2019-04-07T23:10:26Z</time>
      </trkpt>
      <trkpt lat="42.27657" lon="1.88797">
        <ele>1493.263</ele>
        <time>2019-04-07T23:10:27Z</time>
      </trkpt>
      <trkpt lat="42.27657" lon="1.88797">
        <ele>1493.453</ele>
        <time>2019-04-07T23:10:27Z</time>
      </trkpt>
      <trkpt lat="42.27658" lon="1.88797">
        <ele>1493.677</ele>
        <time>2019-04-07T23:10:27Z</time>
      </trkpt>
      <trkpt lat="42.27661" lon="1.88797">
        <ele>1494.056</ele>
        <time>2019-04-07T23:10:28Z</time>
      </trkpt>
      <trkpt lat="42.27662" lon="1.88797">
        <ele>1494.448</ele>
        <time>2019-04-07T23:10:29Z</time>
      </trkpt>
      <trkpt lat="42.27666" lon="1.88795">
        <ele>1495.253</ele>
        <time>2019-04-07T23:10:30Z</time>
      </trkpt>
      <trkpt lat="42.27669" lon="1.88793">
        <ele>1495.604</ele>
        <time>2019-04-07T23:10:32Z</time>
      </trkpt>
      <trkpt lat="42.27669" lon="1.88793">
        <ele>1495.814</ele>
        <time>2019-04-07T23:10:32Z</time>
      </trkpt>
      <trkpt lat="42.2767" lon="1.88792">
        <ele>1496.108</ele>
        <time>2019-04-07T23:10:32Z</time>
      </trkpt>
      <trkpt lat="42.27673" lon="1.88793">
        <ele>1497.378</ele>
        <time>2019-04-07T23:10:34Z</time>
      </trkpt>
      <trkpt lat="42.27673" lon="1.88793">
        <ele>1497.41</ele>
        <time>2019-04-07T23:10:34Z</time>
      </trkpt>
      <trkpt lat="42.27675" lon="1.88793">
        <ele>1498.215</ele>
        <time>2019-04-07T23:10:35Z</time>
      </trkpt>
      <trkpt lat="42.27676" lon="1.88793">
        <ele>1499.026</ele>
        <time>2019-04-07T23:10:35Z</time>
      </trkpt>
      <trkpt lat="42.27677" lon="1.88793">
        <ele>1499.676</ele>
        <time>2019-04-07T23:10:36Z</time>
      </trkpt>
      <trkpt lat="42.27681" lon="1.88794">
        <ele>1500.57</ele>
        <time>2019-04-07T23:10:37Z</time>
      </trkpt>
      <trkpt lat="42.27683" lon="1.88795">
        <ele>1500.759</ele>
        <time>2019-04-07T23:10:38Z</time>
      </trkpt>
      <trkpt lat="42.27685" lon="1.88797">
        <ele>1501.611</ele>
        <time>2019-04-07T23:10:39Z</time>
      </trkpt>
      <trkpt lat="42.27687" lon="1.88798">
        <ele>1502.186</ele>
        <time>2019-04-07T23:10:40Z</time>
      </trkpt>
      <trkpt lat="42.27689" lon="1.88797">
        <ele>1503.26</ele>
        <time>2019-04-07T23:10:41Z</time>
      </trkpt>
      <trkpt lat="42.27691" lon="1.88798">
        <ele>1503.526</ele>
        <time>2019-04-07T23:10:41Z</time>
      </trkpt>
      <trkpt lat="42.27693" lon="1.88798">
        <ele>1504.008</ele>
        <time>2019-04-07T23:10:42Z</time>
      </trkpt>
      <trkpt lat="42.27696" lon="1.88799">
        <ele>1505.061</ele>
        <time>2019-04-07T23:10:44Z</time>
      </trkpt>
      <trkpt lat="42.27698" lon="1.88802">
        <ele>1506.553</ele>
        <time>2019-04-07T23:10:45Z</time>
      </trkpt>
      <trkpt lat="42.27699" lon="1.88802">
        <ele>1506.858</ele>
        <time>2019-04-07T23:10:45Z</time>
      </trkpt>
      <trkpt lat="42.277" lon="1.88803">
        <ele>1507.069</ele>
        <time>2019-04-07T23:10:45Z</time>
      </trkpt>
      <trkpt lat="42.27703" lon="1.88803">
        <ele>1507.639</ele>
        <time>2019-04-07T23:10:47Z</time>
      </trkpt>
      <trkpt lat="42.27704" lon="1.88803">
        <ele>1507.933</ele>
        <time>2019-04-07T23:10:47Z</time>
      </trkpt>
      <trkpt lat="42.27708" lon="1.88804">
        <ele>1508.872</ele>
        <time>2019-04-07T23:10:49Z</time>
      </trkpt>
      <trkpt lat="42.27711" lon="1.88804">
        <ele>1509.494</ele>
        <time>2019-04-07T23:10:50Z</time>
      </trkpt>
      <trkpt lat="42.27712" lon="1.88804">
        <ele>1510.012</ele>
        <time>2019-04-07T23:10:50Z</time>
      </trkpt>
      <trkpt lat="42.27713" lon="1.88805">
        <ele>1510.532</ele>
        <time>2019-04-07T23:10:51Z</time>
      </trkpt>
      <trkpt lat="42.27716" lon="1.88807">
        <ele>1511.005</ele>
        <time>2019-04-07T23:10:52Z</time>
      </trkpt>
      <trkpt lat="42.27717" lon="1.88808">
        <ele>1511.108</ele>
        <time>2019-04-07T23:10:52Z</time>
      </trkpt>
      <trkpt lat="42.27718" lon="1.88811">
        <ele>1512.284</ele>
        <time>2019-04-07T23:10:53Z</time>
      </trkpt>
      <trkpt lat="42.2772" lon="1.88812">
        <ele>1512.636</ele>
        <time>2019-04-07T23:10:54Z</time>
      </trkpt>
      <trkpt lat="42.27722" lon="1.88814">
        <ele>1513.131</ele>
        <time>2019-04-07T23:10:55Z</time>
      </trkpt>
      <trkpt lat="42.27725" lon="1.88815">
        <ele>1514.172</ele>
        <time>2019-04-07T23:10:57Z</time>
      </trkpt>
      <trkpt lat="42.27726" lon="1.88815">
        <ele>1514.222</ele>
        <time>2019-04-07T23:10:57Z</time>
      </trkpt>
      <trkpt lat="42.27729" lon="1.88819">
        <ele>1515.656</ele>
        <time>2019-04-07T23:10:59Z</time>
      </trkpt>
      <trkpt lat="42.2773" lon="1.8882">
        <ele>1515.645</ele>
        <time>2019-04-07T23:10:59Z</time>
      </trkpt>
      <trkpt lat="42.2773" lon="1.88821">
        <ele>1515.997</ele>
        <time>2019-04-07T23:10:59Z</time>
      </trkpt>
      <trkpt lat="42.2773" lon="1.88823">
        <ele>1516.293</ele>
        <time>2019-04-07T23:11:00Z</time>
      </trkpt>
      <trkpt lat="42.27731" lon="1.88823">
        <ele>1516.665</ele>
        <time>2019-04-07T23:11:00Z</time>
      </trkpt>
      <trkpt lat="42.27731" lon="1.88824">
        <ele>1517.021</ele>
        <time>2019-04-07T23:11:00Z</time>
      </trkpt>
      <trkpt lat="42.27732" lon="1.88825">
        <ele>1517.408</ele>
        <time>2019-04-07T23:11:01Z</time>
      </trkpt>
      <trkpt lat="42.27733" lon="1.88826">
        <ele>1517.992</ele>
        <time>2019-04-07T23:11:02Z</time>
      </trkpt>
      <trkpt lat="42.27734" lon="1.88827">
        <ele>1517.974</ele>
        <time>2019-04-07T23:11:02Z</time>
      </trkpt>
      <trkpt lat="42.27734" lon="1.88828">
        <ele>1518.179</ele>
        <time>2019-04-07T23:11:02Z</time>
      </trkpt>
      <trkpt lat="42.27734" lon="1.88829">
        <ele>1518.57</ele>
        <time>2019-04-07T23:11:02Z</time>
      </trkpt>
      <trkpt lat="42.27735" lon="1.8883">
        <ele>1519.05</ele>
        <time>2019-04-07T23:11:03Z</time>
      </trkpt>
      <trkpt lat="42.27737" lon="1.8883">
        <ele>1519.954</ele>
        <time>2019-04-07T23:11:04Z</time>
      </trkpt>
      <trkpt lat="42.27738" lon="1.8883">
        <ele>1520.223</ele>
        <time>2019-04-07T23:11:04Z</time>
      </trkpt>
      <trkpt lat="42.27739" lon="1.8883">
        <ele>1520.665</ele>
        <time>2019-04-07T23:11:04Z</time>
      </trkpt>
      <trkpt lat="42.2774" lon="1.8883">
        <ele>1521.098</ele>
        <time>2019-04-07T23:11:05Z</time>
      </trkpt>
      <trkpt lat="42.2774" lon="1.8883">
        <ele>1520.915</ele>
        <time>2019-04-07T23:11:05Z</time>
      </trkpt>
      <trkpt lat="42.27741" lon="1.8883">
        <ele>1521.026</ele>
        <time>2019-04-07T23:11:05Z</time>
      </trkpt>
      <trkpt lat="42.27741" lon="1.8883">
        <ele>1521.408</ele>
        <time>2019-04-07T23:11:05Z</time>
      </trkpt>
      <trkpt lat="42.27742" lon="1.8883">
        <ele>1522.292</ele>
        <time>2019-04-07T23:11:06Z</time>
      </trkpt>
      <trkpt lat="42.27743" lon="1.8883">
        <ele>1522.484</ele>
        <time>2019-04-07T23:11:06Z</time>
      </trkpt>
      <trkpt lat="42.27745" lon="1.88831">
        <ele>1523.249</ele>
        <time>2019-04-07T23:11:07Z</time>
      </trkpt>
      <trkpt lat="42.27745" lon="1.88831">
        <ele>1523.18</ele>
        <time>2019-04-07T23:11:07Z</time>
      </trkpt>
      <trkpt lat="42.27746" lon="1.88832">
        <ele>1523.29</ele>
        <time>2019-04-07T23:11:08Z</time>
      </trkpt>
      <trkpt lat="42.27747" lon="1.88833">
        <ele>1523.554</ele>
        <time>2019-04-07T23:11:08Z</time>
      </trkpt>
      <trkpt lat="42.27749" lon="1.88837">
        <ele>1524.283</ele>
        <time>2019-04-07T23:11:10Z</time>
      </trkpt>
      <trkpt lat="42.2775" lon="1.88839">
        <ele>1524.695</ele>
        <time>2019-04-07T23:11:10Z</time>
      </trkpt>
      <trkpt lat="42.27753" lon="1.88842">
        <ele>1525.445</ele>
        <time>2019-04-07T23:11:12Z</time>
      </trkpt>
      <trkpt lat="42.27754" lon="1.88843">
        <ele>1525.647</ele>
        <time>2019-04-07T23:11:12Z</time>
      </trkpt>
      <trkpt lat="42.27754" lon="1.88844">
        <ele>1525.811</ele>
        <time>2019-04-07T23:11:12Z</time>
      </trkpt>
      <trkpt lat="42.27755" lon="1.88845">
        <ele>1526.008</ele>
        <time>2019-04-07T23:11:13Z</time>
      </trkpt>
      <trkpt lat="42.27756" lon="1.88847">
        <ele>1526.667</ele>
        <time>2019-04-07T23:11:14Z</time>
      </trkpt>
      <trkpt lat="42.27756" lon="1.88848">
        <ele>1526.839</ele>
        <time>2019-04-07T23:11:14Z</time>
      </trkpt>
      <trkpt lat="42.27756" lon="1.88848">
        <ele>1527.134</ele>
        <time>2019-04-07T23:11:14Z</time>
      </trkpt>
      <trkpt lat="42.27756" lon="1.88851">
        <ele>1528.215</ele>
        <time>2019-04-07T23:11:15Z</time>
      </trkpt>
      <trkpt lat="42.27757" lon="1.88852">
        <ele>1528.285</ele>
        <time>2019-04-07T23:11:15Z</time>
      </trkpt>
      <trkpt lat="42.27758" lon="1.88853">
        <ele>1528.369</ele>
        <time>2019-04-07T23:11:16Z</time>
      </trkpt>
      <trkpt lat="42.2776" lon="1.88853">
        <ele>1528.538</ele>
        <time>2019-04-07T23:11:17Z</time>
      </trkpt>
      <trkpt lat="42.27761" lon="1.88854">
        <ele>1529.36</ele>
        <time>2019-04-07T23:11:17Z</time>
      </trkpt>
      <trkpt lat="42.27762" lon="1.88853">
        <ele>1529.621</ele>
        <time>2019-04-07T23:11:17Z</time>
      </trkpt>
      <trkpt lat="42.27762" lon="1.88854">
        <ele>1530.141</ele>
        <time>2019-04-07T23:11:18Z</time>
      </trkpt>
      <trkpt lat="42.27762" lon="1.88855">
        <ele>1530.105</ele>
        <time>2019-04-07T23:11:18Z</time>
      </trkpt>
      <trkpt lat="42.27764" lon="1.88857">
        <ele>1531.408</ele>
        <time>2019-04-07T23:11:19Z</time>
      </trkpt>
      <trkpt lat="42.27768" lon="1.88861">
        <ele>1532.685</ele>
        <time>2019-04-07T23:11:20Z</time>
      </trkpt>
      <trkpt lat="42.2777" lon="1.88863">
        <ele>1533.727</ele>
        <time>2019-04-07T23:11:22Z</time>
      </trkpt>
      <trkpt lat="42.27771" lon="1.88864">
        <ele>1534.342</ele>
        <time>2019-04-07T23:11:22Z</time>
      </trkpt>
      <trkpt lat="42.27772" lon="1.88865">
        <ele>1534.673</ele>
        <time>2019-04-07T23:11:23Z</time>
      </trkpt>
      <trkpt lat="42.27774" lon="1.88866">
        <ele>1535.253</ele>
        <time>2019-04-07T23:11:24Z</time>
      </trkpt>
      <trkpt lat="42.27777" lon="1.88869">
        <ele>1535.967</ele>
        <time>2019-04-07T23:11:25Z</time>
      </trkpt>
      <trkpt lat="42.27778" lon="1.88869">
        <ele>1536.256</ele>
        <time>2019-04-07T23:11:25Z</time>
      </trkpt>
      <trkpt lat="42.27778" lon="1.88868">
        <ele>1536.268</ele>
        <time>2019-04-07T23:11:26Z</time>
      </trkpt>
      <trkpt lat="42.27779" lon="1.88868">
        <ele>1536.378</ele>
        <time>2019-04-07T23:11:26Z</time>
      </trkpt>
      <trkpt lat="42.27779" lon="1.88868">
        <ele>1536.433</ele>
        <time>2019-04-07T23:11:26Z</time>
      </trkpt>
      <trkpt lat="42.2778" lon="1.88869">
        <ele>1536.826</ele>
        <time>2019-04-07T23:11:26Z</time>
      </trkpt>
      <trkpt lat="42.2778" lon="1.88872">
        <ele>1537.408</ele>
        <time>2019-04-07T23:11:27Z</time>
      </trkpt>
      <trkpt lat="42.2778" lon="1.88873">
        <ele>1537.44</ele>
        <time>2019-04-07T23:11:27Z</time>
      </trkpt>
      <trkpt lat="42.27781" lon="1.88876">
        <ele>1537.882</ele>
        <time>2019-04-07T23:11:28Z</time>
      </trkpt>
      <trkpt lat="42.27781" lon="1.88877">
        <ele>1538.197</ele>
        <time>2019-04-07T23:11:29Z</time>
      </trkpt>
      <trkpt lat="42.27782" lon="1.88881">
        <ele>1538.658</ele>
        <time>2019-04-07T23:11:30Z</time>
      </trkpt>
      <trkpt lat="42.27783" lon="1.88882">
        <ele>1539.188</ele>
        <time>2019-04-07T23:11:30Z</time>
      </trkpt>
      <trkpt lat="42.27783" lon="1.88884">
        <ele>1539.392</ele>
        <time>2019-04-07T23:11:31Z</time>
      </trkpt>
      <trkpt lat="42.27784" lon="1.88884">
        <ele>1539.871</ele>
        <time>2019-04-07T23:11:31Z</time>
      </trkpt>
      <trkpt lat="42.27784" lon="1.88885">
        <ele>1540.223</ele>
        <time>2019-04-07T23:11:31Z</time>
      </trkpt>
      <trkpt lat="42.27786" lon="1.88887">
        <ele>1541.363</ele>
        <time>2019-04-07T23:11:32Z</time>
      </trkpt>
      <trkpt lat="42.27787" lon="1.88888">
        <ele>1541.544</ele>
        <time>2019-04-07T23:11:33Z</time>
      </trkpt>
      <trkpt lat="42.27788" lon="1.88886">
        <ele>1542.118</ele>
        <time>2019-04-07T23:11:34Z</time>
      </trkpt>
      <trkpt lat="42.2779" lon="1.88887">
        <ele>1542.508</ele>
        <time>2019-04-07T23:11:34Z</time>
      </trkpt>
      <trkpt lat="42.27791" lon="1.88889">
        <ele>1543.259</ele>
        <time>2019-04-07T23:11:35Z</time>
      </trkpt>
      <trkpt lat="42.27792" lon="1.8889">
        <ele>1543.731</ele>
        <time>2019-04-07T23:11:36Z</time>
      </trkpt>
      <trkpt lat="42.27793" lon="1.88893">
        <ele>1544.516</ele>
        <time>2019-04-07T23:11:37Z</time>
      </trkpt>
      <trkpt lat="42.27793" lon="1.88895">
        <ele>1545.197</ele>
        <time>2019-04-07T23:11:37Z</time>
      </trkpt>
      <trkpt lat="42.27793" lon="1.88897">
        <ele>1545.687</ele>
        <time>2019-04-07T23:11:38Z</time>
      </trkpt>
      <trkpt lat="42.27793" lon="1.889">
        <ele>1546.721</ele>
        <time>2019-04-07T23:11:39Z</time>
      </trkpt>
      <trkpt lat="42.27793" lon="1.889">
        <ele>1546.95</ele>
        <time>2019-04-07T23:11:39Z</time>
      </trkpt>
      <trkpt lat="42.27794" lon="1.88902">
        <ele>1547.632</ele>
        <time>2019-04-07T23:11:39Z</time>
      </trkpt>
      <trkpt lat="42.27795" lon="1.88903">
        <ele>1548.573</ele>
        <time>2019-04-07T23:11:40Z</time>
      </trkpt>
      <trkpt lat="42.27795" lon="1.88903">
        <ele>1549.085</ele>
        <time>2019-04-07T23:11:40Z</time>
      </trkpt>
      <trkpt lat="42.27799" lon="1.88906">
        <ele>1549.813</ele>
        <time>2019-04-07T23:11:42Z</time>
      </trkpt>
      <trkpt lat="42.27803" lon="1.88909">
        <ele>1551.008</ele>
        <time>2019-04-07T23:11:44Z</time>
      </trkpt>
      <trkpt lat="42.27805" lon="1.88911">
        <ele>1551.69</ele>
        <time>2019-04-07T23:11:45Z</time>
      </trkpt>
      <trkpt lat="42.27808" lon="1.88909">
        <ele>1552.272</ele>
        <time>2019-04-07T23:11:46Z</time>
      </trkpt>
      <trkpt lat="42.27808" lon="1.88908">
        <ele>1552.237</ele>
        <time>2019-04-07T23:11:46Z</time>
      </trkpt>
      <trkpt lat="42.27809" lon="1.88907">
        <ele>1552.138</ele>
        <time>2019-04-07T23:11:47Z</time>
      </trkpt>
      <trkpt lat="42.27807" lon="1.88904">
        <ele>1553.088</ele>
        <time>2019-04-07T23:11:48Z</time>
      </trkpt>
      <trkpt lat="42.27805" lon="1.88903">
        <ele>1553.592</ele>
        <time>2019-04-07T23:11:49Z</time>
      </trkpt>
      <trkpt lat="42.27804" lon="1.88903">
        <ele>1553.941</ele>
        <time>2019-04-07T23:11:49Z</time>
      </trkpt>
      <trkpt lat="42.27803" lon="1.88904">
        <ele>1554.133</ele>
        <time>2019-04-07T23:11:49Z</time>
      </trkpt>
      <trkpt lat="42.27803" lon="1.88904">
        <ele>1554.227</ele>
        <time>2019-04-07T23:11:50Z</time>
      </trkpt>
      <trkpt lat="42.27804" lon="1.88905">
        <ele>1554.468</ele>
        <time>2019-04-07T23:11:50Z</time>
      </trkpt>
      <trkpt lat="42.27805" lon="1.88906">
        <ele>1555.114</ele>
        <time>2019-04-07T23:11:51Z</time>
      </trkpt>
      <trkpt lat="42.27806" lon="1.88906">
        <ele>1555.408</ele>
        <time>2019-04-07T23:11:51Z</time>
      </trkpt>
      <trkpt lat="42.27809" lon="1.88907">
        <ele>1556.225</ele>
        <time>2019-04-07T23:11:52Z</time>
      </trkpt>
      <trkpt lat="42.2781" lon="1.88907">
        <ele>1556.697</ele>
        <time>2019-04-07T23:11:52Z</time>
      </trkpt>
      <trkpt lat="42.27811" lon="1.88907">
        <ele>1557.062</ele>
        <time>2019-04-07T23:11:53Z</time>
      </trkpt>
      <trkpt lat="42.27814" lon="1.88908">
        <ele>1557.953</ele>
        <time>2019-04-07T23:11:54Z</time>
      </trkpt>
      <trkpt lat="42.27815" lon="1.8891">
        <ele>1558.323</ele>
        <time>2019-04-07T23:11:55Z</time>
      </trkpt>
      <trkpt lat="42.27818" lon="1.88914">
        <ele>1558.937</ele>
        <time>2019-04-07T23:11:56Z</time>
      </trkpt>
      <trkpt lat="42.27819" lon="1.88914">
        <ele>1559.096</ele>
        <time>2019-04-07T23:11:57Z</time>
      </trkpt>
      <trkpt lat="42.27821" lon="1.88916">
        <ele>1560.138</ele>
        <time>2019-04-07T23:11:58Z</time>
      </trkpt>
      <trkpt lat="42.27821" lon="1.88916">
        <ele>1560.522</ele>
        <time>2019-04-07T23:11:58Z</time>
      </trkpt>
      <trkpt lat="42.27824" lon="1.88917">
        <ele>1560.862</ele>
        <time>2019-04-07T23:11:59Z</time>
      </trkpt>
      <trkpt lat="42.27824" lon="1.88919">
        <ele>1561.408</ele>
        <time>2019-04-07T23:12:00Z</time>
      </trkpt>
      <trkpt lat="42.27825" lon="1.88921">
        <ele>1562.108</ele>
        <time>2019-04-07T23:12:00Z</time>
      </trkpt>
      <trkpt lat="42.27826" lon="1.88921">
        <ele>1562.615</ele>
        <time>2019-04-07T23:12:01Z</time>
      </trkpt>
      <trkpt lat="42.27828" lon="1.88919">
        <ele>1563.957</ele>
        <time>2019-04-07T23:12:02Z</time>
      </trkpt>
      <trkpt lat="42.27829" lon="1.88919">
        <ele>1564.122</ele>
        <time>2019-04-07T23:12:02Z</time>
      </trkpt>
      <trkpt lat="42.2783" lon="1.88921">
        <ele>1564.833</ele>
        <time>2019-04-07T23:12:03Z</time>
      </trkpt>
      <trkpt lat="42.2783" lon="1.88923">
        <ele>1565.183</ele>
        <time>2019-04-07T23:12:03Z</time>
      </trkpt>
      <trkpt lat="42.27832" lon="1.88927">
        <ele>1566.187</ele>
        <time>2019-04-07T23:12:05Z</time>
      </trkpt>
      <trkpt lat="42.27833" lon="1.88927">
        <ele>1566.756</ele>
        <time>2019-04-07T23:12:05Z</time>
      </trkpt>
      <trkpt lat="42.27834" lon="1.88926">
        <ele>1567.128</ele>
        <time>2019-04-07T23:12:06Z</time>
      </trkpt>
      <trkpt lat="42.27837" lon="1.88926">
        <ele>1568.243</ele>
        <time>2019-04-07T23:12:07Z</time>
      </trkpt>
      <trkpt lat="42.27838" lon="1.88927">
        <ele>1568.364</ele>
        <time>2019-04-07T23:12:07Z</time>
      </trkpt>
      <trkpt lat="42.27842" lon="1.88937">
        <ele>1568.81</ele>
        <time>2019-04-07T23:12:11Z</time>
      </trkpt>
      <trkpt lat="42.27842" lon="1.88938">
        <ele>1569.108</ele>
        <time>2019-04-07T23:12:11Z</time>
      </trkpt>
      <trkpt lat="42.27843" lon="1.88941">
        <ele>1570.357</ele>
        <time>2019-04-07T23:12:12Z</time>
      </trkpt>
      <trkpt lat="42.27846" lon="1.88939">
        <ele>1571.599</ele>
        <time>2019-04-07T23:12:13Z</time>
      </trkpt>
      <trkpt lat="42.27846" lon="1.88939">
        <ele>1572.754</ele>
        <time>2019-04-07T23:12:14Z</time>
      </trkpt>
      <trkpt lat="42.27847" lon="1.88939">
        <ele>1573.185</ele>
        <time>2019-04-07T23:12:14Z</time>
      </trkpt>
      <trkpt lat="42.27849" lon="1.8894">
        <ele>1574.055</ele>
        <time>2019-04-07T23:12:15Z</time>
      </trkpt>
      <trkpt lat="42.27849" lon="1.88941">
        <ele>1574.129</ele>
        <time>2019-04-07T23:12:15Z</time>
      </trkpt>
      <trkpt lat="42.2785" lon="1.88941">
        <ele>1574.568</ele>
        <time>2019-04-07T23:12:15Z</time>
      </trkpt>
      <trkpt lat="42.27853" lon="1.88941">
        <ele>1575.02</ele>
        <time>2019-04-07T23:12:16Z</time>
      </trkpt>
      <trkpt lat="42.27855" lon="1.88941">
        <ele>1575.223</ele>
        <time>2019-04-07T23:12:17Z</time>
      </trkpt>
      <trkpt lat="42.27856" lon="1.88943">
        <ele>1576.283</ele>
        <time>2019-04-07T23:12:18Z</time>
      </trkpt>
      <trkpt lat="42.27859" lon="1.88945">
        <ele>1576.411</ele>
        <time>2019-04-07T23:12:19Z</time>
      </trkpt>
      <trkpt lat="42.27858" lon="1.88953">
        <ele>1577.008</ele>
        <time>2019-04-07T23:12:21Z</time>
      </trkpt>
      <trkpt lat="42.27858" lon="1.88954">
        <ele>1577.595</ele>
        <time>2019-04-07T23:12:22Z</time>
      </trkpt>
      <trkpt lat="42.27856" lon="1.88957">
        <ele>1578.237</ele>
        <time>2019-04-07T23:12:23Z</time>
      </trkpt>
      <trkpt lat="42.27855" lon="1.88958">
        <ele>1578.342</ele>
        <time>2019-04-07T23:12:23Z</time>
      </trkpt>
      <trkpt lat="42.27855" lon="1.8896">
        <ele>1578.193</ele>
        <time>2019-04-07T23:12:24Z</time>
      </trkpt>
      <trkpt lat="42.27854" lon="1.88961">
        <ele>1578.843</ele>
        <time>2019-04-07T23:12:24Z</time>
      </trkpt>
      <trkpt lat="42.27853" lon="1.88961">
        <ele>1579.047</ele>
        <time>2019-04-07T23:12:25Z</time>
      </trkpt>
      <trkpt lat="42.27853" lon="1.8896">
        <ele>1579.166</ele>
        <time>2019-04-07T23:12:25Z</time>
      </trkpt>
      <trkpt lat="42.27853" lon="1.88958">
        <ele>1579.118</ele>
        <time>2019-04-07T23:12:26Z</time>
      </trkpt>
      <trkpt lat="42.27853" lon="1.88956">
        <ele>1579.292</ele>
        <time>2019-04-07T23:12:26Z</time>
      </trkpt>
      <trkpt lat="42.27853" lon="1.88954">
        <ele>1579.573</ele>
        <time>2019-04-07T23:12:27Z</time>
      </trkpt>
      <trkpt lat="42.27852" lon="1.88951">
        <ele>1579.12</ele>
        <time>2019-04-07T23:12:28Z</time>
      </trkpt>
      <trkpt lat="42.27852" lon="1.88951">
        <ele>1579.108</ele>
        <time>2019-04-07T23:12:28Z</time>
      </trkpt>
      <trkpt lat="42.27848" lon="1.88952">
        <ele>1579.122</ele>
        <time>2019-04-07T23:12:29Z</time>
      </trkpt>
      <trkpt lat="42.27847" lon="1.88951">
        <ele>1579.364</ele>
        <time>2019-04-07T23:12:30Z</time>
      </trkpt>
      <trkpt lat="42.27847" lon="1.88951">
        <ele>1579.269</ele>
        <time>2019-04-07T23:12:30Z</time>
      </trkpt>
      <trkpt lat="42.27847" lon="1.88954">
        <ele>1579.22</ele>
        <time>2019-04-07T23:12:31Z</time>
      </trkpt>
      <trkpt lat="42.27847" lon="1.88954">
        <ele>1579.79</ele>
        <time>2019-04-07T23:12:31Z</time>
      </trkpt>
      <trkpt lat="42.27847" lon="1.88956">
        <ele>1580.624</ele>
        <time>2019-04-07T23:12:32Z</time>
      </trkpt>
      <trkpt lat="42.27846" lon="1.88956">
        <ele>1580.643</ele>
        <time>2019-04-07T23:12:32Z</time>
      </trkpt>
      <trkpt lat="42.27846" lon="1.88957">
        <ele>1581.735</ele>
        <time>2019-04-07T23:12:32Z</time>
      </trkpt>
      <trkpt lat="42.27846" lon="1.88957">
        <ele>1582.247</ele>
        <time>2019-04-07T23:12:32Z</time>
      </trkpt>
      <trkpt lat="42.27848" lon="1.88957">
        <ele>1583.029</ele>
        <time>2019-04-07T23:12:33Z</time>
      </trkpt>
      <trkpt lat="42.2785" lon="1.88957">
        <ele>1583.121</ele>
        <time>2019-04-07T23:12:34Z</time>
      </trkpt>
      <trkpt lat="42.27851" lon="1.88957">
        <ele>1583.808</ele>
        <time>2019-04-07T23:12:35Z</time>
      </trkpt>
      <trkpt lat="42.27852" lon="1.88956">
        <ele>1584.137</ele>
        <time>2019-04-07T23:12:35Z</time>
      </trkpt>
      <trkpt lat="42.27855" lon="1.88959">
        <ele>1585.189</ele>
        <time>2019-04-07T23:12:36Z</time>
      </trkpt>
      <trkpt lat="42.27855" lon="1.88962">
        <ele>1585.694</ele>
        <time>2019-04-07T23:12:37Z</time>
      </trkpt>
      <trkpt lat="42.27856" lon="1.88963">
        <ele>1586.125</ele>
        <time>2019-04-07T23:12:38Z</time>
      </trkpt>
      <trkpt lat="42.27856" lon="1.88961">
        <ele>1586.585</ele>
        <time>2019-04-07T23:12:38Z</time>
      </trkpt>
      <trkpt lat="42.2786" lon="1.8896">
        <ele>1587.659</ele>
        <time>2019-04-07T23:12:39Z</time>
      </trkpt>
      <trkpt lat="42.2786" lon="1.88961">
        <ele>1587.568</ele>
        <time>2019-04-07T23:12:40Z</time>
      </trkpt>
      <trkpt lat="42.27861" lon="1.88963">
        <ele>1588.64</ele>
        <time>2019-04-07T23:12:40Z</time>
      </trkpt>
      <trkpt lat="42.27861" lon="1.88966">
        <ele>1589.576</ele>
        <time>2019-04-07T23:12:41Z</time>
      </trkpt>
      <trkpt lat="42.2786" lon="1.88967">
        <ele>1589.69</ele>
        <time>2019-04-07T23:12:42Z</time>
      </trkpt>
      <trkpt lat="42.27859" lon="1.88969">
        <ele>1589.819</ele>
        <time>2019-04-07T23:12:42Z</time>
      </trkpt>
      <trkpt lat="42.27858" lon="1.88973">
        <ele>1590.508</ele>
        <time>2019-04-07T23:12:44Z</time>
      </trkpt>
      <trkpt lat="42.27858" lon="1.88974">
        <ele>1590.93</ele>
        <time>2019-04-07T23:12:44Z</time>
      </trkpt>
      <trkpt lat="42.27857" lon="1.88975">
        <ele>1591.182</ele>
        <time>2019-04-07T23:12:44Z</time>
      </trkpt>
      <trkpt lat="42.27856" lon="1.88977">
        <ele>1592.017</ele>
        <time>2019-04-07T23:12:45Z</time>
      </trkpt>
      <trkpt lat="42.27856" lon="1.88978">
        <ele>1592.218</ele>
        <time>2019-04-07T23:12:46Z</time>
      </trkpt>
      <trkpt lat="42.27855" lon="1.88979">
        <ele>1592.658</ele>
        <time>2019-04-07T23:12:46Z</time>
      </trkpt>
      <trkpt lat="42.27855" lon="1.88979">
        <ele>1593.082</ele>
        <time>2019-04-07T23:12:46Z</time>
      </trkpt>
      <trkpt lat="42.27854" lon="1.88982">
        <ele>1593.611</ele>
        <time>2019-04-07T23:12:47Z</time>
      </trkpt>
      <trkpt lat="42.27852" lon="1.88982">
        <ele>1594.183</ele>
        <time>2019-04-07T23:12:48Z</time>
      </trkpt>
      <trkpt lat="42.27851" lon="1.88983">
        <ele>1594.578</ele>
        <time>2019-04-07T23:12:48Z</time>
      </trkpt>
      <trkpt lat="42.27853" lon="1.88984">
        <ele>1595.633</ele>
        <time>2019-04-07T23:12:49Z</time>
      </trkpt>
      <trkpt lat="42.27854" lon="1.88984">
        <ele>1595.826</ele>
        <time>2019-04-07T23:12:49Z</time>
      </trkpt>
      <trkpt lat="42.27858" lon="1.88985">
        <ele>1596.808</ele>
        <time>2019-04-07T23:12:51Z</time>
      </trkpt>
      <trkpt lat="42.2786" lon="1.88986">
        <ele>1597.56</ele>
        <time>2019-04-07T23:12:52Z</time>
      </trkpt>
      <trkpt lat="42.27861" lon="1.88988">
        <ele>1598.212</ele>
        <time>2019-04-07T23:12:52Z</time>
      </trkpt>
      <trkpt lat="42.27862" lon="1.88989">
        <ele>1599.227</ele>
        <time>2019-04-07T23:12:53Z</time>
      </trkpt>
      <trkpt lat="42.27863" lon="1.88989">
        <ele>1599.518</ele>
        <time>2019-04-07T23:12:53Z</time>
      </trkpt>
      <trkpt lat="42.27863" lon="1.88989">
        <ele>1600.238</ele>
        <time>2019-04-07T23:12:53Z</time>
      </trkpt>
      <trkpt lat="42.27865" lon="1.88989">
        <ele>1601.252</ele>
        <time>2019-04-07T23:12:54Z</time>
      </trkpt>
      <trkpt lat="42.27866" lon="1.88989">
        <ele>1601.071</ele>
        <time>2019-04-07T23:12:54Z</time>
      </trkpt>
      <trkpt lat="42.27866" lon="1.88989">
        <ele>1601.263</ele>
        <time>2019-04-07T23:12:55Z</time>
      </trkpt>
      <trkpt lat="42.27869" lon="1.88991">
        <ele>1601.912</ele>
        <time>2019-04-07T23:12:56Z</time>
      </trkpt>
      <trkpt lat="42.2787" lon="1.88991">
        <ele>1602.132</ele>
        <time>2019-04-07T23:12:56Z</time>
      </trkpt>
      <trkpt lat="42.27871" lon="1.88994">
        <ele>1603.005</ele>
        <time>2019-04-07T23:12:57Z</time>
      </trkpt>
      <trkpt lat="42.27871" lon="1.88995">
        <ele>1603.108</ele>
        <time>2019-04-07T23:12:57Z</time>
      </trkpt>
      <trkpt lat="42.2787" lon="1.88998">
        <ele>1603.794</ele>
        <time>2019-04-07T23:12:59Z</time>
      </trkpt>
      <trkpt lat="42.27866" lon="1.89002">
        <ele>1603.646</ele>
        <time>2019-04-07T23:13:01Z</time>
      </trkpt>
      <trkpt lat="42.27873" lon="1.88999">
        <ele>1603.971</ele>
        <time>2019-04-07T23:13:04Z</time>
      </trkpt>
      <trkpt lat="42.27874" lon="1.89002">
        <ele>1604.462</ele>
        <time>2019-04-07T23:13:05Z</time>
      </trkpt>
      <trkpt lat="42.27873" lon="1.89004">
        <ele>1605.222</ele>
        <time>2019-04-07T23:13:06Z</time>
      </trkpt>
      <trkpt lat="42.2787" lon="1.89006">
        <ele>1605.636</ele>
        <time>2019-04-07T23:13:07Z</time>
      </trkpt>
      <trkpt lat="42.27869" lon="1.89006">
        <ele>1606.055</ele>
        <time>2019-04-07T23:13:07Z</time>
      </trkpt>
      <trkpt lat="42.27869" lon="1.89006">
        <ele>1606.557</ele>
        <time>2019-04-07T23:13:07Z</time>
      </trkpt>
      <trkpt lat="42.2787" lon="1.89005">
        <ele>1606.666</ele>
        <time>2019-04-07T23:13:07Z</time>
      </trkpt>
      <trkpt lat="42.27871" lon="1.89005">
        <ele>1607.629</ele>
        <time>2019-04-07T23:13:08Z</time>
      </trkpt>
      <trkpt lat="42.27871" lon="1.89006">
        <ele>1607.821</ele>
        <time>2019-04-07T23:13:08Z</time>
      </trkpt>
      <trkpt lat="42.27871" lon="1.89012">
        <ele>1608.808</ele>
        <time>2019-04-07T23:13:10Z</time>
      </trkpt>
      <trkpt lat="42.27871" lon="1.89013">
        <ele>1609.249</ele>
        <time>2019-04-07T23:13:10Z</time>
      </trkpt>
      <trkpt lat="42.27869" lon="1.89017">
        <ele>1609.661</ele>
        <time>2019-04-07T23:13:12Z</time>
      </trkpt>
      <trkpt lat="42.27868" lon="1.89017">
        <ele>1609.856</ele>
        <time>2019-04-07T23:13:12Z</time>
      </trkpt>
      <trkpt lat="42.27864" lon="1.89016">
        <ele>1610.677</ele>
        <time>2019-04-07T23:13:14Z</time>
      </trkpt>
      <trkpt lat="42.27861" lon="1.89016">
        <ele>1611.267</ele>
        <time>2019-04-07T23:13:15Z</time>
      </trkpt>
      <trkpt lat="42.27859" lon="1.89017">
        <ele>1612.141</ele>
        <time>2019-04-07T23:13:15Z</time>
      </trkpt>
      <trkpt lat="42.27861" lon="1.89016">
        <ele>1612.49</ele>
        <time>2019-04-07T23:13:16Z</time>
      </trkpt>
      <trkpt lat="42.27866" lon="1.89016">
        <ele>1613.552</ele>
        <time>2019-04-07T23:13:18Z</time>
      </trkpt>
      <trkpt lat="42.27867" lon="1.89015">
        <ele>1613.744</ele>
        <time>2019-04-07T23:13:19Z</time>
      </trkpt>
      <trkpt lat="42.27871" lon="1.89018">
        <ele>1614.505</ele>
        <time>2019-04-07T23:13:20Z</time>
      </trkpt>
      <trkpt lat="42.27873" lon="1.89018">
        <ele>1615.515</ele>
        <time>2019-04-07T23:13:21Z</time>
      </trkpt>
      <trkpt lat="42.27875" lon="1.89017">
        <ele>1616.008</ele>
        <time>2019-04-07T23:13:22Z</time>
      </trkpt>
      <trkpt lat="42.27876" lon="1.89017">
        <ele>1616.727</ele>
        <time>2019-04-07T23:13:23Z</time>
      </trkpt>
      <trkpt lat="42.27878" lon="1.89019">
        <ele>1617.159</ele>
        <time>2019-04-07T23:13:23Z</time>
      </trkpt>
      <trkpt lat="42.27878" lon="1.89021">
        <ele>1617.334</ele>
        <time>2019-04-07T23:13:24Z</time>
      </trkpt>
      <trkpt lat="42.27877" lon="1.89024">
        <ele>1617.215</ele>
        <time>2019-04-07T23:13:25Z</time>
      </trkpt>
      <trkpt lat="42.27877" lon="1.89026">
        <ele>1617.355</ele>
        <time>2019-04-07T23:13:25Z</time>
      </trkpt>
      <trkpt lat="42.27875" lon="1.89028">
        <ele>1617.929</ele>
        <time>2019-04-07T23:13:26Z</time>
      </trkpt>
      <trkpt lat="42.27875" lon="1.89028">
        <ele>1618.178</ele>
        <time>2019-04-07T23:13:26Z</time>
      </trkpt>
      <trkpt lat="42.27874" lon="1.89029">
        <ele>1618.99</ele>
        <time>2019-04-07T23:13:27Z</time>
      </trkpt>
      <trkpt lat="42.27874" lon="1.89029">
        <ele>1619.149</ele>
        <time>2019-04-07T23:13:27Z</time>
      </trkpt>
      <trkpt lat="42.27874" lon="1.8903">
        <ele>1619.102</ele>
        <time>2019-04-07T23:13:27Z</time>
      </trkpt>
      <trkpt lat="42.27875" lon="1.89033">
        <ele>1619.522</ele>
        <time>2019-04-07T23:13:28Z</time>
      </trkpt>
      <trkpt lat="42.27875" lon="1.89035">
        <ele>1620.008</ele>
        <time>2019-04-07T23:13:29Z</time>
      </trkpt>
      <trkpt lat="42.27874" lon="1.89034">
        <ele>1621.227</ele>
        <time>2019-04-07T23:13:29Z</time>
      </trkpt>
      <trkpt lat="42.27875" lon="1.89033">
        <ele>1621.619</ele>
        <time>2019-04-07T23:13:30Z</time>
      </trkpt>
      <trkpt lat="42.27876" lon="1.89032">
        <ele>1622.284</ele>
        <time>2019-04-07T23:13:30Z</time>
      </trkpt>
      <trkpt lat="42.27878" lon="1.89031">
        <ele>1622.685</ele>
        <time>2019-04-07T23:13:31Z</time>
      </trkpt>
      <trkpt lat="42.27879" lon="1.89032">
        <ele>1623.085</ele>
        <time>2019-04-07T23:13:31Z</time>
      </trkpt>
      <trkpt lat="42.27881" lon="1.89034">
        <ele>1623.249</ele>
        <time>2019-04-07T23:13:33Z</time>
      </trkpt>
      <trkpt lat="42.27884" lon="1.89034">
        <ele>1623.638</ele>
        <time>2019-04-07T23:13:34Z</time>
      </trkpt>
      <trkpt lat="42.27887" lon="1.89039">
        <ele>1624.64</ele>
        <time>2019-04-07T23:13:35Z</time>
      </trkpt>
      <trkpt lat="42.27887" lon="1.89041">
        <ele>1625.075</ele>
        <time>2019-04-07T23:13:36Z</time>
      </trkpt>
      <trkpt lat="42.27887" lon="1.89044">
        <ele>1625.628</ele>
        <time>2019-04-07T23:13:37Z</time>
      </trkpt>
      <trkpt lat="42.27886" lon="1.89045">
        <ele>1626.12</ele>
        <time>2019-04-07T23:13:37Z</time>
      </trkpt>
      <trkpt lat="42.27886" lon="1.89044">
        <ele>1626.808</ele>
        <time>2019-04-07T23:13:38Z</time>
      </trkpt>
      <trkpt lat="42.27887" lon="1.89045">
        <ele>1627.11</ele>
        <time>2019-04-07T23:13:38Z</time>
      </trkpt>
      <trkpt lat="42.27887" lon="1.89045">
        <ele>1627.612</ele>
        <time>2019-04-07T23:13:38Z</time>
      </trkpt>
      <trkpt lat="42.27888" lon="1.89045">
        <ele>1627.917</ele>
        <time>2019-04-07T23:13:38Z</time>
      </trkpt>
      <trkpt lat="42.2789" lon="1.8904">
        <ele>1628.738</ele>
        <time>2019-04-07T23:13:40Z</time>
      </trkpt>
      <trkpt lat="42.2789" lon="1.89036">
        <ele>1629.158</ele>
        <time>2019-04-07T23:13:41Z</time>
      </trkpt>
      <trkpt lat="42.2789" lon="1.89032">
        <ele>1630.272</ele>
        <time>2019-04-07T23:13:42Z</time>
      </trkpt>
      <trkpt lat="42.27891" lon="1.89032">
        <ele>1630.211</ele>
        <time>2019-04-07T23:13:42Z</time>
      </trkpt>
      <trkpt lat="42.27891" lon="1.89032">
        <ele>1630.573</ele>
        <time>2019-04-07T23:13:43Z</time>
      </trkpt>
      <trkpt lat="42.27895" lon="1.89033">
        <ele>1631.134</ele>
        <time>2019-04-07T23:13:44Z</time>
      </trkpt>
      <trkpt lat="42.27896" lon="1.89034">
        <ele>1631.155</ele>
        <time>2019-04-07T23:13:45Z</time>
      </trkpt>
      <trkpt lat="42.27897" lon="1.89034">
        <ele>1631.11</ele>
        <time>2019-04-07T23:13:45Z</time>
      </trkpt>
      <trkpt lat="42.279" lon="1.89037">
        <ele>1632.408</ele>
        <time>2019-04-07T23:13:47Z</time>
      </trkpt>
      <trkpt lat="42.27904" lon="1.89039">
        <ele>1633.256</ele>
        <time>2019-04-07T23:13:48Z</time>
      </trkpt>
      <trkpt lat="42.27905" lon="1.89041">
        <ele>1633.548</ele>
        <time>2019-04-07T23:13:49Z</time>
      </trkpt>
      <trkpt lat="42.27908" lon="1.89043">
        <ele>1634.513</ele>
        <time>2019-04-07T23:13:50Z</time>
      </trkpt>
      <trkpt lat="42.27909" lon="1.89044">
        <ele>1634.574</ele>
        <time>2019-04-07T23:13:51Z</time>
      </trkpt>
      <trkpt lat="42.27909" lon="1.89044">
        <ele>1635.094</ele>
        <time>2019-04-07T23:13:51Z</time>
      </trkpt>
      <trkpt lat="42.2791" lon="1.89044">
        <ele>1635.158</ele>
        <time>2019-04-07T23:13:51Z</time>
      </trkpt>
      <trkpt lat="42.27909" lon="1.89044">
        <ele>1635.877</ele>
        <time>2019-04-07T23:13:51Z</time>
      </trkpt>
      <trkpt lat="42.27909" lon="1.89045">
        <ele>1636.169</ele>
        <time>2019-04-07T23:13:51Z</time>
      </trkpt>
      <trkpt lat="42.2791" lon="1.89043">
        <ele>1636.964</ele>
        <time>2019-04-07T23:13:52Z</time>
      </trkpt>
      <trkpt lat="42.2791" lon="1.89044">
        <ele>1637.006</ele>
        <time>2019-04-07T23:13:52Z</time>
      </trkpt>
      <trkpt lat="42.27913" lon="1.8904">
        <ele>1636.016</ele>
        <time>2019-04-07T23:13:53Z</time>
      </trkpt>
      <trkpt lat="42.2791" lon="1.89044">
        <ele>1638.008</ele>
        <time>2019-04-07T23:13:55Z</time>
      </trkpt>
      <trkpt lat="42.2791" lon="1.89045">
        <ele>1638.119</ele>
        <time>2019-04-07T23:13:55Z</time>
      </trkpt>
      <trkpt lat="42.27912" lon="1.89046">
        <ele>1638.031</ele>
        <time>2019-04-07T23:13:56Z</time>
      </trkpt>
      <trkpt lat="42.27913" lon="1.89048">
        <ele>1637.686</ele>
        <time>2019-04-07T23:13:57Z</time>
      </trkpt>
      <trkpt lat="42.27914" lon="1.89051">
        <ele>1638.387</ele>
        <time>2019-04-07T23:13:58Z</time>
      </trkpt>
      <trkpt lat="42.27914" lon="1.89053">
        <ele>1638.917</ele>
        <time>2019-04-07T23:13:58Z</time>
      </trkpt>
      <trkpt lat="42.27913" lon="1.89055">
        <ele>1639.181</ele>
        <time>2019-04-07T23:13:59Z</time>
      </trkpt>
      <trkpt lat="42.27913" lon="1.89057">
        <ele>1639.42</ele>
        <time>2019-04-07T23:13:59Z</time>
      </trkpt>
      <trkpt lat="42.27913" lon="1.8906">
        <ele>1640.142</ele>
        <time>2019-04-07T23:14:00Z</time>
      </trkpt>
      <trkpt lat="42.27912" lon="1.89062">
        <ele>1641.117</ele>
        <time>2019-04-07T23:14:01Z</time>
      </trkpt>
      <trkpt lat="42.27912" lon="1.89063">
        <ele>1641.287</ele>
        <time>2019-04-07T23:14:01Z</time>
      </trkpt>
      <trkpt lat="42.27913" lon="1.89067">
        <ele>1642.415</ele>
        <time>2019-04-07T23:14:03Z</time>
      </trkpt>
      <trkpt lat="42.27917" lon="1.89068">
        <ele>1643.508</ele>
        <time>2019-04-07T23:14:04Z</time>
      </trkpt>
      <trkpt lat="42.27919" lon="1.89069">
        <ele>1644.464</ele>
        <time>2019-04-07T23:14:05Z</time>
      </trkpt>
      <trkpt lat="42.27919" lon="1.89069">
        <ele>1644.696</ele>
        <time>2019-04-07T23:14:05Z</time>
      </trkpt>
      <trkpt lat="42.27921" lon="1.89072">
        <ele>1645.851</ele>
        <time>2019-04-07T23:14:06Z</time>
      </trkpt>
      <trkpt lat="42.27922" lon="1.8907">
        <ele>1646.992</ele>
        <time>2019-04-07T23:14:07Z</time>
      </trkpt>
      <trkpt lat="42.27922" lon="1.89069">
        <ele>1647.122</ele>
        <time>2019-04-07T23:14:07Z</time>
      </trkpt>
      <trkpt lat="42.27923" lon="1.89066">
        <ele>1647.966</ele>
        <time>2019-04-07T23:14:08Z</time>
      </trkpt>
      <trkpt lat="42.27923" lon="1.89066">
        <ele>1648.235</ele>
        <time>2019-04-07T23:14:09Z</time>
      </trkpt>
      <trkpt lat="42.27925" lon="1.89065">
        <ele>1649.037</ele>
        <time>2019-04-07T23:14:09Z</time>
      </trkpt>
      <trkpt lat="42.27926" lon="1.89066">
        <ele>1649.164</ele>
        <time>2019-04-07T23:14:10Z</time>
      </trkpt>
      <trkpt lat="42.27929" lon="1.89066">
        <ele>1650.106</ele>
        <time>2019-04-07T23:14:11Z</time>
      </trkpt>
      <trkpt lat="42.27932" lon="1.89064">
        <ele>1651.416</ele>
        <time>2019-04-07T23:14:12Z</time>
      </trkpt>
      <trkpt lat="42.27934" lon="1.89064">
        <ele>1651.808</ele>
        <time>2019-04-07T23:14:13Z</time>
      </trkpt>
      <trkpt lat="42.27935" lon="1.89063">
        <ele>1652.679</ele>
        <time>2019-04-07T23:14:14Z</time>
      </trkpt>
      <trkpt lat="42.2794" lon="1.8906">
        <ele>1653.131</ele>
        <time>2019-04-07T23:14:16Z</time>
      </trkpt>
      <trkpt lat="42.27942" lon="1.8906">
        <ele>1653.246</ele>
        <time>2019-04-07T23:14:17Z</time>
      </trkpt>
      <trkpt lat="42.27943" lon="1.8906">
        <ele>1653.067</ele>
        <time>2019-04-07T23:14:17Z</time>
      </trkpt>
      <trkpt lat="42.27945" lon="1.8906">
        <ele>1653.087</ele>
        <time>2019-04-07T23:14:18Z</time>
      </trkpt>
      <trkpt lat="42.27946" lon="1.89059">
        <ele>1652.851</ele>
        <time>2019-04-07T23:14:18Z</time>
      </trkpt>
      <trkpt lat="42.27949" lon="1.89056">
        <ele>1653.23</ele>
        <time>2019-04-07T23:14:20Z</time>
      </trkpt>
      <trkpt lat="42.27952" lon="1.89053">
        <ele>1653.552</ele>
        <time>2019-04-07T23:14:21Z</time>
      </trkpt>
      <trkpt lat="42.27959" lon="1.89053">
        <ele>1653.869</ele>
        <time>2019-04-07T23:14:24Z</time>
      </trkpt>
      <trkpt lat="42.27962" lon="1.89053">
        <ele>1654.304</ele>
        <time>2019-04-07T23:14:25Z</time>
      </trkpt>
      <trkpt lat="42.27965" lon="1.89053">
        <ele>1654.524</ele>
        <time>2019-04-07T23:14:26Z</time>
      </trkpt>
      <trkpt lat="42.27966" lon="1.89054">
        <ele>1654.508</ele>
        <time>2019-04-07T23:14:27Z</time>
      </trkpt>
      <trkpt lat="42.27966" lon="1.89055">
        <ele>1655.089</ele>
        <time>2019-04-07T23:14:27Z</time>
      </trkpt>
      <trkpt lat="42.27968" lon="1.89055">
        <ele>1655.111</ele>
        <time>2019-04-07T23:14:28Z</time>
      </trkpt>
      <trkpt lat="42.2797" lon="1.89057">
        <ele>1655.546</ele>
        <time>2019-04-07T23:14:29Z</time>
      </trkpt>
      <trkpt lat="42.2797" lon="1.89058">
        <ele>1655.737</ele>
        <time>2019-04-07T23:14:29Z</time>
      </trkpt>
      <trkpt lat="42.2797" lon="1.89059">
        <ele>1655.937</ele>
        <time>2019-04-07T23:14:29Z</time>
      </trkpt>
      <trkpt lat="42.2797" lon="1.89059">
        <ele>1656.191</ele>
        <time>2019-04-07T23:14:29Z</time>
      </trkpt>
      <trkpt lat="42.27971" lon="1.89058">
        <ele>1656.54</ele>
        <time>2019-04-07T23:14:29Z</time>
      </trkpt>
      <trkpt lat="42.27972" lon="1.89059">
        <ele>1657.172</ele>
        <time>2019-04-07T23:14:30Z</time>
      </trkpt>
      <trkpt lat="42.27973" lon="1.8906">
        <ele>1657.944</ele>
        <time>2019-04-07T23:14:31Z</time>
      </trkpt>
      <trkpt lat="42.27974" lon="1.8906">
        <ele>1658.305</ele>
        <time>2019-04-07T23:14:31Z</time>
      </trkpt>
      <trkpt lat="42.27974" lon="1.8906">
        <ele>1658.415</ele>
        <time>2019-04-07T23:14:31Z</time>
      </trkpt>
      <trkpt lat="42.27975" lon="1.8906">
        <ele>1658.508</ele>
        <time>2019-04-07T23:14:31Z</time>
      </trkpt>
      <trkpt lat="42.27975" lon="1.89061">
        <ele>1659.087</ele>
        <time>2019-04-07T23:14:32Z</time>
      </trkpt>
      <trkpt lat="42.27976" lon="1.89061">
        <ele>1659.029</ele>
        <time>2019-04-07T23:14:32Z</time>
      </trkpt>
      <trkpt lat="42.27976" lon="1.89061">
        <ele>1659.164</ele>
        <time>2019-04-07T23:14:32Z</time>
      </trkpt>
      <trkpt lat="42.27979" lon="1.89058">
        <ele>1660.165</ele>
        <time>2019-04-07T23:14:33Z</time>
      </trkpt>
      <trkpt lat="42.2798" lon="1.89059">
        <ele>1660.535</ele>
        <time>2019-04-07T23:14:34Z</time>
      </trkpt>
      <trkpt lat="42.27982" lon="1.89061">
        <ele>1661.189</ele>
        <time>2019-04-07T23:14:35Z</time>
      </trkpt>
      <trkpt lat="42.27983" lon="1.89064">
        <ele>1661.538</ele>
        <time>2019-04-07T23:14:36Z</time>
      </trkpt>
      <trkpt lat="42.27983" lon="1.89066">
        <ele>1662.18</ele>
        <time>2019-04-07T23:14:37Z</time>
      </trkpt>
      <trkpt lat="42.27985" lon="1.89069">
        <ele>1662.589</ele>
        <time>2019-04-07T23:14:38Z</time>
      </trkpt>
      <trkpt lat="42.27987" lon="1.89071">
        <ele>1663.606</ele>
        <time>2019-04-07T23:14:39Z</time>
      </trkpt>
      <trkpt lat="42.2799" lon="1.89073">
        <ele>1664.526</ele>
        <time>2019-04-07T23:14:40Z</time>
      </trkpt>
      <trkpt lat="42.27991" lon="1.89074">
        <ele>1664.808</ele>
        <time>2019-04-07T23:14:40Z</time>
      </trkpt>
      <trkpt lat="42.27993" lon="1.89076">
        <ele>1665.941</ele>
        <time>2019-04-07T23:14:41Z</time>
      </trkpt>
      <trkpt lat="42.27993" lon="1.89076">
        <ele>1665.913</ele>
        <time>2019-04-07T23:14:42Z</time>
      </trkpt>
      <trkpt lat="42.27995" lon="1.89077">
        <ele>1667.018</ele>
        <time>2019-04-07T23:14:43Z</time>
      </trkpt>
      <trkpt lat="42.27996" lon="1.89077">
        <ele>1667.279</ele>
        <time>2019-04-07T23:14:43Z</time>
      </trkpt>
      <trkpt lat="42.27999" lon="1.89083">
        <ele>1668.259</ele>
        <time>2019-04-07T23:14:45Z</time>
      </trkpt>
      <trkpt lat="42.28001" lon="1.89084">
        <ele>1669.393</ele>
        <time>2019-04-07T23:14:46Z</time>
      </trkpt>
      <trkpt lat="42.28002" lon="1.89084">
        <ele>1669.522</ele>
        <time>2019-04-07T23:14:46Z</time>
      </trkpt>
      <trkpt lat="42.28004" lon="1.89085">
        <ele>1670.664</ele>
        <time>2019-04-07T23:14:47Z</time>
      </trkpt>
      <trkpt lat="42.28004" lon="1.89085">
        <ele>1670.878</ele>
        <time>2019-04-07T23:14:47Z</time>
      </trkpt>
      <trkpt lat="42.28006" lon="1.89083">
        <ele>1671.633</ele>
        <time>2019-04-07T23:14:48Z</time>
      </trkpt>
      <trkpt lat="42.28006" lon="1.89082">
        <ele>1671.826</ele>
        <time>2019-04-07T23:14:49Z</time>
      </trkpt>
      <trkpt lat="42.28013" lon="1.89075">
        <ele>1672.508</ele>
        <time>2019-04-07T23:14:52Z</time>
      </trkpt>
      <trkpt lat="42.28015" lon="1.89074">
        <ele>1672.65</ele>
        <time>2019-04-07T23:14:53Z</time>
      </trkpt>
      <trkpt lat="42.28015" lon="1.89074">
        <ele>1673.052</ele>
        <time>2019-04-07T23:14:53Z</time>
      </trkpt>
      <trkpt lat="42.28015" lon="1.89072">
        <ele>1673.237</ele>
        <time>2019-04-07T23:14:53Z</time>
      </trkpt>
      <trkpt lat="42.28014" lon="1.8907">
        <ele>1673.838</ele>
        <time>2019-04-07T23:14:54Z</time>
      </trkpt>
      <trkpt lat="42.28015" lon="1.89066">
        <ele>1674.278</ele>
        <time>2019-04-07T23:14:56Z</time>
      </trkpt>
      <trkpt lat="42.28018" lon="1.89066">
        <ele>1674.762</ele>
        <time>2019-04-07T23:14:57Z</time>
      </trkpt>
      <trkpt lat="42.28019" lon="1.89065">
        <ele>1674.971</ele>
        <time>2019-04-07T23:14:57Z</time>
      </trkpt>
      <trkpt lat="42.28021" lon="1.89063">
        <ele>1675.963</ele>
        <time>2019-04-07T23:14:58Z</time>
      </trkpt>
      <trkpt lat="42.28022" lon="1.89062">
        <ele>1676.174</ele>
        <time>2019-04-07T23:14:59Z</time>
      </trkpt>
      <trkpt lat="42.28023" lon="1.89062">
        <ele>1676.356</ele>
        <time>2019-04-07T23:14:59Z</time>
      </trkpt>
      <trkpt lat="42.28023" lon="1.8906">
        <ele>1676.421</ele>
        <time>2019-04-07T23:14:59Z</time>
      </trkpt>
      <trkpt lat="42.28023" lon="1.89059">
        <ele>1676.808</ele>
        <time>2019-04-07T23:15:00Z</time>
      </trkpt>
      <trkpt lat="42.28023" lon="1.89058">
        <ele>1677.29</ele>
        <time>2019-04-07T23:15:00Z</time>
      </trkpt>
      <trkpt lat="42.28024" lon="1.89057">
        <ele>1678.022</ele>
        <time>2019-04-07T23:15:01Z</time>
      </trkpt>
      <trkpt lat="42.28025" lon="1.89055">
        <ele>1678.577</ele>
        <time>2019-04-07T23:15:01Z</time>
      </trkpt>
      <trkpt lat="42.28026" lon="1.89054">
        <ele>1678.658</ele>
        <time>2019-04-07T23:15:02Z</time>
      </trkpt>
      <trkpt lat="42.28029" lon="1.89051">
        <ele>1679.588</ele>
        <time>2019-04-07T23:15:03Z</time>
      </trkpt>
      <trkpt lat="42.2803" lon="1.89051">
        <ele>1679.632</ele>
        <time>2019-04-07T23:15:04Z</time>
      </trkpt>
      <trkpt lat="42.28031" lon="1.89051">
        <ele>1680.281</ele>
        <time>2019-04-07T23:15:04Z</time>
      </trkpt>
      <trkpt lat="42.28031" lon="1.8905">
        <ele>1680.423</ele>
        <time>2019-04-07T23:15:04Z</time>
      </trkpt>
      <trkpt lat="42.28032" lon="1.89047">
        <ele>1680.986</ele>
        <time>2019-04-07T23:15:05Z</time>
      </trkpt>
      <trkpt lat="42.28033" lon="1.89046">
        <ele>1681.56</ele>
        <time>2019-04-07T23:15:06Z</time>
      </trkpt>
      <trkpt lat="42.28035" lon="1.89043">
        <ele>1682.526</ele>
        <time>2019-04-07T23:15:07Z</time>
      </trkpt>
      <trkpt lat="42.28036" lon="1.89042">
        <ele>1682.808</ele>
        <time>2019-04-07T23:15:07Z</time>
      </trkpt>
      <trkpt lat="42.28036" lon="1.89039">
        <ele>1684.071</ele>
        <time>2019-04-07T23:15:08Z</time>
      </trkpt>
      <trkpt lat="42.28038" lon="1.89035">
        <ele>1685.013</ele>
        <time>2019-04-07T23:15:10Z</time>
      </trkpt>
      <trkpt lat="42.28038" lon="1.89034">
        <ele>1685.168</ele>
        <time>2019-04-07T23:15:10Z</time>
      </trkpt>
      <trkpt lat="42.2804" lon="1.89032">
        <ele>1685.569</ele>
        <time>2019-04-07T23:15:11Z</time>
      </trkpt>
      <trkpt lat="42.28041" lon="1.89029">
        <ele>1686.339</ele>
        <time>2019-04-07T23:15:12Z</time>
      </trkpt>
      <trkpt lat="42.28042" lon="1.89027">
        <ele>1687.213</ele>
        <time>2019-04-07T23:15:13Z</time>
      </trkpt>
      <trkpt lat="42.28043" lon="1.89027">
        <ele>1687.682</ele>
        <time>2019-04-07T23:15:13Z</time>
      </trkpt>
      <trkpt lat="42.28046" lon="1.89026">
        <ele>1688.624</ele>
        <time>2019-04-07T23:15:14Z</time>
      </trkpt>
      <trkpt lat="42.28047" lon="1.89025">
        <ele>1689.017</ele>
        <time>2019-04-07T23:15:14Z</time>
      </trkpt>
      <trkpt lat="42.28048" lon="1.89025">
        <ele>1689.587</ele>
        <time>2019-04-07T23:15:15Z</time>
      </trkpt>
      <trkpt lat="42.28049" lon="1.89026">
        <ele>1689.815</ele>
        <time>2019-04-07T23:15:15Z</time>
      </trkpt>
      <trkpt lat="42.2805" lon="1.89024">
        <ele>1690.408</ele>
        <time>2019-04-07T23:15:16Z</time>
      </trkpt>
      <trkpt lat="42.28051" lon="1.89025">
        <ele>1690.534</ele>
        <time>2019-04-07T23:15:16Z</time>
      </trkpt>
      <trkpt lat="42.28051" lon="1.89026">
        <ele>1692.216</ele>
        <time>2019-04-07T23:15:17Z</time>
      </trkpt>
      <trkpt lat="42.28051" lon="1.89027">
        <ele>1692.681</ele>
        <time>2019-04-07T23:15:17Z</time>
      </trkpt>
      <trkpt lat="42.28053" lon="1.89022">
        <ele>1693.212</ele>
        <time>2019-04-07T23:15:18Z</time>
      </trkpt>
      <trkpt lat="42.28053" lon="1.89021">
        <ele>1693.552</ele>
        <time>2019-04-07T23:15:19Z</time>
      </trkpt>
      <trkpt lat="42.28057" lon="1.8902">
        <ele>1694.426</ele>
        <time>2019-04-07T23:15:20Z</time>
      </trkpt>
      <trkpt lat="42.28057" lon="1.8902">
        <ele>1694.665</ele>
        <time>2019-04-07T23:15:20Z</time>
      </trkpt>
      <trkpt lat="42.28059" lon="1.89019">
        <ele>1695.397</ele>
        <time>2019-04-07T23:15:21Z</time>
      </trkpt>
      <trkpt lat="42.28061" lon="1.89018">
        <ele>1695.575</ele>
        <time>2019-04-07T23:15:22Z</time>
      </trkpt>
      <trkpt lat="42.28061" lon="1.89018">
        <ele>1695.528</ele>
        <time>2019-04-07T23:15:22Z</time>
      </trkpt>
      <trkpt lat="42.28062" lon="1.89018">
        <ele>1695.82</ele>
        <time>2019-04-07T23:15:22Z</time>
      </trkpt>
      <trkpt lat="42.28062" lon="1.89016">
        <ele>1696.108</ele>
        <time>2019-04-07T23:15:23Z</time>
      </trkpt>
      <trkpt lat="42.28062" lon="1.89015">
        <ele>1696.78</ele>
        <time>2019-04-07T23:15:23Z</time>
      </trkpt>
      <trkpt lat="42.28062" lon="1.89014">
        <ele>1696.972</ele>
        <time>2019-04-07T23:15:24Z</time>
      </trkpt>
      <trkpt lat="42.28062" lon="1.89013">
        <ele>1697.237</ele>
        <time>2019-04-07T23:15:24Z</time>
      </trkpt>
      <trkpt lat="42.28062" lon="1.89012">
        <ele>1697.548</ele>
        <time>2019-04-07T23:15:24Z</time>
      </trkpt>
      <trkpt lat="42.28062" lon="1.89012">
        <ele>1697.618</ele>
        <time>2019-04-07T23:15:24Z</time>
      </trkpt>
      <trkpt lat="42.28063" lon="1.89011">
        <ele>1698.022</ele>
        <time>2019-04-07T23:15:25Z</time>
      </trkpt>
      <trkpt lat="42.28065" lon="1.89008">
        <ele>1698.571</ele>
        <time>2019-04-07T23:15:26Z</time>
      </trkpt>
      <trkpt lat="42.28068" lon="1.89003">
        <ele>1698.663</ele>
        <time>2019-04-07T23:15:28Z</time>
      </trkpt>
      <trkpt lat="42.28068" lon="1.89002">
        <ele>1698.688</ele>
        <time>2019-04-07T23:15:28Z</time>
      </trkpt>
      <trkpt lat="42.28069" lon="1.88999">
        <ele>1698.924</ele>
        <time>2019-04-07T23:15:29Z</time>
      </trkpt>
      <trkpt lat="42.28069" lon="1.89001">
        <ele>1699.426</ele>
        <time>2019-04-07T23:15:30Z</time>
      </trkpt>
      <trkpt lat="42.28067" lon="1.89004">
        <ele>1701.408</ele>
        <time>2019-04-07T23:15:31Z</time>
      </trkpt>
      <trkpt lat="42.28066" lon="1.89002">
        <ele>1701.631</ele>
        <time>2019-04-07T23:15:31Z</time>
      </trkpt>
      <trkpt lat="42.28065" lon="1.88999">
        <ele>1701.743</ele>
        <time>2019-04-07T23:15:32Z</time>
      </trkpt>
      <trkpt lat="42.28065" lon="1.88997">
        <ele>1701.758</ele>
        <time>2019-04-07T23:15:33Z</time>
      </trkpt>
      <trkpt lat="42.28066" lon="1.88993">
        <ele>1701.599</ele>
        <time>2019-04-07T23:15:34Z</time>
      </trkpt>
      <trkpt lat="42.28066" lon="1.8899">
        <ele>1701.549</ele>
        <time>2019-04-07T23:15:35Z</time>
      </trkpt>
      <trkpt lat="42.28065" lon="1.8899">
        <ele>1701.583</ele>
        <time>2019-04-07T23:15:35Z</time>
      </trkpt>
      <trkpt lat="42.28068" lon="1.88986">
        <ele>1701.782</ele>
        <time>2019-04-07T23:15:36Z</time>
      </trkpt>
      <trkpt lat="42.28069" lon="1.88983">
        <ele>1702.674</ele>
        <time>2019-04-07T23:15:37Z</time>
      </trkpt>
      <trkpt lat="42.28071" lon="1.88982">
        <ele>1702.996</ele>
        <time>2019-04-07T23:15:38Z</time>
      </trkpt>
      <trkpt lat="42.28077" lon="1.88975">
        <ele>1704.131</ele>
        <time>2019-04-07T23:15:41Z</time>
      </trkpt>
      <trkpt lat="42.28083" lon="1.88969">
        <ele>1705.024</ele>
        <time>2019-04-07T23:15:44Z</time>
      </trkpt>
      <trkpt lat="42.28085" lon="1.88968">
        <ele>1705.408</ele>
        <time>2019-04-07T23:15:45Z</time>
      </trkpt>
      <trkpt lat="42.28087" lon="1.88966">
        <ele>1706.112</ele>
        <time>2019-04-07T23:15:46Z</time>
      </trkpt>
      <trkpt lat="42.28088" lon="1.88964">
        <ele>1706.624</ele>
        <time>2019-04-07T23:15:47Z</time>
      </trkpt>
      <trkpt lat="42.2809" lon="1.88962">
        <ele>1706.949</ele>
        <time>2019-04-07T23:15:48Z</time>
      </trkpt>
      <trkpt lat="42.28091" lon="1.88962">
        <ele>1707.26</ele>
        <time>2019-04-07T23:15:48Z</time>
      </trkpt>
      <trkpt lat="42.28092" lon="1.88962">
        <ele>1707.28</ele>
        <time>2019-04-07T23:15:48Z</time>
      </trkpt>
      <trkpt lat="42.28093" lon="1.88961">
        <ele>1707.414</ele>
        <time>2019-04-07T23:15:49Z</time>
      </trkpt>
      <trkpt lat="42.28094" lon="1.8896">
        <ele>1708.323</ele>
        <time>2019-04-07T23:15:50Z</time>
      </trkpt>
      <trkpt lat="42.28095" lon="1.88959">
        <ele>1708.865</ele>
        <time>2019-04-07T23:15:50Z</time>
      </trkpt>
      <trkpt lat="42.28097" lon="1.88959">
        <ele>1709.281</ele>
        <time>2019-04-07T23:15:51Z</time>
      </trkpt>
      <trkpt lat="42.28098" lon="1.8896">
        <ele>1709.161</ele>
        <time>2019-04-07T23:15:51Z</time>
      </trkpt>
      <trkpt lat="42.28098" lon="1.88961">
        <ele>1709.517</ele>
        <time>2019-04-07T23:15:52Z</time>
      </trkpt>
      <trkpt lat="42.281" lon="1.88961">
        <ele>1709.808</ele>
        <time>2019-04-07T23:15:52Z</time>
      </trkpt>
      <trkpt lat="42.28102" lon="1.8896">
        <ele>1710.231</ele>
        <time>2019-04-07T23:15:53Z</time>
      </trkpt>
      <trkpt lat="42.28106" lon="1.8896">
        <ele>1711.243</ele>
        <time>2019-04-07T23:15:55Z</time>
      </trkpt>
      <trkpt lat="42.28107" lon="1.88961">
        <ele>1711.528</ele>
        <time>2019-04-07T23:15:55Z</time>
      </trkpt>
      <trkpt lat="42.28108" lon="1.88962">
        <ele>1711.939</ele>
        <time>2019-04-07T23:15:55Z</time>
      </trkpt>
      <trkpt lat="42.28109" lon="1.88963">
        <ele>1712.399</ele>
        <time>2019-04-07T23:15:56Z</time>
      </trkpt>
      <trkpt lat="42.2811" lon="1.8896">
        <ele>1712.683</ele>
        <time>2019-04-07T23:15:57Z</time>
      </trkpt>
      <trkpt lat="42.28111" lon="1.88958">
        <ele>1713.182</ele>
        <time>2019-04-07T23:15:57Z</time>
      </trkpt>
      <trkpt lat="42.28111" lon="1.88958">
        <ele>1713.124</ele>
        <time>2019-04-07T23:15:58Z</time>
      </trkpt>
      <trkpt lat="42.28112" lon="1.88956">
        <ele>1713.247</ele>
        <time>2019-04-07T23:15:58Z</time>
      </trkpt>
      <trkpt lat="42.28113" lon="1.88955">
        <ele>1713.829</ele>
        <time>2019-04-07T23:15:59Z</time>
      </trkpt>
      <trkpt lat="42.28115" lon="1.88954">
        <ele>1714.121</ele>
        <time>2019-04-07T23:16:00Z</time>
      </trkpt>
      <trkpt lat="42.28117" lon="1.88955">
        <ele>1714.508</ele>
        <time>2019-04-07T23:16:01Z</time>
      </trkpt>
      <trkpt lat="42.28119" lon="1.88956">
        <ele>1715.067</ele>
        <time>2019-04-07T23:16:02Z</time>
      </trkpt>
      <trkpt lat="42.28121" lon="1.88957">
        <ele>1715.649</ele>
        <time>2019-04-07T23:16:02Z</time>
      </trkpt>
      <trkpt lat="42.28121" lon="1.88957">
        <ele>1715.994</ele>
        <time>2019-04-07T23:16:02Z</time>
      </trkpt>
      <trkpt lat="42.28122" lon="1.88956">
        <ele>1716.135</ele>
        <time>2019-04-07T23:16:03Z</time>
      </trkpt>
      <trkpt lat="42.28123" lon="1.88955">
        <ele>1716.515</ele>
        <time>2019-04-07T23:16:03Z</time>
      </trkpt>
      <trkpt lat="42.28124" lon="1.88954">
        <ele>1716.769</ele>
        <time>2019-04-07T23:16:03Z</time>
      </trkpt>
      <trkpt lat="42.28124" lon="1.88954">
        <ele>1717.028</ele>
        <time>2019-04-07T23:16:04Z</time>
      </trkpt>
      <trkpt lat="42.28124" lon="1.88954">
        <ele>1717.16</ele>
        <time>2019-04-07T23:16:04Z</time>
      </trkpt>
      <trkpt lat="42.28125" lon="1.88953">
        <ele>1717.253</ele>
        <time>2019-04-07T23:16:04Z</time>
      </trkpt>
      <trkpt lat="42.28126" lon="1.88953">
        <ele>1718.004</ele>
        <time>2019-04-07T23:16:04Z</time>
      </trkpt>
      <trkpt lat="42.28127" lon="1.88953">
        <ele>1718.114</ele>
        <time>2019-04-07T23:16:05Z</time>
      </trkpt>
      <trkpt lat="42.28128" lon="1.88952">
        <ele>1718.408</ele>
        <time>2019-04-07T23:16:05Z</time>
      </trkpt>
      <trkpt lat="42.28131" lon="1.88954">
        <ele>1719.188</ele>
        <time>2019-04-07T23:16:07Z</time>
      </trkpt>
      <trkpt lat="42.28134" lon="1.88954">
        <ele>1719.94</ele>
        <time>2019-04-07T23:16:08Z</time>
      </trkpt>
      <trkpt lat="42.28135" lon="1.88952">
        <ele>1720.475</ele>
        <time>2019-04-07T23:16:09Z</time>
      </trkpt>
      <trkpt lat="42.28135" lon="1.88951">
        <ele>1721.296</ele>
        <time>2019-04-07T23:16:09Z</time>
      </trkpt>
      <trkpt lat="42.28136" lon="1.88951">
        <ele>1721.576</ele>
        <time>2019-04-07T23:16:09Z</time>
      </trkpt>
      <trkpt lat="42.28137" lon="1.88951">
        <ele>1721.99</ele>
        <time>2019-04-07T23:16:10Z</time>
      </trkpt>
      <trkpt lat="42.28139" lon="1.88951">
        <ele>1722.649</ele>
        <time>2019-04-07T23:16:10Z</time>
      </trkpt>
      <trkpt lat="42.2814" lon="1.88951">
        <ele>1723.031</ele>
        <time>2019-04-07T23:16:11Z</time>
      </trkpt>
      <trkpt lat="42.28144" lon="1.88953">
        <ele>1723.614</ele>
        <time>2019-04-07T23:16:13Z</time>
      </trkpt>
      <trkpt lat="42.28149" lon="1.88954">
        <ele>1724.154</ele>
        <time>2019-04-07T23:16:14Z</time>
      </trkpt>
      <trkpt lat="42.28152" lon="1.88951">
        <ele>1724.509</ele>
        <time>2019-04-07T23:16:16Z</time>
      </trkpt>
      <trkpt lat="42.28153" lon="1.88949">
        <ele>1725.008</ele>
        <time>2019-04-07T23:16:17Z</time>
      </trkpt>
      <trkpt lat="42.28156" lon="1.88947">
        <ele>1726.124</ele>
        <time>2019-04-07T23:16:18Z</time>
      </trkpt>
      <trkpt lat="42.28157" lon="1.88947">
        <ele>1727.056</ele>
        <time>2019-04-07T23:16:18Z</time>
      </trkpt>
      <trkpt lat="42.28158" lon="1.88947">
        <ele>1727.251</ele>
        <time>2019-04-07T23:16:19Z</time>
      </trkpt>
      <trkpt lat="42.2816" lon="1.88946">
        <ele>1727.992</ele>
        <time>2019-04-07T23:16:20Z</time>
      </trkpt>
      <trkpt lat="42.28161" lon="1.88944">
        <ele>1728.262</ele>
        <time>2019-04-07T23:16:20Z</time>
      </trkpt>
      <trkpt lat="42.28161" lon="1.88944">
        <ele>1728.376</ele>
        <time>2019-04-07T23:16:20Z</time>
      </trkpt>
      <trkpt lat="42.28163" lon="1.88944">
        <ele>1729.235</ele>
        <time>2019-04-07T23:16:21Z</time>
      </trkpt>
      <trkpt lat="42.28164" lon="1.88944">
        <ele>1729.597</ele>
        <time>2019-04-07T23:16:22Z</time>
      </trkpt>
      <trkpt lat="42.28167" lon="1.88945">
        <ele>1730.146</ele>
        <time>2019-04-07T23:16:23Z</time>
      </trkpt>
      <trkpt lat="42.28167" lon="1.88945">
        <ele>1730.388</ele>
        <time>2019-04-07T23:16:23Z</time>
      </trkpt>
      <trkpt lat="42.28169" lon="1.88947">
        <ele>1731.416</ele>
        <time>2019-04-07T23:16:24Z</time>
      </trkpt>
      <trkpt lat="42.2817" lon="1.88947">
        <ele>1731.808</ele>
        <time>2019-04-07T23:16:24Z</time>
      </trkpt>
      <trkpt lat="42.28173" lon="1.88948">
        <ele>1732.367</ele>
        <time>2019-04-07T23:16:25Z</time>
      </trkpt>
      <trkpt lat="42.28174" lon="1.88949">
        <ele>1732.669</ele>
        <time>2019-04-07T23:16:26Z</time>
      </trkpt>
      <trkpt lat="42.28175" lon="1.88953">
        <ele>1733.584</ele>
        <time>2019-04-07T23:16:27Z</time>
      </trkpt>
      <trkpt lat="42.28176" lon="1.88956">
        <ele>1734.145</ele>
        <time>2019-04-07T23:16:28Z</time>
      </trkpt>
      <trkpt lat="42.28177" lon="1.88959">
        <ele>1734.745</ele>
        <time>2019-04-07T23:16:29Z</time>
      </trkpt>
      <trkpt lat="42.28178" lon="1.8896">
        <ele>1735.159</ele>
        <time>2019-04-07T23:16:30Z</time>
      </trkpt>
      <trkpt lat="42.28179" lon="1.88959">
        <ele>1735.618</ele>
        <time>2019-04-07T23:16:30Z</time>
      </trkpt>
      <trkpt lat="42.28179" lon="1.88959">
        <ele>1735.65</ele>
        <time>2019-04-07T23:16:30Z</time>
      </trkpt>
      <trkpt lat="42.2818" lon="1.8896">
        <ele>1736.135</ele>
        <time>2019-04-07T23:16:31Z</time>
      </trkpt>
      <trkpt lat="42.28179" lon="1.88967">
        <ele>1736.886</ele>
        <time>2019-04-07T23:16:33Z</time>
      </trkpt>
      <trkpt lat="42.2818" lon="1.8897">
        <ele>1737.014</ele>
        <time>2019-04-07T23:16:34Z</time>
      </trkpt>
      <trkpt lat="42.28182" lon="1.88974">
        <ele>1737.108</ele>
        <time>2019-04-07T23:16:35Z</time>
      </trkpt>
      <trkpt lat="42.28183" lon="1.88975">
        <ele>1737.516</ele>
        <time>2019-04-07T23:16:36Z</time>
      </trkpt>
      <trkpt lat="42.28183" lon="1.88976">
        <ele>1737.558</ele>
        <time>2019-04-07T23:16:36Z</time>
      </trkpt>
      <trkpt lat="42.28183" lon="1.88977">
        <ele>1737.613</ele>
        <time>2019-04-07T23:16:36Z</time>
      </trkpt>
      <trkpt lat="42.28184" lon="1.88977">
        <ele>1737.924</ele>
        <time>2019-04-07T23:16:37Z</time>
      </trkpt>
      <trkpt lat="42.28185" lon="1.88977">
        <ele>1738.034</ele>
        <time>2019-04-07T23:16:37Z</time>
      </trkpt>
      <trkpt lat="42.28187" lon="1.8898">
        <ele>1739.068</ele>
        <time>2019-04-07T23:16:38Z</time>
      </trkpt>
      <trkpt lat="42.28188" lon="1.88982">
        <ele>1739.337</ele>
        <time>2019-04-07T23:16:39Z</time>
      </trkpt>
      <trkpt lat="42.28189" lon="1.88983">
        <ele>1740.069</ele>
        <time>2019-04-07T23:16:39Z</time>
      </trkpt>
      <trkpt lat="42.2819" lon="1.88984">
        <ele>1740.193</ele>
        <time>2019-04-07T23:16:40Z</time>
      </trkpt>
      <trkpt lat="42.28192" lon="1.88983">
        <ele>1740.565</ele>
        <time>2019-04-07T23:16:41Z</time>
      </trkpt>
      <trkpt lat="42.28192" lon="1.88982">
        <ele>1740.521</ele>
        <time>2019-04-07T23:16:41Z</time>
      </trkpt>
      <trkpt lat="42.28193" lon="1.88982">
        <ele>1741.008</ele>
        <time>2019-04-07T23:16:41Z</time>
      </trkpt>
      <trkpt lat="42.28196" lon="1.88982">
        <ele>1741.672</ele>
        <time>2019-04-07T23:16:42Z</time>
      </trkpt>
      <trkpt lat="42.28196" lon="1.88982">
        <ele>1742.024</ele>
        <time>2019-04-07T23:16:42Z</time>
      </trkpt>
      <trkpt lat="42.28199" lon="1.88983">
        <ele>1742.669</ele>
        <time>2019-04-07T23:16:43Z</time>
      </trkpt>
      <trkpt lat="42.28201" lon="1.88983">
        <ele>1743.23</ele>
        <time>2019-04-07T23:16:45Z</time>
      </trkpt>
      <trkpt lat="42.28203" lon="1.88985">
        <ele>1743.96</ele>
        <time>2019-04-07T23:16:45Z</time>
      </trkpt>
      <trkpt lat="42.28203" lon="1.88985">
        <ele>1743.984</ele>
        <time>2019-04-07T23:16:46Z</time>
      </trkpt>
      <trkpt lat="42.28205" lon="1.88987">
        <ele>1744.423</ele>
        <time>2019-04-07T23:16:47Z</time>
      </trkpt>
      <trkpt lat="42.28208" lon="1.88987">
        <ele>1744.675</ele>
        <time>2019-04-07T23:16:48Z</time>
      </trkpt>
      <trkpt lat="42.28208" lon="1.88987">
        <ele>1745.029</ele>
        <time>2019-04-07T23:16:48Z</time>
      </trkpt>
      <trkpt lat="42.28208" lon="1.88986">
        <ele>1744.8</ele>
        <time>2019-04-07T23:16:48Z</time>
      </trkpt>
      <trkpt lat="42.28206" lon="1.88985">
        <ele>1744.82</ele>
        <time>2019-04-07T23:16:49Z</time>
      </trkpt>
      <trkpt lat="42.28205" lon="1.88985">
        <ele>1744.408</ele>
        <time>2019-04-07T23:16:49Z</time>
      </trkpt>
      <trkpt lat="42.28206" lon="1.88985">
        <ele>1744.695</ele>
        <time>2019-04-07T23:16:50Z</time>
      </trkpt>
      <trkpt lat="42.28206" lon="1.88984">
        <ele>1744.657</ele>
        <time>2019-04-07T23:16:51Z</time>
      </trkpt>
      <trkpt lat="42.28206" lon="1.88984">
        <ele>1744.692</ele>
        <time>2019-04-07T23:16:51Z</time>
      </trkpt>
      <trkpt lat="42.28206" lon="1.88985">
        <ele>1745.073</ele>
        <time>2019-04-07T23:16:51Z</time>
      </trkpt>
      <trkpt lat="42.28205" lon="1.88984">
        <ele>1744.593</ele>
        <time>2019-04-07T23:16:51Z</time>
      </trkpt>
      <trkpt lat="42.28206" lon="1.88986">
        <ele>1744.137</ele>
        <time>2019-04-07T23:16:52Z</time>
      </trkpt>
      <trkpt lat="42.28206" lon="1.88987">
        <ele>1744.216</ele>
        <time>2019-04-07T23:16:52Z</time>
      </trkpt>
      <trkpt lat="42.28207" lon="1.88986">
        <ele>1744.138</ele>
        <time>2019-04-07T23:16:52Z</time>
      </trkpt>
      <trkpt lat="42.28207" lon="1.88986">
        <ele>1744.253</ele>
        <time>2019-04-07T23:16:52Z</time>
      </trkpt>
      <trkpt lat="42.28209" lon="1.88985">
        <ele>1744.204</ele>
        <time>2019-04-07T23:16:53Z</time>
      </trkpt>
      <trkpt lat="42.28209" lon="1.88985">
        <ele>1744.414</ele>
        <time>2019-04-07T23:16:53Z</time>
      </trkpt>
      <trkpt lat="42.2821" lon="1.88987">
        <ele>1744.408</ele>
        <time>2019-04-07T23:16:54Z</time>
      </trkpt>
      <trkpt lat="42.28214" lon="1.8899">
        <ele>1744.498</ele>
        <time>2019-04-07T23:16:55Z</time>
      </trkpt>
      <trkpt lat="42.28215" lon="1.88991">
        <ele>1744.59</ele>
        <time>2019-04-07T23:16:56Z</time>
      </trkpt>
      <trkpt lat="42.28215" lon="1.88992">
        <ele>1744.535</ele>
        <time>2019-04-07T23:16:56Z</time>
      </trkpt>
      <trkpt lat="42.28219" lon="1.88996">
        <ele>1745.286</ele>
        <time>2019-04-07T23:16:58Z</time>
      </trkpt>
      <trkpt lat="42.28221" lon="1.88998">
        <ele>1745.736</ele>
        <time>2019-04-07T23:16:59Z</time>
      </trkpt>
      <trkpt lat="42.28224" lon="1.89">
        <ele>1745.92</ele>
        <time>2019-04-07T23:17:00Z</time>
      </trkpt>
      <trkpt lat="42.28228" lon="1.89002">
        <ele>1746.269</ele>
        <time>2019-04-07T23:17:02Z</time>
      </trkpt>
      <trkpt lat="42.28232" lon="1.89004">
        <ele>1746.281</ele>
        <time>2019-04-07T23:17:04Z</time>
      </trkpt>
      <trkpt lat="42.28234" lon="1.89005">
        <ele>1746.543</ele>
        <time>2019-04-07T23:17:05Z</time>
      </trkpt>
      <trkpt lat="42.28236" lon="1.89007">
        <ele>1746.964</ele>
        <time>2019-04-07T23:17:06Z</time>
      </trkpt>
      <trkpt lat="42.28237" lon="1.89008">
        <ele>1747.01</ele>
        <time>2019-04-07T23:17:06Z</time>
      </trkpt>
      <trkpt lat="42.2824" lon="1.89011">
        <ele>1747.108</ele>
        <time>2019-04-07T23:17:08Z</time>
      </trkpt>
      <trkpt lat="42.28247" lon="1.89015">
        <ele>1747.167</ele>
        <time>2019-04-07T23:17:11Z</time>
      </trkpt>
      <trkpt lat="42.28249" lon="1.89016">
        <ele>1746.939</ele>
        <time>2019-04-07T23:17:12Z</time>
      </trkpt>
      <trkpt lat="42.28253" lon="1.89015">
        <ele>1747.154</ele>
        <time>2019-04-07T23:17:13Z</time>
      </trkpt>
      <trkpt lat="42.28255" lon="1.89015">
        <ele>1747.225</ele>
        <time>2019-04-07T23:17:14Z</time>
      </trkpt>
      <trkpt lat="42.28258" lon="1.89017">
        <ele>1747.055</ele>
        <time>2019-04-07T23:17:16Z</time>
      </trkpt>
      <trkpt lat="42.28263" lon="1.89021">
        <ele>1746.489</ele>
        <time>2019-04-07T23:17:18Z</time>
      </trkpt>
      <trkpt lat="42.28267" lon="1.89026">
        <ele>1746.668</ele>
        <time>2019-04-07T23:17:20Z</time>
      </trkpt>
      <trkpt lat="42.28269" lon="1.8903">
        <ele>1746.37</ele>
        <time>2019-04-07T23:17:22Z</time>
      </trkpt>
      <trkpt lat="42.2827" lon="1.89032">
        <ele>1746.165</ele>
        <time>2019-04-07T23:17:22Z</time>
      </trkpt>
      <trkpt lat="42.28275" lon="1.89038">
        <ele>1746.668</ele>
        <time>2019-04-07T23:17:25Z</time>
      </trkpt>
      <trkpt lat="42.28276" lon="1.89039">
        <ele>1746.414</ele>
        <time>2019-04-07T23:17:25Z</time>
      </trkpt>
      <trkpt lat="42.2828" lon="1.89043">
        <ele>1746.408</ele>
        <time>2019-04-07T23:17:27Z</time>
      </trkpt>
      <trkpt lat="42.28283" lon="1.89044">
        <ele>1745.999</ele>
        <time>2019-04-07T23:17:29Z</time>
      </trkpt>
      <trkpt lat="42.28288" lon="1.89046">
        <ele>1746.081</ele>
        <time>2019-04-07T23:17:30Z</time>
      </trkpt>
      <trkpt lat="42.28289" lon="1.89046">
        <ele>1746.086</ele>
        <time>2019-04-07T23:17:31Z</time>
      </trkpt>
      <trkpt lat="42.2829" lon="1.89045">
        <ele>1746.267</ele>
        <time>2019-04-07T23:17:32Z</time>
      </trkpt>
      <trkpt lat="42.28292" lon="1.89044">
        <ele>1746.367</ele>
        <time>2019-04-07T23:17:32Z</time>
      </trkpt>
      <trkpt lat="42.28294" lon="1.89042">
        <ele>1745.741</ele>
        <time>2019-04-07T23:17:33Z</time>
      </trkpt>
      <trkpt lat="42.28298" lon="1.89041">
        <ele>1745.27</ele>
        <time>2019-04-07T23:17:35Z</time>
      </trkpt>
      <trkpt lat="42.28299" lon="1.89042">
        <ele>1744.962</ele>
        <time>2019-04-07T23:17:35Z</time>
      </trkpt>
      <trkpt lat="42.283" lon="1.89042">
        <ele>1744.418</ele>
        <time>2019-04-07T23:17:36Z</time>
      </trkpt>
      <trkpt lat="42.28301" lon="1.89043">
        <ele>1744.198</ele>
        <time>2019-04-07T23:17:36Z</time>
      </trkpt>
      <trkpt lat="42.28301" lon="1.89044">
        <ele>1743.817</ele>
        <time>2019-04-07T23:17:37Z</time>
      </trkpt>
      <trkpt lat="42.28304" lon="1.89044">
        <ele>1742.808</ele>
        <time>2019-04-07T23:17:37Z</time>
      </trkpt>
      <trkpt lat="42.28306" lon="1.89043">
        <ele>1742.674</ele>
        <time>2019-04-07T23:17:38Z</time>
      </trkpt>
      <trkpt lat="42.28307" lon="1.89043">
        <ele>1742.236</ele>
        <time>2019-04-07T23:17:39Z</time>
      </trkpt>
      <trkpt lat="42.28311" lon="1.89044">
        <ele>1741.761</ele>
        <time>2019-04-07T23:17:40Z</time>
      </trkpt>
      <trkpt lat="42.28313" lon="1.89044">
        <ele>1741.162</ele>
        <time>2019-04-07T23:17:41Z</time>
      </trkpt>
      <trkpt lat="42.28314" lon="1.89044">
        <ele>1741.132</ele>
        <time>2019-04-07T23:17:42Z</time>
      </trkpt>
      <trkpt lat="42.28321" lon="1.89043">
        <ele>1740.636</ele>
        <time>2019-04-07T23:17:44Z</time>
      </trkpt>
      <trkpt lat="42.28323" lon="1.89042">
        <ele>1740.285</ele>
        <time>2019-04-07T23:17:45Z</time>
      </trkpt>
      <trkpt lat="42.28325" lon="1.89041">
        <ele>1739.497</ele>
        <time>2019-04-07T23:17:46Z</time>
      </trkpt>
      <trkpt lat="42.28333" lon="1.8904">
        <ele>1738.314</ele>
        <time>2019-04-07T23:17:49Z</time>
      </trkpt>
      <trkpt lat="42.28334" lon="1.8904">
        <ele>1737.954</ele>
        <time>2019-04-07T23:17:50Z</time>
      </trkpt>
      <trkpt lat="42.2834" lon="1.89039">
        <ele>1737.109</ele>
        <time>2019-04-07T23:17:52Z</time>
      </trkpt>
      <trkpt lat="42.28342" lon="1.89039">
        <ele>1737.008</ele>
        <time>2019-04-07T23:17:53Z</time>
      </trkpt>
      <trkpt lat="42.28346" lon="1.8904">
        <ele>1736.854</ele>
        <time>2019-04-07T23:17:54Z</time>
      </trkpt>
      <trkpt lat="42.28347" lon="1.89039">
        <ele>1736.446</ele>
        <time>2019-04-07T23:17:55Z</time>
      </trkpt>
      <trkpt lat="42.28348" lon="1.89039">
        <ele>1736.181</ele>
        <time>2019-04-07T23:17:55Z</time>
      </trkpt>
      <trkpt lat="42.28349" lon="1.89038">
        <ele>1736.032</ele>
        <time>2019-04-07T23:17:56Z</time>
      </trkpt>
      <trkpt lat="42.28354" lon="1.89039">
        <ele>1735.122</ele>
        <time>2019-04-07T23:17:58Z</time>
      </trkpt>
      <trkpt lat="42.28356" lon="1.8904">
        <ele>1734.516</ele>
        <time>2019-04-07T23:17:59Z</time>
      </trkpt>
      <trkpt lat="42.28359" lon="1.89041">
        <ele>1734.025</ele>
        <time>2019-04-07T23:18:00Z</time>
      </trkpt>
      <trkpt lat="42.28363" lon="1.89042">
        <ele>1733.087</ele>
        <time>2019-04-07T23:18:01Z</time>
      </trkpt>
      <trkpt lat="42.28366" lon="1.89043">
        <ele>1732.232</ele>
        <time>2019-04-07T23:18:03Z</time>
      </trkpt>
      <trkpt lat="42.28371" lon="1.89045">
        <ele>1731.992</ele>
        <time>2019-04-07T23:18:05Z</time>
      </trkpt>
      <trkpt lat="42.28372" lon="1.89045">
        <ele>1731.511</ele>
        <time>2019-04-07T23:18:05Z</time>
      </trkpt>
      <trkpt lat="42.28373" lon="1.89045">
        <ele>1731.508</ele>
        <time>2019-04-07T23:18:06Z</time>
      </trkpt>
      <trkpt lat="42.28379" lon="1.89048">
        <ele>1730.746</ele>
        <time>2019-04-07T23:18:09Z</time>
      </trkpt>
      <trkpt lat="42.28381" lon="1.8905">
        <ele>1730.278</ele>
        <time>2019-04-07T23:18:09Z</time>
      </trkpt>
      <trkpt lat="42.28383" lon="1.89052">
        <ele>1729.683</ele>
        <time>2019-04-07T23:18:10Z</time>
      </trkpt>
      <trkpt lat="42.28386" lon="1.89056">
        <ele>1728.454</ele>
        <time>2019-04-07T23:18:12Z</time>
      </trkpt>
      <trkpt lat="42.2839" lon="1.8906">
        <ele>1727.924</ele>
        <time>2019-04-07T23:18:14Z</time>
      </trkpt>
      <trkpt lat="42.28395" lon="1.89063">
        <ele>1727.298</ele>
        <time>2019-04-07T23:18:16Z</time>
      </trkpt>
      <trkpt lat="42.284" lon="1.89067">
        <ele>1726.687</ele>
        <time>2019-04-07T23:18:18Z</time>
      </trkpt>
      <trkpt lat="42.28402" lon="1.8907">
        <ele>1726.219</ele>
        <time>2019-04-07T23:18:20Z</time>
      </trkpt>
      <trkpt lat="42.28405" lon="1.89072">
        <ele>1726.084</ele>
        <time>2019-04-07T23:18:21Z</time>
      </trkpt>
      <trkpt lat="42.28406" lon="1.89073">
        <ele>1725.807</ele>
        <time>2019-04-07T23:18:21Z</time>
      </trkpt>
      <trkpt lat="42.28407" lon="1.89074">
        <ele>1725.517</ele>
        <time>2019-04-07T23:18:22Z</time>
      </trkpt>
      <trkpt lat="42.28408" lon="1.89075">
        <ele>1724.808</ele>
        <time>2019-04-07T23:18:23Z</time>
      </trkpt>
      <trkpt lat="42.2841" lon="1.89076">
        <ele>1724.451</ele>
        <time>2019-04-07T23:18:23Z</time>
      </trkpt>
      <trkpt lat="42.28412" lon="1.89079">
        <ele>1724.123</ele>
        <time>2019-04-07T23:18:25Z</time>
      </trkpt>
      <trkpt lat="42.28415" lon="1.89083">
        <ele>1724.178</ele>
        <time>2019-04-07T23:18:26Z</time>
      </trkpt>
      <trkpt lat="42.28418" lon="1.89087">
        <ele>1723.939</ele>
        <time>2019-04-07T23:18:28Z</time>
      </trkpt>
      <trkpt lat="42.28418" lon="1.89088">
        <ele>1723.869</ele>
        <time>2019-04-07T23:18:28Z</time>
      </trkpt>
      <trkpt lat="42.2842" lon="1.8909">
        <ele>1723.583</ele>
        <time>2019-04-07T23:18:29Z</time>
      </trkpt>
      <trkpt lat="42.28421" lon="1.89092">
        <ele>1723.162</ele>
        <time>2019-04-07T23:18:30Z</time>
      </trkpt>
      <trkpt lat="42.28422" lon="1.89094">
        <ele>1722.794</ele>
        <time>2019-04-07T23:18:31Z</time>
      </trkpt>
      <trkpt lat="42.28424" lon="1.89097">
        <ele>1722.617</ele>
        <time>2019-04-07T23:18:32Z</time>
      </trkpt>
      <trkpt lat="42.28428" lon="1.89101">
        <ele>1722.187</ele>
        <time>2019-04-07T23:18:34Z</time>
      </trkpt>
      <trkpt lat="42.28431" lon="1.89107">
        <ele>1721.415</ele>
        <time>2019-04-07T23:18:36Z</time>
      </trkpt>
      <trkpt lat="42.28431" lon="1.89107">
        <ele>1721.108</ele>
        <time>2019-04-07T23:18:36Z</time>
      </trkpt>
      <trkpt lat="42.28431" lon="1.89106">
        <ele>1721.254</ele>
        <time>2019-04-07T23:18:36Z</time>
      </trkpt>
      <trkpt lat="42.28431" lon="1.89106">
        <ele>1721.516</ele>
        <time>2019-04-07T23:18:36Z</time>
      </trkpt>
      <trkpt lat="42.2843" lon="1.89106">
        <ele>1721.491</ele>
        <time>2019-04-07T23:18:37Z</time>
      </trkpt>
      <trkpt lat="42.2843" lon="1.89107">
        <ele>1721.132</ele>
        <time>2019-04-07T23:18:37Z</time>
      </trkpt>
      <trkpt lat="42.28431" lon="1.891">
        <ele>1721.582</ele>
        <time>2019-04-07T23:18:39Z</time>
      </trkpt>
      <trkpt lat="42.28431" lon="1.89099">
        <ele>1721.516</ele>
        <time>2019-04-07T23:18:39Z</time>
      </trkpt>
      <trkpt lat="42.28431" lon="1.89095">
        <ele>1720.115</ele>
        <time>2019-04-07T23:18:41Z</time>
      </trkpt>
      <trkpt lat="42.28431" lon="1.89092">
        <ele>1719.177</ele>
        <time>2019-04-07T23:18:41Z</time>
      </trkpt>
      <trkpt lat="42.2843" lon="1.89092">
        <ele>1718.297</ele>
        <time>2019-04-07T23:18:41Z</time>
      </trkpt>
      <trkpt lat="42.2843" lon="1.89092">
        <ele>1717.623</ele>
        <time>2019-04-07T23:18:41Z</time>
      </trkpt>
      <trkpt lat="42.28431" lon="1.89091">
        <ele>1716.825</ele>
        <time>2019-04-07T23:18:42Z</time>
      </trkpt>
      <trkpt lat="42.28431" lon="1.8909">
        <ele>1716.408</ele>
        <time>2019-04-07T23:18:42Z</time>
      </trkpt>
      <trkpt lat="42.28431" lon="1.89088">
        <ele>1716.272</ele>
        <time>2019-04-07T23:18:43Z</time>
      </trkpt>
      <trkpt lat="42.28431" lon="1.89084">
        <ele>1715.684</ele>
        <time>2019-04-07T23:18:44Z</time>
      </trkpt>
      <trkpt lat="42.28431" lon="1.89082">
        <ele>1715.239</ele>
        <time>2019-04-07T23:18:44Z</time>
      </trkpt>
      <trkpt lat="42.2843" lon="1.89077">
        <ele>1714.57</ele>
        <time>2019-04-07T23:18:46Z</time>
      </trkpt>
      <trkpt lat="42.2843" lon="1.89075">
        <ele>1714.25</ele>
        <time>2019-04-07T23:18:47Z</time>
      </trkpt>
      <trkpt lat="42.28429" lon="1.8907">
        <ele>1713.474</ele>
        <time>2019-04-07T23:18:48Z</time>
      </trkpt>
      <trkpt lat="42.28429" lon="1.89066">
        <ele>1713.023</ele>
        <time>2019-04-07T23:18:49Z</time>
      </trkpt>
      <trkpt lat="42.2843" lon="1.89061">
        <ele>1712.715</ele>
        <time>2019-04-07T23:18:51Z</time>
      </trkpt>
      <trkpt lat="42.28431" lon="1.89059">
        <ele>1712.534</ele>
        <time>2019-04-07T23:18:52Z</time>
      </trkpt>
      <trkpt lat="42.2843" lon="1.89056">
        <ele>1711.555</ele>
        <time>2019-04-07T23:18:53Z</time>
      </trkpt>
      <trkpt lat="42.28429" lon="1.89055">
        <ele>1711.01</ele>
        <time>2019-04-07T23:18:53Z</time>
      </trkpt>
      <trkpt lat="42.28428" lon="1.89052">
        <ele>1710.408</ele>
        <time>2019-04-07T23:18:54Z</time>
      </trkpt>
      <trkpt lat="42.28428" lon="1.8905">
        <ele>1710.256</ele>
        <time>2019-04-07T23:18:54Z</time>
      </trkpt>
      <trkpt lat="42.28428" lon="1.8905">
        <ele>1710.048</ele>
        <time>2019-04-07T23:18:55Z</time>
      </trkpt>
      <trkpt lat="42.28428" lon="1.89052">
        <ele>1709.613</ele>
        <time>2019-04-07T23:18:55Z</time>
      </trkpt>
      <trkpt lat="42.28428" lon="1.89053">
        <ele>1709.654</ele>
        <time>2019-04-07T23:18:55Z</time>
      </trkpt>
      <trkpt lat="42.28428" lon="1.89052">
        <ele>1709.594</ele>
        <time>2019-04-07T23:18:56Z</time>
      </trkpt>
      <trkpt lat="42.28427" lon="1.8905">
        <ele>1709.188</ele>
        <time>2019-04-07T23:18:56Z</time>
      </trkpt>
      <trkpt lat="42.28427" lon="1.89044">
        <ele>1709.047</ele>
        <time>2019-04-07T23:18:58Z</time>
      </trkpt>
      <trkpt lat="42.28426" lon="1.8904">
        <ele>1708.589</ele>
        <time>2019-04-07T23:18:59Z</time>
      </trkpt>
      <trkpt lat="42.28426" lon="1.89039">
        <ele>1708.027</ele>
        <time>2019-04-07T23:19:00Z</time>
      </trkpt>
      <trkpt lat="42.28424" lon="1.89035">
        <ele>1707.668</ele>
        <time>2019-04-07T23:19:01Z</time>
      </trkpt>
      <trkpt lat="42.28424" lon="1.89034">
        <ele>1707.414</ele>
        <time>2019-04-07T23:19:01Z</time>
      </trkpt>
      <trkpt lat="42.28423" lon="1.89026">
        <ele>1707.008</ele>
        <time>2019-04-07T23:19:04Z</time>
      </trkpt>
      <trkpt lat="42.28423" lon="1.89022">
        <ele>1706.635</ele>
        <time>2019-04-07T23:19:05Z</time>
      </trkpt>
      <trkpt lat="42.28423" lon="1.89019">
        <ele>1706.067</ele>
        <time>2019-04-07T23:19:06Z</time>
      </trkpt>
      <trkpt lat="42.28423" lon="1.89015">
        <ele>1705.152</ele>
        <time>2019-04-07T23:19:07Z</time>
      </trkpt>
      <trkpt lat="42.28423" lon="1.89012">
        <ele>1705.263</ele>
        <time>2019-04-07T23:19:08Z</time>
      </trkpt>
      <trkpt lat="42.28424" lon="1.89008">
        <ele>1704.533</ele>
        <time>2019-04-07T23:19:09Z</time>
      </trkpt>
      <trkpt lat="42.28424" lon="1.89005">
        <ele>1703.717</ele>
        <time>2019-04-07T23:19:10Z</time>
      </trkpt>
      <trkpt lat="42.28425" lon="1.88997">
        <ele>1702.256</ele>
        <time>2019-04-07T23:19:12Z</time>
      </trkpt>
      <trkpt lat="42.28423" lon="1.88991">
        <ele>1701.158</ele>
        <time>2019-04-07T23:19:14Z</time>
      </trkpt>
      <trkpt lat="42.28423" lon="1.8899">
        <ele>1700.618</ele>
        <time>2019-04-07T23:19:15Z</time>
      </trkpt>
      <trkpt lat="42.28423" lon="1.88988">
        <ele>1700.298</ele>
        <time>2019-04-07T23:19:15Z</time>
      </trkpt>
      <trkpt lat="42.28421" lon="1.8898">
        <ele>1699.017</ele>
        <time>2019-04-07T23:19:18Z</time>
      </trkpt>
      <trkpt lat="42.2842" lon="1.88976">
        <ele>1698.408</ele>
        <time>2019-04-07T23:19:19Z</time>
      </trkpt>
      <trkpt lat="42.2842" lon="1.88972">
        <ele>1697.664</ele>
        <time>2019-04-07T23:19:20Z</time>
      </trkpt>
      <trkpt lat="42.2842" lon="1.88966">
        <ele>1696.786</ele>
        <time>2019-04-07T23:19:22Z</time>
      </trkpt>
      <trkpt lat="42.28421" lon="1.88958">
        <ele>1695.371</ele>
        <time>2019-04-07T23:19:24Z</time>
      </trkpt>
      <trkpt lat="42.28422" lon="1.88956">
        <ele>1694.962</ele>
        <time>2019-04-07T23:19:25Z</time>
      </trkpt>
      <trkpt lat="42.28423" lon="1.88954">
        <ele>1694.692</ele>
        <time>2019-04-07T23:19:26Z</time>
      </trkpt>
      <trkpt lat="42.28423" lon="1.8895">
        <ele>1694.216</ele>
        <time>2019-04-07T23:19:27Z</time>
      </trkpt>
      <trkpt lat="42.28423" lon="1.88948">
        <ele>1693.695</ele>
        <time>2019-04-07T23:19:28Z</time>
      </trkpt>
      <trkpt lat="42.28423" lon="1.88946">
        <ele>1693.287</ele>
        <time>2019-04-07T23:19:28Z</time>
      </trkpt>
      <trkpt lat="42.28423" lon="1.88944">
        <ele>1692.912</ele>
        <time>2019-04-07T23:19:29Z</time>
      </trkpt>
      <trkpt lat="42.28422" lon="1.88938">
        <ele>1692.132</ele>
        <time>2019-04-07T23:19:30Z</time>
      </trkpt>
      <trkpt lat="42.28422" lon="1.88935">
        <ele>1691.805</ele>
        <time>2019-04-07T23:19:31Z</time>
      </trkpt>
      <trkpt lat="42.28423" lon="1.88919">
        <ele>1691.008</ele>
        <time>2019-04-07T23:19:36Z</time>
      </trkpt>
      <trkpt lat="42.28422" lon="1.88917">
        <ele>1691.054</ele>
        <time>2019-04-07T23:19:37Z</time>
      </trkpt>
      <trkpt lat="42.28422" lon="1.88915">
        <ele>1690.496</ele>
        <time>2019-04-07T23:19:37Z</time>
      </trkpt>
      <trkpt lat="42.28421" lon="1.88912">
        <ele>1689.561</ele>
        <time>2019-04-07T23:19:38Z</time>
      </trkpt>
      <trkpt lat="42.2842" lon="1.88909">
        <ele>1688.652</ele>
        <time>2019-04-07T23:19:39Z</time>
      </trkpt>
      <trkpt lat="42.2842" lon="1.88907">
        <ele>1688.272</ele>
        <time>2019-04-07T23:19:40Z</time>
      </trkpt>
      <trkpt lat="42.28419" lon="1.88901">
        <ele>1687.386</ele>
        <time>2019-04-07T23:19:42Z</time>
      </trkpt>
      <trkpt lat="42.28419" lon="1.88899">
        <ele>1687.175</ele>
        <time>2019-04-07T23:19:42Z</time>
      </trkpt>
      <trkpt lat="42.28418" lon="1.88897">
        <ele>1686.977</ele>
        <time>2019-04-07T23:19:43Z</time>
      </trkpt>
      <trkpt lat="42.28417" lon="1.88892">
        <ele>1685.871</ele>
        <time>2019-04-07T23:19:44Z</time>
      </trkpt>
      <trkpt lat="42.28415" lon="1.88888">
        <ele>1684.941</ele>
        <time>2019-04-07T23:19:46Z</time>
      </trkpt>
      <trkpt lat="42.28413" lon="1.88881">
        <ele>1683.815</ele>
        <time>2019-04-07T23:19:48Z</time>
      </trkpt>
      <trkpt lat="42.28411" lon="1.88874">
        <ele>1682.108</ele>
        <time>2019-04-07T23:19:50Z</time>
      </trkpt>
      <trkpt lat="42.28411" lon="1.88868">
        <ele>1680.94</ele>
        <time>2019-04-07T23:19:52Z</time>
      </trkpt>
      <trkpt lat="42.2841" lon="1.88863">
        <ele>1679.632</ele>
        <time>2019-04-07T23:19:54Z</time>
      </trkpt>
      <trkpt lat="42.2841" lon="1.88861">
        <ele>1678.997</ele>
        <time>2019-04-07T23:19:54Z</time>
      </trkpt>
      <trkpt lat="42.28409" lon="1.88859">
        <ele>1678.648</ele>
        <time>2019-04-07T23:19:55Z</time>
      </trkpt>
      <trkpt lat="42.28408" lon="1.88857">
        <ele>1677.298</ele>
        <time>2019-04-07T23:19:56Z</time>
      </trkpt>
      <trkpt lat="42.28406" lon="1.88855">
        <ele>1676.152</ele>
        <time>2019-04-07T23:19:57Z</time>
      </trkpt>
      <trkpt lat="42.28405" lon="1.88854">
        <ele>1675.691</ele>
        <time>2019-04-07T23:19:57Z</time>
      </trkpt>
      <trkpt lat="42.28402" lon="1.88851">
        <ele>1675.093</ele>
        <time>2019-04-07T23:19:59Z</time>
      </trkpt>
      <trkpt lat="42.28399" lon="1.88844">
        <ele>1673.624</ele>
        <time>2019-04-07T23:20:01Z</time>
      </trkpt>
      <trkpt lat="42.284" lon="1.88838">
        <ele>1672.804</ele>
        <time>2019-04-07T23:20:03Z</time>
      </trkpt>
      <trkpt lat="42.28401" lon="1.88835">
        <ele>1672.114</ele>
        <time>2019-04-07T23:20:04Z</time>
      </trkpt>
      <trkpt lat="42.28402" lon="1.8883">
        <ele>1671.008</ele>
        <time>2019-04-07T23:20:05Z</time>
      </trkpt>
      <trkpt lat="42.28404" lon="1.88826">
        <ele>1670.025</ele>
        <time>2019-04-07T23:20:07Z</time>
      </trkpt>
      <trkpt lat="42.28405" lon="1.88824">
        <ele>1669.677</ele>
        <time>2019-04-07T23:20:08Z</time>
      </trkpt>
      <trkpt lat="42.28405" lon="1.88822">
        <ele>1669.092</ele>
        <time>2019-04-07T23:20:08Z</time>
      </trkpt>
      <trkpt lat="42.28405" lon="1.88817">
        <ele>1667.643</ele>
        <time>2019-04-07T23:20:10Z</time>
      </trkpt>
      <trkpt lat="42.28406" lon="1.88815">
        <ele>1667.153</ele>
        <time>2019-04-07T23:20:10Z</time>
      </trkpt>
      <trkpt lat="42.28405" lon="1.88812">
        <ele>1666.987</ele>
        <time>2019-04-07T23:20:11Z</time>
      </trkpt>
      <trkpt lat="42.28407" lon="1.88803">
        <ele>1666.566</ele>
        <time>2019-04-07T23:20:14Z</time>
      </trkpt>
      <trkpt lat="42.28407" lon="1.88797">
        <ele>1666.588</ele>
        <time>2019-04-07T23:20:15Z</time>
      </trkpt>
      <trkpt lat="42.2841" lon="1.8879">
        <ele>1665.117</ele>
        <time>2019-04-07T23:20:18Z</time>
      </trkpt>
      <trkpt lat="42.28411" lon="1.88788">
        <ele>1664.987</ele>
        <time>2019-04-07T23:20:18Z</time>
      </trkpt>
      <trkpt lat="42.28412" lon="1.88786">
        <ele>1663.815</ele>
        <time>2019-04-07T23:20:19Z</time>
      </trkpt>
      <trkpt lat="42.28413" lon="1.88779">
        <ele>1662.508</ele>
        <time>2019-04-07T23:20:21Z</time>
      </trkpt>
      <trkpt lat="42.28411" lon="1.88778">
        <ele>1662.544</ele>
        <time>2019-04-07T23:20:22Z</time>
      </trkpt>
      <trkpt lat="42.2841" lon="1.88778">
        <ele>1662.276</ele>
        <time>2019-04-07T23:20:23Z</time>
      </trkpt>
      <trkpt lat="42.28407" lon="1.88778">
        <ele>1661.761</ele>
        <time>2019-04-07T23:20:24Z</time>
      </trkpt>
      <trkpt lat="42.28404" lon="1.88775">
        <ele>1660.342</ele>
        <time>2019-04-07T23:20:25Z</time>
      </trkpt>
      <trkpt lat="42.28405" lon="1.88772">
        <ele>1659.252</ele>
        <time>2019-04-07T23:20:26Z</time>
      </trkpt>
      <trkpt lat="42.28409" lon="1.88766">
        <ele>1658.196</ele>
        <time>2019-04-07T23:20:29Z</time>
      </trkpt>
      <trkpt lat="42.2841" lon="1.88764">
        <ele>1658.035</ele>
        <time>2019-04-07T23:20:30Z</time>
      </trkpt>
      <trkpt lat="42.28413" lon="1.88753">
        <ele>1656.777</ele>
        <time>2019-04-07T23:20:33Z</time>
      </trkpt>
      <trkpt lat="42.28413" lon="1.88746">
        <ele>1655.324</ele>
        <time>2019-04-07T23:20:35Z</time>
      </trkpt>
      <trkpt lat="42.28413" lon="1.88742">
        <ele>1654.804</ele>
        <time>2019-04-07T23:20:36Z</time>
      </trkpt>
      <trkpt lat="42.28414" lon="1.88738">
        <ele>1654.414</ele>
        <time>2019-04-07T23:20:37Z</time>
      </trkpt>
      <trkpt lat="42.28415" lon="1.88737">
        <ele>1654.008</ele>
        <time>2019-04-07T23:20:38Z</time>
      </trkpt>
      <trkpt lat="42.28416" lon="1.88734">
        <ele>1653.625</ele>
        <time>2019-04-07T23:20:39Z</time>
      </trkpt>
      <trkpt lat="42.28416" lon="1.88731">
        <ele>1653.227</ele>
        <time>2019-04-07T23:20:40Z</time>
      </trkpt>
      <trkpt lat="42.28416" lon="1.88727">
        <ele>1652.912</ele>
        <time>2019-04-07T23:20:41Z</time>
      </trkpt>
      <trkpt lat="42.28417" lon="1.88722">
        <ele>1652.063</ele>
        <time>2019-04-07T23:20:42Z</time>
      </trkpt>
      <trkpt lat="42.28417" lon="1.88719">
        <ele>1652.013</ele>
        <time>2019-04-07T23:20:43Z</time>
      </trkpt>
      <trkpt lat="42.28418" lon="1.88711">
        <ele>1651.327</ele>
        <time>2019-04-07T23:20:46Z</time>
      </trkpt>
      <trkpt lat="42.28419" lon="1.88708">
        <ele>1650.836</ele>
        <time>2019-04-07T23:20:47Z</time>
      </trkpt>
      <trkpt lat="42.2842" lon="1.88702">
        <ele>1650.218</ele>
        <time>2019-04-07T23:20:48Z</time>
      </trkpt>
      <trkpt lat="42.28421" lon="1.88695">
        <ele>1650.037</ele>
        <time>2019-04-07T23:20:51Z</time>
      </trkpt>
      <trkpt lat="42.28423" lon="1.8869">
        <ele>1649.249</ele>
        <time>2019-04-07T23:20:52Z</time>
      </trkpt>
      <trkpt lat="42.28425" lon="1.88689">
        <ele>1649.013</ele>
        <time>2019-04-07T23:20:53Z</time>
      </trkpt>
      <trkpt lat="42.28426" lon="1.88688">
        <ele>1648.808</ele>
        <time>2019-04-07T23:20:54Z</time>
      </trkpt>
      <trkpt lat="42.28426" lon="1.88687">
        <ele>1648.566</ele>
        <time>2019-04-07T23:20:54Z</time>
      </trkpt>
      <trkpt lat="42.28427" lon="1.88687">
        <ele>1648.258</ele>
        <time>2019-04-07T23:20:54Z</time>
      </trkpt>
      <trkpt lat="42.28428" lon="1.88686">
        <ele>1647.633</ele>
        <time>2019-04-07T23:20:54Z</time>
      </trkpt>
      <trkpt lat="42.28428" lon="1.88686">
        <ele>1647.654</ele>
        <time>2019-04-07T23:20:55Z</time>
      </trkpt>
      <trkpt lat="42.28433" lon="1.88685">
        <ele>1646.714</ele>
        <time>2019-04-07T23:20:57Z</time>
      </trkpt>
      <trkpt lat="42.28434" lon="1.88685">
        <ele>1646.268</ele>
        <time>2019-04-07T23:20:57Z</time>
      </trkpt>
      <trkpt lat="42.28436" lon="1.88685">
        <ele>1645.527</ele>
        <time>2019-04-07T23:20:58Z</time>
      </trkpt>
      <trkpt lat="42.28437" lon="1.88685">
        <ele>1645.189</ele>
        <time>2019-04-07T23:20:58Z</time>
      </trkpt>
      <trkpt lat="42.28439" lon="1.88685">
        <ele>1644.685</ele>
        <time>2019-04-07T23:20:59Z</time>
      </trkpt>
      <trkpt lat="42.2844" lon="1.88685">
        <ele>1644.589</ele>
        <time>2019-04-07T23:21:00Z</time>
      </trkpt>
      <trkpt lat="42.28445" lon="1.88684">
        <ele>1643.117</ele>
        <time>2019-04-07T23:21:02Z</time>
      </trkpt>
      <trkpt lat="42.28451" lon="1.88685">
        <ele>1642.108</ele>
        <time>2019-04-07T23:21:04Z</time>
      </trkpt>
      <trkpt lat="42.28452" lon="1.88685">
        <ele>1641.511</ele>
        <time>2019-04-07T23:21:04Z</time>
      </trkpt>
      <trkpt lat="42.28456" lon="1.88685">
        <ele>1640.673</ele>
        <time>2019-04-07T23:21:06Z</time>
      </trkpt>
      <trkpt lat="42.28459" lon="1.88685">
        <ele>1640.278</ele>
        <time>2019-04-07T23:21:07Z</time>
      </trkpt>
      <trkpt lat="42.2846" lon="1.88685">
        <ele>1639.759</ele>
        <time>2019-04-07T23:21:08Z</time>
      </trkpt>
      <trkpt lat="42.28462" lon="1.88684">
        <ele>1639.169</ele>
        <time>2019-04-07T23:21:08Z</time>
      </trkpt>
      <trkpt lat="42.28465" lon="1.88683">
        <ele>1638.113</ele>
        <time>2019-04-07T23:21:10Z</time>
      </trkpt>
      <trkpt lat="42.28466" lon="1.88683">
        <ele>1638.132</ele>
        <time>2019-04-07T23:21:10Z</time>
      </trkpt>
      <trkpt lat="42.28467" lon="1.88683">
        <ele>1637.754</ele>
        <time>2019-04-07T23:21:10Z</time>
      </trkpt>
      <trkpt lat="42.28474" lon="1.88684">
        <ele>1637.023</ele>
        <time>2019-04-07T23:21:13Z</time>
      </trkpt>
      <trkpt lat="42.28479" lon="1.88684">
        <ele>1636.183</ele>
        <time>2019-04-07T23:21:15Z</time>
      </trkpt>
      <trkpt lat="42.28481" lon="1.88685">
        <ele>1635.511</ele>
        <time>2019-04-07T23:21:16Z</time>
      </trkpt>
      <trkpt lat="42.28484" lon="1.88685">
        <ele>1635.008</ele>
        <time>2019-04-07T23:21:17Z</time>
      </trkpt>
      <trkpt lat="42.28487" lon="1.88685">
        <ele>1634.555</ele>
        <time>2019-04-07T23:21:18Z</time>
      </trkpt>
      <trkpt lat="42.28489" lon="1.88686">
        <ele>1634.087</ele>
        <time>2019-04-07T23:21:19Z</time>
      </trkpt>
      <trkpt lat="42.28492" lon="1.88687">
        <ele>1633.322</ele>
        <time>2019-04-07T23:21:20Z</time>
      </trkpt>
      <trkpt lat="42.28497" lon="1.88687">
        <ele>1633.013</ele>
        <time>2019-04-07T23:21:22Z</time>
      </trkpt>
      <trkpt lat="42.28505" lon="1.88685">
        <ele>1633.273</ele>
        <time>2019-04-07T23:21:26Z</time>
      </trkpt>
      <trkpt lat="42.2851" lon="1.88683">
        <ele>1632.057</ele>
        <time>2019-04-07T23:21:28Z</time>
      </trkpt>
      <trkpt lat="42.28514" lon="1.88682">
        <ele>1631.536</ele>
        <time>2019-04-07T23:21:30Z</time>
      </trkpt>
      <trkpt lat="42.28516" lon="1.88681">
        <ele>1631.228</ele>
        <time>2019-04-07T23:21:30Z</time>
      </trkpt>
      <trkpt lat="42.28517" lon="1.8868">
        <ele>1630.968</ele>
        <time>2019-04-07T23:21:31Z</time>
      </trkpt>
      <trkpt lat="42.28517" lon="1.88677">
        <ele>1629.642</ele>
        <time>2019-04-07T23:21:32Z</time>
      </trkpt>
      <trkpt lat="42.28517" lon="1.88676">
        <ele>1629.426</ele>
        <time>2019-04-07T23:21:32Z</time>
      </trkpt>
      <trkpt lat="42.28517" lon="1.88673">
        <ele>1629.408</ele>
        <time>2019-04-07T23:21:33Z</time>
      </trkpt>
      <trkpt lat="42.28516" lon="1.88669">
        <ele>1629.229</ele>
        <time>2019-04-07T23:21:34Z</time>
      </trkpt>
      <trkpt lat="42.28518" lon="1.88675">
        <ele>1629.121</ele>
        <time>2019-04-07T23:21:36Z</time>
      </trkpt>
      <trkpt lat="42.28519" lon="1.88676">
        <ele>1629.696</ele>
        <time>2019-04-07T23:21:36Z</time>
      </trkpt>
      <trkpt lat="42.2852" lon="1.88676">
        <ele>1629.547</ele>
        <time>2019-04-07T23:21:37Z</time>
      </trkpt>
      <trkpt lat="42.28516" lon="1.88677">
        <ele>1629.597</ele>
        <time>2019-04-07T23:21:38Z</time>
      </trkpt>
      <trkpt lat="42.28513" lon="1.88678">
        <ele>1629.531</ele>
        <time>2019-04-07T23:21:39Z</time>
      </trkpt>
      <trkpt lat="42.28508" lon="1.88676">
        <ele>1628.62</ele>
        <time>2019-04-07T23:21:42Z</time>
      </trkpt>
      <trkpt lat="42.28506" lon="1.88675">
        <ele>1628.692</ele>
        <time>2019-04-07T23:21:42Z</time>
      </trkpt>
      <trkpt lat="42.28502" lon="1.88676">
        <ele>1627.968</ele>
        <time>2019-04-07T23:21:44Z</time>
      </trkpt>
      <trkpt lat="42.28501" lon="1.88676">
        <ele>1627.642</ele>
        <time>2019-04-07T23:21:44Z</time>
      </trkpt>
      <trkpt lat="42.28497" lon="1.88674">
        <ele>1626.826</ele>
        <time>2019-04-07T23:21:46Z</time>
      </trkpt>
      <trkpt lat="42.28492" lon="1.88672">
        <ele>1626.508</ele>
        <time>2019-04-07T23:21:48Z</time>
      </trkpt>
      <trkpt lat="42.28491" lon="1.88672">
        <ele>1626.669</ele>
        <time>2019-04-07T23:21:49Z</time>
      </trkpt>
      <trkpt lat="42.28489" lon="1.88671">
        <ele>1626.691</ele>
        <time>2019-04-07T23:21:49Z</time>
      </trkpt>
      <trkpt lat="42.28486" lon="1.88669">
        <ele>1626.266</ele>
        <time>2019-04-07T23:21:50Z</time>
      </trkpt>
      <trkpt lat="42.28484" lon="1.88668">
        <ele>1625.487</ele>
        <time>2019-04-07T23:21:51Z</time>
      </trkpt>
      <trkpt lat="42.28484" lon="1.88668">
        <ele>1625.187</ele>
        <time>2019-04-07T23:21:52Z</time>
      </trkpt>
      <trkpt lat="42.28481" lon="1.88669">
        <ele>1624.911</ele>
        <time>2019-04-07T23:21:53Z</time>
      </trkpt>
      <trkpt lat="42.28478" lon="1.88675">
        <ele>1624.52</ele>
        <time>2019-04-07T23:21:55Z</time>
      </trkpt>
      <trkpt lat="42.28476" lon="1.88672">
        <ele>1624.692</ele>
        <time>2019-04-07T23:21:56Z</time>
      </trkpt>
      <trkpt lat="42.28476" lon="1.88672">
        <ele>1624.669</ele>
        <time>2019-04-07T23:21:56Z</time>
      </trkpt>
      <trkpt lat="42.28475" lon="1.88669">
        <ele>1624.704</ele>
        <time>2019-04-07T23:21:57Z</time>
      </trkpt>
      <trkpt lat="42.28474" lon="1.88665">
        <ele>1624.524</ele>
        <time>2019-04-07T23:21:58Z</time>
      </trkpt>
      <trkpt lat="42.28473" lon="1.88663">
        <ele>1624.108</ele>
        <time>2019-04-07T23:21:59Z</time>
      </trkpt>
      <trkpt lat="42.2847" lon="1.88657">
        <ele>1623.169</ele>
        <time>2019-04-07T23:22:01Z</time>
      </trkpt>
      <trkpt lat="42.28466" lon="1.88652">
        <ele>1622.561</ele>
        <time>2019-04-07T23:22:03Z</time>
      </trkpt>
      <trkpt lat="42.28464" lon="1.88651">
        <ele>1621.866</ele>
        <time>2019-04-07T23:22:04Z</time>
      </trkpt>
      <trkpt lat="42.28459" lon="1.8865">
        <ele>1620.627</ele>
        <time>2019-04-07T23:22:06Z</time>
      </trkpt>
      <trkpt lat="42.28454" lon="1.88649">
        <ele>1619.557</ele>
        <time>2019-04-07T23:22:08Z</time>
      </trkpt>
      <trkpt lat="42.2845" lon="1.88648">
        <ele>1618.211</ele>
        <time>2019-04-07T23:22:10Z</time>
      </trkpt>
      <trkpt lat="42.28449" lon="1.88647">
        <ele>1618.05</ele>
        <time>2019-04-07T23:22:10Z</time>
      </trkpt>
      <trkpt lat="42.28448" lon="1.88647">
        <ele>1617.672</ele>
        <time>2019-04-07T23:22:10Z</time>
      </trkpt>
      <trkpt lat="42.28447" lon="1.88646">
        <ele>1617.295</ele>
        <time>2019-04-07T23:22:11Z</time>
      </trkpt>
      <trkpt lat="42.28444" lon="1.88643">
        <ele>1616.749</ele>
        <time>2019-04-07T23:22:13Z</time>
      </trkpt>
      <trkpt lat="42.2844" lon="1.8864">
        <ele>1616.023</ele>
        <time>2019-04-07T23:22:14Z</time>
      </trkpt>
      <trkpt lat="42.28439" lon="1.88639">
        <ele>1615.808</ele>
        <time>2019-04-07T23:22:15Z</time>
      </trkpt>
      <trkpt lat="42.28437" lon="1.88637">
        <ele>1616.062</ele>
        <time>2019-04-07T23:22:16Z</time>
      </trkpt>
      <trkpt lat="42.28432" lon="1.88634">
        <ele>1615.244</ele>
        <time>2019-04-07T23:22:18Z</time>
      </trkpt>
      <trkpt lat="42.2843" lon="1.88633">
        <ele>1614.559</ele>
        <time>2019-04-07T23:22:19Z</time>
      </trkpt>
      <trkpt lat="42.28428" lon="1.88633">
        <ele>1613.76</ele>
        <time>2019-04-07T23:22:20Z</time>
      </trkpt>
      <trkpt lat="42.28425" lon="1.88632">
        <ele>1613.05</ele>
        <time>2019-04-07T23:22:21Z</time>
      </trkpt>
      <trkpt lat="42.28423" lon="1.88631">
        <ele>1612.754</ele>
        <time>2019-04-07T23:22:22Z</time>
      </trkpt>
      <trkpt lat="42.28422" lon="1.8863">
        <ele>1612.663</ele>
        <time>2019-04-07T23:22:22Z</time>
      </trkpt>
      <trkpt lat="42.28413" lon="1.88624">
        <ele>1611.475</ele>
        <time>2019-04-07T23:22:26Z</time>
      </trkpt>
      <trkpt lat="42.28408" lon="1.8862">
        <ele>1610.681</ele>
        <time>2019-04-07T23:22:28Z</time>
      </trkpt>
      <trkpt lat="42.28407" lon="1.88618">
        <ele>1610.261</ele>
        <time>2019-04-07T23:22:29Z</time>
      </trkpt>
      <trkpt lat="42.28404" lon="1.88615">
        <ele>1610.017</ele>
        <time>2019-04-07T23:22:31Z</time>
      </trkpt>
      <trkpt lat="42.28403" lon="1.88615">
        <ele>1610.008</ele>
        <time>2019-04-07T23:22:31Z</time>
      </trkpt>
      <trkpt lat="42.28394" lon="1.8861">
        <ele>1609.121</ele>
        <time>2019-04-07T23:22:35Z</time>
      </trkpt>
      <trkpt lat="42.28392" lon="1.88609">
        <ele>1609.193</ele>
        <time>2019-04-07T23:22:36Z</time>
      </trkpt>
      <trkpt lat="42.28391" lon="1.88609">
        <ele>1609.238</ele>
        <time>2019-04-07T23:22:36Z</time>
      </trkpt>
      <trkpt lat="42.28388" lon="1.88608">
        <ele>1608.349</ele>
        <time>2019-04-07T23:22:38Z</time>
      </trkpt>
      <trkpt lat="42.28386" lon="1.88608">
        <ele>1608.039</ele>
        <time>2019-04-07T23:22:38Z</time>
      </trkpt>
      <trkpt lat="42.28384" lon="1.88609">
        <ele>1607.513</ele>
        <time>2019-04-07T23:22:39Z</time>
      </trkpt>
      <trkpt lat="42.28384" lon="1.88609">
        <ele>1607.222</ele>
        <time>2019-04-07T23:22:39Z</time>
      </trkpt>
      <trkpt lat="42.2838" lon="1.88609">
        <ele>1606.384</ele>
        <time>2019-04-07T23:22:41Z</time>
      </trkpt>
      <trkpt lat="42.28379" lon="1.88609">
        <ele>1606.024</ele>
        <time>2019-04-07T23:22:41Z</time>
      </trkpt>
      <trkpt lat="42.28377" lon="1.8861">
        <ele>1606.104</ele>
        <time>2019-04-07T23:22:42Z</time>
      </trkpt>
      <trkpt lat="42.28373" lon="1.88613">
        <ele>1605.014</ele>
        <time>2019-04-07T23:22:44Z</time>
      </trkpt>
      <trkpt lat="42.28372" lon="1.88615">
        <ele>1604.808</ele>
        <time>2019-04-07T23:22:44Z</time>
      </trkpt>
      <trkpt lat="42.2837" lon="1.88617">
        <ele>1605.125</ele>
        <time>2019-04-07T23:22:45Z</time>
      </trkpt>
      <trkpt lat="42.28369" lon="1.88618">
        <ele>1605.247</ele>
        <time>2019-04-07T23:22:46Z</time>
      </trkpt>
      <trkpt lat="42.28365" lon="1.88619">
        <ele>1605.992</ele>
        <time>2019-04-07T23:22:47Z</time>
      </trkpt>
      <trkpt lat="42.28363" lon="1.8862">
        <ele>1606.333</ele>
        <time>2019-04-07T23:22:48Z</time>
      </trkpt>
      <trkpt lat="42.28362" lon="1.88621">
        <ele>1606.393</ele>
        <time>2019-04-07T23:22:49Z</time>
      </trkpt>
      <trkpt lat="42.28355" lon="1.8863">
        <ele>1606.027</ele>
        <time>2019-04-07T23:22:53Z</time>
      </trkpt>
      <trkpt lat="42.2835" lon="1.88637">
        <ele>1606.186</ele>
        <time>2019-04-07T23:22:55Z</time>
      </trkpt>
      <trkpt lat="42.28349" lon="1.88637">
        <ele>1606.298</ele>
        <time>2019-04-07T23:22:56Z</time>
      </trkpt>
      <trkpt lat="42.28347" lon="1.88639">
        <ele>1606.694</ele>
        <time>2019-04-07T23:22:57Z</time>
      </trkpt>
      <trkpt lat="42.28346" lon="1.88646">
        <ele>1607.057</ele>
        <time>2019-04-07T23:22:59Z</time>
      </trkpt>
      <trkpt lat="42.28345" lon="1.88646">
        <ele>1607.022</ele>
        <time>2019-04-07T23:23:00Z</time>
      </trkpt>
      <trkpt lat="42.28343" lon="1.88645">
        <ele>1607.408</ele>
        <time>2019-04-07T23:23:00Z</time>
      </trkpt>
      <trkpt lat="42.28341" lon="1.88645">
        <ele>1607.632</ele>
        <time>2019-04-07T23:23:01Z</time>
      </trkpt>
      <trkpt lat="42.28341" lon="1.88646">
        <ele>1607.914</ele>
        <time>2019-04-07T23:23:01Z</time>
      </trkpt>
      <trkpt lat="42.28339" lon="1.88646">
        <ele>1608.139</ele>
        <time>2019-04-07T23:23:02Z</time>
      </trkpt>
      <trkpt lat="42.28338" lon="1.88646">
        <ele>1608.59</ele>
        <time>2019-04-07T23:23:02Z</time>
      </trkpt>
      <trkpt lat="42.28337" lon="1.88646">
        <ele>1608.57</ele>
        <time>2019-04-07T23:23:03Z</time>
      </trkpt>
      <trkpt lat="42.28337" lon="1.88647">
        <ele>1608.944</ele>
        <time>2019-04-07T23:23:03Z</time>
      </trkpt>
      <trkpt lat="42.28334" lon="1.88649">
        <ele>1609.073</ele>
        <time>2019-04-07T23:23:04Z</time>
      </trkpt>
      <trkpt lat="42.28331" lon="1.88651">
        <ele>1608.745</ele>
        <time>2019-04-07T23:23:06Z</time>
      </trkpt>
      <trkpt lat="42.28328" lon="1.8865">
        <ele>1608.212</ele>
        <time>2019-04-07T23:23:07Z</time>
      </trkpt>
      <trkpt lat="42.28324" lon="1.88648">
        <ele>1608.532</ele>
        <time>2019-04-07T23:23:08Z</time>
      </trkpt>
      <trkpt lat="42.28323" lon="1.88647">
        <ele>1608.805</ele>
        <time>2019-04-07T23:23:09Z</time>
      </trkpt>
      <trkpt lat="42.28322" lon="1.88647">
        <ele>1609.408</ele>
        <time>2019-04-07T23:23:09Z</time>
      </trkpt>
      <trkpt lat="42.2832" lon="1.88646">
        <ele>1610.264</ele>
        <time>2019-04-07T23:23:10Z</time>
      </trkpt>
      <trkpt lat="42.2832" lon="1.88646">
        <ele>1610.566</ele>
        <time>2019-04-07T23:23:10Z</time>
      </trkpt>
      <trkpt lat="42.28319" lon="1.88645">
        <ele>1610.771</ele>
        <time>2019-04-07T23:23:10Z</time>
      </trkpt>
      <trkpt lat="42.28314" lon="1.88642">
        <ele>1611.732</ele>
        <time>2019-04-07T23:23:13Z</time>
      </trkpt>
      <trkpt lat="42.28313" lon="1.88641">
        <ele>1612.072</ele>
        <time>2019-04-07T23:23:13Z</time>
      </trkpt>
      <trkpt lat="42.28312" lon="1.8864">
        <ele>1612.376</ele>
        <time>2019-04-07T23:23:14Z</time>
      </trkpt>
      <trkpt lat="42.2831" lon="1.88638">
        <ele>1612.785</ele>
        <time>2019-04-07T23:23:15Z</time>
      </trkpt>
      <trkpt lat="42.28309" lon="1.88637">
        <ele>1612.767</ele>
        <time>2019-04-07T23:23:15Z</time>
      </trkpt>
      <trkpt lat="42.28309" lon="1.88636">
        <ele>1613.048</ele>
        <time>2019-04-07T23:23:16Z</time>
      </trkpt>
      <trkpt lat="42.28307" lon="1.88633">
        <ele>1613.261</ele>
        <time>2019-04-07T23:23:17Z</time>
      </trkpt>
      <trkpt lat="42.28306" lon="1.88629">
        <ele>1613.117</ele>
        <time>2019-04-07T23:23:18Z</time>
      </trkpt>
      <trkpt lat="42.28302" lon="1.88625">
        <ele>1613.808</ele>
        <time>2019-04-07T23:23:20Z</time>
      </trkpt>
      <trkpt lat="42.28301" lon="1.88624">
        <ele>1614.187</ele>
        <time>2019-04-07T23:23:21Z</time>
      </trkpt>
      <trkpt lat="42.28299" lon="1.88622">
        <ele>1614.519</ele>
        <time>2019-04-07T23:23:21Z</time>
      </trkpt>
      <trkpt lat="42.28297" lon="1.88622">
        <ele>1615.064</ele>
        <time>2019-04-07T23:23:22Z</time>
      </trkpt>
      <trkpt lat="42.28295" lon="1.88619">
        <ele>1615.135</ele>
        <time>2019-04-07T23:23:24Z</time>
      </trkpt>
      <trkpt lat="42.28294" lon="1.88618">
        <ele>1615.485</ele>
        <time>2019-04-07T23:23:24Z</time>
      </trkpt>
      <trkpt lat="42.2829" lon="1.88616">
        <ele>1615.819</ele>
        <time>2019-04-07T23:23:26Z</time>
      </trkpt>
      <trkpt lat="42.28288" lon="1.88615">
        <ele>1616.198</ele>
        <time>2019-04-07T23:23:26Z</time>
      </trkpt>
      <trkpt lat="42.28288" lon="1.88614">
        <ele>1616.11</ele>
        <time>2019-04-07T23:23:27Z</time>
      </trkpt>
      <trkpt lat="42.28287" lon="1.88614">
        <ele>1616.287</ele>
        <time>2019-04-07T23:23:27Z</time>
      </trkpt>
      <trkpt lat="42.28286" lon="1.88613">
        <ele>1616.442</ele>
        <time>2019-04-07T23:23:27Z</time>
      </trkpt>
      <trkpt lat="42.28282" lon="1.88611">
        <ele>1617.026</ele>
        <time>2019-04-07T23:23:29Z</time>
      </trkpt>
      <trkpt lat="42.28281" lon="1.88611">
        <ele>1617.408</ele>
        <time>2019-04-07T23:23:30Z</time>
      </trkpt>
      <trkpt lat="42.28279" lon="1.88609">
        <ele>1617.921</ele>
        <time>2019-04-07T23:23:30Z</time>
      </trkpt>
      <trkpt lat="42.28278" lon="1.88608">
        <ele>1618.233</ele>
        <time>2019-04-07T23:23:31Z</time>
      </trkpt>
      <trkpt lat="42.28277" lon="1.88608">
        <ele>1618.378</ele>
        <time>2019-04-07T23:23:31Z</time>
      </trkpt>
      <trkpt lat="42.28276" lon="1.88608">
        <ele>1618.579</ele>
        <time>2019-04-07T23:23:32Z</time>
      </trkpt>
      <trkpt lat="42.28275" lon="1.88606">
        <ele>1619.079</ele>
        <time>2019-04-07T23:23:32Z</time>
      </trkpt>
      <trkpt lat="42.28275" lon="1.88604">
        <ele>1619.233</ele>
        <time>2019-04-07T23:23:33Z</time>
      </trkpt>
      <trkpt lat="42.28274" lon="1.88603">
        <ele>1619.252</ele>
        <time>2019-04-07T23:23:33Z</time>
      </trkpt>
      <trkpt lat="42.28274" lon="1.88602">
        <ele>1619.614</ele>
        <time>2019-04-07T23:23:34Z</time>
      </trkpt>
      <trkpt lat="42.28274" lon="1.886">
        <ele>1619.694</ele>
        <time>2019-04-07T23:23:34Z</time>
      </trkpt>
      <trkpt lat="42.28273" lon="1.88597">
        <ele>1619.857</ele>
        <time>2019-04-07T23:23:35Z</time>
      </trkpt>
      <trkpt lat="42.28272" lon="1.88596">
        <ele>1620.022</ele>
        <time>2019-04-07T23:23:36Z</time>
      </trkpt>
      <trkpt lat="42.2827" lon="1.88591">
        <ele>1620.408</ele>
        <time>2019-04-07T23:23:37Z</time>
      </trkpt>
      <trkpt lat="42.28269" lon="1.88588">
        <ele>1620.882</ele>
        <time>2019-04-07T23:23:38Z</time>
      </trkpt>
      <trkpt lat="42.28268" lon="1.88586">
        <ele>1621.554</ele>
        <time>2019-04-07T23:23:39Z</time>
      </trkpt>
      <trkpt lat="42.28266" lon="1.88584">
        <ele>1621.939</ele>
        <time>2019-04-07T23:23:40Z</time>
      </trkpt>
      <trkpt lat="42.28262" lon="1.88578">
        <ele>1622.77</ele>
        <time>2019-04-07T23:23:42Z</time>
      </trkpt>
      <trkpt lat="42.28262" lon="1.88577">
        <ele>1623.05</ele>
        <time>2019-04-07T23:23:43Z</time>
      </trkpt>
      <trkpt lat="42.28261" lon="1.88576">
        <ele>1623.134</ele>
        <time>2019-04-07T23:23:43Z</time>
      </trkpt>
      <trkpt lat="42.28261" lon="1.88573">
        <ele>1623.933</ele>
        <time>2019-04-07T23:23:44Z</time>
      </trkpt>
      <trkpt lat="42.28261" lon="1.88566">
        <ele>1624.585</ele>
        <time>2019-04-07T23:23:46Z</time>
      </trkpt>
      <trkpt lat="42.28261" lon="1.88565">
        <ele>1624.556</ele>
        <time>2019-04-07T23:23:46Z</time>
      </trkpt>
      <trkpt lat="42.28262" lon="1.88562">
        <ele>1624.659</ele>
        <time>2019-04-07T23:23:47Z</time>
      </trkpt>
      <trkpt lat="42.28269" lon="1.88552">
        <ele>1624.814</ele>
        <time>2019-04-07T23:23:51Z</time>
      </trkpt>
      <trkpt lat="42.2827" lon="1.8855">
        <ele>1625.008</ele>
        <time>2019-04-07T23:23:52Z</time>
      </trkpt>
      <trkpt lat="42.28269" lon="1.88552">
        <ele>1625.328</ele>
        <time>2019-04-07T23:23:53Z</time>
      </trkpt>
      <trkpt lat="42.28268" lon="1.88553">
        <ele>1625.36</ele>
        <time>2019-04-07T23:23:53Z</time>
      </trkpt>
      <trkpt lat="42.28269" lon="1.88555">
        <ele>1625.065</ele>
        <time>2019-04-07T23:23:54Z</time>
      </trkpt>
      <trkpt lat="42.28265" lon="1.88558">
        <ele>1624.926</ele>
        <time>2019-04-07T23:23:55Z</time>
      </trkpt>
      <trkpt lat="42.28261" lon="1.88557">
        <ele>1624.966</ele>
        <time>2019-04-07T23:23:57Z</time>
      </trkpt>
      <trkpt lat="42.28256" lon="1.88555">
        <ele>1624.62</ele>
        <time>2019-04-07T23:23:59Z</time>
      </trkpt>
      <trkpt lat="42.28253" lon="1.88551">
        <ele>1624.659</ele>
        <time>2019-04-07T23:24:01Z</time>
      </trkpt>
      <trkpt lat="42.28252" lon="1.88549">
        <ele>1624.591</ele>
        <time>2019-04-07T23:24:01Z</time>
      </trkpt>
      <trkpt lat="42.28252" lon="1.88549">
        <ele>1624.481</ele>
        <time>2019-04-07T23:24:02Z</time>
      </trkpt>
      <trkpt lat="42.28251" lon="1.88549">
        <ele>1624.161</ele>
        <time>2019-04-07T23:24:02Z</time>
      </trkpt>
      <trkpt lat="42.28251" lon="1.88547">
        <ele>1624.417</ele>
        <time>2019-04-07T23:24:02Z</time>
      </trkpt>
      <trkpt lat="42.2825" lon="1.88542">
        <ele>1624.408</ele>
        <time>2019-04-07T23:24:04Z</time>
      </trkpt>
      <trkpt lat="42.2825" lon="1.8854">
        <ele>1624.241</ele>
        <time>2019-04-07T23:24:04Z</time>
      </trkpt>
      <trkpt lat="42.2825" lon="1.88536">
        <ele>1623.633</ele>
        <time>2019-04-07T23:24:06Z</time>
      </trkpt>
      <trkpt lat="42.2825" lon="1.88529">
        <ele>1622.998</ele>
        <time>2019-04-07T23:24:08Z</time>
      </trkpt>
      <trkpt lat="42.2825" lon="1.88516">
        <ele>1622.679</ele>
        <time>2019-04-07T23:24:12Z</time>
      </trkpt>
      <trkpt lat="42.28249" lon="1.88513">
        <ele>1622.529</ele>
        <time>2019-04-07T23:24:13Z</time>
      </trkpt>
      <trkpt lat="42.28247" lon="1.88511">
        <ele>1623.083</ele>
        <time>2019-04-07T23:24:13Z</time>
      </trkpt>
      <trkpt lat="42.28245" lon="1.88509">
        <ele>1623.292</ele>
        <time>2019-04-07T23:24:14Z</time>
      </trkpt>
      <trkpt lat="42.28243" lon="1.88507">
        <ele>1623.334</ele>
        <time>2019-04-07T23:24:15Z</time>
      </trkpt>
      <trkpt lat="42.2824" lon="1.88505">
        <ele>1623.669</ele>
        <time>2019-04-07T23:24:17Z</time>
      </trkpt>
      <trkpt lat="42.2824" lon="1.88505">
        <ele>1623.804</ele>
        <time>2019-04-07T23:24:17Z</time>
      </trkpt>
      <trkpt lat="42.2824" lon="1.88504">
        <ele>1624.524</ele>
        <time>2019-04-07T23:24:17Z</time>
      </trkpt>
      <trkpt lat="42.2824" lon="1.88503">
        <ele>1624.508</ele>
        <time>2019-04-07T23:24:17Z</time>
      </trkpt>
      <trkpt lat="42.28239" lon="1.88495">
        <ele>1625.339</ele>
        <time>2019-04-07T23:24:20Z</time>
      </trkpt>
      <trkpt lat="42.28239" lon="1.8849">
        <ele>1625.851</ele>
        <time>2019-04-07T23:24:21Z</time>
      </trkpt>
      <trkpt lat="42.28239" lon="1.88488">
        <ele>1625.946</ele>
        <time>2019-04-07T23:24:22Z</time>
      </trkpt>
      <trkpt lat="42.28239" lon="1.88487">
        <ele>1625.677</ele>
        <time>2019-04-07T23:24:22Z</time>
      </trkpt>
      <trkpt lat="42.28239" lon="1.88485">
        <ele>1625.647</ele>
        <time>2019-04-07T23:24:23Z</time>
      </trkpt>
      <trkpt lat="42.28239" lon="1.88483">
        <ele>1626.131</ele>
        <time>2019-04-07T23:24:23Z</time>
      </trkpt>
      <trkpt lat="42.28239" lon="1.88482">
        <ele>1626.53</ele>
        <time>2019-04-07T23:24:24Z</time>
      </trkpt>
      <trkpt lat="42.28238" lon="1.88479">
        <ele>1626.962</ele>
        <time>2019-04-07T23:24:25Z</time>
      </trkpt>
      <trkpt lat="42.28237" lon="1.88476">
        <ele>1627.049</ele>
        <time>2019-04-07T23:24:26Z</time>
      </trkpt>
      <trkpt lat="42.28235" lon="1.88471">
        <ele>1627.402</ele>
        <time>2019-04-07T23:24:27Z</time>
      </trkpt>
      <trkpt lat="42.28233" lon="1.88468">
        <ele>1627.522</ele>
        <time>2019-04-07T23:24:28Z</time>
      </trkpt>
      <trkpt lat="42.28233" lon="1.88466">
        <ele>1627.808</ele>
        <time>2019-04-07T23:24:29Z</time>
      </trkpt>
      <trkpt lat="42.28232" lon="1.88464">
        <ele>1628.447</ele>
        <time>2019-04-07T23:24:30Z</time>
      </trkpt>
      <trkpt lat="42.2823" lon="1.88461">
        <ele>1629.229</ele>
        <time>2019-04-07T23:24:31Z</time>
      </trkpt>
      <trkpt lat="42.28227" lon="1.88459">
        <ele>1630.134</ele>
        <time>2019-04-07T23:24:32Z</time>
      </trkpt>
      <trkpt lat="42.28225" lon="1.88454">
        <ele>1631.225</ele>
        <time>2019-04-07T23:24:34Z</time>
      </trkpt>
      <trkpt lat="42.28225" lon="1.88453">
        <ele>1631.135</ele>
        <time>2019-04-07T23:24:34Z</time>
      </trkpt>
      <trkpt lat="42.28224" lon="1.88452">
        <ele>1631.269</ele>
        <time>2019-04-07T23:24:35Z</time>
      </trkpt>
      <trkpt lat="42.2822" lon="1.88449">
        <ele>1631.388</ele>
        <time>2019-04-07T23:24:37Z</time>
      </trkpt>
      <trkpt lat="42.28218" lon="1.88447">
        <ele>1631.48</ele>
        <time>2019-04-07T23:24:37Z</time>
      </trkpt>
      <trkpt lat="42.28214" lon="1.88443">
        <ele>1632.155</ele>
        <time>2019-04-07T23:24:40Z</time>
      </trkpt>
      <trkpt lat="42.28211" lon="1.8844">
        <ele>1632.107</ele>
        <time>2019-04-07T23:24:41Z</time>
      </trkpt>
      <trkpt lat="42.28211" lon="1.8844">
        <ele>1632.017</ele>
        <time>2019-04-07T23:24:41Z</time>
      </trkpt>
      <trkpt lat="42.2821" lon="1.88439">
        <ele>1631.808</ele>
        <time>2019-04-07T23:24:42Z</time>
      </trkpt>
      <trkpt lat="42.28209" lon="1.88438">
        <ele>1631.798</ele>
        <time>2019-04-07T23:24:42Z</time>
      </trkpt>
      <trkpt lat="42.28207" lon="1.88436">
        <ele>1631.62</ele>
        <time>2019-04-07T23:24:43Z</time>
      </trkpt>
      <trkpt lat="42.28206" lon="1.88433">
        <ele>1631.795</ele>
        <time>2019-04-07T23:24:44Z</time>
      </trkpt>
      <trkpt lat="42.28206" lon="1.8843">
        <ele>1631.626</ele>
        <time>2019-04-07T23:24:45Z</time>
      </trkpt>
      <trkpt lat="42.28205" lon="1.88427">
        <ele>1632.176</ele>
        <time>2019-04-07T23:24:46Z</time>
      </trkpt>
      <trkpt lat="42.28205" lon="1.88425">
        <ele>1632.56</ele>
        <time>2019-04-07T23:24:46Z</time>
      </trkpt>
      <trkpt lat="42.28203" lon="1.88419">
        <ele>1632.559</ele>
        <time>2019-04-07T23:24:48Z</time>
      </trkpt>
      <trkpt lat="42.28202" lon="1.88417">
        <ele>1632.231</ele>
        <time>2019-04-07T23:24:49Z</time>
      </trkpt>
      <trkpt lat="42.28199" lon="1.88416">
        <ele>1631.549</ele>
        <time>2019-04-07T23:24:50Z</time>
      </trkpt>
      <trkpt lat="42.28195" lon="1.88413">
        <ele>1631.102</ele>
        <time>2019-04-07T23:24:52Z</time>
      </trkpt>
      <trkpt lat="42.28193" lon="1.88411">
        <ele>1630.522</ele>
        <time>2019-04-07T23:24:53Z</time>
      </trkpt>
      <trkpt lat="42.2819" lon="1.88409">
        <ele>1630.408</ele>
        <time>2019-04-07T23:24:54Z</time>
      </trkpt>
      <trkpt lat="42.28187" lon="1.88406">
        <ele>1630.767</ele>
        <time>2019-04-07T23:24:56Z</time>
      </trkpt>
      <trkpt lat="42.28187" lon="1.88405">
        <ele>1631.129</ele>
        <time>2019-04-07T23:24:56Z</time>
      </trkpt>
      <trkpt lat="42.28185" lon="1.88403">
        <ele>1631.564</ele>
        <time>2019-04-07T23:24:57Z</time>
      </trkpt>
      <trkpt lat="42.28184" lon="1.88402">
        <ele>1631.565</ele>
        <time>2019-04-07T23:24:57Z</time>
      </trkpt>
      <trkpt lat="42.28184" lon="1.88402">
        <ele>1631.625</ele>
        <time>2019-04-07T23:24:58Z</time>
      </trkpt>
      <trkpt lat="42.28183" lon="1.88401">
        <ele>1631.539</ele>
        <time>2019-04-07T23:24:58Z</time>
      </trkpt>
      <trkpt lat="42.28182" lon="1.884">
        <ele>1631.728</ele>
        <time>2019-04-07T23:24:59Z</time>
      </trkpt>
      <trkpt lat="42.28181" lon="1.88397">
        <ele>1632.21</ele>
        <time>2019-04-07T23:24:59Z</time>
      </trkpt>
      <trkpt lat="42.28181" lon="1.88395">
        <ele>1632.581</ele>
        <time>2019-04-07T23:25:00Z</time>
      </trkpt>
      <trkpt lat="42.2818" lon="1.88387">
        <ele>1633.061</ele>
        <time>2019-04-07T23:25:02Z</time>
      </trkpt>
      <trkpt lat="42.2818" lon="1.88385">
        <ele>1633.017</ele>
        <time>2019-04-07T23:25:03Z</time>
      </trkpt>
      <trkpt lat="42.2818" lon="1.88383">
        <ele>1633.108</ele>
        <time>2019-04-07T23:25:04Z</time>
      </trkpt>
      <trkpt lat="42.28179" lon="1.8838">
        <ele>1633.231</ele>
        <time>2019-04-07T23:25:05Z</time>
      </trkpt>
      <trkpt lat="42.28179" lon="1.88378">
        <ele>1633.683</ele>
        <time>2019-04-07T23:25:05Z</time>
      </trkpt>
      <trkpt lat="42.28177" lon="1.88377">
        <ele>1633.758</ele>
        <time>2019-04-07T23:25:06Z</time>
      </trkpt>
      <trkpt lat="42.28175" lon="1.88375">
        <ele>1634.069</ele>
        <time>2019-04-07T23:25:07Z</time>
      </trkpt>
      <trkpt lat="42.28175" lon="1.88374">
        <ele>1634.189</ele>
        <time>2019-04-07T23:25:07Z</time>
      </trkpt>
      <trkpt lat="42.28174" lon="1.88371">
        <ele>1634.553</ele>
        <time>2019-04-07T23:25:08Z</time>
      </trkpt>
      <trkpt lat="42.28173" lon="1.8837">
        <ele>1634.552</ele>
        <time>2019-04-07T23:25:08Z</time>
      </trkpt>
      <trkpt lat="42.28172" lon="1.88369">
        <ele>1634.984</ele>
        <time>2019-04-07T23:25:09Z</time>
      </trkpt>
      <trkpt lat="42.28172" lon="1.88369">
        <ele>1635.243</ele>
        <time>2019-04-07T23:25:09Z</time>
      </trkpt>
      <trkpt lat="42.28172" lon="1.88369">
        <ele>1635.264</ele>
        <time>2019-04-07T23:25:09Z</time>
      </trkpt>
      <trkpt lat="42.28171" lon="1.88367">
        <ele>1635.11</ele>
        <time>2019-04-07T23:25:10Z</time>
      </trkpt>
      <trkpt lat="42.2817" lon="1.88366">
        <ele>1635.408</ele>
        <time>2019-04-07T23:25:10Z</time>
      </trkpt>
      <trkpt lat="42.28169" lon="1.88365">
        <ele>1636.087</ele>
        <time>2019-04-07T23:25:11Z</time>
      </trkpt>
      <trkpt lat="42.28169" lon="1.88364">
        <ele>1636.089</ele>
        <time>2019-04-07T23:25:11Z</time>
      </trkpt>
      <trkpt lat="42.28167" lon="1.88363">
        <ele>1636.274</ele>
        <time>2019-04-07T23:25:12Z</time>
      </trkpt>
      <trkpt lat="42.28166" lon="1.88363">
        <ele>1636.655</ele>
        <time>2019-04-07T23:25:12Z</time>
      </trkpt>
      <trkpt lat="42.28165" lon="1.88362">
        <ele>1637.035</ele>
        <time>2019-04-07T23:25:12Z</time>
      </trkpt>
      <trkpt lat="42.28165" lon="1.88362">
        <ele>1637.119</ele>
        <time>2019-04-07T23:25:13Z</time>
      </trkpt>
      <trkpt lat="42.28167" lon="1.88354">
        <ele>1637.918</ele>
        <time>2019-04-07T23:25:15Z</time>
      </trkpt>
      <trkpt lat="42.28167" lon="1.88351">
        <ele>1638.14</ele>
        <time>2019-04-07T23:25:16Z</time>
      </trkpt>
      <trkpt lat="42.28166" lon="1.88348">
        <ele>1638.519</ele>
        <time>2019-04-07T23:25:17Z</time>
      </trkpt>
      <trkpt lat="42.28165" lon="1.88346">
        <ele>1638.909</ele>
        <time>2019-04-07T23:25:18Z</time>
      </trkpt>
      <trkpt lat="42.28164" lon="1.88345">
        <ele>1639.019</ele>
        <time>2019-04-07T23:25:18Z</time>
      </trkpt>
      <trkpt lat="42.28163" lon="1.88344">
        <ele>1639.108</ele>
        <time>2019-04-07T23:25:18Z</time>
      </trkpt>
      <trkpt lat="42.28162" lon="1.88342">
        <ele>1639.644</ele>
        <time>2019-04-07T23:25:19Z</time>
      </trkpt>
      <trkpt lat="42.2816" lon="1.88337">
        <ele>1640.286</ele>
        <time>2019-04-07T23:25:21Z</time>
      </trkpt>
      <trkpt lat="42.2816" lon="1.88336">
        <ele>1640.241</ele>
        <time>2019-04-07T23:25:21Z</time>
      </trkpt>
      <trkpt lat="42.28159" lon="1.88331">
        <ele>1640.752</ele>
        <time>2019-04-07T23:25:23Z</time>
      </trkpt>
      <trkpt lat="42.28158" lon="1.88331">
        <ele>1640.542</ele>
        <time>2019-04-07T23:25:23Z</time>
      </trkpt>
      <trkpt lat="42.28157" lon="1.88328">
        <ele>1641.126</ele>
        <time>2019-04-07T23:25:24Z</time>
      </trkpt>
      <trkpt lat="42.28156" lon="1.88326">
        <ele>1641.195</ele>
        <time>2019-04-07T23:25:25Z</time>
      </trkpt>
      <trkpt lat="42.28155" lon="1.88322">
        <ele>1642.027</ele>
        <time>2019-04-07T23:25:26Z</time>
      </trkpt>
      <trkpt lat="42.28154" lon="1.88321">
        <ele>1641.994</ele>
        <time>2019-04-07T23:25:26Z</time>
      </trkpt>
      <trkpt lat="42.28153" lon="1.88317">
        <ele>1642.357</ele>
        <time>2019-04-07T23:25:28Z</time>
      </trkpt>
      <trkpt lat="42.28152" lon="1.88314">
        <ele>1642.422</ele>
        <time>2019-04-07T23:25:29Z</time>
      </trkpt>
      <trkpt lat="42.28151" lon="1.88309">
        <ele>1642.508</ele>
        <time>2019-04-07T23:25:30Z</time>
      </trkpt>
      <trkpt lat="42.28147" lon="1.88305">
        <ele>1643.112</ele>
        <time>2019-04-07T23:25:32Z</time>
      </trkpt>
      <trkpt lat="42.28147" lon="1.88305">
        <ele>1643.154</ele>
        <time>2019-04-07T23:25:32Z</time>
      </trkpt>
      <trkpt lat="42.28146" lon="1.88304">
        <ele>1643.199</ele>
        <time>2019-04-07T23:25:33Z</time>
      </trkpt>
      <trkpt lat="42.28146" lon="1.88296">
        <ele>1642.73</ele>
        <time>2019-04-07T23:25:35Z</time>
      </trkpt>
      <trkpt lat="42.28146" lon="1.88296">
        <ele>1642.37</ele>
        <time>2019-04-07T23:25:35Z</time>
      </trkpt>
      <trkpt lat="42.28146" lon="1.88298">
        <ele>1642.284</ele>
        <time>2019-04-07T23:25:36Z</time>
      </trkpt>
      <trkpt lat="42.28147" lon="1.88299">
        <ele>1642.233</ele>
        <time>2019-04-07T23:25:36Z</time>
      </trkpt>
      <trkpt lat="42.28147" lon="1.88299">
        <ele>1642.285</ele>
        <time>2019-04-07T23:25:36Z</time>
      </trkpt>
      <trkpt lat="42.28146" lon="1.883">
        <ele>1642.473</ele>
        <time>2019-04-07T23:25:37Z</time>
      </trkpt>
      <trkpt lat="42.28146" lon="1.883">
        <ele>1642.585</ele>
        <time>2019-04-07T23:25:37Z</time>
      </trkpt>
      <trkpt lat="42.28151" lon="1.88301">
        <ele>1642.113</ele>
        <time>2019-04-07T23:25:39Z</time>
      </trkpt>
      <trkpt lat="42.28149" lon="1.88302">
        <ele>1642.008</ele>
        <time>2019-04-07T23:25:39Z</time>
      </trkpt>
      <trkpt lat="42.28148" lon="1.883">
        <ele>1642.17</ele>
        <time>2019-04-07T23:25:40Z</time>
      </trkpt>
      <trkpt lat="42.28146" lon="1.88299">
        <ele>1642.232</ele>
        <time>2019-04-07T23:25:41Z</time>
      </trkpt>
      <trkpt lat="42.28146" lon="1.88299">
        <ele>1642.227</ele>
        <time>2019-04-07T23:25:41Z</time>
      </trkpt>
      <trkpt lat="42.28139" lon="1.8829">
        <ele>1641.828</ele>
        <time>2019-04-07T23:25:45Z</time>
      </trkpt>
      <trkpt lat="42.28139" lon="1.88291">
        <ele>1641.668</ele>
        <time>2019-04-07T23:25:45Z</time>
      </trkpt>
      <trkpt lat="42.28141" lon="1.88286">
        <ele>1641.682</ele>
        <time>2019-04-07T23:25:47Z</time>
      </trkpt>
      <trkpt lat="42.28142" lon="1.88284">
        <ele>1641.591</ele>
        <time>2019-04-07T23:25:48Z</time>
      </trkpt>
      <trkpt lat="42.28142" lon="1.88281">
        <ele>1641.613</ele>
        <time>2019-04-07T23:25:49Z</time>
      </trkpt>
      <trkpt lat="42.28142" lon="1.88278">
        <ele>1641.268</ele>
        <time>2019-04-07T23:25:50Z</time>
      </trkpt>
      <trkpt lat="42.28142" lon="1.88272">
        <ele>1640.942</ele>
        <time>2019-04-07T23:25:51Z</time>
      </trkpt>
      <trkpt lat="42.28141" lon="1.88267">
        <ele>1640.426</ele>
        <time>2019-04-07T23:25:53Z</time>
      </trkpt>
      <trkpt lat="42.28141" lon="1.88266">
        <ele>1640.408</ele>
        <time>2019-04-07T23:25:53Z</time>
      </trkpt>
      <trkpt lat="42.2814" lon="1.88264">
        <ele>1640.589</ele>
        <time>2019-04-07T23:25:54Z</time>
      </trkpt>
      <trkpt lat="42.28139" lon="1.88256">
        <ele>1640.831</ele>
        <time>2019-04-07T23:25:56Z</time>
      </trkpt>
      <trkpt lat="42.28139" lon="1.88255">
        <ele>1641.096</ele>
        <time>2019-04-07T23:25:57Z</time>
      </trkpt>
      <trkpt lat="42.28137" lon="1.88255">
        <ele>1640.927</ele>
        <time>2019-04-07T23:25:57Z</time>
      </trkpt>
      <trkpt lat="42.28137" lon="1.88255">
        <ele>1641.277</ele>
        <time>2019-04-07T23:25:57Z</time>
      </trkpt>
      <trkpt lat="42.28136" lon="1.88255">
        <ele>1641.151</ele>
        <time>2019-04-07T23:25:58Z</time>
      </trkpt>
      <trkpt lat="42.28137" lon="1.88256">
        <ele>1641.13</ele>
        <time>2019-04-07T23:25:58Z</time>
      </trkpt>
      <trkpt lat="42.28138" lon="1.88256">
        <ele>1641.542</ele>
        <time>2019-04-07T23:25:58Z</time>
      </trkpt>
      <trkpt lat="42.28138" lon="1.88253">
        <ele>1641.542</ele>
        <time>2019-04-07T23:26:00Z</time>
      </trkpt>
      <trkpt lat="42.28137" lon="1.88251">
        <ele>1641.422</ele>
        <time>2019-04-07T23:26:00Z</time>
      </trkpt>
      <trkpt lat="42.28137" lon="1.8825">
        <ele>1641.414</ele>
        <time>2019-04-07T23:26:00Z</time>
      </trkpt>
      <trkpt lat="42.28132" lon="1.88243">
        <ele>1642.008</ele>
        <time>2019-04-07T23:26:03Z</time>
      </trkpt>
      <trkpt lat="42.28132" lon="1.88241">
        <ele>1642.587</ele>
        <time>2019-04-07T23:26:04Z</time>
      </trkpt>
      <trkpt lat="42.28132" lon="1.88238">
        <ele>1642.799</ele>
        <time>2019-04-07T23:26:05Z</time>
      </trkpt>
      <trkpt lat="42.28132" lon="1.88237">
        <ele>1643.014</ele>
        <time>2019-04-07T23:26:05Z</time>
      </trkpt>
      <trkpt lat="42.28132" lon="1.88235">
        <ele>1643.145</ele>
        <time>2019-04-07T23:26:06Z</time>
      </trkpt>
      <trkpt lat="42.28131" lon="1.8823">
        <ele>1643.625</ele>
        <time>2019-04-07T23:26:07Z</time>
      </trkpt>
      <trkpt lat="42.28131" lon="1.88226">
        <ele>1644.039</ele>
        <time>2019-04-07T23:26:08Z</time>
      </trkpt>
      <trkpt lat="42.28131" lon="1.88221">
        <ele>1644.248</ele>
        <time>2019-04-07T23:26:10Z</time>
      </trkpt>
      <trkpt lat="42.2813" lon="1.88218">
        <ele>1644.55</ele>
        <time>2019-04-07T23:26:11Z</time>
      </trkpt>
      <trkpt lat="42.28129" lon="1.88217">
        <ele>1644.791</ele>
        <time>2019-04-07T23:26:11Z</time>
      </trkpt>
      <trkpt lat="42.28128" lon="1.88215">
        <ele>1644.881</ele>
        <time>2019-04-07T23:26:12Z</time>
      </trkpt>
      <trkpt lat="42.28127" lon="1.88212">
        <ele>1645.019</ele>
        <time>2019-04-07T23:26:13Z</time>
      </trkpt>
      <trkpt lat="42.28127" lon="1.88209">
        <ele>1645.108</ele>
        <time>2019-04-07T23:26:14Z</time>
      </trkpt>
      <trkpt lat="42.28127" lon="1.88207">
        <ele>1645.232</ele>
        <time>2019-04-07T23:26:14Z</time>
      </trkpt>
      <trkpt lat="42.28127" lon="1.88205">
        <ele>1645.884</ele>
        <time>2019-04-07T23:26:15Z</time>
      </trkpt>
      <trkpt lat="42.28127" lon="1.88203">
        <ele>1646.219</ele>
        <time>2019-04-07T23:26:15Z</time>
      </trkpt>
      <trkpt lat="42.28127" lon="1.88201">
        <ele>1646.52</ele>
        <time>2019-04-07T23:26:16Z</time>
      </trkpt>
      <trkpt lat="42.28124" lon="1.88195">
        <ele>1647.07</ele>
        <time>2019-04-07T23:26:18Z</time>
      </trkpt>
      <trkpt lat="42.28121" lon="1.88191">
        <ele>1647.524</ele>
        <time>2019-04-07T23:26:20Z</time>
      </trkpt>
      <trkpt lat="42.28118" lon="1.8819">
        <ele>1647.773</ele>
        <time>2019-04-07T23:26:21Z</time>
      </trkpt>
      <trkpt lat="42.28118" lon="1.88189">
        <ele>1647.965</ele>
        <time>2019-04-07T23:26:21Z</time>
      </trkpt>
      <trkpt lat="42.28117" lon="1.88186">
        <ele>1648.281</ele>
        <time>2019-04-07T23:26:22Z</time>
      </trkpt>
      <trkpt lat="42.28117" lon="1.88184">
        <ele>1648.161</ele>
        <time>2019-04-07T23:26:23Z</time>
      </trkpt>
      <trkpt lat="42.28117" lon="1.88176">
        <ele>1649.017</ele>
        <time>2019-04-07T23:26:25Z</time>
      </trkpt>
      <trkpt lat="42.28117" lon="1.88174">
        <ele>1649.108</ele>
        <time>2019-04-07T23:26:26Z</time>
      </trkpt>
      <trkpt lat="42.28118" lon="1.88172">
        <ele>1649.541</ele>
        <time>2019-04-07T23:26:26Z</time>
      </trkpt>
      <trkpt lat="42.28117" lon="1.88166">
        <ele>1649.513</ele>
        <time>2019-04-07T23:26:28Z</time>
      </trkpt>
      <trkpt lat="42.28115" lon="1.88161">
        <ele>1649.628</ele>
        <time>2019-04-07T23:26:30Z</time>
      </trkpt>
      <trkpt lat="42.28113" lon="1.88158">
        <ele>1649.669</ele>
        <time>2019-04-07T23:26:31Z</time>
      </trkpt>
      <trkpt lat="42.2811" lon="1.88153">
        <ele>1650.189</ele>
        <time>2019-04-07T23:26:33Z</time>
      </trkpt>
      <trkpt lat="42.28111" lon="1.88152">
        <ele>1650.273</ele>
        <time>2019-04-07T23:26:33Z</time>
      </trkpt>
      <trkpt lat="42.28111" lon="1.88151">
        <ele>1650.292</ele>
        <time>2019-04-07T23:26:34Z</time>
      </trkpt>
      <trkpt lat="42.28111" lon="1.88149">
        <ele>1650.684</ele>
        <time>2019-04-07T23:26:34Z</time>
      </trkpt>
      <trkpt lat="42.28111" lon="1.88145">
        <ele>1650.836</ele>
        <time>2019-04-07T23:26:35Z</time>
      </trkpt>
      <trkpt lat="42.28111" lon="1.88141">
        <ele>1651.217</ele>
        <time>2019-04-07T23:26:37Z</time>
      </trkpt>
      <trkpt lat="42.28111" lon="1.88139">
        <ele>1651.118</ele>
        <time>2019-04-07T23:26:37Z</time>
      </trkpt>
      <trkpt lat="42.28111" lon="1.88136">
        <ele>1651.408</ele>
        <time>2019-04-07T23:26:38Z</time>
      </trkpt>
      <trkpt lat="42.28111" lon="1.88137">
        <ele>1651.736</ele>
        <time>2019-04-07T23:26:38Z</time>
      </trkpt>
      <trkpt lat="42.28111" lon="1.88137">
        <ele>1651.638</ele>
        <time>2019-04-07T23:26:38Z</time>
      </trkpt>
      <trkpt lat="42.28109" lon="1.88136">
        <ele>1652.263</ele>
        <time>2019-04-07T23:26:39Z</time>
      </trkpt>
      <trkpt lat="42.28109" lon="1.88136">
        <ele>1652.384</ele>
        <time>2019-04-07T23:26:39Z</time>
      </trkpt>
      <trkpt lat="42.28108" lon="1.88136">
        <ele>1652.474</ele>
        <time>2019-04-07T23:26:39Z</time>
      </trkpt>
      <trkpt lat="42.28108" lon="1.88136">
        <ele>1652.738</ele>
        <time>2019-04-07T23:26:39Z</time>
      </trkpt>
      <trkpt lat="42.28105" lon="1.88131">
        <ele>1653.667</ele>
        <time>2019-04-07T23:26:41Z</time>
      </trkpt>
      <trkpt lat="42.28104" lon="1.88124">
        <ele>1654.279</ele>
        <time>2019-04-07T23:26:43Z</time>
      </trkpt>
      <trkpt lat="42.28103" lon="1.88123">
        <ele>1654.648</ele>
        <time>2019-04-07T23:26:44Z</time>
      </trkpt>
      <trkpt lat="42.28103" lon="1.88122">
        <ele>1655.061</ele>
        <time>2019-04-07T23:26:44Z</time>
      </trkpt>
      <trkpt lat="42.28102" lon="1.8812">
        <ele>1655.017</ele>
        <time>2019-04-07T23:26:45Z</time>
      </trkpt>
      <trkpt lat="42.28102" lon="1.88118">
        <ele>1655.508</ele>
        <time>2019-04-07T23:26:45Z</time>
      </trkpt>
      <trkpt lat="42.28103" lon="1.88109">
        <ele>1656.657</ele>
        <time>2019-04-07T23:26:48Z</time>
      </trkpt>
      <trkpt lat="42.28103" lon="1.88107">
        <ele>1657.069</ele>
        <time>2019-04-07T23:26:49Z</time>
      </trkpt>
      <trkpt lat="42.28102" lon="1.88102">
        <ele>1657.824</ele>
        <time>2019-04-07T23:26:50Z</time>
      </trkpt>
      <trkpt lat="42.28102" lon="1.88101">
        <ele>1658.195</ele>
        <time>2019-04-07T23:26:51Z</time>
      </trkpt>
      <trkpt lat="42.28101" lon="1.881">
        <ele>1658.595</ele>
        <time>2019-04-07T23:26:51Z</time>
      </trkpt>
      <trkpt lat="42.281" lon="1.881">
        <ele>1658.649</ele>
        <time>2019-04-07T23:26:51Z</time>
      </trkpt>
      <trkpt lat="42.28099" lon="1.881">
        <ele>1658.868</ele>
        <time>2019-04-07T23:26:52Z</time>
      </trkpt>
      <trkpt lat="42.28099" lon="1.88099">
        <ele>1659.38</ele>
        <time>2019-04-07T23:26:52Z</time>
      </trkpt>
      <trkpt lat="42.28099" lon="1.88097">
        <ele>1659.633</ele>
        <time>2019-04-07T23:26:53Z</time>
      </trkpt>
      <trkpt lat="42.281" lon="1.88091">
        <ele>1660.223</ele>
        <time>2019-04-07T23:26:54Z</time>
      </trkpt>
      <trkpt lat="42.281" lon="1.88088">
        <ele>1660.815</ele>
        <time>2019-04-07T23:26:55Z</time>
      </trkpt>
      <trkpt lat="42.281" lon="1.88087">
        <ele>1661.008</ele>
        <time>2019-04-07T23:26:56Z</time>
      </trkpt>
      <trkpt lat="42.28101" lon="1.88082">
        <ele>1661.536</ele>
        <time>2019-04-07T23:26:57Z</time>
      </trkpt>
      <trkpt lat="42.28102" lon="1.88076">
        <ele>1661.618</ele>
        <time>2019-04-07T23:26:59Z</time>
      </trkpt>
      <trkpt lat="42.28103" lon="1.88067">
        <ele>1661.183</ele>
        <time>2019-04-07T23:27:02Z</time>
      </trkpt>
      <trkpt lat="42.28103" lon="1.88066">
        <ele>1661.264</ele>
        <time>2019-04-07T23:27:02Z</time>
      </trkpt>
      <trkpt lat="42.28102" lon="1.88062">
        <ele>1660.994</ele>
        <time>2019-04-07T23:27:03Z</time>
      </trkpt>
      <trkpt lat="42.28103" lon="1.88057">
        <ele>1660.948</ele>
        <time>2019-04-07T23:27:05Z</time>
      </trkpt>
      <trkpt lat="42.28102" lon="1.88053">
        <ele>1661.287</ele>
        <time>2019-04-07T23:27:06Z</time>
      </trkpt>
      <trkpt lat="42.281" lon="1.88048">
        <ele>1661.619</ele>
        <time>2019-04-07T23:27:08Z</time>
      </trkpt>
      <trkpt lat="42.28099" lon="1.88048">
        <ele>1661.683</ele>
        <time>2019-04-07T23:27:08Z</time>
      </trkpt>
      <trkpt lat="42.28098" lon="1.88046">
        <ele>1661.525</ele>
        <time>2019-04-07T23:27:09Z</time>
      </trkpt>
      <trkpt lat="42.28097" lon="1.8804">
        <ele>1661.117</ele>
        <time>2019-04-07T23:27:11Z</time>
      </trkpt>
      <trkpt lat="42.28096" lon="1.88037">
        <ele>1661.108</ele>
        <time>2019-04-07T23:27:12Z</time>
      </trkpt>
      <trkpt lat="42.28095" lon="1.88034">
        <ele>1661.251</ele>
        <time>2019-04-07T23:27:13Z</time>
      </trkpt>
      <trkpt lat="42.28091" lon="1.8803">
        <ele>1661.273</ele>
        <time>2019-04-07T23:27:15Z</time>
      </trkpt>
      <trkpt lat="42.28087" lon="1.88026">
        <ele>1662.298</ele>
        <time>2019-04-07T23:27:17Z</time>
      </trkpt>
      <trkpt lat="42.28085" lon="1.88026">
        <ele>1662.579</ele>
        <time>2019-04-07T23:27:17Z</time>
      </trkpt>
      <trkpt lat="42.28085" lon="1.88025">
        <ele>1662.789</ele>
        <time>2019-04-07T23:27:18Z</time>
      </trkpt>
      <trkpt lat="42.28084" lon="1.88024">
        <ele>1663.063</ele>
        <time>2019-04-07T23:27:18Z</time>
      </trkpt>
      <trkpt lat="42.28083" lon="1.88021">
        <ele>1663.642</ele>
        <time>2019-04-07T23:27:19Z</time>
      </trkpt>
      <trkpt lat="42.28082" lon="1.8802">
        <ele>1663.994</ele>
        <time>2019-04-07T23:27:19Z</time>
      </trkpt>
      <trkpt lat="42.28083" lon="1.88018">
        <ele>1663.638</ele>
        <time>2019-04-07T23:27:20Z</time>
      </trkpt>
      <trkpt lat="42.28079" lon="1.88028">
        <ele>1662.97</ele>
        <time>2019-04-07T23:27:23Z</time>
      </trkpt>
      <trkpt lat="42.28078" lon="1.8803">
        <ele>1662.417</ele>
        <time>2019-04-07T23:27:24Z</time>
      </trkpt>
      <trkpt lat="42.28078" lon="1.88033">
        <ele>1661.408</ele>
        <time>2019-04-07T23:27:25Z</time>
      </trkpt>
      <trkpt lat="42.28078" lon="1.88036">
        <ele>1660.856</ele>
        <time>2019-04-07T23:27:26Z</time>
      </trkpt>
      <trkpt lat="42.28077" lon="1.88037">
        <ele>1660.248</ele>
        <time>2019-04-07T23:27:26Z</time>
      </trkpt>
      <trkpt lat="42.28077" lon="1.88038">
        <ele>1659.113</ele>
        <time>2019-04-07T23:27:26Z</time>
      </trkpt>
      <trkpt lat="42.28077" lon="1.88038">
        <ele>1659.294</ele>
        <time>2019-04-07T23:27:26Z</time>
      </trkpt>
      <trkpt lat="42.28076" lon="1.88042">
        <ele>1657.834</ele>
        <time>2019-04-07T23:27:28Z</time>
      </trkpt>
      <trkpt lat="42.28074" lon="1.88047">
        <ele>1656.998</ele>
        <time>2019-04-07T23:27:29Z</time>
      </trkpt>
      <trkpt lat="42.2807" lon="1.8805">
        <ele>1655.577</ele>
        <time>2019-04-07T23:27:31Z</time>
      </trkpt>
      <trkpt lat="42.28069" lon="1.88051">
        <ele>1655.229</ele>
        <time>2019-04-07T23:27:32Z</time>
      </trkpt>
      <trkpt lat="42.28067" lon="1.88052">
        <ele>1654.213</ele>
        <time>2019-04-07T23:27:32Z</time>
      </trkpt>
      <trkpt lat="42.28066" lon="1.88054">
        <ele>1653.543</ele>
        <time>2019-04-07T23:27:33Z</time>
      </trkpt>
      <trkpt lat="42.28066" lon="1.88055">
        <ele>1653.107</ele>
        <time>2019-04-07T23:27:33Z</time>
      </trkpt>
      <trkpt lat="42.28068" lon="1.88057">
        <ele>1652.008</ele>
        <time>2019-04-07T23:27:34Z</time>
      </trkpt>
      <trkpt lat="42.28068" lon="1.88057">
        <ele>1652.214</ele>
        <time>2019-04-07T23:27:34Z</time>
      </trkpt>
      <trkpt lat="42.28067" lon="1.88058">
        <ele>1651.636</ele>
        <time>2019-04-07T23:27:35Z</time>
      </trkpt>
      <trkpt lat="42.28067" lon="1.88063">
        <ele>1651.251</ele>
        <time>2019-04-07T23:27:36Z</time>
      </trkpt>
      <trkpt lat="42.28067" lon="1.88065">
        <ele>1651.142</ele>
        <time>2019-04-07T23:27:37Z</time>
      </trkpt>
      <trkpt lat="42.28067" lon="1.88066">
        <ele>1650.582</ele>
        <time>2019-04-07T23:27:37Z</time>
      </trkpt>
      <trkpt lat="42.28066" lon="1.88069">
        <ele>1650.056</ele>
        <time>2019-04-07T23:27:38Z</time>
      </trkpt>
      <trkpt lat="42.28064" lon="1.88072">
        <ele>1649.085</ele>
        <time>2019-04-07T23:27:39Z</time>
      </trkpt>
      <trkpt lat="42.28064" lon="1.88073">
        <ele>1648.247</ele>
        <time>2019-04-07T23:27:39Z</time>
      </trkpt>
      <trkpt lat="42.28063" lon="1.88076">
        <ele>1647.282</ele>
        <time>2019-04-07T23:27:40Z</time>
      </trkpt>
      <trkpt lat="42.28061" lon="1.88081">
        <ele>1646.143</ele>
        <time>2019-04-07T23:27:42Z</time>
      </trkpt>
      <trkpt lat="42.28058" lon="1.88083">
        <ele>1644.517</ele>
        <time>2019-04-07T23:27:43Z</time>
      </trkpt>
      <trkpt lat="42.28057" lon="1.88086">
        <ele>1643.808</ele>
        <time>2019-04-07T23:27:44Z</time>
      </trkpt>
      <trkpt lat="42.28056" lon="1.88087">
        <ele>1643.571</ele>
        <time>2019-04-07T23:27:45Z</time>
      </trkpt>
      <trkpt lat="42.28052" lon="1.88094">
        <ele>1642.523</ele>
        <time>2019-04-07T23:27:47Z</time>
      </trkpt>
      <trkpt lat="42.2805" lon="1.88095">
        <ele>1642.278</ele>
        <time>2019-04-07T23:27:48Z</time>
      </trkpt>
      <trkpt lat="42.28048" lon="1.88096">
        <ele>1641.619</ele>
        <time>2019-04-07T23:27:49Z</time>
      </trkpt>
      <trkpt lat="42.28047" lon="1.88098">
        <ele>1641.189</ele>
        <time>2019-04-07T23:27:50Z</time>
      </trkpt>
      <trkpt lat="42.28045" lon="1.88099">
        <ele>1640.283</ele>
        <time>2019-04-07T23:27:51Z</time>
      </trkpt>
      <trkpt lat="42.28044" lon="1.881">
        <ele>1639.752</ele>
        <time>2019-04-07T23:27:51Z</time>
      </trkpt>
      <trkpt lat="42.28043" lon="1.88102">
        <ele>1639.084</ele>
        <time>2019-04-07T23:27:52Z</time>
      </trkpt>
      <trkpt lat="42.28043" lon="1.88103">
        <ele>1638.261</ele>
        <time>2019-04-07T23:27:52Z</time>
      </trkpt>
      <trkpt lat="42.28042" lon="1.88105">
        <ele>1637.621</ele>
        <time>2019-04-07T23:27:53Z</time>
      </trkpt>
      <trkpt lat="42.28042" lon="1.88105">
        <ele>1637.413</ele>
        <time>2019-04-07T23:27:53Z</time>
      </trkpt>
      <trkpt lat="42.28041" lon="1.88107">
        <ele>1637.008</ele>
        <time>2019-04-07T23:27:54Z</time>
      </trkpt>
      <trkpt lat="42.2804" lon="1.88108">
        <ele>1637.019</ele>
        <time>2019-04-07T23:27:54Z</time>
      </trkpt>
      <trkpt lat="42.28039" lon="1.88108">
        <ele>1637.181</ele>
        <time>2019-04-07T23:27:54Z</time>
      </trkpt>
      <trkpt lat="42.28035" lon="1.88113">
        <ele>1636.186</ele>
        <time>2019-04-07T23:27:56Z</time>
      </trkpt>
      <trkpt lat="42.28035" lon="1.88114">
        <ele>1636.237</ele>
        <time>2019-04-07T23:27:57Z</time>
      </trkpt>
      <trkpt lat="42.28031" lon="1.88121">
        <ele>1636.267</ele>
        <time>2019-04-07T23:27:59Z</time>
      </trkpt>
      <trkpt lat="42.28026" lon="1.88125">
        <ele>1636.331</ele>
        <time>2019-04-07T23:28:01Z</time>
      </trkpt>
      <trkpt lat="42.28025" lon="1.88126">
        <ele>1636.37</ele>
        <time>2019-04-07T23:28:02Z</time>
      </trkpt>
      <trkpt lat="42.28019" lon="1.88131">
        <ele>1635.652</ele>
        <time>2019-04-07T23:28:05Z</time>
      </trkpt>
      <trkpt lat="42.28018" lon="1.88131">
        <ele>1635.337</ele>
        <time>2019-04-07T23:28:05Z</time>
      </trkpt>
      <trkpt lat="42.28015" lon="1.88131">
        <ele>1634.249</ele>
        <time>2019-04-07T23:28:06Z</time>
      </trkpt>
      <trkpt lat="42.28014" lon="1.88131">
        <ele>1634.013</ele>
        <time>2019-04-07T23:28:07Z</time>
      </trkpt>
      <trkpt lat="42.28014" lon="1.88131">
        <ele>1633.508</ele>
        <time>2019-04-07T23:28:07Z</time>
      </trkpt>
      <trkpt lat="42.28013" lon="1.88132">
        <ele>1633.436</ele>
        <time>2019-04-07T23:28:07Z</time>
      </trkpt>
      <trkpt lat="42.28013" lon="1.88132">
        <ele>1633.168</ele>
        <time>2019-04-07T23:28:07Z</time>
      </trkpt>
      <trkpt lat="42.28013" lon="1.8813">
        <ele>1633.273</ele>
        <time>2019-04-07T23:28:08Z</time>
      </trkpt>
      <trkpt lat="42.28014" lon="1.88127">
        <ele>1633.044</ele>
        <time>2019-04-07T23:28:09Z</time>
      </trkpt>
      <trkpt lat="42.28014" lon="1.88123">
        <ele>1632.654</ele>
        <time>2019-04-07T23:28:10Z</time>
      </trkpt>
      <trkpt lat="42.28014" lon="1.88122">
        <ele>1632.128</ele>
        <time>2019-04-07T23:28:10Z</time>
      </trkpt>
      <trkpt lat="42.28012" lon="1.88108">
        <ele>1631.187</ele>
        <time>2019-04-07T23:28:15Z</time>
      </trkpt>
      <trkpt lat="42.28012" lon="1.88108">
        <ele>1630.959</ele>
        <time>2019-04-07T23:28:15Z</time>
      </trkpt>
      <trkpt lat="42.28012" lon="1.8811">
        <ele>1629.899</ele>
        <time>2019-04-07T23:28:15Z</time>
      </trkpt>
      <trkpt lat="42.28012" lon="1.8811">
        <ele>1629.307</ele>
        <time>2019-04-07T23:28:15Z</time>
      </trkpt>
      <trkpt lat="42.28012" lon="1.88109">
        <ele>1628.827</ele>
        <time>2019-04-07T23:28:16Z</time>
      </trkpt>
      <trkpt lat="42.28014" lon="1.88101">
        <ele>1628.108</ele>
        <time>2019-04-07T23:28:18Z</time>
      </trkpt>
      <trkpt lat="42.28014" lon="1.88098">
        <ele>1628.282</ele>
        <time>2019-04-07T23:28:19Z</time>
      </trkpt>
      <trkpt lat="42.28015" lon="1.88096">
        <ele>1627.734</ele>
        <time>2019-04-07T23:28:20Z</time>
      </trkpt>
      <trkpt lat="42.28015" lon="1.88095">
        <ele>1627.279</ele>
        <time>2019-04-07T23:28:20Z</time>
      </trkpt>
      <trkpt lat="42.28013" lon="1.88095">
        <ele>1626.53</ele>
        <time>2019-04-07T23:28:20Z</time>
      </trkpt>
      <trkpt lat="42.28013" lon="1.88097">
        <ele>1626.23</ele>
        <time>2019-04-07T23:28:21Z</time>
      </trkpt>
      <trkpt lat="42.28012" lon="1.88099">
        <ele>1626.044</ele>
        <time>2019-04-07T23:28:22Z</time>
      </trkpt>
      <trkpt lat="42.28011" lon="1.88101">
        <ele>1625.563</ele>
        <time>2019-04-07T23:28:22Z</time>
      </trkpt>
      <trkpt lat="42.2801" lon="1.88102">
        <ele>1625.555</ele>
        <time>2019-04-07T23:28:23Z</time>
      </trkpt>
      <trkpt lat="42.28009" lon="1.88102">
        <ele>1625.596</ele>
        <time>2019-04-07T23:28:23Z</time>
      </trkpt>
      <trkpt lat="42.28008" lon="1.88097">
        <ele>1625.531</ele>
        <time>2019-04-07T23:28:25Z</time>
      </trkpt>
      <trkpt lat="42.28009" lon="1.88092">
        <ele>1625.424</ele>
        <time>2019-04-07T23:28:26Z</time>
      </trkpt>
      <trkpt lat="42.28009" lon="1.88088">
        <ele>1625.108</ele>
        <time>2019-04-07T23:28:28Z</time>
      </trkpt>
      <trkpt lat="42.28011" lon="1.88084">
        <ele>1625.242</ele>
        <time>2019-04-07T23:28:29Z</time>
      </trkpt>
      <trkpt lat="42.28013" lon="1.88084">
        <ele>1625.164</ele>
        <time>2019-04-07T23:28:30Z</time>
      </trkpt>
      <trkpt lat="42.28018" lon="1.88087">
        <ele>1624.959</ele>
        <time>2019-04-07T23:28:32Z</time>
      </trkpt>
      <trkpt lat="42.28019" lon="1.88087">
        <ele>1624.87</ele>
        <time>2019-04-07T23:28:32Z</time>
      </trkpt>
      <trkpt lat="42.2802" lon="1.88087">
        <ele>1625.13</ele>
        <time>2019-04-07T23:28:33Z</time>
      </trkpt>
      <trkpt lat="42.28021" lon="1.88085">
        <ele>1625.364</ele>
        <time>2019-04-07T23:28:33Z</time>
      </trkpt>
      <trkpt lat="42.28022" lon="1.88086">
        <ele>1625.243</ele>
        <time>2019-04-07T23:28:34Z</time>
      </trkpt>
      <trkpt lat="42.28022" lon="1.88087">
        <ele>1624.975</ele>
        <time>2019-04-07T23:28:34Z</time>
      </trkpt>
      <trkpt lat="42.28022" lon="1.88088">
        <ele>1624.592</ele>
        <time>2019-04-07T23:28:34Z</time>
      </trkpt>
      <trkpt lat="42.28023" lon="1.88093">
        <ele>1623.173</ele>
        <time>2019-04-07T23:28:36Z</time>
      </trkpt>
      <trkpt lat="42.28021" lon="1.88096">
        <ele>1621.82</ele>
        <time>2019-04-07T23:28:37Z</time>
      </trkpt>
      <trkpt lat="42.28018" lon="1.88097">
        <ele>1621.008</ele>
        <time>2019-04-07T23:28:39Z</time>
      </trkpt>
      <trkpt lat="42.28017" lon="1.88098">
        <ele>1620.832</ele>
        <time>2019-04-07T23:28:39Z</time>
      </trkpt>
      <trkpt lat="42.28012" lon="1.88099">
        <ele>1619.624</ele>
        <time>2019-04-07T23:28:41Z</time>
      </trkpt>
      <trkpt lat="42.2801" lon="1.88098">
        <ele>1619.169</ele>
        <time>2019-04-07T23:28:42Z</time>
      </trkpt>
      <trkpt lat="42.2801" lon="1.88096">
        <ele>1618.59</ele>
        <time>2019-04-07T23:28:43Z</time>
      </trkpt>
      <trkpt lat="42.2801" lon="1.88096">
        <ele>1618.62</ele>
        <time>2019-04-07T23:28:43Z</time>
      </trkpt>
      <trkpt lat="42.28008" lon="1.88087">
        <ele>1618.224</ele>
        <time>2019-04-07T23:28:45Z</time>
      </trkpt>
      <trkpt lat="42.28011" lon="1.88076">
        <ele>1618.283</ele>
        <time>2019-04-07T23:28:49Z</time>
      </trkpt>
      <trkpt lat="42.28014" lon="1.88069">
        <ele>1618.065</ele>
        <time>2019-04-07T23:28:51Z</time>
      </trkpt>
      <trkpt lat="42.28014" lon="1.88069">
        <ele>1618.084</ele>
        <time>2019-04-07T23:28:51Z</time>
      </trkpt>
      <trkpt lat="42.28012" lon="1.88066">
        <ele>1618.107</ele>
        <time>2019-04-07T23:28:52Z</time>
      </trkpt>
      <trkpt lat="42.28011" lon="1.88067">
        <ele>1617.417</ele>
        <time>2019-04-07T23:28:53Z</time>
      </trkpt>
      <trkpt lat="42.2801" lon="1.88073">
        <ele>1617.008</ele>
        <time>2019-04-07T23:28:55Z</time>
      </trkpt>
      <trkpt lat="42.28009" lon="1.88075">
        <ele>1616.291</ele>
        <time>2019-04-07T23:28:56Z</time>
      </trkpt>
      <trkpt lat="42.28008" lon="1.88079">
        <ele>1615.623</ele>
        <time>2019-04-07T23:28:57Z</time>
      </trkpt>
      <trkpt lat="42.28008" lon="1.88082">
        <ele>1615.118</ele>
        <time>2019-04-07T23:28:58Z</time>
      </trkpt>
      <trkpt lat="42.28009" lon="1.88079">
        <ele>1614.529</ele>
        <time>2019-04-07T23:28:59Z</time>
      </trkpt>
      <trkpt lat="42.28009" lon="1.88075">
        <ele>1614.199</ele>
        <time>2019-04-07T23:29:00Z</time>
      </trkpt>
      <trkpt lat="42.28008" lon="1.8807">
        <ele>1613.683</ele>
        <time>2019-04-07T23:29:01Z</time>
      </trkpt>
      <trkpt lat="42.28008" lon="1.88067">
        <ele>1612.862</ele>
        <time>2019-04-07T23:29:02Z</time>
      </trkpt>
      <trkpt lat="42.28007" lon="1.88067">
        <ele>1611.674</ele>
        <time>2019-04-07T23:29:03Z</time>
      </trkpt>
      <trkpt lat="42.28005" lon="1.88065">
        <ele>1611.132</ele>
        <time>2019-04-07T23:29:04Z</time>
      </trkpt>
      <trkpt lat="42.28005" lon="1.88063">
        <ele>1610.892</ele>
        <time>2019-04-07T23:29:04Z</time>
      </trkpt>
      <trkpt lat="42.28004" lon="1.8806">
        <ele>1610.511</ele>
        <time>2019-04-07T23:29:05Z</time>
      </trkpt>
      <trkpt lat="42.28005" lon="1.88048">
        <ele>1610.008</ele>
        <time>2019-04-07T23:29:09Z</time>
      </trkpt>
      <trkpt lat="42.28008" lon="1.88035">
        <ele>1609.296</ele>
        <time>2019-04-07T23:29:13Z</time>
      </trkpt>
      <trkpt lat="42.28008" lon="1.88034">
        <ele>1609.198</ele>
        <time>2019-04-07T23:29:13Z</time>
      </trkpt>
      <trkpt lat="42.28007" lon="1.88034">
        <ele>1609.083</ele>
        <time>2019-04-07T23:29:13Z</time>
      </trkpt>
      <trkpt lat="42.28007" lon="1.88034">
        <ele>1608.754</ele>
        <time>2019-04-07T23:29:13Z</time>
      </trkpt>
      <trkpt lat="42.28007" lon="1.88033">
        <ele>1608.254</ele>
        <time>2019-04-07T23:29:13Z</time>
      </trkpt>
      <trkpt lat="42.28007" lon="1.88033">
        <ele>1608.298</ele>
        <time>2019-04-07T23:29:14Z</time>
      </trkpt>
      <trkpt lat="42.28007" lon="1.88033">
        <ele>1608.187</ele>
        <time>2019-04-07T23:29:14Z</time>
      </trkpt>
      <trkpt lat="42.28007" lon="1.88034">
        <ele>1608.199</ele>
        <time>2019-04-07T23:29:14Z</time>
      </trkpt>
      <trkpt lat="42.28008" lon="1.88037">
        <ele>1607.895</ele>
        <time>2019-04-07T23:29:15Z</time>
      </trkpt>
      <trkpt lat="42.28008" lon="1.88039">
        <ele>1607.549</ele>
        <time>2019-04-07T23:29:16Z</time>
      </trkpt>
      <trkpt lat="42.28007" lon="1.88041">
        <ele>1607.523</ele>
        <time>2019-04-07T23:29:16Z</time>
      </trkpt>
      <trkpt lat="42.28006" lon="1.88042">
        <ele>1607.508</ele>
        <time>2019-04-07T23:29:17Z</time>
      </trkpt>
      <trkpt lat="42.28004" lon="1.88043">
        <ele>1607.142</ele>
        <time>2019-04-07T23:29:18Z</time>
      </trkpt>
      <trkpt lat="42.28003" lon="1.88044">
        <ele>1606.584</ele>
        <time>2019-04-07T23:29:19Z</time>
      </trkpt>
      <trkpt lat="42.28001" lon="1.88045">
        <ele>1606.289</ele>
        <time>2019-04-07T23:29:19Z</time>
      </trkpt>
      <trkpt lat="42.27999" lon="1.88046">
        <ele>1604.69</ele>
        <time>2019-04-07T23:29:20Z</time>
      </trkpt>
      <trkpt lat="42.27999" lon="1.88047">
        <ele>1604.52</ele>
        <time>2019-04-07T23:29:20Z</time>
      </trkpt>
      <trkpt lat="42.27999" lon="1.88048">
        <ele>1604.264</ele>
        <time>2019-04-07T23:29:21Z</time>
      </trkpt>
      <trkpt lat="42.27997" lon="1.8805">
        <ele>1603.623</ele>
        <time>2019-04-07T23:29:21Z</time>
      </trkpt>
      <trkpt lat="42.27996" lon="1.88052">
        <ele>1603.125</ele>
        <time>2019-04-07T23:29:22Z</time>
      </trkpt>
      <trkpt lat="42.27995" lon="1.88054">
        <ele>1602.336</ele>
        <time>2019-04-07T23:29:23Z</time>
      </trkpt>
      <trkpt lat="42.27995" lon="1.88056">
        <ele>1601.617</ele>
        <time>2019-04-07T23:29:23Z</time>
      </trkpt>
      <trkpt lat="42.27993" lon="1.88057">
        <ele>1601.018</ele>
        <time>2019-04-07T23:29:24Z</time>
      </trkpt>
      <trkpt lat="42.27992" lon="1.88057">
        <ele>1600.808</ele>
        <time>2019-04-07T23:29:25Z</time>
      </trkpt>
      <trkpt lat="42.27988" lon="1.88057">
        <ele>1600.236</ele>
        <time>2019-04-07T23:29:26Z</time>
      </trkpt>
      <trkpt lat="42.27987" lon="1.88057">
        <ele>1599.648</ele>
        <time>2019-04-07T23:29:26Z</time>
      </trkpt>
      <trkpt lat="42.27987" lon="1.88057">
        <ele>1599.263</ele>
        <time>2019-04-07T23:29:27Z</time>
      </trkpt>
      <trkpt lat="42.27986" lon="1.88057">
        <ele>1598.974</ele>
        <time>2019-04-07T23:29:27Z</time>
      </trkpt>
      <trkpt lat="42.27985" lon="1.88056">
        <ele>1597.914</ele>
        <time>2019-04-07T23:29:28Z</time>
      </trkpt>
      <trkpt lat="42.27983" lon="1.88056">
        <ele>1597.198</ele>
        <time>2019-04-07T23:29:28Z</time>
      </trkpt>
      <trkpt lat="42.27982" lon="1.88056">
        <ele>1596.517</ele>
        <time>2019-04-07T23:29:28Z</time>
      </trkpt>
      <trkpt lat="42.2798" lon="1.88054">
        <ele>1595.649</ele>
        <time>2019-04-07T23:29:30Z</time>
      </trkpt>
      <trkpt lat="42.2798" lon="1.88053">
        <ele>1595.599</ele>
        <time>2019-04-07T23:29:30Z</time>
      </trkpt>
      <trkpt lat="42.27979" lon="1.88051">
        <ele>1594.407</ele>
        <time>2019-04-07T23:29:30Z</time>
      </trkpt>
      <trkpt lat="42.27979" lon="1.8805">
        <ele>1594.027</ele>
        <time>2019-04-07T23:29:31Z</time>
      </trkpt>
      <trkpt lat="42.27979" lon="1.88049">
        <ele>1593.808</ele>
        <time>2019-04-07T23:29:31Z</time>
      </trkpt>
      <trkpt lat="42.27977" lon="1.88046">
        <ele>1593.192</ele>
        <time>2019-04-07T23:29:32Z</time>
      </trkpt>
      <trkpt lat="42.27976" lon="1.88043">
        <ele>1592.234</ele>
        <time>2019-04-07T23:29:33Z</time>
      </trkpt>
      <trkpt lat="42.27976" lon="1.88041">
        <ele>1591.599</ele>
        <time>2019-04-07T23:29:34Z</time>
      </trkpt>
      <trkpt lat="42.27976" lon="1.88039">
        <ele>1591.29</ele>
        <time>2019-04-07T23:29:34Z</time>
      </trkpt>
      <trkpt lat="42.27977" lon="1.88038">
        <ele>1590.52</ele>
        <time>2019-04-07T23:29:35Z</time>
      </trkpt>
      <trkpt lat="42.27977" lon="1.88037">
        <ele>1590.524</ele>
        <time>2019-04-07T23:29:35Z</time>
      </trkpt>
      <trkpt lat="42.27977" lon="1.88034">
        <ele>1589.593</ele>
        <time>2019-04-07T23:29:36Z</time>
      </trkpt>
      <trkpt lat="42.27977" lon="1.88033">
        <ele>1589.145</ele>
        <time>2019-04-07T23:29:36Z</time>
      </trkpt>
      <trkpt lat="42.27976" lon="1.88031">
        <ele>1589.012</ele>
        <time>2019-04-07T23:29:37Z</time>
      </trkpt>
      <trkpt lat="42.27974" lon="1.8803">
        <ele>1588.632</ele>
        <time>2019-04-07T23:29:38Z</time>
      </trkpt>
      <trkpt lat="42.27972" lon="1.88028">
        <ele>1587.805</ele>
        <time>2019-04-07T23:29:39Z</time>
      </trkpt>
      <trkpt lat="42.27972" lon="1.88027">
        <ele>1587.408</ele>
        <time>2019-04-07T23:29:39Z</time>
      </trkpt>
      <trkpt lat="42.27971" lon="1.88026">
        <ele>1587.144</ele>
        <time>2019-04-07T23:29:40Z</time>
      </trkpt>
      <trkpt lat="42.27971" lon="1.88024">
        <ele>1586.086</ele>
        <time>2019-04-07T23:29:40Z</time>
      </trkpt>
      <trkpt lat="42.2797" lon="1.88023">
        <ele>1585.751</ele>
        <time>2019-04-07T23:29:41Z</time>
      </trkpt>
      <trkpt lat="42.27969" lon="1.88021">
        <ele>1585.222</ele>
        <time>2019-04-07T23:29:41Z</time>
      </trkpt>
      <trkpt lat="42.27967" lon="1.88021">
        <ele>1584.082</ele>
        <time>2019-04-07T23:29:42Z</time>
      </trkpt>
      <trkpt lat="42.27967" lon="1.88021">
        <ele>1583.386</ele>
        <time>2019-04-07T23:29:42Z</time>
      </trkpt>
      <trkpt lat="42.27965" lon="1.88021">
        <ele>1582.995</ele>
        <time>2019-04-07T23:29:43Z</time>
      </trkpt>
      <trkpt lat="42.27964" lon="1.88021">
        <ele>1582.567</ele>
        <time>2019-04-07T23:29:43Z</time>
      </trkpt>
      <trkpt lat="42.27962" lon="1.88023">
        <ele>1581.513</ele>
        <time>2019-04-07T23:29:44Z</time>
      </trkpt>
      <trkpt lat="42.27962" lon="1.88022">
        <ele>1580.543</ele>
        <time>2019-04-07T23:29:44Z</time>
      </trkpt>
      <trkpt lat="42.27962" lon="1.88023">
        <ele>1580.007</ele>
        <time>2019-04-07T23:29:44Z</time>
      </trkpt>
      <trkpt lat="42.27963" lon="1.88024">
        <ele>1579.408</ele>
        <time>2019-04-07T23:29:45Z</time>
      </trkpt>
      <trkpt lat="42.27963" lon="1.88024">
        <ele>1579.174</ele>
        <time>2019-04-07T23:29:45Z</time>
      </trkpt>
      <trkpt lat="42.27962" lon="1.88025">
        <ele>1579.216</ele>
        <time>2019-04-07T23:29:46Z</time>
      </trkpt>
      <trkpt lat="42.27958" lon="1.88024">
        <ele>1577.991</ele>
        <time>2019-04-07T23:29:48Z</time>
      </trkpt>
      <trkpt lat="42.27956" lon="1.88024">
        <ele>1577.622</ele>
        <time>2019-04-07T23:29:48Z</time>
      </trkpt>
      <trkpt lat="42.27955" lon="1.88021">
        <ele>1576.842</ele>
        <time>2019-04-07T23:29:49Z</time>
      </trkpt>
      <trkpt lat="42.27955" lon="1.88019">
        <ele>1576.736</ele>
        <time>2019-04-07T23:29:50Z</time>
      </trkpt>
      <trkpt lat="42.27955" lon="1.88019">
        <ele>1576.675</ele>
        <time>2019-04-07T23:29:50Z</time>
      </trkpt>
      <trkpt lat="42.27955" lon="1.88019">
        <ele>1576.627</ele>
        <time>2019-04-07T23:29:50Z</time>
      </trkpt>
      <trkpt lat="42.27955" lon="1.88022">
        <ele>1576.132</ele>
        <time>2019-04-07T23:29:51Z</time>
      </trkpt>
      <trkpt lat="42.27954" lon="1.88022">
        <ele>1575.592</ele>
        <time>2019-04-07T23:29:51Z</time>
      </trkpt>
      <trkpt lat="42.27953" lon="1.88021">
        <ele>1574.511</ele>
        <time>2019-04-07T23:29:52Z</time>
      </trkpt>
      <trkpt lat="42.27953" lon="1.88022">
        <ele>1574.408</ele>
        <time>2019-04-07T23:29:52Z</time>
      </trkpt>
      <trkpt lat="42.27951" lon="1.88021">
        <ele>1573.526</ele>
        <time>2019-04-07T23:29:53Z</time>
      </trkpt>
      <trkpt lat="42.27951" lon="1.8802">
        <ele>1573.628</ele>
        <time>2019-04-07T23:29:53Z</time>
      </trkpt>
      <trkpt lat="42.27951" lon="1.88019">
        <ele>1572.023</ele>
        <time>2019-04-07T23:29:53Z</time>
      </trkpt>
      <trkpt lat="42.27951" lon="1.88019">
        <ele>1571.444</ele>
        <time>2019-04-07T23:29:53Z</time>
      </trkpt>
      <trkpt lat="42.2795" lon="1.8802">
        <ele>1571.084</ele>
        <time>2019-04-07T23:29:54Z</time>
      </trkpt>
      <trkpt lat="42.2795" lon="1.8802">
        <ele>1570.698</ele>
        <time>2019-04-07T23:29:54Z</time>
      </trkpt>
      <trkpt lat="42.27951" lon="1.88021">
        <ele>1569.857</ele>
        <time>2019-04-07T23:29:54Z</time>
      </trkpt>
      <trkpt lat="42.27951" lon="1.88021">
        <ele>1569.579</ele>
        <time>2019-04-07T23:29:54Z</time>
      </trkpt>
      <trkpt lat="42.27951" lon="1.88021">
        <ele>1569.596</ele>
        <time>2019-04-07T23:29:54Z</time>
      </trkpt>
      <trkpt lat="42.2795" lon="1.88022">
        <ele>1569.531</ele>
        <time>2019-04-07T23:29:54Z</time>
      </trkpt>
      <trkpt lat="42.27949" lon="1.88024">
        <ele>1569.124</ele>
        <time>2019-04-07T23:29:55Z</time>
      </trkpt>
      <trkpt lat="42.27948" lon="1.88026">
        <ele>1568.508</ele>
        <time>2019-04-07T23:29:56Z</time>
      </trkpt>
      <trkpt lat="42.27948" lon="1.88027">
        <ele>1568.542</ele>
        <time>2019-04-07T23:29:56Z</time>
      </trkpt>
      <trkpt lat="42.27948" lon="1.88028">
        <ele>1568.264</ele>
        <time>2019-04-07T23:29:57Z</time>
      </trkpt>
      <trkpt lat="42.27947" lon="1.88028">
        <ele>1567.429</ele>
        <time>2019-04-07T23:29:57Z</time>
      </trkpt>
      <trkpt lat="42.27946" lon="1.88028">
        <ele>1567.59</ele>
        <time>2019-04-07T23:29:57Z</time>
      </trkpt>
      <trkpt lat="42.27946" lon="1.88026">
        <ele>1566.71</ele>
        <time>2019-04-07T23:29:58Z</time>
      </trkpt>
      <trkpt lat="42.27945" lon="1.88026">
        <ele>1566.544</ele>
        <time>2019-04-07T23:29:58Z</time>
      </trkpt>
      <trkpt lat="42.27945" lon="1.88027">
        <ele>1566.663</ele>
        <time>2019-04-07T23:29:58Z</time>
      </trkpt>
      <trkpt lat="42.27944" lon="1.88028">
        <ele>1566.155</ele>
        <time>2019-04-07T23:29:59Z</time>
      </trkpt>
      <trkpt lat="42.27941" lon="1.88032">
        <ele>1565.216</ele>
        <time>2019-04-07T23:30:01Z</time>
      </trkpt>
      <trkpt lat="42.27938" lon="1.88038">
        <ele>1563.876</ele>
        <time>2019-04-07T23:30:03Z</time>
      </trkpt>
      <trkpt lat="42.27936" lon="1.8804">
        <ele>1563.413</ele>
        <time>2019-04-07T23:30:04Z</time>
      </trkpt>
      <trkpt lat="42.27935" lon="1.88041">
        <ele>1562.808</ele>
        <time>2019-04-07T23:30:04Z</time>
      </trkpt>
      <trkpt lat="42.27933" lon="1.88043">
        <ele>1562.054</ele>
        <time>2019-04-07T23:30:05Z</time>
      </trkpt>
      <trkpt lat="42.27933" lon="1.88044">
        <ele>1561.636</ele>
        <time>2019-04-07T23:30:06Z</time>
      </trkpt>
      <trkpt lat="42.27931" lon="1.88044">
        <ele>1560.711</ele>
        <time>2019-04-07T23:30:06Z</time>
      </trkpt>
      <trkpt lat="42.2793" lon="1.88043">
        <ele>1559.672</ele>
        <time>2019-04-07T23:30:07Z</time>
      </trkpt>
      <trkpt lat="42.27929" lon="1.88043">
        <ele>1559.222</ele>
        <time>2019-04-07T23:30:07Z</time>
      </trkpt>
      <trkpt lat="42.27929" lon="1.88043">
        <ele>1558.666</ele>
        <time>2019-04-07T23:30:07Z</time>
      </trkpt>
      <trkpt lat="42.27927" lon="1.88043">
        <ele>1557.415</ele>
        <time>2019-04-07T23:30:08Z</time>
      </trkpt>
      <trkpt lat="42.27926" lon="1.88042">
        <ele>1557.197</ele>
        <time>2019-04-07T23:30:08Z</time>
      </trkpt>
      <trkpt lat="42.27926" lon="1.88042">
        <ele>1556.535</ele>
        <time>2019-04-07T23:30:09Z</time>
      </trkpt>
      <trkpt lat="42.27923" lon="1.88044">
        <ele>1555.286</ele>
        <time>2019-04-07T23:30:10Z</time>
      </trkpt>
      <trkpt lat="42.27921" lon="1.88046">
        <ele>1554.114</ele>
        <time>2019-04-07T23:30:11Z</time>
      </trkpt>
      <trkpt lat="42.2792" lon="1.88047">
        <ele>1554.008</ele>
        <time>2019-04-07T23:30:11Z</time>
      </trkpt>
      <trkpt lat="42.27918" lon="1.88049">
        <ele>1553.296</ele>
        <time>2019-04-07T23:30:12Z</time>
      </trkpt>
      <trkpt lat="42.27917" lon="1.8805">
        <ele>1553.038</ele>
        <time>2019-04-07T23:30:13Z</time>
      </trkpt>
      <trkpt lat="42.27916" lon="1.88051">
        <ele>1551.743</ele>
        <time>2019-04-07T23:30:14Z</time>
      </trkpt>
      <trkpt lat="42.27915" lon="1.88051">
        <ele>1551.614</ele>
        <time>2019-04-07T23:30:14Z</time>
      </trkpt>
      <trkpt lat="42.27915" lon="1.88051">
        <ele>1551.224</ele>
        <time>2019-04-07T23:30:14Z</time>
      </trkpt>
      <trkpt lat="42.27914" lon="1.88051">
        <ele>1551.058</ele>
        <time>2019-04-07T23:30:14Z</time>
      </trkpt>
      <trkpt lat="42.27913" lon="1.88049">
        <ele>1550.877</ele>
        <time>2019-04-07T23:30:15Z</time>
      </trkpt>
      <trkpt lat="42.27914" lon="1.88044">
        <ele>1551.279</ele>
        <time>2019-04-07T23:30:16Z</time>
      </trkpt>
      <trkpt lat="42.27916" lon="1.88042">
        <ele>1551.221</ele>
        <time>2019-04-07T23:30:17Z</time>
      </trkpt>
      <trkpt lat="42.27916" lon="1.88038">
        <ele>1552.241</ele>
        <time>2019-04-07T23:30:18Z</time>
      </trkpt>
      <trkpt lat="42.27919" lon="1.88035">
        <ele>1552.105</ele>
        <time>2019-04-07T23:30:20Z</time>
      </trkpt>
      <trkpt lat="42.27921" lon="1.88029">
        <ele>1551.808</ele>
        <time>2019-04-07T23:30:22Z</time>
      </trkpt>
      <trkpt lat="42.27923" lon="1.88021">
        <ele>1550.935</ele>
        <time>2019-04-07T23:30:24Z</time>
      </trkpt>
      <trkpt lat="42.27923" lon="1.8802">
        <ele>1550.587</ele>
        <time>2019-04-07T23:30:25Z</time>
      </trkpt>
      <trkpt lat="42.27923" lon="1.88018">
        <ele>1550.322</ele>
        <time>2019-04-07T23:30:25Z</time>
      </trkpt>
      <trkpt lat="42.27923" lon="1.88018">
        <ele>1549.573</ele>
        <time>2019-04-07T23:30:25Z</time>
      </trkpt>
      <trkpt lat="42.27923" lon="1.88019">
        <ele>1549.283</ele>
        <time>2019-04-07T23:30:26Z</time>
      </trkpt>
      <trkpt lat="42.2792" lon="1.88024">
        <ele>1548.677</ele>
        <time>2019-04-07T23:30:27Z</time>
      </trkpt>
      <trkpt lat="42.27918" lon="1.88027">
        <ele>1547.866</ele>
        <time>2019-04-07T23:30:28Z</time>
      </trkpt>
      <trkpt lat="42.27917" lon="1.88028">
        <ele>1547.288</ele>
        <time>2019-04-07T23:30:29Z</time>
      </trkpt>
      <trkpt lat="42.27916" lon="1.8803">
        <ele>1546.285</ele>
        <time>2019-04-07T23:30:30Z</time>
      </trkpt>
      <trkpt lat="42.27915" lon="1.88032">
        <ele>1545.189</ele>
        <time>2019-04-07T23:30:30Z</time>
      </trkpt>
      <trkpt lat="42.27915" lon="1.88033">
        <ele>1545.017</ele>
        <time>2019-04-07T23:30:31Z</time>
      </trkpt>
      <trkpt lat="42.27913" lon="1.88035">
        <ele>1544.108</ele>
        <time>2019-04-07T23:30:32Z</time>
      </trkpt>
      <trkpt lat="42.27909" lon="1.88035">
        <ele>1544.061</ele>
        <time>2019-04-07T23:30:33Z</time>
      </trkpt>
      <trkpt lat="42.27906" lon="1.88034">
        <ele>1543.083</ele>
        <time>2019-04-07T23:30:35Z</time>
      </trkpt>
      <trkpt lat="42.27902" lon="1.88034">
        <ele>1542.338</ele>
        <time>2019-04-07T23:30:36Z</time>
      </trkpt>
      <trkpt lat="42.27901" lon="1.88035">
        <ele>1541.989</ele>
        <time>2019-04-07T23:30:37Z</time>
      </trkpt>
      <trkpt lat="42.27898" lon="1.88036">
        <ele>1540.999</ele>
        <time>2019-04-07T23:30:38Z</time>
      </trkpt>
      <trkpt lat="42.27897" lon="1.88037">
        <ele>1540.273</ele>
        <time>2019-04-07T23:30:38Z</time>
      </trkpt>
      <trkpt lat="42.27896" lon="1.88037">
        <ele>1539.642</ele>
        <time>2019-04-07T23:30:39Z</time>
      </trkpt>
      <trkpt lat="42.27895" lon="1.88038">
        <ele>1538.544</ele>
        <time>2019-04-07T23:30:39Z</time>
      </trkpt>
      <trkpt lat="42.27894" lon="1.88035">
        <ele>1537.158</ele>
        <time>2019-04-07T23:30:40Z</time>
      </trkpt>
      <trkpt lat="42.27894" lon="1.88033">
        <ele>1536.552</ele>
        <time>2019-04-07T23:30:41Z</time>
      </trkpt>
      <trkpt lat="42.27894" lon="1.88032">
        <ele>1536.017</ele>
        <time>2019-04-07T23:30:41Z</time>
      </trkpt>
      <trkpt lat="42.27894" lon="1.88031">
        <ele>1535.508</ele>
        <time>2019-04-07T23:30:41Z</time>
      </trkpt>
      <trkpt lat="42.27894" lon="1.88029">
        <ele>1535.168</ele>
        <time>2019-04-07T23:30:42Z</time>
      </trkpt>
      <trkpt lat="42.27894" lon="1.88028">
        <ele>1535.24</ele>
        <time>2019-04-07T23:30:42Z</time>
      </trkpt>
      <trkpt lat="42.27894" lon="1.88026">
        <ele>1534.575</ele>
        <time>2019-04-07T23:30:43Z</time>
      </trkpt>
      <trkpt lat="42.27894" lon="1.88025">
        <ele>1533.646</ele>
        <time>2019-04-07T23:30:43Z</time>
      </trkpt>
      <trkpt lat="42.27894" lon="1.88025">
        <ele>1533.636</ele>
        <time>2019-04-07T23:30:43Z</time>
      </trkpt>
      <trkpt lat="42.27893" lon="1.88024">
        <ele>1533.37</ele>
        <time>2019-04-07T23:30:44Z</time>
      </trkpt>
      <trkpt lat="42.27892" lon="1.88022">
        <ele>1532.619</ele>
        <time>2019-04-07T23:30:44Z</time>
      </trkpt>
      <trkpt lat="42.27891" lon="1.88021">
        <ele>1532.191</ele>
        <time>2019-04-07T23:30:45Z</time>
      </trkpt>
      <trkpt lat="42.2789" lon="1.88021">
        <ele>1531.559</ele>
        <time>2019-04-07T23:30:45Z</time>
      </trkpt>
      <trkpt lat="42.27889" lon="1.88021">
        <ele>1530.603</ele>
        <time>2019-04-07T23:30:46Z</time>
      </trkpt>
      <trkpt lat="42.27889" lon="1.88021">
        <ele>1530.423</ele>
        <time>2019-04-07T23:30:46Z</time>
      </trkpt>
      <trkpt lat="42.27889" lon="1.88022">
        <ele>1530.008</ele>
        <time>2019-04-07T23:30:46Z</time>
      </trkpt>
      <trkpt lat="42.27888" lon="1.88022">
        <ele>1529.618</ele>
        <time>2019-04-07T23:30:46Z</time>
      </trkpt>
      <trkpt lat="42.27884" lon="1.88025">
        <ele>1528.24</ele>
        <time>2019-04-07T23:30:48Z</time>
      </trkpt>
      <trkpt lat="42.27881" lon="1.88024">
        <ele>1527.265</ele>
        <time>2019-04-07T23:30:49Z</time>
      </trkpt>
      <trkpt lat="42.2788" lon="1.8802">
        <ele>1525.936</ele>
        <time>2019-04-07T23:30:50Z</time>
      </trkpt>
      <trkpt lat="42.2788" lon="1.88018">
        <ele>1525.576</ele>
        <time>2019-04-07T23:30:51Z</time>
      </trkpt>
      <trkpt lat="42.27879" lon="1.88013">
        <ele>1524.67</ele>
        <time>2019-04-07T23:30:53Z</time>
      </trkpt>
      <trkpt lat="42.27878" lon="1.8801">
        <ele>1523.759</ele>
        <time>2019-04-07T23:30:54Z</time>
      </trkpt>
      <trkpt lat="42.27877" lon="1.88007">
        <ele>1522.871</ele>
        <time>2019-04-07T23:30:55Z</time>
      </trkpt>
      <trkpt lat="42.27876" lon="1.88006">
        <ele>1522.491</ele>
        <time>2019-04-07T23:30:55Z</time>
      </trkpt>
      <trkpt lat="42.27877" lon="1.88001">
        <ele>1521.681</ele>
        <time>2019-04-07T23:30:56Z</time>
      </trkpt>
      <trkpt lat="42.27877" lon="1.87999">
        <ele>1521.419</ele>
        <time>2019-04-07T23:30:57Z</time>
      </trkpt>
      <trkpt lat="42.27879" lon="1.87996">
        <ele>1520.408</ele>
        <time>2019-04-07T23:30:58Z</time>
      </trkpt>
      <trkpt lat="42.27879" lon="1.87995">
        <ele>1520.282</ele>
        <time>2019-04-07T23:30:58Z</time>
      </trkpt>
      <trkpt lat="42.27879" lon="1.87995">
        <ele>1519.554</ele>
        <time>2019-04-07T23:30:59Z</time>
      </trkpt>
      <trkpt lat="42.27879" lon="1.87995">
        <ele>1519.279</ele>
        <time>2019-04-07T23:30:59Z</time>
      </trkpt>
      <trkpt lat="42.27878" lon="1.8799">
        <ele>1519.07</ele>
        <time>2019-04-07T23:31:00Z</time>
      </trkpt>
      <trkpt lat="42.27876" lon="1.87988">
        <ele>1518.12</ele>
        <time>2019-04-07T23:31:01Z</time>
      </trkpt>
      <trkpt lat="42.27875" lon="1.87988">
        <ele>1517.614</ele>
        <time>2019-04-07T23:31:02Z</time>
      </trkpt>
      <trkpt lat="42.27873" lon="1.87988">
        <ele>1516.873</ele>
        <time>2019-04-07T23:31:02Z</time>
      </trkpt>
      <trkpt lat="42.27871" lon="1.87989">
        <ele>1515.855</ele>
        <time>2019-04-07T23:31:03Z</time>
      </trkpt>
      <trkpt lat="42.27867" lon="1.87988">
        <ele>1514.528</ele>
        <time>2019-04-07T23:31:05Z</time>
      </trkpt>
      <trkpt lat="42.27866" lon="1.87988">
        <ele>1514.289</ele>
        <time>2019-04-07T23:31:05Z</time>
      </trkpt>
      <trkpt lat="42.27867" lon="1.87987">
        <ele>1513.117</ele>
        <time>2019-04-07T23:31:05Z</time>
      </trkpt>
      <trkpt lat="42.27868" lon="1.87988">
        <ele>1512.408</ele>
        <time>2019-04-07T23:31:06Z</time>
      </trkpt>
      <trkpt lat="42.27864" lon="1.8799">
        <ele>1512.215</ele>
        <time>2019-04-07T23:31:07Z</time>
      </trkpt>
      <trkpt lat="42.27864" lon="1.8799">
        <ele>1512.147</ele>
        <time>2019-04-07T23:31:07Z</time>
      </trkpt>
      <trkpt lat="42.27863" lon="1.87986">
        <ele>1512.142</ele>
        <time>2019-04-07T23:31:09Z</time>
      </trkpt>
      <trkpt lat="42.27861" lon="1.87985">
        <ele>1511.213</ele>
        <time>2019-04-07T23:31:09Z</time>
      </trkpt>
      <trkpt lat="42.2786" lon="1.87983">
        <ele>1509.943</ele>
        <time>2019-04-07T23:31:10Z</time>
      </trkpt>
      <trkpt lat="42.27861" lon="1.8798">
        <ele>1509.647</ele>
        <time>2019-04-07T23:31:11Z</time>
      </trkpt>
      <trkpt lat="42.2786" lon="1.87976">
        <ele>1508.956</ele>
        <time>2019-04-07T23:31:12Z</time>
      </trkpt>
      <trkpt lat="42.27858" lon="1.87973">
        <ele>1508.118</ele>
        <time>2019-04-07T23:31:14Z</time>
      </trkpt>
      <trkpt lat="42.27858" lon="1.87972">
        <ele>1507.443</ele>
        <time>2019-04-07T23:31:14Z</time>
      </trkpt>
      <trkpt lat="42.27858" lon="1.87974">
        <ele>1506.264</ele>
        <time>2019-04-07T23:31:14Z</time>
      </trkpt>
      <trkpt lat="42.27857" lon="1.87974">
        <ele>1506.01</ele>
        <time>2019-04-07T23:31:14Z</time>
      </trkpt>
      <trkpt lat="42.27857" lon="1.87974">
        <ele>1505.808</ele>
        <time>2019-04-07T23:31:15Z</time>
      </trkpt>
      <trkpt lat="42.27855" lon="1.87975">
        <ele>1505.777</ele>
        <time>2019-04-07T23:31:15Z</time>
      </trkpt>
      <trkpt lat="42.27852" lon="1.87975">
        <ele>1505.119</ele>
        <time>2019-04-07T23:31:17Z</time>
      </trkpt>
      <trkpt lat="42.2785" lon="1.87975">
        <ele>1504.644</ele>
        <time>2019-04-07T23:31:17Z</time>
      </trkpt>
      <trkpt lat="42.27849" lon="1.87976">
        <ele>1504.185</ele>
        <time>2019-04-07T23:31:18Z</time>
      </trkpt>
      <trkpt lat="42.27848" lon="1.87978">
        <ele>1503.515</ele>
        <time>2019-04-07T23:31:18Z</time>
      </trkpt>
      <trkpt lat="42.27847" lon="1.87978">
        <ele>1503.059</ele>
        <time>2019-04-07T23:31:19Z</time>
      </trkpt>
      <trkpt lat="42.27845" lon="1.87976">
        <ele>1501.538</ele>
        <time>2019-04-07T23:31:20Z</time>
      </trkpt>
      <trkpt lat="42.27846" lon="1.87973">
        <ele>1500.76</ele>
        <time>2019-04-07T23:31:21Z</time>
      </trkpt>
      <trkpt lat="42.27846" lon="1.87966">
        <ele>1499.611</ele>
        <time>2019-04-07T23:31:23Z</time>
      </trkpt>
      <trkpt lat="42.27845" lon="1.87965">
        <ele>1499.421</ele>
        <time>2019-04-07T23:31:23Z</time>
      </trkpt>
      <trkpt lat="42.27845" lon="1.87965">
        <ele>1498.503</ele>
        <time>2019-04-07T23:31:23Z</time>
      </trkpt>
      <trkpt lat="42.27845" lon="1.87966">
        <ele>1498.408</ele>
        <time>2019-04-07T23:31:23Z</time>
      </trkpt>
      <trkpt lat="42.27845" lon="1.87967">
        <ele>1497.854</ele>
        <time>2019-04-07T23:31:24Z</time>
      </trkpt>
      <trkpt lat="42.27844" lon="1.87967">
        <ele>1498.016</ele>
        <time>2019-04-07T23:31:24Z</time>
      </trkpt>
      <trkpt lat="42.27842" lon="1.87968">
        <ele>1497.281</ele>
        <time>2019-04-07T23:31:25Z</time>
      </trkpt>
      <trkpt lat="42.27841" lon="1.87968">
        <ele>1497.292</ele>
        <time>2019-04-07T23:31:26Z</time>
      </trkpt>
      <trkpt lat="42.27838" lon="1.87966">
        <ele>1496.232</ele>
        <time>2019-04-07T23:31:27Z</time>
      </trkpt>
      <trkpt lat="42.27838" lon="1.87967">
        <ele>1496.046</ele>
        <time>2019-04-07T23:31:27Z</time>
      </trkpt>
      <trkpt lat="42.27837" lon="1.87968">
        <ele>1495.685</ele>
        <time>2019-04-07T23:31:27Z</time>
      </trkpt>
      <trkpt lat="42.27836" lon="1.87969">
        <ele>1495.377</ele>
        <time>2019-04-07T23:31:28Z</time>
      </trkpt>
      <trkpt lat="42.27836" lon="1.87971">
        <ele>1494.995</ele>
        <time>2019-04-07T23:31:28Z</time>
      </trkpt>
      <trkpt lat="42.27833" lon="1.87975">
        <ele>1493.549</ele>
        <time>2019-04-07T23:31:30Z</time>
      </trkpt>
      <trkpt lat="42.27831" lon="1.87977">
        <ele>1493.023</ele>
        <time>2019-04-07T23:31:31Z</time>
      </trkpt>
      <trkpt lat="42.2783" lon="1.87978">
        <ele>1492.408</ele>
        <time>2019-04-07T23:31:31Z</time>
      </trkpt>
      <trkpt lat="42.27829" lon="1.87979">
        <ele>1492.242</ele>
        <time>2019-04-07T23:31:32Z</time>
      </trkpt>
      <trkpt lat="42.27827" lon="1.8798">
        <ele>1491.024</ele>
        <time>2019-04-07T23:31:33Z</time>
      </trkpt>
      <trkpt lat="42.27823" lon="1.87982">
        <ele>1490.099</ele>
        <time>2019-04-07T23:31:35Z</time>
      </trkpt>
      <trkpt lat="42.27822" lon="1.87982">
        <ele>1489.65</ele>
        <time>2019-04-07T23:31:35Z</time>
      </trkpt>
      <trkpt lat="42.27821" lon="1.8798">
        <ele>1489.04</ele>
        <time>2019-04-07T23:31:36Z</time>
      </trkpt>
      <trkpt lat="42.27821" lon="1.8798">
        <ele>1488.244</ele>
        <time>2019-04-07T23:31:36Z</time>
      </trkpt>
      <trkpt lat="42.27821" lon="1.87979">
        <ele>1487.643</ele>
        <time>2019-04-07T23:31:36Z</time>
      </trkpt>
      <trkpt lat="42.27822" lon="1.87979">
        <ele>1487.115</ele>
        <time>2019-04-07T23:31:37Z</time>
      </trkpt>
      <trkpt lat="42.27822" lon="1.87982">
        <ele>1487.045</ele>
        <time>2019-04-07T23:31:38Z</time>
      </trkpt>
      <trkpt lat="42.27821" lon="1.87981">
        <ele>1486.947</ele>
        <time>2019-04-07T23:31:38Z</time>
      </trkpt>
      <trkpt lat="42.27823" lon="1.87976">
        <ele>1486.811</ele>
        <time>2019-04-07T23:31:40Z</time>
      </trkpt>
      <trkpt lat="42.27823" lon="1.87975">
        <ele>1486.808</ele>
        <time>2019-04-07T23:31:40Z</time>
      </trkpt>
      <trkpt lat="42.27823" lon="1.87975">
        <ele>1486.937</ele>
        <time>2019-04-07T23:31:40Z</time>
      </trkpt>
      <trkpt lat="42.2782" lon="1.87977">
        <ele>1487.299</ele>
        <time>2019-04-07T23:31:41Z</time>
      </trkpt>
      <trkpt lat="42.27819" lon="1.8798">
        <ele>1486.684</ele>
        <time>2019-04-07T23:31:42Z</time>
      </trkpt>
      <trkpt lat="42.27819" lon="1.8798">
        <ele>1486.635</ele>
        <time>2019-04-07T23:31:42Z</time>
      </trkpt>
      <trkpt lat="42.27817" lon="1.87977">
        <ele>1485.645</ele>
        <time>2019-04-07T23:31:43Z</time>
      </trkpt>
      <trkpt lat="42.27817" lon="1.87976">
        <ele>1484.239</ele>
        <time>2019-04-07T23:31:43Z</time>
      </trkpt>
      <trkpt lat="42.27815" lon="1.87974">
        <ele>1482.838</ele>
        <time>2019-04-07T23:31:44Z</time>
      </trkpt>
      <trkpt lat="42.27814" lon="1.87973">
        <ele>1481.63</ele>
        <time>2019-04-07T23:31:45Z</time>
      </trkpt>
      <trkpt lat="42.27811" lon="1.87972">
        <ele>1480.623</ele>
        <time>2019-04-07T23:31:46Z</time>
      </trkpt>
      <trkpt lat="42.27811" lon="1.87971">
        <ele>1480.383</ele>
        <time>2019-04-07T23:31:46Z</time>
      </trkpt>
      <trkpt lat="42.27811" lon="1.8797">
        <ele>1479.811</ele>
        <time>2019-04-07T23:31:46Z</time>
      </trkpt>
      <trkpt lat="42.27811" lon="1.87969">
        <ele>1479.408</ele>
        <time>2019-04-07T23:31:47Z</time>
      </trkpt>
      <trkpt lat="42.27811" lon="1.87968">
        <ele>1478.855</ele>
        <time>2019-04-07T23:31:47Z</time>
      </trkpt>
      <trkpt lat="42.27811" lon="1.87969">
        <ele>1478.627</ele>
        <time>2019-04-07T23:31:47Z</time>
      </trkpt>
      <trkpt lat="42.2781" lon="1.87968">
        <ele>1478.622</ele>
        <time>2019-04-07T23:31:47Z</time>
      </trkpt>
      <trkpt lat="42.2781" lon="1.87968">
        <ele>1478.273</ele>
        <time>2019-04-07T23:31:48Z</time>
      </trkpt>
      <trkpt lat="42.27809" lon="1.87969">
        <ele>1478.083</ele>
        <time>2019-04-07T23:31:48Z</time>
      </trkpt>
      <trkpt lat="42.27808" lon="1.87969">
        <ele>1477.277</ele>
        <time>2019-04-07T23:31:49Z</time>
      </trkpt>
      <trkpt lat="42.27807" lon="1.8797">
        <ele>1476.656</ele>
        <time>2019-04-07T23:31:49Z</time>
      </trkpt>
      <trkpt lat="42.27806" lon="1.8797">
        <ele>1476.598</ele>
        <time>2019-04-07T23:31:49Z</time>
      </trkpt>
      <trkpt lat="42.27805" lon="1.87969">
        <ele>1476.118</ele>
        <time>2019-04-07T23:31:50Z</time>
      </trkpt>
      <trkpt lat="42.27803" lon="1.87966">
        <ele>1475.498</ele>
        <time>2019-04-07T23:31:51Z</time>
      </trkpt>
      <trkpt lat="42.27802" lon="1.87965">
        <ele>1475.017</ele>
        <time>2019-04-07T23:31:51Z</time>
      </trkpt>
      <trkpt lat="42.27802" lon="1.87965">
        <ele>1474.508</ele>
        <time>2019-04-07T23:31:52Z</time>
      </trkpt>
      <trkpt lat="42.27801" lon="1.87964">
        <ele>1473.994</ele>
        <time>2019-04-07T23:31:52Z</time>
      </trkpt>
      <trkpt lat="42.278" lon="1.87964">
        <ele>1473.646</ele>
        <time>2019-04-07T23:31:52Z</time>
      </trkpt>
      <trkpt lat="42.27799" lon="1.87963">
        <ele>1472.871</ele>
        <time>2019-04-07T23:31:53Z</time>
      </trkpt>
      <trkpt lat="42.27798" lon="1.87962">
        <ele>1472.652</ele>
        <time>2019-04-07T23:31:53Z</time>
      </trkpt>
      <trkpt lat="42.27797" lon="1.87961">
        <ele>1471.212</ele>
        <time>2019-04-07T23:31:54Z</time>
      </trkpt>
      <trkpt lat="42.27797" lon="1.87961">
        <ele>1469.836</ele>
        <time>2019-04-07T23:31:54Z</time>
      </trkpt>
      <trkpt lat="42.27797" lon="1.87961">
        <ele>1469.655</ele>
        <time>2019-04-07T23:31:54Z</time>
      </trkpt>
      <trkpt lat="42.27797" lon="1.87962">
        <ele>1469.257</ele>
        <time>2019-04-07T23:31:54Z</time>
      </trkpt>
      <trkpt lat="42.27797" lon="1.87965">
        <ele>1468.714</ele>
        <time>2019-04-07T23:31:55Z</time>
      </trkpt>
      <trkpt lat="42.27797" lon="1.87967">
        <ele>1467.954</ele>
        <time>2019-04-07T23:31:56Z</time>
      </trkpt>
      <trkpt lat="42.27797" lon="1.87968">
        <ele>1467.109</ele>
        <time>2019-04-07T23:31:56Z</time>
      </trkpt>
      <trkpt lat="42.27796" lon="1.87969">
        <ele>1466.808</ele>
        <time>2019-04-07T23:31:57Z</time>
      </trkpt>
      <trkpt lat="42.27794" lon="1.8797">
        <ele>1466.324</ele>
        <time>2019-04-07T23:31:57Z</time>
      </trkpt>
      <trkpt lat="42.2779" lon="1.87968">
        <ele>1465.256</ele>
        <time>2019-04-07T23:31:59Z</time>
      </trkpt>
      <trkpt lat="42.27789" lon="1.87967">
        <ele>1465.081</ele>
        <time>2019-04-07T23:32:00Z</time>
      </trkpt>
      <trkpt lat="42.27785" lon="1.87961">
        <ele>1463.762</ele>
        <time>2019-04-07T23:32:02Z</time>
      </trkpt>
      <trkpt lat="42.27783" lon="1.87958">
        <ele>1462.922</ele>
        <time>2019-04-07T23:32:03Z</time>
      </trkpt>
      <trkpt lat="42.27782" lon="1.87957">
        <ele>1462.586</ele>
        <time>2019-04-07T23:32:04Z</time>
      </trkpt>
      <trkpt lat="42.27781" lon="1.87955">
        <ele>1461.285</ele>
        <time>2019-04-07T23:32:05Z</time>
      </trkpt>
      <trkpt lat="42.27779" lon="1.87953">
        <ele>1460.617</ele>
        <time>2019-04-07T23:32:05Z</time>
      </trkpt>
      <trkpt lat="42.27778" lon="1.87952">
        <ele>1460.228</ele>
        <time>2019-04-07T23:32:06Z</time>
      </trkpt>
      <trkpt lat="42.27778" lon="1.8795">
        <ele>1460.089</ele>
        <time>2019-04-07T23:32:06Z</time>
      </trkpt>
      <trkpt lat="42.27777" lon="1.87945">
        <ele>1459.117</ele>
        <time>2019-04-07T23:32:08Z</time>
      </trkpt>
      <trkpt lat="42.27777" lon="1.87943">
        <ele>1459.008</ele>
        <time>2019-04-07T23:32:08Z</time>
      </trkpt>
      <trkpt lat="42.27776" lon="1.87941">
        <ele>1458.115</ele>
        <time>2019-04-07T23:32:09Z</time>
      </trkpt>
      <trkpt lat="42.27777" lon="1.87941">
        <ele>1457.547</ele>
        <time>2019-04-07T23:32:09Z</time>
      </trkpt>
      <trkpt lat="42.27776" lon="1.87942">
        <ele>1457.062</ele>
        <time>2019-04-07T23:32:09Z</time>
      </trkpt>
      <trkpt lat="42.27775" lon="1.87944">
        <ele>1456.223</ele>
        <time>2019-04-07T23:32:10Z</time>
      </trkpt>
      <trkpt lat="42.27773" lon="1.87947">
        <ele>1455.863</ele>
        <time>2019-04-07T23:32:11Z</time>
      </trkpt>
      <trkpt lat="42.2777" lon="1.87944">
        <ele>1454.637</ele>
        <time>2019-04-07T23:32:13Z</time>
      </trkpt>
      <trkpt lat="42.27768" lon="1.87945">
        <ele>1454.376</ele>
        <time>2019-04-07T23:32:14Z</time>
      </trkpt>
      <trkpt lat="42.27765" lon="1.87945">
        <ele>1453.528</ele>
        <time>2019-04-07T23:32:15Z</time>
      </trkpt>
      <trkpt lat="42.27763" lon="1.87943">
        <ele>1452.953</ele>
        <time>2019-04-07T23:32:16Z</time>
      </trkpt>
      <trkpt lat="42.27762" lon="1.87942">
        <ele>1452.504</ele>
        <time>2019-04-07T23:32:16Z</time>
      </trkpt>
      <trkpt lat="42.27761" lon="1.87941">
        <ele>1452.114</ele>
        <time>2019-04-07T23:32:17Z</time>
      </trkpt>
      <trkpt lat="42.2776" lon="1.87939">
        <ele>1451.108</ele>
        <time>2019-04-07T23:32:18Z</time>
      </trkpt>
      <trkpt lat="42.2776" lon="1.87938">
        <ele>1450.638</ele>
        <time>2019-04-07T23:32:18Z</time>
      </trkpt>
      <trkpt lat="42.2776" lon="1.87937">
        <ele>1449.63</ele>
        <time>2019-04-07T23:32:18Z</time>
      </trkpt>
      <trkpt lat="42.2776" lon="1.87936">
        <ele>1449.445</ele>
        <time>2019-04-07T23:32:19Z</time>
      </trkpt>
      <trkpt lat="42.2776" lon="1.87935">
        <ele>1449.246</ele>
        <time>2019-04-07T23:32:19Z</time>
      </trkpt>
      <trkpt lat="42.27762" lon="1.87933">
        <ele>1449.246</ele>
        <time>2019-04-07T23:32:20Z</time>
      </trkpt>
      <trkpt lat="42.27764" lon="1.87934">
        <ele>1449.67</ele>
        <time>2019-04-07T23:32:21Z</time>
      </trkpt>
      <trkpt lat="42.27764" lon="1.87935">
        <ele>1449.669</ele>
        <time>2019-04-07T23:32:21Z</time>
      </trkpt>
      <trkpt lat="42.27762" lon="1.87933">
        <ele>1449.641</ele>
        <time>2019-04-07T23:32:22Z</time>
      </trkpt>
      <trkpt lat="42.27759" lon="1.87934">
        <ele>1449.593</ele>
        <time>2019-04-07T23:32:23Z</time>
      </trkpt>
      <trkpt lat="42.27759" lon="1.87934">
        <ele>1449.165</ele>
        <time>2019-04-07T23:32:23Z</time>
      </trkpt>
      <trkpt lat="42.27761" lon="1.87933">
        <ele>1448.521</ele>
        <time>2019-04-07T23:32:24Z</time>
      </trkpt>
      <trkpt lat="42.27762" lon="1.87933">
        <ele>1448.408</ele>
        <time>2019-04-07T23:32:24Z</time>
      </trkpt>
      <trkpt lat="42.27763" lon="1.87933">
        <ele>1448.492</ele>
        <time>2019-04-07T23:32:25Z</time>
      </trkpt>
      <trkpt lat="42.27762" lon="1.87932">
        <ele>1448.514</ele>
        <time>2019-04-07T23:32:25Z</time>
      </trkpt>
      <trkpt lat="42.2776" lon="1.87932">
        <ele>1448.279</ele>
        <time>2019-04-07T23:32:26Z</time>
      </trkpt>
      <trkpt lat="42.2776" lon="1.87929">
        <ele>1447.42</ele>
        <time>2019-04-07T23:32:27Z</time>
      </trkpt>
      <trkpt lat="42.2776" lon="1.87924">
        <ele>1446.23</ele>
        <time>2019-04-07T23:32:28Z</time>
      </trkpt>
      <trkpt lat="42.2776" lon="1.87923">
        <ele>1446.134</ele>
        <time>2019-04-07T23:32:28Z</time>
      </trkpt>
      <trkpt lat="42.27759" lon="1.87919">
        <ele>1445.063</ele>
        <time>2019-04-07T23:32:30Z</time>
      </trkpt>
      <trkpt lat="42.2776" lon="1.87917">
        <ele>1444.065</ele>
        <time>2019-04-07T23:32:30Z</time>
      </trkpt>
      <trkpt lat="42.27759" lon="1.87914">
        <ele>1443.297</ele>
        <time>2019-04-07T23:32:31Z</time>
      </trkpt>
      <trkpt lat="42.27759" lon="1.87914">
        <ele>1442.623</ele>
        <time>2019-04-07T23:32:31Z</time>
      </trkpt>
      <trkpt lat="42.27758" lon="1.87914">
        <ele>1442.425</ele>
        <time>2019-04-07T23:32:32Z</time>
      </trkpt>
      <trkpt lat="42.27756" lon="1.87914">
        <ele>1441.408</ele>
        <time>2019-04-07T23:32:33Z</time>
      </trkpt>
      <trkpt lat="42.27754" lon="1.87915">
        <ele>1440.892</ele>
        <time>2019-04-07T23:32:33Z</time>
      </trkpt>
      <trkpt lat="42.27753" lon="1.87915">
        <ele>1440.224</ele>
        <time>2019-04-07T23:32:34Z</time>
      </trkpt>
      <trkpt lat="42.27751" lon="1.87917">
        <ele>1439.619</ele>
        <time>2019-04-07T23:32:35Z</time>
      </trkpt>
      <trkpt lat="42.27751" lon="1.87917">
        <ele>1439.23</ele>
        <time>2019-04-07T23:32:35Z</time>
      </trkpt>
      <trkpt lat="42.2775" lon="1.87918">
        <ele>1439.17</ele>
        <time>2019-04-07T23:32:35Z</time>
      </trkpt>
      <trkpt lat="42.2775" lon="1.87918">
        <ele>1438.884</ele>
        <time>2019-04-07T23:32:35Z</time>
      </trkpt>
      <trkpt lat="42.27748" lon="1.87919">
        <ele>1438.593</ele>
        <time>2019-04-07T23:32:36Z</time>
      </trkpt>
      <trkpt lat="42.27748" lon="1.87918">
        <ele>1438.145</ele>
        <time>2019-04-07T23:32:36Z</time>
      </trkpt>
      <trkpt lat="42.27747" lon="1.87917">
        <ele>1437.925</ele>
        <time>2019-04-07T23:32:37Z</time>
      </trkpt>
      <trkpt lat="42.27747" lon="1.87914">
        <ele>1437.126</ele>
        <time>2019-04-07T23:32:38Z</time>
      </trkpt>
      <trkpt lat="42.27747" lon="1.87913">
        <ele>1436.508</ele>
        <time>2019-04-07T23:32:38Z</time>
      </trkpt>
      <trkpt lat="42.27747" lon="1.87911">
        <ele>1436.408</ele>
        <time>2019-04-07T23:32:38Z</time>
      </trkpt>
      <trkpt lat="42.27747" lon="1.87908">
        <ele>1435.985</ele>
        <time>2019-04-07T23:32:39Z</time>
      </trkpt>
      <trkpt lat="42.27747" lon="1.87904">
        <ele>1434.927</ele>
        <time>2019-04-07T23:32:40Z</time>
      </trkpt>
      <trkpt lat="42.27746" lon="1.87903">
        <ele>1434.512</ele>
        <time>2019-04-07T23:32:41Z</time>
      </trkpt>
      <trkpt lat="42.27746" lon="1.879">
        <ele>1433.633</ele>
        <time>2019-04-07T23:32:42Z</time>
      </trkpt>
      <trkpt lat="42.27746" lon="1.87899">
        <ele>1433.293</ele>
        <time>2019-04-07T23:32:42Z</time>
      </trkpt>
      <trkpt lat="42.27746" lon="1.87898">
        <ele>1432.917</ele>
        <time>2019-04-07T23:32:42Z</time>
      </trkpt>
      <trkpt lat="42.27747" lon="1.87895">
        <ele>1432.696</ele>
        <time>2019-04-07T23:32:43Z</time>
      </trkpt>
      <trkpt lat="42.27748" lon="1.87892">
        <ele>1431.578</ele>
        <time>2019-04-07T23:32:44Z</time>
      </trkpt>
      <trkpt lat="42.27749" lon="1.87889">
        <ele>1431.284</ele>
        <time>2019-04-07T23:32:45Z</time>
      </trkpt>
      <trkpt lat="42.2775" lon="1.87887">
        <ele>1431.007</ele>
        <time>2019-04-07T23:32:46Z</time>
      </trkpt>
      <trkpt lat="42.2775" lon="1.87886">
        <ele>1430.417</ele>
        <time>2019-04-07T23:32:46Z</time>
      </trkpt>
      <trkpt lat="42.2775" lon="1.87883">
        <ele>1430.108</ele>
        <time>2019-04-07T23:32:47Z</time>
      </trkpt>
      <trkpt lat="42.27749" lon="1.87881">
        <ele>1429.851</ele>
        <time>2019-04-07T23:32:48Z</time>
      </trkpt>
      <trkpt lat="42.27749" lon="1.87879">
        <ele>1429.343</ele>
        <time>2019-04-07T23:32:48Z</time>
      </trkpt>
      <trkpt lat="42.27749" lon="1.87879">
        <ele>1429.278</ele>
        <time>2019-04-07T23:32:48Z</time>
      </trkpt>
      <trkpt lat="42.27752" lon="1.87876">
        <ele>1428.559</ele>
        <time>2019-04-07T23:32:50Z</time>
      </trkpt>
      <trkpt lat="42.27751" lon="1.87874">
        <ele>1428.219</ele>
        <time>2019-04-07T23:32:51Z</time>
      </trkpt>
      <trkpt lat="42.2775" lon="1.87873">
        <ele>1428.153</ele>
        <time>2019-04-07T23:32:51Z</time>
      </trkpt>
      <trkpt lat="42.27748" lon="1.87873">
        <ele>1427.172</ele>
        <time>2019-04-07T23:32:52Z</time>
      </trkpt>
      <trkpt lat="42.27745" lon="1.87872">
        <ele>1426.184</ele>
        <time>2019-04-07T23:32:53Z</time>
      </trkpt>
      <trkpt lat="42.27745" lon="1.87871">
        <ele>1426.055</ele>
        <time>2019-04-07T23:32:53Z</time>
      </trkpt>
      <trkpt lat="42.27742" lon="1.87874">
        <ele>1424.807</ele>
        <time>2019-04-07T23:32:54Z</time>
      </trkpt>
      <trkpt lat="42.27743" lon="1.87874">
        <ele>1424.817</ele>
        <time>2019-04-07T23:32:54Z</time>
      </trkpt>
      <trkpt lat="42.27742" lon="1.87874">
        <ele>1423.508</ele>
        <time>2019-04-07T23:32:54Z</time>
      </trkpt>
      <trkpt lat="42.27741" lon="1.87876">
        <ele>1422.648</ele>
        <time>2019-04-07T23:32:55Z</time>
      </trkpt>
      <trkpt lat="42.2774" lon="1.87876">
        <ele>1422.34</ele>
        <time>2019-04-07T23:32:56Z</time>
      </trkpt>
      <trkpt lat="42.27737" lon="1.87877">
        <ele>1421.575</ele>
        <time>2019-04-07T23:32:57Z</time>
      </trkpt>
      <trkpt lat="42.27736" lon="1.87877">
        <ele>1420.936</ele>
        <time>2019-04-07T23:32:57Z</time>
      </trkpt>
      <trkpt lat="42.27736" lon="1.87878">
        <ele>1420.226</ele>
        <time>2019-04-07T23:32:57Z</time>
      </trkpt>
      <trkpt lat="42.27734" lon="1.8788">
        <ele>1419.55</ele>
        <time>2019-04-07T23:32:58Z</time>
      </trkpt>
      <trkpt lat="42.27733" lon="1.8788">
        <ele>1419.329</ele>
        <time>2019-04-07T23:32:59Z</time>
      </trkpt>
      <trkpt lat="42.2773" lon="1.87878">
        <ele>1418.241</ele>
        <time>2019-04-07T23:33:00Z</time>
      </trkpt>
      <trkpt lat="42.27729" lon="1.87877">
        <ele>1418.193</ele>
        <time>2019-04-07T23:33:00Z</time>
      </trkpt>
      <trkpt lat="42.27729" lon="1.87876">
        <ele>1418.165</ele>
        <time>2019-04-07T23:33:01Z</time>
      </trkpt>
      <trkpt lat="42.27727" lon="1.87872">
        <ele>1417.021</ele>
        <time>2019-04-07T23:33:02Z</time>
      </trkpt>
      <trkpt lat="42.27727" lon="1.87871">
        <ele>1416.808</ele>
        <time>2019-04-07T23:33:03Z</time>
      </trkpt>
      <trkpt lat="42.27727" lon="1.87872">
        <ele>1416.252</ele>
        <time>2019-04-07T23:33:03Z</time>
      </trkpt>
      <trkpt lat="42.27728" lon="1.87872">
        <ele>1416.084</ele>
        <time>2019-04-07T23:33:03Z</time>
      </trkpt>
      <trkpt lat="42.27726" lon="1.87876">
        <ele>1415.899</ele>
        <time>2019-04-07T23:33:04Z</time>
      </trkpt>
      <trkpt lat="42.27726" lon="1.87875">
        <ele>1415.78</ele>
        <time>2019-04-07T23:33:05Z</time>
      </trkpt>
      <trkpt lat="42.27725" lon="1.87875">
        <ele>1415.38</ele>
        <time>2019-04-07T23:33:05Z</time>
      </trkpt>
      <trkpt lat="42.27725" lon="1.87876">
        <ele>1415.134</ele>
        <time>2019-04-07T23:33:05Z</time>
      </trkpt>
      <trkpt lat="42.27721" lon="1.87876">
        <ele>1414.133</ele>
        <time>2019-04-07T23:33:07Z</time>
      </trkpt>
      <trkpt lat="42.2772" lon="1.87876">
        <ele>1413.595</ele>
        <time>2019-04-07T23:33:07Z</time>
      </trkpt>
      <trkpt lat="42.27719" lon="1.87876">
        <ele>1412.857</ele>
        <time>2019-04-07T23:33:07Z</time>
      </trkpt>
      <trkpt lat="42.27719" lon="1.87878">
        <ele>1412.5</ele>
        <time>2019-04-07T23:33:08Z</time>
      </trkpt>
      <trkpt lat="42.27718" lon="1.87879">
        <ele>1411.82</ele>
        <time>2019-04-07T23:33:08Z</time>
      </trkpt>
      <trkpt lat="42.27717" lon="1.87877">
        <ele>1410.808</ele>
        <time>2019-04-07T23:33:09Z</time>
      </trkpt>
      <trkpt lat="42.27716" lon="1.87877">
        <ele>1410.748</ele>
        <time>2019-04-07T23:33:09Z</time>
      </trkpt>
      <trkpt lat="42.27716" lon="1.87877">
        <ele>1410.77</ele>
        <time>2019-04-07T23:33:09Z</time>
      </trkpt>
      <trkpt lat="42.27716" lon="1.8788">
        <ele>1409.765</ele>
        <time>2019-04-07T23:33:10Z</time>
      </trkpt>
      <trkpt lat="42.27712" lon="1.87882">
        <ele>1408.546</ele>
        <time>2019-04-07T23:33:12Z</time>
      </trkpt>
      <trkpt lat="42.27711" lon="1.87882">
        <ele>1408.516</ele>
        <time>2019-04-07T23:33:12Z</time>
      </trkpt>
      <trkpt lat="42.27707" lon="1.87883">
        <ele>1407.67</ele>
        <time>2019-04-07T23:33:14Z</time>
      </trkpt>
      <trkpt lat="42.27706" lon="1.87881">
        <ele>1406.259</ele>
        <time>2019-04-07T23:33:15Z</time>
      </trkpt>
      <trkpt lat="42.27706" lon="1.87881">
        <ele>1406.281</ele>
        <time>2019-04-07T23:33:15Z</time>
      </trkpt>
      <trkpt lat="42.27706" lon="1.87881">
        <ele>1406.291</ele>
        <time>2019-04-07T23:33:15Z</time>
      </trkpt>
      <trkpt lat="42.27704" lon="1.87885">
        <ele>1406.281</ele>
        <time>2019-04-07T23:33:16Z</time>
      </trkpt>
      <trkpt lat="42.27704" lon="1.87887">
        <ele>1406.019</ele>
        <time>2019-04-07T23:33:17Z</time>
      </trkpt>
      <trkpt lat="42.27705" lon="1.87885">
        <ele>1406.008</ele>
        <time>2019-04-07T23:33:17Z</time>
      </trkpt>
      <trkpt lat="42.27704" lon="1.87886">
        <ele>1405.842</ele>
        <time>2019-04-07T23:33:18Z</time>
      </trkpt>
      <trkpt lat="42.27704" lon="1.87883">
        <ele>1405.544</ele>
        <time>2019-04-07T23:33:19Z</time>
      </trkpt>
      <trkpt lat="42.27703" lon="1.87882">
        <ele>1405.149</ele>
        <time>2019-04-07T23:33:19Z</time>
      </trkpt>
      <trkpt lat="42.27703" lon="1.87882">
        <ele>1404.51</ele>
        <time>2019-04-07T23:33:19Z</time>
      </trkpt>
      <trkpt lat="42.27702" lon="1.87883">
        <ele>1404.14</ele>
        <time>2019-04-07T23:33:20Z</time>
      </trkpt>
      <trkpt lat="42.27701" lon="1.87882">
        <ele>1403.174</ele>
        <time>2019-04-07T23:33:20Z</time>
      </trkpt>
      <trkpt lat="42.27701" lon="1.8788">
        <ele>1401.943</ele>
        <time>2019-04-07T23:33:21Z</time>
      </trkpt>
      <trkpt lat="42.27702" lon="1.87879">
        <ele>1401.135</ele>
        <time>2019-04-07T23:33:21Z</time>
      </trkpt>
      <trkpt lat="42.27699" lon="1.87877">
        <ele>1401.238</ele>
        <time>2019-04-07T23:33:23Z</time>
      </trkpt>
      <trkpt lat="42.27699" lon="1.87877">
        <ele>1400.77</ele>
        <time>2019-04-07T23:33:23Z</time>
      </trkpt>
      <trkpt lat="42.27699" lon="1.87878">
        <ele>1399.517</ele>
        <time>2019-04-07T23:33:23Z</time>
      </trkpt>
      <trkpt lat="42.27697" lon="1.8788">
        <ele>1398.808</ele>
        <time>2019-04-07T23:33:24Z</time>
      </trkpt>
      <trkpt lat="42.27697" lon="1.8788">
        <ele>1398.776</ele>
        <time>2019-04-07T23:33:24Z</time>
      </trkpt>
      <trkpt lat="42.27695" lon="1.87882">
        <ele>1397.538</ele>
        <time>2019-04-07T23:33:25Z</time>
      </trkpt>
      <trkpt lat="42.27694" lon="1.87884">
        <ele>1397.023</ele>
        <time>2019-04-07T23:33:26Z</time>
      </trkpt>
      <trkpt lat="42.27694" lon="1.87885">
        <ele>1396.584</ele>
        <time>2019-04-07T23:33:26Z</time>
      </trkpt>
      <trkpt lat="42.27688" lon="1.8789">
        <ele>1395.284</ele>
        <time>2019-04-07T23:33:29Z</time>
      </trkpt>
      <trkpt lat="42.27686" lon="1.87891">
        <ele>1395.068</ele>
        <time>2019-04-07T23:33:29Z</time>
      </trkpt>
      <trkpt lat="42.27682" lon="1.87892">
        <ele>1394.037</ele>
        <time>2019-04-07T23:33:31Z</time>
      </trkpt>
      <trkpt lat="42.27679" lon="1.87893">
        <ele>1393.289</ele>
        <time>2019-04-07T23:33:32Z</time>
      </trkpt>
      <trkpt lat="42.27677" lon="1.87893">
        <ele>1393.274</ele>
        <time>2019-04-07T23:33:33Z</time>
      </trkpt>
      <trkpt lat="42.27674" lon="1.87895">
        <ele>1392.456</ele>
        <time>2019-04-07T23:33:35Z</time>
      </trkpt>
      <trkpt lat="42.27672" lon="1.87895">
        <ele>1392.121</ele>
        <time>2019-04-07T23:33:35Z</time>
      </trkpt>
      <trkpt lat="42.27671" lon="1.87895">
        <ele>1391.808</ele>
        <time>2019-04-07T23:33:36Z</time>
      </trkpt>
      <trkpt lat="42.2767" lon="1.87895">
        <ele>1391.72</ele>
        <time>2019-04-07T23:33:36Z</time>
      </trkpt>
      <trkpt lat="42.2767" lon="1.87895">
        <ele>1391.272</ele>
        <time>2019-04-07T23:33:36Z</time>
      </trkpt>
      <trkpt lat="42.27669" lon="1.87895">
        <ele>1390.817</ele>
        <time>2019-04-07T23:33:36Z</time>
      </trkpt>
      <trkpt lat="42.27668" lon="1.87895">
        <ele>1390.648</ele>
        <time>2019-04-07T23:33:37Z</time>
      </trkpt>
      <trkpt lat="42.27665" lon="1.87894">
        <ele>1389.298</ele>
        <time>2019-04-07T23:33:38Z</time>
      </trkpt>
      <trkpt lat="42.27664" lon="1.87895">
        <ele>1388.912</ele>
        <time>2019-04-07T23:33:39Z</time>
      </trkpt>
      <trkpt lat="42.27663" lon="1.87895">
        <ele>1388.211</ele>
        <time>2019-04-07T23:33:39Z</time>
      </trkpt>
      <trkpt lat="42.27662" lon="1.87894">
        <ele>1387.533</ele>
        <time>2019-04-07T23:33:40Z</time>
      </trkpt>
      <trkpt lat="42.27661" lon="1.87893">
        <ele>1387.212</ele>
        <time>2019-04-07T23:33:40Z</time>
      </trkpt>
      <trkpt lat="42.27661" lon="1.87892">
        <ele>1387.032</ele>
        <time>2019-04-07T23:33:40Z</time>
      </trkpt>
      <trkpt lat="42.2766" lon="1.87891">
        <ele>1386.805</ele>
        <time>2019-04-07T23:33:41Z</time>
      </trkpt>
      <trkpt lat="42.27659" lon="1.87887">
        <ele>1386.108</ele>
        <time>2019-04-07T23:33:42Z</time>
      </trkpt>
      <trkpt lat="42.27657" lon="1.87885">
        <ele>1386.264</ele>
        <time>2019-04-07T23:33:43Z</time>
      </trkpt>
      <trkpt lat="42.27656" lon="1.87883">
        <ele>1385.976</ele>
        <time>2019-04-07T23:33:43Z</time>
      </trkpt>
      <trkpt lat="42.27655" lon="1.87876">
        <ele>1385.141</ele>
        <time>2019-04-07T23:33:46Z</time>
      </trkpt>
      <trkpt lat="42.27656" lon="1.87875">
        <ele>1385.032</ele>
        <time>2019-04-07T23:33:46Z</time>
      </trkpt>
      <trkpt lat="42.27658" lon="1.87874">
        <ele>1385.072</ele>
        <time>2019-04-07T23:33:47Z</time>
      </trkpt>
      <trkpt lat="42.27659" lon="1.87868">
        <ele>1385.126</ele>
        <time>2019-04-07T23:33:49Z</time>
      </trkpt>
      <trkpt lat="42.27661" lon="1.87865">
        <ele>1385.085</ele>
        <time>2019-04-07T23:33:50Z</time>
      </trkpt>
      <trkpt lat="42.27662" lon="1.87864">
        <ele>1384.927</ele>
        <time>2019-04-07T23:33:50Z</time>
      </trkpt>
      <trkpt lat="42.27663" lon="1.87862">
        <ele>1385.283</ele>
        <time>2019-04-07T23:33:51Z</time>
      </trkpt>
      <trkpt lat="42.27667" lon="1.87853">
        <ele>1385.225</ele>
        <time>2019-04-07T23:33:54Z</time>
      </trkpt>
      <trkpt lat="42.27668" lon="1.87851">
        <ele>1385.117</ele>
        <time>2019-04-07T23:33:55Z</time>
      </trkpt>
      <trkpt lat="42.27671" lon="1.87844">
        <ele>1385.808</ele>
        <time>2019-04-07T23:33:57Z</time>
      </trkpt>
      <trkpt lat="42.27672" lon="1.87838">
        <ele>1386.671</ele>
        <time>2019-04-07T23:33:59Z</time>
      </trkpt>
      <trkpt lat="42.27674" lon="1.8783">
        <ele>1387.043</ele>
        <time>2019-04-07T23:34:02Z</time>
      </trkpt>
      <trkpt lat="42.27676" lon="1.87823">
        <ele>1388.138</ele>
        <time>2019-04-07T23:34:04Z</time>
      </trkpt>
      <trkpt lat="42.27677" lon="1.87822">
        <ele>1388.149</ele>
        <time>2019-04-07T23:34:04Z</time>
      </trkpt>
      <trkpt lat="42.27677" lon="1.87818">
        <ele>1388.219</ele>
        <time>2019-04-07T23:34:05Z</time>
      </trkpt>
      <trkpt lat="42.27677" lon="1.87814">
        <ele>1389.293</ele>
        <time>2019-04-07T23:34:07Z</time>
      </trkpt>
      <trkpt lat="42.27676" lon="1.87809">
        <ele>1390.242</ele>
        <time>2019-04-07T23:34:08Z</time>
      </trkpt>
      <trkpt lat="42.27676" lon="1.87806">
        <ele>1390.184</ele>
        <time>2019-04-07T23:34:09Z</time>
      </trkpt>
      <trkpt lat="42.27677" lon="1.87801">
        <ele>1390.546</ele>
        <time>2019-04-07T23:34:10Z</time>
      </trkpt>
      <trkpt lat="42.27677" lon="1.87796">
        <ele>1390.688</ele>
        <time>2019-04-07T23:34:12Z</time>
      </trkpt>
      <trkpt lat="42.27677" lon="1.87794">
        <ele>1390.516</ele>
        <time>2019-04-07T23:34:12Z</time>
      </trkpt>
      <trkpt lat="42.27678" lon="1.87793">
        <ele>1390.408</ele>
        <time>2019-04-07T23:34:13Z</time>
      </trkpt>
      <trkpt lat="42.27678" lon="1.87791">
        <ele>1390.537</ele>
        <time>2019-04-07T23:34:13Z</time>
      </trkpt>
      <trkpt lat="42.27678" lon="1.87789">
        <ele>1390.579</ele>
        <time>2019-04-07T23:34:14Z</time>
      </trkpt>
      <trkpt lat="42.27679" lon="1.87787">
        <ele>1390.444</ele>
        <time>2019-04-07T23:34:15Z</time>
      </trkpt>
      <trkpt lat="42.27679" lon="1.87785">
        <ele>1390.665</ele>
        <time>2019-04-07T23:34:15Z</time>
      </trkpt>
      <trkpt lat="42.27679" lon="1.87783">
        <ele>1390.975</ele>
        <time>2019-04-07T23:34:16Z</time>
      </trkpt>
      <trkpt lat="42.2768" lon="1.87781">
        <ele>1391.229</ele>
        <time>2019-04-07T23:34:16Z</time>
      </trkpt>
      <trkpt lat="42.27681" lon="1.87776">
        <ele>1391.668</ele>
        <time>2019-04-07T23:34:18Z</time>
      </trkpt>
      <trkpt lat="42.27682" lon="1.87774">
        <ele>1392.26</ele>
        <time>2019-04-07T23:34:19Z</time>
      </trkpt>
      <trkpt lat="42.27682" lon="1.87773">
        <ele>1392.395</ele>
        <time>2019-04-07T23:34:19Z</time>
      </trkpt>
      <trkpt lat="42.27682" lon="1.8777">
        <ele>1392.749</ele>
        <time>2019-04-07T23:34:20Z</time>
      </trkpt>
      <trkpt lat="42.27682" lon="1.87769">
        <ele>1392.823</ele>
        <time>2019-04-07T23:34:20Z</time>
      </trkpt>
      <trkpt lat="42.27684" lon="1.87766">
        <ele>1393.408</ele>
        <time>2019-04-07T23:34:21Z</time>
      </trkpt>
      <trkpt lat="42.27686" lon="1.8776">
        <ele>1394.142</ele>
        <time>2019-04-07T23:34:23Z</time>
      </trkpt>
      <trkpt lat="42.27687" lon="1.87758">
        <ele>1394.574</ele>
        <time>2019-04-07T23:34:24Z</time>
      </trkpt>
      <trkpt lat="42.27687" lon="1.87752">
        <ele>1395.799</ele>
        <time>2019-04-07T23:34:26Z</time>
      </trkpt>
      <trkpt lat="42.27688" lon="1.87749">
        <ele>1396.23</ele>
        <time>2019-04-07T23:34:27Z</time>
      </trkpt>
      <trkpt lat="42.27689" lon="1.87744">
        <ele>1396.77</ele>
        <time>2019-04-07T23:34:28Z</time>
      </trkpt>
      <trkpt lat="42.2769" lon="1.87737">
        <ele>1397.734</ele>
        <time>2019-04-07T23:34:30Z</time>
      </trkpt>
      <trkpt lat="42.2769" lon="1.87735">
        <ele>1397.943</ele>
        <time>2019-04-07T23:34:31Z</time>
      </trkpt>
      <trkpt lat="42.27694" lon="1.87725">
        <ele>1398.685</ele>
        <time>2019-04-07T23:34:34Z</time>
      </trkpt>
      <trkpt lat="42.27695" lon="1.87719">
        <ele>1399.217</ele>
        <time>2019-04-07T23:34:36Z</time>
      </trkpt>
      <trkpt lat="42.27697" lon="1.87713">
        <ele>1399.687</ele>
        <time>2019-04-07T23:34:38Z</time>
      </trkpt>
      <trkpt lat="42.27698" lon="1.87709">
        <ele>1399.515</ele>
        <time>2019-04-07T23:34:39Z</time>
      </trkpt>
      <trkpt lat="42.27699" lon="1.87704">
        <ele>1399.808</ele>
        <time>2019-04-07T23:34:41Z</time>
      </trkpt>
      <trkpt lat="42.27701" lon="1.87702">
        <ele>1400.054</ele>
        <time>2019-04-07T23:34:42Z</time>
      </trkpt>
      <trkpt lat="42.27703" lon="1.87699">
        <ele>1400.286</ele>
        <time>2019-04-07T23:34:43Z</time>
      </trkpt>
      <trkpt lat="42.27705" lon="1.87697">
        <ele>1400.591</ele>
        <time>2019-04-07T23:34:44Z</time>
      </trkpt>
      <trkpt lat="42.27705" lon="1.87695">
        <ele>1400.562</ele>
        <time>2019-04-07T23:34:44Z</time>
      </trkpt>
      <trkpt lat="42.27706" lon="1.87694">
        <ele>1400.852</ele>
        <time>2019-04-07T23:34:45Z</time>
      </trkpt>
      <trkpt lat="42.27706" lon="1.87691">
        <ele>1401.166</ele>
        <time>2019-04-07T23:34:46Z</time>
      </trkpt>
      <trkpt lat="42.27707" lon="1.87688">
        <ele>1401.755</ele>
        <time>2019-04-07T23:34:47Z</time>
      </trkpt>
      <trkpt lat="42.27708" lon="1.87687">
        <ele>1401.977</ele>
        <time>2019-04-07T23:34:47Z</time>
      </trkpt>
      <trkpt lat="42.27711" lon="1.87684">
        <ele>1402.277</ele>
        <time>2019-04-07T23:34:49Z</time>
      </trkpt>
      <trkpt lat="42.27712" lon="1.87681">
        <ele>1402.561</ele>
        <time>2019-04-07T23:34:50Z</time>
      </trkpt>
      <trkpt lat="42.27713" lon="1.87678">
        <ele>1403.027</ele>
        <time>2019-04-07T23:34:51Z</time>
      </trkpt>
      <trkpt lat="42.27714" lon="1.87677">
        <ele>1403.008</ele>
        <time>2019-04-07T23:34:51Z</time>
      </trkpt>
      <trkpt lat="42.27714" lon="1.87674">
        <ele>1403.56</ele>
        <time>2019-04-07T23:34:52Z</time>
      </trkpt>
      <trkpt lat="42.27714" lon="1.87672">
        <ele>1403.812</ele>
        <time>2019-04-07T23:34:53Z</time>
      </trkpt>
      <trkpt lat="42.27714" lon="1.8767">
        <ele>1404.287</ele>
        <time>2019-04-07T23:34:53Z</time>
      </trkpt>
      <trkpt lat="42.27713" lon="1.87667">
        <ele>1404.628</ele>
        <time>2019-04-07T23:34:54Z</time>
      </trkpt>
      <trkpt lat="42.27711" lon="1.87665">
        <ele>1405.198</ele>
        <time>2019-04-07T23:34:55Z</time>
      </trkpt>
      <trkpt lat="42.27711" lon="1.87663">
        <ele>1405.292</ele>
        <time>2019-04-07T23:34:56Z</time>
      </trkpt>
      <trkpt lat="42.2771" lon="1.87663">
        <ele>1405.531</ele>
        <time>2019-04-07T23:34:56Z</time>
      </trkpt>
      <trkpt lat="42.2771" lon="1.87662">
        <ele>1405.583</ele>
        <time>2019-04-07T23:34:56Z</time>
      </trkpt>
      <trkpt lat="42.27708" lon="1.87654">
        <ele>1406.248</ele>
        <time>2019-04-07T23:34:58Z</time>
      </trkpt>
      <trkpt lat="42.27708" lon="1.87649">
        <ele>1406.961</ele>
        <time>2019-04-07T23:35:00Z</time>
      </trkpt>
      <trkpt lat="42.27707" lon="1.87639">
        <ele>1407.017</ele>
        <time>2019-04-07T23:35:03Z</time>
      </trkpt>
      <trkpt lat="42.27708" lon="1.87636">
        <ele>1406.808</ele>
        <time>2019-04-07T23:35:04Z</time>
      </trkpt>
      <trkpt lat="42.27711" lon="1.87623">
        <ele>1406.557</ele>
        <time>2019-04-07T23:35:08Z</time>
      </trkpt>
      <trkpt lat="42.27711" lon="1.87613">
        <ele>1405.299</ele>
        <time>2019-04-07T23:35:11Z</time>
      </trkpt>
      <trkpt lat="42.27709" lon="1.87607">
        <ele>1404.074</ele>
        <time>2019-04-07T23:35:13Z</time>
      </trkpt>
      <trkpt lat="42.27707" lon="1.87605">
        <ele>1403.995</ele>
        <time>2019-04-07T23:35:14Z</time>
      </trkpt>
      <trkpt lat="42.27703" lon="1.876">
        <ele>1403.065</ele>
        <time>2019-04-07T23:35:16Z</time>
      </trkpt>
      <trkpt lat="42.27701" lon="1.87596">
        <ele>1402.739</ele>
        <time>2019-04-07T23:35:17Z</time>
      </trkpt>
      <trkpt lat="42.27693" lon="1.8759">
        <ele>1401.698</ele>
        <time>2019-04-07T23:35:21Z</time>
      </trkpt>
      <trkpt lat="42.27688" lon="1.87587">
        <ele>1401.53</ele>
        <time>2019-04-07T23:35:23Z</time>
      </trkpt>
      <trkpt lat="42.27683" lon="1.87581">
        <ele>1400.731</ele>
        <time>2019-04-07T23:35:26Z</time>
      </trkpt>
      <trkpt lat="42.27677" lon="1.87574">
        <ele>1399.861</ele>
        <time>2019-04-07T23:35:29Z</time>
      </trkpt>
      <trkpt lat="42.27674" lon="1.87565">
        <ele>1399.407</ele>
        <time>2019-04-07T23:35:32Z</time>
      </trkpt>
      <trkpt lat="42.2767" lon="1.87557">
        <ele>1398.808</ele>
        <time>2019-04-07T23:35:35Z</time>
      </trkpt>
      <trkpt lat="42.27669" lon="1.87555">
        <ele>1398.456</ele>
        <time>2019-04-07T23:35:35Z</time>
      </trkpt>
      <trkpt lat="42.27665" lon="1.87533">
        <ele>1397.698</ele>
        <time>2019-04-07T23:35:42Z</time>
      </trkpt>
      <trkpt lat="42.27664" lon="1.87526">
        <ele>1397.263</ele>
        <time>2019-04-07T23:35:44Z</time>
      </trkpt>
      <trkpt lat="42.27666" lon="1.8751">
        <ele>1396.594</ele>
        <time>2019-04-07T23:35:49Z</time>
      </trkpt>
      <trkpt lat="42.27663" lon="1.87494">
        <ele>1396.324</ele>
        <time>2019-04-07T23:35:54Z</time>
      </trkpt>
      <trkpt lat="42.27662" lon="1.87492">
        <ele>1396.318</ele>
        <time>2019-04-07T23:35:55Z</time>
      </trkpt>
      <trkpt lat="42.27654" lon="1.87478">
        <ele>1395.347</ele>
        <time>2019-04-07T23:36:00Z</time>
      </trkpt>
      <trkpt lat="42.27646" lon="1.87463">
        <ele>1394.399</ele>
        <time>2019-04-07T23:36:05Z</time>
      </trkpt>
      <trkpt lat="42.27643" lon="1.8746">
        <ele>1393.568</ele>
        <time>2019-04-07T23:36:07Z</time>
      </trkpt>
      <trkpt lat="42.27639" lon="1.87457">
        <ele>1393.942</ele>
        <time>2019-04-07T23:36:09Z</time>
      </trkpt>
      <trkpt lat="42.27631" lon="1.87446">
        <ele>1393.826</ele>
        <time>2019-04-07T23:36:13Z</time>
      </trkpt>
      <trkpt lat="42.27628" lon="1.8743">
        <ele>1393.808</ele>
        <time>2019-04-07T23:36:18Z</time>
      </trkpt>
      <trkpt lat="42.27627" lon="1.87427">
        <ele>1393.699</ele>
        <time>2019-04-07T23:36:19Z</time>
      </trkpt>
      <trkpt lat="42.27626" lon="1.87421">
        <ele>1393.571</ele>
        <time>2019-04-07T23:36:21Z</time>
      </trkpt>
      <trkpt lat="42.27626" lon="1.87412">
        <ele>1393.116</ele>
        <time>2019-04-07T23:36:23Z</time>
      </trkpt>
      <trkpt lat="42.27625" lon="1.87401">
        <ele>1393.557</ele>
        <time>2019-04-07T23:36:27Z</time>
      </trkpt>
      <trkpt lat="42.27624" lon="1.87382">
        <ele>1394.147</ele>
        <time>2019-04-07T23:36:32Z</time>
      </trkpt>
      <trkpt lat="42.27623" lon="1.87377">
        <ele>1394.211</ele>
        <time>2019-04-07T23:36:34Z</time>
      </trkpt>
      <trkpt lat="42.27622" lon="1.87371">
        <ele>1394.34</ele>
        <time>2019-04-07T23:36:36Z</time>
      </trkpt>
      <trkpt lat="42.27622" lon="1.87366">
        <ele>1394.222</ele>
        <time>2019-04-07T23:36:37Z</time>
      </trkpt>
      <trkpt lat="42.27622" lon="1.87345">
        <ele>1393.047</ele>
        <time>2019-04-07T23:36:43Z</time>
      </trkpt>
      <trkpt lat="42.27629" lon="1.87331">
        <ele>1392.329</ele>
        <time>2019-04-07T23:36:48Z</time>
      </trkpt>
      <trkpt lat="42.27631" lon="1.8733">
        <ele>1391.821</ele>
        <time>2019-04-07T23:36:49Z</time>
      </trkpt>
      <trkpt lat="42.27639" lon="1.8732">
        <ele>1391.008</ele>
        <time>2019-04-07T23:36:53Z</time>
      </trkpt>
      <trkpt lat="42.27641" lon="1.87318">
        <ele>1390.697</ele>
        <time>2019-04-07T23:36:54Z</time>
      </trkpt>
      <trkpt lat="42.27648" lon="1.87311">
        <ele>1389.539</ele>
        <time>2019-04-07T23:36:58Z</time>
      </trkpt>
      <trkpt lat="42.27655" lon="1.87303">
        <ele>1388.284</ele>
        <time>2019-04-07T23:37:02Z</time>
      </trkpt>
      <trkpt lat="42.27658" lon="1.87299">
        <ele>1388.155</ele>
        <time>2019-04-07T23:37:03Z</time>
      </trkpt>
      <trkpt lat="42.27668" lon="1.87288">
        <ele>1387.255</ele>
        <time>2019-04-07T23:37:09Z</time>
      </trkpt>
      <trkpt lat="42.27671" lon="1.87286">
        <ele>1387.059</ele>
        <time>2019-04-07T23:37:10Z</time>
      </trkpt>
      <trkpt lat="42.27676" lon="1.87281">
        <ele>1385.818</ele>
        <time>2019-04-07T23:37:12Z</time>
      </trkpt>
      <trkpt lat="42.27679" lon="1.87277">
        <ele>1385.65</ele>
        <time>2019-04-07T23:37:14Z</time>
      </trkpt>
      <trkpt lat="42.27682" lon="1.87273">
        <ele>1384.723</ele>
        <time>2019-04-07T23:37:16Z</time>
      </trkpt>
      <trkpt lat="42.27686" lon="1.87265">
        <ele>1383.583</ele>
        <time>2019-04-07T23:37:18Z</time>
      </trkpt>
      <trkpt lat="42.27687" lon="1.87263">
        <ele>1383.111</ele>
        <time>2019-04-07T23:37:19Z</time>
      </trkpt>
      <trkpt lat="42.27693" lon="1.87246">
        <ele>1382.408</ele>
        <time>2019-04-07T23:37:25Z</time>
      </trkpt>
      <trkpt lat="42.2769" lon="1.87242">
        <ele>1381.125</ele>
        <time>2019-04-07T23:37:26Z</time>
      </trkpt>
      <trkpt lat="42.27689" lon="1.87243">
        <ele>1380.927</ele>
        <time>2019-04-07T23:37:27Z</time>
      </trkpt>
      <trkpt lat="42.27688" lon="1.87244">
        <ele>1380.612</ele>
        <time>2019-04-07T23:37:27Z</time>
      </trkpt>
      <trkpt lat="42.27683" lon="1.87248">
        <ele>1379.783</ele>
        <time>2019-04-07T23:37:30Z</time>
      </trkpt>
      <trkpt lat="42.27672" lon="1.87254">
        <ele>1378.523</ele>
        <time>2019-04-07T23:37:34Z</time>
      </trkpt>
      <trkpt lat="42.2767" lon="1.87255">
        <ele>1378.647</ele>
        <time>2019-04-07T23:37:35Z</time>
      </trkpt>
      <trkpt lat="42.27664" lon="1.87257">
        <ele>1377.446</ele>
        <time>2019-04-07T23:37:38Z</time>
      </trkpt>
      <trkpt lat="42.2766" lon="1.87259">
        <ele>1376.538</ele>
        <time>2019-04-07T23:37:39Z</time>
      </trkpt>
      <trkpt lat="42.27656" lon="1.8726">
        <ele>1376.638</ele>
        <time>2019-04-07T23:37:41Z</time>
      </trkpt>
      <trkpt lat="42.27654" lon="1.87261">
        <ele>1376.67</ele>
        <time>2019-04-07T23:37:42Z</time>
      </trkpt>
      <trkpt lat="42.27652" lon="1.8726">
        <ele>1376.417</ele>
        <time>2019-04-07T23:37:43Z</time>
      </trkpt>
      <trkpt lat="42.27652" lon="1.87259">
        <ele>1376.408</ele>
        <time>2019-04-07T23:37:43Z</time>
      </trkpt>
      <trkpt lat="42.2765" lon="1.87256">
        <ele>1375.146</ele>
        <time>2019-04-07T23:37:44Z</time>
      </trkpt>
      <trkpt lat="42.27647" lon="1.87251">
        <ele>1374.738</ele>
        <time>2019-04-07T23:37:46Z</time>
      </trkpt>
      <trkpt lat="42.27648" lon="1.87243">
        <ele>1374.623</ele>
        <time>2019-04-07T23:37:48Z</time>
      </trkpt>
      <trkpt lat="42.27649" lon="1.87241">
        <ele>1374.684</ele>
        <time>2019-04-07T23:37:49Z</time>
      </trkpt>
      <trkpt lat="42.27654" lon="1.87234">
        <ele>1374.534</ele>
        <time>2019-04-07T23:37:52Z</time>
      </trkpt>
      <trkpt lat="42.27657" lon="1.87235">
        <ele>1374.648</ele>
        <time>2019-04-07T23:37:53Z</time>
      </trkpt>
      <trkpt lat="42.2766" lon="1.87235">
        <ele>1374.777</ele>
        <time>2019-04-07T23:37:54Z</time>
      </trkpt>
      <trkpt lat="42.2766" lon="1.87235">
        <ele>1374.599</ele>
        <time>2019-04-07T23:37:54Z</time>
      </trkpt>
      <trkpt lat="42.27661" lon="1.87233">
        <ele>1374.359</ele>
        <time>2019-04-07T23:37:55Z</time>
      </trkpt>
      <trkpt lat="42.27661" lon="1.87232">
        <ele>1374.103</ele>
        <time>2019-04-07T23:37:56Z</time>
      </trkpt>
      <trkpt lat="42.27661" lon="1.87228">
        <ele>1373.523</ele>
        <time>2019-04-07T23:37:57Z</time>
      </trkpt>
      <trkpt lat="42.27659" lon="1.87226">
        <ele>1373.008</ele>
        <time>2019-04-07T23:37:58Z</time>
      </trkpt>
      <trkpt lat="42.27658" lon="1.87226">
        <ele>1372.878</ele>
        <time>2019-04-07T23:37:58Z</time>
      </trkpt>
      <trkpt lat="42.27656" lon="1.87226">
        <ele>1372.03</ele>
        <time>2019-04-07T23:37:59Z</time>
      </trkpt>
      <trkpt lat="42.27654" lon="1.87228">
        <ele>1372.055</ele>
        <time>2019-04-07T23:38:00Z</time>
      </trkpt>
      <trkpt lat="42.27654" lon="1.87228">
        <ele>1372.016</ele>
        <time>2019-04-07T23:38:00Z</time>
      </trkpt>
      <trkpt lat="42.27654" lon="1.87229">
        <ele>1372.016</ele>
        <time>2019-04-07T23:38:00Z</time>
      </trkpt>
      <trkpt lat="42.27654" lon="1.87229">
        <ele>1371.94</ele>
        <time>2019-04-07T23:38:00Z</time>
      </trkpt>
      <trkpt lat="42.27655" lon="1.87229">
        <ele>1371.639</ele>
        <time>2019-04-07T23:38:01Z</time>
      </trkpt>
      <trkpt lat="42.27655" lon="1.87225">
        <ele>1371.671</ele>
        <time>2019-04-07T23:38:02Z</time>
      </trkpt>
      <trkpt lat="42.27656" lon="1.87221">
        <ele>1371.069</ele>
        <time>2019-04-07T23:38:03Z</time>
      </trkpt>
      <trkpt lat="42.27656" lon="1.87219">
        <ele>1370.404</ele>
        <time>2019-04-07T23:38:04Z</time>
      </trkpt>
      <trkpt lat="42.27657" lon="1.87218">
        <ele>1370.024</ele>
        <time>2019-04-07T23:38:04Z</time>
      </trkpt>
      <trkpt lat="42.27656" lon="1.87216">
        <ele>1369.508</ele>
        <time>2019-04-07T23:38:05Z</time>
      </trkpt>
      <trkpt lat="42.27656" lon="1.87214">
        <ele>1368.549</ele>
        <time>2019-04-07T23:38:05Z</time>
      </trkpt>
      <trkpt lat="42.27656" lon="1.87213">
        <ele>1368.221</ele>
        <time>2019-04-07T23:38:06Z</time>
      </trkpt>
      <trkpt lat="42.27656" lon="1.87211">
        <ele>1368.026</ele>
        <time>2019-04-07T23:38:06Z</time>
      </trkpt>
      <trkpt lat="42.27656" lon="1.87209">
        <ele>1367.767</ele>
        <time>2019-04-07T23:38:07Z</time>
      </trkpt>
      <trkpt lat="42.27656" lon="1.8721">
        <ele>1367.617</ele>
        <time>2019-04-07T23:38:07Z</time>
      </trkpt>
      <trkpt lat="42.27655" lon="1.87209">
        <ele>1367.751</ele>
        <time>2019-04-07T23:38:07Z</time>
      </trkpt>
      <trkpt lat="42.27655" lon="1.87206">
        <ele>1367.68</ele>
        <time>2019-04-07T23:38:08Z</time>
      </trkpt>
      <trkpt lat="42.27656" lon="1.872">
        <ele>1367.542</ele>
        <time>2019-04-07T23:38:10Z</time>
      </trkpt>
      <trkpt lat="42.27657" lon="1.87195">
        <ele>1367.216</ele>
        <time>2019-04-07T23:38:11Z</time>
      </trkpt>
      <trkpt lat="42.27659" lon="1.8719">
        <ele>1366.176</ele>
        <time>2019-04-07T23:38:13Z</time>
      </trkpt>
      <trkpt lat="42.2766" lon="1.87188">
        <ele>1365.513</ele>
        <time>2019-04-07T23:38:14Z</time>
      </trkpt>
      <trkpt lat="42.2766" lon="1.87186">
        <ele>1365.108</ele>
        <time>2019-04-07T23:38:14Z</time>
      </trkpt>
      <trkpt lat="42.2766" lon="1.87184">
        <ele>1364.964</ele>
        <time>2019-04-07T23:38:15Z</time>
      </trkpt>
      <trkpt lat="42.2766" lon="1.87183">
        <ele>1364.416</ele>
        <time>2019-04-07T23:38:15Z</time>
      </trkpt>
      <trkpt lat="42.2766" lon="1.8718">
        <ele>1363.461</ele>
        <time>2019-04-07T23:38:16Z</time>
      </trkpt>
      <trkpt lat="42.2766" lon="1.8718">
        <ele>1363.142</ele>
        <time>2019-04-07T23:38:16Z</time>
      </trkpt>
      <trkpt lat="42.27661" lon="1.87177">
        <ele>1362.322</ele>
        <time>2019-04-07T23:38:17Z</time>
      </trkpt>
      <trkpt lat="42.27662" lon="1.87176">
        <ele>1362.126</ele>
        <time>2019-04-07T23:38:17Z</time>
      </trkpt>
      <trkpt lat="42.27665" lon="1.87177">
        <ele>1361.215</ele>
        <time>2019-04-07T23:38:19Z</time>
      </trkpt>
      <trkpt lat="42.27666" lon="1.87178">
        <ele>1361.147</ele>
        <time>2019-04-07T23:38:19Z</time>
      </trkpt>
      <trkpt lat="42.27668" lon="1.87179">
        <ele>1360.157</ele>
        <time>2019-04-07T23:38:20Z</time>
      </trkpt>
      <trkpt lat="42.2767" lon="1.8718">
        <ele>1359.6</ele>
        <time>2019-04-07T23:38:21Z</time>
      </trkpt>
      <trkpt lat="42.27673" lon="1.8718">
        <ele>1359.02</ele>
        <time>2019-04-07T23:38:22Z</time>
      </trkpt>
      <trkpt lat="42.27674" lon="1.87181">
        <ele>1358.808</ele>
        <time>2019-04-07T23:38:23Z</time>
      </trkpt>
      <trkpt lat="42.27677" lon="1.87181">
        <ele>1357.688</ele>
        <time>2019-04-07T23:38:24Z</time>
      </trkpt>
      <trkpt lat="42.27678" lon="1.87181">
        <ele>1357.57</ele>
        <time>2019-04-07T23:38:24Z</time>
      </trkpt>
      <trkpt lat="42.27682" lon="1.87179">
        <ele>1356.485</ele>
        <time>2019-04-07T23:38:26Z</time>
      </trkpt>
      <trkpt lat="42.27684" lon="1.87178">
        <ele>1355.596</ele>
        <time>2019-04-07T23:38:27Z</time>
      </trkpt>
      <trkpt lat="42.27684" lon="1.87177">
        <ele>1355.556</ele>
        <time>2019-04-07T23:38:27Z</time>
      </trkpt>
      <trkpt lat="42.27684" lon="1.87174">
        <ele>1354.57</ele>
        <time>2019-04-07T23:38:28Z</time>
      </trkpt>
      <trkpt lat="42.27684" lon="1.87171">
        <ele>1354.279</ele>
        <time>2019-04-07T23:38:29Z</time>
      </trkpt>
      <trkpt lat="42.27685" lon="1.8717">
        <ele>1354.281</ele>
        <time>2019-04-07T23:38:29Z</time>
      </trkpt>
      <trkpt lat="42.27687" lon="1.87166">
        <ele>1353.014</ele>
        <time>2019-04-07T23:38:31Z</time>
      </trkpt>
      <trkpt lat="42.27688" lon="1.87163">
        <ele>1352.654</ele>
        <time>2019-04-07T23:38:31Z</time>
      </trkpt>
      <trkpt lat="42.27688" lon="1.87163">
        <ele>1352.409</ele>
        <time>2019-04-07T23:38:32Z</time>
      </trkpt>
      <trkpt lat="42.27687" lon="1.87159">
        <ele>1352.008</ele>
        <time>2019-04-07T23:38:33Z</time>
      </trkpt>
      <trkpt lat="42.27686" lon="1.87158">
        <ele>1352.054</ele>
        <time>2019-04-07T23:38:33Z</time>
      </trkpt>
      <trkpt lat="42.27686" lon="1.87156">
        <ele>1351.196</ele>
        <time>2019-04-07T23:38:34Z</time>
      </trkpt>
      <trkpt lat="42.27685" lon="1.87155">
        <ele>1350.581</ele>
        <time>2019-04-07T23:38:34Z</time>
      </trkpt>
      <trkpt lat="42.27686" lon="1.87154">
        <ele>1349.692</ele>
        <time>2019-04-07T23:38:34Z</time>
      </trkpt>
      <trkpt lat="42.27686" lon="1.87152">
        <ele>1348.612</ele>
        <time>2019-04-07T23:38:35Z</time>
      </trkpt>
      <trkpt lat="42.27686" lon="1.87152">
        <ele>1348.416</ele>
        <time>2019-04-07T23:38:35Z</time>
      </trkpt>
      <trkpt lat="42.27686" lon="1.87151">
        <ele>1347.735</ele>
        <time>2019-04-07T23:38:35Z</time>
      </trkpt>
      <trkpt lat="42.27686" lon="1.87148">
        <ele>1346.447</ele>
        <time>2019-04-07T23:38:36Z</time>
      </trkpt>
      <trkpt lat="42.27686" lon="1.87147">
        <ele>1346.026</ele>
        <time>2019-04-07T23:38:37Z</time>
      </trkpt>
      <trkpt lat="42.27686" lon="1.87145">
        <ele>1345.247</ele>
        <time>2019-04-07T23:38:37Z</time>
      </trkpt>
      <trkpt lat="42.27686" lon="1.87144">
        <ele>1344.011</ele>
        <time>2019-04-07T23:38:38Z</time>
      </trkpt>
      <trkpt lat="42.27687" lon="1.87145">
        <ele>1343.508</ele>
        <time>2019-04-07T23:38:38Z</time>
      </trkpt>
      <trkpt lat="42.27687" lon="1.87145">
        <ele>1343.295</ele>
        <time>2019-04-07T23:38:38Z</time>
      </trkpt>
      <trkpt lat="42.27687" lon="1.87145">
        <ele>1342.477</ele>
        <time>2019-04-07T23:38:38Z</time>
      </trkpt>
      <trkpt lat="42.27687" lon="1.87144">
        <ele>1342.192</ele>
        <time>2019-04-07T23:38:38Z</time>
      </trkpt>
      <trkpt lat="42.27686" lon="1.87142">
        <ele>1341.713</ele>
        <time>2019-04-07T23:38:39Z</time>
      </trkpt>
      <trkpt lat="42.27685" lon="1.87139">
        <ele>1341.293</ele>
        <time>2019-04-07T23:38:40Z</time>
      </trkpt>
      <trkpt lat="42.27683" lon="1.87127">
        <ele>1340.147</ele>
        <time>2019-04-07T23:38:43Z</time>
      </trkpt>
      <trkpt lat="42.27683" lon="1.87127">
        <ele>1339.636</ele>
        <time>2019-04-07T23:38:43Z</time>
      </trkpt>
      <trkpt lat="42.27683" lon="1.87126">
        <ele>1339.548</ele>
        <time>2019-04-07T23:38:44Z</time>
      </trkpt>
      <trkpt lat="42.27683" lon="1.87126">
        <ele>1339.081</ele>
        <time>2019-04-07T23:38:44Z</time>
      </trkpt>
      <trkpt lat="42.27684" lon="1.87126">
        <ele>1337.961</ele>
        <time>2019-04-07T23:38:44Z</time>
      </trkpt>
      <trkpt lat="42.27684" lon="1.87126">
        <ele>1337.417</ele>
        <time>2019-04-07T23:38:44Z</time>
      </trkpt>
      <trkpt lat="42.27686" lon="1.87125">
        <ele>1336.508</ele>
        <time>2019-04-07T23:38:45Z</time>
      </trkpt>
      <trkpt lat="42.27687" lon="1.87125">
        <ele>1336.541</ele>
        <time>2019-04-07T23:38:45Z</time>
      </trkpt>
      <trkpt lat="42.27689" lon="1.87125">
        <ele>1335.793</ele>
        <time>2019-04-07T23:38:46Z</time>
      </trkpt>
      <trkpt lat="42.27689" lon="1.87125">
        <ele>1335.548</ele>
        <time>2019-04-07T23:38:46Z</time>
      </trkpt>
      <trkpt lat="42.27689" lon="1.87125">
        <ele>1335.069</ele>
        <time>2019-04-07T23:38:47Z</time>
      </trkpt>
      <trkpt lat="42.27689" lon="1.87125">
        <ele>1334.799</ele>
        <time>2019-04-07T23:38:47Z</time>
      </trkpt>
      <trkpt lat="42.27689" lon="1.87125">
        <ele>1334.183</ele>
        <time>2019-04-07T23:38:47Z</time>
      </trkpt>
      <trkpt lat="42.27689" lon="1.87125">
        <ele>1333.912</ele>
        <time>2019-04-07T23:38:47Z</time>
      </trkpt>
      <trkpt lat="42.27689" lon="1.87125">
        <ele>1333.124</ele>
        <time>2019-04-07T23:38:47Z</time>
      </trkpt>
      <trkpt lat="42.27689" lon="1.87125">
        <ele>1333.133</ele>
        <time>2019-04-07T23:38:47Z</time>
      </trkpt>
      <trkpt lat="42.27688" lon="1.87125">
        <ele>1332.623</ele>
        <time>2019-04-07T23:38:47Z</time>
      </trkpt>
      <trkpt lat="42.27688" lon="1.87124">
        <ele>1331.515</ele>
        <time>2019-04-07T23:38:47Z</time>
      </trkpt>
      <trkpt lat="42.27688" lon="1.87123">
        <ele>1330.808</ele>
        <time>2019-04-07T23:38:48Z</time>
      </trkpt>
      <trkpt lat="42.27687" lon="1.87122">
        <ele>1330.676</ele>
        <time>2019-04-07T23:38:48Z</time>
      </trkpt>
      <trkpt lat="42.27686" lon="1.87122">
        <ele>1329.888</ele>
        <time>2019-04-07T23:38:48Z</time>
      </trkpt>
      <trkpt lat="42.27686" lon="1.87122">
        <ele>1329.453</ele>
        <time>2019-04-07T23:38:49Z</time>
      </trkpt>
      <trkpt lat="42.27685" lon="1.87122">
        <ele>1328.874</ele>
        <time>2019-04-07T23:38:49Z</time>
      </trkpt>
      <trkpt lat="42.27684" lon="1.87122">
        <ele>1328.594</ele>
        <time>2019-04-07T23:38:49Z</time>
      </trkpt>
      <trkpt lat="42.27684" lon="1.87123">
        <ele>1328.188</ele>
        <time>2019-04-07T23:38:49Z</time>
      </trkpt>
      <trkpt lat="42.2768" lon="1.87121">
        <ele>1327.387</ele>
        <time>2019-04-07T23:38:51Z</time>
      </trkpt>
      <trkpt lat="42.27678" lon="1.87118">
        <ele>1326.919</ele>
        <time>2019-04-07T23:38:52Z</time>
      </trkpt>
      <trkpt lat="42.27674" lon="1.87111">
        <ele>1325.921</ele>
        <time>2019-04-07T23:38:55Z</time>
      </trkpt>
      <trkpt lat="42.27673" lon="1.87109">
        <ele>1325.141</ele>
        <time>2019-04-07T23:38:55Z</time>
      </trkpt>
      <trkpt lat="42.27672" lon="1.87108">
        <ele>1324.805</ele>
        <time>2019-04-07T23:38:56Z</time>
      </trkpt>
      <trkpt lat="42.2767" lon="1.87106">
        <ele>1324.408</ele>
        <time>2019-04-07T23:38:57Z</time>
      </trkpt>
      <trkpt lat="42.27667" lon="1.87101">
        <ele>1323.875</ele>
        <time>2019-04-07T23:38:59Z</time>
      </trkpt>
      <trkpt lat="42.27665" lon="1.87099">
        <ele>1323.487</ele>
        <time>2019-04-07T23:39:00Z</time>
      </trkpt>
      <trkpt lat="42.27663" lon="1.87095">
        <ele>1322.592</ele>
        <time>2019-04-07T23:39:01Z</time>
      </trkpt>
      <trkpt lat="42.27662" lon="1.87094">
        <ele>1322.093</ele>
        <time>2019-04-07T23:39:02Z</time>
      </trkpt>
      <trkpt lat="42.27661" lon="1.87093">
        <ele>1321.633</ele>
        <time>2019-04-07T23:39:02Z</time>
      </trkpt>
      <trkpt lat="42.2766" lon="1.87091">
        <ele>1321.127</ele>
        <time>2019-04-07T23:39:03Z</time>
      </trkpt>
      <trkpt lat="42.27659" lon="1.8709">
        <ele>1320.326</ele>
        <time>2019-04-07T23:39:03Z</time>
      </trkpt>
      <trkpt lat="42.27659" lon="1.87089">
        <ele>1320.228</ele>
        <time>2019-04-07T23:39:04Z</time>
      </trkpt>
      <trkpt lat="42.27659" lon="1.87089">
        <ele>1319.557</ele>
        <time>2019-04-07T23:39:04Z</time>
      </trkpt>
      <trkpt lat="42.27659" lon="1.87089">
        <ele>1319</ele>
        <time>2019-04-07T23:39:04Z</time>
      </trkpt>
      <trkpt lat="42.27658" lon="1.87088">
        <ele>1318.82</ele>
        <time>2019-04-07T23:39:04Z</time>
      </trkpt>
      <trkpt lat="42.27658" lon="1.87088">
        <ele>1318.408</ele>
        <time>2019-04-07T23:39:04Z</time>
      </trkpt>
      <trkpt lat="42.27658" lon="1.87088">
        <ele>1318.288</ele>
        <time>2019-04-07T23:39:04Z</time>
      </trkpt>
      <trkpt lat="42.27657" lon="1.87087">
        <ele>1317.55</ele>
        <time>2019-04-07T23:39:05Z</time>
      </trkpt>
      <trkpt lat="42.27657" lon="1.87087">
        <ele>1317.245</ele>
        <time>2019-04-07T23:39:05Z</time>
      </trkpt>
      <trkpt lat="42.27657" lon="1.87086">
        <ele>1316.916</ele>
        <time>2019-04-07T23:39:05Z</time>
      </trkpt>
      <trkpt lat="42.27655" lon="1.87084">
        <ele>1316.336</ele>
        <time>2019-04-07T23:39:06Z</time>
      </trkpt>
      <trkpt lat="42.27654" lon="1.87082">
        <ele>1316.06</ele>
        <time>2019-04-07T23:39:07Z</time>
      </trkpt>
      <trkpt lat="42.27651" lon="1.87077">
        <ele>1315.649</ele>
        <time>2019-04-07T23:39:09Z</time>
      </trkpt>
      <trkpt lat="42.27651" lon="1.87077">
        <ele>1315.521</ele>
        <time>2019-04-07T23:39:09Z</time>
      </trkpt>
      <trkpt lat="42.27652" lon="1.87076">
        <ele>1315.715</ele>
        <time>2019-04-07T23:39:09Z</time>
      </trkpt>
      <trkpt lat="42.27653" lon="1.87076">
        <ele>1316.065</ele>
        <time>2019-04-07T23:39:09Z</time>
      </trkpt>
      <trkpt lat="42.27655" lon="1.87073">
        <ele>1314.811</ele>
        <time>2019-04-07T23:39:11Z</time>
      </trkpt>
      <trkpt lat="42.27657" lon="1.87072">
        <ele>1314.008</ele>
        <time>2019-04-07T23:39:11Z</time>
      </trkpt>
      <trkpt lat="42.27658" lon="1.8707">
        <ele>1313.674</ele>
        <time>2019-04-07T23:39:12Z</time>
      </trkpt>
      <trkpt lat="42.27658" lon="1.87068">
        <ele>1312.236</ele>
        <time>2019-04-07T23:39:13Z</time>
      </trkpt>
      <trkpt lat="42.27658" lon="1.87066">
        <ele>1311.651</ele>
        <time>2019-04-07T23:39:13Z</time>
      </trkpt>
      <trkpt lat="42.27658" lon="1.87063">
        <ele>1311.242</ele>
        <time>2019-04-07T23:39:14Z</time>
      </trkpt>
      <trkpt lat="42.27657" lon="1.87061">
        <ele>1309.922</ele>
        <time>2019-04-07T23:39:15Z</time>
      </trkpt>
      <trkpt lat="42.27657" lon="1.8706">
        <ele>1309.726</ele>
        <time>2019-04-07T23:39:15Z</time>
      </trkpt>
      <trkpt lat="42.27657" lon="1.8706">
        <ele>1309.675</ele>
        <time>2019-04-07T23:39:15Z</time>
      </trkpt>
      <trkpt lat="42.27658" lon="1.87059">
        <ele>1308.917</ele>
        <time>2019-04-07T23:39:15Z</time>
      </trkpt>
      <trkpt lat="42.27658" lon="1.87059">
        <ele>1308.562</ele>
        <time>2019-04-07T23:39:16Z</time>
      </trkpt>
      <trkpt lat="42.27657" lon="1.8706">
        <ele>1308.583</ele>
        <time>2019-04-07T23:39:16Z</time>
      </trkpt>
      <trkpt lat="42.27657" lon="1.87061">
        <ele>1308.111</ele>
        <time>2019-04-07T23:39:16Z</time>
      </trkpt>
      <trkpt lat="42.27657" lon="1.87061">
        <ele>1308.108</ele>
        <time>2019-04-07T23:39:16Z</time>
      </trkpt>
      <trkpt lat="42.27657" lon="1.87061">
        <ele>1308.319</ele>
        <time>2019-04-07T23:39:17Z</time>
      </trkpt>
      <trkpt lat="42.27657" lon="1.87061">
        <ele>1308.221</ele>
        <time>2019-04-07T23:39:17Z</time>
      </trkpt>
      <trkpt lat="42.27658" lon="1.87065">
        <ele>1308.276</ele>
        <time>2019-04-07T23:39:18Z</time>
      </trkpt>
      <trkpt lat="42.2766" lon="1.8707">
        <ele>1307.847</ele>
        <time>2019-04-07T23:39:20Z</time>
      </trkpt>
      <trkpt lat="42.27661" lon="1.87071">
        <ele>1307.777</ele>
        <time>2019-04-07T23:39:20Z</time>
      </trkpt>
      <trkpt lat="42.27664" lon="1.87075">
        <ele>1308.271</ele>
        <time>2019-04-07T23:39:22Z</time>
      </trkpt>
      <trkpt lat="42.27665" lon="1.87075">
        <ele>1308.58</ele>
        <time>2019-04-07T23:39:23Z</time>
      </trkpt>
      <trkpt lat="42.27667" lon="1.87072">
        <ele>1308.642</ele>
        <time>2019-04-07T23:39:23Z</time>
      </trkpt>
      <trkpt lat="42.27666" lon="1.87072">
        <ele>1308.157</ele>
        <time>2019-04-07T23:39:24Z</time>
      </trkpt>
      <trkpt lat="42.27664" lon="1.8707">
        <ele>1308.4</ele>
        <time>2019-04-07T23:39:25Z</time>
      </trkpt>
      <trkpt lat="42.27659" lon="1.87065">
        <ele>1308.02</ele>
        <time>2019-04-07T23:39:27Z</time>
      </trkpt>
      <trkpt lat="42.27659" lon="1.87061">
        <ele>1307.108</ele>
        <time>2019-04-07T23:39:28Z</time>
      </trkpt>
      <trkpt lat="42.27659" lon="1.87059">
        <ele>1306.568</ele>
        <time>2019-04-07T23:39:29Z</time>
      </trkpt>
      <trkpt lat="42.27659" lon="1.87056">
        <ele>1306.22</ele>
        <time>2019-04-07T23:39:30Z</time>
      </trkpt>
      <trkpt lat="42.2766" lon="1.87053">
        <ele>1305.145</ele>
        <time>2019-04-07T23:39:31Z</time>
      </trkpt>
      <trkpt lat="42.2766" lon="1.87048">
        <ele>1304.176</ele>
        <time>2019-04-07T23:39:32Z</time>
      </trkpt>
      <trkpt lat="42.2766" lon="1.87044">
        <ele>1303.286</ele>
        <time>2019-04-07T23:39:33Z</time>
      </trkpt>
      <trkpt lat="42.2766" lon="1.87043">
        <ele>1302.91</ele>
        <time>2019-04-07T23:39:34Z</time>
      </trkpt>
      <trkpt lat="42.2766" lon="1.87039">
        <ele>1301.959</ele>
        <time>2019-04-07T23:39:35Z</time>
      </trkpt>
      <trkpt lat="42.2766" lon="1.87037">
        <ele>1301.531</ele>
        <time>2019-04-07T23:39:36Z</time>
      </trkpt>
      <trkpt lat="42.2766" lon="1.87035">
        <ele>1301.054</ele>
        <time>2019-04-07T23:39:36Z</time>
      </trkpt>
      <trkpt lat="42.27659" lon="1.87032">
        <ele>1299.856</ele>
        <time>2019-04-07T23:39:37Z</time>
      </trkpt>
      <trkpt lat="42.27659" lon="1.87031">
        <ele>1298.511</ele>
        <time>2019-04-07T23:39:38Z</time>
      </trkpt>
      <trkpt lat="42.27657" lon="1.87027">
        <ele>1297.508</ele>
        <time>2019-04-07T23:39:39Z</time>
      </trkpt>
      <trkpt lat="42.27656" lon="1.87026">
        <ele>1296.658</ele>
        <time>2019-04-07T23:39:39Z</time>
      </trkpt>
      <trkpt lat="42.27655" lon="1.87025">
        <ele>1295.61</ele>
        <time>2019-04-07T23:39:40Z</time>
      </trkpt>
      <trkpt lat="42.27655" lon="1.87023">
        <ele>1295.195</ele>
        <time>2019-04-07T23:39:40Z</time>
      </trkpt>
      <trkpt lat="42.27656" lon="1.87022">
        <ele>1294.556</ele>
        <time>2019-04-07T23:39:41Z</time>
      </trkpt>
      <trkpt lat="42.27656" lon="1.87021">
        <ele>1293.576</ele>
        <time>2019-04-07T23:39:41Z</time>
      </trkpt>
      <trkpt lat="42.27656" lon="1.87021">
        <ele>1293.06</ele>
        <time>2019-04-07T23:39:41Z</time>
      </trkpt>
      <trkpt lat="42.27656" lon="1.87019">
        <ele>1292.259</ele>
        <time>2019-04-07T23:39:42Z</time>
      </trkpt>
      <trkpt lat="42.27655" lon="1.87016">
        <ele>1291.791</ele>
        <time>2019-04-07T23:39:43Z</time>
      </trkpt>
      <trkpt lat="42.27654" lon="1.87013">
        <ele>1291.135</ele>
        <time>2019-04-07T23:39:44Z</time>
      </trkpt>
      <trkpt lat="42.27653" lon="1.8701">
        <ele>1290.086</ele>
        <time>2019-04-07T23:39:45Z</time>
      </trkpt>
      <trkpt lat="42.27651" lon="1.87007">
        <ele>1289.014</ele>
        <time>2019-04-07T23:39:46Z</time>
      </trkpt>
      <trkpt lat="42.2765" lon="1.87005">
        <ele>1288.108</ele>
        <time>2019-04-07T23:39:47Z</time>
      </trkpt>
      <trkpt lat="42.27649" lon="1.87004">
        <ele>1288.076</ele>
        <time>2019-04-07T23:39:47Z</time>
      </trkpt>
      <trkpt lat="42.27647" lon="1.86999">
        <ele>1286.728</ele>
        <time>2019-04-07T23:39:49Z</time>
      </trkpt>
      <trkpt lat="42.27647" lon="1.86998">
        <ele>1286.563</ele>
        <time>2019-04-07T23:39:49Z</time>
      </trkpt>
      <trkpt lat="42.27645" lon="1.86993">
        <ele>1285.594</ele>
        <time>2019-04-07T23:39:51Z</time>
      </trkpt>
      <trkpt lat="42.27645" lon="1.86991">
        <ele>1284.664</ele>
        <time>2019-04-07T23:39:51Z</time>
      </trkpt>
      <trkpt lat="42.27645" lon="1.86989">
        <ele>1284.588</ele>
        <time>2019-04-07T23:39:52Z</time>
      </trkpt>
      <trkpt lat="42.27645" lon="1.86985">
        <ele>1283.657</ele>
        <time>2019-04-07T23:39:53Z</time>
      </trkpt>
      <trkpt lat="42.27645" lon="1.86984">
        <ele>1283.239</ele>
        <time>2019-04-07T23:39:53Z</time>
      </trkpt>
      <trkpt lat="42.27646" lon="1.8698">
        <ele>1282.929</ele>
        <time>2019-04-07T23:39:55Z</time>
      </trkpt>
      <trkpt lat="42.27646" lon="1.86976">
        <ele>1282.2</ele>
        <time>2019-04-07T23:39:56Z</time>
      </trkpt>
      <trkpt lat="42.27646" lon="1.86971">
        <ele>1281.02</ele>
        <time>2019-04-07T23:39:57Z</time>
      </trkpt>
      <trkpt lat="42.27649" lon="1.86966">
        <ele>1280.008</ele>
        <time>2019-04-07T23:39:59Z</time>
      </trkpt>
      <trkpt lat="42.27649" lon="1.86963">
        <ele>1279.335</ele>
        <time>2019-04-07T23:40:00Z</time>
      </trkpt>
      <trkpt lat="42.2765" lon="1.86962">
        <ele>1279.057</ele>
        <time>2019-04-07T23:40:00Z</time>
      </trkpt>
      <trkpt lat="42.2765" lon="1.86959">
        <ele>1278.622</ele>
        <time>2019-04-07T23:40:01Z</time>
      </trkpt>
      <trkpt lat="42.2765" lon="1.86955">
        <ele>1277.983</ele>
        <time>2019-04-07T23:40:02Z</time>
      </trkpt>
      <trkpt lat="42.2765" lon="1.86952">
        <ele>1277.023</ele>
        <time>2019-04-07T23:40:03Z</time>
      </trkpt>
      <trkpt lat="42.27651" lon="1.86951">
        <ele>1276.687</ele>
        <time>2019-04-07T23:40:04Z</time>
      </trkpt>
      <trkpt lat="42.27649" lon="1.8695">
        <ele>1275.796</ele>
        <time>2019-04-07T23:40:04Z</time>
      </trkpt>
      <trkpt lat="42.27648" lon="1.86949">
        <ele>1275.018</ele>
        <time>2019-04-07T23:40:05Z</time>
      </trkpt>
      <trkpt lat="42.27647" lon="1.86947">
        <ele>1274.526</ele>
        <time>2019-04-07T23:40:06Z</time>
      </trkpt>
      <trkpt lat="42.27647" lon="1.86946">
        <ele>1274.647</ele>
        <time>2019-04-07T23:40:06Z</time>
      </trkpt>
      <trkpt lat="42.27646" lon="1.86945">
        <ele>1274.411</ele>
        <time>2019-04-07T23:40:06Z</time>
      </trkpt>
      <trkpt lat="42.27645" lon="1.86942">
        <ele>1273.408</ele>
        <time>2019-04-07T23:40:07Z</time>
      </trkpt>
      <trkpt lat="42.27645" lon="1.86938">
        <ele>1272.965</ele>
        <time>2019-04-07T23:40:08Z</time>
      </trkpt>
      <trkpt lat="42.27645" lon="1.86938">
        <ele>1272.547</ele>
        <time>2019-04-07T23:40:09Z</time>
      </trkpt>
      <trkpt lat="42.27647" lon="1.86932">
        <ele>1271.252</ele>
        <time>2019-04-07T23:40:10Z</time>
      </trkpt>
      <trkpt lat="42.27647" lon="1.86929">
        <ele>1270.913</ele>
        <time>2019-04-07T23:40:11Z</time>
      </trkpt>
      <trkpt lat="42.27647" lon="1.86926">
        <ele>1270.373</ele>
        <time>2019-04-07T23:40:12Z</time>
      </trkpt>
      <trkpt lat="42.27649" lon="1.86921">
        <ele>1269.147</ele>
        <time>2019-04-07T23:40:14Z</time>
      </trkpt>
      <trkpt lat="42.27651" lon="1.86916">
        <ele>1268.246</ele>
        <time>2019-04-07T23:40:15Z</time>
      </trkpt>
      <trkpt lat="42.27651" lon="1.86915">
        <ele>1267.558</ele>
        <time>2019-04-07T23:40:16Z</time>
      </trkpt>
      <trkpt lat="42.27651" lon="1.86912">
        <ele>1267.068</ele>
        <time>2019-04-07T23:40:17Z</time>
      </trkpt>
      <trkpt lat="42.2765" lon="1.86911">
        <ele>1266.542</ele>
        <time>2019-04-07T23:40:17Z</time>
      </trkpt>
      <trkpt lat="42.27648" lon="1.86908">
        <ele>1265.526</ele>
        <time>2019-04-07T23:40:18Z</time>
      </trkpt>
      <trkpt lat="42.27647" lon="1.86906">
        <ele>1264.808</ele>
        <time>2019-04-07T23:40:19Z</time>
      </trkpt>
      <trkpt lat="42.27646" lon="1.86905">
        <ele>1264.559</ele>
        <time>2019-04-07T23:40:19Z</time>
      </trkpt>
      <trkpt lat="42.27646" lon="1.86904">
        <ele>1264.151</ele>
        <time>2019-04-07T23:40:20Z</time>
      </trkpt>
      <trkpt lat="42.27645" lon="1.86902">
        <ele>1263.986</ele>
        <time>2019-04-07T23:40:20Z</time>
      </trkpt>
      <trkpt lat="42.27644" lon="1.86901">
        <ele>1263.587</ele>
        <time>2019-04-07T23:40:21Z</time>
      </trkpt>
      <trkpt lat="42.27643" lon="1.869">
        <ele>1263.357</ele>
        <time>2019-04-07T23:40:21Z</time>
      </trkpt>
      <trkpt lat="42.27642" lon="1.86899">
        <ele>1262.661</ele>
        <time>2019-04-07T23:40:22Z</time>
      </trkpt>
      <trkpt lat="42.27642" lon="1.86899">
        <ele>1262.56</ele>
        <time>2019-04-07T23:40:22Z</time>
      </trkpt>
      <trkpt lat="42.27642" lon="1.86898">
        <ele>1262.252</ele>
        <time>2019-04-07T23:40:22Z</time>
      </trkpt>
      <trkpt lat="42.27639" lon="1.86895">
        <ele>1261.543</ele>
        <time>2019-04-07T23:40:23Z</time>
      </trkpt>
      <trkpt lat="42.27638" lon="1.86895">
        <ele>1261.264</ele>
        <time>2019-04-07T23:40:24Z</time>
      </trkpt>
      <trkpt lat="42.27638" lon="1.86895">
        <ele>1260.81</ele>
        <time>2019-04-07T23:40:24Z</time>
      </trkpt>
      <trkpt lat="42.27637" lon="1.86894">
        <ele>1260.408</ele>
        <time>2019-04-07T23:40:24Z</time>
      </trkpt>
      <trkpt lat="42.27636" lon="1.86893">
        <ele>1260.157</ele>
        <time>2019-04-07T23:40:25Z</time>
      </trkpt>
      <trkpt lat="42.27635" lon="1.86892">
        <ele>1259.539</ele>
        <time>2019-04-07T23:40:25Z</time>
      </trkpt>
      <trkpt lat="42.27635" lon="1.86892">
        <ele>1259.374</ele>
        <time>2019-04-07T23:40:26Z</time>
      </trkpt>
      <trkpt lat="42.27635" lon="1.86891">
        <ele>1258.985</ele>
        <time>2019-04-07T23:40:26Z</time>
      </trkpt>
      <trkpt lat="42.27634" lon="1.8689">
        <ele>1258.445</ele>
        <time>2019-04-07T23:40:26Z</time>
      </trkpt>
      <trkpt lat="42.27633" lon="1.86888">
        <ele>1257.489</ele>
        <time>2019-04-07T23:40:27Z</time>
      </trkpt>
      <trkpt lat="42.27632" lon="1.86886">
        <ele>1256.138</ele>
        <time>2019-04-07T23:40:28Z</time>
      </trkpt>
      <trkpt lat="42.27632" lon="1.86881">
        <ele>1255.73</ele>
        <time>2019-04-07T23:40:29Z</time>
      </trkpt>
      <trkpt lat="42.27631" lon="1.86877">
        <ele>1255.265</ele>
        <time>2019-04-07T23:40:30Z</time>
      </trkpt>
      <trkpt lat="42.2763" lon="1.86874">
        <ele>1254.568</ele>
        <time>2019-04-07T23:40:31Z</time>
      </trkpt>
      <trkpt lat="42.2763" lon="1.86871">
        <ele>1254.014</ele>
        <time>2019-04-07T23:40:32Z</time>
      </trkpt>
      <trkpt lat="42.27628" lon="1.86869">
        <ele>1252.808</ele>
        <time>2019-04-07T23:40:33Z</time>
      </trkpt>
      <trkpt lat="42.27627" lon="1.86867">
        <ele>1252.149</ele>
        <time>2019-04-07T23:40:34Z</time>
      </trkpt>
      <trkpt lat="42.27627" lon="1.86866">
        <ele>1251.931</ele>
        <time>2019-04-07T23:40:34Z</time>
      </trkpt>
      <trkpt lat="42.27625" lon="1.86862">
        <ele>1251.276</ele>
        <time>2019-04-07T23:40:35Z</time>
      </trkpt>
      <trkpt lat="42.27625" lon="1.86862">
        <ele>1250.967</ele>
        <time>2019-04-07T23:40:35Z</time>
      </trkpt>
      <trkpt lat="42.27625" lon="1.86861">
        <ele>1250.767</ele>
        <time>2019-04-07T23:40:36Z</time>
      </trkpt>
      <trkpt lat="42.27626" lon="1.8686">
        <ele>1249.851</ele>
        <time>2019-04-07T23:40:36Z</time>
      </trkpt>
      <trkpt lat="42.27626" lon="1.86859">
        <ele>1249.63</ele>
        <time>2019-04-07T23:40:36Z</time>
      </trkpt>
      <trkpt lat="42.27627" lon="1.86857">
        <ele>1248.532</ele>
        <time>2019-04-07T23:40:37Z</time>
      </trkpt>
      <trkpt lat="42.27628" lon="1.86857">
        <ele>1248.286</ele>
        <time>2019-04-07T23:40:37Z</time>
      </trkpt>
      <trkpt lat="42.27629" lon="1.86855">
        <ele>1247.56</ele>
        <time>2019-04-07T23:40:38Z</time>
      </trkpt>
      <trkpt lat="42.27629" lon="1.86854">
        <ele>1247.026</ele>
        <time>2019-04-07T23:40:38Z</time>
      </trkpt>
      <trkpt lat="42.2763" lon="1.86852">
        <ele>1246.108</ele>
        <time>2019-04-07T23:40:39Z</time>
      </trkpt>
      <trkpt lat="42.2763" lon="1.86852">
        <ele>1245.931</ele>
        <time>2019-04-07T23:40:39Z</time>
      </trkpt>
      <trkpt lat="42.2763" lon="1.8685">
        <ele>1244.823</ele>
        <time>2019-04-07T23:40:40Z</time>
      </trkpt>
      <trkpt lat="42.2763" lon="1.8685">
        <ele>1244.678</ele>
        <time>2019-04-07T23:40:40Z</time>
      </trkpt>
      <trkpt lat="42.27629" lon="1.86848">
        <ele>1244.219</ele>
        <time>2019-04-07T23:40:40Z</time>
      </trkpt>
      <trkpt lat="42.27629" lon="1.86847">
        <ele>1243.899</ele>
        <time>2019-04-07T23:40:41Z</time>
      </trkpt>
      <trkpt lat="42.27628" lon="1.86844">
        <ele>1243.133</ele>
        <time>2019-04-07T23:40:42Z</time>
      </trkpt>
      <trkpt lat="42.27628" lon="1.86841">
        <ele>1242.612</ele>
        <time>2019-04-07T23:40:43Z</time>
      </trkpt>
      <trkpt lat="42.27626" lon="1.8683">
        <ele>1241.454</ele>
        <time>2019-04-07T23:40:46Z</time>
      </trkpt>
      <trkpt lat="42.27626" lon="1.86827">
        <ele>1241.152</ele>
        <time>2019-04-07T23:40:47Z</time>
      </trkpt>
      <trkpt lat="42.27625" lon="1.86824">
        <ele>1240.653</ele>
        <time>2019-04-07T23:40:48Z</time>
      </trkpt>
      <trkpt lat="42.27625" lon="1.8682">
        <ele>1240.008</ele>
        <time>2019-04-07T23:40:49Z</time>
      </trkpt>
      <trkpt lat="42.27625" lon="1.86815">
        <ele>1239.108</ele>
        <time>2019-04-07T23:40:50Z</time>
      </trkpt>
      <trkpt lat="42.27624" lon="1.86812">
        <ele>1239.138</ele>
        <time>2019-04-07T23:40:51Z</time>
      </trkpt>
      <trkpt lat="42.27625" lon="1.86811">
        <ele>1238.01</ele>
        <time>2019-04-07T23:40:52Z</time>
      </trkpt>
      <trkpt lat="42.27625" lon="1.86811">
        <ele>1237.845</ele>
        <time>2019-04-07T23:40:52Z</time>
      </trkpt>
      <trkpt lat="42.27626" lon="1.86811">
        <ele>1237.616</ele>
        <time>2019-04-07T23:40:52Z</time>
      </trkpt>
      <trkpt lat="42.27626" lon="1.86812">
        <ele>1237.136</ele>
        <time>2019-04-07T23:40:52Z</time>
      </trkpt>
      <trkpt lat="42.27626" lon="1.86811">
        <ele>1236.95</ele>
        <time>2019-04-07T23:40:53Z</time>
      </trkpt>
      <trkpt lat="42.27627" lon="1.8681">
        <ele>1236.639</ele>
        <time>2019-04-07T23:40:53Z</time>
      </trkpt>
      <trkpt lat="42.27626" lon="1.86808">
        <ele>1236.111</ele>
        <time>2019-04-07T23:40:53Z</time>
      </trkpt>
      <trkpt lat="42.27625" lon="1.86808">
        <ele>1235.931</ele>
        <time>2019-04-07T23:40:54Z</time>
      </trkpt>
      <trkpt lat="42.27626" lon="1.86807">
        <ele>1235.661</ele>
        <time>2019-04-07T23:40:54Z</time>
      </trkpt>
      <trkpt lat="42.27626" lon="1.86806">
        <ele>1235.007</ele>
        <time>2019-04-07T23:40:54Z</time>
      </trkpt>
      <trkpt lat="42.27626" lon="1.86804">
        <ele>1234.508</ele>
        <time>2019-04-07T23:40:55Z</time>
      </trkpt>
      <trkpt lat="42.27626" lon="1.86799">
        <ele>1234.136</ele>
        <time>2019-04-07T23:40:56Z</time>
      </trkpt>
      <trkpt lat="42.27625" lon="1.86799">
        <ele>1234.048</ele>
        <time>2019-04-07T23:40:56Z</time>
      </trkpt>
      <trkpt lat="42.27623" lon="1.86796">
        <ele>1233.573</ele>
        <time>2019-04-07T23:40:58Z</time>
      </trkpt>
      <trkpt lat="42.27622" lon="1.86795">
        <ele>1233.624</ele>
        <time>2019-04-07T23:40:58Z</time>
      </trkpt>
      <trkpt lat="42.2762" lon="1.86794">
        <ele>1233.114</ele>
        <time>2019-04-07T23:40:59Z</time>
      </trkpt>
      <trkpt lat="42.2762" lon="1.86794">
        <ele>1232.578</ele>
        <time>2019-04-07T23:40:59Z</time>
      </trkpt>
      <trkpt lat="42.2762" lon="1.86793">
        <ele>1232.167</ele>
        <time>2019-04-07T23:40:59Z</time>
      </trkpt>
      <trkpt lat="42.27621" lon="1.86792">
        <ele>1232.179</ele>
        <time>2019-04-07T23:40:59Z</time>
      </trkpt>
      <trkpt lat="42.27622" lon="1.8679">
        <ele>1231.832</ele>
        <time>2019-04-07T23:41:00Z</time>
      </trkpt>
      <trkpt lat="42.27623" lon="1.86788">
        <ele>1231.292</ele>
        <time>2019-04-07T23:41:01Z</time>
      </trkpt>
      <trkpt lat="42.27626" lon="1.86785">
        <ele>1230.011</ele>
        <time>2019-04-07T23:41:03Z</time>
      </trkpt>
      <trkpt lat="42.27627" lon="1.86785">
        <ele>1229.808</ele>
        <time>2019-04-07T23:41:03Z</time>
      </trkpt>
      <trkpt lat="42.27629" lon="1.86779">
        <ele>1229.266</ele>
        <time>2019-04-07T23:41:05Z</time>
      </trkpt>
      <trkpt lat="42.27628" lon="1.8678">
        <ele>1228.938</ele>
        <time>2019-04-07T23:41:05Z</time>
      </trkpt>
      <trkpt lat="42.27628" lon="1.8678">
        <ele>1228.113</ele>
        <time>2019-04-07T23:41:05Z</time>
      </trkpt>
      <trkpt lat="42.27626" lon="1.8678">
        <ele>1227.214</ele>
        <time>2019-04-07T23:41:06Z</time>
      </trkpt>
      <trkpt lat="42.27625" lon="1.86779">
        <ele>1227.064</ele>
        <time>2019-04-07T23:41:06Z</time>
      </trkpt>
      <trkpt lat="42.27623" lon="1.86778">
        <ele>1226.158</ele>
        <time>2019-04-07T23:41:07Z</time>
      </trkpt>
      <trkpt lat="42.27622" lon="1.86776">
        <ele>1226.287</ele>
        <time>2019-04-07T23:41:08Z</time>
      </trkpt>
      <trkpt lat="42.27622" lon="1.86776">
        <ele>1225.879</ele>
        <time>2019-04-07T23:41:08Z</time>
      </trkpt>
      <trkpt lat="42.27621" lon="1.86774">
        <ele>1225.397</ele>
        <time>2019-04-07T23:41:09Z</time>
      </trkpt>
      <trkpt lat="42.27621" lon="1.86773">
        <ele>1225.123</ele>
        <time>2019-04-07T23:41:09Z</time>
      </trkpt>
      <trkpt lat="42.27621" lon="1.86773">
        <ele>1225.025</ele>
        <time>2019-04-07T23:41:09Z</time>
      </trkpt>
      <trkpt lat="42.2762" lon="1.86772">
        <ele>1225.008</ele>
        <time>2019-04-07T23:41:10Z</time>
      </trkpt>
      <trkpt lat="42.27619" lon="1.8677">
        <ele>1224.892</ele>
        <time>2019-04-07T23:41:10Z</time>
      </trkpt>
      <trkpt lat="42.27619" lon="1.8677">
        <ele>1225.054</ele>
        <time>2019-04-07T23:41:10Z</time>
      </trkpt>
      <trkpt lat="42.27619" lon="1.8677">
        <ele>1225.069</ele>
        <time>2019-04-07T23:41:10Z</time>
      </trkpt>
      <trkpt lat="42.27617" lon="1.86766">
        <ele>1223.77</ele>
        <time>2019-04-07T23:41:12Z</time>
      </trkpt>
      <trkpt lat="42.27617" lon="1.86764">
        <ele>1223.31</ele>
        <time>2019-04-07T23:41:12Z</time>
      </trkpt>
      <trkpt lat="42.27617" lon="1.86763">
        <ele>1223.074</ele>
        <time>2019-04-07T23:41:13Z</time>
      </trkpt>
      <trkpt lat="42.27617" lon="1.8676">
        <ele>1222.673</ele>
        <time>2019-04-07T23:41:13Z</time>
      </trkpt>
      <trkpt lat="42.27618" lon="1.86758">
        <ele>1222.115</ele>
        <time>2019-04-07T23:41:14Z</time>
      </trkpt>
      <trkpt lat="42.27618" lon="1.86756">
        <ele>1221.963</ele>
        <time>2019-04-07T23:41:15Z</time>
      </trkpt>
      <trkpt lat="42.27619" lon="1.86754">
        <ele>1221.144</ele>
        <time>2019-04-07T23:41:16Z</time>
      </trkpt>
      <trkpt lat="42.27619" lon="1.86752">
        <ele>1220.818</ele>
        <time>2019-04-07T23:41:16Z</time>
      </trkpt>
      <trkpt lat="42.27618" lon="1.8675">
        <ele>1220.408</ele>
        <time>2019-04-07T23:41:17Z</time>
      </trkpt>
      <trkpt lat="42.27618" lon="1.86749">
        <ele>1220.389</ele>
        <time>2019-04-07T23:41:17Z</time>
      </trkpt>
      <trkpt lat="42.27619" lon="1.86747">
        <ele>1220.391</ele>
        <time>2019-04-07T23:41:18Z</time>
      </trkpt>
      <trkpt lat="42.27619" lon="1.86742">
        <ele>1219.356</ele>
        <time>2019-04-07T23:41:19Z</time>
      </trkpt>
      <trkpt lat="42.27619" lon="1.86741">
        <ele>1218.927</ele>
        <time>2019-04-07T23:41:19Z</time>
      </trkpt>
      <trkpt lat="42.27619" lon="1.86739">
        <ele>1218.427</ele>
        <time>2019-04-07T23:41:20Z</time>
      </trkpt>
      <trkpt lat="42.27618" lon="1.86738">
        <ele>1218.181</ele>
        <time>2019-04-07T23:41:20Z</time>
      </trkpt>
      <trkpt lat="42.27618" lon="1.86737">
        <ele>1217.69</ele>
        <time>2019-04-07T23:41:20Z</time>
      </trkpt>
      <trkpt lat="42.27618" lon="1.86737">
        <ele>1217.522</ele>
        <time>2019-04-07T23:41:21Z</time>
      </trkpt>
      <trkpt lat="42.27618" lon="1.86736">
        <ele>1217.123</ele>
        <time>2019-04-07T23:41:21Z</time>
      </trkpt>
      <trkpt lat="42.27619" lon="1.86734">
        <ele>1216.583</ele>
        <time>2019-04-07T23:41:22Z</time>
      </trkpt>
      <trkpt lat="42.27619" lon="1.86732">
        <ele>1216.011</ele>
        <time>2019-04-07T23:41:22Z</time>
      </trkpt>
      <trkpt lat="42.27619" lon="1.86731">
        <ele>1215.808</ele>
        <time>2019-04-07T23:41:22Z</time>
      </trkpt>
      <trkpt lat="42.27619" lon="1.86731">
        <ele>1215.775</ele>
        <time>2019-04-07T23:41:22Z</time>
      </trkpt>
      <trkpt lat="42.27619" lon="1.86728">
        <ele>1215.277</ele>
        <time>2019-04-07T23:41:23Z</time>
      </trkpt>
      <trkpt lat="42.2762" lon="1.86726">
        <ele>1214.572</ele>
        <time>2019-04-07T23:41:24Z</time>
      </trkpt>
      <trkpt lat="42.2762" lon="1.86725">
        <ele>1214.213</ele>
        <time>2019-04-07T23:41:24Z</time>
      </trkpt>
      <trkpt lat="42.2762" lon="1.86724">
        <ele>1213.953</ele>
        <time>2019-04-07T23:41:24Z</time>
      </trkpt>
      <trkpt lat="42.2762" lon="1.86724">
        <ele>1213.547</ele>
        <time>2019-04-07T23:41:25Z</time>
      </trkpt>
      <trkpt lat="42.2762" lon="1.86723">
        <ele>1213.186</ele>
        <time>2019-04-07T23:41:25Z</time>
      </trkpt>
      <trkpt lat="42.27619" lon="1.86721">
        <ele>1212.568</ele>
        <time>2019-04-07T23:41:25Z</time>
      </trkpt>
      <trkpt lat="42.27619" lon="1.86721">
        <ele>1212.682</ele>
        <time>2019-04-07T23:41:26Z</time>
      </trkpt>
      <trkpt lat="42.27619" lon="1.8672">
        <ele>1212.243</ele>
        <time>2019-04-07T23:41:26Z</time>
      </trkpt>
      <trkpt lat="42.27618" lon="1.86716">
        <ele>1211.417</ele>
        <time>2019-04-07T23:41:27Z</time>
      </trkpt>
      <trkpt lat="42.27618" lon="1.86716">
        <ele>1211.108</ele>
        <time>2019-04-07T23:41:27Z</time>
      </trkpt>
      <trkpt lat="42.27614" lon="1.86716">
        <ele>1210.781</ele>
        <time>2019-04-07T23:41:29Z</time>
      </trkpt>
      <trkpt lat="42.27613" lon="1.86715">
        <ele>1210.683</ele>
        <time>2019-04-07T23:41:29Z</time>
      </trkpt>
      <trkpt lat="42.27613" lon="1.86714">
        <ele>1210.698</ele>
        <time>2019-04-07T23:41:30Z</time>
      </trkpt>
      <trkpt lat="42.27611" lon="1.8671">
        <ele>1210.399</ele>
        <time>2019-04-07T23:41:31Z</time>
      </trkpt>
      <trkpt lat="42.27611" lon="1.86709">
        <ele>1210.279</ele>
        <time>2019-04-07T23:41:31Z</time>
      </trkpt>
      <trkpt lat="42.27609" lon="1.86704">
        <ele>1210.043</ele>
        <time>2019-04-07T23:41:33Z</time>
      </trkpt>
      <trkpt lat="42.27609" lon="1.86703">
        <ele>1209.572</ele>
        <time>2019-04-07T23:41:33Z</time>
      </trkpt>
      <trkpt lat="42.27608" lon="1.86701">
        <ele>1209.544</ele>
        <time>2019-04-07T23:41:34Z</time>
      </trkpt>
      <trkpt lat="42.27608" lon="1.867">
        <ele>1209.169</ele>
        <time>2019-04-07T23:41:34Z</time>
      </trkpt>
      <trkpt lat="42.27607" lon="1.86697">
        <ele>1208.204</ele>
        <time>2019-04-07T23:41:35Z</time>
      </trkpt>
      <trkpt lat="42.27606" lon="1.86697">
        <ele>1207.824</ele>
        <time>2019-04-07T23:41:35Z</time>
      </trkpt>
      <trkpt lat="42.27605" lon="1.86694">
        <ele>1207.008</ele>
        <time>2019-04-07T23:41:36Z</time>
      </trkpt>
      <trkpt lat="42.27605" lon="1.86693">
        <ele>1206.849</ele>
        <time>2019-04-07T23:41:37Z</time>
      </trkpt>
      <trkpt lat="42.27605" lon="1.86691">
        <ele>1206.611</ele>
        <time>2019-04-07T23:41:37Z</time>
      </trkpt>
      <trkpt lat="42.27606" lon="1.86691">
        <ele>1206.066</ele>
        <time>2019-04-07T23:41:37Z</time>
      </trkpt>
      <trkpt lat="42.27606" lon="1.8669">
        <ele>1205.687</ele>
        <time>2019-04-07T23:41:38Z</time>
      </trkpt>
      <trkpt lat="42.27607" lon="1.8669">
        <ele>1205.677</ele>
        <time>2019-04-07T23:41:38Z</time>
      </trkpt>
      <trkpt lat="42.27607" lon="1.86689">
        <ele>1205.271</ele>
        <time>2019-04-07T23:41:38Z</time>
      </trkpt>
      <trkpt lat="42.27608" lon="1.86687">
        <ele>1204.79</ele>
        <time>2019-04-07T23:41:39Z</time>
      </trkpt>
      <trkpt lat="42.27609" lon="1.86686">
        <ele>1204.162</ele>
        <time>2019-04-07T23:41:39Z</time>
      </trkpt>
      <trkpt lat="42.2761" lon="1.86685">
        <ele>1203.537</ele>
        <time>2019-04-07T23:41:40Z</time>
      </trkpt>
      <trkpt lat="42.2761" lon="1.86679">
        <ele>1202.649</ele>
        <time>2019-04-07T23:41:41Z</time>
      </trkpt>
      <trkpt lat="42.2761" lon="1.86677">
        <ele>1202.113</ele>
        <time>2019-04-07T23:41:42Z</time>
      </trkpt>
      <trkpt lat="42.2761" lon="1.86677">
        <ele>1201.808</ele>
        <time>2019-04-07T23:41:42Z</time>
      </trkpt>
      <trkpt lat="42.27611" lon="1.86674">
        <ele>1201.256</ele>
        <time>2019-04-07T23:41:43Z</time>
      </trkpt>
      <trkpt lat="42.2761" lon="1.86672">
        <ele>1200.858</ele>
        <time>2019-04-07T23:41:44Z</time>
      </trkpt>
      <trkpt lat="42.2761" lon="1.86668">
        <ele>1200.083</ele>
        <time>2019-04-07T23:41:45Z</time>
      </trkpt>
      <trkpt lat="42.27609" lon="1.86666">
        <ele>1199.634</ele>
        <time>2019-04-07T23:41:45Z</time>
      </trkpt>
      <trkpt lat="42.27609" lon="1.86665">
        <ele>1198.934</ele>
        <time>2019-04-07T23:41:46Z</time>
      </trkpt>
      <trkpt lat="42.27609" lon="1.86663">
        <ele>1198.378</ele>
        <time>2019-04-07T23:41:46Z</time>
      </trkpt>
      <trkpt lat="42.27608" lon="1.86662">
        <ele>1197.927</ele>
        <time>2019-04-07T23:41:47Z</time>
      </trkpt>
      <trkpt lat="42.27607" lon="1.86661">
        <ele>1197.799</ele>
        <time>2019-04-07T23:41:47Z</time>
      </trkpt>
      <trkpt lat="42.27607" lon="1.86659">
        <ele>1197.514</ele>
        <time>2019-04-07T23:41:48Z</time>
      </trkpt>
      <trkpt lat="42.27607" lon="1.86658">
        <ele>1197.554</ele>
        <time>2019-04-07T23:41:48Z</time>
      </trkpt>
      <trkpt lat="42.27608" lon="1.86654">
        <ele>1196.409</ele>
        <time>2019-04-07T23:41:49Z</time>
      </trkpt>
      <trkpt lat="42.27608" lon="1.8665">
        <ele>1195.808</ele>
        <time>2019-04-07T23:41:50Z</time>
      </trkpt>
      <trkpt lat="42.27608" lon="1.86649">
        <ele>1195.664</ele>
        <time>2019-04-07T23:41:51Z</time>
      </trkpt>
      <trkpt lat="42.27608" lon="1.86648">
        <ele>1195.526</ele>
        <time>2019-04-07T23:41:51Z</time>
      </trkpt>
      <trkpt lat="42.27608" lon="1.86646">
        <ele>1195.241</ele>
        <time>2019-04-07T23:41:52Z</time>
      </trkpt>
      <trkpt lat="42.27606" lon="1.86645">
        <ele>1194.182</ele>
        <time>2019-04-07T23:41:52Z</time>
      </trkpt>
      <trkpt lat="42.27606" lon="1.86645">
        <ele>1194.112</ele>
        <time>2019-04-07T23:41:52Z</time>
      </trkpt>
      <trkpt lat="42.27606" lon="1.86644">
        <ele>1193.976</ele>
        <time>2019-04-07T23:41:53Z</time>
      </trkpt>
      <trkpt lat="42.27604" lon="1.86641">
        <ele>1194.225</ele>
        <time>2019-04-07T23:41:54Z</time>
      </trkpt>
      <trkpt lat="42.27603" lon="1.86634">
        <ele>1193.867</ele>
        <time>2019-04-07T23:41:56Z</time>
      </trkpt>
      <trkpt lat="42.27603" lon="1.86633">
        <ele>1193.516</ele>
        <time>2019-04-07T23:41:56Z</time>
      </trkpt>
      <trkpt lat="42.27602" lon="1.86632">
        <ele>1193.176</ele>
        <time>2019-04-07T23:41:57Z</time>
      </trkpt>
      <trkpt lat="42.27601" lon="1.8663">
        <ele>1192.413</ele>
        <time>2019-04-07T23:41:57Z</time>
      </trkpt>
      <trkpt lat="42.27601" lon="1.8663">
        <ele>1192.108</ele>
        <time>2019-04-07T23:41:57Z</time>
      </trkpt>
      <trkpt lat="42.276" lon="1.8663">
        <ele>1192.084</ele>
        <time>2019-04-07T23:41:58Z</time>
      </trkpt>
      <trkpt lat="42.27598" lon="1.86629">
        <ele>1191.666</ele>
        <time>2019-04-07T23:41:59Z</time>
      </trkpt>
      <trkpt lat="42.27597" lon="1.86629">
        <ele>1191.561</ele>
        <time>2019-04-07T23:41:59Z</time>
      </trkpt>
      <trkpt lat="42.27595" lon="1.86628">
        <ele>1190.622</ele>
        <time>2019-04-07T23:42:00Z</time>
      </trkpt>
      <trkpt lat="42.27594" lon="1.86626">
        <ele>1189.522</ele>
        <time>2019-04-07T23:42:01Z</time>
      </trkpt>
      <trkpt lat="42.27592" lon="1.86625">
        <ele>1188.696</ele>
        <time>2019-04-07T23:42:01Z</time>
      </trkpt>
      <trkpt lat="42.27592" lon="1.86624">
        <ele>1188.565</ele>
        <time>2019-04-07T23:42:01Z</time>
      </trkpt>
      <trkpt lat="42.27591" lon="1.86619">
        <ele>1187.567</ele>
        <time>2019-04-07T23:42:03Z</time>
      </trkpt>
      <trkpt lat="42.27591" lon="1.86615">
        <ele>1187.236</ele>
        <time>2019-04-07T23:42:04Z</time>
      </trkpt>
      <trkpt lat="42.27592" lon="1.86613">
        <ele>1186.717</ele>
        <time>2019-04-07T23:42:05Z</time>
      </trkpt>
      <trkpt lat="42.27593" lon="1.86613">
        <ele>1186.418</ele>
        <time>2019-04-07T23:42:05Z</time>
      </trkpt>
      <trkpt lat="42.27594" lon="1.86611">
        <ele>1186.008</ele>
        <time>2019-04-07T23:42:06Z</time>
      </trkpt>
      <trkpt lat="42.27594" lon="1.8661">
        <ele>1185.576</ele>
        <time>2019-04-07T23:42:06Z</time>
      </trkpt>
      <trkpt lat="42.27594" lon="1.86609">
        <ele>1185.358</ele>
        <time>2019-04-07T23:42:07Z</time>
      </trkpt>
      <trkpt lat="42.27594" lon="1.86608">
        <ele>1185.173</ele>
        <time>2019-04-07T23:42:07Z</time>
      </trkpt>
      <trkpt lat="42.27594" lon="1.86606">
        <ele>1184.324</ele>
        <time>2019-04-07T23:42:08Z</time>
      </trkpt>
      <trkpt lat="42.27594" lon="1.86605">
        <ele>1184.244</ele>
        <time>2019-04-07T23:42:08Z</time>
      </trkpt>
      <trkpt lat="42.27594" lon="1.86603">
        <ele>1183.528</ele>
        <time>2019-04-07T23:42:08Z</time>
      </trkpt>
      <trkpt lat="42.27594" lon="1.86603">
        <ele>1183.687</ele>
        <time>2019-04-07T23:42:08Z</time>
      </trkpt>
      <trkpt lat="42.27594" lon="1.86602">
        <ele>1183.069</ele>
        <time>2019-04-07T23:42:09Z</time>
      </trkpt>
      <trkpt lat="42.27593" lon="1.866">
        <ele>1183.021</ele>
        <time>2019-04-07T23:42:10Z</time>
      </trkpt>
      <trkpt lat="42.27593" lon="1.86599">
        <ele>1182.641</ele>
        <time>2019-04-07T23:42:10Z</time>
      </trkpt>
      <trkpt lat="42.27592" lon="1.86598">
        <ele>1182.005</ele>
        <time>2019-04-07T23:42:10Z</time>
      </trkpt>
      <trkpt lat="42.27591" lon="1.86596">
        <ele>1181.008</ele>
        <time>2019-04-07T23:42:11Z</time>
      </trkpt>
      <trkpt lat="42.27591" lon="1.86595">
        <ele>1180.745</ele>
        <time>2019-04-07T23:42:11Z</time>
      </trkpt>
      <trkpt lat="42.27589" lon="1.86592">
        <ele>1179.997</ele>
        <time>2019-04-07T23:42:12Z</time>
      </trkpt>
      <trkpt lat="42.27589" lon="1.8659">
        <ele>1179.582</ele>
        <time>2019-04-07T23:42:13Z</time>
      </trkpt>
      <trkpt lat="42.27587" lon="1.86586">
        <ele>1178.573</ele>
        <time>2019-04-07T23:42:14Z</time>
      </trkpt>
      <trkpt lat="42.27585" lon="1.86583">
        <ele>1177.543</ele>
        <time>2019-04-07T23:42:15Z</time>
      </trkpt>
      <trkpt lat="42.27585" lon="1.86583">
        <ele>1177.627</ele>
        <time>2019-04-07T23:42:16Z</time>
      </trkpt>
      <trkpt lat="42.27586" lon="1.86582">
        <ele>1177.286</ele>
        <time>2019-04-07T23:42:16Z</time>
      </trkpt>
      <trkpt lat="42.27586" lon="1.86581">
        <ele>1176.988</ele>
        <time>2019-04-07T23:42:16Z</time>
      </trkpt>
      <trkpt lat="42.27586" lon="1.86579">
        <ele>1176.224</ele>
        <time>2019-04-07T23:42:17Z</time>
      </trkpt>
      <trkpt lat="42.27586" lon="1.86578">
        <ele>1176.204</ele>
        <time>2019-04-07T23:42:17Z</time>
      </trkpt>
      <trkpt lat="42.27587" lon="1.86578">
        <ele>1176.014</ele>
        <time>2019-04-07T23:42:17Z</time>
      </trkpt>
      <trkpt lat="42.27587" lon="1.86577">
        <ele>1175.508</ele>
        <time>2019-04-07T23:42:18Z</time>
      </trkpt>
      <trkpt lat="42.27588" lon="1.86577">
        <ele>1175.575</ele>
        <time>2019-04-07T23:42:18Z</time>
      </trkpt>
      <trkpt lat="42.27589" lon="1.86577">
        <ele>1175.597</ele>
        <time>2019-04-07T23:42:18Z</time>
      </trkpt>
      <trkpt lat="42.27589" lon="1.86576">
        <ele>1175.472</ele>
        <time>2019-04-07T23:42:18Z</time>
      </trkpt>
      <trkpt lat="42.27589" lon="1.86576">
        <ele>1175.223</ele>
        <time>2019-04-07T23:42:18Z</time>
      </trkpt>
      <trkpt lat="42.27589" lon="1.86573">
        <ele>1174.463</ele>
        <time>2019-04-07T23:42:19Z</time>
      </trkpt>
      <trkpt lat="42.27589" lon="1.86572">
        <ele>1174.337</ele>
        <time>2019-04-07T23:42:20Z</time>
      </trkpt>
      <trkpt lat="42.27588" lon="1.86572">
        <ele>1174.176</ele>
        <time>2019-04-07T23:42:20Z</time>
      </trkpt>
      <trkpt lat="42.27586" lon="1.8657">
        <ele>1172.758</ele>
        <time>2019-04-07T23:42:21Z</time>
      </trkpt>
      <trkpt lat="42.27586" lon="1.86568">
        <ele>1172.176</ele>
        <time>2019-04-07T23:42:21Z</time>
      </trkpt>
      <trkpt lat="42.27585" lon="1.86567">
        <ele>1172.19</ele>
        <time>2019-04-07T23:42:22Z</time>
      </trkpt>
      <trkpt lat="42.27583" lon="1.86559">
        <ele>1171.519</ele>
        <time>2019-04-07T23:42:24Z</time>
      </trkpt>
      <trkpt lat="42.27582" lon="1.86556">
        <ele>1171.108</ele>
        <time>2019-04-07T23:42:25Z</time>
      </trkpt>
      <trkpt lat="42.27581" lon="1.86554">
        <ele>1171.24</ele>
        <time>2019-04-07T23:42:26Z</time>
      </trkpt>
      <trkpt lat="42.27581" lon="1.86551">
        <ele>1170.272</ele>
        <time>2019-04-07T23:42:27Z</time>
      </trkpt>
      <trkpt lat="42.27582" lon="1.86551">
        <ele>1170.077</ele>
        <time>2019-04-07T23:42:27Z</time>
      </trkpt>
      <trkpt lat="42.27582" lon="1.86551">
        <ele>1169.578</ele>
        <time>2019-04-07T23:42:27Z</time>
      </trkpt>
      <trkpt lat="42.27584" lon="1.86551">
        <ele>1169.278</ele>
        <time>2019-04-07T23:42:28Z</time>
      </trkpt>
      <trkpt lat="42.27585" lon="1.86549">
        <ele>1168.552</ele>
        <time>2019-04-07T23:42:28Z</time>
      </trkpt>
      <trkpt lat="42.27585" lon="1.86548">
        <ele>1168.251</ele>
        <time>2019-04-07T23:42:29Z</time>
      </trkpt>
      <trkpt lat="42.27585" lon="1.86544">
        <ele>1167.593</ele>
        <time>2019-04-07T23:42:30Z</time>
      </trkpt>
      <trkpt lat="42.27585" lon="1.86541">
        <ele>1167.165</ele>
        <time>2019-04-07T23:42:31Z</time>
      </trkpt>
      <trkpt lat="42.27584" lon="1.86538">
        <ele>1166.368</ele>
        <time>2019-04-07T23:42:32Z</time>
      </trkpt>
      <trkpt lat="42.27584" lon="1.86537">
        <ele>1166.014</ele>
        <time>2019-04-07T23:42:32Z</time>
      </trkpt>
      <trkpt lat="42.27583" lon="1.86536">
        <ele>1165.808</ele>
        <time>2019-04-07T23:42:32Z</time>
      </trkpt>
      <trkpt lat="42.27583" lon="1.86535">
        <ele>1165.559</ele>
        <time>2019-04-07T23:42:33Z</time>
      </trkpt>
      <trkpt lat="42.27581" lon="1.86531">
        <ele>1164.941</ele>
        <time>2019-04-07T23:42:34Z</time>
      </trkpt>
      <trkpt lat="42.2758" lon="1.86528">
        <ele>1163.736</ele>
        <time>2019-04-07T23:42:35Z</time>
      </trkpt>
      <trkpt lat="42.27578" lon="1.86526">
        <ele>1162.657</ele>
        <time>2019-04-07T23:42:36Z</time>
      </trkpt>
      <trkpt lat="42.27577" lon="1.86525">
        <ele>1162.657</ele>
        <time>2019-04-07T23:42:37Z</time>
      </trkpt>
      <trkpt lat="42.27576" lon="1.86525">
        <ele>1161.691</ele>
        <time>2019-04-07T23:42:37Z</time>
      </trkpt>
      <trkpt lat="42.27575" lon="1.86523">
        <ele>1160.99</ele>
        <time>2019-04-07T23:42:38Z</time>
      </trkpt>
      <trkpt lat="42.27575" lon="1.8652">
        <ele>1160.382</ele>
        <time>2019-04-07T23:42:38Z</time>
      </trkpt>
      <trkpt lat="42.27575" lon="1.86519">
        <ele>1160.082</ele>
        <time>2019-04-07T23:42:39Z</time>
      </trkpt>
      <trkpt lat="42.27573" lon="1.86515">
        <ele>1159.243</ele>
        <time>2019-04-07T23:42:40Z</time>
      </trkpt>
      <trkpt lat="42.27573" lon="1.86512">
        <ele>1159.117</ele>
        <time>2019-04-07T23:42:41Z</time>
      </trkpt>
      <trkpt lat="42.27573" lon="1.86512">
        <ele>1159.108</ele>
        <time>2019-04-07T23:42:41Z</time>
      </trkpt>
      <trkpt lat="42.27573" lon="1.86512">
        <ele>1159.261</ele>
        <time>2019-04-07T23:42:41Z</time>
      </trkpt>
      <trkpt lat="42.27572" lon="1.86511">
        <ele>1159.263</ele>
        <time>2019-04-07T23:42:42Z</time>
      </trkpt>
      <trkpt lat="42.2757" lon="1.86508">
        <ele>1158.288</ele>
        <time>2019-04-07T23:42:43Z</time>
      </trkpt>
      <trkpt lat="42.27569" lon="1.86507">
        <ele>1158.019</ele>
        <time>2019-04-07T23:42:44Z</time>
      </trkpt>
      <trkpt lat="42.27568" lon="1.86499">
        <ele>1157.189</ele>
        <time>2019-04-07T23:42:46Z</time>
      </trkpt>
      <trkpt lat="42.27568" lon="1.86498">
        <ele>1157.213</ele>
        <time>2019-04-07T23:42:46Z</time>
      </trkpt>
      <trkpt lat="42.27569" lon="1.86494">
        <ele>1156.812</ele>
        <time>2019-04-07T23:42:47Z</time>
      </trkpt>
      <trkpt lat="42.27569" lon="1.8649">
        <ele>1156.274</ele>
        <time>2019-04-07T23:42:49Z</time>
      </trkpt>
      <trkpt lat="42.2757" lon="1.86486">
        <ele>1154.953</ele>
        <time>2019-04-07T23:42:50Z</time>
      </trkpt>
      <trkpt lat="42.2757" lon="1.86485">
        <ele>1154.604</ele>
        <time>2019-04-07T23:42:50Z</time>
      </trkpt>
      <trkpt lat="42.27569" lon="1.86483">
        <ele>1153.514</ele>
        <time>2019-04-07T23:42:51Z</time>
      </trkpt>
      <trkpt lat="42.27565" lon="1.86479">
        <ele>1153.008</ele>
        <time>2019-04-07T23:42:53Z</time>
      </trkpt>
      <trkpt lat="42.27563" lon="1.86476">
        <ele>1152.748</ele>
        <time>2019-04-07T23:42:54Z</time>
      </trkpt>
      <trkpt lat="42.27563" lon="1.86475">
        <ele>1152.42</ele>
        <time>2019-04-07T23:42:54Z</time>
      </trkpt>
      <trkpt lat="42.27561" lon="1.86472">
        <ele>1151.555</ele>
        <time>2019-04-07T23:42:56Z</time>
      </trkpt>
      <trkpt lat="42.2756" lon="1.86471">
        <ele>1150.976</ele>
        <time>2019-04-07T23:42:56Z</time>
      </trkpt>
      <trkpt lat="42.27559" lon="1.86469">
        <ele>1150.126</ele>
        <time>2019-04-07T23:42:57Z</time>
      </trkpt>
      <trkpt lat="42.27559" lon="1.86465">
        <ele>1149.29</ele>
        <time>2019-04-07T23:42:58Z</time>
      </trkpt>
      <trkpt lat="42.27559" lon="1.86464">
        <ele>1148.879</ele>
        <time>2019-04-07T23:42:58Z</time>
      </trkpt>
      <trkpt lat="42.27559" lon="1.86462">
        <ele>1147.651</ele>
        <time>2019-04-07T23:42:59Z</time>
      </trkpt>
      <trkpt lat="42.2756" lon="1.8646">
        <ele>1146.926</ele>
        <time>2019-04-07T23:43:00Z</time>
      </trkpt>
      <trkpt lat="42.27561" lon="1.86459">
        <ele>1146.647</ele>
        <time>2019-04-07T23:43:00Z</time>
      </trkpt>
      <trkpt lat="42.27561" lon="1.86458">
        <ele>1146.111</ele>
        <time>2019-04-07T23:43:00Z</time>
      </trkpt>
      <trkpt lat="42.27562" lon="1.86453">
        <ele>1145.408</ele>
        <time>2019-04-07T23:43:02Z</time>
      </trkpt>
      <trkpt lat="42.27562" lon="1.86452">
        <ele>1145.355</ele>
        <time>2019-04-07T23:43:02Z</time>
      </trkpt>
      <trkpt lat="42.27563" lon="1.86445">
        <ele>1144.417</ele>
        <time>2019-04-07T23:43:04Z</time>
      </trkpt>
      <trkpt lat="42.27562" lon="1.86443">
        <ele>1143.522</ele>
        <time>2019-04-07T23:43:05Z</time>
      </trkpt>
      <trkpt lat="42.27562" lon="1.86442">
        <ele>1143.283</ele>
        <time>2019-04-07T23:43:05Z</time>
      </trkpt>
      <trkpt lat="42.27562" lon="1.86438">
        <ele>1142.433</ele>
        <time>2019-04-07T23:43:06Z</time>
      </trkpt>
      <trkpt lat="42.27563" lon="1.86437">
        <ele>1141.967</ele>
        <time>2019-04-07T23:43:07Z</time>
      </trkpt>
      <trkpt lat="42.27563" lon="1.86436">
        <ele>1141.696</ele>
        <time>2019-04-07T23:43:07Z</time>
      </trkpt>
      <trkpt lat="42.27563" lon="1.86432">
        <ele>1140.738</ele>
        <time>2019-04-07T23:43:08Z</time>
      </trkpt>
      <trkpt lat="42.27563" lon="1.86431">
        <ele>1140.067</ele>
        <time>2019-04-07T23:43:08Z</time>
      </trkpt>
      <trkpt lat="42.27563" lon="1.86429">
        <ele>1139.281</ele>
        <time>2019-04-07T23:43:09Z</time>
      </trkpt>
      <trkpt lat="42.27562" lon="1.86425">
        <ele>1137.819</ele>
        <time>2019-04-07T23:43:10Z</time>
      </trkpt>
      <trkpt lat="42.27563" lon="1.86424">
        <ele>1137.508</ele>
        <time>2019-04-07T23:43:11Z</time>
      </trkpt>
      <trkpt lat="42.27563" lon="1.86423">
        <ele>1137.119</ele>
        <time>2019-04-07T23:43:11Z</time>
      </trkpt>
      <trkpt lat="42.27563" lon="1.86421">
        <ele>1136.781</ele>
        <time>2019-04-07T23:43:12Z</time>
      </trkpt>
      <trkpt lat="42.27563" lon="1.86419">
        <ele>1136.416</ele>
        <time>2019-04-07T23:43:12Z</time>
      </trkpt>
      <trkpt lat="42.27565" lon="1.86414">
        <ele>1135.597</ele>
        <time>2019-04-07T23:43:14Z</time>
      </trkpt>
      <trkpt lat="42.27568" lon="1.8641">
        <ele>1134.247</ele>
        <time>2019-04-07T23:43:15Z</time>
      </trkpt>
      <trkpt lat="42.2757" lon="1.86406">
        <ele>1133.031</ele>
        <time>2019-04-07T23:43:17Z</time>
      </trkpt>
      <trkpt lat="42.2757" lon="1.86404">
        <ele>1132.57</ele>
        <time>2019-04-07T23:43:17Z</time>
      </trkpt>
      <trkpt lat="42.27571" lon="1.864">
        <ele>1131.962</ele>
        <time>2019-04-07T23:43:19Z</time>
      </trkpt>
      <trkpt lat="42.27572" lon="1.86397">
        <ele>1131.047</ele>
        <time>2019-04-07T23:43:20Z</time>
      </trkpt>
      <trkpt lat="42.27573" lon="1.86394">
        <ele>1130.429</ele>
        <time>2019-04-07T23:43:21Z</time>
      </trkpt>
      <trkpt lat="42.27573" lon="1.86389">
        <ele>1129.821</ele>
        <time>2019-04-07T23:43:22Z</time>
      </trkpt>
      <trkpt lat="42.27572" lon="1.86385">
        <ele>1129.108</ele>
        <time>2019-04-07T23:43:23Z</time>
      </trkpt>
      <trkpt lat="42.27571" lon="1.86379">
        <ele>1128.097</ele>
        <time>2019-04-07T23:43:25Z</time>
      </trkpt>
      <trkpt lat="42.27569" lon="1.86374">
        <ele>1126.669</ele>
        <time>2019-04-07T23:43:27Z</time>
      </trkpt>
      <trkpt lat="42.27568" lon="1.86371">
        <ele>1126.184</ele>
        <time>2019-04-07T23:43:28Z</time>
      </trkpt>
      <trkpt lat="42.27567" lon="1.86371">
        <ele>1125.675</ele>
        <time>2019-04-07T23:43:28Z</time>
      </trkpt>
      <trkpt lat="42.27567" lon="1.8637">
        <ele>1125.675</ele>
        <time>2019-04-07T23:43:28Z</time>
      </trkpt>
      <trkpt lat="42.27566" lon="1.86368">
        <ele>1125.239</ele>
        <time>2019-04-07T23:43:29Z</time>
      </trkpt>
      <trkpt lat="42.27566" lon="1.86367">
        <ele>1124.948</ele>
        <time>2019-04-07T23:43:29Z</time>
      </trkpt>
      <trkpt lat="42.27566" lon="1.86363">
        <ele>1124.59</ele>
        <time>2019-04-07T23:43:30Z</time>
      </trkpt>
      <trkpt lat="42.27566" lon="1.86361">
        <ele>1124.289</ele>
        <time>2019-04-07T23:43:31Z</time>
      </trkpt>
      <trkpt lat="42.27565" lon="1.86358">
        <ele>1123.806</ele>
        <time>2019-04-07T23:43:32Z</time>
      </trkpt>
      <trkpt lat="42.27565" lon="1.86353">
        <ele>1123.126</ele>
        <time>2019-04-07T23:43:33Z</time>
      </trkpt>
      <trkpt lat="42.27565" lon="1.86352">
        <ele>1123.108</ele>
        <time>2019-04-07T23:43:34Z</time>
      </trkpt>
      <trkpt lat="42.27565" lon="1.86351">
        <ele>1123.031</ele>
        <time>2019-04-07T23:43:34Z</time>
      </trkpt>
      <trkpt lat="42.27566" lon="1.86348">
        <ele>1122.673</ele>
        <time>2019-04-07T23:43:35Z</time>
      </trkpt>
      <trkpt lat="42.27566" lon="1.86347">
        <ele>1122.158</ele>
        <time>2019-04-07T23:43:35Z</time>
      </trkpt>
      <trkpt lat="42.27567" lon="1.86346">
        <ele>1121.249</ele>
        <time>2019-04-07T23:43:36Z</time>
      </trkpt>
      <trkpt lat="42.27566" lon="1.86345">
        <ele>1120.939</ele>
        <time>2019-04-07T23:43:36Z</time>
      </trkpt>
      <trkpt lat="42.27567" lon="1.86343">
        <ele>1119.823</ele>
        <time>2019-04-07T23:43:37Z</time>
      </trkpt>
      <trkpt lat="42.27565" lon="1.86338">
        <ele>1118.852</ele>
        <time>2019-04-07T23:43:38Z</time>
      </trkpt>
      <trkpt lat="42.27565" lon="1.86336">
        <ele>1118.794</ele>
        <time>2019-04-07T23:43:39Z</time>
      </trkpt>
      <trkpt lat="42.27565" lon="1.86331">
        <ele>1117.725</ele>
        <time>2019-04-07T23:43:40Z</time>
      </trkpt>
      <trkpt lat="42.27565" lon="1.86324">
        <ele>1116.226</ele>
        <time>2019-04-07T23:43:42Z</time>
      </trkpt>
      <trkpt lat="42.27563" lon="1.8632">
        <ele>1115.408</ele>
        <time>2019-04-07T23:43:44Z</time>
      </trkpt>
      <trkpt lat="42.27563" lon="1.86319">
        <ele>1115.108</ele>
        <time>2019-04-07T23:43:44Z</time>
      </trkpt>
      <trkpt lat="42.27562" lon="1.86318">
        <ele>1114.895</ele>
        <time>2019-04-07T23:43:44Z</time>
      </trkpt>
      <trkpt lat="42.27561" lon="1.86316">
        <ele>1114.297</ele>
        <time>2019-04-07T23:43:45Z</time>
      </trkpt>
      <trkpt lat="42.27561" lon="1.86314">
        <ele>1113.492</ele>
        <time>2019-04-07T23:43:46Z</time>
      </trkpt>
      <trkpt lat="42.2756" lon="1.86313">
        <ele>1113.113</ele>
        <time>2019-04-07T23:43:46Z</time>
      </trkpt>
      <trkpt lat="42.2756" lon="1.86312">
        <ele>1112.673</ele>
        <time>2019-04-07T23:43:46Z</time>
      </trkpt>
      <trkpt lat="42.2756" lon="1.86311">
        <ele>1112.317</ele>
        <time>2019-04-07T23:43:47Z</time>
      </trkpt>
      <trkpt lat="42.2756" lon="1.86308">
        <ele>1111.976</ele>
        <time>2019-04-07T23:43:48Z</time>
      </trkpt>
      <trkpt lat="42.27561" lon="1.86305">
        <ele>1111.168</ele>
        <time>2019-04-07T23:43:49Z</time>
      </trkpt>
      <trkpt lat="42.27561" lon="1.86303">
        <ele>1110.972</ele>
        <time>2019-04-07T23:43:49Z</time>
      </trkpt>
      <trkpt lat="42.27562" lon="1.86301">
        <ele>1110.113</ele>
        <time>2019-04-07T23:43:50Z</time>
      </trkpt>
      <trkpt lat="42.27562" lon="1.86299">
        <ele>1109.514</ele>
        <time>2019-04-07T23:43:50Z</time>
      </trkpt>
      <trkpt lat="42.27562" lon="1.86296">
        <ele>1109.108</ele>
        <time>2019-04-07T23:43:51Z</time>
      </trkpt>
      <trkpt lat="42.27563" lon="1.86294">
        <ele>1109.06</ele>
        <time>2019-04-07T23:43:52Z</time>
      </trkpt>
      <trkpt lat="42.27563" lon="1.86293">
        <ele>1108.612</ele>
        <time>2019-04-07T23:43:52Z</time>
      </trkpt>
      <trkpt lat="42.27562" lon="1.86291">
        <ele>1108.157</ele>
        <time>2019-04-07T23:43:53Z</time>
      </trkpt>
      <trkpt lat="42.27562" lon="1.86288">
        <ele>1107.418</ele>
        <time>2019-04-07T23:43:54Z</time>
      </trkpt>
      <trkpt lat="42.27561" lon="1.86283">
        <ele>1106.458</ele>
        <time>2019-04-07T23:43:55Z</time>
      </trkpt>
      <trkpt lat="42.2756" lon="1.86279">
        <ele>1105.762</ele>
        <time>2019-04-07T23:43:57Z</time>
      </trkpt>
      <trkpt lat="42.27559" lon="1.86277">
        <ele>1105.121</ele>
        <time>2019-04-07T23:43:57Z</time>
      </trkpt>
      <trkpt lat="42.27558" lon="1.86276">
        <ele>1104.643</ele>
        <time>2019-04-07T23:43:58Z</time>
      </trkpt>
      <trkpt lat="42.27556" lon="1.86273">
        <ele>1104.093</ele>
        <time>2019-04-07T23:43:59Z</time>
      </trkpt>
      <trkpt lat="42.27552" lon="1.8627">
        <ele>1102.965</ele>
        <time>2019-04-07T23:44:01Z</time>
      </trkpt>
      <trkpt lat="42.27552" lon="1.86268">
        <ele>1102.421</ele>
        <time>2019-04-07T23:44:01Z</time>
      </trkpt>
      <trkpt lat="42.27551" lon="1.86267">
        <ele>1102.108</ele>
        <time>2019-04-07T23:44:02Z</time>
      </trkpt>
      <trkpt lat="42.2755" lon="1.86265">
        <ele>1101.622</ele>
        <time>2019-04-07T23:44:02Z</time>
      </trkpt>
      <trkpt lat="42.2755" lon="1.86263">
        <ele>1100.974</ele>
        <time>2019-04-07T23:44:03Z</time>
      </trkpt>
      <trkpt lat="42.2755" lon="1.86262">
        <ele>1100.599</ele>
        <time>2019-04-07T23:44:03Z</time>
      </trkpt>
      <trkpt lat="42.2755" lon="1.8626">
        <ele>1100.27</ele>
        <time>2019-04-07T23:44:04Z</time>
      </trkpt>
      <trkpt lat="42.27547" lon="1.86255">
        <ele>1099.17</ele>
        <time>2019-04-07T23:44:06Z</time>
      </trkpt>
      <trkpt lat="42.27546" lon="1.86249">
        <ele>1098.294</ele>
        <time>2019-04-07T23:44:07Z</time>
      </trkpt>
      <trkpt lat="42.27544" lon="1.86242">
        <ele>1097.093</ele>
        <time>2019-04-07T23:44:10Z</time>
      </trkpt>
      <trkpt lat="42.27544" lon="1.8624">
        <ele>1097.095</ele>
        <time>2019-04-07T23:44:10Z</time>
      </trkpt>
      <trkpt lat="42.27543" lon="1.86235">
        <ele>1096.559</ele>
        <time>2019-04-07T23:44:12Z</time>
      </trkpt>
      <trkpt lat="42.27542" lon="1.86232">
        <ele>1095.903</ele>
        <time>2019-04-07T23:44:13Z</time>
      </trkpt>
      <trkpt lat="42.27541" lon="1.86231">
        <ele>1094.823</ele>
        <time>2019-04-07T23:44:13Z</time>
      </trkpt>
      <trkpt lat="42.2754" lon="1.86231">
        <ele>1094.408</ele>
        <time>2019-04-07T23:44:14Z</time>
      </trkpt>
      <trkpt lat="42.27539" lon="1.86231">
        <ele>1094.358</ele>
        <time>2019-04-07T23:44:14Z</time>
      </trkpt>
      <trkpt lat="42.27539" lon="1.8623">
        <ele>1093.96</ele>
        <time>2019-04-07T23:44:14Z</time>
      </trkpt>
      <trkpt lat="42.27539" lon="1.86229">
        <ele>1093.785</ele>
        <time>2019-04-07T23:44:15Z</time>
      </trkpt>
      <trkpt lat="42.27538" lon="1.86228">
        <ele>1093.236</ele>
        <time>2019-04-07T23:44:15Z</time>
      </trkpt>
      <trkpt lat="42.27537" lon="1.86224">
        <ele>1092.666</ele>
        <time>2019-04-07T23:44:16Z</time>
      </trkpt>
      <trkpt lat="42.27536" lon="1.86221">
        <ele>1092.22</ele>
        <time>2019-04-07T23:44:17Z</time>
      </trkpt>
      <trkpt lat="42.27531" lon="1.86215">
        <ele>1091.059</ele>
        <time>2019-04-07T23:44:20Z</time>
      </trkpt>
      <trkpt lat="42.2753" lon="1.86212">
        <ele>1090.181</ele>
        <time>2019-04-07T23:44:21Z</time>
      </trkpt>
      <trkpt lat="42.27529" lon="1.8621">
        <ele>1089.935</ele>
        <time>2019-04-07T23:44:21Z</time>
      </trkpt>
      <trkpt lat="42.27527" lon="1.86206">
        <ele>1089.286</ele>
        <time>2019-04-07T23:44:23Z</time>
      </trkpt>
      <trkpt lat="42.27527" lon="1.86205">
        <ele>1088.414</ele>
        <time>2019-04-07T23:44:23Z</time>
      </trkpt>
      <trkpt lat="42.27525" lon="1.86202">
        <ele>1087.808</ele>
        <time>2019-04-07T23:44:24Z</time>
      </trkpt>
      <trkpt lat="42.27524" lon="1.86197">
        <ele>1086.616</ele>
        <time>2019-04-07T23:44:26Z</time>
      </trkpt>
      <trkpt lat="42.27524" lon="1.86194">
        <ele>1085.988</ele>
        <time>2019-04-07T23:44:27Z</time>
      </trkpt>
      <trkpt lat="42.27524" lon="1.86187">
        <ele>1085.633</ele>
        <time>2019-04-07T23:44:29Z</time>
      </trkpt>
      <trkpt lat="42.27525" lon="1.8618">
        <ele>1084.174</ele>
        <time>2019-04-07T23:44:31Z</time>
      </trkpt>
      <trkpt lat="42.27525" lon="1.86178">
        <ele>1083.434</ele>
        <time>2019-04-07T23:44:32Z</time>
      </trkpt>
      <trkpt lat="42.27524" lon="1.86176">
        <ele>1083.288</ele>
        <time>2019-04-07T23:44:32Z</time>
      </trkpt>
      <trkpt lat="42.27524" lon="1.86174">
        <ele>1082.847</ele>
        <time>2019-04-07T23:44:33Z</time>
      </trkpt>
      <trkpt lat="42.27523" lon="1.8617">
        <ele>1081.519</ele>
        <time>2019-04-07T23:44:34Z</time>
      </trkpt>
      <trkpt lat="42.27523" lon="1.86166">
        <ele>1080.614</ele>
        <time>2019-04-07T23:44:35Z</time>
      </trkpt>
      <trkpt lat="42.27523" lon="1.86165">
        <ele>1080.154</ele>
        <time>2019-04-07T23:44:35Z</time>
      </trkpt>
      <trkpt lat="42.27524" lon="1.86162">
        <ele>1079.809</ele>
        <time>2019-04-07T23:44:36Z</time>
      </trkpt>
      <trkpt lat="42.27524" lon="1.86158">
        <ele>1079.408</ele>
        <time>2019-04-07T23:44:38Z</time>
      </trkpt>
      <trkpt lat="42.27524" lon="1.86156">
        <ele>1079.284</ele>
        <time>2019-04-07T23:44:38Z</time>
      </trkpt>
      <trkpt lat="42.27524" lon="1.8615">
        <ele>1078.016</ele>
        <time>2019-04-07T23:44:40Z</time>
      </trkpt>
      <trkpt lat="42.27525" lon="1.86144">
        <ele>1077.081</ele>
        <time>2019-04-07T23:44:42Z</time>
      </trkpt>
      <trkpt lat="42.27525" lon="1.86143">
        <ele>1076.792</ele>
        <time>2019-04-07T23:44:42Z</time>
      </trkpt>
      <trkpt lat="42.27525" lon="1.86137">
        <ele>1075.242</ele>
        <time>2019-04-07T23:44:44Z</time>
      </trkpt>
      <trkpt lat="42.27525" lon="1.86134">
        <ele>1074.666</ele>
        <time>2019-04-07T23:44:45Z</time>
      </trkpt>
      <trkpt lat="42.27525" lon="1.86133">
        <ele>1074.365</ele>
        <time>2019-04-07T23:44:45Z</time>
      </trkpt>
      <trkpt lat="42.27523" lon="1.86126">
        <ele>1073.237</ele>
        <time>2019-04-07T23:44:47Z</time>
      </trkpt>
      <trkpt lat="42.27523" lon="1.86123">
        <ele>1073.288</ele>
        <time>2019-04-07T23:44:48Z</time>
      </trkpt>
      <trkpt lat="42.27522" lon="1.86121">
        <ele>1072.824</ele>
        <time>2019-04-07T23:44:49Z</time>
      </trkpt>
      <trkpt lat="42.27521" lon="1.86117">
        <ele>1072.126</ele>
        <time>2019-04-07T23:44:50Z</time>
      </trkpt>
      <trkpt lat="42.2752" lon="1.86115">
        <ele>1072.008</ele>
        <time>2019-04-07T23:44:51Z</time>
      </trkpt>
      <trkpt lat="42.27519" lon="1.86113">
        <ele>1071.681</ele>
        <time>2019-04-07T23:44:51Z</time>
      </trkpt>
      <trkpt lat="42.27517" lon="1.86108">
        <ele>1071.233</ele>
        <time>2019-04-07T23:44:53Z</time>
      </trkpt>
      <trkpt lat="42.27516" lon="1.86107">
        <ele>1071.148</ele>
        <time>2019-04-07T23:44:53Z</time>
      </trkpt>
      <trkpt lat="42.27516" lon="1.86106">
        <ele>1070.929</ele>
        <time>2019-04-07T23:44:54Z</time>
      </trkpt>
      <trkpt lat="42.27516" lon="1.86104">
        <ele>1070.729</ele>
        <time>2019-04-07T23:44:54Z</time>
      </trkpt>
      <trkpt lat="42.27517" lon="1.86098">
        <ele>1070.053</ele>
        <time>2019-04-07T23:44:56Z</time>
      </trkpt>
      <trkpt lat="42.27517" lon="1.86096">
        <ele>1069.832</ele>
        <time>2019-04-07T23:44:57Z</time>
      </trkpt>
      <trkpt lat="42.27519" lon="1.86089">
        <ele>1068.554</ele>
        <time>2019-04-07T23:44:59Z</time>
      </trkpt>
      <trkpt lat="42.2752" lon="1.86084">
        <ele>1067.929</ele>
        <time>2019-04-07T23:45:01Z</time>
      </trkpt>
      <trkpt lat="42.2752" lon="1.86079">
        <ele>1067.5</ele>
        <time>2019-04-07T23:45:02Z</time>
      </trkpt>
      <trkpt lat="42.27522" lon="1.86074">
        <ele>1066.12</ele>
        <time>2019-04-07T23:45:04Z</time>
      </trkpt>
      <trkpt lat="42.27522" lon="1.86073">
        <ele>1065.508</ele>
        <time>2019-04-07T23:45:04Z</time>
      </trkpt>
      <trkpt lat="42.27522" lon="1.86072">
        <ele>1065.675</ele>
        <time>2019-04-07T23:45:04Z</time>
      </trkpt>
      <trkpt lat="42.27522" lon="1.86071">
        <ele>1064.937</ele>
        <time>2019-04-07T23:45:05Z</time>
      </trkpt>
      <trkpt lat="42.27522" lon="1.86069">
        <ele>1064.672</ele>
        <time>2019-04-07T23:45:05Z</time>
      </trkpt>
      <trkpt lat="42.27522" lon="1.86068">
        <ele>1064.383</ele>
        <time>2019-04-07T23:45:06Z</time>
      </trkpt>
      <trkpt lat="42.27519" lon="1.86062">
        <ele>1064.083</ele>
        <time>2019-04-07T23:45:08Z</time>
      </trkpt>
      <trkpt lat="42.27517" lon="1.86058">
        <ele>1063.687</ele>
        <time>2019-04-07T23:45:09Z</time>
      </trkpt>
      <trkpt lat="42.27516" lon="1.86052">
        <ele>1062.786</ele>
        <time>2019-04-07T23:45:11Z</time>
      </trkpt>
      <trkpt lat="42.27516" lon="1.86049">
        <ele>1062.258</ele>
        <time>2019-04-07T23:45:12Z</time>
      </trkpt>
      <trkpt lat="42.27516" lon="1.86048">
        <ele>1062.265</ele>
        <time>2019-04-07T23:45:12Z</time>
      </trkpt>
      <trkpt lat="42.27515" lon="1.86046">
        <ele>1061.668</ele>
        <time>2019-04-07T23:45:13Z</time>
      </trkpt>
      <trkpt lat="42.27515" lon="1.86045">
        <ele>1061.414</ele>
        <time>2019-04-07T23:45:13Z</time>
      </trkpt>
      <trkpt lat="42.27515" lon="1.86044">
        <ele>1061.108</ele>
        <time>2019-04-07T23:45:14Z</time>
      </trkpt>
      <trkpt lat="42.27511" lon="1.86034">
        <ele>1060.459</ele>
        <time>2019-04-07T23:45:17Z</time>
      </trkpt>
      <trkpt lat="42.27509" lon="1.8603">
        <ele>1059.521</ele>
        <time>2019-04-07T23:45:18Z</time>
      </trkpt>
      <trkpt lat="42.27509" lon="1.86028">
        <ele>1059.266</ele>
        <time>2019-04-07T23:45:19Z</time>
      </trkpt>
      <trkpt lat="42.27509" lon="1.86026">
        <ele>1059.157</ele>
        <time>2019-04-07T23:45:19Z</time>
      </trkpt>
      <trkpt lat="42.27509" lon="1.86023">
        <ele>1058.327</ele>
        <time>2019-04-07T23:45:20Z</time>
      </trkpt>
      <trkpt lat="42.27509" lon="1.86022">
        <ele>1057.941</ele>
        <time>2019-04-07T23:45:21Z</time>
      </trkpt>
      <trkpt lat="42.27508" lon="1.86019">
        <ele>1057.35</ele>
        <time>2019-04-07T23:45:22Z</time>
      </trkpt>
      <trkpt lat="42.27508" lon="1.86017">
        <ele>1056.952</ele>
        <time>2019-04-07T23:45:22Z</time>
      </trkpt>
      <trkpt lat="42.27507" lon="1.86014">
        <ele>1056.527</ele>
        <time>2019-04-07T23:45:23Z</time>
      </trkpt>
      <trkpt lat="42.27507" lon="1.86014">
        <ele>1056.168</ele>
        <time>2019-04-07T23:45:23Z</time>
      </trkpt>
      <trkpt lat="42.27506" lon="1.86013">
        <ele>1055.514</ele>
        <time>2019-04-07T23:45:24Z</time>
      </trkpt>
      <trkpt lat="42.27506" lon="1.86013">
        <ele>1055.408</ele>
        <time>2019-04-07T23:45:24Z</time>
      </trkpt>
      <trkpt lat="42.27505" lon="1.86013">
        <ele>1055.155</ele>
        <time>2019-04-07T23:45:24Z</time>
      </trkpt>
      <trkpt lat="42.27502" lon="1.86013">
        <ele>1055.257</ele>
        <time>2019-04-07T23:45:25Z</time>
      </trkpt>
      <trkpt lat="42.27501" lon="1.86012">
        <ele>1055.122</ele>
        <time>2019-04-07T23:45:26Z</time>
      </trkpt>
      <trkpt lat="42.27499" lon="1.8601">
        <ele>1055.023</ele>
        <time>2019-04-07T23:45:27Z</time>
      </trkpt>
      <trkpt lat="42.27497" lon="1.86005">
        <ele>1055.263</ele>
        <time>2019-04-07T23:45:28Z</time>
      </trkpt>
      <trkpt lat="42.27497" lon="1.86">
        <ele>1055.247</ele>
        <time>2019-04-07T23:45:30Z</time>
      </trkpt>
      <trkpt lat="42.27499" lon="1.85996">
        <ele>1053.886</ele>
        <time>2019-04-07T23:45:31Z</time>
      </trkpt>
      <trkpt lat="42.275" lon="1.85994">
        <ele>1053.658</ele>
        <time>2019-04-07T23:45:32Z</time>
      </trkpt>
      <trkpt lat="42.27501" lon="1.85991">
        <ele>1052.775</ele>
        <time>2019-04-07T23:45:33Z</time>
      </trkpt>
      <trkpt lat="42.27502" lon="1.8599">
        <ele>1052.228</ele>
        <time>2019-04-07T23:45:34Z</time>
      </trkpt>
      <trkpt lat="42.27503" lon="1.85985">
        <ele>1051.52</ele>
        <time>2019-04-07T23:45:35Z</time>
      </trkpt>
      <trkpt lat="42.27504" lon="1.85983">
        <ele>1051.108</ele>
        <time>2019-04-07T23:45:36Z</time>
      </trkpt>
      <trkpt lat="42.27505" lon="1.85977">
        <ele>1050.69</ele>
        <time>2019-04-07T23:45:38Z</time>
      </trkpt>
      <trkpt lat="42.27505" lon="1.85964">
        <ele>1049.712</ele>
        <time>2019-04-07T23:45:41Z</time>
      </trkpt>
      <trkpt lat="42.27503" lon="1.85962">
        <ele>1049.487</ele>
        <time>2019-04-07T23:45:42Z</time>
      </trkpt>
      <trkpt lat="42.275" lon="1.8596">
        <ele>1049.078</ele>
        <time>2019-04-07T23:45:44Z</time>
      </trkpt>
      <trkpt lat="42.27499" lon="1.8596">
        <ele>1048.658</ele>
        <time>2019-04-07T23:45:44Z</time>
      </trkpt>
      <trkpt lat="42.27496" lon="1.85961">
        <ele>1048.292</ele>
        <time>2019-04-07T23:45:45Z</time>
      </trkpt>
      <trkpt lat="42.27488" lon="1.85964">
        <ele>1048.611</ele>
        <time>2019-04-07T23:45:49Z</time>
      </trkpt>
      <trkpt lat="42.27488" lon="1.85964">
        <ele>1048.673</ele>
        <time>2019-04-07T23:45:49Z</time>
      </trkpt>
      <trkpt lat="42.27489" lon="1.85964">
        <ele>1048.473</ele>
        <time>2019-04-07T23:45:49Z</time>
      </trkpt>
      <trkpt lat="42.27494" lon="1.85959">
        <ele>1048.185</ele>
        <time>2019-04-07T23:45:52Z</time>
      </trkpt>
      <trkpt lat="42.27498" lon="1.85952">
        <ele>1048.013</ele>
        <time>2019-04-07T23:45:54Z</time>
      </trkpt>
      <trkpt lat="42.275" lon="1.85949">
        <ele>1047.808</ele>
        <time>2019-04-07T23:45:56Z</time>
      </trkpt>
      <trkpt lat="42.27504" lon="1.85946">
        <ele>1047.36</ele>
        <time>2019-04-07T23:45:57Z</time>
      </trkpt>
      <trkpt lat="42.27511" lon="1.85952">
        <ele>1046.762</ele>
        <time>2019-04-07T23:46:01Z</time>
      </trkpt>
      <trkpt lat="42.27514" lon="1.85954">
        <ele>1046.127</ele>
        <time>2019-04-07T23:46:02Z</time>
      </trkpt>
      <trkpt lat="42.27513" lon="1.85952">
        <ele>1045.958</ele>
        <time>2019-04-07T23:46:03Z</time>
      </trkpt>
      <trkpt lat="42.27513" lon="1.85951">
        <ele>1046.078</ele>
        <time>2019-04-07T23:46:03Z</time>
      </trkpt>
      <trkpt lat="42.27512" lon="1.85942">
        <ele>1045.882</ele>
        <time>2019-04-07T23:46:06Z</time>
      </trkpt>
      <trkpt lat="42.27511" lon="1.85932">
        <ele>1045.171</ele>
        <time>2019-04-07T23:46:09Z</time>
      </trkpt>
      <trkpt lat="42.27508" lon="1.85922">
        <ele>1043.913</ele>
        <time>2019-04-07T23:46:12Z</time>
      </trkpt>
      <trkpt lat="42.27506" lon="1.8592">
        <ele>1043.346</ele>
        <time>2019-04-07T23:46:13Z</time>
      </trkpt>
      <trkpt lat="42.27505" lon="1.85916">
        <ele>1042.788</ele>
        <time>2019-04-07T23:46:14Z</time>
      </trkpt>
      <trkpt lat="42.27504" lon="1.85914">
        <ele>1042.016</ele>
        <time>2019-04-07T23:46:15Z</time>
      </trkpt>
      <trkpt lat="42.27503" lon="1.85911">
        <ele>1041.508</ele>
        <time>2019-04-07T23:46:16Z</time>
      </trkpt>
      <trkpt lat="42.27503" lon="1.85909">
        <ele>1041.197</ele>
        <time>2019-04-07T23:46:16Z</time>
      </trkpt>
      <trkpt lat="42.27502" lon="1.85906">
        <ele>1040.539</ele>
        <time>2019-04-07T23:46:18Z</time>
      </trkpt>
      <trkpt lat="42.27502" lon="1.85894">
        <ele>1039.174</ele>
        <time>2019-04-07T23:46:21Z</time>
      </trkpt>
      <trkpt lat="42.27502" lon="1.85892">
        <ele>1038.825</ele>
        <time>2019-04-07T23:46:22Z</time>
      </trkpt>
      <trkpt lat="42.27501" lon="1.85887">
        <ele>1038.115</ele>
        <time>2019-04-07T23:46:23Z</time>
      </trkpt>
      <trkpt lat="42.27502" lon="1.85881">
        <ele>1037.119</ele>
        <time>2019-04-07T23:46:25Z</time>
      </trkpt>
      <trkpt lat="42.275" lon="1.85871">
        <ele>1036.218</ele>
        <time>2019-04-07T23:46:28Z</time>
      </trkpt>
      <trkpt lat="42.275" lon="1.85867">
        <ele>1035.99</ele>
        <time>2019-04-07T23:46:29Z</time>
      </trkpt>
      <trkpt lat="42.27499" lon="1.85856">
        <ele>1034.692</ele>
        <time>2019-04-07T23:46:32Z</time>
      </trkpt>
      <trkpt lat="42.27498" lon="1.85854">
        <ele>1034.673</ele>
        <time>2019-04-07T23:46:33Z</time>
      </trkpt>
      <trkpt lat="42.27498" lon="1.85851">
        <ele>1033.52</ele>
        <time>2019-04-07T23:46:34Z</time>
      </trkpt>
      <trkpt lat="42.27497" lon="1.85848">
        <ele>1032.808</ele>
        <time>2019-04-07T23:46:35Z</time>
      </trkpt>
      <trkpt lat="42.27499" lon="1.85851">
        <ele>1032.642</ele>
        <time>2019-04-07T23:46:36Z</time>
      </trkpt>
      <trkpt lat="42.27498" lon="1.85838">
        <ele>1031.684</ele>
        <time>2019-04-07T23:46:40Z</time>
      </trkpt>
      <trkpt lat="42.27498" lon="1.85839">
        <ele>1031.169</ele>
        <time>2019-04-07T23:46:40Z</time>
      </trkpt>
      <trkpt lat="42.27499" lon="1.85842">
        <ele>1030.66</ele>
        <time>2019-04-07T23:46:41Z</time>
      </trkpt>
      <trkpt lat="42.275" lon="1.85843">
        <ele>1030.73</ele>
        <time>2019-04-07T23:46:42Z</time>
      </trkpt>
      <trkpt lat="42.275" lon="1.85844">
        <ele>1030.634</ele>
        <time>2019-04-07T23:46:42Z</time>
      </trkpt>
      <trkpt lat="42.275" lon="1.85843">
        <ele>1030.743</ele>
        <time>2019-04-07T23:46:42Z</time>
      </trkpt>
      <trkpt lat="42.275" lon="1.85838">
        <ele>1030.225</ele>
        <time>2019-04-07T23:46:44Z</time>
      </trkpt>
      <trkpt lat="42.27501" lon="1.85835">
        <ele>1029.585</ele>
        <time>2019-04-07T23:46:44Z</time>
      </trkpt>
      <trkpt lat="42.27501" lon="1.85834">
        <ele>1029.089</ele>
        <time>2019-04-07T23:46:45Z</time>
      </trkpt>
      <trkpt lat="42.27502" lon="1.85831">
        <ele>1027.817</ele>
        <time>2019-04-07T23:46:46Z</time>
      </trkpt>
      <trkpt lat="42.27502" lon="1.85829">
        <ele>1027.108</ele>
        <time>2019-04-07T23:46:46Z</time>
      </trkpt>
      <trkpt lat="42.27503" lon="1.85828">
        <ele>1026.581</ele>
        <time>2019-04-07T23:46:47Z</time>
      </trkpt>
      <trkpt lat="42.27503" lon="1.85825">
        <ele>1025.973</ele>
        <time>2019-04-07T23:46:48Z</time>
      </trkpt>
      <trkpt lat="42.27503" lon="1.85823">
        <ele>1025.718</ele>
        <time>2019-04-07T23:46:48Z</time>
      </trkpt>
      <trkpt lat="42.27503" lon="1.85819">
        <ele>1025.269</ele>
        <time>2019-04-07T23:46:50Z</time>
      </trkpt>
      <trkpt lat="42.27502" lon="1.85815">
        <ele>1024.529</ele>
        <time>2019-04-07T23:46:51Z</time>
      </trkpt>
      <trkpt lat="42.27502" lon="1.85812">
        <ele>1024.023</ele>
        <time>2019-04-07T23:46:51Z</time>
      </trkpt>
      <trkpt lat="42.27502" lon="1.8581">
        <ele>1023.762</ele>
        <time>2019-04-07T23:46:52Z</time>
      </trkpt>
      <trkpt lat="42.27502" lon="1.85808">
        <ele>1023.594</ele>
        <time>2019-04-07T23:46:53Z</time>
      </trkpt>
      <trkpt lat="42.27502" lon="1.85805">
        <ele>1023.487</ele>
        <time>2019-04-07T23:46:54Z</time>
      </trkpt>
      <trkpt lat="42.275" lon="1.85801">
        <ele>1022.342</ele>
        <time>2019-04-07T23:46:55Z</time>
      </trkpt>
      <trkpt lat="42.275" lon="1.85802">
        <ele>1021.726</ele>
        <time>2019-04-07T23:46:55Z</time>
      </trkpt>
      <trkpt lat="42.27498" lon="1.85805">
        <ele>1021.408</ele>
        <time>2019-04-07T23:46:56Z</time>
      </trkpt>
      <trkpt lat="42.27497" lon="1.85803">
        <ele>1021.421</ele>
        <time>2019-04-07T23:46:57Z</time>
      </trkpt>
      <trkpt lat="42.27496" lon="1.85799">
        <ele>1021.253</ele>
        <time>2019-04-07T23:46:58Z</time>
      </trkpt>
      <trkpt lat="42.27496" lon="1.85794">
        <ele>1021.378</ele>
        <time>2019-04-07T23:46:59Z</time>
      </trkpt>
      <trkpt lat="42.27496" lon="1.85788">
        <ele>1021.039</ele>
        <time>2019-04-07T23:47:01Z</time>
      </trkpt>
      <trkpt lat="42.27495" lon="1.85784">
        <ele>1019.889</ele>
        <time>2019-04-07T23:47:03Z</time>
      </trkpt>
      <trkpt lat="42.27492" lon="1.85781">
        <ele>1019.143</ele>
        <time>2019-04-07T23:47:04Z</time>
      </trkpt>
      <trkpt lat="42.27492" lon="1.85781">
        <ele>1018.632</ele>
        <time>2019-04-07T23:47:04Z</time>
      </trkpt>
      <trkpt lat="42.27489" lon="1.85776">
        <ele>1017.514</ele>
        <time>2019-04-07T23:47:06Z</time>
      </trkpt>
      <trkpt lat="42.27488" lon="1.85775">
        <ele>1017.285</ele>
        <time>2019-04-07T23:47:07Z</time>
      </trkpt>
      <trkpt lat="42.27487" lon="1.85773">
        <ele>1016.889</ele>
        <time>2019-04-07T23:47:07Z</time>
      </trkpt>
      <trkpt lat="42.27485" lon="1.85766">
        <ele>1016.417</ele>
        <time>2019-04-07T23:47:09Z</time>
      </trkpt>
      <trkpt lat="42.27484" lon="1.85764">
        <ele>1016.008</ele>
        <time>2019-04-07T23:47:10Z</time>
      </trkpt>
      <trkpt lat="42.27484" lon="1.8576">
        <ele>1015.211</ele>
        <time>2019-04-07T23:47:11Z</time>
      </trkpt>
      <trkpt lat="42.27484" lon="1.85758">
        <ele>1014.783</ele>
        <time>2019-04-07T23:47:12Z</time>
      </trkpt>
      <trkpt lat="42.27485" lon="1.85753">
        <ele>1013.878</ele>
        <time>2019-04-07T23:47:13Z</time>
      </trkpt>
      <trkpt lat="42.27485" lon="1.8575">
        <ele>1013.359</ele>
        <time>2019-04-07T23:47:14Z</time>
      </trkpt>
      <trkpt lat="42.27485" lon="1.85746">
        <ele>1012.839</ele>
        <time>2019-04-07T23:47:15Z</time>
      </trkpt>
      <trkpt lat="42.27485" lon="1.85744">
        <ele>1012.523</ele>
        <time>2019-04-07T23:47:16Z</time>
      </trkpt>
      <trkpt lat="42.27486" lon="1.8574">
        <ele>1011.532</ele>
        <time>2019-04-07T23:47:17Z</time>
      </trkpt>
      <trkpt lat="42.27485" lon="1.85738">
        <ele>1011.214</ele>
        <time>2019-04-07T23:47:18Z</time>
      </trkpt>
      <trkpt lat="42.27486" lon="1.85736">
        <ele>1010.241</ele>
        <time>2019-04-07T23:47:19Z</time>
      </trkpt>
      <trkpt lat="42.27485" lon="1.85736">
        <ele>1009.281</ele>
        <time>2019-04-07T23:47:19Z</time>
      </trkpt>
      <trkpt lat="42.27484" lon="1.85736">
        <ele>1008.709</ele>
        <time>2019-04-07T23:47:19Z</time>
      </trkpt>
      <trkpt lat="42.2748" lon="1.85733">
        <ele>1007.708</ele>
        <time>2019-04-07T23:47:21Z</time>
      </trkpt>
      <trkpt lat="42.27479" lon="1.85731">
        <ele>1007.677</ele>
        <time>2019-04-07T23:47:22Z</time>
      </trkpt>
      <trkpt lat="42.27478" lon="1.85726">
        <ele>1006.619</ele>
        <time>2019-04-07T23:47:23Z</time>
      </trkpt>
      <trkpt lat="42.27478" lon="1.85722">
        <ele>1005.844</ele>
        <time>2019-04-07T23:47:24Z</time>
      </trkpt>
      <trkpt lat="42.27478" lon="1.85721">
        <ele>1005.595</ele>
        <time>2019-04-07T23:47:25Z</time>
      </trkpt>
      <trkpt lat="42.27478" lon="1.85715">
        <ele>1005.395</ele>
        <time>2019-04-07T23:47:26Z</time>
      </trkpt>
      <trkpt lat="42.27478" lon="1.85713">
        <ele>1004.729</ele>
        <time>2019-04-07T23:47:27Z</time>
      </trkpt>
      <trkpt lat="42.27478" lon="1.85711">
        <ele>1004.018</ele>
        <time>2019-04-07T23:47:28Z</time>
      </trkpt>
      <trkpt lat="42.27478" lon="1.85709">
        <ele>1002.53</ele>
        <time>2019-04-07T23:47:28Z</time>
      </trkpt>
      <trkpt lat="42.27479" lon="1.85705">
        <ele>1001.581</ele>
        <time>2019-04-07T23:47:30Z</time>
      </trkpt>
      <trkpt lat="42.2748" lon="1.85698">
        <ele>1000.661</ele>
        <time>2019-04-07T23:47:32Z</time>
      </trkpt>
      <trkpt lat="42.27481" lon="1.85696">
        <ele>1000.517</ele>
        <time>2019-04-07T23:47:32Z</time>
      </trkpt>
      <trkpt lat="42.27482" lon="1.85694">
        <ele>1000.408</ele>
        <time>2019-04-07T23:47:33Z</time>
      </trkpt>
      <trkpt lat="42.27483" lon="1.85689">
        <ele>999.341</ele>
        <time>2019-04-07T23:47:35Z</time>
      </trkpt>
      <trkpt lat="42.27483" lon="1.85687">
        <ele>998.743</ele>
        <time>2019-04-07T23:47:35Z</time>
      </trkpt>
      <trkpt lat="42.27484" lon="1.85683">
        <ele>997.828</ele>
        <time>2019-04-07T23:47:36Z</time>
      </trkpt>
      <trkpt lat="42.27482" lon="1.85677">
        <ele>997.119</ele>
        <time>2019-04-07T23:47:38Z</time>
      </trkpt>
      <trkpt lat="42.27482" lon="1.85676">
        <ele>996.969</ele>
        <time>2019-04-07T23:47:39Z</time>
      </trkpt>
      <trkpt lat="42.27481" lon="1.85675">
        <ele>996.883</ele>
        <time>2019-04-07T23:47:39Z</time>
      </trkpt>
      <trkpt lat="42.27482" lon="1.85668">
        <ele>996.312</ele>
        <time>2019-04-07T23:47:41Z</time>
      </trkpt>
      <trkpt lat="42.27482" lon="1.85666">
        <ele>996.454</ele>
        <time>2019-04-07T23:47:42Z</time>
      </trkpt>
      <trkpt lat="42.27483" lon="1.85655">
        <ele>995.555</ele>
        <time>2019-04-07T23:47:45Z</time>
      </trkpt>
      <trkpt lat="42.27483" lon="1.85651">
        <ele>994.907</ele>
        <time>2019-04-07T23:47:46Z</time>
      </trkpt>
      <trkpt lat="42.27483" lon="1.85646">
        <ele>994.217</ele>
        <time>2019-04-07T23:47:47Z</time>
      </trkpt>
      <trkpt lat="42.27482" lon="1.85644">
        <ele>993.708</ele>
        <time>2019-04-07T23:47:48Z</time>
      </trkpt>
      <trkpt lat="42.27481" lon="1.85636">
        <ele>992.868</ele>
        <time>2019-04-07T23:47:51Z</time>
      </trkpt>
      <trkpt lat="42.27482" lon="1.85634">
        <ele>992.59</ele>
        <time>2019-04-07T23:47:51Z</time>
      </trkpt>
      <trkpt lat="42.27482" lon="1.85627">
        <ele>991.655</ele>
        <time>2019-04-07T23:47:53Z</time>
      </trkpt>
      <trkpt lat="42.27482" lon="1.85618">
        <ele>990.686</ele>
        <time>2019-04-07T23:47:56Z</time>
      </trkpt>
      <trkpt lat="42.2748" lon="1.85616">
        <ele>990.436</ele>
        <time>2019-04-07T23:47:57Z</time>
      </trkpt>
      <trkpt lat="42.27478" lon="1.8561">
        <ele>989.11</ele>
        <time>2019-04-07T23:47:59Z</time>
      </trkpt>
      <trkpt lat="42.27478" lon="1.85608">
        <ele>988.949</ele>
        <time>2019-04-07T23:47:59Z</time>
      </trkpt>
      <trkpt lat="42.27478" lon="1.85603">
        <ele>988.681</ele>
        <time>2019-04-07T23:48:01Z</time>
      </trkpt>
      <trkpt lat="42.27477" lon="1.85599">
        <ele>988.168</ele>
        <time>2019-04-07T23:48:02Z</time>
      </trkpt>
      <trkpt lat="42.27477" lon="1.85597">
        <ele>987.642</ele>
        <time>2019-04-07T23:48:03Z</time>
      </trkpt>
      <trkpt lat="42.27478" lon="1.85592">
        <ele>987.226</ele>
        <time>2019-04-07T23:48:04Z</time>
      </trkpt>
      <trkpt lat="42.27479" lon="1.85588">
        <ele>987.008</ele>
        <time>2019-04-07T23:48:06Z</time>
      </trkpt>
      <trkpt lat="42.27479" lon="1.85585">
        <ele>986.729</ele>
        <time>2019-04-07T23:48:06Z</time>
      </trkpt>
      <trkpt lat="42.27481" lon="1.85578">
        <ele>986.761</ele>
        <time>2019-04-07T23:48:08Z</time>
      </trkpt>
      <trkpt lat="42.27481" lon="1.85576">
        <ele>986.616</ele>
        <time>2019-04-07T23:48:09Z</time>
      </trkpt>
      <trkpt lat="42.27482" lon="1.85569">
        <ele>986.287</ele>
        <time>2019-04-07T23:48:11Z</time>
      </trkpt>
      <trkpt lat="42.27483" lon="1.85567">
        <ele>985.847</ele>
        <time>2019-04-07T23:48:12Z</time>
      </trkpt>
      <trkpt lat="42.27484" lon="1.85565">
        <ele>985.711</ele>
        <time>2019-04-07T23:48:13Z</time>
      </trkpt>
      <trkpt lat="42.27484" lon="1.85561">
        <ele>984.75</ele>
        <time>2019-04-07T23:48:14Z</time>
      </trkpt>
      <trkpt lat="42.27482" lon="1.85557">
        <ele>983.762</ele>
        <time>2019-04-07T23:48:15Z</time>
      </trkpt>
      <trkpt lat="42.27482" lon="1.85555">
        <ele>983.597</ele>
        <time>2019-04-07T23:48:16Z</time>
      </trkpt>
      <trkpt lat="42.2748" lon="1.85544">
        <ele>981.923</ele>
        <time>2019-04-07T23:48:19Z</time>
      </trkpt>
      <trkpt lat="42.27477" lon="1.85538">
        <ele>980.725</ele>
        <time>2019-04-07T23:48:21Z</time>
      </trkpt>
      <trkpt lat="42.27475" lon="1.85535">
        <ele>980.408</ele>
        <time>2019-04-07T23:48:22Z</time>
      </trkpt>
      <trkpt lat="42.27472" lon="1.8553">
        <ele>979.872</ele>
        <time>2019-04-07T23:48:24Z</time>
      </trkpt>
      <trkpt lat="42.2747" lon="1.85528">
        <ele>979.664</ele>
        <time>2019-04-07T23:48:25Z</time>
      </trkpt>
      <trkpt lat="42.27469" lon="1.85527">
        <ele>979.569</ele>
        <time>2019-04-07T23:48:26Z</time>
      </trkpt>
      <trkpt lat="42.27468" lon="1.85525">
        <ele>979.39</ele>
        <time>2019-04-07T23:48:27Z</time>
      </trkpt>
      <trkpt lat="42.27464" lon="1.85522">
        <ele>979.23</ele>
        <time>2019-04-07T23:48:28Z</time>
      </trkpt>
      <trkpt lat="42.27463" lon="1.8552">
        <ele>979.094</ele>
        <time>2019-04-07T23:48:29Z</time>
      </trkpt>
      <trkpt lat="42.27463" lon="1.85518">
        <ele>979.433</ele>
        <time>2019-04-07T23:48:30Z</time>
      </trkpt>
      <trkpt lat="42.27461" lon="1.85511">
        <ele>979.595</ele>
        <time>2019-04-07T23:48:32Z</time>
      </trkpt>
      <trkpt lat="42.2746" lon="1.85505">
        <ele>979.283</ele>
        <time>2019-04-07T23:48:34Z</time>
      </trkpt>
      <trkpt lat="42.27459" lon="1.855">
        <ele>978.625</ele>
        <time>2019-04-07T23:48:35Z</time>
      </trkpt>
      <trkpt lat="42.27459" lon="1.85496">
        <ele>978.017</ele>
        <time>2019-04-07T23:48:36Z</time>
      </trkpt>
      <trkpt lat="42.27459" lon="1.85495">
        <ele>977.708</ele>
        <time>2019-04-07T23:48:37Z</time>
      </trkpt>
      <trkpt lat="42.27459" lon="1.85492">
        <ele>977.751</ele>
        <time>2019-04-07T23:48:38Z</time>
      </trkpt>
      <trkpt lat="42.27459" lon="1.8549">
        <ele>977.673</ele>
        <time>2019-04-07T23:48:38Z</time>
      </trkpt>
      <trkpt lat="42.27459" lon="1.85489">
        <ele>977.258</ele>
        <time>2019-04-07T23:48:39Z</time>
      </trkpt>
      <trkpt lat="42.2746" lon="1.85487">
        <ele>976.889</ele>
        <time>2019-04-07T23:48:39Z</time>
      </trkpt>
      <trkpt lat="42.2746" lon="1.85484">
        <ele>976.629</ele>
        <time>2019-04-07T23:48:40Z</time>
      </trkpt>
      <trkpt lat="42.2746" lon="1.85477">
        <ele>976.663</ele>
        <time>2019-04-07T23:48:42Z</time>
      </trkpt>
      <trkpt lat="42.2746" lon="1.85473">
        <ele>976.522</ele>
        <time>2019-04-07T23:48:43Z</time>
      </trkpt>
      <trkpt lat="42.27461" lon="1.85466">
        <ele>975.894</ele>
        <time>2019-04-07T23:48:45Z</time>
      </trkpt>
      <trkpt lat="42.27461" lon="1.85465">
        <ele>975.492</ele>
        <time>2019-04-07T23:48:46Z</time>
      </trkpt>
      <trkpt lat="42.2746" lon="1.85454">
        <ele>974.173</ele>
        <time>2019-04-07T23:48:49Z</time>
      </trkpt>
      <trkpt lat="42.27459" lon="1.85452">
        <ele>973.72</ele>
        <time>2019-04-07T23:48:50Z</time>
      </trkpt>
      <trkpt lat="42.27459" lon="1.8545">
        <ele>973.508</ele>
        <time>2019-04-07T23:48:50Z</time>
      </trkpt>
      <trkpt lat="42.27458" lon="1.85445">
        <ele>973.142</ele>
        <time>2019-04-07T23:48:52Z</time>
      </trkpt>
      <trkpt lat="42.27457" lon="1.85442">
        <ele>972.994</ele>
        <time>2019-04-07T23:48:53Z</time>
      </trkpt>
      <trkpt lat="42.27456" lon="1.85433">
        <ele>971.489</ele>
        <time>2019-04-07T23:48:55Z</time>
      </trkpt>
      <trkpt lat="42.27455" lon="1.85432">
        <ele>971.02</ele>
        <time>2019-04-07T23:48:56Z</time>
      </trkpt>
      <trkpt lat="42.27455" lon="1.8543">
        <ele>970.57</ele>
        <time>2019-04-07T23:48:56Z</time>
      </trkpt>
      <trkpt lat="42.27455" lon="1.85428">
        <ele>970.274</ele>
        <time>2019-04-07T23:48:57Z</time>
      </trkpt>
      <trkpt lat="42.27455" lon="1.85425">
        <ele>969.783</ele>
        <time>2019-04-07T23:48:58Z</time>
      </trkpt>
      <trkpt lat="42.27454" lon="1.8542">
        <ele>969.355</ele>
        <time>2019-04-07T23:48:59Z</time>
      </trkpt>
      <trkpt lat="42.27454" lon="1.85418">
        <ele>968.729</ele>
        <time>2019-04-07T23:49:00Z</time>
      </trkpt>
      <trkpt lat="42.27451" lon="1.854">
        <ele>968.3</ele>
        <time>2019-04-07T23:49:05Z</time>
      </trkpt>
      <trkpt lat="42.27449" lon="1.85395">
        <ele>968.22</ele>
        <time>2019-04-07T23:49:07Z</time>
      </trkpt>
      <trkpt lat="42.27448" lon="1.85392">
        <ele>968.208</ele>
        <time>2019-04-07T23:49:08Z</time>
      </trkpt>
      <trkpt lat="42.27448" lon="1.85387">
        <ele>968.365</ele>
        <time>2019-04-07T23:49:09Z</time>
      </trkpt>
      <trkpt lat="42.27451" lon="1.85379">
        <ele>967.537</ele>
        <time>2019-04-07T23:49:12Z</time>
      </trkpt>
      <trkpt lat="42.27452" lon="1.85378">
        <ele>967.552</ele>
        <time>2019-04-07T23:49:13Z</time>
      </trkpt>
      <trkpt lat="42.27455" lon="1.85373">
        <ele>967.493</ele>
        <time>2019-04-07T23:49:15Z</time>
      </trkpt>
      <trkpt lat="42.27456" lon="1.85372">
        <ele>967.213</ele>
        <time>2019-04-07T23:49:15Z</time>
      </trkpt>
      <trkpt lat="42.27456" lon="1.8537">
        <ele>967.247</ele>
        <time>2019-04-07T23:49:16Z</time>
      </trkpt>
      <trkpt lat="42.27457" lon="1.85369">
        <ele>967.276</ele>
        <time>2019-04-07T23:49:16Z</time>
      </trkpt>
      <trkpt lat="42.27457" lon="1.85367">
        <ele>967.188</ele>
        <time>2019-04-07T23:49:17Z</time>
      </trkpt>
      <trkpt lat="42.27457" lon="1.85365">
        <ele>966.938</ele>
        <time>2019-04-07T23:49:17Z</time>
      </trkpt>
      <trkpt lat="42.27458" lon="1.85361">
        <ele>966.17</ele>
        <time>2019-04-07T23:49:18Z</time>
      </trkpt>
      <trkpt lat="42.27461" lon="1.85355">
        <ele>966.417</ele>
        <time>2019-04-07T23:49:21Z</time>
      </trkpt>
      <trkpt lat="42.27462" lon="1.85352">
        <ele>966.408</ele>
        <time>2019-04-07T23:49:22Z</time>
      </trkpt>
      <trkpt lat="42.27462" lon="1.8535">
        <ele>965.836</ele>
        <time>2019-04-07T23:49:22Z</time>
      </trkpt>
      <trkpt lat="42.2746" lon="1.85346">
        <ele>964.988</ele>
        <time>2019-04-07T23:49:23Z</time>
      </trkpt>
      <trkpt lat="42.27458" lon="1.85345">
        <ele>964.673</ele>
        <time>2019-04-07T23:49:24Z</time>
      </trkpt>
      <trkpt lat="42.27454" lon="1.85342">
        <ele>964.594</ele>
        <time>2019-04-07T23:49:26Z</time>
      </trkpt>
      <trkpt lat="42.27453" lon="1.85341">
        <ele>964.314</ele>
        <time>2019-04-07T23:49:27Z</time>
      </trkpt>
      <trkpt lat="42.27451" lon="1.85339">
        <ele>963.548</ele>
        <time>2019-04-07T23:49:28Z</time>
      </trkpt>
      <trkpt lat="42.27451" lon="1.85338">
        <ele>963.237</ele>
        <time>2019-04-07T23:49:28Z</time>
      </trkpt>
      <trkpt lat="42.27449" lon="1.85334">
        <ele>962.699</ele>
        <time>2019-04-07T23:49:29Z</time>
      </trkpt>
      <trkpt lat="42.27448" lon="1.85331">
        <ele>961.921</ele>
        <time>2019-04-07T23:49:30Z</time>
      </trkpt>
      <trkpt lat="42.27448" lon="1.85329">
        <ele>961.541</ele>
        <time>2019-04-07T23:49:31Z</time>
      </trkpt>
      <trkpt lat="42.27447" lon="1.85328">
        <ele>961.205</ele>
        <time>2019-04-07T23:49:31Z</time>
      </trkpt>
      <trkpt lat="42.27447" lon="1.85326">
        <ele>960.708</ele>
        <time>2019-04-07T23:49:32Z</time>
      </trkpt>
      <trkpt lat="42.27446" lon="1.85322">
        <ele>959.915</ele>
        <time>2019-04-07T23:49:33Z</time>
      </trkpt>
      <trkpt lat="42.27447" lon="1.85322">
        <ele>958.877</ele>
        <time>2019-04-07T23:49:33Z</time>
      </trkpt>
      <trkpt lat="42.27447" lon="1.85322">
        <ele>958.622</ele>
        <time>2019-04-07T23:49:34Z</time>
      </trkpt>
      <trkpt lat="42.27448" lon="1.85322">
        <ele>958.733</ele>
        <time>2019-04-07T23:49:34Z</time>
      </trkpt>
      <trkpt lat="42.27449" lon="1.85321">
        <ele>959.153</ele>
        <time>2019-04-07T23:49:35Z</time>
      </trkpt>
      <trkpt lat="42.2745" lon="1.8532">
        <ele>959.217</ele>
        <time>2019-04-07T23:49:35Z</time>
      </trkpt>
      <trkpt lat="42.27453" lon="1.8532">
        <ele>959.466</ele>
        <time>2019-04-07T23:49:36Z</time>
      </trkpt>
      <trkpt lat="42.27453" lon="1.8532">
        <ele>959.758</ele>
        <time>2019-04-07T23:49:36Z</time>
      </trkpt>
      <trkpt lat="42.27458" lon="1.85312">
        <ele>958.763</ele>
        <time>2019-04-07T23:49:39Z</time>
      </trkpt>
      <trkpt lat="42.27457" lon="1.85311">
        <ele>957.644</ele>
        <time>2019-04-07T23:49:40Z</time>
      </trkpt>
      <trkpt lat="42.27454" lon="1.85312">
        <ele>957.518</ele>
        <time>2019-04-07T23:49:41Z</time>
      </trkpt>
      <trkpt lat="42.27449" lon="1.85309">
        <ele>958.508</ele>
        <time>2019-04-07T23:49:43Z</time>
      </trkpt>
      <trkpt lat="42.27445" lon="1.85304">
        <ele>959.649</ele>
        <time>2019-04-07T23:49:45Z</time>
      </trkpt>
      <trkpt lat="42.27438" lon="1.85296">
        <ele>957.621</ele>
        <time>2019-04-07T23:49:49Z</time>
      </trkpt>
      <trkpt lat="42.27437" lon="1.85295">
        <ele>956.896</ele>
        <time>2019-04-07T23:49:50Z</time>
      </trkpt>
      <trkpt lat="42.27434" lon="1.85292">
        <ele>956.337</ele>
        <time>2019-04-07T23:49:51Z</time>
      </trkpt>
      <trkpt lat="42.27428" lon="1.85287">
        <ele>955.717</ele>
        <time>2019-04-07T23:49:54Z</time>
      </trkpt>
      <trkpt lat="42.27427" lon="1.85285">
        <ele>955.671</ele>
        <time>2019-04-07T23:49:55Z</time>
      </trkpt>
      <trkpt lat="42.27426" lon="1.85279">
        <ele>955.12</ele>
        <time>2019-04-07T23:49:56Z</time>
      </trkpt>
      <trkpt lat="42.27425" lon="1.85275">
        <ele>954.812</ele>
        <time>2019-04-07T23:49:57Z</time>
      </trkpt>
      <trkpt lat="42.27425" lon="1.85274">
        <ele>954.421</ele>
        <time>2019-04-07T23:49:58Z</time>
      </trkpt>
      <trkpt lat="42.27424" lon="1.85268">
        <ele>955.541</ele>
        <time>2019-04-07T23:50:00Z</time>
      </trkpt>
      <trkpt lat="42.27419" lon="1.85259">
        <ele>954.405</ele>
        <time>2019-04-07T23:50:03Z</time>
      </trkpt>
      <trkpt lat="42.27419" lon="1.85255">
        <ele>953.508</ele>
        <time>2019-04-07T23:50:04Z</time>
      </trkpt>
      <trkpt lat="42.27419" lon="1.85249">
        <ele>953.645</ele>
        <time>2019-04-07T23:50:06Z</time>
      </trkpt>
      <trkpt lat="42.2742" lon="1.85241">
        <ele>955.237</ele>
        <time>2019-04-07T23:50:08Z</time>
      </trkpt>
      <trkpt lat="42.27419" lon="1.85238">
        <ele>955.792</ele>
        <time>2019-04-07T23:50:09Z</time>
      </trkpt>
      <trkpt lat="42.27419" lon="1.85233">
        <ele>955.343</ele>
        <time>2019-04-07T23:50:11Z</time>
      </trkpt>
      <trkpt lat="42.2742" lon="1.85228">
        <ele>954.583</ele>
        <time>2019-04-07T23:50:12Z</time>
      </trkpt>
      <trkpt lat="42.2742" lon="1.85226">
        <ele>953.817</ele>
        <time>2019-04-07T23:50:13Z</time>
      </trkpt>
      <trkpt lat="42.27421" lon="1.85222">
        <ele>952.656</ele>
        <time>2019-04-07T23:50:14Z</time>
      </trkpt>
      <trkpt lat="42.27422" lon="1.85218">
        <ele>951.518</ele>
        <time>2019-04-07T23:50:15Z</time>
      </trkpt>
      <trkpt lat="42.27423" lon="1.85214">
        <ele>951.647</ele>
        <time>2019-04-07T23:50:17Z</time>
      </trkpt>
      <trkpt lat="42.27424" lon="1.85211">
        <ele>951.829</ele>
        <time>2019-04-07T23:50:18Z</time>
      </trkpt>
      <trkpt lat="42.27424" lon="1.85209">
        <ele>951.721</ele>
        <time>2019-04-07T23:50:18Z</time>
      </trkpt>
      <trkpt lat="42.27425" lon="1.85206">
        <ele>951.508</ele>
        <time>2019-04-07T23:50:19Z</time>
      </trkpt>
      <trkpt lat="42.27426" lon="1.85202">
        <ele>951.587</ele>
        <time>2019-04-07T23:50:20Z</time>
      </trkpt>
      <trkpt lat="42.27427" lon="1.852">
        <ele>951.559</ele>
        <time>2019-04-07T23:50:21Z</time>
      </trkpt>
      <trkpt lat="42.27428" lon="1.8519">
        <ele>951.784</ele>
        <time>2019-04-07T23:50:24Z</time>
      </trkpt>
      <trkpt lat="42.27428" lon="1.85188">
        <ele>951.695</ele>
        <time>2019-04-07T23:50:25Z</time>
      </trkpt>
      <trkpt lat="42.27429" lon="1.85183">
        <ele>951.665</ele>
        <time>2019-04-07T23:50:26Z</time>
      </trkpt>
      <trkpt lat="42.2743" lon="1.85174">
        <ele>952.669</ele>
        <time>2019-04-07T23:50:29Z</time>
      </trkpt>
      <trkpt lat="42.27429" lon="1.85167">
        <ele>952.818</ele>
        <time>2019-04-07T23:50:31Z</time>
      </trkpt>
      <trkpt lat="42.27428" lon="1.85161">
        <ele>951.78</ele>
        <time>2019-04-07T23:50:33Z</time>
      </trkpt>
      <trkpt lat="42.27429" lon="1.85158">
        <ele>951.777</ele>
        <time>2019-04-07T23:50:34Z</time>
      </trkpt>
      <trkpt lat="42.27429" lon="1.85156">
        <ele>951.961</ele>
        <time>2019-04-07T23:50:34Z</time>
      </trkpt>
      <trkpt lat="42.27429" lon="1.85155">
        <ele>951.727</ele>
        <time>2019-04-07T23:50:35Z</time>
      </trkpt>
      <trkpt lat="42.2743" lon="1.85153">
        <ele>951.508</ele>
        <time>2019-04-07T23:50:35Z</time>
      </trkpt>
      <trkpt lat="42.27431" lon="1.85149">
        <ele>952.27</ele>
        <time>2019-04-07T23:50:36Z</time>
      </trkpt>
      <trkpt lat="42.27432" lon="1.85145">
        <ele>952.632</ele>
        <time>2019-04-07T23:50:38Z</time>
      </trkpt>
      <trkpt lat="42.27433" lon="1.85143">
        <ele>952.817</ele>
        <time>2019-04-07T23:50:39Z</time>
      </trkpt>
      <trkpt lat="42.27434" lon="1.85141">
        <ele>952.858</ele>
        <time>2019-04-07T23:50:39Z</time>
      </trkpt>
      <trkpt lat="42.27436" lon="1.85137">
        <ele>953.598</ele>
        <time>2019-04-07T23:50:41Z</time>
      </trkpt>
      <trkpt lat="42.27436" lon="1.85136">
        <ele>953.822</ele>
        <time>2019-04-07T23:50:41Z</time>
      </trkpt>
      <trkpt lat="42.27438" lon="1.85135">
        <ele>953.771</ele>
        <time>2019-04-07T23:50:42Z</time>
      </trkpt>
      <trkpt lat="42.27442" lon="1.85132">
        <ele>954.313</ele>
        <time>2019-04-07T23:50:43Z</time>
      </trkpt>
      <trkpt lat="42.27443" lon="1.85131">
        <ele>953.942</ele>
        <time>2019-04-07T23:50:44Z</time>
      </trkpt>
      <trkpt lat="42.27443" lon="1.8513">
        <ele>953.522</ele>
        <time>2019-04-07T23:50:44Z</time>
      </trkpt>
      <trkpt lat="42.27444" lon="1.85128">
        <ele>953.514</ele>
        <time>2019-04-07T23:50:45Z</time>
      </trkpt>
      <trkpt lat="42.27445" lon="1.85125">
        <ele>953.508</ele>
        <time>2019-04-07T23:50:46Z</time>
      </trkpt>
      <trkpt lat="42.27445" lon="1.85122">
        <ele>952.987</ele>
        <time>2019-04-07T23:50:47Z</time>
      </trkpt>
      <trkpt lat="42.27447" lon="1.85121">
        <ele>952.699</ele>
        <time>2019-04-07T23:50:48Z</time>
      </trkpt>
      <trkpt lat="42.27449" lon="1.8512">
        <ele>952.694</ele>
        <time>2019-04-07T23:50:48Z</time>
      </trkpt>
      <trkpt lat="42.2745" lon="1.85118">
        <ele>952.975</ele>
        <time>2019-04-07T23:50:49Z</time>
      </trkpt>
      <trkpt lat="42.2745" lon="1.85118">
        <ele>952.585</ele>
        <time>2019-04-07T23:50:49Z</time>
      </trkpt>
      <trkpt lat="42.2745" lon="1.85117">
        <ele>952.689</ele>
        <time>2019-04-07T23:50:49Z</time>
      </trkpt>
      <trkpt lat="42.27453" lon="1.85116">
        <ele>951.928</ele>
        <time>2019-04-07T23:50:51Z</time>
      </trkpt>
      <trkpt lat="42.27454" lon="1.85115">
        <ele>951.71</ele>
        <time>2019-04-07T23:50:51Z</time>
      </trkpt>
      <trkpt lat="42.27455" lon="1.85115">
        <ele>951.455</ele>
        <time>2019-04-07T23:50:52Z</time>
      </trkpt>
      <trkpt lat="42.27457" lon="1.85115">
        <ele>951.507</ele>
        <time>2019-04-07T23:50:53Z</time>
      </trkpt>
      <trkpt lat="42.27459" lon="1.85114">
        <ele>951.417</ele>
        <time>2019-04-07T23:50:53Z</time>
      </trkpt>
      <trkpt lat="42.27461" lon="1.85114">
        <ele>951.408</ele>
        <time>2019-04-07T23:50:54Z</time>
      </trkpt>
      <trkpt lat="42.27466" lon="1.85111">
        <ele>951.178</ele>
        <time>2019-04-07T23:50:56Z</time>
      </trkpt>
      <trkpt lat="42.27475" lon="1.85106">
        <ele>950.66</ele>
        <time>2019-04-07T23:51:00Z</time>
      </trkpt>
      <trkpt lat="42.27475" lon="1.85105">
        <ele>950.645</ele>
        <time>2019-04-07T23:51:00Z</time>
      </trkpt>
      <trkpt lat="42.2748" lon="1.85099">
        <ele>949.686</ele>
        <time>2019-04-07T23:51:03Z</time>
      </trkpt>
      <trkpt lat="42.27481" lon="1.85099">
        <ele>949.686</ele>
        <time>2019-04-07T23:51:03Z</time>
      </trkpt>
      <trkpt lat="42.27481" lon="1.85099">
        <ele>949.71</ele>
        <time>2019-04-07T23:51:03Z</time>
      </trkpt>
      <trkpt lat="42.27481" lon="1.85099">
        <ele>949.259</ele>
        <time>2019-04-07T23:51:04Z</time>
      </trkpt>
      <trkpt lat="42.27483" lon="1.85099">
        <ele>949.051</ele>
        <time>2019-04-07T23:51:04Z</time>
      </trkpt>
      <trkpt lat="42.27484" lon="1.85099">
        <ele>948.398</ele>
        <time>2019-04-07T23:51:05Z</time>
      </trkpt>
      <trkpt lat="42.27487" lon="1.85096">
        <ele>948.815</ele>
        <time>2019-04-07T23:51:06Z</time>
      </trkpt>
      <trkpt lat="42.27488" lon="1.85094">
        <ele>950.026</ele>
        <time>2019-04-07T23:51:07Z</time>
      </trkpt>
      <trkpt lat="42.27488" lon="1.85091">
        <ele>949.408</ele>
        <time>2019-04-07T23:51:08Z</time>
      </trkpt>
      <trkpt lat="42.27488" lon="1.85088">
        <ele>949.652</ele>
        <time>2019-04-07T23:51:09Z</time>
      </trkpt>
      <trkpt lat="42.27489" lon="1.85087">
        <ele>949.534</ele>
        <time>2019-04-07T23:51:09Z</time>
      </trkpt>
      <trkpt lat="42.27488" lon="1.85086">
        <ele>949.599</ele>
        <time>2019-04-07T23:51:09Z</time>
      </trkpt>
      <trkpt lat="42.27488" lon="1.85085">
        <ele>948.81</ele>
        <time>2019-04-07T23:51:09Z</time>
      </trkpt>
      <trkpt lat="42.27488" lon="1.85084">
        <ele>948.57</ele>
        <time>2019-04-07T23:51:10Z</time>
      </trkpt>
      <trkpt lat="42.27487" lon="1.8508">
        <ele>947.674</ele>
        <time>2019-04-07T23:51:11Z</time>
      </trkpt>
      <trkpt lat="42.27486" lon="1.8508">
        <ele>947.543</ele>
        <time>2019-04-07T23:51:11Z</time>
      </trkpt>
      <trkpt lat="42.27476" lon="1.85088">
        <ele>949.195</ele>
        <time>2019-04-07T23:51:16Z</time>
      </trkpt>
      <trkpt lat="42.27474" lon="1.85089">
        <ele>950.063</ele>
        <time>2019-04-07T23:51:17Z</time>
      </trkpt>
      <trkpt lat="42.27473" lon="1.85089">
        <ele>950.544</ele>
        <time>2019-04-07T23:51:17Z</time>
      </trkpt>
      <trkpt lat="42.27465" lon="1.85088">
        <ele>949.218</ele>
        <time>2019-04-07T23:51:21Z</time>
      </trkpt>
      <trkpt lat="42.27463" lon="1.85088">
        <ele>949.008</ele>
        <time>2019-04-07T23:51:21Z</time>
      </trkpt>
      <trkpt lat="42.27455" lon="1.85091">
        <ele>947.879</ele>
        <time>2019-04-07T23:51:25Z</time>
      </trkpt>
      <trkpt lat="42.27452" lon="1.85091">
        <ele>948.171</ele>
        <time>2019-04-07T23:51:26Z</time>
      </trkpt>
      <trkpt lat="42.27448" lon="1.85091">
        <ele>949.166</ele>
        <time>2019-04-07T23:51:28Z</time>
      </trkpt>
      <trkpt lat="42.27441" lon="1.85089">
        <ele>949.217</ele>
        <time>2019-04-07T23:51:30Z</time>
      </trkpt>
      <trkpt lat="42.2744" lon="1.85089">
        <ele>949.497</ele>
        <time>2019-04-07T23:51:31Z</time>
      </trkpt>
      <trkpt lat="42.27438" lon="1.85088">
        <ele>949.881</ele>
        <time>2019-04-07T23:51:32Z</time>
      </trkpt>
      <trkpt lat="42.27438" lon="1.85087">
        <ele>950.17</ele>
        <time>2019-04-07T23:51:32Z</time>
      </trkpt>
      <trkpt lat="42.27438" lon="1.85085">
        <ele>950.422</ele>
        <time>2019-04-07T23:51:32Z</time>
      </trkpt>
      <trkpt lat="42.27438" lon="1.85084">
        <ele>950.955</ele>
        <time>2019-04-07T23:51:33Z</time>
      </trkpt>
      <trkpt lat="42.27437" lon="1.85085">
        <ele>951.407</ele>
        <time>2019-04-07T23:51:33Z</time>
      </trkpt>
      <trkpt lat="42.27434" lon="1.85086">
        <ele>951.017</ele>
        <time>2019-04-07T23:51:34Z</time>
      </trkpt>
      <trkpt lat="42.27433" lon="1.85085">
        <ele>951.408</ele>
        <time>2019-04-07T23:51:35Z</time>
      </trkpt>
      <trkpt lat="42.27431" lon="1.85086">
        <ele>951.548</ele>
        <time>2019-04-07T23:51:35Z</time>
      </trkpt>
      <trkpt lat="42.27424" lon="1.85088">
        <ele>951.47</ele>
        <time>2019-04-07T23:51:38Z</time>
      </trkpt>
      <trkpt lat="42.27421" lon="1.85088">
        <ele>951.425</ele>
        <time>2019-04-07T23:51:40Z</time>
      </trkpt>
      <trkpt lat="42.27413" lon="1.85082">
        <ele>952.116</ele>
        <time>2019-04-07T23:51:43Z</time>
      </trkpt>
      <trkpt lat="42.27412" lon="1.85079">
        <ele>952.336</ele>
        <time>2019-04-07T23:51:44Z</time>
      </trkpt>
      <trkpt lat="42.2741" lon="1.85081">
        <ele>951.62</ele>
        <time>2019-04-07T23:51:45Z</time>
      </trkpt>
      <trkpt lat="42.27408" lon="1.8509">
        <ele>953.399</ele>
        <time>2019-04-07T23:51:48Z</time>
      </trkpt>
      <trkpt lat="42.274" lon="1.85094">
        <ele>990.671</ele>
        <time>2019-04-07T23:51:51Z</time>
      </trkpt>
      <trkpt lat="42.27403" lon="1.85091">
        <ele>990.878</ele>
        <time>2019-04-07T23:51:53Z</time>
      </trkpt>
      <trkpt lat="42.27411" lon="1.85083">
        <ele>991.633</ele>
        <time>2019-04-07T23:51:57Z</time>
      </trkpt>
      <trkpt lat="42.27414" lon="1.8508">
        <ele>992.026</ele>
        <time>2019-04-07T23:51:59Z</time>
      </trkpt>
      <trkpt lat="42.27421" lon="1.85076">
        <ele>992.808</ele>
        <time>2019-04-07T23:52:01Z</time>
      </trkpt>
      <trkpt lat="42.27427" lon="1.85074">
        <ele>993.94</ele>
        <time>2019-04-07T23:52:04Z</time>
      </trkpt>
      <trkpt lat="42.27429" lon="1.85072">
        <ele>994.252</ele>
        <time>2019-04-07T23:52:05Z</time>
      </trkpt>
      <trkpt lat="42.2744" lon="1.85066">
        <ele>994.777</ele>
        <time>2019-04-07T23:52:10Z</time>
      </trkpt>
      <trkpt lat="42.27445" lon="1.85066">
        <ele>995.318</ele>
        <time>2019-04-07T23:52:11Z</time>
      </trkpt>
      <trkpt lat="42.27453" lon="1.85067">
        <ele>996.498</ele>
        <time>2019-04-07T23:52:15Z</time>
      </trkpt>
      <trkpt lat="42.27455" lon="1.85067">
        <ele>996.632</ele>
        <time>2019-04-07T23:52:15Z</time>
      </trkpt>
      <trkpt lat="42.2746" lon="1.85066">
        <ele>997.441</ele>
        <time>2019-04-07T23:52:17Z</time>
      </trkpt>
      <trkpt lat="42.27465" lon="1.85066">
        <ele>998.473</ele>
        <time>2019-04-07T23:52:20Z</time>
      </trkpt>
      <trkpt lat="42.27466" lon="1.85066">
        <ele>998.767</ele>
        <time>2019-04-07T23:52:20Z</time>
      </trkpt>
      <trkpt lat="42.2747" lon="1.85067">
        <ele>999.381</ele>
        <time>2019-04-07T23:52:22Z</time>
      </trkpt>
      <trkpt lat="42.27472" lon="1.85067">
        <ele>999.719</ele>
        <time>2019-04-07T23:52:23Z</time>
      </trkpt>
      <trkpt lat="42.27474" lon="1.85068">
        <ele>1000.008</ele>
        <time>2019-04-07T23:52:23Z</time>
      </trkpt>
      <trkpt lat="42.27476" lon="1.85068">
        <ele>1000.239</ele>
        <time>2019-04-07T23:52:24Z</time>
      </trkpt>
      <trkpt lat="42.27485" lon="1.85077">
        <ele>1000.681</ele>
        <time>2019-04-07T23:52:28Z</time>
      </trkpt>
      <trkpt lat="42.27486" lon="1.85079">
        <ele>1000.786</ele>
        <time>2019-04-07T23:52:29Z</time>
      </trkpt>
      <trkpt lat="42.27493" lon="1.85081">
        <ele>1002.037</ele>
        <time>2019-04-07T23:52:32Z</time>
      </trkpt>
      <trkpt lat="42.27495" lon="1.85081">
        <ele>1002.547</ele>
        <time>2019-04-07T23:52:33Z</time>
      </trkpt>
      <trkpt lat="42.27496" lon="1.85081">
        <ele>1003.461</ele>
        <time>2019-04-07T23:52:33Z</time>
      </trkpt>
      <trkpt lat="42.27511" lon="1.85081">
        <ele>1004.23</ele>
        <time>2019-04-07T23:52:39Z</time>
      </trkpt>
      <trkpt lat="42.27515" lon="1.8508">
        <ele>1004.562</ele>
        <time>2019-04-07T23:52:41Z</time>
      </trkpt>
      <trkpt lat="42.27526" lon="1.85077">
        <ele>1005.232</ele>
        <time>2019-04-07T23:52:45Z</time>
      </trkpt>
      <trkpt lat="42.27531" lon="1.85075">
        <ele>1005.692</ele>
        <time>2019-04-07T23:52:47Z</time>
      </trkpt>
      <trkpt lat="42.27537" lon="1.85073">
        <ele>1006.111</ele>
        <time>2019-04-07T23:52:50Z</time>
      </trkpt>
      <trkpt lat="42.27539" lon="1.85073">
        <ele>1006.108</ele>
        <time>2019-04-07T23:52:51Z</time>
      </trkpt>
      <trkpt lat="42.2754" lon="1.85073">
        <ele>1006.016</ele>
        <time>2019-04-07T23:52:51Z</time>
      </trkpt>
      <trkpt lat="42.27552" lon="1.85063">
        <ele>1006.358</ele>
        <time>2019-04-07T23:52:57Z</time>
      </trkpt>
      <trkpt lat="42.27558" lon="1.85058">
        <ele>1006.323</ele>
        <time>2019-04-07T23:52:59Z</time>
      </trkpt>
      <trkpt lat="42.2756" lon="1.85056">
        <ele>1006.344</ele>
        <time>2019-04-07T23:53:01Z</time>
      </trkpt>
      <trkpt lat="42.27564" lon="1.85052">
        <ele>1006.624</ele>
        <time>2019-04-07T23:53:03Z</time>
      </trkpt>
      <trkpt lat="42.27566" lon="1.85048">
        <ele>1007.248</ele>
        <time>2019-04-07T23:53:04Z</time>
      </trkpt>
      <trkpt lat="42.27567" lon="1.85044">
        <ele>1007.427</ele>
        <time>2019-04-07T23:53:05Z</time>
      </trkpt>
      <trkpt lat="42.27567" lon="1.85039">
        <ele>1007.759</ele>
        <time>2019-04-07T23:53:07Z</time>
      </trkpt>
      <trkpt lat="42.27566" lon="1.85038">
        <ele>1007.747</ele>
        <time>2019-04-07T23:53:07Z</time>
      </trkpt>
      <trkpt lat="42.27565" lon="1.85037">
        <ele>1008.129</ele>
        <time>2019-04-07T23:53:08Z</time>
      </trkpt>
      <trkpt lat="42.27564" lon="1.85035">
        <ele>1008.521</ele>
        <time>2019-04-07T23:53:09Z</time>
      </trkpt>
      <trkpt lat="42.27563" lon="1.85034">
        <ele>1008.708</ele>
        <time>2019-04-07T23:53:09Z</time>
      </trkpt>
      <trkpt lat="42.2756" lon="1.85032">
        <ele>1010.127</ele>
        <time>2019-04-07T23:53:10Z</time>
      </trkpt>
      <trkpt lat="42.27556" lon="1.85029">
        <ele>1011.389</ele>
        <time>2019-04-07T23:53:12Z</time>
      </trkpt>
      <trkpt lat="42.27554" lon="1.85025">
        <ele>1012.574</ele>
        <time>2019-04-07T23:53:14Z</time>
      </trkpt>
      <trkpt lat="42.27553" lon="1.85023">
        <ele>1013.375</ele>
        <time>2019-04-07T23:53:14Z</time>
      </trkpt>
      <trkpt lat="42.27552" lon="1.85023">
        <ele>1013.615</ele>
        <time>2019-04-07T23:53:15Z</time>
      </trkpt>
      <trkpt lat="42.2755" lon="1.85022">
        <ele>1014.859</ele>
        <time>2019-04-07T23:53:15Z</time>
      </trkpt>
      <trkpt lat="42.27549" lon="1.8502">
        <ele>1015.718</ele>
        <time>2019-04-07T23:53:16Z</time>
      </trkpt>
      <trkpt lat="42.27547" lon="1.8502">
        <ele>1016.79</ele>
        <time>2019-04-07T23:53:17Z</time>
      </trkpt>
      <trkpt lat="42.27546" lon="1.8502">
        <ele>1017.355</ele>
        <time>2019-04-07T23:53:17Z</time>
      </trkpt>
      <trkpt lat="42.27544" lon="1.85021">
        <ele>1018.007</ele>
        <time>2019-04-07T23:53:18Z</time>
      </trkpt>
      <trkpt lat="42.27541" lon="1.85021">
        <ele>1019.117</ele>
        <time>2019-04-07T23:53:19Z</time>
      </trkpt>
      <trkpt lat="42.2754" lon="1.85021">
        <ele>1019.508</ele>
        <time>2019-04-07T23:53:20Z</time>
      </trkpt>
      <trkpt lat="42.27539" lon="1.85021">
        <ele>1020.288</ele>
        <time>2019-04-07T23:53:20Z</time>
      </trkpt>
      <trkpt lat="42.27538" lon="1.85021">
        <ele>1020.59</ele>
        <time>2019-04-07T23:53:20Z</time>
      </trkpt>
      <trkpt lat="42.27538" lon="1.85021">
        <ele>1020.565</ele>
        <time>2019-04-07T23:53:21Z</time>
      </trkpt>
      <trkpt lat="42.27535" lon="1.85024">
        <ele>1021.446</ele>
        <time>2019-04-07T23:53:22Z</time>
      </trkpt>
      <trkpt lat="42.27534" lon="1.85023">
        <ele>1021.556</ele>
        <time>2019-04-07T23:53:22Z</time>
      </trkpt>
      <trkpt lat="42.27532" lon="1.8502">
        <ele>1022.75</ele>
        <time>2019-04-07T23:53:24Z</time>
      </trkpt>
      <trkpt lat="42.27531" lon="1.85017">
        <ele>1023.859</ele>
        <time>2019-04-07T23:53:25Z</time>
      </trkpt>
      <trkpt lat="42.27531" lon="1.85016">
        <ele>1024.471</ele>
        <time>2019-04-07T23:53:25Z</time>
      </trkpt>
      <trkpt lat="42.2753" lon="1.85013">
        <ele>1025.368</ele>
        <time>2019-04-07T23:53:26Z</time>
      </trkpt>
      <trkpt lat="42.2753" lon="1.8501">
        <ele>1026.142</ele>
        <time>2019-04-07T23:53:27Z</time>
      </trkpt>
      <trkpt lat="42.27529" lon="1.85008">
        <ele>1026.226</ele>
        <time>2019-04-07T23:53:27Z</time>
      </trkpt>
      <trkpt lat="42.27529" lon="1.85005">
        <ele>1027.008</ele>
        <time>2019-04-07T23:53:28Z</time>
      </trkpt>
      <trkpt lat="42.27529" lon="1.85004">
        <ele>1027.719</ele>
        <time>2019-04-07T23:53:29Z</time>
      </trkpt>
      <trkpt lat="42.2753" lon="1.85002">
        <ele>1028.041</ele>
        <time>2019-04-07T23:53:29Z</time>
      </trkpt>
      <trkpt lat="42.2753" lon="1.85001">
        <ele>1028.676</ele>
        <time>2019-04-07T23:53:29Z</time>
      </trkpt>
      <trkpt lat="42.27531" lon="1.85">
        <ele>1029.927</ele>
        <time>2019-04-07T23:53:30Z</time>
      </trkpt>
      <trkpt lat="42.27532" lon="1.85">
        <ele>1030.147</ele>
        <time>2019-04-07T23:53:30Z</time>
      </trkpt>
      <trkpt lat="42.27535" lon="1.85001">
        <ele>1031.171</ele>
        <time>2019-04-07T23:53:32Z</time>
      </trkpt>
      <trkpt lat="42.27538" lon="1.85001">
        <ele>1031.59</ele>
        <time>2019-04-07T23:53:33Z</time>
      </trkpt>
      <trkpt lat="42.27541" lon="1.85">
        <ele>1032.292</ele>
        <time>2019-04-07T23:53:34Z</time>
      </trkpt>
      <trkpt lat="42.27544" lon="1.84999">
        <ele>1032.444</ele>
        <time>2019-04-07T23:53:35Z</time>
      </trkpt>
      <trkpt lat="42.27546" lon="1.85">
        <ele>1033.205</ele>
        <time>2019-04-07T23:53:36Z</time>
      </trkpt>
      <trkpt lat="42.27546" lon="1.85">
        <ele>1033.615</ele>
        <time>2019-04-07T23:53:36Z</time>
      </trkpt>
      <trkpt lat="42.27545" lon="1.85">
        <ele>1033.608</ele>
        <time>2019-04-07T23:53:37Z</time>
      </trkpt>
      <trkpt lat="42.27548" lon="1.84999">
        <ele>1034.357</ele>
        <time>2019-04-07T23:53:37Z</time>
      </trkpt>
      <trkpt lat="42.27549" lon="1.84999">
        <ele>1034.699</ele>
        <time>2019-04-07T23:53:38Z</time>
      </trkpt>
      <trkpt lat="42.27551" lon="1.84998">
        <ele>1035.094</ele>
        <time>2019-04-07T23:53:39Z</time>
      </trkpt>
      <trkpt lat="42.27552" lon="1.84997">
        <ele>1035.245</ele>
        <time>2019-04-07T23:53:40Z</time>
      </trkpt>
      <trkpt lat="42.27554" lon="1.84996">
        <ele>1035.565</ele>
        <time>2019-04-07T23:53:40Z</time>
      </trkpt>
      <trkpt lat="42.27557" lon="1.84994">
        <ele>1036.599</ele>
        <time>2019-04-07T23:53:42Z</time>
      </trkpt>
      <trkpt lat="42.27559" lon="1.84993">
        <ele>1036.888</ele>
        <time>2019-04-07T23:53:42Z</time>
      </trkpt>
      <trkpt lat="42.2756" lon="1.84991">
        <ele>1037.41</ele>
        <time>2019-04-07T23:53:43Z</time>
      </trkpt>
      <trkpt lat="42.27561" lon="1.84989">
        <ele>1038.097</ele>
        <time>2019-04-07T23:53:44Z</time>
      </trkpt>
      <trkpt lat="42.27563" lon="1.84986">
        <ele>1038.723</ele>
        <time>2019-04-07T23:53:45Z</time>
      </trkpt>
      <trkpt lat="42.27564" lon="1.84985">
        <ele>1039.125</ele>
        <time>2019-04-07T23:53:45Z</time>
      </trkpt>
      <trkpt lat="42.27564" lon="1.84984">
        <ele>1039.108</ele>
        <time>2019-04-07T23:53:46Z</time>
      </trkpt>
      <trkpt lat="42.27565" lon="1.84982">
        <ele>1040.142</ele>
        <time>2019-04-07T23:53:47Z</time>
      </trkpt>
      <trkpt lat="42.27565" lon="1.84981">
        <ele>1040.694</ele>
        <time>2019-04-07T23:53:47Z</time>
      </trkpt>
      <trkpt lat="42.27565" lon="1.8498">
        <ele>1041.119</ele>
        <time>2019-04-07T23:53:47Z</time>
      </trkpt>
      <trkpt lat="42.27566" lon="1.84979">
        <ele>1041.69</ele>
        <time>2019-04-07T23:53:47Z</time>
      </trkpt>
      <trkpt lat="42.27567" lon="1.84979">
        <ele>1041.92</ele>
        <time>2019-04-07T23:53:48Z</time>
      </trkpt>
      <trkpt lat="42.27569" lon="1.84978">
        <ele>1042.514</ele>
        <time>2019-04-07T23:53:48Z</time>
      </trkpt>
      <trkpt lat="42.27569" lon="1.84978">
        <ele>1043.073</ele>
        <time>2019-04-07T23:53:49Z</time>
      </trkpt>
      <trkpt lat="42.2757" lon="1.84977">
        <ele>1043.225</ele>
        <time>2019-04-07T23:53:49Z</time>
      </trkpt>
      <trkpt lat="42.2757" lon="1.84976">
        <ele>1043.628</ele>
        <time>2019-04-07T23:53:49Z</time>
      </trkpt>
      <trkpt lat="42.2757" lon="1.84976">
        <ele>1043.989</ele>
        <time>2019-04-07T23:53:49Z</time>
      </trkpt>
      <trkpt lat="42.2757" lon="1.84975">
        <ele>1044.117</ele>
        <time>2019-04-07T23:53:50Z</time>
      </trkpt>
      <trkpt lat="42.2757" lon="1.84974">
        <ele>1045.008</ele>
        <time>2019-04-07T23:53:50Z</time>
      </trkpt>
      <trkpt lat="42.2757" lon="1.84974">
        <ele>1045.665</ele>
        <time>2019-04-07T23:53:50Z</time>
      </trkpt>
      <trkpt lat="42.27571" lon="1.84973">
        <ele>1046.287</ele>
        <time>2019-04-07T23:53:51Z</time>
      </trkpt>
      <trkpt lat="42.27572" lon="1.84972">
        <ele>1046.112</ele>
        <time>2019-04-07T23:53:51Z</time>
      </trkpt>
      <trkpt lat="42.27572" lon="1.84971">
        <ele>1046.983</ele>
        <time>2019-04-07T23:53:52Z</time>
      </trkpt>
      <trkpt lat="42.27573" lon="1.84969">
        <ele>1047.293</ele>
        <time>2019-04-07T23:53:52Z</time>
      </trkpt>
      <trkpt lat="42.27573" lon="1.84968">
        <ele>1047.687</ele>
        <time>2019-04-07T23:53:52Z</time>
      </trkpt>
      <trkpt lat="42.27575" lon="1.84965">
        <ele>1048.136</ele>
        <time>2019-04-07T23:53:53Z</time>
      </trkpt>
      <trkpt lat="42.27575" lon="1.84964">
        <ele>1048.588</ele>
        <time>2019-04-07T23:53:54Z</time>
      </trkpt>
      <trkpt lat="42.27577" lon="1.84962">
        <ele>1049.642</ele>
        <time>2019-04-07T23:53:55Z</time>
      </trkpt>
      <trkpt lat="42.27578" lon="1.84962">
        <ele>1050.022</ele>
        <time>2019-04-07T23:53:55Z</time>
      </trkpt>
      <trkpt lat="42.27577" lon="1.8496">
        <ele>1050.514</ele>
        <time>2019-04-07T23:53:55Z</time>
      </trkpt>
      <trkpt lat="42.27577" lon="1.84958">
        <ele>1051.108</ele>
        <time>2019-04-07T23:53:56Z</time>
      </trkpt>
      <trkpt lat="42.27576" lon="1.84958">
        <ele>1051.647</ele>
        <time>2019-04-07T23:53:56Z</time>
      </trkpt>
      <trkpt lat="42.27577" lon="1.84958">
        <ele>1052.179</ele>
        <time>2019-04-07T23:53:56Z</time>
      </trkpt>
      <trkpt lat="42.27577" lon="1.84957">
        <ele>1052.564</ele>
        <time>2019-04-07T23:53:57Z</time>
      </trkpt>
      <trkpt lat="42.27578" lon="1.84957">
        <ele>1052.825</ele>
        <time>2019-04-07T23:53:57Z</time>
      </trkpt>
      <trkpt lat="42.27579" lon="1.84956">
        <ele>1054.355</ele>
        <time>2019-04-07T23:53:57Z</time>
      </trkpt>
      <trkpt lat="42.27582" lon="1.84956">
        <ele>1055.299</ele>
        <time>2019-04-07T23:53:58Z</time>
      </trkpt>
      <trkpt lat="42.27583" lon="1.84956">
        <ele>1055.988</ele>
        <time>2019-04-07T23:53:59Z</time>
      </trkpt>
      <trkpt lat="42.27584" lon="1.84956">
        <ele>1056.67</ele>
        <time>2019-04-07T23:54:00Z</time>
      </trkpt>
      <trkpt lat="42.27585" lon="1.84956">
        <ele>1056.559</ele>
        <time>2019-04-07T23:54:00Z</time>
      </trkpt>
      <trkpt lat="42.27588" lon="1.84955">
        <ele>1058.003</ele>
        <time>2019-04-07T23:54:01Z</time>
      </trkpt>
      <trkpt lat="42.27591" lon="1.84951">
        <ele>1059.123</ele>
        <time>2019-04-07T23:54:03Z</time>
      </trkpt>
      <trkpt lat="42.27592" lon="1.84949">
        <ele>1059.208</ele>
        <time>2019-04-07T23:54:03Z</time>
      </trkpt>
      <trkpt lat="42.27594" lon="1.84946">
        <ele>1060.098</ele>
        <time>2019-04-07T23:54:05Z</time>
      </trkpt>
      <trkpt lat="42.27595" lon="1.84942">
        <ele>1061.05</ele>
        <time>2019-04-07T23:54:06Z</time>
      </trkpt>
      <trkpt lat="42.27596" lon="1.84938">
        <ele>1062.035</ele>
        <time>2019-04-07T23:54:07Z</time>
      </trkpt>
      <trkpt lat="42.27596" lon="1.84935">
        <ele>1062.596</ele>
        <time>2019-04-07T23:54:08Z</time>
      </trkpt>
      <trkpt lat="42.27596" lon="1.84934">
        <ele>1063.116</ele>
        <time>2019-04-07T23:54:09Z</time>
      </trkpt>
      <trkpt lat="42.27597" lon="1.84931">
        <ele>1064.25</ele>
        <time>2019-04-07T23:54:09Z</time>
      </trkpt>
      <trkpt lat="42.27598" lon="1.8493">
        <ele>1064.629</ele>
        <time>2019-04-07T23:54:10Z</time>
      </trkpt>
      <trkpt lat="42.27599" lon="1.84929">
        <ele>1064.961</ele>
        <time>2019-04-07T23:54:10Z</time>
      </trkpt>
      <trkpt lat="42.27599" lon="1.84928">
        <ele>1065.146</ele>
        <time>2019-04-07T23:54:11Z</time>
      </trkpt>
      <trkpt lat="42.276" lon="1.84925">
        <ele>1065.688</ele>
        <time>2019-04-07T23:54:12Z</time>
      </trkpt>
      <trkpt lat="42.27601" lon="1.84924">
        <ele>1066.216</ele>
        <time>2019-04-07T23:54:12Z</time>
      </trkpt>
      <trkpt lat="42.27603" lon="1.84921">
        <ele>1067.108</ele>
        <time>2019-04-07T23:54:13Z</time>
      </trkpt>
      <trkpt lat="42.27603" lon="1.8492">
        <ele>1067.557</ele>
        <time>2019-04-07T23:54:14Z</time>
      </trkpt>
      <trkpt lat="42.27604" lon="1.84918">
        <ele>1067.939</ele>
        <time>2019-04-07T23:54:14Z</time>
      </trkpt>
      <trkpt lat="42.27604" lon="1.84917">
        <ele>1068.224</ele>
        <time>2019-04-07T23:54:14Z</time>
      </trkpt>
      <trkpt lat="42.27605" lon="1.84915">
        <ele>1068.525</ele>
        <time>2019-04-07T23:54:15Z</time>
      </trkpt>
      <trkpt lat="42.27605" lon="1.84914">
        <ele>1069.015</ele>
        <time>2019-04-07T23:54:15Z</time>
      </trkpt>
      <trkpt lat="42.27605" lon="1.8491">
        <ele>1069.679</ele>
        <time>2019-04-07T23:54:17Z</time>
      </trkpt>
      <trkpt lat="42.27605" lon="1.84909">
        <ele>1070.138</ele>
        <time>2019-04-07T23:54:17Z</time>
      </trkpt>
      <trkpt lat="42.27605" lon="1.84906">
        <ele>1070.97</ele>
        <time>2019-04-07T23:54:18Z</time>
      </trkpt>
      <trkpt lat="42.27604" lon="1.84904">
        <ele>1071.675</ele>
        <time>2019-04-07T23:54:18Z</time>
      </trkpt>
      <trkpt lat="42.27604" lon="1.84902">
        <ele>1072.328</ele>
        <time>2019-04-07T23:54:19Z</time>
      </trkpt>
      <trkpt lat="42.27602" lon="1.84896">
        <ele>1073.22</ele>
        <time>2019-04-07T23:54:21Z</time>
      </trkpt>
      <trkpt lat="42.27602" lon="1.84894">
        <ele>1074.008</ele>
        <time>2019-04-07T23:54:21Z</time>
      </trkpt>
      <trkpt lat="42.27602" lon="1.84893">
        <ele>1074.52</ele>
        <time>2019-04-07T23:54:22Z</time>
      </trkpt>
      <trkpt lat="42.27603" lon="1.84891">
        <ele>1075.592</ele>
        <time>2019-04-07T23:54:22Z</time>
      </trkpt>
      <trkpt lat="42.27603" lon="1.84886">
        <ele>1076.887</ele>
        <time>2019-04-07T23:54:24Z</time>
      </trkpt>
      <trkpt lat="42.27603" lon="1.84881">
        <ele>1078.218</ele>
        <time>2019-04-07T23:54:25Z</time>
      </trkpt>
      <trkpt lat="42.27603" lon="1.8488">
        <ele>1078.748</ele>
        <time>2019-04-07T23:54:26Z</time>
      </trkpt>
      <trkpt lat="42.27603" lon="1.84877">
        <ele>1079.532</ele>
        <time>2019-04-07T23:54:27Z</time>
      </trkpt>
      <trkpt lat="42.27603" lon="1.84874">
        <ele>1080.531</ele>
        <time>2019-04-07T23:54:27Z</time>
      </trkpt>
      <trkpt lat="42.27604" lon="1.84869">
        <ele>1082.143</ele>
        <time>2019-04-07T23:54:29Z</time>
      </trkpt>
      <trkpt lat="42.27605" lon="1.84866">
        <ele>1082.873</ele>
        <time>2019-04-07T23:54:30Z</time>
      </trkpt>
      <trkpt lat="42.27606" lon="1.84864">
        <ele>1083.285</ele>
        <time>2019-04-07T23:54:30Z</time>
      </trkpt>
      <trkpt lat="42.27606" lon="1.84862">
        <ele>1084.113</ele>
        <time>2019-04-07T23:54:31Z</time>
      </trkpt>
      <trkpt lat="42.27606" lon="1.84861">
        <ele>1084.408</ele>
        <time>2019-04-07T23:54:32Z</time>
      </trkpt>
      <trkpt lat="42.27608" lon="1.84859">
        <ele>1085.59</ele>
        <time>2019-04-07T23:54:32Z</time>
      </trkpt>
      <trkpt lat="42.27609" lon="1.84859">
        <ele>1085.942</ele>
        <time>2019-04-07T23:54:33Z</time>
      </trkpt>
      <trkpt lat="42.2761" lon="1.84858">
        <ele>1086.697</ele>
        <time>2019-04-07T23:54:33Z</time>
      </trkpt>
      <trkpt lat="42.2761" lon="1.84856">
        <ele>1086.988</ele>
        <time>2019-04-07T23:54:34Z</time>
      </trkpt>
      <trkpt lat="42.27612" lon="1.84854">
        <ele>1087.678</ele>
        <time>2019-04-07T23:54:35Z</time>
      </trkpt>
      <trkpt lat="42.27615" lon="1.8485">
        <ele>1089.182</ele>
        <time>2019-04-07T23:54:36Z</time>
      </trkpt>
      <trkpt lat="42.27617" lon="1.84846">
        <ele>1090.191</ele>
        <time>2019-04-07T23:54:38Z</time>
      </trkpt>
      <trkpt lat="42.27617" lon="1.84845">
        <ele>1090.813</ele>
        <time>2019-04-07T23:54:38Z</time>
      </trkpt>
      <trkpt lat="42.27618" lon="1.84845">
        <ele>1091.245</ele>
        <time>2019-04-07T23:54:38Z</time>
      </trkpt>
      <trkpt lat="42.27619" lon="1.84843">
        <ele>1092.547</ele>
        <time>2019-04-07T23:54:39Z</time>
      </trkpt>
      <trkpt lat="42.2762" lon="1.84841">
        <ele>1093.511</ele>
        <time>2019-04-07T23:54:40Z</time>
      </trkpt>
      <trkpt lat="42.2762" lon="1.8484">
        <ele>1094.108</ele>
        <time>2019-04-07T23:54:40Z</time>
      </trkpt>
      <trkpt lat="42.2762" lon="1.84839">
        <ele>1094.697</ele>
        <time>2019-04-07T23:54:40Z</time>
      </trkpt>
      <trkpt lat="42.27621" lon="1.84838">
        <ele>1095.249</ele>
        <time>2019-04-07T23:54:41Z</time>
      </trkpt>
      <trkpt lat="42.27622" lon="1.84837">
        <ele>1096.034</ele>
        <time>2019-04-07T23:54:41Z</time>
      </trkpt>
      <trkpt lat="42.27622" lon="1.84837">
        <ele>1096.285</ele>
        <time>2019-04-07T23:54:41Z</time>
      </trkpt>
      <trkpt lat="42.27622" lon="1.84836">
        <ele>1096.675</ele>
        <time>2019-04-07T23:54:41Z</time>
      </trkpt>
      <trkpt lat="42.27622" lon="1.84836">
        <ele>1097.339</ele>
        <time>2019-04-07T23:54:42Z</time>
      </trkpt>
      <trkpt lat="42.27623" lon="1.84835">
        <ele>1097.758</ele>
        <time>2019-04-07T23:54:42Z</time>
      </trkpt>
      <trkpt lat="42.27624" lon="1.84833">
        <ele>1098.82</ele>
        <time>2019-04-07T23:54:43Z</time>
      </trkpt>
      <trkpt lat="42.27626" lon="1.84832">
        <ele>1099.345</ele>
        <time>2019-04-07T23:54:43Z</time>
      </trkpt>
      <trkpt lat="42.27627" lon="1.84831">
        <ele>1099.847</ele>
        <time>2019-04-07T23:54:44Z</time>
      </trkpt>
      <trkpt lat="42.27629" lon="1.84831">
        <ele>1100.611</ele>
        <time>2019-04-07T23:54:45Z</time>
      </trkpt>
      <trkpt lat="42.27629" lon="1.84831">
        <ele>1101.108</ele>
        <time>2019-04-07T23:54:45Z</time>
      </trkpt>
      <trkpt lat="42.2763" lon="1.84831">
        <ele>1101.257</ele>
        <time>2019-04-07T23:54:45Z</time>
      </trkpt>
      <trkpt lat="42.27631" lon="1.8483">
        <ele>1101.879</ele>
        <time>2019-04-07T23:54:46Z</time>
      </trkpt>
      <trkpt lat="42.27632" lon="1.8483">
        <ele>1102.084</ele>
        <time>2019-04-07T23:54:46Z</time>
      </trkpt>
      <trkpt lat="42.27635" lon="1.84829">
        <ele>1103.225</ele>
        <time>2019-04-07T23:54:47Z</time>
      </trkpt>
      <trkpt lat="42.27636" lon="1.84828">
        <ele>1103.675</ele>
        <time>2019-04-07T23:54:48Z</time>
      </trkpt>
      <trkpt lat="42.2764" lon="1.84826">
        <ele>1104.679</ele>
        <time>2019-04-07T23:54:49Z</time>
      </trkpt>
      <trkpt lat="42.27642" lon="1.84824">
        <ele>1105.968</ele>
        <time>2019-04-07T23:54:51Z</time>
      </trkpt>
      <trkpt lat="42.27643" lon="1.84823">
        <ele>1106.17</ele>
        <time>2019-04-07T23:54:51Z</time>
      </trkpt>
      <trkpt lat="42.27645" lon="1.84821">
        <ele>1107.265</ele>
        <time>2019-04-07T23:54:52Z</time>
      </trkpt>
      <trkpt lat="42.27646" lon="1.84821">
        <ele>1107.568</ele>
        <time>2019-04-07T23:54:52Z</time>
      </trkpt>
      <trkpt lat="42.27648" lon="1.84818">
        <ele>1108.114</ele>
        <time>2019-04-07T23:54:53Z</time>
      </trkpt>
      <trkpt lat="42.2765" lon="1.84817">
        <ele>1109.108</ele>
        <time>2019-04-07T23:54:54Z</time>
      </trkpt>
      <trkpt lat="42.27651" lon="1.84817">
        <ele>1109.699</ele>
        <time>2019-04-07T23:54:55Z</time>
      </trkpt>
      <trkpt lat="42.27652" lon="1.84816">
        <ele>1109.751</ele>
        <time>2019-04-07T23:54:55Z</time>
      </trkpt>
      <trkpt lat="42.27654" lon="1.84816">
        <ele>1110.586</ele>
        <time>2019-04-07T23:54:56Z</time>
      </trkpt>
      <trkpt lat="42.27655" lon="1.84815">
        <ele>1110.627</ele>
        <time>2019-04-07T23:54:56Z</time>
      </trkpt>
      <trkpt lat="42.27656" lon="1.84815">
        <ele>1111.177</ele>
        <time>2019-04-07T23:54:57Z</time>
      </trkpt>
      <trkpt lat="42.27656" lon="1.84814">
        <ele>1111.921</ele>
        <time>2019-04-07T23:54:57Z</time>
      </trkpt>
      <trkpt lat="42.27658" lon="1.84813">
        <ele>1113.02</ele>
        <time>2019-04-07T23:54:58Z</time>
      </trkpt>
      <trkpt lat="42.27658" lon="1.84813">
        <ele>1113.552</ele>
        <time>2019-04-07T23:54:58Z</time>
      </trkpt>
      <trkpt lat="42.27659" lon="1.84812">
        <ele>1114.138</ele>
        <time>2019-04-07T23:54:58Z</time>
      </trkpt>
      <trkpt lat="42.27661" lon="1.84811">
        <ele>1115.17</ele>
        <time>2019-04-07T23:54:59Z</time>
      </trkpt>
      <trkpt lat="42.27665" lon="1.84808">
        <ele>1116.517</ele>
        <time>2019-04-07T23:55:01Z</time>
      </trkpt>
      <trkpt lat="42.27666" lon="1.84806">
        <ele>1116.608</ele>
        <time>2019-04-07T23:55:02Z</time>
      </trkpt>
      <trkpt lat="42.27669" lon="1.84805">
        <ele>1117.696</ele>
        <time>2019-04-07T23:55:03Z</time>
      </trkpt>
      <trkpt lat="42.27671" lon="1.84804">
        <ele>1118.118</ele>
        <time>2019-04-07T23:55:04Z</time>
      </trkpt>
      <trkpt lat="42.27673" lon="1.84803">
        <ele>1119.133</ele>
        <time>2019-04-07T23:55:05Z</time>
      </trkpt>
      <trkpt lat="42.27676" lon="1.848">
        <ele>1120.264</ele>
        <time>2019-04-07T23:55:06Z</time>
      </trkpt>
      <trkpt lat="42.27676" lon="1.84799">
        <ele>1120.694</ele>
        <time>2019-04-07T23:55:06Z</time>
      </trkpt>
      <trkpt lat="42.27678" lon="1.84798">
        <ele>1121.388</ele>
        <time>2019-04-07T23:55:07Z</time>
      </trkpt>
      <trkpt lat="42.27678" lon="1.84798">
        <ele>1121.667</ele>
        <time>2019-04-07T23:55:07Z</time>
      </trkpt>
      <trkpt lat="42.2768" lon="1.84794">
        <ele>1122.949</ele>
        <time>2019-04-07T23:55:09Z</time>
      </trkpt>
      <trkpt lat="42.27681" lon="1.84793">
        <ele>1123.241</ele>
        <time>2019-04-07T23:55:09Z</time>
      </trkpt>
      <trkpt lat="42.27685" lon="1.84789">
        <ele>1123.681</ele>
        <time>2019-04-07T23:55:11Z</time>
      </trkpt>
      <trkpt lat="42.27689" lon="1.84787">
        <ele>1124.109</ele>
        <time>2019-04-07T23:55:13Z</time>
      </trkpt>
      <trkpt lat="42.2769" lon="1.84786">
        <ele>1124.508</ele>
        <time>2019-04-07T23:55:13Z</time>
      </trkpt>
      <trkpt lat="42.27693" lon="1.84783">
        <ele>1125.257</ele>
        <time>2019-04-07T23:55:15Z</time>
      </trkpt>
      <trkpt lat="42.27699" lon="1.8478">
        <ele>1125.629</ele>
        <time>2019-04-07T23:55:17Z</time>
      </trkpt>
      <trkpt lat="42.277" lon="1.84779">
        <ele>1125.824</ele>
        <time>2019-04-07T23:55:18Z</time>
      </trkpt>
      <trkpt lat="42.27702" lon="1.84776">
        <ele>1126.585</ele>
        <time>2019-04-07T23:55:19Z</time>
      </trkpt>
      <trkpt lat="42.27706" lon="1.84771">
        <ele>1127.575</ele>
        <time>2019-04-07T23:55:21Z</time>
      </trkpt>
      <trkpt lat="42.27711" lon="1.84758">
        <ele>1127.689</ele>
        <time>2019-04-07T23:55:25Z</time>
      </trkpt>
      <trkpt lat="42.27711" lon="1.84757">
        <ele>1127.698</ele>
        <time>2019-04-07T23:55:26Z</time>
      </trkpt>
      <trkpt lat="42.27713" lon="1.84753">
        <ele>1127.64</ele>
        <time>2019-04-07T23:55:27Z</time>
      </trkpt>
      <trkpt lat="42.27714" lon="1.8475">
        <ele>1128.025</ele>
        <time>2019-04-07T23:55:28Z</time>
      </trkpt>
      <trkpt lat="42.27716" lon="1.84745">
        <ele>1128.526</ele>
        <time>2019-04-07T23:55:30Z</time>
      </trkpt>
      <trkpt lat="42.27717" lon="1.84741">
        <ele>1129.108</ele>
        <time>2019-04-07T23:55:31Z</time>
      </trkpt>
      <trkpt lat="42.27718" lon="1.84735">
        <ele>1129.508</ele>
        <time>2019-04-07T23:55:33Z</time>
      </trkpt>
      <trkpt lat="42.27719" lon="1.84734">
        <ele>1129.825</ele>
        <time>2019-04-07T23:55:33Z</time>
      </trkpt>
      <trkpt lat="42.27719" lon="1.8473">
        <ele>1130.347</ele>
        <time>2019-04-07T23:55:34Z</time>
      </trkpt>
      <trkpt lat="42.27719" lon="1.84719">
        <ele>1130.972</ele>
        <time>2019-04-07T23:55:38Z</time>
      </trkpt>
      <trkpt lat="42.27719" lon="1.84717">
        <ele>1131.083</ele>
        <time>2019-04-07T23:55:38Z</time>
      </trkpt>
      <trkpt lat="42.27719" lon="1.84712">
        <ele>1131.583</ele>
        <time>2019-04-07T23:55:40Z</time>
      </trkpt>
      <trkpt lat="42.2772" lon="1.84708">
        <ele>1131.897</ele>
        <time>2019-04-07T23:55:41Z</time>
      </trkpt>
      <trkpt lat="42.27721" lon="1.84706">
        <ele>1132.196</ele>
        <time>2019-04-07T23:55:42Z</time>
      </trkpt>
      <trkpt lat="42.27721" lon="1.84705">
        <ele>1132.518</ele>
        <time>2019-04-07T23:55:42Z</time>
      </trkpt>
      <trkpt lat="42.27722" lon="1.84702">
        <ele>1133.061</ele>
        <time>2019-04-07T23:55:43Z</time>
      </trkpt>
      <trkpt lat="42.27723" lon="1.84697">
        <ele>1133.921</ele>
        <time>2019-04-07T23:55:44Z</time>
      </trkpt>
      <trkpt lat="42.27723" lon="1.84696">
        <ele>1134.213</ele>
        <time>2019-04-07T23:55:45Z</time>
      </trkpt>
      <trkpt lat="42.27725" lon="1.84689">
        <ele>1135.108</ele>
        <time>2019-04-07T23:55:47Z</time>
      </trkpt>
      <trkpt lat="42.27726" lon="1.84682">
        <ele>1135.599</ele>
        <time>2019-04-07T23:55:49Z</time>
      </trkpt>
      <trkpt lat="42.27727" lon="1.84675">
        <ele>1136.681</ele>
        <time>2019-04-07T23:55:51Z</time>
      </trkpt>
      <trkpt lat="42.27727" lon="1.84673">
        <ele>1136.876</ele>
        <time>2019-04-07T23:55:52Z</time>
      </trkpt>
      <trkpt lat="42.2773" lon="1.84664">
        <ele>1137.927</ele>
        <time>2019-04-07T23:55:55Z</time>
      </trkpt>
      <trkpt lat="42.27731" lon="1.84663">
        <ele>1138.137</ele>
        <time>2019-04-07T23:55:55Z</time>
      </trkpt>
      <trkpt lat="42.27734" lon="1.84661">
        <ele>1138.661</ele>
        <time>2019-04-07T23:55:56Z</time>
      </trkpt>
      <trkpt lat="42.27738" lon="1.84659">
        <ele>1138.53</ele>
        <time>2019-04-07T23:55:58Z</time>
      </trkpt>
      <trkpt lat="42.27741" lon="1.84657">
        <ele>1138.632</ele>
        <time>2019-04-07T23:56:00Z</time>
      </trkpt>
      <trkpt lat="42.27742" lon="1.84656">
        <ele>1138.635</ele>
        <time>2019-04-07T23:56:00Z</time>
      </trkpt>
      <trkpt lat="42.27747" lon="1.84654">
        <ele>1139.186</ele>
        <time>2019-04-07T23:56:02Z</time>
      </trkpt>
      <trkpt lat="42.27751" lon="1.84653">
        <ele>1140.214</ele>
        <time>2019-04-07T23:56:04Z</time>
      </trkpt>
      <trkpt lat="42.27755" lon="1.84651">
        <ele>1141.208</ele>
        <time>2019-04-07T23:56:06Z</time>
      </trkpt>
      <trkpt lat="42.27757" lon="1.84649">
        <ele>1142.286</ele>
        <time>2019-04-07T23:56:07Z</time>
      </trkpt>
      <trkpt lat="42.27757" lon="1.84647">
        <ele>1143.028</ele>
        <time>2019-04-07T23:56:07Z</time>
      </trkpt>
      <trkpt lat="42.27757" lon="1.84646">
        <ele>1143.413</ele>
        <time>2019-04-07T23:56:07Z</time>
      </trkpt>
      <trkpt lat="42.27757" lon="1.84643">
        <ele>1144.684</ele>
        <time>2019-04-07T23:56:08Z</time>
      </trkpt>
      <trkpt lat="42.27758" lon="1.84642">
        <ele>1145.124</ele>
        <time>2019-04-07T23:56:09Z</time>
      </trkpt>
      <trkpt lat="42.27759" lon="1.84641">
        <ele>1145.268</ele>
        <time>2019-04-07T23:56:09Z</time>
      </trkpt>
      <trkpt lat="42.27761" lon="1.84637">
        <ele>1146.217</ele>
        <time>2019-04-07T23:56:11Z</time>
      </trkpt>
      <trkpt lat="42.27762" lon="1.84632">
        <ele>1147.029</ele>
        <time>2019-04-07T23:56:12Z</time>
      </trkpt>
      <trkpt lat="42.27763" lon="1.84629">
        <ele>1147.086</ele>
        <time>2019-04-07T23:56:13Z</time>
      </trkpt>
      <trkpt lat="42.27764" lon="1.84626">
        <ele>1147.56</ele>
        <time>2019-04-07T23:56:14Z</time>
      </trkpt>
      <trkpt lat="42.27765" lon="1.84624">
        <ele>1147.526</ele>
        <time>2019-04-07T23:56:15Z</time>
      </trkpt>
      <trkpt lat="42.2777" lon="1.84616">
        <ele>1148.108</ele>
        <time>2019-04-07T23:56:18Z</time>
      </trkpt>
      <trkpt lat="42.27772" lon="1.84611">
        <ele>1148.641</ele>
        <time>2019-04-07T23:56:20Z</time>
      </trkpt>
      <trkpt lat="42.27778" lon="1.84605">
        <ele>1149.073</ele>
        <time>2019-04-07T23:56:23Z</time>
      </trkpt>
      <trkpt lat="42.27781" lon="1.84602">
        <ele>1149.238</ele>
        <time>2019-04-07T23:56:24Z</time>
      </trkpt>
      <trkpt lat="42.27782" lon="1.84601">
        <ele>1149.289</ele>
        <time>2019-04-07T23:56:24Z</time>
      </trkpt>
      <trkpt lat="42.27787" lon="1.84596">
        <ele>1149.879</ele>
        <time>2019-04-07T23:56:27Z</time>
      </trkpt>
      <trkpt lat="42.27791" lon="1.84593">
        <ele>1151.053</ele>
        <time>2019-04-07T23:56:29Z</time>
      </trkpt>
      <trkpt lat="42.27792" lon="1.84592">
        <ele>1151.282</ele>
        <time>2019-04-07T23:56:29Z</time>
      </trkpt>
      <trkpt lat="42.27793" lon="1.84588">
        <ele>1151.994</ele>
        <time>2019-04-07T23:56:31Z</time>
      </trkpt>
      <trkpt lat="42.27794" lon="1.84585">
        <ele>1152.883</ele>
        <time>2019-04-07T23:56:31Z</time>
      </trkpt>
      <trkpt lat="42.27794" lon="1.84584">
        <ele>1153.125</ele>
        <time>2019-04-07T23:56:32Z</time>
      </trkpt>
      <trkpt lat="42.27796" lon="1.84581">
        <ele>1154.117</ele>
        <time>2019-04-07T23:56:33Z</time>
      </trkpt>
      <trkpt lat="42.27797" lon="1.84578">
        <ele>1154.608</ele>
        <time>2019-04-07T23:56:34Z</time>
      </trkpt>
      <trkpt lat="42.27798" lon="1.84577">
        <ele>1155.031</ele>
        <time>2019-04-07T23:56:34Z</time>
      </trkpt>
      <trkpt lat="42.27801" lon="1.84573">
        <ele>1155.993</ele>
        <time>2019-04-07T23:56:36Z</time>
      </trkpt>
      <trkpt lat="42.27804" lon="1.84568">
        <ele>1156.548</ele>
        <time>2019-04-07T23:56:38Z</time>
      </trkpt>
      <trkpt lat="42.27805" lon="1.84566">
        <ele>1156.989</ele>
        <time>2019-04-07T23:56:39Z</time>
      </trkpt>
      <trkpt lat="42.27806" lon="1.84561">
        <ele>1157.659</ele>
        <time>2019-04-07T23:56:40Z</time>
      </trkpt>
      <trkpt lat="42.27807" lon="1.84559">
        <ele>1158.033</ele>
        <time>2019-04-07T23:56:41Z</time>
      </trkpt>
      <trkpt lat="42.27809" lon="1.84553">
        <ele>1159.172</ele>
        <time>2019-04-07T23:56:43Z</time>
      </trkpt>
      <trkpt lat="42.2781" lon="1.84551">
        <ele>1159.614</ele>
        <time>2019-04-07T23:56:44Z</time>
      </trkpt>
      <trkpt lat="42.27812" lon="1.84546">
        <ele>1160.325</ele>
        <time>2019-04-07T23:56:45Z</time>
      </trkpt>
      <trkpt lat="42.27815" lon="1.84538">
        <ele>1161.526</ele>
        <time>2019-04-07T23:56:48Z</time>
      </trkpt>
      <trkpt lat="42.27816" lon="1.84536">
        <ele>1161.808</ele>
        <time>2019-04-07T23:56:48Z</time>
      </trkpt>
      <trkpt lat="42.27816" lon="1.84534">
        <ele>1162.508</ele>
        <time>2019-04-07T23:56:49Z</time>
      </trkpt>
      <trkpt lat="42.27818" lon="1.8453">
        <ele>1163.295</ele>
        <time>2019-04-07T23:56:51Z</time>
      </trkpt>
      <trkpt lat="42.27818" lon="1.84528">
        <ele>1163.697</ele>
        <time>2019-04-07T23:56:51Z</time>
      </trkpt>
      <trkpt lat="42.27818" lon="1.84526">
        <ele>1164.132</ele>
        <time>2019-04-07T23:56:52Z</time>
      </trkpt>
      <trkpt lat="42.27818" lon="1.84522">
        <ele>1164.923</ele>
        <time>2019-04-07T23:56:53Z</time>
      </trkpt>
      <trkpt lat="42.27819" lon="1.8452">
        <ele>1165.523</ele>
        <time>2019-04-07T23:56:53Z</time>
      </trkpt>
      <trkpt lat="42.27819" lon="1.84519">
        <ele>1166.217</ele>
        <time>2019-04-07T23:56:54Z</time>
      </trkpt>
      <trkpt lat="42.2782" lon="1.84517">
        <ele>1167.376</ele>
        <time>2019-04-07T23:56:55Z</time>
      </trkpt>
      <trkpt lat="42.27821" lon="1.84514">
        <ele>1168.138</ele>
        <time>2019-04-07T23:56:55Z</time>
      </trkpt>
      <trkpt lat="42.27822" lon="1.84512">
        <ele>1168.447</ele>
        <time>2019-04-07T23:56:56Z</time>
      </trkpt>
      <trkpt lat="42.27824" lon="1.84509">
        <ele>1169.129</ele>
        <time>2019-04-07T23:56:57Z</time>
      </trkpt>
      <trkpt lat="42.27826" lon="1.84506">
        <ele>1169.921</ele>
        <time>2019-04-07T23:56:59Z</time>
      </trkpt>
      <trkpt lat="42.27828" lon="1.84494">
        <ele>1170.908</ele>
        <time>2019-04-07T23:57:02Z</time>
      </trkpt>
      <trkpt lat="42.27829" lon="1.84492">
        <ele>1171.167</ele>
        <time>2019-04-07T23:57:03Z</time>
      </trkpt>
      <trkpt lat="42.27829" lon="1.84486">
        <ele>1171.379</ele>
        <time>2019-04-07T23:57:04Z</time>
      </trkpt>
      <trkpt lat="42.27829" lon="1.8448">
        <ele>1172.154</ele>
        <time>2019-04-07T23:57:06Z</time>
      </trkpt>
      <trkpt lat="42.27829" lon="1.84477">
        <ele>1172.975</ele>
        <time>2019-04-07T23:57:07Z</time>
      </trkpt>
      <trkpt lat="42.27829" lon="1.84475">
        <ele>1173.335</ele>
        <time>2019-04-07T23:57:08Z</time>
      </trkpt>
      <trkpt lat="42.2783" lon="1.84474">
        <ele>1173.539</ele>
        <time>2019-04-07T23:57:08Z</time>
      </trkpt>
      <trkpt lat="42.2783" lon="1.84471">
        <ele>1174.428</ele>
        <time>2019-04-07T23:57:09Z</time>
      </trkpt>
      <trkpt lat="42.2783" lon="1.84463">
        <ele>1175.94</ele>
        <time>2019-04-07T23:57:11Z</time>
      </trkpt>
      <trkpt lat="42.2783" lon="1.84456">
        <ele>1176.826</ele>
        <time>2019-04-07T23:57:13Z</time>
      </trkpt>
      <trkpt lat="42.2783" lon="1.84452">
        <ele>1178.047</ele>
        <time>2019-04-07T23:57:15Z</time>
      </trkpt>
      <trkpt lat="42.2783" lon="1.84451">
        <ele>1178.511</ele>
        <time>2019-04-07T23:57:15Z</time>
      </trkpt>
      <trkpt lat="42.2783" lon="1.8445">
        <ele>1179.008</ele>
        <time>2019-04-07T23:57:15Z</time>
      </trkpt>
      <trkpt lat="42.27831" lon="1.84448">
        <ele>1180.065</ele>
        <time>2019-04-07T23:57:16Z</time>
      </trkpt>
      <trkpt lat="42.27831" lon="1.84446">
        <ele>1181.077</ele>
        <time>2019-04-07T23:57:17Z</time>
      </trkpt>
      <trkpt lat="42.27832" lon="1.84444">
        <ele>1181.522</ele>
        <time>2019-04-07T23:57:17Z</time>
      </trkpt>
      <trkpt lat="42.27832" lon="1.84443">
        <ele>1182.123</ele>
        <time>2019-04-07T23:57:17Z</time>
      </trkpt>
      <trkpt lat="42.27832" lon="1.84443">
        <ele>1182.613</ele>
        <time>2019-04-07T23:57:18Z</time>
      </trkpt>
      <trkpt lat="42.27833" lon="1.84441">
        <ele>1183.327</ele>
        <time>2019-04-07T23:57:18Z</time>
      </trkpt>
      <trkpt lat="42.27833" lon="1.84439">
        <ele>1184.196</ele>
        <time>2019-04-07T23:57:19Z</time>
      </trkpt>
      <trkpt lat="42.27834" lon="1.84437">
        <ele>1184.678</ele>
        <time>2019-04-07T23:57:20Z</time>
      </trkpt>
      <trkpt lat="42.27834" lon="1.84436">
        <ele>1185.111</ele>
        <time>2019-04-07T23:57:20Z</time>
      </trkpt>
      <trkpt lat="42.27834" lon="1.84434">
        <ele>1185.621</ele>
        <time>2019-04-07T23:57:20Z</time>
      </trkpt>
      <trkpt lat="42.27834" lon="1.84432">
        <ele>1187.203</ele>
        <time>2019-04-07T23:57:21Z</time>
      </trkpt>
      <trkpt lat="42.27833" lon="1.84429">
        <ele>1188.408</ele>
        <time>2019-04-07T23:57:22Z</time>
      </trkpt>
      <trkpt lat="42.27833" lon="1.84428">
        <ele>1189.554</ele>
        <time>2019-04-07T23:57:22Z</time>
      </trkpt>
      <trkpt lat="42.27833" lon="1.84427">
        <ele>1190.246</ele>
        <time>2019-04-07T23:57:22Z</time>
      </trkpt>
      <trkpt lat="42.27832" lon="1.84427">
        <ele>1190.981</ele>
        <time>2019-04-07T23:57:23Z</time>
      </trkpt>
      <trkpt lat="42.27834" lon="1.84426">
        <ele>1191.942</ele>
        <time>2019-04-07T23:57:23Z</time>
      </trkpt>
      <trkpt lat="42.27834" lon="1.84425">
        <ele>1192.292</ele>
        <time>2019-04-07T23:57:23Z</time>
      </trkpt>
      <trkpt lat="42.27836" lon="1.84422">
        <ele>1192.666</ele>
        <time>2019-04-07T23:57:25Z</time>
      </trkpt>
      <trkpt lat="42.2784" lon="1.84419">
        <ele>1193.075</ele>
        <time>2019-04-07T23:57:26Z</time>
      </trkpt>
      <trkpt lat="42.27846" lon="1.84413">
        <ele>1194.247</ele>
        <time>2019-04-07T23:57:29Z</time>
      </trkpt>
      <trkpt lat="42.27846" lon="1.84411">
        <ele>1194.586</ele>
        <time>2019-04-07T23:57:30Z</time>
      </trkpt>
      <trkpt lat="42.27846" lon="1.84406">
        <ele>1195.16</ele>
        <time>2019-04-07T23:57:31Z</time>
      </trkpt>
      <trkpt lat="42.27849" lon="1.84394">
        <ele>1195.426</ele>
        <time>2019-04-07T23:57:35Z</time>
      </trkpt>
      <trkpt lat="42.27847" lon="1.84385">
        <ele>1196.408</ele>
        <time>2019-04-07T23:57:38Z</time>
      </trkpt>
      <trkpt lat="42.27847" lon="1.84384">
        <ele>1196.951</ele>
        <time>2019-04-07T23:57:38Z</time>
      </trkpt>
      <trkpt lat="42.27847" lon="1.84382">
        <ele>1197.173</ele>
        <time>2019-04-07T23:57:39Z</time>
      </trkpt>
      <trkpt lat="42.27847" lon="1.8438">
        <ele>1197.538</ele>
        <time>2019-04-07T23:57:39Z</time>
      </trkpt>
      <trkpt lat="42.27847" lon="1.8438">
        <ele>1197.929</ele>
        <time>2019-04-07T23:57:40Z</time>
      </trkpt>
      <trkpt lat="42.27848" lon="1.84379">
        <ele>1198.239</ele>
        <time>2019-04-07T23:57:40Z</time>
      </trkpt>
      <trkpt lat="42.27849" lon="1.84372">
        <ele>1198.253</ele>
        <time>2019-04-07T23:57:42Z</time>
      </trkpt>
      <trkpt lat="42.27849" lon="1.84371">
        <ele>1198.612</ele>
        <time>2019-04-07T23:57:42Z</time>
      </trkpt>
      <trkpt lat="42.27849" lon="1.84369">
        <ele>1199.094</ele>
        <time>2019-04-07T23:57:43Z</time>
      </trkpt>
      <trkpt lat="42.27852" lon="1.8436">
        <ele>1200.044</ele>
        <time>2019-04-07T23:57:46Z</time>
      </trkpt>
      <trkpt lat="42.27854" lon="1.84357">
        <ele>1201.105</ele>
        <time>2019-04-07T23:57:47Z</time>
      </trkpt>
      <trkpt lat="42.27854" lon="1.84354">
        <ele>1201.815</ele>
        <time>2019-04-07T23:57:48Z</time>
      </trkpt>
      <trkpt lat="42.27854" lon="1.84352">
        <ele>1202.108</ele>
        <time>2019-04-07T23:57:48Z</time>
      </trkpt>
      <trkpt lat="42.27854" lon="1.84346">
        <ele>1203.217</ele>
        <time>2019-04-07T23:57:50Z</time>
      </trkpt>
      <trkpt lat="42.27855" lon="1.84343">
        <ele>1204.079</ele>
        <time>2019-04-07T23:57:51Z</time>
      </trkpt>
      <trkpt lat="42.27856" lon="1.84341">
        <ele>1204.554</ele>
        <time>2019-04-07T23:57:52Z</time>
      </trkpt>
      <trkpt lat="42.27857" lon="1.8434">
        <ele>1204.695</ele>
        <time>2019-04-07T23:57:52Z</time>
      </trkpt>
      <trkpt lat="42.2786" lon="1.84336">
        <ele>1205.685</ele>
        <time>2019-04-07T23:57:54Z</time>
      </trkpt>
      <trkpt lat="42.2786" lon="1.84335">
        <ele>1205.669</ele>
        <time>2019-04-07T23:57:55Z</time>
      </trkpt>
      <trkpt lat="42.27862" lon="1.84329">
        <ele>1206.768</ele>
        <time>2019-04-07T23:57:56Z</time>
      </trkpt>
      <trkpt lat="42.27863" lon="1.84326">
        <ele>1207.59</ele>
        <time>2019-04-07T23:57:57Z</time>
      </trkpt>
      <trkpt lat="42.27863" lon="1.84324">
        <ele>1207.922</ele>
        <time>2019-04-07T23:57:58Z</time>
      </trkpt>
      <trkpt lat="42.27864" lon="1.84322">
        <ele>1208.162</ele>
        <time>2019-04-07T23:57:58Z</time>
      </trkpt>
      <trkpt lat="42.27866" lon="1.84317">
        <ele>1208.908</ele>
        <time>2019-04-07T23:58:00Z</time>
      </trkpt>
      <trkpt lat="42.27868" lon="1.84315">
        <ele>1209.208</ele>
        <time>2019-04-07T23:58:01Z</time>
      </trkpt>
      <trkpt lat="42.2787" lon="1.84311">
        <ele>1210.115</ele>
        <time>2019-04-07T23:58:03Z</time>
      </trkpt>
      <trkpt lat="42.27871" lon="1.84308">
        <ele>1211.037</ele>
        <time>2019-04-07T23:58:04Z</time>
      </trkpt>
      <trkpt lat="42.27872" lon="1.84306">
        <ele>1211.252</ele>
        <time>2019-04-07T23:58:04Z</time>
      </trkpt>
      <trkpt lat="42.27877" lon="1.84301">
        <ele>1212.213</ele>
        <time>2019-04-07T23:58:07Z</time>
      </trkpt>
      <trkpt lat="42.27878" lon="1.84299">
        <ele>1212.653</ele>
        <time>2019-04-07T23:58:07Z</time>
      </trkpt>
      <trkpt lat="42.27881" lon="1.84288">
        <ele>1213.597</ele>
        <time>2019-04-07T23:58:11Z</time>
      </trkpt>
      <trkpt lat="42.27883" lon="1.84283">
        <ele>1214.936</ele>
        <time>2019-04-07T23:58:13Z</time>
      </trkpt>
      <trkpt lat="42.27886" lon="1.84276">
        <ele>1216.638</ele>
        <time>2019-04-07T23:58:15Z</time>
      </trkpt>
      <trkpt lat="42.27887" lon="1.84274">
        <ele>1216.712</ele>
        <time>2019-04-07T23:58:16Z</time>
      </trkpt>
      <trkpt lat="42.27888" lon="1.84272">
        <ele>1217.232</ele>
        <time>2019-04-07T23:58:17Z</time>
      </trkpt>
      <trkpt lat="42.27889" lon="1.84268">
        <ele>1217.505</ele>
        <time>2019-04-07T23:58:18Z</time>
      </trkpt>
      <trkpt lat="42.27893" lon="1.84261">
        <ele>1218.508</ele>
        <time>2019-04-07T23:58:20Z</time>
      </trkpt>
      <trkpt lat="42.27895" lon="1.84258">
        <ele>1219.144</ele>
        <time>2019-04-07T23:58:21Z</time>
      </trkpt>
      <trkpt lat="42.27897" lon="1.84255">
        <ele>1219.776</ele>
        <time>2019-04-07T23:58:23Z</time>
      </trkpt>
      <trkpt lat="42.27898" lon="1.84253">
        <ele>1220.191</ele>
        <time>2019-04-07T23:58:24Z</time>
      </trkpt>
      <trkpt lat="42.27898" lon="1.84249">
        <ele>1220.632</ele>
        <time>2019-04-07T23:58:25Z</time>
      </trkpt>
      <trkpt lat="42.27899" lon="1.84247">
        <ele>1221.252</ele>
        <time>2019-04-07T23:58:25Z</time>
      </trkpt>
      <trkpt lat="42.27899" lon="1.84244">
        <ele>1222.076</ele>
        <time>2019-04-07T23:58:26Z</time>
      </trkpt>
      <trkpt lat="42.27899" lon="1.84243">
        <ele>1222.295</ele>
        <time>2019-04-07T23:58:27Z</time>
      </trkpt>
      <trkpt lat="42.279" lon="1.84239">
        <ele>1222.147</ele>
        <time>2019-04-07T23:58:28Z</time>
      </trkpt>
      <trkpt lat="42.27901" lon="1.84231">
        <ele>1223.246</ele>
        <time>2019-04-07T23:58:30Z</time>
      </trkpt>
      <trkpt lat="42.27903" lon="1.84226">
        <ele>1223.688</ele>
        <time>2019-04-07T23:58:32Z</time>
      </trkpt>
      <trkpt lat="42.27904" lon="1.84223">
        <ele>1223.916</ele>
        <time>2019-04-07T23:58:33Z</time>
      </trkpt>
      <trkpt lat="42.27904" lon="1.84221">
        <ele>1224.208</ele>
        <time>2019-04-07T23:58:33Z</time>
      </trkpt>
      <trkpt lat="42.27903" lon="1.84215">
        <ele>1225.097</ele>
        <time>2019-04-07T23:58:35Z</time>
      </trkpt>
      <trkpt lat="42.27903" lon="1.84213">
        <ele>1225.169</ele>
        <time>2019-04-07T23:58:35Z</time>
      </trkpt>
      <trkpt lat="42.27903" lon="1.84212">
        <ele>1225.124</ele>
        <time>2019-04-07T23:58:36Z</time>
      </trkpt>
      <trkpt lat="42.27903" lon="1.8421">
        <ele>1225.515</ele>
        <time>2019-04-07T23:58:37Z</time>
      </trkpt>
      <trkpt lat="42.27904" lon="1.84205">
        <ele>1226.425</ele>
        <time>2019-04-07T23:58:38Z</time>
      </trkpt>
      <trkpt lat="42.27905" lon="1.84198">
        <ele>1227.649</ele>
        <time>2019-04-07T23:58:40Z</time>
      </trkpt>
      <trkpt lat="42.27906" lon="1.84191">
        <ele>1229.128</ele>
        <time>2019-04-07T23:58:42Z</time>
      </trkpt>
      <trkpt lat="42.27908" lon="1.84181">
        <ele>1230.06</ele>
        <time>2019-04-07T23:58:45Z</time>
      </trkpt>
      <trkpt lat="42.27909" lon="1.84175">
        <ele>1231.575</ele>
        <time>2019-04-07T23:58:47Z</time>
      </trkpt>
      <trkpt lat="42.2791" lon="1.84172">
        <ele>1232.628</ele>
        <time>2019-04-07T23:58:48Z</time>
      </trkpt>
      <trkpt lat="42.27911" lon="1.84168">
        <ele>1233.62</ele>
        <time>2019-04-07T23:58:49Z</time>
      </trkpt>
      <trkpt lat="42.27911" lon="1.84167">
        <ele>1233.808</ele>
        <time>2019-04-07T23:58:50Z</time>
      </trkpt>
      <trkpt lat="42.27912" lon="1.84164">
        <ele>1234.41</ele>
        <time>2019-04-07T23:58:51Z</time>
      </trkpt>
      <trkpt lat="42.27913" lon="1.8416">
        <ele>1234.852</ele>
        <time>2019-04-07T23:58:52Z</time>
      </trkpt>
      <trkpt lat="42.27913" lon="1.84158">
        <ele>1235.117</ele>
        <time>2019-04-07T23:58:53Z</time>
      </trkpt>
      <trkpt lat="42.27914" lon="1.84152">
        <ele>1236.078</ele>
        <time>2019-04-07T23:58:54Z</time>
      </trkpt>
      <trkpt lat="42.27915" lon="1.84149">
        <ele>1236.418</ele>
        <time>2019-04-07T23:58:55Z</time>
      </trkpt>
      <trkpt lat="42.27915" lon="1.84146">
        <ele>1236.632</ele>
        <time>2019-04-07T23:58:56Z</time>
      </trkpt>
      <trkpt lat="42.27916" lon="1.84144">
        <ele>1237.261</ele>
        <time>2019-04-07T23:58:57Z</time>
      </trkpt>
      <trkpt lat="42.27917" lon="1.84139">
        <ele>1238.283</ele>
        <time>2019-04-07T23:58:58Z</time>
      </trkpt>
      <trkpt lat="42.27918" lon="1.84135">
        <ele>1238.531</ele>
        <time>2019-04-07T23:59:00Z</time>
      </trkpt>
      <trkpt lat="42.27918" lon="1.84131">
        <ele>1239.661</ele>
        <time>2019-04-07T23:59:01Z</time>
      </trkpt>
      <trkpt lat="42.27921" lon="1.84126">
        <ele>1240.507</ele>
        <time>2019-04-07T23:59:03Z</time>
      </trkpt>
      <trkpt lat="42.27921" lon="1.84123">
        <ele>1241.008</ele>
        <time>2019-04-07T23:59:04Z</time>
      </trkpt>
      <trkpt lat="42.27921" lon="1.84121">
        <ele>1241.626</ele>
        <time>2019-04-07T23:59:04Z</time>
      </trkpt>
      <trkpt lat="42.27921" lon="1.8412">
        <ele>1241.818</ele>
        <time>2019-04-07T23:59:04Z</time>
      </trkpt>
      <trkpt lat="42.2792" lon="1.84119">
        <ele>1242.113</ele>
        <time>2019-04-07T23:59:05Z</time>
      </trkpt>
      <trkpt lat="42.27921" lon="1.84115">
        <ele>1242.624</ele>
        <time>2019-04-07T23:59:06Z</time>
      </trkpt>
      <trkpt lat="42.27922" lon="1.84111">
        <ele>1243.614</ele>
        <time>2019-04-07T23:59:07Z</time>
      </trkpt>
      <trkpt lat="42.27922" lon="1.84108">
        <ele>1243.938</ele>
        <time>2019-04-07T23:59:08Z</time>
      </trkpt>
      <trkpt lat="42.27922" lon="1.84105">
        <ele>1244.247</ele>
        <time>2019-04-07T23:59:09Z</time>
      </trkpt>
      <trkpt lat="42.27921" lon="1.84101">
        <ele>1245.119</ele>
        <time>2019-04-07T23:59:10Z</time>
      </trkpt>
      <trkpt lat="42.27922" lon="1.84097">
        <ele>1246.684</ele>
        <time>2019-04-07T23:59:11Z</time>
      </trkpt>
      <trkpt lat="42.27923" lon="1.84095">
        <ele>1247.107</ele>
        <time>2019-04-07T23:59:12Z</time>
      </trkpt>
      <trkpt lat="42.27923" lon="1.84093">
        <ele>1247.517</ele>
        <time>2019-04-07T23:59:13Z</time>
      </trkpt>
      <trkpt lat="42.27925" lon="1.84089">
        <ele>1249.108</ele>
        <time>2019-04-07T23:59:14Z</time>
      </trkpt>
      <trkpt lat="42.27926" lon="1.84088">
        <ele>1249.691</ele>
        <time>2019-04-07T23:59:14Z</time>
      </trkpt>
      <trkpt lat="42.27927" lon="1.84086">
        <ele>1250.493</ele>
        <time>2019-04-07T23:59:15Z</time>
      </trkpt>
      <trkpt lat="42.27927" lon="1.84083">
        <ele>1251.018</ele>
        <time>2019-04-07T23:59:16Z</time>
      </trkpt>
      <trkpt lat="42.27928" lon="1.84083">
        <ele>1251.589</ele>
        <time>2019-04-07T23:59:16Z</time>
      </trkpt>
      <trkpt lat="42.27928" lon="1.84082">
        <ele>1251.629</ele>
        <time>2019-04-07T23:59:17Z</time>
      </trkpt>
      <trkpt lat="42.27928" lon="1.8408">
        <ele>1252.063</ele>
        <time>2019-04-07T23:59:17Z</time>
      </trkpt>
      <trkpt lat="42.27928" lon="1.84074">
        <ele>1252.642</ele>
        <time>2019-04-07T23:59:19Z</time>
      </trkpt>
      <trkpt lat="42.27928" lon="1.8407">
        <ele>1252.964</ele>
        <time>2019-04-07T23:59:20Z</time>
      </trkpt>
      <trkpt lat="42.27928" lon="1.84066">
        <ele>1253.224</ele>
        <time>2019-04-07T23:59:21Z</time>
      </trkpt>
      <trkpt lat="42.27928" lon="1.84064">
        <ele>1253.504</ele>
        <time>2019-04-07T23:59:22Z</time>
      </trkpt>
      <trkpt lat="42.27929" lon="1.84061">
        <ele>1254.214</ele>
        <time>2019-04-07T23:59:23Z</time>
      </trkpt>
      <trkpt lat="42.27932" lon="1.84057">
        <ele>1254.808</ele>
        <time>2019-04-07T23:59:24Z</time>
      </trkpt>
      <trkpt lat="42.27934" lon="1.84052">
        <ele>1255.245</ele>
        <time>2019-04-07T23:59:26Z</time>
      </trkpt>
      <trkpt lat="42.27935" lon="1.8405">
        <ele>1255.637</ele>
        <time>2019-04-07T23:59:27Z</time>
      </trkpt>
      <trkpt lat="42.27935" lon="1.84048">
        <ele>1256.072</ele>
        <time>2019-04-07T23:59:27Z</time>
      </trkpt>
      <trkpt lat="42.27936" lon="1.84046">
        <ele>1256.423</ele>
        <time>2019-04-07T23:59:28Z</time>
      </trkpt>
      <trkpt lat="42.27936" lon="1.84044">
        <ele>1256.843</ele>
        <time>2019-04-07T23:59:29Z</time>
      </trkpt>
      <trkpt lat="42.27937" lon="1.84042">
        <ele>1257.067</ele>
        <time>2019-04-07T23:59:29Z</time>
      </trkpt>
      <trkpt lat="42.27937" lon="1.8404">
        <ele>1257.466</ele>
        <time>2019-04-07T23:59:30Z</time>
      </trkpt>
      <trkpt lat="42.27937" lon="1.84038">
        <ele>1257.998</ele>
        <time>2019-04-07T23:59:30Z</time>
      </trkpt>
      <trkpt lat="42.27938" lon="1.84037">
        <ele>1258.267</ele>
        <time>2019-04-07T23:59:31Z</time>
      </trkpt>
      <trkpt lat="42.2794" lon="1.84032">
        <ele>1259.281</ele>
        <time>2019-04-07T23:59:33Z</time>
      </trkpt>
      <trkpt lat="42.27941" lon="1.8403">
        <ele>1259.419</ele>
        <time>2019-04-07T23:59:33Z</time>
      </trkpt>
      <trkpt lat="42.27941" lon="1.84028">
        <ele>1259.508</ele>
        <time>2019-04-07T23:59:34Z</time>
      </trkpt>
      <trkpt lat="42.27943" lon="1.84026">
        <ele>1260.319</ele>
        <time>2019-04-07T23:59:35Z</time>
      </trkpt>
      <trkpt lat="42.27944" lon="1.84023">
        <ele>1261.491</ele>
        <time>2019-04-07T23:59:36Z</time>
      </trkpt>
      <trkpt lat="42.27944" lon="1.84022">
        <ele>1262.126</ele>
        <time>2019-04-07T23:59:36Z</time>
      </trkpt>
      <trkpt lat="42.27945" lon="1.8402">
        <ele>1263.187</ele>
        <time>2019-04-07T23:59:37Z</time>
      </trkpt>
      <trkpt lat="42.27946" lon="1.84015">
        <ele>1264.387</ele>
        <time>2019-04-07T23:59:38Z</time>
      </trkpt>
      <trkpt lat="42.27946" lon="1.84015">
        <ele>1264.471</ele>
        <time>2019-04-07T23:59:38Z</time>
      </trkpt>
      <trkpt lat="42.27949" lon="1.84011">
        <ele>1265.27</ele>
        <time>2019-04-07T23:59:40Z</time>
      </trkpt>
      <trkpt lat="42.2795" lon="1.8401">
        <ele>1265.772</ele>
        <time>2019-04-07T23:59:40Z</time>
      </trkpt>
      <trkpt lat="42.27952" lon="1.84008">
        <ele>1266.688</ele>
        <time>2019-04-07T23:59:42Z</time>
      </trkpt>
      <trkpt lat="42.27954" lon="1.84006">
        <ele>1267.624</ele>
        <time>2019-04-07T23:59:42Z</time>
      </trkpt>
      <trkpt lat="42.27955" lon="1.84004">
        <ele>1268.126</ele>
        <time>2019-04-07T23:59:43Z</time>
      </trkpt>
      <trkpt lat="42.27956" lon="1.84002">
        <ele>1268.908</ele>
        <time>2019-04-07T23:59:44Z</time>
      </trkpt>
      <trkpt lat="42.27958" lon="1.84">
        <ele>1270.191</ele>
        <time>2019-04-07T23:59:45Z</time>
      </trkpt>
      <trkpt lat="42.27959" lon="1.83997">
        <ele>1271.683</ele>
        <time>2019-04-07T23:59:46Z</time>
      </trkpt>
      <trkpt lat="42.27959" lon="1.83996">
        <ele>1271.558</ele>
        <time>2019-04-07T23:59:46Z</time>
      </trkpt>
      <trkpt lat="42.2796" lon="1.83995">
        <ele>1272.539</ele>
        <time>2019-04-07T23:59:47Z</time>
      </trkpt>
      <trkpt lat="42.27963" lon="1.83992">
        <ele>1273.679</ele>
        <time>2019-04-07T23:59:48Z</time>
      </trkpt>
      <trkpt lat="42.27965" lon="1.83991">
        <ele>1274.113</ele>
        <time>2019-04-07T23:59:49Z</time>
      </trkpt>
      <trkpt lat="42.27967" lon="1.8399">
        <ele>1274.642</ele>
        <time>2019-04-07T23:59:50Z</time>
      </trkpt>
      <trkpt lat="42.27969" lon="1.83988">
        <ele>1275.174</ele>
        <time>2019-04-07T23:59:51Z</time>
      </trkpt>
      <trkpt lat="42.2797" lon="1.83986">
        <ele>1275.552</ele>
        <time>2019-04-07T23:59:51Z</time>
      </trkpt>
      <trkpt lat="42.27972" lon="1.83982">
        <ele>1276.253</ele>
        <time>2019-04-07T23:59:53Z</time>
      </trkpt>
      <trkpt lat="42.27973" lon="1.83977">
        <ele>1277.508</ele>
        <time>2019-04-07T23:59:54Z</time>
      </trkpt>
      <trkpt lat="42.27975" lon="1.83972">
        <ele>1278.508</ele>
        <time>2019-04-07T23:59:56Z</time>
      </trkpt>
      <trkpt lat="42.27977" lon="1.8397">
        <ele>1279.788</ele>
        <time>2019-04-07T23:59:57Z</time>
      </trkpt>
      <trkpt lat="42.27978" lon="1.83966">
        <ele>1280.28</ele>
        <time>2019-04-07T23:59:58Z</time>
      </trkpt>
      <trkpt lat="42.27979" lon="1.83963">
        <ele>1281.015</ele>
        <time>2019-04-07T23:59:59Z</time>
      </trkpt>
      <trkpt lat="42.27979" lon="1.83956">
        <ele>1282.226</ele>
        <time>2019-04-08T00:00:01Z</time>
      </trkpt>
      <trkpt lat="42.27979" lon="1.83954">
        <ele>1282.666</ele>
        <time>2019-04-08T00:00:02Z</time>
      </trkpt>
      <trkpt lat="42.27981" lon="1.83949">
        <ele>1283.57</ele>
        <time>2019-04-08T00:00:03Z</time>
      </trkpt>
      <trkpt lat="42.27982" lon="1.83946">
        <ele>1284.129</ele>
        <time>2019-04-08T00:00:04Z</time>
      </trkpt>
      <trkpt lat="42.27983" lon="1.83943">
        <ele>1284.551</ele>
        <time>2019-04-08T00:00:05Z</time>
      </trkpt>
      <trkpt lat="42.27983" lon="1.83941">
        <ele>1284.964</ele>
        <time>2019-04-08T00:00:06Z</time>
      </trkpt>
      <trkpt lat="42.27983" lon="1.83939">
        <ele>1285.306</ele>
        <time>2019-04-08T00:00:07Z</time>
      </trkpt>
      <trkpt lat="42.27983" lon="1.83937">
        <ele>1285.816</ele>
        <time>2019-04-08T00:00:07Z</time>
      </trkpt>
      <trkpt lat="42.27984" lon="1.83934">
        <ele>1286.808</ele>
        <time>2019-04-08T00:00:08Z</time>
      </trkpt>
      <trkpt lat="42.27985" lon="1.83931">
        <ele>1288.159</ele>
        <time>2019-04-08T00:00:09Z</time>
      </trkpt>
      <trkpt lat="42.27986" lon="1.8393">
        <ele>1288.271</ele>
        <time>2019-04-08T00:00:10Z</time>
      </trkpt>
      <trkpt lat="42.27987" lon="1.83928">
        <ele>1288.866</ele>
        <time>2019-04-08T00:00:10Z</time>
      </trkpt>
      <trkpt lat="42.27988" lon="1.83927">
        <ele>1289.117</ele>
        <time>2019-04-08T00:00:11Z</time>
      </trkpt>
      <trkpt lat="42.2799" lon="1.83924">
        <ele>1290.147</ele>
        <time>2019-04-08T00:00:12Z</time>
      </trkpt>
      <trkpt lat="42.2799" lon="1.83923">
        <ele>1290.691</ele>
        <time>2019-04-08T00:00:12Z</time>
      </trkpt>
      <trkpt lat="42.27993" lon="1.83921">
        <ele>1291.99</ele>
        <time>2019-04-08T00:00:13Z</time>
      </trkpt>
      <trkpt lat="42.27994" lon="1.83919">
        <ele>1292.972</ele>
        <time>2019-04-08T00:00:14Z</time>
      </trkpt>
      <trkpt lat="42.27994" lon="1.83917">
        <ele>1293.214</ele>
        <time>2019-04-08T00:00:15Z</time>
      </trkpt>
      <trkpt lat="42.27994" lon="1.83916">
        <ele>1293.754</ele>
        <time>2019-04-08T00:00:15Z</time>
      </trkpt>
      <trkpt lat="42.27995" lon="1.83914">
        <ele>1294.009</ele>
        <time>2019-04-08T00:00:16Z</time>
      </trkpt>
      <trkpt lat="42.27995" lon="1.83913">
        <ele>1294.408</ele>
        <time>2019-04-08T00:00:16Z</time>
      </trkpt>
      <trkpt lat="42.27995" lon="1.8391">
        <ele>1295.194</ele>
        <time>2019-04-08T00:00:17Z</time>
      </trkpt>
      <trkpt lat="42.27997" lon="1.83906">
        <ele>1295.786</ele>
        <time>2019-04-08T00:00:18Z</time>
      </trkpt>
      <trkpt lat="42.27999" lon="1.83902">
        <ele>1296.831</ele>
        <time>2019-04-08T00:00:20Z</time>
      </trkpt>
      <trkpt lat="42.28002" lon="1.83898">
        <ele>1297.892</ele>
        <time>2019-04-08T00:00:21Z</time>
      </trkpt>
      <trkpt lat="42.28005" lon="1.83892">
        <ele>1299.572</ele>
        <time>2019-04-08T00:00:23Z</time>
      </trkpt>
      <trkpt lat="42.28007" lon="1.83888">
        <ele>1300.246</ele>
        <time>2019-04-08T00:00:25Z</time>
      </trkpt>
      <trkpt lat="42.28009" lon="1.83886">
        <ele>1300.645</ele>
        <time>2019-04-08T00:00:26Z</time>
      </trkpt>
      <trkpt lat="42.2801" lon="1.83878">
        <ele>1302.087</ele>
        <time>2019-04-08T00:00:28Z</time>
      </trkpt>
      <trkpt lat="42.28011" lon="1.83877">
        <ele>1302.248</ele>
        <time>2019-04-08T00:00:29Z</time>
      </trkpt>
      <trkpt lat="42.28011" lon="1.83876">
        <ele>1302.361</ele>
        <time>2019-04-08T00:00:29Z</time>
      </trkpt>
      <trkpt lat="42.28012" lon="1.83872">
        <ele>1302.417</ele>
        <time>2019-04-08T00:00:30Z</time>
      </trkpt>
      <trkpt lat="42.28013" lon="1.83869">
        <ele>1302.808</ele>
        <time>2019-04-08T00:00:31Z</time>
      </trkpt>
      <trkpt lat="42.28013" lon="1.83868">
        <ele>1303.047</ele>
        <time>2019-04-08T00:00:31Z</time>
      </trkpt>
      <trkpt lat="42.28014" lon="1.83863">
        <ele>1304.179</ele>
        <time>2019-04-08T00:00:33Z</time>
      </trkpt>
      <trkpt lat="42.28014" lon="1.83859">
        <ele>1305.124</ele>
        <time>2019-04-08T00:00:34Z</time>
      </trkpt>
      <trkpt lat="42.28014" lon="1.83858">
        <ele>1305.865</ele>
        <time>2019-04-08T00:00:34Z</time>
      </trkpt>
      <trkpt lat="42.28014" lon="1.83854">
        <ele>1306.885</ele>
        <time>2019-04-08T00:00:36Z</time>
      </trkpt>
      <trkpt lat="42.28014" lon="1.83853">
        <ele>1307.089</ele>
        <time>2019-04-08T00:00:36Z</time>
      </trkpt>
      <trkpt lat="42.28013" lon="1.83851">
        <ele>1307.918</ele>
        <time>2019-04-08T00:00:37Z</time>
      </trkpt>
      <trkpt lat="42.28012" lon="1.83849">
        <ele>1308.93</ele>
        <time>2019-04-08T00:00:37Z</time>
      </trkpt>
      <trkpt lat="42.28011" lon="1.83848">
        <ele>1310.084</ele>
        <time>2019-04-08T00:00:38Z</time>
      </trkpt>
      <trkpt lat="42.2801" lon="1.83847">
        <ele>1310.507</ele>
        <time>2019-04-08T00:00:38Z</time>
      </trkpt>
      <trkpt lat="42.2801" lon="1.83845">
        <ele>1311.017</ele>
        <time>2019-04-08T00:00:39Z</time>
      </trkpt>
      <trkpt lat="42.28011" lon="1.83844">
        <ele>1311.508</ele>
        <time>2019-04-08T00:00:39Z</time>
      </trkpt>
      <trkpt lat="42.28016" lon="1.8384">
        <ele>1312.961</ele>
        <time>2019-04-08T00:00:42Z</time>
      </trkpt>
      <trkpt lat="42.28017" lon="1.83838">
        <ele>1313.223</ele>
        <time>2019-04-08T00:00:42Z</time>
      </trkpt>
      <trkpt lat="42.28018" lon="1.83835">
        <ele>1313.898</ele>
        <time>2019-04-08T00:00:43Z</time>
      </trkpt>
      <trkpt lat="42.28019" lon="1.83833">
        <ele>1314.189</ele>
        <time>2019-04-08T00:00:44Z</time>
      </trkpt>
      <trkpt lat="42.2802" lon="1.8383">
        <ele>1314.979</ele>
        <time>2019-04-08T00:00:45Z</time>
      </trkpt>
      <trkpt lat="42.28021" lon="1.83829">
        <ele>1315.353</ele>
        <time>2019-04-08T00:00:45Z</time>
      </trkpt>
      <trkpt lat="42.28021" lon="1.83826">
        <ele>1315.982</ele>
        <time>2019-04-08T00:00:46Z</time>
      </trkpt>
      <trkpt lat="42.28021" lon="1.83825">
        <ele>1316.154</ele>
        <time>2019-04-08T00:00:47Z</time>
      </trkpt>
      <trkpt lat="42.28022" lon="1.83823">
        <ele>1316.536</ele>
        <time>2019-04-08T00:00:47Z</time>
      </trkpt>
      <trkpt lat="42.28021" lon="1.83821">
        <ele>1317.217</ele>
        <time>2019-04-08T00:00:48Z</time>
      </trkpt>
      <trkpt lat="42.28022" lon="1.8382">
        <ele>1318.518</ele>
        <time>2019-04-08T00:00:48Z</time>
      </trkpt>
      <trkpt lat="42.28023" lon="1.83819">
        <ele>1318.508</ele>
        <time>2019-04-08T00:00:48Z</time>
      </trkpt>
      <trkpt lat="42.28024" lon="1.83817">
        <ele>1319.556</ele>
        <time>2019-04-08T00:00:49Z</time>
      </trkpt>
      <trkpt lat="42.28025" lon="1.83816">
        <ele>1320.048</ele>
        <time>2019-04-08T00:00:50Z</time>
      </trkpt>
      <trkpt lat="42.28026" lon="1.83814">
        <ele>1320.573</ele>
        <time>2019-04-08T00:00:50Z</time>
      </trkpt>
      <trkpt lat="42.28028" lon="1.83809">
        <ele>1321.424</ele>
        <time>2019-04-08T00:00:52Z</time>
      </trkpt>
      <trkpt lat="42.28028" lon="1.83807">
        <ele>1321.984</ele>
        <time>2019-04-08T00:00:53Z</time>
      </trkpt>
      <trkpt lat="42.28029" lon="1.83805">
        <ele>1322.478</ele>
        <time>2019-04-08T00:00:53Z</time>
      </trkpt>
      <trkpt lat="42.2803" lon="1.83804">
        <ele>1322.947</ele>
        <time>2019-04-08T00:00:54Z</time>
      </trkpt>
      <trkpt lat="42.28031" lon="1.83799">
        <ele>1324.389</ele>
        <time>2019-04-08T00:00:55Z</time>
      </trkpt>
      <trkpt lat="42.28032" lon="1.83796">
        <ele>1325.648</ele>
        <time>2019-04-08T00:00:56Z</time>
      </trkpt>
      <trkpt lat="42.28033" lon="1.83794">
        <ele>1326.361</ele>
        <time>2019-04-08T00:00:57Z</time>
      </trkpt>
      <trkpt lat="42.28034" lon="1.83792">
        <ele>1326.817</ele>
        <time>2019-04-08T00:00:58Z</time>
      </trkpt>
      <trkpt lat="42.28036" lon="1.83788">
        <ele>1327.908</ele>
        <time>2019-04-08T00:00:59Z</time>
      </trkpt>
      <trkpt lat="42.28038" lon="1.83786">
        <ele>1329.127</ele>
        <time>2019-04-08T00:01:00Z</time>
      </trkpt>
      <trkpt lat="42.28039" lon="1.83785">
        <ele>1329.579</ele>
        <time>2019-04-08T00:01:01Z</time>
      </trkpt>
      <trkpt lat="42.28039" lon="1.83784">
        <ele>1329.694</ele>
        <time>2019-04-08T00:01:01Z</time>
      </trkpt>
      <trkpt lat="42.28041" lon="1.83782">
        <ele>1330.065</ele>
        <time>2019-04-08T00:01:02Z</time>
      </trkpt>
      <trkpt lat="42.28041" lon="1.8378">
        <ele>1330.265</ele>
        <time>2019-04-08T00:01:02Z</time>
      </trkpt>
      <trkpt lat="42.28042" lon="1.83778">
        <ele>1331.129</ele>
        <time>2019-04-08T00:01:03Z</time>
      </trkpt>
      <trkpt lat="42.28043" lon="1.83776">
        <ele>1331.618</ele>
        <time>2019-04-08T00:01:04Z</time>
      </trkpt>
      <trkpt lat="42.28045" lon="1.83771">
        <ele>1332.24</ele>
        <time>2019-04-08T00:01:05Z</time>
      </trkpt>
      <trkpt lat="42.28046" lon="1.8377">
        <ele>1332.651</ele>
        <time>2019-04-08T00:01:06Z</time>
      </trkpt>
      <trkpt lat="42.28047" lon="1.83769">
        <ele>1332.801</ele>
        <time>2019-04-08T00:01:06Z</time>
      </trkpt>
      <trkpt lat="42.28049" lon="1.83766">
        <ele>1333.911</ele>
        <time>2019-04-08T00:01:08Z</time>
      </trkpt>
      <trkpt lat="42.28049" lon="1.83764">
        <ele>1334.008</ele>
        <time>2019-04-08T00:01:08Z</time>
      </trkpt>
      <trkpt lat="42.2805" lon="1.83762">
        <ele>1334.668</ele>
        <time>2019-04-08T00:01:09Z</time>
      </trkpt>
      <trkpt lat="42.28051" lon="1.83759">
        <ele>1335.69</ele>
        <time>2019-04-08T00:01:10Z</time>
      </trkpt>
      <trkpt lat="42.28051" lon="1.83758">
        <ele>1335.985</ele>
        <time>2019-04-08T00:01:10Z</time>
      </trkpt>
      <trkpt lat="42.28051" lon="1.83757">
        <ele>1336.526</ele>
        <time>2019-04-08T00:01:11Z</time>
      </trkpt>
      <trkpt lat="42.28051" lon="1.83756">
        <ele>1336.646</ele>
        <time>2019-04-08T00:01:11Z</time>
      </trkpt>
      <trkpt lat="42.28051" lon="1.83754">
        <ele>1337.25</ele>
        <time>2019-04-08T00:01:11Z</time>
      </trkpt>
      <trkpt lat="42.28051" lon="1.83753">
        <ele>1337.679</ele>
        <time>2019-04-08T00:01:12Z</time>
      </trkpt>
      <trkpt lat="42.28052" lon="1.83751">
        <ele>1338.971</ele>
        <time>2019-04-08T00:01:12Z</time>
      </trkpt>
      <trkpt lat="42.28052" lon="1.83747">
        <ele>1340.095</ele>
        <time>2019-04-08T00:01:14Z</time>
      </trkpt>
      <trkpt lat="42.28053" lon="1.83745">
        <ele>1340.149</ele>
        <time>2019-04-08T00:01:14Z</time>
      </trkpt>
      <trkpt lat="42.28054" lon="1.83744">
        <ele>1340.523</ele>
        <time>2019-04-08T00:01:15Z</time>
      </trkpt>
      <trkpt lat="42.28055" lon="1.83743">
        <ele>1341.108</ele>
        <time>2019-04-08T00:01:15Z</time>
      </trkpt>
      <trkpt lat="42.28059" lon="1.83739">
        <ele>1342.382</ele>
        <time>2019-04-08T00:01:17Z</time>
      </trkpt>
      <trkpt lat="42.28061" lon="1.83736">
        <ele>1343.114</ele>
        <time>2019-04-08T00:01:18Z</time>
      </trkpt>
      <trkpt lat="42.28062" lon="1.83734">
        <ele>1343.189</ele>
        <time>2019-04-08T00:01:19Z</time>
      </trkpt>
      <trkpt lat="42.28064" lon="1.83732">
        <ele>1343.65</ele>
        <time>2019-04-08T00:01:20Z</time>
      </trkpt>
      <trkpt lat="42.28064" lon="1.8373">
        <ele>1344.17</ele>
        <time>2019-04-08T00:01:20Z</time>
      </trkpt>
      <trkpt lat="42.28065" lon="1.83724">
        <ele>1345.164</ele>
        <time>2019-04-08T00:01:22Z</time>
      </trkpt>
      <trkpt lat="42.28065" lon="1.83722">
        <ele>1345.253</ele>
        <time>2019-04-08T00:01:23Z</time>
      </trkpt>
      <trkpt lat="42.28065" lon="1.83717">
        <ele>1346.155</ele>
        <time>2019-04-08T00:01:24Z</time>
      </trkpt>
      <trkpt lat="42.28067" lon="1.83713">
        <ele>1347.683</ele>
        <time>2019-04-08T00:01:26Z</time>
      </trkpt>
      <trkpt lat="42.28067" lon="1.83713">
        <ele>1347.925</ele>
        <time>2019-04-08T00:01:26Z</time>
      </trkpt>
      <trkpt lat="42.28068" lon="1.83712">
        <ele>1348.517</ele>
        <time>2019-04-08T00:01:26Z</time>
      </trkpt>
      <trkpt lat="42.28069" lon="1.8371">
        <ele>1349.508</ele>
        <time>2019-04-08T00:01:27Z</time>
      </trkpt>
      <trkpt lat="42.28071" lon="1.83706">
        <ele>1350.611</ele>
        <time>2019-04-08T00:01:28Z</time>
      </trkpt>
      <trkpt lat="42.28071" lon="1.83705">
        <ele>1350.823</ele>
        <time>2019-04-08T00:01:29Z</time>
      </trkpt>
      <trkpt lat="42.28073" lon="1.83702">
        <ele>1352.118</ele>
        <time>2019-04-08T00:01:30Z</time>
      </trkpt>
      <trkpt lat="42.28073" lon="1.83701">
        <ele>1352.499</ele>
        <time>2019-04-08T00:01:30Z</time>
      </trkpt>
      <trkpt lat="42.28072" lon="1.83701">
        <ele>1353.189</ele>
        <time>2019-04-08T00:01:30Z</time>
      </trkpt>
      <trkpt lat="42.28072" lon="1.83701">
        <ele>1354.113</ele>
        <time>2019-04-08T00:01:30Z</time>
      </trkpt>
      <trkpt lat="42.28072" lon="1.837">
        <ele>1354.672</ele>
        <time>2019-04-08T00:01:30Z</time>
      </trkpt>
      <trkpt lat="42.28073" lon="1.83699">
        <ele>1355.174</ele>
        <time>2019-04-08T00:01:31Z</time>
      </trkpt>
      <trkpt lat="42.28073" lon="1.83697">
        <ele>1355.743</ele>
        <time>2019-04-08T00:01:31Z</time>
      </trkpt>
      <trkpt lat="42.28073" lon="1.83692">
        <ele>1356.164</ele>
        <time>2019-04-08T00:01:33Z</time>
      </trkpt>
      <trkpt lat="42.28073" lon="1.8369">
        <ele>1356.81</ele>
        <time>2019-04-08T00:01:34Z</time>
      </trkpt>
      <trkpt lat="42.28073" lon="1.83686">
        <ele>1357.408</ele>
        <time>2019-04-08T00:01:35Z</time>
      </trkpt>
      <trkpt lat="42.28073" lon="1.8368">
        <ele>1359.247</ele>
        <time>2019-04-08T00:01:36Z</time>
      </trkpt>
      <trkpt lat="42.28074" lon="1.83677">
        <ele>1359.999</ele>
        <time>2019-04-08T00:01:37Z</time>
      </trkpt>
      <trkpt lat="42.28074" lon="1.83676">
        <ele>1360.234</ele>
        <time>2019-04-08T00:01:38Z</time>
      </trkpt>
      <trkpt lat="42.28075" lon="1.83674">
        <ele>1361.545</ele>
        <time>2019-04-08T00:01:38Z</time>
      </trkpt>
      <trkpt lat="42.28077" lon="1.83673">
        <ele>1362.165</ele>
        <time>2019-04-08T00:01:39Z</time>
      </trkpt>
      <trkpt lat="42.28078" lon="1.83672">
        <ele>1362.439</ele>
        <time>2019-04-08T00:01:39Z</time>
      </trkpt>
      <trkpt lat="42.28078" lon="1.83672">
        <ele>1362.578</ele>
        <time>2019-04-08T00:01:40Z</time>
      </trkpt>
      <trkpt lat="42.2808" lon="1.8367">
        <ele>1363.68</ele>
        <time>2019-04-08T00:01:41Z</time>
      </trkpt>
      <trkpt lat="42.2808" lon="1.83667">
        <ele>1364.644</ele>
        <time>2019-04-08T00:01:41Z</time>
      </trkpt>
      <trkpt lat="42.2808" lon="1.83666">
        <ele>1365.105</ele>
        <time>2019-04-08T00:01:42Z</time>
      </trkpt>
      <trkpt lat="42.2808" lon="1.83665">
        <ele>1365.515</ele>
        <time>2019-04-08T00:01:42Z</time>
      </trkpt>
      <trkpt lat="42.28081" lon="1.83664">
        <ele>1366.108</ele>
        <time>2019-04-08T00:01:42Z</time>
      </trkpt>
      <trkpt lat="42.28082" lon="1.83664">
        <ele>1366.637</ele>
        <time>2019-04-08T00:01:43Z</time>
      </trkpt>
      <trkpt lat="42.28084" lon="1.83662">
        <ele>1367.689</ele>
        <time>2019-04-08T00:01:44Z</time>
      </trkpt>
      <trkpt lat="42.28085" lon="1.83661">
        <ele>1367.834</ele>
        <time>2019-04-08T00:01:44Z</time>
      </trkpt>
      <trkpt lat="42.28088" lon="1.83658">
        <ele>1368.895</ele>
        <time>2019-04-08T00:01:46Z</time>
      </trkpt>
      <trkpt lat="42.28089" lon="1.83657">
        <ele>1369.175</ele>
        <time>2019-04-08T00:01:46Z</time>
      </trkpt>
      <trkpt lat="42.2809" lon="1.83654">
        <ele>1369.869</ele>
        <time>2019-04-08T00:01:47Z</time>
      </trkpt>
      <trkpt lat="42.28091" lon="1.83652">
        <ele>1370.218</ele>
        <time>2019-04-08T00:01:48Z</time>
      </trkpt>
      <trkpt lat="42.28092" lon="1.8365">
        <ele>1370.88</ele>
        <time>2019-04-08T00:01:49Z</time>
      </trkpt>
      <trkpt lat="42.28092" lon="1.83647">
        <ele>1372.032</ele>
        <time>2019-04-08T00:01:50Z</time>
      </trkpt>
      <trkpt lat="42.28092" lon="1.83644">
        <ele>1372.992</ele>
        <time>2019-04-08T00:01:51Z</time>
      </trkpt>
      <trkpt lat="42.28093" lon="1.83643">
        <ele>1373.211</ele>
        <time>2019-04-08T00:01:51Z</time>
      </trkpt>
      <trkpt lat="42.28094" lon="1.83642">
        <ele>1373.508</ele>
        <time>2019-04-08T00:01:51Z</time>
      </trkpt>
      <trkpt lat="42.28095" lon="1.83638">
        <ele>1374.226</ele>
        <time>2019-04-08T00:01:53Z</time>
      </trkpt>
      <trkpt lat="42.28094" lon="1.83634">
        <ele>1375.138</ele>
        <time>2019-04-08T00:01:54Z</time>
      </trkpt>
      <trkpt lat="42.28094" lon="1.83632">
        <ele>1375.493</ele>
        <time>2019-04-08T00:01:54Z</time>
      </trkpt>
      <trkpt lat="42.28094" lon="1.83627">
        <ele>1376.554</ele>
        <time>2019-04-08T00:01:56Z</time>
      </trkpt>
      <trkpt lat="42.28095" lon="1.83621">
        <ele>1377.584</ele>
        <time>2019-04-08T00:01:58Z</time>
      </trkpt>
      <trkpt lat="42.28096" lon="1.8362">
        <ele>1377.638</ele>
        <time>2019-04-08T00:01:58Z</time>
      </trkpt>
      <trkpt lat="42.28098" lon="1.83614">
        <ele>1378.927</ele>
        <time>2019-04-08T00:02:00Z</time>
      </trkpt>
      <trkpt lat="42.28098" lon="1.8361">
        <ele>1379.549</ele>
        <time>2019-04-08T00:02:01Z</time>
      </trkpt>
      <trkpt lat="42.281" lon="1.83606">
        <ele>1380.126</ele>
        <time>2019-04-08T00:02:03Z</time>
      </trkpt>
      <trkpt lat="42.28101" lon="1.83601">
        <ele>1381.247</ele>
        <time>2019-04-08T00:02:04Z</time>
      </trkpt>
      <trkpt lat="42.28102" lon="1.83599">
        <ele>1381.911</ele>
        <time>2019-04-08T00:02:05Z</time>
      </trkpt>
      <trkpt lat="42.28102" lon="1.83597">
        <ele>1382.508</ele>
        <time>2019-04-08T00:02:05Z</time>
      </trkpt>
      <trkpt lat="42.28101" lon="1.8359">
        <ele>1383.645</ele>
        <time>2019-04-08T00:02:08Z</time>
      </trkpt>
      <trkpt lat="42.28101" lon="1.83586">
        <ele>1384.927</ele>
        <time>2019-04-08T00:02:09Z</time>
      </trkpt>
      <trkpt lat="42.28102" lon="1.83579">
        <ele>1386.282</ele>
        <time>2019-04-08T00:02:11Z</time>
      </trkpt>
      <trkpt lat="42.28102" lon="1.83574">
        <ele>1387.183</ele>
        <time>2019-04-08T00:02:12Z</time>
      </trkpt>
      <trkpt lat="42.28102" lon="1.83573">
        <ele>1387.933</ele>
        <time>2019-04-08T00:02:13Z</time>
      </trkpt>
      <trkpt lat="42.28101" lon="1.8357">
        <ele>1388.627</ele>
        <time>2019-04-08T00:02:13Z</time>
      </trkpt>
      <trkpt lat="42.28101" lon="1.83568">
        <ele>1389.676</ele>
        <time>2019-04-08T00:02:14Z</time>
      </trkpt>
      <trkpt lat="42.28101" lon="1.83567">
        <ele>1390.118</ele>
        <time>2019-04-08T00:02:14Z</time>
      </trkpt>
      <trkpt lat="42.281" lon="1.83565">
        <ele>1391.345</ele>
        <time>2019-04-08T00:02:15Z</time>
      </trkpt>
      <trkpt lat="42.281" lon="1.83564">
        <ele>1391.847</ele>
        <time>2019-04-08T00:02:15Z</time>
      </trkpt>
      <trkpt lat="42.28098" lon="1.83562">
        <ele>1392.511</ele>
        <time>2019-04-08T00:02:16Z</time>
      </trkpt>
      <trkpt lat="42.28097" lon="1.83562">
        <ele>1392.908</ele>
        <time>2019-04-08T00:02:17Z</time>
      </trkpt>
      <trkpt lat="42.28096" lon="1.83561">
        <ele>1393.627</ele>
        <time>2019-04-08T00:02:17Z</time>
      </trkpt>
      <trkpt lat="42.28096" lon="1.83561">
        <ele>1394.069</ele>
        <time>2019-04-08T00:02:17Z</time>
      </trkpt>
      <trkpt lat="42.28095" lon="1.8356">
        <ele>1394.934</ele>
        <time>2019-04-08T00:02:18Z</time>
      </trkpt>
      <trkpt lat="42.28094" lon="1.83557">
        <ele>1396.135</ele>
        <time>2019-04-08T00:02:19Z</time>
      </trkpt>
      <trkpt lat="42.28094" lon="1.83553">
        <ele>1397.565</ele>
        <time>2019-04-08T00:02:20Z</time>
      </trkpt>
      <trkpt lat="42.28094" lon="1.83551">
        <ele>1397.819</ele>
        <time>2019-04-08T00:02:20Z</time>
      </trkpt>
      <trkpt lat="42.28093" lon="1.83548">
        <ele>1398.998</ele>
        <time>2019-04-08T00:02:21Z</time>
      </trkpt>
      <trkpt lat="42.28093" lon="1.83546">
        <ele>1400.67</ele>
        <time>2019-04-08T00:02:22Z</time>
      </trkpt>
      <trkpt lat="42.28093" lon="1.83546">
        <ele>1400.855</ele>
        <time>2019-04-08T00:02:22Z</time>
      </trkpt>
      <trkpt lat="42.28092" lon="1.83546">
        <ele>1401.307</ele>
        <time>2019-04-08T00:02:22Z</time>
      </trkpt>
      <trkpt lat="42.28092" lon="1.83546">
        <ele>1401.417</ele>
        <time>2019-04-08T00:02:22Z</time>
      </trkpt>
      <trkpt lat="42.28091" lon="1.83544">
        <ele>1402.508</ele>
        <time>2019-04-08T00:02:23Z</time>
      </trkpt>
      <trkpt lat="42.28091" lon="1.83544">
        <ele>1402.928</ele>
        <time>2019-04-08T00:02:23Z</time>
      </trkpt>
      <trkpt lat="42.2809" lon="1.83543">
        <ele>1403.92</ele>
        <time>2019-04-08T00:02:23Z</time>
      </trkpt>
      <trkpt lat="42.28091" lon="1.83542">
        <ele>1405.065</ele>
        <time>2019-04-08T00:02:24Z</time>
      </trkpt>
      <trkpt lat="42.28091" lon="1.83541">
        <ele>1405.566</ele>
        <time>2019-04-08T00:02:24Z</time>
      </trkpt>
      <trkpt lat="42.28093" lon="1.83541">
        <ele>1406.156</ele>
        <time>2019-04-08T00:02:25Z</time>
      </trkpt>
      <trkpt lat="42.28094" lon="1.8354">
        <ele>1406.53</ele>
        <time>2019-04-08T00:02:25Z</time>
      </trkpt>
      <trkpt lat="42.28095" lon="1.8354">
        <ele>1407.199</ele>
        <time>2019-04-08T00:02:26Z</time>
      </trkpt>
      <trkpt lat="42.28095" lon="1.8354">
        <ele>1407.281</ele>
        <time>2019-04-08T00:02:26Z</time>
      </trkpt>
      <trkpt lat="42.28097" lon="1.8354">
        <ele>1408.196</ele>
        <time>2019-04-08T00:02:26Z</time>
      </trkpt>
      <trkpt lat="42.28098" lon="1.8354">
        <ele>1408.631</ele>
        <time>2019-04-08T00:02:27Z</time>
      </trkpt>
      <trkpt lat="42.281" lon="1.83537">
        <ele>1410.024</ele>
        <time>2019-04-08T00:02:28Z</time>
      </trkpt>
      <trkpt lat="42.281" lon="1.83536">
        <ele>1410.208</ele>
        <time>2019-04-08T00:02:28Z</time>
      </trkpt>
      <trkpt lat="42.28102" lon="1.83534">
        <ele>1411.112</ele>
        <time>2019-04-08T00:02:29Z</time>
      </trkpt>
      <trkpt lat="42.28104" lon="1.83532">
        <ele>1411.974</ele>
        <time>2019-04-08T00:02:30Z</time>
      </trkpt>
      <trkpt lat="42.28106" lon="1.83531">
        <ele>1412.629</ele>
        <time>2019-04-08T00:02:31Z</time>
      </trkpt>
      <trkpt lat="42.28113" lon="1.83528">
        <ele>1413.82</ele>
        <time>2019-04-08T00:02:34Z</time>
      </trkpt>
      <trkpt lat="42.28115" lon="1.83527">
        <ele>1414.26</ele>
        <time>2019-04-08T00:02:35Z</time>
      </trkpt>
      <trkpt lat="42.28118" lon="1.83527">
        <ele>1415.154</ele>
        <time>2019-04-08T00:02:36Z</time>
      </trkpt>
      <trkpt lat="42.28123" lon="1.83525">
        <ele>1416.223</ele>
        <time>2019-04-08T00:02:38Z</time>
      </trkpt>
      <trkpt lat="42.28124" lon="1.83524">
        <ele>1416.665</ele>
        <time>2019-04-08T00:02:39Z</time>
      </trkpt>
      <trkpt lat="42.28127" lon="1.83522">
        <ele>1416.945</ele>
        <time>2019-04-08T00:02:40Z</time>
      </trkpt>
      <trkpt lat="42.28129" lon="1.83521">
        <ele>1417.247</ele>
        <time>2019-04-08T00:02:41Z</time>
      </trkpt>
      <trkpt lat="42.2813" lon="1.8352">
        <ele>1417.611</ele>
        <time>2019-04-08T00:02:41Z</time>
      </trkpt>
      <trkpt lat="42.28134" lon="1.83516">
        <ele>1418.508</ele>
        <time>2019-04-08T00:02:43Z</time>
      </trkpt>
      <trkpt lat="42.28135" lon="1.83515">
        <ele>1418.957</ele>
        <time>2019-04-08T00:02:44Z</time>
      </trkpt>
      <trkpt lat="42.28137" lon="1.83514">
        <ele>1419.219</ele>
        <time>2019-04-08T00:02:44Z</time>
      </trkpt>
      <trkpt lat="42.2814" lon="1.83512">
        <ele>1420.124</ele>
        <time>2019-04-08T00:02:46Z</time>
      </trkpt>
      <trkpt lat="42.28141" lon="1.83512">
        <ele>1420.555</ele>
        <time>2019-04-08T00:02:46Z</time>
      </trkpt>
      <trkpt lat="42.28143" lon="1.83509">
        <ele>1421.095</ele>
        <time>2019-04-08T00:02:47Z</time>
      </trkpt>
      <trkpt lat="42.28144" lon="1.83508">
        <ele>1421.359</ele>
        <time>2019-04-08T00:02:48Z</time>
      </trkpt>
      <trkpt lat="42.28146" lon="1.83505">
        <ele>1422.598</ele>
        <time>2019-04-08T00:02:49Z</time>
      </trkpt>
      <trkpt lat="42.28147" lon="1.83501">
        <ele>1423.94</ele>
        <time>2019-04-08T00:02:50Z</time>
      </trkpt>
      <trkpt lat="42.28147" lon="1.83498">
        <ele>1424.825</ele>
        <time>2019-04-08T00:02:51Z</time>
      </trkpt>
      <trkpt lat="42.28148" lon="1.83495">
        <ele>1425.426</ele>
        <time>2019-04-08T00:02:52Z</time>
      </trkpt>
      <trkpt lat="42.28148" lon="1.83493">
        <ele>1425.508</ele>
        <time>2019-04-08T00:02:53Z</time>
      </trkpt>
      <trkpt lat="42.28149" lon="1.83492">
        <ele>1426.008</ele>
        <time>2019-04-08T00:02:53Z</time>
      </trkpt>
      <trkpt lat="42.28151" lon="1.83488">
        <ele>1427.565</ele>
        <time>2019-04-08T00:02:55Z</time>
      </trkpt>
      <trkpt lat="42.28152" lon="1.83486">
        <ele>1428.517</ele>
        <time>2019-04-08T00:02:55Z</time>
      </trkpt>
      <trkpt lat="42.28153" lon="1.83485">
        <ele>1429.272</ele>
        <time>2019-04-08T00:02:56Z</time>
      </trkpt>
      <trkpt lat="42.28153" lon="1.83484">
        <ele>1429.873</ele>
        <time>2019-04-08T00:02:56Z</time>
      </trkpt>
      <trkpt lat="42.28156" lon="1.83482">
        <ele>1431.063</ele>
        <time>2019-04-08T00:02:57Z</time>
      </trkpt>
      <trkpt lat="42.28157" lon="1.8348">
        <ele>1431.557</ele>
        <time>2019-04-08T00:02:58Z</time>
      </trkpt>
      <trkpt lat="42.28157" lon="1.83479">
        <ele>1432.176</ele>
        <time>2019-04-08T00:02:58Z</time>
      </trkpt>
      <trkpt lat="42.28159" lon="1.83476">
        <ele>1432.848</ele>
        <time>2019-04-08T00:03:00Z</time>
      </trkpt>
      <trkpt lat="42.28162" lon="1.83474">
        <ele>1433.598</ele>
        <time>2019-04-08T00:03:01Z</time>
      </trkpt>
      <trkpt lat="42.28163" lon="1.83473">
        <ele>1433.615</ele>
        <time>2019-04-08T00:03:01Z</time>
      </trkpt>
      <trkpt lat="42.28164" lon="1.83471">
        <ele>1434.526</ele>
        <time>2019-04-08T00:03:02Z</time>
      </trkpt>
      <trkpt lat="42.28165" lon="1.83471">
        <ele>1434.508</ele>
        <time>2019-04-08T00:03:02Z</time>
      </trkpt>
      <trkpt lat="42.28169" lon="1.83468">
        <ele>1436.032</ele>
        <time>2019-04-08T00:03:04Z</time>
      </trkpt>
      <trkpt lat="42.2817" lon="1.83468">
        <ele>1436.114</ele>
        <time>2019-04-08T00:03:04Z</time>
      </trkpt>
      <trkpt lat="42.28171" lon="1.83468">
        <ele>1436.489</ele>
        <time>2019-04-08T00:03:05Z</time>
      </trkpt>
      <trkpt lat="42.28172" lon="1.83468">
        <ele>1436.89</ele>
        <time>2019-04-08T00:03:05Z</time>
      </trkpt>
      <trkpt lat="42.28177" lon="1.8347">
        <ele>1438.19</ele>
        <time>2019-04-08T00:03:07Z</time>
      </trkpt>
      <trkpt lat="42.28178" lon="1.83471">
        <ele>1438.584</ele>
        <time>2019-04-08T00:03:08Z</time>
      </trkpt>
      <trkpt lat="42.2818" lon="1.83471">
        <ele>1438.833</ele>
        <time>2019-04-08T00:03:09Z</time>
      </trkpt>
      <trkpt lat="42.28183" lon="1.83472">
        <ele>1439.375</ele>
        <time>2019-04-08T00:03:10Z</time>
      </trkpt>
      <trkpt lat="42.28185" lon="1.83472">
        <ele>1439.677</ele>
        <time>2019-04-08T00:03:11Z</time>
      </trkpt>
      <trkpt lat="42.28187" lon="1.8347">
        <ele>1440.461</ele>
        <time>2019-04-08T00:03:12Z</time>
      </trkpt>
      <trkpt lat="42.28188" lon="1.8347">
        <ele>1440.627</ele>
        <time>2019-04-08T00:03:12Z</time>
      </trkpt>
      <trkpt lat="42.2819" lon="1.83468">
        <ele>1441.208</ele>
        <time>2019-04-08T00:03:13Z</time>
      </trkpt>
      <trkpt lat="42.2819" lon="1.83468">
        <ele>1441.76</ele>
        <time>2019-04-08T00:03:13Z</time>
      </trkpt>
      <trkpt lat="42.2819" lon="1.83469">
        <ele>1442.252</ele>
        <time>2019-04-08T00:03:13Z</time>
      </trkpt>
      <trkpt lat="42.28192" lon="1.83469">
        <ele>1442.547</ele>
        <time>2019-04-08T00:03:14Z</time>
      </trkpt>
      <trkpt lat="42.28195" lon="1.83471">
        <ele>1443.178</ele>
        <time>2019-04-08T00:03:15Z</time>
      </trkpt>
      <trkpt lat="42.28197" lon="1.83472">
        <ele>1443.998</ele>
        <time>2019-04-08T00:03:16Z</time>
      </trkpt>
      <trkpt lat="42.28198" lon="1.83473">
        <ele>1444.122</ele>
        <time>2019-04-08T00:03:16Z</time>
      </trkpt>
      <trkpt lat="42.28199" lon="1.83474">
        <ele>1444.641</ele>
        <time>2019-04-08T00:03:17Z</time>
      </trkpt>
      <trkpt lat="42.282" lon="1.83475">
        <ele>1444.723</ele>
        <time>2019-04-08T00:03:17Z</time>
      </trkpt>
      <trkpt lat="42.282" lon="1.83475">
        <ele>1444.699</ele>
        <time>2019-04-08T00:03:17Z</time>
      </trkpt>
      <trkpt lat="42.282" lon="1.83476">
        <ele>1444.607</ele>
        <time>2019-04-08T00:03:18Z</time>
      </trkpt>
      <trkpt lat="42.28201" lon="1.83479">
        <ele>1445.127</ele>
        <time>2019-04-08T00:03:19Z</time>
      </trkpt>
      <trkpt lat="42.28201" lon="1.83481">
        <ele>1445.408</ele>
        <time>2019-04-08T00:03:19Z</time>
      </trkpt>
      <trkpt lat="42.28201" lon="1.83483">
        <ele>1445.682</ele>
        <time>2019-04-08T00:03:20Z</time>
      </trkpt>
      <trkpt lat="42.28202" lon="1.83484">
        <ele>1446.154</ele>
        <time>2019-04-08T00:03:20Z</time>
      </trkpt>
      <trkpt lat="42.28205" lon="1.8349">
        <ele>1447.139</ele>
        <time>2019-04-08T00:03:22Z</time>
      </trkpt>
      <trkpt lat="42.28208" lon="1.83492">
        <ele>1448.11</ele>
        <time>2019-04-08T00:03:24Z</time>
      </trkpt>
      <trkpt lat="42.28211" lon="1.83493">
        <ele>1448.59</ele>
        <time>2019-04-08T00:03:25Z</time>
      </trkpt>
      <trkpt lat="42.28214" lon="1.83493">
        <ele>1449.294</ele>
        <time>2019-04-08T00:03:26Z</time>
      </trkpt>
      <trkpt lat="42.28215" lon="1.83493">
        <ele>1449.553</ele>
        <time>2019-04-08T00:03:27Z</time>
      </trkpt>
      <trkpt lat="42.28217" lon="1.83493">
        <ele>1449.995</ele>
        <time>2019-04-08T00:03:27Z</time>
      </trkpt>
      <trkpt lat="42.28219" lon="1.83492">
        <ele>1450.762</ele>
        <time>2019-04-08T00:03:28Z</time>
      </trkpt>
      <trkpt lat="42.28222" lon="1.83491">
        <ele>1451.583</ele>
        <time>2019-04-08T00:03:29Z</time>
      </trkpt>
      <trkpt lat="42.28224" lon="1.83491">
        <ele>1452.011</ele>
        <time>2019-04-08T00:03:30Z</time>
      </trkpt>
      <trkpt lat="42.28227" lon="1.83491">
        <ele>1452.808</ele>
        <time>2019-04-08T00:03:31Z</time>
      </trkpt>
      <trkpt lat="42.28229" lon="1.83491">
        <ele>1453.279</ele>
        <time>2019-04-08T00:03:32Z</time>
      </trkpt>
      <trkpt lat="42.2823" lon="1.83491">
        <ele>1453.511</ele>
        <time>2019-04-08T00:03:33Z</time>
      </trkpt>
      <trkpt lat="42.28234" lon="1.83491">
        <ele>1454.426</ele>
        <time>2019-04-08T00:03:34Z</time>
      </trkpt>
      <trkpt lat="42.28235" lon="1.8349">
        <ele>1454.857</ele>
        <time>2019-04-08T00:03:34Z</time>
      </trkpt>
      <trkpt lat="42.28236" lon="1.83488">
        <ele>1455.267</ele>
        <time>2019-04-08T00:03:35Z</time>
      </trkpt>
      <trkpt lat="42.28236" lon="1.83487">
        <ele>1455.621</ele>
        <time>2019-04-08T00:03:36Z</time>
      </trkpt>
      <trkpt lat="42.28238" lon="1.83484">
        <ele>1457.04</ele>
        <time>2019-04-08T00:03:37Z</time>
      </trkpt>
      <trkpt lat="42.28239" lon="1.83484">
        <ele>1457.022</ele>
        <time>2019-04-08T00:03:37Z</time>
      </trkpt>
      <trkpt lat="42.2824" lon="1.83483">
        <ele>1457.266</ele>
        <time>2019-04-08T00:03:37Z</time>
      </trkpt>
      <trkpt lat="42.28241" lon="1.83483">
        <ele>1457.629</ele>
        <time>2019-04-08T00:03:38Z</time>
      </trkpt>
      <trkpt lat="42.28244" lon="1.83482">
        <ele>1457.821</ele>
        <time>2019-04-08T00:03:39Z</time>
      </trkpt>
      <trkpt lat="42.28246" lon="1.83481">
        <ele>1457.808</ele>
        <time>2019-04-08T00:03:40Z</time>
      </trkpt>
      <trkpt lat="42.28248" lon="1.8348">
        <ele>1457.989</ele>
        <time>2019-04-08T00:03:41Z</time>
      </trkpt>
      <trkpt lat="42.28249" lon="1.8348">
        <ele>1457.981</ele>
        <time>2019-04-08T00:03:41Z</time>
      </trkpt>
      <trkpt lat="42.2825" lon="1.83479">
        <ele>1458.126</ele>
        <time>2019-04-08T00:03:42Z</time>
      </trkpt>
      <trkpt lat="42.28251" lon="1.83478">
        <ele>1458.087</ele>
        <time>2019-04-08T00:03:42Z</time>
      </trkpt>
      <trkpt lat="42.28251" lon="1.83477">
        <ele>1458.297</ele>
        <time>2019-04-08T00:03:42Z</time>
      </trkpt>
      <trkpt lat="42.28252" lon="1.83477">
        <ele>1458.411</ele>
        <time>2019-04-08T00:03:43Z</time>
      </trkpt>
      <trkpt lat="42.28252" lon="1.83476">
        <ele>1458.77</ele>
        <time>2019-04-08T00:03:43Z</time>
      </trkpt>
      <trkpt lat="42.28253" lon="1.83474">
        <ele>1459.362</ele>
        <time>2019-04-08T00:03:44Z</time>
      </trkpt>
      <trkpt lat="42.28257" lon="1.8347">
        <ele>1460.629</ele>
        <time>2019-04-08T00:03:46Z</time>
      </trkpt>
      <trkpt lat="42.28259" lon="1.83468">
        <ele>1461</ele>
        <time>2019-04-08T00:03:46Z</time>
      </trkpt>
      <trkpt lat="42.2826" lon="1.83467">
        <ele>1461.22</ele>
        <time>2019-04-08T00:03:47Z</time>
      </trkpt>
      <trkpt lat="42.28263" lon="1.83463">
        <ele>1461.908</ele>
        <time>2019-04-08T00:03:49Z</time>
      </trkpt>
      <trkpt lat="42.28266" lon="1.83459">
        <ele>1462.755</ele>
        <time>2019-04-08T00:03:51Z</time>
      </trkpt>
      <trkpt lat="42.28271" lon="1.83457">
        <ele>1463.157</ele>
        <time>2019-04-08T00:03:53Z</time>
      </trkpt>
      <trkpt lat="42.28272" lon="1.83455">
        <ele>1463.592</ele>
        <time>2019-04-08T00:03:53Z</time>
      </trkpt>
      <trkpt lat="42.28271" lon="1.83456">
        <ele>1463.533</ele>
        <time>2019-04-08T00:03:54Z</time>
      </trkpt>
      <trkpt lat="42.28271" lon="1.83455">
        <ele>1464.283</ele>
        <time>2019-04-08T00:03:54Z</time>
      </trkpt>
      <trkpt lat="42.28273" lon="1.83452">
        <ele>1464.937</ele>
        <time>2019-04-08T00:03:55Z</time>
      </trkpt>
      <trkpt lat="42.28273" lon="1.8345">
        <ele>1465.186</ele>
        <time>2019-04-08T00:03:56Z</time>
      </trkpt>
      <trkpt lat="42.28276" lon="1.83448">
        <ele>1466.598</ele>
        <time>2019-04-08T00:03:57Z</time>
      </trkpt>
      <trkpt lat="42.28278" lon="1.83447">
        <ele>1467.199</ele>
        <time>2019-04-08T00:03:58Z</time>
      </trkpt>
      <trkpt lat="42.2828" lon="1.83446">
        <ele>1467.907</ele>
        <time>2019-04-08T00:03:59Z</time>
      </trkpt>
      <trkpt lat="42.28283" lon="1.83445">
        <ele>1468.127</ele>
        <time>2019-04-08T00:04:00Z</time>
      </trkpt>
      <trkpt lat="42.28285" lon="1.83444">
        <ele>1468.808</ele>
        <time>2019-04-08T00:04:01Z</time>
      </trkpt>
      <trkpt lat="42.28286" lon="1.83442">
        <ele>1469.192</ele>
        <time>2019-04-08T00:04:01Z</time>
      </trkpt>
      <trkpt lat="42.28286" lon="1.83441">
        <ele>1469.594</ele>
        <time>2019-04-08T00:04:02Z</time>
      </trkpt>
      <trkpt lat="42.28288" lon="1.83439">
        <ele>1469.629</ele>
        <time>2019-04-08T00:04:03Z</time>
      </trkpt>
      <trkpt lat="42.2829" lon="1.83434">
        <ele>1470.21</ele>
        <time>2019-04-08T00:04:04Z</time>
      </trkpt>
      <trkpt lat="42.2829" lon="1.83431">
        <ele>1470.47</ele>
        <time>2019-04-08T00:04:05Z</time>
      </trkpt>
      <trkpt lat="42.2829" lon="1.83424">
        <ele>1471.314</ele>
        <time>2019-04-08T00:04:07Z</time>
      </trkpt>
      <trkpt lat="42.2829" lon="1.83423">
        <ele>1471.753</ele>
        <time>2019-04-08T00:04:08Z</time>
      </trkpt>
      <trkpt lat="42.2829" lon="1.83419">
        <ele>1472.665</ele>
        <time>2019-04-08T00:04:09Z</time>
      </trkpt>
      <trkpt lat="42.28289" lon="1.83419">
        <ele>1472.739</ele>
        <time>2019-04-08T00:04:09Z</time>
      </trkpt>
      <trkpt lat="42.28288" lon="1.83417">
        <ele>1473.701</ele>
        <time>2019-04-08T00:04:10Z</time>
      </trkpt>
      <trkpt lat="42.28287" lon="1.83414">
        <ele>1474.421</ele>
        <time>2019-04-08T00:04:11Z</time>
      </trkpt>
      <trkpt lat="42.28287" lon="1.83412">
        <ele>1474.808</ele>
        <time>2019-04-08T00:04:11Z</time>
      </trkpt>
      <trkpt lat="42.28288" lon="1.83412">
        <ele>1475.036</ele>
        <time>2019-04-08T00:04:12Z</time>
      </trkpt>
      <trkpt lat="42.28292" lon="1.8341">
        <ele>1476.048</ele>
        <time>2019-04-08T00:04:13Z</time>
      </trkpt>
      <trkpt lat="42.28293" lon="1.83406">
        <ele>1477.073</ele>
        <time>2019-04-08T00:04:14Z</time>
      </trkpt>
      <trkpt lat="42.28295" lon="1.83405">
        <ele>1477.824</ele>
        <time>2019-04-08T00:04:15Z</time>
      </trkpt>
      <trkpt lat="42.28295" lon="1.83404">
        <ele>1478.384</ele>
        <time>2019-04-08T00:04:15Z</time>
      </trkpt>
      <trkpt lat="42.28295" lon="1.83401">
        <ele>1479.558</ele>
        <time>2019-04-08T00:04:16Z</time>
      </trkpt>
      <trkpt lat="42.28295" lon="1.83399">
        <ele>1480.647</ele>
        <time>2019-04-08T00:04:17Z</time>
      </trkpt>
      <trkpt lat="42.28295" lon="1.83398">
        <ele>1481.039</ele>
        <time>2019-04-08T00:04:17Z</time>
      </trkpt>
      <trkpt lat="42.28295" lon="1.83397">
        <ele>1481.218</ele>
        <time>2019-04-08T00:04:17Z</time>
      </trkpt>
      <trkpt lat="42.28296" lon="1.83395">
        <ele>1481.598</ele>
        <time>2019-04-08T00:04:18Z</time>
      </trkpt>
      <trkpt lat="42.28296" lon="1.83394">
        <ele>1481.617</ele>
        <time>2019-04-08T00:04:18Z</time>
      </trkpt>
      <trkpt lat="42.28297" lon="1.83392">
        <ele>1482.208</ele>
        <time>2019-04-08T00:04:19Z</time>
      </trkpt>
      <trkpt lat="42.28298" lon="1.83391">
        <ele>1482.594</ele>
        <time>2019-04-08T00:04:20Z</time>
      </trkpt>
      <trkpt lat="42.28299" lon="1.83388">
        <ele>1483.056</ele>
        <time>2019-04-08T00:04:20Z</time>
      </trkpt>
      <trkpt lat="42.28299" lon="1.83388">
        <ele>1483.131</ele>
        <time>2019-04-08T00:04:21Z</time>
      </trkpt>
      <trkpt lat="42.28299" lon="1.83387">
        <ele>1483.632</ele>
        <time>2019-04-08T00:04:21Z</time>
      </trkpt>
      <trkpt lat="42.28298" lon="1.83385">
        <ele>1484.292</ele>
        <time>2019-04-08T00:04:22Z</time>
      </trkpt>
      <trkpt lat="42.28298" lon="1.83385">
        <ele>1484.526</ele>
        <time>2019-04-08T00:04:22Z</time>
      </trkpt>
      <trkpt lat="42.28298" lon="1.83386">
        <ele>1485.015</ele>
        <time>2019-04-08T00:04:22Z</time>
      </trkpt>
      <trkpt lat="42.28297" lon="1.83386">
        <ele>1485.487</ele>
        <time>2019-04-08T00:04:22Z</time>
      </trkpt>
      <trkpt lat="42.28297" lon="1.83386">
        <ele>1486.073</ele>
        <time>2019-04-08T00:04:22Z</time>
      </trkpt>
      <trkpt lat="42.28298" lon="1.83381">
        <ele>1487.185</ele>
        <time>2019-04-08T00:04:24Z</time>
      </trkpt>
      <trkpt lat="42.28298" lon="1.83378">
        <ele>1487.513</ele>
        <time>2019-04-08T00:04:25Z</time>
      </trkpt>
      <trkpt lat="42.28298" lon="1.83377">
        <ele>1487.508</ele>
        <time>2019-04-08T00:04:25Z</time>
      </trkpt>
      <trkpt lat="42.28302" lon="1.83377">
        <ele>1488.11</ele>
        <time>2019-04-08T00:04:26Z</time>
      </trkpt>
      <trkpt lat="42.28303" lon="1.83377">
        <ele>1489.222</ele>
        <time>2019-04-08T00:04:27Z</time>
      </trkpt>
      <trkpt lat="42.28304" lon="1.83377">
        <ele>1489.477</ele>
        <time>2019-04-08T00:04:27Z</time>
      </trkpt>
      <trkpt lat="42.28304" lon="1.83375">
        <ele>1490.248</ele>
        <time>2019-04-08T00:04:28Z</time>
      </trkpt>
      <trkpt lat="42.28305" lon="1.83375">
        <ele>1490.558</ele>
        <time>2019-04-08T00:04:28Z</time>
      </trkpt>
      <trkpt lat="42.28305" lon="1.83374">
        <ele>1491.042</ele>
        <time>2019-04-08T00:04:28Z</time>
      </trkpt>
      <trkpt lat="42.28307" lon="1.83372">
        <ele>1491.711</ele>
        <time>2019-04-08T00:04:29Z</time>
      </trkpt>
      <trkpt lat="42.28308" lon="1.8337">
        <ele>1492.143</ele>
        <time>2019-04-08T00:04:29Z</time>
      </trkpt>
      <trkpt lat="42.28308" lon="1.83368">
        <ele>1492.522</ele>
        <time>2019-04-08T00:04:30Z</time>
      </trkpt>
      <trkpt lat="42.28309" lon="1.83363">
        <ele>1493.562</ele>
        <time>2019-04-08T00:04:32Z</time>
      </trkpt>
      <trkpt lat="42.2831" lon="1.83359">
        <ele>1494.508</ele>
        <time>2019-04-08T00:04:33Z</time>
      </trkpt>
      <trkpt lat="42.28311" lon="1.83358">
        <ele>1494.508</ele>
        <time>2019-04-08T00:04:33Z</time>
      </trkpt>
      <trkpt lat="42.28311" lon="1.83356">
        <ele>1495.185</ele>
        <time>2019-04-08T00:04:34Z</time>
      </trkpt>
      <trkpt lat="42.28312" lon="1.83353">
        <ele>1495.917</ele>
        <time>2019-04-08T00:04:35Z</time>
      </trkpt>
      <trkpt lat="42.28313" lon="1.83348">
        <ele>1496.612</ele>
        <time>2019-04-08T00:04:37Z</time>
      </trkpt>
      <trkpt lat="42.28313" lon="1.83347">
        <ele>1496.953</ele>
        <time>2019-04-08T00:04:37Z</time>
      </trkpt>
      <trkpt lat="42.28314" lon="1.83346">
        <ele>1497.163</ele>
        <time>2019-04-08T00:04:37Z</time>
      </trkpt>
      <trkpt lat="42.28314" lon="1.83344">
        <ele>1498.317</ele>
        <time>2019-04-08T00:04:38Z</time>
      </trkpt>
      <trkpt lat="42.28314" lon="1.83342">
        <ele>1499.696</ele>
        <time>2019-04-08T00:04:38Z</time>
      </trkpt>
      <trkpt lat="42.28312" lon="1.83339">
        <ele>1500.558</ele>
        <time>2019-04-08T00:04:40Z</time>
      </trkpt>
      <trkpt lat="42.28309" lon="1.8334">
        <ele>1501.017</ele>
        <time>2019-04-08T00:04:41Z</time>
      </trkpt>
      <trkpt lat="42.2831" lon="1.8334">
        <ele>1501.287</ele>
        <time>2019-04-08T00:04:41Z</time>
      </trkpt>
      <trkpt lat="42.28311" lon="1.8334">
        <ele>1501.215</ele>
        <time>2019-04-08T00:04:41Z</time>
      </trkpt>
      <trkpt lat="42.28311" lon="1.83337">
        <ele>1500.808</ele>
        <time>2019-04-08T00:04:42Z</time>
      </trkpt>
      <trkpt lat="42.2831" lon="1.83336">
        <ele>1500.774</ele>
        <time>2019-04-08T00:04:43Z</time>
      </trkpt>
      <trkpt lat="42.2831" lon="1.83335">
        <ele>1500.676</ele>
        <time>2019-04-08T00:04:43Z</time>
      </trkpt>
      <trkpt lat="42.2831" lon="1.83335">
        <ele>1500.671</ele>
        <time>2019-04-08T00:04:43Z</time>
      </trkpt>
      <trkpt lat="42.28311" lon="1.83336">
        <ele>1500.562</ele>
        <time>2019-04-08T00:04:43Z</time>
      </trkpt>
      <trkpt lat="42.2831" lon="1.83337">
        <ele>1500.192</ele>
        <time>2019-04-08T00:04:44Z</time>
      </trkpt>
      <trkpt lat="42.2831" lon="1.83338">
        <ele>1500.256</ele>
        <time>2019-04-08T00:04:44Z</time>
      </trkpt>
      <trkpt lat="42.28311" lon="1.83336">
        <ele>1500.135</ele>
        <time>2019-04-08T00:04:45Z</time>
      </trkpt>
      <trkpt lat="42.2831" lon="1.83332">
        <ele>1500.287</ele>
        <time>2019-04-08T00:04:46Z</time>
      </trkpt>
      <trkpt lat="42.28309" lon="1.83329">
        <ele>1500.398</ele>
        <time>2019-04-08T00:04:47Z</time>
      </trkpt>
      <trkpt lat="42.2831" lon="1.8333">
        <ele>1500.215</ele>
        <time>2019-04-08T00:04:47Z</time>
      </trkpt>
      <trkpt lat="42.28307" lon="1.83321">
        <ele>1500.026</ele>
        <time>2019-04-08T00:04:50Z</time>
      </trkpt>
      <trkpt lat="42.28309" lon="1.83322">
        <ele>1500.108</ele>
        <time>2019-04-08T00:04:51Z</time>
      </trkpt>
      <trkpt lat="42.28312" lon="1.83321">
        <ele>1499.932</ele>
        <time>2019-04-08T00:04:52Z</time>
      </trkpt>
      <trkpt lat="42.28313" lon="1.83325">
        <ele>1500.164</ele>
        <time>2019-04-08T00:04:53Z</time>
      </trkpt>
      <trkpt lat="42.28313" lon="1.83324">
        <ele>1500.119</ele>
        <time>2019-04-08T00:04:53Z</time>
      </trkpt>
      <trkpt lat="42.28313" lon="1.83323">
        <ele>1500.05</ele>
        <time>2019-04-08T00:04:54Z</time>
      </trkpt>
      <trkpt lat="42.28312" lon="1.83324">
        <ele>1500.02</ele>
        <time>2019-04-08T00:04:54Z</time>
      </trkpt>
      <trkpt lat="42.28312" lon="1.83325">
        <ele>1500.134</ele>
        <time>2019-04-08T00:04:54Z</time>
      </trkpt>
      <trkpt lat="42.28312" lon="1.83327">
        <ele>1499.843</ele>
        <time>2019-04-08T00:04:55Z</time>
      </trkpt>
      <trkpt lat="42.28313" lon="1.83329">
        <ele>1500.095</ele>
        <time>2019-04-08T00:04:55Z</time>
      </trkpt>
      <trkpt lat="42.28313" lon="1.83331">
        <ele>1499.836</ele>
        <time>2019-04-08T00:04:56Z</time>
      </trkpt>
      <trkpt lat="42.28313" lon="1.83332">
        <ele>1500.117</ele>
        <time>2019-04-08T00:04:56Z</time>
      </trkpt>
      <trkpt lat="42.28313" lon="1.83332">
        <ele>1500.118</ele>
        <time>2019-04-08T00:04:56Z</time>
      </trkpt>
      <trkpt lat="42.28312" lon="1.8333">
        <ele>1500.008</ele>
        <time>2019-04-08T00:04:57Z</time>
      </trkpt>
      <trkpt lat="42.28313" lon="1.8333">
        <ele>1500.266</ele>
        <time>2019-04-08T00:04:57Z</time>
      </trkpt>
      <trkpt lat="42.28314" lon="1.83331">
        <ele>1500.128</ele>
        <time>2019-04-08T00:04:58Z</time>
      </trkpt>
      <trkpt lat="42.28316" lon="1.83338">
        <ele>1500.173</ele>
        <time>2019-04-08T00:05:00Z</time>
      </trkpt>
      <trkpt lat="42.28315" lon="1.83338">
        <ele>1500.194</ele>
        <time>2019-04-08T00:05:01Z</time>
      </trkpt>
      <trkpt lat="42.28313" lon="1.83339">
        <ele>1500.144</ele>
        <time>2019-04-08T00:05:02Z</time>
      </trkpt>
      <trkpt lat="42.2831" lon="1.83342">
        <ele>1499.828</ele>
        <time>2019-04-08T00:05:03Z</time>
      </trkpt>
      <trkpt lat="42.28311" lon="1.8334">
        <ele>1500.297</ele>
        <time>2019-04-08T00:05:03Z</time>
      </trkpt>
      <trkpt lat="42.28312" lon="1.83341">
        <ele>1500.149</ele>
        <time>2019-04-08T00:05:04Z</time>
      </trkpt>
      <trkpt lat="42.28311" lon="1.83342">
        <ele>1500.172</ele>
        <time>2019-04-08T00:05:04Z</time>
      </trkpt>
      <trkpt lat="42.2831" lon="1.83343">
        <ele>1500.013</ele>
        <time>2019-04-08T00:05:05Z</time>
      </trkpt>
      <trkpt lat="42.28312" lon="1.83344">
        <ele>1500.114</ele>
        <time>2019-04-08T00:05:05Z</time>
      </trkpt>
      <trkpt lat="42.28313" lon="1.83344">
        <ele>1500.108</ele>
        <time>2019-04-08T00:05:06Z</time>
      </trkpt>
      <trkpt lat="42.28314" lon="1.83342">
        <ele>1500.04</ele>
        <time>2019-04-08T00:05:06Z</time>
      </trkpt>
      <trkpt lat="42.28315" lon="1.8334">
        <ele>1500.222</ele>
        <time>2019-04-08T00:05:07Z</time>
      </trkpt>
      <trkpt lat="42.28316" lon="1.8334">
        <ele>1499.817</ele>
        <time>2019-04-08T00:05:07Z</time>
      </trkpt>
      <trkpt lat="42.28317" lon="1.83331">
        <ele>1499.918</ele>
        <time>2019-04-08T00:05:10Z</time>
      </trkpt>
      <trkpt lat="42.28317" lon="1.83329">
        <ele>1499.928</ele>
        <time>2019-04-08T00:05:11Z</time>
      </trkpt>
      <trkpt lat="42.28317" lon="1.83327">
        <ele>1499.912</ele>
        <time>2019-04-08T00:05:11Z</time>
      </trkpt>
      <trkpt lat="42.28315" lon="1.83329">
        <ele>1500.241</ele>
        <time>2019-04-08T00:05:12Z</time>
      </trkpt>
      <trkpt lat="42.28314" lon="1.83329">
        <ele>1499.923</ele>
        <time>2019-04-08T00:05:13Z</time>
      </trkpt>
      <trkpt lat="42.28313" lon="1.83329">
        <ele>1499.914</ele>
        <time>2019-04-08T00:05:13Z</time>
      </trkpt>
      <trkpt lat="42.2831" lon="1.83332">
        <ele>1499.954</ele>
        <time>2019-04-08T00:05:14Z</time>
      </trkpt>
      <trkpt lat="42.28309" lon="1.83335">
        <ele>1499.509</ele>
        <time>2019-04-08T00:05:15Z</time>
      </trkpt>
      <trkpt lat="42.28308" lon="1.83339">
        <ele>1499.908</ele>
        <time>2019-04-08T00:05:17Z</time>
      </trkpt>
      <trkpt lat="42.28308" lon="1.83341">
        <ele>1500.234</ele>
        <time>2019-04-08T00:05:17Z</time>
      </trkpt>
      <trkpt lat="42.2831" lon="1.83342">
        <ele>1500.256</ele>
        <time>2019-04-08T00:05:18Z</time>
      </trkpt>
      <trkpt lat="42.28313" lon="1.83343">
        <ele>1499.971</ele>
        <time>2019-04-08T00:05:19Z</time>
      </trkpt>
      <trkpt lat="42.28314" lon="1.83343">
        <ele>1499.552</ele>
        <time>2019-04-08T00:05:20Z</time>
      </trkpt>
      <trkpt lat="42.28315" lon="1.83343">
        <ele>1499.982</ele>
        <time>2019-04-08T00:05:20Z</time>
      </trkpt>
      <trkpt lat="42.28316" lon="1.83346">
        <ele>1500.296</ele>
        <time>2019-04-08T00:05:21Z</time>
      </trkpt>
      <trkpt lat="42.28317" lon="1.83349">
        <ele>1500.745</ele>
        <time>2019-04-08T00:05:22Z</time>
      </trkpt>
      <trkpt lat="42.28319" lon="1.83355">
        <ele>1501.437</ele>
        <time>2019-04-08T00:05:24Z</time>
      </trkpt>
      <trkpt lat="42.28321" lon="1.83361">
        <ele>1501.973</ele>
        <time>2019-04-08T00:05:26Z</time>
      </trkpt>
      <trkpt lat="42.28322" lon="1.83363">
        <ele>1502.185</ele>
        <time>2019-04-08T00:05:27Z</time>
      </trkpt>
      <trkpt lat="42.28325" lon="1.83366">
        <ele>1502.513</ele>
        <time>2019-04-08T00:05:28Z</time>
      </trkpt>
      <trkpt lat="42.2833" lon="1.83372">
        <ele>1502.908</ele>
        <time>2019-04-08T00:05:31Z</time>
      </trkpt>
      <trkpt lat="42.28331" lon="1.83374">
        <ele>1503.16</ele>
        <time>2019-04-08T00:05:32Z</time>
      </trkpt>
      <trkpt lat="42.28333" lon="1.83375">
        <ele>1503.372</ele>
        <time>2019-04-08T00:05:32Z</time>
      </trkpt>
      <trkpt lat="42.28337" lon="1.83381">
        <ele>1503.947</ele>
        <time>2019-04-08T00:05:35Z</time>
      </trkpt>
      <trkpt lat="42.28337" lon="1.83386">
        <ele>1504.088</ele>
        <time>2019-04-08T00:05:36Z</time>
      </trkpt>
      <trkpt lat="42.28338" lon="1.83388">
        <ele>1504.278</ele>
        <time>2019-04-08T00:05:37Z</time>
      </trkpt>
      <trkpt lat="42.2834" lon="1.83394">
        <ele>1505.392</ele>
        <time>2019-04-08T00:05:39Z</time>
      </trkpt>
      <trkpt lat="42.28342" lon="1.83401">
        <ele>1506.131</ele>
        <time>2019-04-08T00:05:41Z</time>
      </trkpt>
      <trkpt lat="42.28343" lon="1.83406">
        <ele>1506.323</ele>
        <time>2019-04-08T00:05:42Z</time>
      </trkpt>
      <trkpt lat="42.28343" lon="1.83409">
        <ele>1506.677</ele>
        <time>2019-04-08T00:05:43Z</time>
      </trkpt>
      <trkpt lat="42.28343" lon="1.83411">
        <ele>1507.561</ele>
        <time>2019-04-08T00:05:44Z</time>
      </trkpt>
      <trkpt lat="42.28344" lon="1.83412">
        <ele>1507.927</ele>
        <time>2019-04-08T00:05:45Z</time>
      </trkpt>
      <trkpt lat="42.28347" lon="1.83415">
        <ele>1508.208</ele>
        <time>2019-04-08T00:05:46Z</time>
      </trkpt>
      <trkpt lat="42.28348" lon="1.83416">
        <ele>1508.29</ele>
        <time>2019-04-08T00:05:47Z</time>
      </trkpt>
      <trkpt lat="42.2835" lon="1.8342">
        <ele>1508.582</ele>
        <time>2019-04-08T00:05:48Z</time>
      </trkpt>
      <trkpt lat="42.2835" lon="1.83424">
        <ele>1508.657</ele>
        <time>2019-04-08T00:05:49Z</time>
      </trkpt>
      <trkpt lat="42.2835" lon="1.83436">
        <ele>1509.568</ele>
        <time>2019-04-08T00:05:53Z</time>
      </trkpt>
      <trkpt lat="42.2835" lon="1.83438">
        <ele>1509.938</ele>
        <time>2019-04-08T00:05:53Z</time>
      </trkpt>
      <trkpt lat="42.28349" lon="1.83444">
        <ele>1510.172</ele>
        <time>2019-04-08T00:05:55Z</time>
      </trkpt>
      <trkpt lat="42.28348" lon="1.83451">
        <ele>1510.511</ele>
        <time>2019-04-08T00:05:57Z</time>
      </trkpt>
      <trkpt lat="42.28348" lon="1.83454">
        <ele>1511.033</ele>
        <time>2019-04-08T00:05:58Z</time>
      </trkpt>
      <trkpt lat="42.28348" lon="1.83457">
        <ele>1511.232</ele>
        <time>2019-04-08T00:05:59Z</time>
      </trkpt>
      <trkpt lat="42.28347" lon="1.83461">
        <ele>1511.692</ele>
        <time>2019-04-08T00:06:00Z</time>
      </trkpt>
      <trkpt lat="42.28347" lon="1.83463">
        <ele>1511.811</ele>
        <time>2019-04-08T00:06:01Z</time>
      </trkpt>
      <trkpt lat="42.28347" lon="1.83465">
        <ele>1512.108</ele>
        <time>2019-04-08T00:06:01Z</time>
      </trkpt>
      <trkpt lat="42.28347" lon="1.83467">
        <ele>1512.246</ele>
        <time>2019-04-08T00:06:02Z</time>
      </trkpt>
      <trkpt lat="42.28347" lon="1.83469">
        <ele>1512.658</ele>
        <time>2019-04-08T00:06:03Z</time>
      </trkpt>
      <trkpt lat="42.28346" lon="1.83471">
        <ele>1512.543</ele>
        <time>2019-04-08T00:06:03Z</time>
      </trkpt>
      <trkpt lat="42.28345" lon="1.83475">
        <ele>1513.114</ele>
        <time>2019-04-08T00:06:04Z</time>
      </trkpt>
      <trkpt lat="42.28346" lon="1.83477">
        <ele>1513.664</ele>
        <time>2019-04-08T00:06:05Z</time>
      </trkpt>
      <trkpt lat="42.28346" lon="1.83478">
        <ele>1513.828</ele>
        <time>2019-04-08T00:06:06Z</time>
      </trkpt>
      <trkpt lat="42.28347" lon="1.8348">
        <ele>1514.357</ele>
        <time>2019-04-08T00:06:06Z</time>
      </trkpt>
      <trkpt lat="42.28347" lon="1.83481">
        <ele>1514.619</ele>
        <time>2019-04-08T00:06:06Z</time>
      </trkpt>
      <trkpt lat="42.28349" lon="1.83485">
        <ele>1515.633</ele>
        <time>2019-04-08T00:06:08Z</time>
      </trkpt>
      <trkpt lat="42.28349" lon="1.83487">
        <ele>1515.523</ele>
        <time>2019-04-08T00:06:08Z</time>
      </trkpt>
      <trkpt lat="42.28349" lon="1.83493">
        <ele>1516.415</ele>
        <time>2019-04-08T00:06:10Z</time>
      </trkpt>
      <trkpt lat="42.2835" lon="1.83495">
        <ele>1516.608</ele>
        <time>2019-04-08T00:06:11Z</time>
      </trkpt>
      <trkpt lat="42.2835" lon="1.83497">
        <ele>1517.286</ele>
        <time>2019-04-08T00:06:11Z</time>
      </trkpt>
      <trkpt lat="42.28352" lon="1.83502">
        <ele>1517.778</ele>
        <time>2019-04-08T00:06:13Z</time>
      </trkpt>
      <trkpt lat="42.28352" lon="1.83511">
        <ele>1519.133</ele>
        <time>2019-04-08T00:06:16Z</time>
      </trkpt>
      <trkpt lat="42.2835" lon="1.83518">
        <ele>1519.494</ele>
        <time>2019-04-08T00:06:18Z</time>
      </trkpt>
      <trkpt lat="42.28349" lon="1.83522">
        <ele>1519.174</ele>
        <time>2019-04-08T00:06:19Z</time>
      </trkpt>
      <trkpt lat="42.28349" lon="1.83524">
        <ele>1519.068</ele>
        <time>2019-04-08T00:06:20Z</time>
      </trkpt>
      <trkpt lat="42.28346" lon="1.83529">
        <ele>1518.947</ele>
        <time>2019-04-08T00:06:22Z</time>
      </trkpt>
      <trkpt lat="42.28343" lon="1.83531">
        <ele>1518.639</ele>
        <time>2019-04-08T00:06:23Z</time>
      </trkpt>
      <trkpt lat="42.28341" lon="1.83532">
        <ele>1518.422</ele>
        <time>2019-04-08T00:06:24Z</time>
      </trkpt>
      <trkpt lat="42.28338" lon="1.8354">
        <ele>1518.162</ele>
        <time>2019-04-08T00:06:26Z</time>
      </trkpt>
      <trkpt lat="42.28332" lon="1.8355">
        <ele>1518.008</ele>
        <time>2019-04-08T00:06:31Z</time>
      </trkpt>
      <trkpt lat="42.28329" lon="1.83554">
        <ele>1517.508</ele>
        <time>2019-04-08T00:06:32Z</time>
      </trkpt>
      <trkpt lat="42.28328" lon="1.8356">
        <ele>1516.555</ele>
        <time>2019-04-08T00:06:34Z</time>
      </trkpt>
      <trkpt lat="42.28328" lon="1.83562">
        <ele>1516.267</ele>
        <time>2019-04-08T00:06:34Z</time>
      </trkpt>
      <trkpt lat="42.28328" lon="1.83564">
        <ele>1515.122</ele>
        <time>2019-04-08T00:06:35Z</time>
      </trkpt>
      <trkpt lat="42.28329" lon="1.83565">
        <ele>1514.543</ele>
        <time>2019-04-08T00:06:36Z</time>
      </trkpt>
      <trkpt lat="42.28332" lon="1.83564">
        <ele>1514.283</ele>
        <time>2019-04-08T00:06:37Z</time>
      </trkpt>
      <trkpt lat="42.28334" lon="1.83566">
        <ele>1514.557</ele>
        <time>2019-04-08T00:06:38Z</time>
      </trkpt>
      <trkpt lat="42.28337" lon="1.83574">
        <ele>1515.276</ele>
        <time>2019-04-08T00:06:40Z</time>
      </trkpt>
      <trkpt lat="42.28336" lon="1.83577">
        <ele>1515.068</ele>
        <time>2019-04-08T00:06:41Z</time>
      </trkpt>
      <trkpt lat="42.28337" lon="1.83573">
        <ele>1514.372</ele>
        <time>2019-04-08T00:06:42Z</time>
      </trkpt>
      <trkpt lat="42.28337" lon="1.83572">
        <ele>1514.113</ele>
        <time>2019-04-08T00:06:43Z</time>
      </trkpt>
      <trkpt lat="42.28336" lon="1.83567">
        <ele>1513.614</ele>
        <time>2019-04-08T00:06:44Z</time>
      </trkpt>
      <trkpt lat="42.28335" lon="1.83566">
        <ele>1513.208</ele>
        <time>2019-04-08T00:06:45Z</time>
      </trkpt>
      <trkpt lat="42.28336" lon="1.83566">
        <ele>1512.31</ele>
        <time>2019-04-08T00:06:45Z</time>
      </trkpt>
      <trkpt lat="42.28337" lon="1.83565">
        <ele>1512.092</ele>
        <time>2019-04-08T00:06:46Z</time>
      </trkpt>
      <trkpt lat="42.28337" lon="1.83562">
        <ele>1511.187</ele>
        <time>2019-04-08T00:06:46Z</time>
      </trkpt>
      <trkpt lat="42.28337" lon="1.83562">
        <ele>1510.938</ele>
        <time>2019-04-08T00:06:47Z</time>
      </trkpt>
      <trkpt lat="42.28339" lon="1.83564">
        <ele>1510.018</ele>
        <time>2019-04-08T00:06:47Z</time>
      </trkpt>
      <trkpt lat="42.2834" lon="1.83564">
        <ele>1509.992</ele>
        <time>2019-04-08T00:06:48Z</time>
      </trkpt>
      <trkpt lat="42.28342" lon="1.83565">
        <ele>1509.041</ele>
        <time>2019-04-08T00:06:49Z</time>
      </trkpt>
      <trkpt lat="42.28343" lon="1.83565">
        <ele>1508.553</ele>
        <time>2019-04-08T00:06:49Z</time>
      </trkpt>
      <trkpt lat="42.28343" lon="1.83565">
        <ele>1508.372</ele>
        <time>2019-04-08T00:06:49Z</time>
      </trkpt>
      <trkpt lat="42.28345" lon="1.83566">
        <ele>1507.513</ele>
        <time>2019-04-08T00:06:50Z</time>
      </trkpt>
      <trkpt lat="42.28346" lon="1.83566">
        <ele>1506.814</ele>
        <time>2019-04-08T00:06:50Z</time>
      </trkpt>
      <trkpt lat="42.28349" lon="1.83567">
        <ele>1506.508</ele>
        <time>2019-04-08T00:06:51Z</time>
      </trkpt>
      <trkpt lat="42.2835" lon="1.83567">
        <ele>1505.06</ele>
        <time>2019-04-08T00:06:52Z</time>
      </trkpt>
      <trkpt lat="42.2835" lon="1.83567">
        <ele>1504.622</ele>
        <time>2019-04-08T00:06:52Z</time>
      </trkpt>
      <trkpt lat="42.2835" lon="1.83566">
        <ele>1504.467</ele>
        <time>2019-04-08T00:06:52Z</time>
      </trkpt>
      <trkpt lat="42.28351" lon="1.83567">
        <ele>1503.578</ele>
        <time>2019-04-08T00:06:52Z</time>
      </trkpt>
      <trkpt lat="42.2835" lon="1.83567">
        <ele>1503.238</ele>
        <time>2019-04-08T00:06:52Z</time>
      </trkpt>
      <trkpt lat="42.28353" lon="1.8357">
        <ele>1502.672</ele>
        <time>2019-04-08T00:06:54Z</time>
      </trkpt>
      <trkpt lat="42.28355" lon="1.83573">
        <ele>1502.591</ele>
        <time>2019-04-08T00:06:55Z</time>
      </trkpt>
      <trkpt lat="42.28357" lon="1.83573">
        <ele>1501.733</ele>
        <time>2019-04-08T00:06:56Z</time>
      </trkpt>
      <trkpt lat="42.28355" lon="1.83572">
        <ele>1501.574</ele>
        <time>2019-04-08T00:06:57Z</time>
      </trkpt>
      <trkpt lat="42.28353" lon="1.83571">
        <ele>1501.556</ele>
        <time>2019-04-08T00:06:58Z</time>
      </trkpt>
      <trkpt lat="42.28354" lon="1.83575">
        <ele>1501.921</ele>
        <time>2019-04-08T00:06:58Z</time>
      </trkpt>
      <trkpt lat="42.28354" lon="1.83577">
        <ele>1501.508</ele>
        <time>2019-04-08T00:06:59Z</time>
      </trkpt>
      <trkpt lat="42.28355" lon="1.83577">
        <ele>1501.72</ele>
        <time>2019-04-08T00:06:59Z</time>
      </trkpt>
      <trkpt lat="42.28356" lon="1.83576">
        <ele>1501.652</ele>
        <time>2019-04-08T00:07:00Z</time>
      </trkpt>
      <trkpt lat="42.28355" lon="1.83576">
        <ele>1500.847</ele>
        <time>2019-04-08T00:07:01Z</time>
      </trkpt>
      <trkpt lat="42.28355" lon="1.83576">
        <ele>1500.438</ele>
        <time>2019-04-08T00:07:01Z</time>
      </trkpt>
      <trkpt lat="42.28359" lon="1.83582">
        <ele>1499.168</ele>
        <time>2019-04-08T00:07:03Z</time>
      </trkpt>
      <trkpt lat="42.28361" lon="1.83583">
        <ele>1498.182</ele>
        <time>2019-04-08T00:07:04Z</time>
      </trkpt>
      <trkpt lat="42.28363" lon="1.83582">
        <ele>1497.251</ele>
        <time>2019-04-08T00:07:05Z</time>
      </trkpt>
      <trkpt lat="42.28366" lon="1.83581">
        <ele>1497.173</ele>
        <time>2019-04-08T00:07:06Z</time>
      </trkpt>
      <trkpt lat="42.28366" lon="1.8358">
        <ele>1497.112</ele>
        <time>2019-04-08T00:07:06Z</time>
      </trkpt>
      <trkpt lat="42.28368" lon="1.83576">
        <ele>1496.132</ele>
        <time>2019-04-08T00:07:08Z</time>
      </trkpt>
      <trkpt lat="42.28368" lon="1.83576">
        <ele>1495.905</ele>
        <time>2019-04-08T00:07:08Z</time>
      </trkpt>
      <trkpt lat="42.28367" lon="1.83577">
        <ele>1494.808</ele>
        <time>2019-04-08T00:07:08Z</time>
      </trkpt>
      <trkpt lat="42.28366" lon="1.83578">
        <ele>1494.194</ele>
        <time>2019-04-08T00:07:09Z</time>
      </trkpt>
      <trkpt lat="42.28365" lon="1.83578">
        <ele>1493.926</ele>
        <time>2019-04-08T00:07:09Z</time>
      </trkpt>
      <trkpt lat="42.28363" lon="1.83578">
        <ele>1492.641</ele>
        <time>2019-04-08T00:07:10Z</time>
      </trkpt>
      <trkpt lat="42.28363" lon="1.83578">
        <ele>1492.422</ele>
        <time>2019-04-08T00:07:10Z</time>
      </trkpt>
      <trkpt lat="42.28363" lon="1.83582">
        <ele>1491.732</ele>
        <time>2019-04-08T00:07:11Z</time>
      </trkpt>
      <trkpt lat="42.28363" lon="1.83587">
        <ele>1490.676</ele>
        <time>2019-04-08T00:07:13Z</time>
      </trkpt>
      <trkpt lat="42.28368" lon="1.8359">
        <ele>1489.675</ele>
        <time>2019-04-08T00:07:15Z</time>
      </trkpt>
      <trkpt lat="42.2837" lon="1.83592">
        <ele>1488.567</ele>
        <time>2019-04-08T00:07:16Z</time>
      </trkpt>
      <trkpt lat="42.28371" lon="1.83592">
        <ele>1488.153</ele>
        <time>2019-04-08T00:07:16Z</time>
      </trkpt>
      <trkpt lat="42.28376" lon="1.83593">
        <ele>1487.204</ele>
        <time>2019-04-08T00:07:18Z</time>
      </trkpt>
      <trkpt lat="42.28377" lon="1.83592">
        <ele>1486.514</ele>
        <time>2019-04-08T00:07:19Z</time>
      </trkpt>
      <trkpt lat="42.2838" lon="1.83589">
        <ele>1485.908</ele>
        <time>2019-04-08T00:07:20Z</time>
      </trkpt>
      <trkpt lat="42.28381" lon="1.83588">
        <ele>1485.628</ele>
        <time>2019-04-08T00:07:20Z</time>
      </trkpt>
      <trkpt lat="42.28383" lon="1.83587">
        <ele>1484.75</ele>
        <time>2019-04-08T00:07:21Z</time>
      </trkpt>
      <trkpt lat="42.28385" lon="1.83586">
        <ele>1483.975</ele>
        <time>2019-04-08T00:07:22Z</time>
      </trkpt>
      <trkpt lat="42.28385" lon="1.83586">
        <ele>1483.566</ele>
        <time>2019-04-08T00:07:22Z</time>
      </trkpt>
      <trkpt lat="42.2839" lon="1.83585">
        <ele>1482.686</ele>
        <time>2019-04-08T00:07:24Z</time>
      </trkpt>
      <trkpt lat="42.28391" lon="1.83586">
        <ele>1482.42</ele>
        <time>2019-04-08T00:07:25Z</time>
      </trkpt>
      <trkpt lat="42.28392" lon="1.83588">
        <ele>1481.419</ele>
        <time>2019-04-08T00:07:25Z</time>
      </trkpt>
      <trkpt lat="42.28395" lon="1.8359">
        <ele>1480.641</ele>
        <time>2019-04-08T00:07:27Z</time>
      </trkpt>
      <trkpt lat="42.28396" lon="1.83591">
        <ele>1480.357</ele>
        <time>2019-04-08T00:07:27Z</time>
      </trkpt>
      <trkpt lat="42.28399" lon="1.83592">
        <ele>1479.5</ele>
        <time>2019-04-08T00:07:29Z</time>
      </trkpt>
      <trkpt lat="42.284" lon="1.83592">
        <ele>1479.12</ele>
        <time>2019-04-08T00:07:29Z</time>
      </trkpt>
      <trkpt lat="42.28403" lon="1.8359">
        <ele>1478.208</ele>
        <time>2019-04-08T00:07:30Z</time>
      </trkpt>
      <trkpt lat="42.28404" lon="1.8359">
        <ele>1478.198</ele>
        <time>2019-04-08T00:07:31Z</time>
      </trkpt>
      <trkpt lat="42.28407" lon="1.83589">
        <ele>1477.13</ele>
        <time>2019-04-08T00:07:32Z</time>
      </trkpt>
      <trkpt lat="42.2841" lon="1.8359">
        <ele>1476.235</ele>
        <time>2019-04-08T00:07:33Z</time>
      </trkpt>
      <trkpt lat="42.28412" lon="1.8359">
        <ele>1475.836</ele>
        <time>2019-04-08T00:07:34Z</time>
      </trkpt>
      <trkpt lat="42.28415" lon="1.8359">
        <ele>1475.546</ele>
        <time>2019-04-08T00:07:35Z</time>
      </trkpt>
      <trkpt lat="42.28421" lon="1.83586">
        <ele>1475.16</ele>
        <time>2019-04-08T00:07:38Z</time>
      </trkpt>
      <trkpt lat="42.28422" lon="1.83585">
        <ele>1475.039</ele>
        <time>2019-04-08T00:07:38Z</time>
      </trkpt>
      <trkpt lat="42.28422" lon="1.83586">
        <ele>1474.041</ele>
        <time>2019-04-08T00:07:38Z</time>
      </trkpt>
      <trkpt lat="42.28424" lon="1.83588">
        <ele>1472.981</ele>
        <time>2019-04-08T00:07:39Z</time>
      </trkpt>
      <trkpt lat="42.28429" lon="1.8359">
        <ele>1471.761</ele>
        <time>2019-04-08T00:07:41Z</time>
      </trkpt>
      <trkpt lat="42.28429" lon="1.83591">
        <ele>1471.517</ele>
        <time>2019-04-08T00:07:41Z</time>
      </trkpt>
      <trkpt lat="42.28429" lon="1.83589">
        <ele>1470.508</ele>
        <time>2019-04-08T00:07:42Z</time>
      </trkpt>
      <trkpt lat="42.28429" lon="1.83589">
        <ele>1470.161</ele>
        <time>2019-04-08T00:07:42Z</time>
      </trkpt>
      <trkpt lat="42.2843" lon="1.8359">
        <ele>1469.293</ele>
        <time>2019-04-08T00:07:43Z</time>
      </trkpt>
      <trkpt lat="42.28433" lon="1.83592">
        <ele>1468.288</ele>
        <time>2019-04-08T00:07:44Z</time>
      </trkpt>
      <trkpt lat="42.28433" lon="1.83592">
        <ele>1467.689</ele>
        <time>2019-04-08T00:07:44Z</time>
      </trkpt>
      <trkpt lat="42.28433" lon="1.83593">
        <ele>1467.149</ele>
        <time>2019-04-08T00:07:45Z</time>
      </trkpt>
      <trkpt lat="42.28436" lon="1.83593">
        <ele>1465.993</ele>
        <time>2019-04-08T00:07:46Z</time>
      </trkpt>
      <trkpt lat="42.28441" lon="1.83592">
        <ele>1465.182</ele>
        <time>2019-04-08T00:07:48Z</time>
      </trkpt>
      <trkpt lat="42.28443" lon="1.83589">
        <ele>1464.764</ele>
        <time>2019-04-08T00:07:49Z</time>
      </trkpt>
      <trkpt lat="42.28443" lon="1.83589">
        <ele>1463.679</ele>
        <time>2019-04-08T00:07:49Z</time>
      </trkpt>
      <trkpt lat="42.28443" lon="1.83587">
        <ele>1462.505</ele>
        <time>2019-04-08T00:07:50Z</time>
      </trkpt>
      <trkpt lat="42.28444" lon="1.83584">
        <ele>1461.425</ele>
        <time>2019-04-08T00:07:50Z</time>
      </trkpt>
      <trkpt lat="42.28444" lon="1.83585">
        <ele>1461.108</ele>
        <time>2019-04-08T00:07:50Z</time>
      </trkpt>
      <trkpt lat="42.28443" lon="1.83583">
        <ele>1460.05</ele>
        <time>2019-04-08T00:07:51Z</time>
      </trkpt>
      <trkpt lat="42.28444" lon="1.83583">
        <ele>1459.542</ele>
        <time>2019-04-08T00:07:51Z</time>
      </trkpt>
      <trkpt lat="42.28445" lon="1.83581">
        <ele>1459.117</ele>
        <time>2019-04-08T00:07:52Z</time>
      </trkpt>
      <trkpt lat="42.28446" lon="1.8358">
        <ele>1458.988</ele>
        <time>2019-04-08T00:07:52Z</time>
      </trkpt>
      <trkpt lat="42.28449" lon="1.8358">
        <ele>1458.028</ele>
        <time>2019-04-08T00:07:54Z</time>
      </trkpt>
      <trkpt lat="42.2845" lon="1.8358">
        <ele>1457.732</ele>
        <time>2019-04-08T00:07:54Z</time>
      </trkpt>
      <trkpt lat="42.28457" lon="1.83578">
        <ele>1456.561</ele>
        <time>2019-04-08T00:07:57Z</time>
      </trkpt>
      <trkpt lat="42.28458" lon="1.83575">
        <ele>1455.343</ele>
        <time>2019-04-08T00:07:58Z</time>
      </trkpt>
      <trkpt lat="42.28458" lon="1.83573">
        <ele>1454.624</ele>
        <time>2019-04-08T00:07:58Z</time>
      </trkpt>
      <trkpt lat="42.28457" lon="1.83572">
        <ele>1454.204</ele>
        <time>2019-04-08T00:07:59Z</time>
      </trkpt>
      <trkpt lat="42.28454" lon="1.8357">
        <ele>1453.214</ele>
        <time>2019-04-08T00:08:00Z</time>
      </trkpt>
      <trkpt lat="42.28454" lon="1.8357">
        <ele>1453.208</ele>
        <time>2019-04-08T00:08:00Z</time>
      </trkpt>
      <trkpt lat="42.28453" lon="1.8357">
        <ele>1452.155</ele>
        <time>2019-04-08T00:08:01Z</time>
      </trkpt>
      <trkpt lat="42.28455" lon="1.83573">
        <ele>1451.127</ele>
        <time>2019-04-08T00:08:02Z</time>
      </trkpt>
      <trkpt lat="42.28457" lon="1.83576">
        <ele>1449.872</ele>
        <time>2019-04-08T00:08:03Z</time>
      </trkpt>
      <trkpt lat="42.28457" lon="1.83577">
        <ele>1448.973</ele>
        <time>2019-04-08T00:08:04Z</time>
      </trkpt>
      <trkpt lat="42.28456" lon="1.83579">
        <ele>1447.873</ele>
        <time>2019-04-08T00:08:04Z</time>
      </trkpt>
      <trkpt lat="42.28457" lon="1.8358">
        <ele>1447.667</ele>
        <time>2019-04-08T00:08:05Z</time>
      </trkpt>
      <trkpt lat="42.28458" lon="1.83585">
        <ele>1446.576</ele>
        <time>2019-04-08T00:08:06Z</time>
      </trkpt>
      <trkpt lat="42.28458" lon="1.83586">
        <ele>1445.928</ele>
        <time>2019-04-08T00:08:07Z</time>
      </trkpt>
      <trkpt lat="42.28459" lon="1.83587">
        <ele>1445.452</ele>
        <time>2019-04-08T00:08:07Z</time>
      </trkpt>
      <trkpt lat="42.2846" lon="1.8359">
        <ele>1444.353</ele>
        <time>2019-04-08T00:08:08Z</time>
      </trkpt>
      <trkpt lat="42.2846" lon="1.83591">
        <ele>1443.908</ele>
        <time>2019-04-08T00:08:08Z</time>
      </trkpt>
      <trkpt lat="42.2846" lon="1.83595">
        <ele>1443.108</ele>
        <time>2019-04-08T00:08:09Z</time>
      </trkpt>
      <trkpt lat="42.28461" lon="1.83596">
        <ele>1442.668</ele>
        <time>2019-04-08T00:08:10Z</time>
      </trkpt>
      <trkpt lat="42.28461" lon="1.83596">
        <ele>1442.24</ele>
        <time>2019-04-08T00:08:10Z</time>
      </trkpt>
      <trkpt lat="42.28462" lon="1.83596">
        <ele>1442.045</ele>
        <time>2019-04-08T00:08:10Z</time>
      </trkpt>
      <trkpt lat="42.28462" lon="1.83598">
        <ele>1441.146</ele>
        <time>2019-04-08T00:08:11Z</time>
      </trkpt>
      <trkpt lat="42.28462" lon="1.836">
        <ele>1441.036</ele>
        <time>2019-04-08T00:08:11Z</time>
      </trkpt>
      <trkpt lat="42.28463" lon="1.83602">
        <ele>1440.24</ele>
        <time>2019-04-08T00:08:12Z</time>
      </trkpt>
      <trkpt lat="42.28464" lon="1.83604">
        <ele>1439.659</ele>
        <time>2019-04-08T00:08:13Z</time>
      </trkpt>
      <trkpt lat="42.28464" lon="1.83605">
        <ele>1439.481</ele>
        <time>2019-04-08T00:08:13Z</time>
      </trkpt>
      <trkpt lat="42.28465" lon="1.83608">
        <ele>1438.693</ele>
        <time>2019-04-08T00:08:14Z</time>
      </trkpt>
      <trkpt lat="42.28465" lon="1.83609">
        <ele>1438.265</ele>
        <time>2019-04-08T00:08:14Z</time>
      </trkpt>
      <trkpt lat="42.28465" lon="1.83611">
        <ele>1437.621</ele>
        <time>2019-04-08T00:08:15Z</time>
      </trkpt>
      <trkpt lat="42.28465" lon="1.83612">
        <ele>1437.408</ele>
        <time>2019-04-08T00:08:15Z</time>
      </trkpt>
      <trkpt lat="42.28466" lon="1.83614">
        <ele>1437.272</ele>
        <time>2019-04-08T00:08:16Z</time>
      </trkpt>
      <trkpt lat="42.28468" lon="1.83621">
        <ele>1436.584</ele>
        <time>2019-04-08T00:08:18Z</time>
      </trkpt>
      <trkpt lat="42.28468" lon="1.83622">
        <ele>1436.289</ele>
        <time>2019-04-08T00:08:18Z</time>
      </trkpt>
      <trkpt lat="42.2847" lon="1.83625">
        <ele>1435.95</ele>
        <time>2019-04-08T00:08:19Z</time>
      </trkpt>
      <trkpt lat="42.28471" lon="1.83626">
        <ele>1435.29</ele>
        <time>2019-04-08T00:08:20Z</time>
      </trkpt>
      <trkpt lat="42.28472" lon="1.83626">
        <ele>1434.954</ele>
        <time>2019-04-08T00:08:20Z</time>
      </trkpt>
      <trkpt lat="42.28475" lon="1.83624">
        <ele>1434.323</ele>
        <time>2019-04-08T00:08:22Z</time>
      </trkpt>
      <trkpt lat="42.28477" lon="1.83621">
        <ele>1434.135</ele>
        <time>2019-04-08T00:08:23Z</time>
      </trkpt>
      <trkpt lat="42.28479" lon="1.83618">
        <ele>1433.217</ele>
        <time>2019-04-08T00:08:24Z</time>
      </trkpt>
      <trkpt lat="42.28479" lon="1.83617">
        <ele>1432.987</ele>
        <time>2019-04-08T00:08:25Z</time>
      </trkpt>
      <trkpt lat="42.2848" lon="1.83615">
        <ele>1432.215</ele>
        <time>2019-04-08T00:08:25Z</time>
      </trkpt>
      <trkpt lat="42.28482" lon="1.83611">
        <ele>1431.808</ele>
        <time>2019-04-08T00:08:27Z</time>
      </trkpt>
      <trkpt lat="42.28483" lon="1.83609">
        <ele>1430.834</ele>
        <time>2019-04-08T00:08:28Z</time>
      </trkpt>
      <trkpt lat="42.28483" lon="1.83606">
        <ele>1429.556</ele>
        <time>2019-04-08T00:08:28Z</time>
      </trkpt>
      <trkpt lat="42.28481" lon="1.83604">
        <ele>1428.571</ele>
        <time>2019-04-08T00:08:29Z</time>
      </trkpt>
      <trkpt lat="42.28481" lon="1.83607">
        <ele>1427.412</ele>
        <time>2019-04-08T00:08:30Z</time>
      </trkpt>
      <trkpt lat="42.28482" lon="1.83609">
        <ele>1427.152</ele>
        <time>2019-04-08T00:08:31Z</time>
      </trkpt>
      <trkpt lat="42.28483" lon="1.83611">
        <ele>1426.556</ele>
        <time>2019-04-08T00:08:32Z</time>
      </trkpt>
      <trkpt lat="42.28483" lon="1.83612">
        <ele>1426.345</ele>
        <time>2019-04-08T00:08:32Z</time>
      </trkpt>
      <trkpt lat="42.28484" lon="1.83614">
        <ele>1425.617</ele>
        <time>2019-04-08T00:08:33Z</time>
      </trkpt>
      <trkpt lat="42.28485" lon="1.83616">
        <ele>1425.222</ele>
        <time>2019-04-08T00:08:33Z</time>
      </trkpt>
      <trkpt lat="42.28485" lon="1.83617">
        <ele>1425.162</ele>
        <time>2019-04-08T00:08:33Z</time>
      </trkpt>
      <trkpt lat="42.28485" lon="1.8362">
        <ele>1424.008</ele>
        <time>2019-04-08T00:08:34Z</time>
      </trkpt>
      <trkpt lat="42.28485" lon="1.8362">
        <ele>1424.008</ele>
        <time>2019-04-08T00:08:34Z</time>
      </trkpt>
      <trkpt lat="42.28485" lon="1.83626">
        <ele>1423.195</ele>
        <time>2019-04-08T00:08:36Z</time>
      </trkpt>
      <trkpt lat="42.28485" lon="1.83627">
        <ele>1423.137</ele>
        <time>2019-04-08T00:08:37Z</time>
      </trkpt>
      <trkpt lat="42.28486" lon="1.83631">
        <ele>1422.062</ele>
        <time>2019-04-08T00:08:38Z</time>
      </trkpt>
      <trkpt lat="42.28487" lon="1.83632">
        <ele>1420.853</ele>
        <time>2019-04-08T00:08:38Z</time>
      </trkpt>
      <trkpt lat="42.28487" lon="1.83633">
        <ele>1420.683</ele>
        <time>2019-04-08T00:08:39Z</time>
      </trkpt>
      <trkpt lat="42.28488" lon="1.83633">
        <ele>1420.547</ele>
        <time>2019-04-08T00:08:39Z</time>
      </trkpt>
      <trkpt lat="42.28489" lon="1.83634">
        <ele>1420.096</ele>
        <time>2019-04-08T00:08:39Z</time>
      </trkpt>
      <trkpt lat="42.2849" lon="1.83634">
        <ele>1419.828</ele>
        <time>2019-04-08T00:08:40Z</time>
      </trkpt>
      <trkpt lat="42.28491" lon="1.83636">
        <ele>1419.392</ele>
        <time>2019-04-08T00:08:40Z</time>
      </trkpt>
      <trkpt lat="42.28491" lon="1.83637">
        <ele>1419.373</ele>
        <time>2019-04-08T00:08:41Z</time>
      </trkpt>
      <trkpt lat="42.28491" lon="1.83641">
        <ele>1418.52</ele>
        <time>2019-04-08T00:08:42Z</time>
      </trkpt>
      <trkpt lat="42.28492" lon="1.83643">
        <ele>1417.108</ele>
        <time>2019-04-08T00:08:42Z</time>
      </trkpt>
      <trkpt lat="42.28492" lon="1.83643">
        <ele>1417.122</ele>
        <time>2019-04-08T00:08:43Z</time>
      </trkpt>
      <trkpt lat="42.28493" lon="1.83644">
        <ele>1416.674</ele>
        <time>2019-04-08T00:08:43Z</time>
      </trkpt>
      <trkpt lat="42.28493" lon="1.83646">
        <ele>1416.239</ele>
        <time>2019-04-08T00:08:44Z</time>
      </trkpt>
      <trkpt lat="42.28494" lon="1.83647">
        <ele>1415.16</ele>
        <time>2019-04-08T00:08:44Z</time>
      </trkpt>
      <trkpt lat="42.28495" lon="1.83647">
        <ele>1414.83</ele>
        <time>2019-04-08T00:08:44Z</time>
      </trkpt>
      <trkpt lat="42.28496" lon="1.83648">
        <ele>1414.354</ele>
        <time>2019-04-08T00:08:45Z</time>
      </trkpt>
      <trkpt lat="42.28495" lon="1.83649">
        <ele>1413.923</ele>
        <time>2019-04-08T00:08:45Z</time>
      </trkpt>
      <trkpt lat="42.28495" lon="1.8365">
        <ele>1413.945</ele>
        <time>2019-04-08T00:08:46Z</time>
      </trkpt>
      <trkpt lat="42.28495" lon="1.83651">
        <ele>1413.579</ele>
        <time>2019-04-08T00:08:46Z</time>
      </trkpt>
      <trkpt lat="42.28495" lon="1.83652">
        <ele>1413.505</ele>
        <time>2019-04-08T00:08:46Z</time>
      </trkpt>
      <trkpt lat="42.28495" lon="1.83653">
        <ele>1413.225</ele>
        <time>2019-04-08T00:08:46Z</time>
      </trkpt>
      <trkpt lat="42.28498" lon="1.83661">
        <ele>1412.508</ele>
        <time>2019-04-08T00:08:49Z</time>
      </trkpt>
      <trkpt lat="42.28498" lon="1.83662">
        <ele>1412.37</ele>
        <time>2019-04-08T00:08:49Z</time>
      </trkpt>
      <trkpt lat="42.285" lon="1.83663">
        <ele>1411.542</ele>
        <time>2019-04-08T00:08:50Z</time>
      </trkpt>
      <trkpt lat="42.28502" lon="1.83664">
        <ele>1410.997</ele>
        <time>2019-04-08T00:08:51Z</time>
      </trkpt>
      <trkpt lat="42.28502" lon="1.83664">
        <ele>1410.598</ele>
        <time>2019-04-08T00:08:51Z</time>
      </trkpt>
      <trkpt lat="42.28504" lon="1.83663">
        <ele>1410.488</ele>
        <time>2019-04-08T00:08:52Z</time>
      </trkpt>
      <trkpt lat="42.28507" lon="1.83663">
        <ele>1409.262</ele>
        <time>2019-04-08T00:08:53Z</time>
      </trkpt>
      <trkpt lat="42.28508" lon="1.83663">
        <ele>1409.231</ele>
        <time>2019-04-08T00:08:54Z</time>
      </trkpt>
      <trkpt lat="42.28509" lon="1.83663">
        <ele>1408.713</ele>
        <time>2019-04-08T00:08:54Z</time>
      </trkpt>
      <trkpt lat="42.28517" lon="1.8366">
        <ele>1408.127</ele>
        <time>2019-04-08T00:08:57Z</time>
      </trkpt>
      <trkpt lat="42.28517" lon="1.83658">
        <ele>1406.668</ele>
        <time>2019-04-08T00:08:58Z</time>
      </trkpt>
      <trkpt lat="42.28517" lon="1.83657">
        <ele>1406.514</ele>
        <time>2019-04-08T00:08:58Z</time>
      </trkpt>
      <trkpt lat="42.28517" lon="1.83657">
        <ele>1406.408</ele>
        <time>2019-04-08T00:08:58Z</time>
      </trkpt>
      <trkpt lat="42.28517" lon="1.83657">
        <ele>1406.175</ele>
        <time>2019-04-08T00:08:58Z</time>
      </trkpt>
      <trkpt lat="42.28517" lon="1.83657">
        <ele>1406.117</ele>
        <time>2019-04-08T00:08:58Z</time>
      </trkpt>
      <trkpt lat="42.28518" lon="1.83656">
        <ele>1405.512</ele>
        <time>2019-04-08T00:08:59Z</time>
      </trkpt>
      <trkpt lat="42.28519" lon="1.83657">
        <ele>1404.883</ele>
        <time>2019-04-08T00:08:59Z</time>
      </trkpt>
      <trkpt lat="42.28521" lon="1.83656">
        <ele>1404.423</ele>
        <time>2019-04-08T00:09:00Z</time>
      </trkpt>
      <trkpt lat="42.28522" lon="1.83656">
        <ele>1404.237</ele>
        <time>2019-04-08T00:09:00Z</time>
      </trkpt>
      <trkpt lat="42.28522" lon="1.83687">
        <ele>1360.746</ele>
        <time>2019-04-08T00:09:09Z</time>
      </trkpt>
      <trkpt lat="42.28518" lon="1.83698">
        <ele>1358.668</ele>
        <time>2019-04-08T00:09:13Z</time>
      </trkpt>
      <trkpt lat="42.28515" lon="1.8371">
        <ele>1356.355</ele>
        <time>2019-04-08T00:09:17Z</time>
      </trkpt>
      <trkpt lat="42.2851" lon="1.83721">
        <ele>1353.507</ele>
        <time>2019-04-08T00:09:21Z</time>
      </trkpt>
      <trkpt lat="42.28505" lon="1.83732">
        <ele>1350.517</ele>
        <time>2019-04-08T00:09:24Z</time>
      </trkpt>
      <trkpt lat="42.28502" lon="1.83744">
        <ele>1347.808</ele>
        <time>2019-04-08T00:09:28Z</time>
      </trkpt>
      <trkpt lat="42.285" lon="1.83756">
        <ele>1345.228</ele>
        <time>2019-04-08T00:09:32Z</time>
      </trkpt>
      <trkpt lat="42.28496" lon="1.83768">
        <ele>1339.69</ele>
        <time>2019-04-08T00:09:36Z</time>
      </trkpt>
      <trkpt lat="42.28489" lon="1.83777">
        <ele>1335.675</ele>
        <time>2019-04-08T00:09:40Z</time>
      </trkpt>
      <trkpt lat="42.28482" lon="1.83786">
        <ele>1332.186</ele>
        <time>2019-04-08T00:09:43Z</time>
      </trkpt>
      <trkpt lat="42.28477" lon="1.83796">
        <ele>1329.426</ele>
        <time>2019-04-08T00:09:47Z</time>
      </trkpt>
      <trkpt lat="42.28473" lon="1.83808">
        <ele>1324.39</ele>
        <time>2019-04-08T00:09:51Z</time>
      </trkpt>
      <trkpt lat="42.28466" lon="1.83817">
        <ele>1317.349</ele>
        <time>2019-04-08T00:09:55Z</time>
      </trkpt>
      <trkpt lat="42.28456" lon="1.83825">
        <ele>1315.611</ele>
        <time>2019-04-08T00:10:00Z</time>
      </trkpt>
      <trkpt lat="42.2845" lon="1.83835">
        <ele>1309.318</ele>
        <time>2019-04-08T00:10:03Z</time>
      </trkpt>
      <trkpt lat="42.28442" lon="1.83843">
        <ele>1305.898</ele>
        <time>2019-04-08T00:10:07Z</time>
      </trkpt>
      <trkpt lat="42.28435" lon="1.83852">
        <ele>1302.517</ele>
        <time>2019-04-08T00:10:11Z</time>
      </trkpt>
      <trkpt lat="42.2843" lon="1.83862">
        <ele>1300.408</ele>
        <time>2019-04-08T00:10:15Z</time>
      </trkpt>
      <trkpt lat="42.28426" lon="1.83875">
        <ele>1297.354</ele>
        <time>2019-04-08T00:10:19Z</time>
      </trkpt>
      <trkpt lat="42.28424" lon="1.83888">
        <ele>1293.056</ele>
        <time>2019-04-08T00:10:23Z</time>
      </trkpt>
      <trkpt lat="42.28424" lon="1.839">
        <ele>1290.131</ele>
        <time>2019-04-08T00:10:26Z</time>
      </trkpt>
      <trkpt lat="42.28426" lon="1.83913">
        <ele>1285.852</ele>
        <time>2019-04-08T00:10:30Z</time>
      </trkpt>
      <trkpt lat="42.28425" lon="1.83926">
        <ele>1280.012</ele>
        <time>2019-04-08T00:10:34Z</time>
      </trkpt>
      <trkpt lat="42.28426" lon="1.8394">
        <ele>1275.326</ele>
        <time>2019-04-08T00:10:38Z</time>
      </trkpt>
      <trkpt lat="42.28425" lon="1.83953">
        <ele>1270.925</ele>
        <time>2019-04-08T00:10:42Z</time>
      </trkpt>
      <trkpt lat="42.28425" lon="1.83965">
        <ele>1266.167</ele>
        <time>2019-04-08T00:10:46Z</time>
      </trkpt>
      <trkpt lat="42.28422" lon="1.83977">
        <ele>1263.641</ele>
        <time>2019-04-08T00:10:50Z</time>
      </trkpt>
      <trkpt lat="42.28419" lon="1.83989">
        <ele>1258.481</ele>
        <time>2019-04-08T00:10:53Z</time>
      </trkpt>
      <trkpt lat="42.28412" lon="1.83998">
        <ele>1255.309</ele>
        <time>2019-04-08T00:10:57Z</time>
      </trkpt>
      <trkpt lat="42.28407" lon="1.84009">
        <ele>1251.108</ele>
        <time>2019-04-08T00:11:01Z</time>
      </trkpt>
      <trkpt lat="42.28401" lon="1.8402">
        <ele>1248.527</ele>
        <time>2019-04-08T00:11:05Z</time>
      </trkpt>
      <trkpt lat="42.28398" lon="1.84031">
        <ele>1245.129</ele>
        <time>2019-04-08T00:11:08Z</time>
      </trkpt>
      <trkpt lat="42.28392" lon="1.84043">
        <ele>1242.384</ele>
        <time>2019-04-08T00:11:13Z</time>
      </trkpt>
      <trkpt lat="42.28384" lon="1.84053">
        <ele>1239.515</ele>
        <time>2019-04-08T00:11:17Z</time>
      </trkpt>
      <trkpt lat="42.28379" lon="1.84064">
        <ele>1234.725</ele>
        <time>2019-04-08T00:11:21Z</time>
      </trkpt>
      <trkpt lat="42.2837" lon="1.84069">
        <ele>1232.399</ele>
        <time>2019-04-08T00:11:25Z</time>
      </trkpt>
      <trkpt lat="42.2836" lon="1.84067">
        <ele>1229.218</ele>
        <time>2019-04-08T00:11:29Z</time>
      </trkpt>
      <trkpt lat="42.28353" lon="1.84075">
        <ele>1226.71</ele>
        <time>2019-04-08T00:11:32Z</time>
      </trkpt>
      <trkpt lat="42.28348" lon="1.84086">
        <ele>1221.277</ele>
        <time>2019-04-08T00:11:36Z</time>
      </trkpt>
      <trkpt lat="42.28345" lon="1.84098">
        <ele>1217.061</ele>
        <time>2019-04-08T00:11:40Z</time>
      </trkpt>
      <trkpt lat="42.2834" lon="1.84108">
        <ele>1213.927</ele>
        <time>2019-04-08T00:11:44Z</time>
      </trkpt>
      <trkpt lat="42.28336" lon="1.84121">
        <ele>1209.708</ele>
        <time>2019-04-08T00:11:48Z</time>
      </trkpt>
      <trkpt lat="42.28338" lon="1.84133">
        <ele>1205.05</ele>
        <time>2019-04-08T00:11:51Z</time>
      </trkpt>
      <trkpt lat="42.28335" lon="1.84145">
        <ele>1202.472</ele>
        <time>2019-04-08T00:11:55Z</time>
      </trkpt>
      <trkpt lat="42.28332" lon="1.84158">
        <ele>1198.557</ele>
        <time>2019-04-08T00:11:59Z</time>
      </trkpt>
      <trkpt lat="42.28329" lon="1.84169">
        <ele>1195.768</ele>
        <time>2019-04-08T00:12:03Z</time>
      </trkpt>
      <trkpt lat="42.28326" lon="1.84181">
        <ele>1191.668</ele>
        <time>2019-04-08T00:12:06Z</time>
      </trkpt>
      <trkpt lat="42.28319" lon="1.8419">
        <ele>1189.342</ele>
        <time>2019-04-08T00:12:10Z</time>
      </trkpt>
      <trkpt lat="42.28316" lon="1.84203">
        <ele>1186.351</ele>
        <time>2019-04-08T00:12:14Z</time>
      </trkpt>
      <trkpt lat="42.28314" lon="1.84215">
        <ele>1183.463</ele>
        <time>2019-04-08T00:12:18Z</time>
      </trkpt>
      <trkpt lat="42.28309" lon="1.84226">
        <ele>1179.957</ele>
        <time>2019-04-08T00:12:22Z</time>
      </trkpt>
      <trkpt lat="42.28307" lon="1.84239">
        <ele>1176.9</ele>
        <time>2019-04-08T00:12:26Z</time>
      </trkpt>
      <trkpt lat="42.28302" lon="1.84251">
        <ele>1174.12</ele>
        <time>2019-04-08T00:12:30Z</time>
      </trkpt>
      <trkpt lat="42.28299" lon="1.84263">
        <ele>1172.208</ele>
        <time>2019-04-08T00:12:33Z</time>
      </trkpt>
      <trkpt lat="42.28295" lon="1.84275">
        <ele>1169.228</ele>
        <time>2019-04-08T00:12:37Z</time>
      </trkpt>
      <trkpt lat="42.28296" lon="1.84288">
        <ele>1166.49</ele>
        <time>2019-04-08T00:12:41Z</time>
      </trkpt>
      <trkpt lat="42.28293" lon="1.843">
        <ele>1163.365</ele>
        <time>2019-04-08T00:12:45Z</time>
      </trkpt>
      <trkpt lat="42.28288" lon="1.84311">
        <ele>1161.456</ele>
        <time>2019-04-08T00:12:49Z</time>
      </trkpt>
      <trkpt lat="42.28285" lon="1.84323">
        <ele>1158.936</ele>
        <time>2019-04-08T00:12:52Z</time>
      </trkpt>
      <trkpt lat="42.28286" lon="1.84336">
        <ele>1156.22</ele>
        <time>2019-04-08T00:12:56Z</time>
      </trkpt>
      <trkpt lat="42.28279" lon="1.84346">
        <ele>1153.419</ele>
        <time>2019-04-08T00:13:00Z</time>
      </trkpt>
      <trkpt lat="42.28273" lon="1.84357">
        <ele>1150.631</ele>
        <time>2019-04-08T00:13:04Z</time>
      </trkpt>
      <trkpt lat="42.28268" lon="1.84369">
        <ele>1148.697</ele>
        <time>2019-04-08T00:13:08Z</time>
      </trkpt>
      <trkpt lat="42.28261" lon="1.84377">
        <ele>1146.623</ele>
        <time>2019-04-08T00:13:12Z</time>
      </trkpt>
      <trkpt lat="42.28254" lon="1.84386">
        <ele>1142.925</ele>
        <time>2019-04-08T00:13:16Z</time>
      </trkpt>
      <trkpt lat="42.28246" lon="1.84397">
        <ele>1140.108</ele>
        <time>2019-04-08T00:13:20Z</time>
      </trkpt>
      <trkpt lat="42.2824" lon="1.84407">
        <ele>1137.812</ele>
        <time>2019-04-08T00:13:24Z</time>
      </trkpt>
      <trkpt lat="42.28234" lon="1.84417">
        <ele>1135.344</ele>
        <time>2019-04-08T00:13:28Z</time>
      </trkpt>
      <trkpt lat="42.28227" lon="1.84425">
        <ele>1133.029</ele>
        <time>2019-04-08T00:13:32Z</time>
      </trkpt>
      <trkpt lat="42.28222" lon="1.84437">
        <ele>1131.63</ele>
        <time>2019-04-08T00:13:36Z</time>
      </trkpt>
      <trkpt lat="42.28216" lon="1.84445">
        <ele>1130.28</ele>
        <time>2019-04-08T00:13:39Z</time>
      </trkpt>
      <trkpt lat="42.28211" lon="1.84456">
        <ele>1127.424</ele>
        <time>2019-04-08T00:13:43Z</time>
      </trkpt>
      <trkpt lat="42.28205" lon="1.84466">
        <ele>1124.233</ele>
        <time>2019-04-08T00:13:47Z</time>
      </trkpt>
      <trkpt lat="42.282" lon="1.84479">
        <ele>1121.975</ele>
        <time>2019-04-08T00:13:51Z</time>
      </trkpt>
      <trkpt lat="42.28195" lon="1.84491">
        <ele>1120.053</ele>
        <time>2019-04-08T00:13:55Z</time>
      </trkpt>
      <trkpt lat="42.28192" lon="1.84504">
        <ele>1117.104</ele>
        <time>2019-04-08T00:13:59Z</time>
      </trkpt>
      <trkpt lat="42.28186" lon="1.84515">
        <ele>1114.414</ele>
        <time>2019-04-08T00:14:03Z</time>
      </trkpt>
      <trkpt lat="42.28182" lon="1.84526">
        <ele>1111.908</ele>
        <time>2019-04-08T00:14:07Z</time>
      </trkpt>
      <trkpt lat="42.28177" lon="1.84539">
        <ele>1109.838</ele>
        <time>2019-04-08T00:14:11Z</time>
      </trkpt>
      <trkpt lat="42.2818" lon="1.84551">
        <ele>1108.08</ele>
        <time>2019-04-08T00:14:15Z</time>
      </trkpt>
      <trkpt lat="42.28178" lon="1.84564">
        <ele>1103.455</ele>
        <time>2019-04-08T00:14:19Z</time>
      </trkpt>
      <trkpt lat="42.28183" lon="1.84574">
        <ele>1100.636</ele>
        <time>2019-04-08T00:14:23Z</time>
      </trkpt>
      <trkpt lat="42.28182" lon="1.84588">
        <ele>1099.426</ele>
        <time>2019-04-08T00:14:27Z</time>
      </trkpt>
      <trkpt lat="42.28181" lon="1.84602">
        <ele>1097.41</ele>
        <time>2019-04-08T00:14:31Z</time>
      </trkpt>
      <trkpt lat="42.28181" lon="1.84615">
        <ele>1092.869</ele>
        <time>2019-04-08T00:14:35Z</time>
      </trkpt>
      <trkpt lat="42.28176" lon="1.84627">
        <ele>1089.491</ele>
        <time>2019-04-08T00:14:39Z</time>
      </trkpt>
      <trkpt lat="42.28177" lon="1.84641">
        <ele>1085.236</ele>
        <time>2019-04-08T00:14:43Z</time>
      </trkpt>
      <trkpt lat="42.28179" lon="1.84655">
        <ele>1082.517</ele>
        <time>2019-04-08T00:14:47Z</time>
      </trkpt>
      <trkpt lat="42.28174" lon="1.84666">
        <ele>1079.918</ele>
        <time>2019-04-08T00:14:51Z</time>
      </trkpt>
      <trkpt lat="42.28175" lon="1.84679">
        <ele>1077.308</ele>
        <time>2019-04-08T00:14:55Z</time>
      </trkpt>
      <trkpt lat="42.28172" lon="1.84691">
        <ele>1074.636</ele>
        <time>2019-04-08T00:14:59Z</time>
      </trkpt>
      <trkpt lat="42.28171" lon="1.84705">
        <ele>1073.018</ele>
        <time>2019-04-08T00:15:03Z</time>
      </trkpt>
      <trkpt lat="42.28167" lon="1.84716">
        <ele>1071.683</ele>
        <time>2019-04-08T00:15:06Z</time>
      </trkpt>
      <trkpt lat="42.28162" lon="1.84727">
        <ele>1069.694</ele>
        <time>2019-04-08T00:15:10Z</time>
      </trkpt>
      <trkpt lat="42.28157" lon="1.8474">
        <ele>1066.894</ele>
        <time>2019-04-08T00:15:15Z</time>
      </trkpt>
      <trkpt lat="42.28153" lon="1.84753">
        <ele>1065.598</ele>
        <time>2019-04-08T00:15:19Z</time>
      </trkpt>
      <trkpt lat="42.28149" lon="1.84765">
        <ele>1062.797</ele>
        <time>2019-04-08T00:15:22Z</time>
      </trkpt>
      <trkpt lat="42.28144" lon="1.84776">
        <ele>1059.869</ele>
        <time>2019-04-08T00:15:26Z</time>
      </trkpt>
      <trkpt lat="42.28138" lon="1.84785">
        <ele>1058.288</ele>
        <time>2019-04-08T00:15:30Z</time>
      </trkpt>
      <trkpt lat="42.28134" lon="1.84798">
        <ele>1056.724</ele>
        <time>2019-04-08T00:15:34Z</time>
      </trkpt>
      <trkpt lat="42.28126" lon="1.84806">
        <ele>1054.326</ele>
        <time>2019-04-08T00:15:38Z</time>
      </trkpt>
      <trkpt lat="42.28118" lon="1.84811">
        <ele>1051.408</ele>
        <time>2019-04-08T00:15:42Z</time>
      </trkpt>
      <trkpt lat="42.28114" lon="1.84823">
        <ele>1049.111</ele>
        <time>2019-04-08T00:15:46Z</time>
      </trkpt>
      <trkpt lat="42.28113" lon="1.84836">
        <ele>1045.493</ele>
        <time>2019-04-08T00:15:49Z</time>
      </trkpt>
      <trkpt lat="42.28108" lon="1.84848">
        <ele>1041.898</ele>
        <time>2019-04-08T00:15:53Z</time>
      </trkpt>
      <trkpt lat="42.28103" lon="1.84858">
        <ele>1039.479</ele>
        <time>2019-04-08T00:15:57Z</time>
      </trkpt>
      <trkpt lat="42.28104" lon="1.84871">
        <ele>1036.989</ele>
        <time>2019-04-08T00:16:01Z</time>
      </trkpt>
      <trkpt lat="42.28104" lon="1.84883">
        <ele>1033.053</ele>
        <time>2019-04-08T00:16:05Z</time>
      </trkpt>
      <trkpt lat="42.28114" lon="1.84886">
        <ele>1031.432</ele>
        <time>2019-04-08T00:16:09Z</time>
      </trkpt>
      <trkpt lat="42.28125" lon="1.84886">
        <ele>1030.414</ele>
        <time>2019-04-08T00:16:13Z</time>
      </trkpt>
      <trkpt lat="42.28134" lon="1.84885">
        <ele>1030.129</ele>
        <time>2019-04-08T00:16:17Z</time>
      </trkpt>
      <trkpt lat="42.28143" lon="1.84885">
        <ele>1029.9</ele>
        <time>2019-04-08T00:16:20Z</time>
      </trkpt>
      <trkpt lat="42.28153" lon="1.84884">
        <ele>1029.32</ele>
        <time>2019-04-08T00:16:24Z</time>
      </trkpt>
      <trkpt lat="42.28154" lon="1.84885">
        <ele>1026.008</ele>
        <time>2019-04-08T00:16:25Z</time>
      </trkpt>
      <trkpt lat="42.28147" lon="1.84893">
        <ele>1025.455</ele>
        <time>2019-04-08T00:16:29Z</time>
      </trkpt>
      <trkpt lat="42.28138" lon="1.84899">
        <ele>1024.367</ele>
        <time>2019-04-08T00:16:33Z</time>
      </trkpt>
      <trkpt lat="42.2813" lon="1.84905">
        <ele>1023.092</ele>
        <time>2019-04-08T00:16:36Z</time>
      </trkpt>
      <trkpt lat="42.28121" lon="1.84909">
        <ele>1021.453</ele>
        <time>2019-04-08T00:16:40Z</time>
      </trkpt>
      <trkpt lat="42.28111" lon="1.84904">
        <ele>1020.353</ele>
        <time>2019-04-08T00:16:44Z</time>
      </trkpt>
      <trkpt lat="42.28103" lon="1.84899">
        <ele>1019.647</ele>
        <time>2019-04-08T00:16:48Z</time>
      </trkpt>
      <trkpt lat="42.28097" lon="1.84893">
        <ele>1018.396</ele>
        <time>2019-04-08T00:16:51Z</time>
      </trkpt>
      <trkpt lat="42.28122" lon="1.84917">
        <ele>995.428</ele>
        <time>2019-04-08T00:17:03Z</time>
      </trkpt>
      <trkpt lat="42.28126" lon="1.84914">
        <ele>996.566</ele>
        <time>2019-04-08T00:17:05Z</time>
      </trkpt>
      <trkpt lat="42.28136" lon="1.84909">
        <ele>1000.229</ele>
        <time>2019-04-08T00:17:09Z</time>
      </trkpt>
      <trkpt lat="42.28145" lon="1.84903">
        <ele>1000.921</ele>
        <time>2019-04-08T00:17:13Z</time>
      </trkpt>
      <trkpt lat="42.28153" lon="1.84897">
        <ele>1001.908</ele>
        <time>2019-04-08T00:17:17Z</time>
      </trkpt>
      <trkpt lat="42.28173" lon="1.84883">
        <ele>1003.199</ele>
        <time>2019-04-08T00:17:26Z</time>
      </trkpt>
      <trkpt lat="42.28175" lon="1.84882">
        <ele>1002.961</ele>
        <time>2019-04-08T00:17:27Z</time>
      </trkpt>
      <trkpt lat="42.28179" lon="1.84878">
        <ele>1004.086</ele>
        <time>2019-04-08T00:17:29Z</time>
      </trkpt>
      <trkpt lat="42.28182" lon="1.84862">
        <ele>1005.847</ele>
        <time>2019-04-08T00:17:33Z</time>
      </trkpt>
      <trkpt lat="42.28192" lon="1.84849">
        <ele>1008.987</ele>
        <time>2019-04-08T00:17:39Z</time>
      </trkpt>
      <trkpt lat="42.28201" lon="1.84838">
        <ele>1009.691</ele>
        <time>2019-04-08T00:17:44Z</time>
      </trkpt>
      <trkpt lat="42.28203" lon="1.84836">
        <ele>1011.16</ele>
        <time>2019-04-08T00:17:45Z</time>
      </trkpt>
      <trkpt lat="42.28204" lon="1.84832">
        <ele>1011.232</ele>
        <time>2019-04-08T00:17:46Z</time>
      </trkpt>
      <trkpt lat="42.28216" lon="1.84817">
        <ele>1014.919</ele>
        <time>2019-04-08T00:17:52Z</time>
      </trkpt>
      <trkpt lat="42.28219" lon="1.84813">
        <ele>1015.509</ele>
        <time>2019-04-08T00:17:54Z</time>
      </trkpt>
      <trkpt lat="42.2822" lon="1.84808">
        <ele>1016.419</ele>
        <time>2019-04-08T00:17:56Z</time>
      </trkpt>
      <trkpt lat="42.28229" lon="1.84786">
        <ele>1019.408</ele>
        <time>2019-04-08T00:18:03Z</time>
      </trkpt>
      <trkpt lat="42.28235" lon="1.84759">
        <ele>1022.064</ele>
        <time>2019-04-08T00:18:11Z</time>
      </trkpt>
      <trkpt lat="42.28244" lon="1.84739">
        <ele>1024.696</ele>
        <time>2019-04-08T00:18:18Z</time>
      </trkpt>
      <trkpt lat="42.28246" lon="1.84733">
        <ele>1025.141</ele>
        <time>2019-04-08T00:18:20Z</time>
      </trkpt>
      <trkpt lat="42.28256" lon="1.84717">
        <ele>1027.962</ele>
        <time>2019-04-08T00:18:27Z</time>
      </trkpt>
      <trkpt lat="42.2826" lon="1.84714">
        <ele>1029.872</ele>
        <time>2019-04-08T00:18:28Z</time>
      </trkpt>
      <trkpt lat="42.28265" lon="1.84708">
        <ele>1032.266</ele>
        <time>2019-04-08T00:18:31Z</time>
      </trkpt>
      <trkpt lat="42.28278" lon="1.84695">
        <ele>1035.735</ele>
        <time>2019-04-08T00:18:37Z</time>
      </trkpt>
      <trkpt lat="42.28288" lon="1.84689">
        <ele>1038.147</ele>
        <time>2019-04-08T00:18:42Z</time>
      </trkpt>
      <trkpt lat="42.28293" lon="1.84685">
        <ele>1039.363</ele>
        <time>2019-04-08T00:18:44Z</time>
      </trkpt>
      <trkpt lat="42.28297" lon="1.84684">
        <ele>1040.344</ele>
        <time>2019-04-08T00:18:46Z</time>
      </trkpt>
      <trkpt lat="42.28315" lon="1.84681">
        <ele>1042.418</ele>
        <time>2019-04-08T00:18:53Z</time>
      </trkpt>
      <trkpt lat="42.28321" lon="1.84685">
        <ele>1042.208</ele>
        <time>2019-04-08T00:18:56Z</time>
      </trkpt>
      <trkpt lat="42.28326" lon="1.84689">
        <ele>1043.399</ele>
        <time>2019-04-08T00:18:58Z</time>
      </trkpt>
      <trkpt lat="42.28327" lon="1.84694">
        <ele>1046.791</ele>
        <time>2019-04-08T00:19:00Z</time>
      </trkpt>
      <trkpt lat="42.28326" lon="1.84699">
        <ele>1047.696</ele>
        <time>2019-04-08T00:19:01Z</time>
      </trkpt>
      <trkpt lat="42.28329" lon="1.84719">
        <ele>1051.057</ele>
        <time>2019-04-08T00:19:07Z</time>
      </trkpt>
      <trkpt lat="42.2833" lon="1.84727">
        <ele>1050.147</ele>
        <time>2019-04-08T00:19:10Z</time>
      </trkpt>
      <trkpt lat="42.28331" lon="1.8473">
        <ele>1049.711</ele>
        <time>2019-04-08T00:19:10Z</time>
      </trkpt>
      <trkpt lat="42.28331" lon="1.84746">
        <ele>1051.08</ele>
        <time>2019-04-08T00:19:15Z</time>
      </trkpt>
      <trkpt lat="42.28333" lon="1.84761">
        <ele>1053.892</ele>
        <time>2019-04-08T00:19:20Z</time>
      </trkpt>
      <trkpt lat="42.28335" lon="1.84767">
        <ele>1056.617</ele>
        <time>2019-04-08T00:19:22Z</time>
      </trkpt>
      <trkpt lat="42.28336" lon="1.84771">
        <ele>1058.287</ele>
        <time>2019-04-08T00:19:23Z</time>
      </trkpt>
      <trkpt lat="42.28343" lon="1.84783">
        <ele>1059.815</ele>
        <time>2019-04-08T00:19:28Z</time>
      </trkpt>
      <trkpt lat="42.28347" lon="1.84782">
        <ele>1060.808</ele>
        <time>2019-04-08T00:19:29Z</time>
      </trkpt>
      <trkpt lat="42.28357" lon="1.84793">
        <ele>1063.034</ele>
        <time>2019-04-08T00:19:34Z</time>
      </trkpt>
      <trkpt lat="42.28361" lon="1.84796">
        <ele>1063.996</ele>
        <time>2019-04-08T00:19:36Z</time>
      </trkpt>
      <trkpt lat="42.28373" lon="1.84807">
        <ele>1066.151</ele>
        <time>2019-04-08T00:19:42Z</time>
      </trkpt>
      <trkpt lat="42.2838" lon="1.84811">
        <ele>1067.972</ele>
        <time>2019-04-08T00:19:45Z</time>
      </trkpt>
      <trkpt lat="42.28381" lon="1.8481">
        <ele>1068.092</ele>
        <time>2019-04-08T00:19:45Z</time>
      </trkpt>
      <trkpt lat="42.28384" lon="1.8481">
        <ele>1068.876</ele>
        <time>2019-04-08T00:19:46Z</time>
      </trkpt>
      <trkpt lat="42.2839" lon="1.84814">
        <ele>1070.315</ele>
        <time>2019-04-08T00:19:49Z</time>
      </trkpt>
      <trkpt lat="42.28401" lon="1.84817">
        <ele>1072.397</ele>
        <time>2019-04-08T00:19:54Z</time>
      </trkpt>
      <trkpt lat="42.28403" lon="1.84817">
        <ele>1071.776</ele>
        <time>2019-04-08T00:19:54Z</time>
      </trkpt>
      <trkpt lat="42.28429" lon="1.84822">
        <ele>1073.39</ele>
        <time>2019-04-08T00:20:05Z</time>
      </trkpt>
      <trkpt lat="42.28446" lon="1.84823">
        <ele>1073.619</ele>
        <time>2019-04-08T00:20:12Z</time>
      </trkpt>
      <trkpt lat="42.28466" lon="1.848">
        <ele>1076.008</ele>
        <time>2019-04-08T00:20:22Z</time>
      </trkpt>
      <trkpt lat="42.28478" lon="1.84777">
        <ele>1078.13</ele>
        <time>2019-04-08T00:20:31Z</time>
      </trkpt>
      <trkpt lat="42.28492" lon="1.84763">
        <ele>1080.032</ele>
        <time>2019-04-08T00:20:38Z</time>
      </trkpt>
      <trkpt lat="42.28493" lon="1.8476">
        <ele>1080.277</ele>
        <time>2019-04-08T00:20:38Z</time>
      </trkpt>
      <trkpt lat="42.28509" lon="1.8475">
        <ele>1083.268</ele>
        <time>2019-04-08T00:20:45Z</time>
      </trkpt>
      <trkpt lat="42.28524" lon="1.84729">
        <ele>1085.768</ele>
        <time>2019-04-08T00:20:54Z</time>
      </trkpt>
      <trkpt lat="42.28532" lon="1.84719">
        <ele>1088.572</ele>
        <time>2019-04-08T00:20:58Z</time>
      </trkpt>
      <trkpt lat="42.28539" lon="1.84711">
        <ele>1090.471</ele>
        <time>2019-04-08T00:21:02Z</time>
      </trkpt>
      <trkpt lat="42.28541" lon="1.84708">
        <ele>1090.993</ele>
        <time>2019-04-08T00:21:03Z</time>
      </trkpt>
      <trkpt lat="42.2855" lon="1.84691">
        <ele>1092.335</ele>
        <time>2019-04-08T00:21:09Z</time>
      </trkpt>
      <trkpt lat="42.28562" lon="1.84667">
        <ele>1094.786</ele>
        <time>2019-04-08T00:21:18Z</time>
      </trkpt>
      <trkpt lat="42.28575" lon="1.84652">
        <ele>1096.714</ele>
        <time>2019-04-08T00:21:25Z</time>
      </trkpt>
      <trkpt lat="42.28577" lon="1.8465">
        <ele>1097.208</ele>
        <time>2019-04-08T00:21:26Z</time>
      </trkpt>
      <trkpt lat="42.28584" lon="1.84641">
        <ele>1097.366</ele>
        <time>2019-04-08T00:21:30Z</time>
      </trkpt>
      <trkpt lat="42.28593" lon="1.84616">
        <ele>1099.158</ele>
        <time>2019-04-08T00:21:38Z</time>
      </trkpt>
      <trkpt lat="42.28595" lon="1.84611">
        <ele>1100.293</ele>
        <time>2019-04-08T00:21:40Z</time>
      </trkpt>
      <trkpt lat="42.28597" lon="1.84603">
        <ele>1099.924</ele>
        <time>2019-04-08T00:21:42Z</time>
      </trkpt>
      <trkpt lat="42.28606" lon="1.84573">
        <ele>1101.544</ele>
        <time>2019-04-08T00:21:52Z</time>
      </trkpt>
      <trkpt lat="42.28607" lon="1.84564">
        <ele>1103.078</ele>
        <time>2019-04-08T00:21:54Z</time>
      </trkpt>
      <trkpt lat="42.28609" lon="1.84558">
        <ele>1104.057</ele>
        <time>2019-04-08T00:21:56Z</time>
      </trkpt>
      <trkpt lat="42.28618" lon="1.84541">
        <ele>1103.869</ele>
        <time>2019-04-08T00:22:03Z</time>
      </trkpt>
      <trkpt lat="42.28622" lon="1.84539">
        <ele>1105.576</ele>
        <time>2019-04-08T00:22:05Z</time>
      </trkpt>
      <trkpt lat="42.28639" lon="1.84536">
        <ele>1108.09</ele>
        <time>2019-04-08T00:22:11Z</time>
      </trkpt>
      <trkpt lat="42.28636" lon="1.84549">
        <ele>1108.619</ele>
        <time>2019-04-08T00:22:16Z</time>
      </trkpt>
      <trkpt lat="42.28633" lon="1.84555">
        <ele>1109.208</ele>
        <time>2019-04-08T00:22:18Z</time>
      </trkpt>
      <trkpt lat="42.28631" lon="1.84581">
        <ele>1110.74</ele>
        <time>2019-04-08T00:22:25Z</time>
      </trkpt>
      <trkpt lat="42.28624" lon="1.84613">
        <ele>1110.772</ele>
        <time>2019-04-08T00:22:35Z</time>
      </trkpt>
      <trkpt lat="42.28614" lon="1.84642">
        <ele>1112.077</ele>
        <time>2019-04-08T00:22:45Z</time>
      </trkpt>
      <trkpt lat="42.28614" lon="1.84664">
        <ele>1112.038</ele>
        <time>2019-04-08T00:22:51Z</time>
      </trkpt>
      <trkpt lat="42.28609" lon="1.84679">
        <ele>1112.128</ele>
        <time>2019-04-08T00:22:56Z</time>
      </trkpt>
      <trkpt lat="42.28595" lon="1.84704">
        <ele>1114.062</ele>
        <time>2019-04-08T00:23:05Z</time>
      </trkpt>
      <trkpt lat="42.28591" lon="1.84739">
        <ele>1116.551</ele>
        <time>2019-04-08T00:23:16Z</time>
      </trkpt>
      <trkpt lat="42.28588" lon="1.84768">
        <ele>1118.613</ele>
        <time>2019-04-08T00:23:24Z</time>
      </trkpt>
      <trkpt lat="42.28588" lon="1.84779">
        <ele>1120.853</ele>
        <time>2019-04-08T00:23:28Z</time>
      </trkpt>
      <trkpt lat="42.28588" lon="1.84813">
        <ele>1123.204</ele>
        <time>2019-04-08T00:23:38Z</time>
      </trkpt>
      <trkpt lat="42.28585" lon="1.84845">
        <ele>1119.914</ele>
        <time>2019-04-08T00:23:47Z</time>
      </trkpt>
      <trkpt lat="42.28585" lon="1.84849">
        <ele>1120.408</ele>
        <time>2019-04-08T00:23:48Z</time>
      </trkpt>
      <trkpt lat="42.28589" lon="1.84861">
        <ele>1123.758</ele>
        <time>2019-04-08T00:23:52Z</time>
      </trkpt>
      <trkpt lat="42.28592" lon="1.8487">
        <ele>1123.76</ele>
        <time>2019-04-08T00:23:55Z</time>
      </trkpt>
      <trkpt lat="42.28593" lon="1.84877">
        <ele>1123.125</ele>
        <time>2019-04-08T00:23:58Z</time>
      </trkpt>
      <trkpt lat="42.28597" lon="1.84892">
        <ele>1125.916</ele>
        <time>2019-04-08T00:24:02Z</time>
      </trkpt>
      <trkpt lat="42.28599" lon="1.84893">
        <ele>1127.096</ele>
        <time>2019-04-08T00:24:03Z</time>
      </trkpt>
      <trkpt lat="42.28602" lon="1.84886">
        <ele>1129.55</ele>
        <time>2019-04-08T00:24:06Z</time>
      </trkpt>
      <trkpt lat="42.28602" lon="1.84884">
        <ele>1131.839</ele>
        <time>2019-04-08T00:24:06Z</time>
      </trkpt>
      <trkpt lat="42.28607" lon="1.84886">
        <ele>1133.651</ele>
        <time>2019-04-08T00:24:08Z</time>
      </trkpt>
      <trkpt lat="42.28608" lon="1.84884">
        <ele>1134.233</ele>
        <time>2019-04-08T00:24:09Z</time>
      </trkpt>
      <trkpt lat="42.28613" lon="1.84865">
        <ele>1138.223</ele>
        <time>2019-04-08T00:24:15Z</time>
      </trkpt>
      <trkpt lat="42.28615" lon="1.84864">
        <ele>1138.615</ele>
        <time>2019-04-08T00:24:16Z</time>
      </trkpt>
      <trkpt lat="42.28616" lon="1.84862">
        <ele>1139.408</ele>
        <time>2019-04-08T00:24:17Z</time>
      </trkpt>
      <trkpt lat="42.28618" lon="1.84856">
        <ele>1140.096</ele>
        <time>2019-04-08T00:24:19Z</time>
      </trkpt>
      <trkpt lat="42.28621" lon="1.8485">
        <ele>1140.868</ele>
        <time>2019-04-08T00:24:21Z</time>
      </trkpt>
      <trkpt lat="42.28622" lon="1.84852">
        <ele>1142.423</ele>
        <time>2019-04-08T00:24:22Z</time>
      </trkpt>
      <trkpt lat="42.28626" lon="1.84854">
        <ele>1143.344</ele>
        <time>2019-04-08T00:24:23Z</time>
      </trkpt>
      <trkpt lat="42.28632" lon="1.84849">
        <ele>1147.384</ele>
        <time>2019-04-08T00:24:26Z</time>
      </trkpt>
      <trkpt lat="42.28633" lon="1.84848">
        <ele>1147.318</ele>
        <time>2019-04-08T00:24:27Z</time>
      </trkpt>
      <trkpt lat="42.28634" lon="1.84849">
        <ele>1149.197</ele>
        <time>2019-04-08T00:24:27Z</time>
      </trkpt>
      <trkpt lat="42.28639" lon="1.84851">
        <ele>1151.579</ele>
        <time>2019-04-08T00:24:29Z</time>
      </trkpt>
      <trkpt lat="42.28645" lon="1.84841">
        <ele>1154.847</ele>
        <time>2019-04-08T00:24:33Z</time>
      </trkpt>
      <trkpt lat="42.28646" lon="1.84841">
        <ele>1154.829</ele>
        <time>2019-04-08T00:24:33Z</time>
      </trkpt>
      <trkpt lat="42.28654" lon="1.84839">
        <ele>1158.321</ele>
        <time>2019-04-08T00:24:37Z</time>
      </trkpt>
      <trkpt lat="42.28658" lon="1.84834">
        <ele>1161.508</ele>
        <time>2019-04-08T00:24:39Z</time>
      </trkpt>
      <trkpt lat="42.28662" lon="1.84824">
        <ele>1163.327</ele>
        <time>2019-04-08T00:24:42Z</time>
      </trkpt>
      <trkpt lat="42.28665" lon="1.84825">
        <ele>1164.439</ele>
        <time>2019-04-08T00:24:43Z</time>
      </trkpt>
      <trkpt lat="42.28673" lon="1.84813">
        <ele>1168.334</ele>
        <time>2019-04-08T00:24:48Z</time>
      </trkpt>
      <trkpt lat="42.28676" lon="1.84812">
        <ele>1169.785</ele>
        <time>2019-04-08T00:24:49Z</time>
      </trkpt>
      <trkpt lat="42.28681" lon="1.84812">
        <ele>1172.645</ele>
        <time>2019-04-08T00:24:52Z</time>
      </trkpt>
      <trkpt lat="42.28687" lon="1.84806">
        <ele>1175.619</ele>
        <time>2019-04-08T00:24:54Z</time>
      </trkpt>
      <trkpt lat="42.28692" lon="1.84804">
        <ele>1180.058</ele>
        <time>2019-04-08T00:24:57Z</time>
      </trkpt>
      <trkpt lat="42.28697" lon="1.84803">
        <ele>1180.65</ele>
        <time>2019-04-08T00:24:59Z</time>
      </trkpt>
      <trkpt lat="42.28707" lon="1.84793">
        <ele>1184.285</ele>
        <time>2019-04-08T00:25:04Z</time>
      </trkpt>
      <trkpt lat="42.28718" lon="1.84786">
        <ele>1186.189</ele>
        <time>2019-04-08T00:25:08Z</time>
      </trkpt>
      <trkpt lat="42.2872" lon="1.84783">
        <ele>1187.617</ele>
        <time>2019-04-08T00:25:10Z</time>
      </trkpt>
      <trkpt lat="42.28726" lon="1.84773">
        <ele>1190.908</ele>
        <time>2019-04-08T00:25:14Z</time>
      </trkpt>
      <trkpt lat="42.28727" lon="1.8477">
        <ele>1191.571</ele>
        <time>2019-04-08T00:25:15Z</time>
      </trkpt>
      <trkpt lat="42.28731" lon="1.84766">
        <ele>1193.223</ele>
        <time>2019-04-08T00:25:16Z</time>
      </trkpt>
      <trkpt lat="42.28739" lon="1.84761">
        <ele>1196.148</ele>
        <time>2019-04-08T00:25:20Z</time>
      </trkpt>
      <trkpt lat="42.28742" lon="1.84759">
        <ele>1198.099</ele>
        <time>2019-04-08T00:25:22Z</time>
      </trkpt>
      <trkpt lat="42.2875" lon="1.84755">
        <ele>1201.059</ele>
        <time>2019-04-08T00:25:25Z</time>
      </trkpt>
      <trkpt lat="42.28762" lon="1.84747">
        <ele>1204.563</ele>
        <time>2019-04-08T00:25:30Z</time>
      </trkpt>
      <trkpt lat="42.28765" lon="1.84746">
        <ele>1205.572</ele>
        <time>2019-04-08T00:25:32Z</time>
      </trkpt>
      <trkpt lat="42.28774" lon="1.84746">
        <ele>1208.214</ele>
        <time>2019-04-08T00:25:35Z</time>
      </trkpt>
      <trkpt lat="42.28775" lon="1.84747">
        <ele>1209.113</ele>
        <time>2019-04-08T00:25:35Z</time>
      </trkpt>
      <trkpt lat="42.28784" lon="1.84752">
        <ele>1213.143</ele>
        <time>2019-04-08T00:25:39Z</time>
      </trkpt>
      <trkpt lat="42.28794" lon="1.84751">
        <ele>1215.307</ele>
        <time>2019-04-08T00:25:43Z</time>
      </trkpt>
      <trkpt lat="42.28802" lon="1.84743">
        <ele>1218.308</ele>
        <time>2019-04-08T00:25:47Z</time>
      </trkpt>
      <trkpt lat="42.28805" lon="1.8474">
        <ele>1220.354</ele>
        <time>2019-04-08T00:25:49Z</time>
      </trkpt>
      <trkpt lat="42.28816" lon="1.84735">
        <ele>1223.756</ele>
        <time>2019-04-08T00:25:54Z</time>
      </trkpt>
      <trkpt lat="42.28817" lon="1.84734">
        <ele>1223.741</ele>
        <time>2019-04-08T00:25:54Z</time>
      </trkpt>
      <trkpt lat="42.28818" lon="1.84732">
        <ele>1223.572</ele>
        <time>2019-04-08T00:25:55Z</time>
      </trkpt>
      <trkpt lat="42.28825" lon="1.84723">
        <ele>1225.662</ele>
        <time>2019-04-08T00:25:58Z</time>
      </trkpt>
      <trkpt lat="42.2883" lon="1.84719">
        <ele>1227.396</ele>
        <time>2019-04-08T00:26:01Z</time>
      </trkpt>
      <trkpt lat="42.28833" lon="1.84716">
        <ele>1230.015</ele>
        <time>2019-04-08T00:26:02Z</time>
      </trkpt>
      <trkpt lat="42.28837" lon="1.84715">
        <ele>1227.947</ele>
        <time>2019-04-08T00:26:04Z</time>
      </trkpt>
      <trkpt lat="42.28848" lon="1.84709">
        <ele>1228.773</ele>
        <time>2019-04-08T00:26:09Z</time>
      </trkpt>
      <trkpt lat="42.28854" lon="1.84707">
        <ele>1232.385</ele>
        <time>2019-04-08T00:26:11Z</time>
      </trkpt>
      <trkpt lat="42.28863" lon="1.84711">
        <ele>1233.213</ele>
        <time>2019-04-08T00:26:15Z</time>
      </trkpt>
      <trkpt lat="42.28872" lon="1.84716">
        <ele>1236.108</ele>
        <time>2019-04-08T00:26:19Z</time>
      </trkpt>
      <trkpt lat="42.28874" lon="1.84719">
        <ele>1236.83</ele>
        <time>2019-04-08T00:26:20Z</time>
      </trkpt>
      <trkpt lat="42.28879" lon="1.84723">
        <ele>1240.162</ele>
        <time>2019-04-08T00:26:23Z</time>
      </trkpt>
      <trkpt lat="42.28881" lon="1.84724">
        <ele>1241.747</ele>
        <time>2019-04-08T00:26:23Z</time>
      </trkpt>
      <trkpt lat="42.28883" lon="1.84727">
        <ele>1244.348</ele>
        <time>2019-04-08T00:26:25Z</time>
      </trkpt>
      <trkpt lat="42.28888" lon="1.84734">
        <ele>1244.228</ele>
        <time>2019-04-08T00:26:27Z</time>
      </trkpt>
      <trkpt lat="42.28892" lon="1.84738">
        <ele>1246.372</ele>
        <time>2019-04-08T00:26:29Z</time>
      </trkpt>
      <trkpt lat="42.28898" lon="1.84739">
        <ele>1248.541</ele>
        <time>2019-04-08T00:26:32Z</time>
      </trkpt>
      <trkpt lat="42.28899" lon="1.84743">
        <ele>1251.443</ele>
        <time>2019-04-08T00:26:33Z</time>
      </trkpt>
      <trkpt lat="42.289" lon="1.84748">
        <ele>1252.531</ele>
        <time>2019-04-08T00:26:34Z</time>
      </trkpt>
      <trkpt lat="42.28905" lon="1.84756">
        <ele>1254.461</ele>
        <time>2019-04-08T00:26:37Z</time>
      </trkpt>
      <trkpt lat="42.28908" lon="1.84767">
        <ele>1257.707</ele>
        <time>2019-04-08T00:26:41Z</time>
      </trkpt>
      <trkpt lat="42.28911" lon="1.84764">
        <ele>1260.508</ele>
        <time>2019-04-08T00:26:42Z</time>
      </trkpt>
      <trkpt lat="42.28916" lon="1.84754">
        <ele>1261.566</ele>
        <time>2019-04-08T00:26:46Z</time>
      </trkpt>
      <trkpt lat="42.28918" lon="1.84752">
        <ele>1262.758</ele>
        <time>2019-04-08T00:26:47Z</time>
      </trkpt>
      <trkpt lat="42.2892" lon="1.84748">
        <ele>1265.823</ele>
        <time>2019-04-08T00:26:48Z</time>
      </trkpt>
      <trkpt lat="42.2892" lon="1.84747">
        <ele>1266.474</ele>
        <time>2019-04-08T00:26:49Z</time>
      </trkpt>
      <trkpt lat="42.28926" lon="1.84737">
        <ele>1267.924</ele>
        <time>2019-04-08T00:26:52Z</time>
      </trkpt>
      <trkpt lat="42.28942" lon="1.84727">
        <ele>1269.868</ele>
        <time>2019-04-08T00:26:59Z</time>
      </trkpt>
      <trkpt lat="42.28943" lon="1.84727">
        <ele>1270.297</ele>
        <time>2019-04-08T00:27:00Z</time>
      </trkpt>
      <trkpt lat="42.28953" lon="1.84718">
        <ele>1273.029</ele>
        <time>2019-04-08T00:27:04Z</time>
      </trkpt>
      <trkpt lat="42.28956" lon="1.84716">
        <ele>1275.232</ele>
        <time>2019-04-08T00:27:06Z</time>
      </trkpt>
      <trkpt lat="42.2896" lon="1.84715">
        <ele>1276.192</ele>
        <time>2019-04-08T00:27:07Z</time>
      </trkpt>
      <trkpt lat="42.28963" lon="1.84717">
        <ele>1279.811</ele>
        <time>2019-04-08T00:27:09Z</time>
      </trkpt>
      <trkpt lat="42.28964" lon="1.8472">
        <ele>1278.308</ele>
        <time>2019-04-08T00:27:10Z</time>
      </trkpt>
      <trkpt lat="42.28964" lon="1.84724">
        <ele>1284.796</ele>
        <time>2019-04-08T00:27:11Z</time>
      </trkpt>
      <trkpt lat="42.28965" lon="1.8473">
        <ele>1285.128</ele>
        <time>2019-04-08T00:27:13Z</time>
      </trkpt>
      <trkpt lat="42.28966" lon="1.84736">
        <ele>1283.243</ele>
        <time>2019-04-08T00:27:15Z</time>
      </trkpt>
      <trkpt lat="42.28963" lon="1.84744">
        <ele>1286.584</ele>
        <time>2019-04-08T00:27:17Z</time>
      </trkpt>
      <trkpt lat="42.28964" lon="1.84745">
        <ele>1286.744</ele>
        <time>2019-04-08T00:27:18Z</time>
      </trkpt>
      <trkpt lat="42.28968" lon="1.84752">
        <ele>1288.848</ele>
        <time>2019-04-08T00:27:20Z</time>
      </trkpt>
      <trkpt lat="42.28969" lon="1.84756">
        <ele>1289.997</ele>
        <time>2019-04-08T00:27:22Z</time>
      </trkpt>
      <trkpt lat="42.28969" lon="1.8476">
        <ele>1292.339</ele>
        <time>2019-04-08T00:27:23Z</time>
      </trkpt>
      <trkpt lat="42.28969" lon="1.84761">
        <ele>1291.771</ele>
        <time>2019-04-08T00:27:23Z</time>
      </trkpt>
      <trkpt lat="42.28967" lon="1.84766">
        <ele>1293.941</ele>
        <time>2019-04-08T00:27:25Z</time>
      </trkpt>
      <trkpt lat="42.2897" lon="1.84767">
        <ele>1296.615</ele>
        <time>2019-04-08T00:27:26Z</time>
      </trkpt>
      <trkpt lat="42.2897" lon="1.84766">
        <ele>1296.708</ele>
        <time>2019-04-08T00:27:26Z</time>
      </trkpt>
      <trkpt lat="42.28971" lon="1.84766">
        <ele>1295.17</ele>
        <time>2019-04-08T00:27:27Z</time>
      </trkpt>
      <trkpt lat="42.28977" lon="1.84765">
        <ele>1297.652</ele>
        <time>2019-04-08T00:27:29Z</time>
      </trkpt>
      <trkpt lat="42.2898" lon="1.84762">
        <ele>1298.547</ele>
        <time>2019-04-08T00:27:30Z</time>
      </trkpt>
      <trkpt lat="42.28985" lon="1.84761">
        <ele>1299.938</ele>
        <time>2019-04-08T00:27:32Z</time>
      </trkpt>
      <trkpt lat="42.28991" lon="1.84762">
        <ele>1302.988</ele>
        <time>2019-04-08T00:27:35Z</time>
      </trkpt>
      <trkpt lat="42.29001" lon="1.84762">
        <ele>1304.442</ele>
        <time>2019-04-08T00:27:39Z</time>
      </trkpt>
      <trkpt lat="42.29008" lon="1.84764">
        <ele>1307.791</ele>
        <time>2019-04-08T00:27:42Z</time>
      </trkpt>
      <trkpt lat="42.29008" lon="1.84765">
        <ele>1309.663</ele>
        <time>2019-04-08T00:27:42Z</time>
      </trkpt>
      <trkpt lat="42.29007" lon="1.84771">
        <ele>1310.777</ele>
        <time>2019-04-08T00:27:44Z</time>
      </trkpt>
      <trkpt lat="42.29009" lon="1.84779">
        <ele>1314.661</ele>
        <time>2019-04-08T00:27:47Z</time>
      </trkpt>
      <trkpt lat="42.2901" lon="1.8478">
        <ele>1317.827</ele>
        <time>2019-04-08T00:27:47Z</time>
      </trkpt>
      <trkpt lat="42.29014" lon="1.84783">
        <ele>1316.808</ele>
        <time>2019-04-08T00:27:49Z</time>
      </trkpt>
      <trkpt lat="42.29023" lon="1.84798">
        <ele>1320.27</ele>
        <time>2019-04-08T00:27:55Z</time>
      </trkpt>
      <trkpt lat="42.29023" lon="1.848">
        <ele>1322.352</ele>
        <time>2019-04-08T00:27:55Z</time>
      </trkpt>
      <trkpt lat="42.2902" lon="1.84812">
        <ele>1324.737</ele>
        <time>2019-04-08T00:27:59Z</time>
      </trkpt>
      <trkpt lat="42.29021" lon="1.84815">
        <ele>1325.998</ele>
        <time>2019-04-08T00:28:00Z</time>
      </trkpt>
      <trkpt lat="42.29031" lon="1.84814">
        <ele>1329.888</ele>
        <time>2019-04-08T00:28:04Z</time>
      </trkpt>
      <trkpt lat="42.29032" lon="1.84813">
        <ele>1329.992</ele>
        <time>2019-04-08T00:28:04Z</time>
      </trkpt>
      <trkpt lat="42.29033" lon="1.84811">
        <ele>1329.811</ele>
        <time>2019-04-08T00:28:05Z</time>
      </trkpt>
      <trkpt lat="42.29038" lon="1.84807">
        <ele>1330.713</ele>
        <time>2019-04-08T00:28:07Z</time>
      </trkpt>
      <trkpt lat="42.29043" lon="1.84795">
        <ele>1330.277</ele>
        <time>2019-04-08T00:28:11Z</time>
      </trkpt>
      <trkpt lat="42.29046" lon="1.84792">
        <ele>1333.261</ele>
        <time>2019-04-08T00:28:13Z</time>
      </trkpt>
      <trkpt lat="42.2905" lon="1.8479">
        <ele>1332.227</ele>
        <time>2019-04-08T00:28:15Z</time>
      </trkpt>
      <trkpt lat="42.29054" lon="1.84791">
        <ele>1333.108</ele>
        <time>2019-04-08T00:28:16Z</time>
      </trkpt>
      <trkpt lat="42.29063" lon="1.84796">
        <ele>1333.82</ele>
        <time>2019-04-08T00:28:20Z</time>
      </trkpt>
      <trkpt lat="42.29067" lon="1.84797">
        <ele>1335.412</ele>
        <time>2019-04-08T00:28:22Z</time>
      </trkpt>
      <trkpt lat="42.29074" lon="1.84801">
        <ele>1337.017</ele>
        <time>2019-04-08T00:28:25Z</time>
      </trkpt>
      <trkpt lat="42.29081" lon="1.84809">
        <ele>1340.218</ele>
        <time>2019-04-08T00:28:29Z</time>
      </trkpt>
      <trkpt lat="42.29082" lon="1.8481">
        <ele>1339.858</ele>
        <time>2019-04-08T00:28:29Z</time>
      </trkpt>
      <trkpt lat="42.29086" lon="1.84813">
        <ele>1340.332</ele>
        <time>2019-04-08T00:28:31Z</time>
      </trkpt>
      <trkpt lat="42.29089" lon="1.84813">
        <ele>1341.531</ele>
        <time>2019-04-08T00:28:32Z</time>
      </trkpt>
      <trkpt lat="42.29104" lon="1.84813">
        <ele>1344.323</ele>
        <time>2019-04-08T00:28:38Z</time>
      </trkpt>
      <trkpt lat="42.29108" lon="1.84813">
        <ele>1345.098</ele>
        <time>2019-04-08T00:28:40Z</time>
      </trkpt>
      <trkpt lat="42.29122" lon="1.84812">
        <ele>1345.815</ele>
        <time>2019-04-08T00:28:45Z</time>
      </trkpt>
      <trkpt lat="42.29147" lon="1.8482">
        <ele>1347.526</ele>
        <time>2019-04-08T00:28:55Z</time>
      </trkpt>
      <trkpt lat="42.29153" lon="1.84817">
        <ele>1348.108</ele>
        <time>2019-04-08T00:28:58Z</time>
      </trkpt>
      <trkpt lat="42.29161" lon="1.84819">
        <ele>1350.212</ele>
        <time>2019-04-08T00:29:01Z</time>
      </trkpt>
      <trkpt lat="42.29182" lon="1.84824">
        <ele>1354.024</ele>
        <time>2019-04-08T00:29:10Z</time>
      </trkpt>
      <trkpt lat="42.29186" lon="1.84824">
        <ele>1354.869</ele>
        <time>2019-04-08T00:29:12Z</time>
      </trkpt>
      <trkpt lat="42.29195" lon="1.84824">
        <ele>1354.21</ele>
        <time>2019-04-08T00:29:15Z</time>
      </trkpt>
      <trkpt lat="42.29204" lon="1.84825">
        <ele>1356.82</ele>
        <time>2019-04-08T00:29:19Z</time>
      </trkpt>
      <trkpt lat="42.29207" lon="1.84826">
        <ele>1358.764</ele>
        <time>2019-04-08T00:29:20Z</time>
      </trkpt>
      <trkpt lat="42.29207" lon="1.84826">
        <ele>1358.643</ele>
        <time>2019-04-08T00:29:20Z</time>
      </trkpt>
      <trkpt lat="42.29217" lon="1.84829">
        <ele>1360.615</ele>
        <time>2019-04-08T00:29:24Z</time>
      </trkpt>
      <trkpt lat="42.29225" lon="1.8483">
        <ele>1364.847</ele>
        <time>2019-04-08T00:29:27Z</time>
      </trkpt>
      <trkpt lat="42.29229" lon="1.8483">
        <ele>1365.029</ele>
        <time>2019-04-08T00:29:29Z</time>
      </trkpt>
      <trkpt lat="42.29242" lon="1.84825">
        <ele>1367.321</ele>
        <time>2019-04-08T00:29:34Z</time>
      </trkpt>
      <trkpt lat="42.29244" lon="1.84824">
        <ele>1368.108</ele>
        <time>2019-04-08T00:29:35Z</time>
      </trkpt>
      <trkpt lat="42.29246" lon="1.84823">
        <ele>1368.247</ele>
        <time>2019-04-08T00:29:36Z</time>
      </trkpt>
      <trkpt lat="42.29255" lon="1.84819">
        <ele>1371.749</ele>
        <time>2019-04-08T00:29:40Z</time>
      </trkpt>
      <trkpt lat="42.29258" lon="1.84819">
        <ele>1370.144</ele>
        <time>2019-04-08T00:29:41Z</time>
      </trkpt>
      <trkpt lat="42.29262" lon="1.84817">
        <ele>1373.085</ele>
        <time>2019-04-08T00:29:43Z</time>
      </trkpt>
      <trkpt lat="42.29266" lon="1.84814">
        <ele>1376.455</ele>
        <time>2019-04-08T00:29:45Z</time>
      </trkpt>
      <trkpt lat="42.29269" lon="1.84811">
        <ele>1378.359</ele>
        <time>2019-04-08T00:29:46Z</time>
      </trkpt>
      <trkpt lat="42.29274" lon="1.84807">
        <ele>1381.288</ele>
        <time>2019-04-08T00:29:48Z</time>
      </trkpt>
      <trkpt lat="42.29279" lon="1.84797">
        <ele>1382.85</ele>
        <time>2019-04-08T00:29:52Z</time>
      </trkpt>
      <trkpt lat="42.29289" lon="1.84788">
        <ele>1386.529</ele>
        <time>2019-04-08T00:29:57Z</time>
      </trkpt>
      <trkpt lat="42.29293" lon="1.84785">
        <ele>1388.9</ele>
        <time>2019-04-08T00:29:59Z</time>
      </trkpt>
      <trkpt lat="42.29297" lon="1.84786">
        <ele>1392.32</ele>
        <time>2019-04-08T00:30:00Z</time>
      </trkpt>
      <trkpt lat="42.29298" lon="1.84785">
        <ele>1392.608</ele>
        <time>2019-04-08T00:30:01Z</time>
      </trkpt>
      <trkpt lat="42.29304" lon="1.84788">
        <ele>1394.665</ele>
        <time>2019-04-08T00:30:03Z</time>
      </trkpt>
      <trkpt lat="42.29306" lon="1.84792">
        <ele>1396.327</ele>
        <time>2019-04-08T00:30:05Z</time>
      </trkpt>
      <trkpt lat="42.29304" lon="1.84796">
        <ele>1399.982</ele>
        <time>2019-04-08T00:30:06Z</time>
      </trkpt>
      <trkpt lat="42.29304" lon="1.84797">
        <ele>1400.553</ele>
        <time>2019-04-08T00:30:07Z</time>
      </trkpt>
      <trkpt lat="42.29304" lon="1.84799">
        <ele>1400.553</ele>
        <time>2019-04-08T00:30:07Z</time>
      </trkpt>
      <trkpt lat="42.29305" lon="1.84813">
        <ele>1401.767</ele>
        <time>2019-04-08T00:30:11Z</time>
      </trkpt>
      <trkpt lat="42.29311" lon="1.84819">
        <ele>1405.836</ele>
        <time>2019-04-08T00:30:14Z</time>
      </trkpt>
      <trkpt lat="42.29312" lon="1.8482">
        <ele>1405.768</ele>
        <time>2019-04-08T00:30:15Z</time>
      </trkpt>
      <trkpt lat="42.29322" lon="1.84824">
        <ele>1407.273</ele>
        <time>2019-04-08T00:30:19Z</time>
      </trkpt>
      <trkpt lat="42.29332" lon="1.84829">
        <ele>1411.185</ele>
        <time>2019-04-08T00:30:23Z</time>
      </trkpt>
      <trkpt lat="42.29336" lon="1.8483">
        <ele>1411.913</ele>
        <time>2019-04-08T00:30:25Z</time>
      </trkpt>
      <trkpt lat="42.29346" lon="1.84836">
        <ele>1415.208</ele>
        <time>2019-04-08T00:30:29Z</time>
      </trkpt>
      <trkpt lat="42.29352" lon="1.84839">
        <ele>1415.57</ele>
        <time>2019-04-08T00:30:32Z</time>
      </trkpt>
      <trkpt lat="42.29359" lon="1.8483">
        <ele>1419.752</ele>
        <time>2019-04-08T00:30:36Z</time>
      </trkpt>
      <trkpt lat="42.29361" lon="1.84827">
        <ele>1422.747</ele>
        <time>2019-04-08T00:30:37Z</time>
      </trkpt>
      <trkpt lat="42.29368" lon="1.84821">
        <ele>1423.128</ele>
        <time>2019-04-08T00:30:40Z</time>
      </trkpt>
      <trkpt lat="42.29378" lon="1.84818">
        <ele>1426.068</ele>
        <time>2019-04-08T00:30:44Z</time>
      </trkpt>
      <trkpt lat="42.29379" lon="1.84818">
        <ele>1425.932</ele>
        <time>2019-04-08T00:30:45Z</time>
      </trkpt>
      <trkpt lat="42.2938" lon="1.84817">
        <ele>1427.561</ele>
        <time>2019-04-08T00:30:45Z</time>
      </trkpt>
      <trkpt lat="42.29383" lon="1.84816">
        <ele>1425.943</ele>
        <time>2019-04-08T00:30:46Z</time>
      </trkpt>
      <trkpt lat="42.29384" lon="1.84816">
        <ele>1427.369</ele>
        <time>2019-04-08T00:30:47Z</time>
      </trkpt>
      <trkpt lat="42.29389" lon="1.84817">
        <ele>1428.304</ele>
        <time>2019-04-08T00:30:49Z</time>
      </trkpt>
      <trkpt lat="42.29393" lon="1.84813">
        <ele>1431.524</ele>
        <time>2019-04-08T00:30:51Z</time>
      </trkpt>
      <trkpt lat="42.29396" lon="1.84814">
        <ele>1433.708</ele>
        <time>2019-04-08T00:30:52Z</time>
      </trkpt>
      <trkpt lat="42.29397" lon="1.84814">
        <ele>1434.579</ele>
        <time>2019-04-08T00:30:52Z</time>
      </trkpt>
      <trkpt lat="42.29404" lon="1.84815">
        <ele>1438.091</ele>
        <time>2019-04-08T00:30:55Z</time>
      </trkpt>
      <trkpt lat="42.29407" lon="1.84814">
        <ele>1434.566</ele>
        <time>2019-04-08T00:30:57Z</time>
      </trkpt>
      <trkpt lat="42.29413" lon="1.84809">
        <ele>1437.697</ele>
        <time>2019-04-08T00:30:59Z</time>
      </trkpt>
      <trkpt lat="42.29423" lon="1.84805">
        <ele>1440.967</ele>
        <time>2019-04-08T00:31:04Z</time>
      </trkpt>
      <trkpt lat="42.29427" lon="1.84803">
        <ele>1441.491</ele>
        <time>2019-04-08T00:31:05Z</time>
      </trkpt>
      <trkpt lat="42.29429" lon="1.84807">
        <ele>1444.12</ele>
        <time>2019-04-08T00:31:07Z</time>
      </trkpt>
      <trkpt lat="42.29438" lon="1.84807">
        <ele>1447.532</ele>
        <time>2019-04-08T00:31:10Z</time>
      </trkpt>
      <trkpt lat="42.29443" lon="1.84808">
        <ele>1446.693</ele>
        <time>2019-04-08T00:31:12Z</time>
      </trkpt>
      <trkpt lat="42.2945" lon="1.84806">
        <ele>1450.065</ele>
        <time>2019-04-08T00:31:15Z</time>
      </trkpt>
      <trkpt lat="42.29451" lon="1.84807">
        <ele>1450.121</ele>
        <time>2019-04-08T00:31:15Z</time>
      </trkpt>
      <trkpt lat="42.29458" lon="1.84804">
        <ele>1453.508</ele>
        <time>2019-04-08T00:31:19Z</time>
      </trkpt>
      <trkpt lat="42.29459" lon="1.84804">
        <ele>1453.962</ele>
        <time>2019-04-08T00:31:19Z</time>
      </trkpt>
      <trkpt lat="42.29464" lon="1.84802">
        <ele>1456.644</ele>
        <time>2019-04-08T00:31:21Z</time>
      </trkpt>
      <trkpt lat="42.29465" lon="1.84802">
        <ele>1457.269</ele>
        <time>2019-04-08T00:31:21Z</time>
      </trkpt>
      <trkpt lat="42.29469" lon="1.848">
        <ele>1459.51</ele>
        <time>2019-04-08T00:31:23Z</time>
      </trkpt>
      <trkpt lat="42.29475" lon="1.84797">
        <ele>1463.06</ele>
        <time>2019-04-08T00:31:26Z</time>
      </trkpt>
      <trkpt lat="42.29478" lon="1.84793">
        <ele>1462.424</ele>
        <time>2019-04-08T00:31:27Z</time>
      </trkpt>
      <trkpt lat="42.29482" lon="1.84792">
        <ele>1464.473</ele>
        <time>2019-04-08T00:31:29Z</time>
      </trkpt>
      <trkpt lat="42.29483" lon="1.84791">
        <ele>1465.915</ele>
        <time>2019-04-08T00:31:29Z</time>
      </trkpt>
      <trkpt lat="42.29495" lon="1.84786">
        <ele>1468.762</ele>
        <time>2019-04-08T00:31:34Z</time>
      </trkpt>
      <trkpt lat="42.29497" lon="1.84785">
        <ele>1472.183</ele>
        <time>2019-04-08T00:31:35Z</time>
      </trkpt>
      <trkpt lat="42.29499" lon="1.84784">
        <ele>1469.211</ele>
        <time>2019-04-08T00:31:36Z</time>
      </trkpt>
      <trkpt lat="42.29504" lon="1.84778">
        <ele>1472.408</ele>
        <time>2019-04-08T00:31:39Z</time>
      </trkpt>
      <trkpt lat="42.29506" lon="1.84778">
        <ele>1473.619</ele>
        <time>2019-04-08T00:31:39Z</time>
      </trkpt>
      <trkpt lat="42.29515" lon="1.84768">
        <ele>1473.571</ele>
        <time>2019-04-08T00:31:44Z</time>
      </trkpt>
      <trkpt lat="42.29516" lon="1.84764">
        <ele>1477.246</ele>
        <time>2019-04-08T00:31:45Z</time>
      </trkpt>
      <trkpt lat="42.29518" lon="1.8476">
        <ele>1476.537</ele>
        <time>2019-04-08T00:31:47Z</time>
      </trkpt>
      <trkpt lat="42.29521" lon="1.84757">
        <ele>1479.537</ele>
        <time>2019-04-08T00:31:48Z</time>
      </trkpt>
      <trkpt lat="42.29528" lon="1.84753">
        <ele>1482.121</ele>
        <time>2019-04-08T00:31:51Z</time>
      </trkpt>
      <trkpt lat="42.29531" lon="1.8475">
        <ele>1483.18</ele>
        <time>2019-04-08T00:31:53Z</time>
      </trkpt>
      <trkpt lat="42.29532" lon="1.84749">
        <ele>1485.022</ele>
        <time>2019-04-08T00:31:53Z</time>
      </trkpt>
      <trkpt lat="42.29541" lon="1.8474">
        <ele>1488.497</ele>
        <time>2019-04-08T00:31:58Z</time>
      </trkpt>
      <trkpt lat="42.29551" lon="1.84729">
        <ele>1489.323</ele>
        <time>2019-04-08T00:32:03Z</time>
      </trkpt>
      <trkpt lat="42.29554" lon="1.84728">
        <ele>1490.525</ele>
        <time>2019-04-08T00:32:04Z</time>
      </trkpt>
      <trkpt lat="42.29561" lon="1.84725">
        <ele>1493.308</ele>
        <time>2019-04-08T00:32:07Z</time>
      </trkpt>
      <trkpt lat="42.29564" lon="1.84722">
        <ele>1495.212</ele>
        <time>2019-04-08T00:32:09Z</time>
      </trkpt>
      <trkpt lat="42.29577" lon="1.84709">
        <ele>1497.094</ele>
        <time>2019-04-08T00:32:15Z</time>
      </trkpt>
      <trkpt lat="42.29581" lon="1.84702">
        <ele>1501.099</ele>
        <time>2019-04-08T00:32:17Z</time>
      </trkpt>
      <trkpt lat="42.29582" lon="1.84701">
        <ele>1500.53</ele>
        <time>2019-04-08T00:32:18Z</time>
      </trkpt>
      <trkpt lat="42.29592" lon="1.84693">
        <ele>1504.05</ele>
        <time>2019-04-08T00:32:23Z</time>
      </trkpt>
      <trkpt lat="42.29593" lon="1.84691">
        <ele>1504.844</ele>
        <time>2019-04-08T00:32:23Z</time>
      </trkpt>
      <trkpt lat="42.29597" lon="1.84688">
        <ele>1505.223</ele>
        <time>2019-04-08T00:32:25Z</time>
      </trkpt>
      <trkpt lat="42.29606" lon="1.84683">
        <ele>1507.285</ele>
        <time>2019-04-08T00:32:29Z</time>
      </trkpt>
      <trkpt lat="42.29614" lon="1.84683">
        <ele>1504.375</ele>
        <time>2019-04-08T00:32:32Z</time>
      </trkpt>
      <trkpt lat="42.29618" lon="1.84682">
        <ele>1501.928</ele>
        <time>2019-04-08T00:32:34Z</time>
      </trkpt>
      <trkpt lat="42.29631" lon="1.8468">
        <ele>1500.02</ele>
        <time>2019-04-08T00:32:39Z</time>
      </trkpt>
      <trkpt lat="42.29635" lon="1.84681">
        <ele>1497.608</ele>
        <time>2019-04-08T00:32:41Z</time>
      </trkpt>
      <trkpt lat="42.29643" lon="1.84682">
        <ele>1501.26</ele>
        <time>2019-04-08T00:32:44Z</time>
      </trkpt>
      <trkpt lat="42.29646" lon="1.84682">
        <ele>1501.922</ele>
        <time>2019-04-08T00:32:45Z</time>
      </trkpt>
      <trkpt lat="42.29675" lon="1.84674">
        <ele>1504.427</ele>
        <time>2019-04-08T00:32:57Z</time>
      </trkpt>
      <trkpt lat="42.29695" lon="1.84665">
        <ele>1505.348</ele>
        <time>2019-04-08T00:33:05Z</time>
      </trkpt>
      <trkpt lat="42.29706" lon="1.84664">
        <ele>1508.298</ele>
        <time>2019-04-08T00:33:10Z</time>
      </trkpt>
      <trkpt lat="42.29707" lon="1.84664">
        <ele>1507.872</ele>
        <time>2019-04-08T00:33:10Z</time>
      </trkpt>
      <trkpt lat="42.29709" lon="1.84661">
        <ele>1507.011</ele>
        <time>2019-04-08T00:33:11Z</time>
      </trkpt>
      <trkpt lat="42.2971" lon="1.84661">
        <ele>1507.683</ele>
        <time>2019-04-08T00:33:12Z</time>
      </trkpt>
      <trkpt lat="42.29726" lon="1.84656">
        <ele>1511.146</ele>
        <time>2019-04-08T00:33:18Z</time>
      </trkpt>
      <trkpt lat="42.29729" lon="1.84654">
        <ele>1512.588</ele>
        <time>2019-04-08T00:33:19Z</time>
      </trkpt>
      <trkpt lat="42.29732" lon="1.84654">
        <ele>1513.416</ele>
        <time>2019-04-08T00:33:21Z</time>
      </trkpt>
      <trkpt lat="42.29739" lon="1.84646">
        <ele>1514.808</ele>
        <time>2019-04-08T00:33:24Z</time>
      </trkpt>
      <trkpt lat="42.29748" lon="1.84644">
        <ele>1516.037</ele>
        <time>2019-04-08T00:33:28Z</time>
      </trkpt>
      <trkpt lat="42.29759" lon="1.84635">
        <ele>1519.319</ele>
        <time>2019-04-08T00:33:33Z</time>
      </trkpt>
      <trkpt lat="42.29775" lon="1.8462">
        <ele>1522.694</ele>
        <time>2019-04-08T00:33:41Z</time>
      </trkpt>
      <trkpt lat="42.29781" lon="1.84612">
        <ele>1525.435</ele>
        <time>2019-04-08T00:33:44Z</time>
      </trkpt>
      <trkpt lat="42.29785" lon="1.84601">
        <ele>1525.425</ele>
        <time>2019-04-08T00:33:48Z</time>
      </trkpt>
      <trkpt lat="42.29794" lon="1.84588">
        <ele>1526.329</ele>
        <time>2019-04-08T00:33:53Z</time>
      </trkpt>
      <trkpt lat="42.298" lon="1.84581">
        <ele>1528.648</ele>
        <time>2019-04-08T00:33:56Z</time>
      </trkpt>
      <trkpt lat="42.29801" lon="1.84575">
        <ele>1528.97</ele>
        <time>2019-04-08T00:33:58Z</time>
      </trkpt>
      <trkpt lat="42.29804" lon="1.8457">
        <ele>1531.286</ele>
        <time>2019-04-08T00:34:00Z</time>
      </trkpt>
      <trkpt lat="42.29806" lon="1.84573">
        <ele>1533.16</ele>
        <time>2019-04-08T00:34:01Z</time>
      </trkpt>
      <trkpt lat="42.29811" lon="1.84568">
        <ele>1536.926</ele>
        <time>2019-04-08T00:34:04Z</time>
      </trkpt>
      <trkpt lat="42.29811" lon="1.84568">
        <ele>1537.508</ele>
        <time>2019-04-08T00:34:04Z</time>
      </trkpt>
      <trkpt lat="42.29814" lon="1.84569">
        <ele>1539.121</ele>
        <time>2019-04-08T00:34:05Z</time>
      </trkpt>
      <trkpt lat="42.29822" lon="1.84569">
        <ele>1537.813</ele>
        <time>2019-04-08T00:34:08Z</time>
      </trkpt>
      <trkpt lat="42.29826" lon="1.84569">
        <ele>1538.438</ele>
        <time>2019-04-08T00:34:10Z</time>
      </trkpt>
      <trkpt lat="42.29832" lon="1.84567">
        <ele>1537.489</ele>
        <time>2019-04-08T00:34:12Z</time>
      </trkpt>
      <trkpt lat="42.29838" lon="1.84564">
        <ele>1535.759</ele>
        <time>2019-04-08T00:34:15Z</time>
      </trkpt>
      <trkpt lat="42.29857" lon="1.84557">
        <ele>1535.173</ele>
        <time>2019-04-08T00:34:23Z</time>
      </trkpt>
      <trkpt lat="42.2986" lon="1.84555">
        <ele>1535.112</ele>
        <time>2019-04-08T00:34:24Z</time>
      </trkpt>
      <trkpt lat="42.29876" lon="1.84554">
        <ele>1539.444</ele>
        <time>2019-04-08T00:34:31Z</time>
      </trkpt>
      <trkpt lat="42.29878" lon="1.84553">
        <ele>1539.324</ele>
        <time>2019-04-08T00:34:31Z</time>
      </trkpt>
      <trkpt lat="42.2989" lon="1.8455">
        <ele>1542.304</ele>
        <time>2019-04-08T00:34:36Z</time>
      </trkpt>
      <trkpt lat="42.29894" lon="1.84546">
        <ele>1542.314</ele>
        <time>2019-04-08T00:34:38Z</time>
      </trkpt>
      <trkpt lat="42.29896" lon="1.84542">
        <ele>1542.708</ele>
        <time>2019-04-08T00:34:40Z</time>
      </trkpt>
      <trkpt lat="42.299" lon="1.8454">
        <ele>1543.435</ele>
        <time>2019-04-08T00:34:41Z</time>
      </trkpt>
      <trkpt lat="42.29903" lon="1.84537">
        <ele>1545.017</ele>
        <time>2019-04-08T00:34:43Z</time>
      </trkpt>
      <trkpt lat="42.29913" lon="1.84531">
        <ele>1548.132</ele>
        <time>2019-04-08T00:34:47Z</time>
      </trkpt>
      <trkpt lat="42.29917" lon="1.84526">
        <ele>1549.393</ele>
        <time>2019-04-08T00:34:50Z</time>
      </trkpt>
      <trkpt lat="42.29928" lon="1.84521">
        <ele>1551.423</ele>
        <time>2019-04-08T00:34:54Z</time>
      </trkpt>
      <trkpt lat="42.29934" lon="1.84499">
        <ele>1554.487</ele>
        <time>2019-04-08T00:35:01Z</time>
      </trkpt>
      <trkpt lat="42.29939" lon="1.84489">
        <ele>1557.816</ele>
        <time>2019-04-08T00:35:05Z</time>
      </trkpt>
      <trkpt lat="42.29941" lon="1.84481">
        <ele>1559.698</ele>
        <time>2019-04-08T00:35:07Z</time>
      </trkpt>
      <trkpt lat="42.29943" lon="1.84477">
        <ele>1561.097</ele>
        <time>2019-04-08T00:35:08Z</time>
      </trkpt>
      <trkpt lat="42.29943" lon="1.84471">
        <ele>1559.423</ele>
        <time>2019-04-08T00:35:10Z</time>
      </trkpt>
      <trkpt lat="42.29943" lon="1.84469">
        <ele>1559.025</ele>
        <time>2019-04-08T00:35:11Z</time>
      </trkpt>
      <trkpt lat="42.29945" lon="1.84464">
        <ele>1556.108</ele>
        <time>2019-04-08T00:35:13Z</time>
      </trkpt>
      <trkpt lat="42.29948" lon="1.84461">
        <ele>1555.752</ele>
        <time>2019-04-08T00:35:14Z</time>
      </trkpt>
      <trkpt lat="42.29954" lon="1.84455">
        <ele>1555.324</ele>
        <time>2019-04-08T00:35:17Z</time>
      </trkpt>
      <trkpt lat="42.29956" lon="1.84454">
        <ele>1558.699</ele>
        <time>2019-04-08T00:35:18Z</time>
      </trkpt>
      <trkpt lat="42.29958" lon="1.84456">
        <ele>1561.87</ele>
        <time>2019-04-08T00:35:19Z</time>
      </trkpt>
      <trkpt lat="42.29961" lon="1.84455">
        <ele>1565.55</ele>
        <time>2019-04-08T00:35:20Z</time>
      </trkpt>
      <trkpt lat="42.29961" lon="1.84455">
        <ele>1566.084</ele>
        <time>2019-04-08T00:35:20Z</time>
      </trkpt>
      <trkpt lat="42.29961" lon="1.84455">
        <ele>1566.833</ele>
        <time>2019-04-08T00:35:20Z</time>
      </trkpt>
      <trkpt lat="42.29967" lon="1.84453">
        <ele>1569.575</ele>
        <time>2019-04-08T00:35:23Z</time>
      </trkpt>
      <trkpt lat="42.29969" lon="1.84452">
        <ele>1570.957</ele>
        <time>2019-04-08T00:35:23Z</time>
      </trkpt>
      <trkpt lat="42.29971" lon="1.84445">
        <ele>1571.2</ele>
        <time>2019-04-08T00:35:26Z</time>
      </trkpt>
      <trkpt lat="42.29977" lon="1.84441">
        <ele>1572.02</ele>
        <time>2019-04-08T00:35:28Z</time>
      </trkpt>
      <trkpt lat="42.29986" lon="1.84434">
        <ele>1573.008</ele>
        <time>2019-04-08T00:35:32Z</time>
      </trkpt>
      <trkpt lat="42.29986" lon="1.84427">
        <ele>1572.448</ele>
        <time>2019-04-08T00:35:34Z</time>
      </trkpt>
      <trkpt lat="42.29992" lon="1.84408">
        <ele>1574.57</ele>
        <time>2019-04-08T00:35:40Z</time>
      </trkpt>
      <trkpt lat="42.29993" lon="1.84408">
        <ele>1575.455</ele>
        <time>2019-04-08T00:35:41Z</time>
      </trkpt>
      <trkpt lat="42.29993" lon="1.84405">
        <ele>1578.666</ele>
        <time>2019-04-08T00:35:42Z</time>
      </trkpt>
      <trkpt lat="42.29993" lon="1.84398">
        <ele>1582.396</ele>
        <time>2019-04-08T00:35:44Z</time>
      </trkpt>
      <trkpt lat="42.29993" lon="1.84394">
        <ele>1583.27</ele>
        <time>2019-04-08T00:35:45Z</time>
      </trkpt>
      <trkpt lat="42.29998" lon="1.84388">
        <ele>1586.169</ele>
        <time>2019-04-08T00:35:48Z</time>
      </trkpt>
      <trkpt lat="42.30003" lon="1.8437">
        <ele>1589.311</ele>
        <time>2019-04-08T00:35:53Z</time>
      </trkpt>
      <trkpt lat="42.30006" lon="1.84365">
        <ele>1592.888</ele>
        <time>2019-04-08T00:35:55Z</time>
      </trkpt>
      <trkpt lat="42.30005" lon="1.84361">
        <ele>1593.624</ele>
        <time>2019-04-08T00:35:57Z</time>
      </trkpt>
      <trkpt lat="42.30006" lon="1.84352">
        <ele>1596.526</ele>
        <time>2019-04-08T00:36:00Z</time>
      </trkpt>
      <trkpt lat="42.30007" lon="1.84329">
        <ele>1597.008</ele>
        <time>2019-04-08T00:36:06Z</time>
      </trkpt>
      <trkpt lat="42.30006" lon="1.84326">
        <ele>1598.991</ele>
        <time>2019-04-08T00:36:07Z</time>
      </trkpt>
      <trkpt lat="42.30007" lon="1.84322">
        <ele>1602.653</ele>
        <time>2019-04-08T00:36:08Z</time>
      </trkpt>
      <trkpt lat="42.30005" lon="1.8432">
        <ele>1602.438</ele>
        <time>2019-04-08T00:36:09Z</time>
      </trkpt>
      <trkpt lat="42.30001" lon="1.84309">
        <ele>1604.479</ele>
        <time>2019-04-08T00:36:13Z</time>
      </trkpt>
      <trkpt lat="42.30005" lon="1.84311">
        <ele>1607.799</ele>
        <time>2019-04-08T00:36:15Z</time>
      </trkpt>
      <trkpt lat="42.30003" lon="1.8431">
        <ele>1608.513</ele>
        <time>2019-04-08T00:36:15Z</time>
      </trkpt>
      <trkpt lat="42.30003" lon="1.84308">
        <ele>1612.012</ele>
        <time>2019-04-08T00:36:16Z</time>
      </trkpt>
      <trkpt lat="42.30003" lon="1.843">
        <ele>1614.964</ele>
        <time>2019-04-08T00:36:18Z</time>
      </trkpt>
      <trkpt lat="42.30013" lon="1.84301">
        <ele>1618.149</ele>
        <time>2019-04-08T00:36:22Z</time>
      </trkpt>
      <trkpt lat="42.30018" lon="1.84294">
        <ele>1620.102</ele>
        <time>2019-04-08T00:36:25Z</time>
      </trkpt>
      <trkpt lat="42.30025" lon="1.84291">
        <ele>1623.022</ele>
        <time>2019-04-08T00:36:28Z</time>
      </trkpt>
      <trkpt lat="42.30021" lon="1.84285">
        <ele>1626.408</ele>
        <time>2019-04-08T00:36:30Z</time>
      </trkpt>
      <trkpt lat="42.3002" lon="1.84281">
        <ele>1628.797</ele>
        <time>2019-04-08T00:36:31Z</time>
      </trkpt>
      <trkpt lat="42.30022" lon="1.84277">
        <ele>1632.299</ele>
        <time>2019-04-08T00:36:33Z</time>
      </trkpt>
      <trkpt lat="42.30018" lon="1.84261">
        <ele>1635.474</ele>
        <time>2019-04-08T00:36:38Z</time>
      </trkpt>
      <trkpt lat="42.30019" lon="1.84259">
        <ele>1635.375</ele>
        <time>2019-04-08T00:36:38Z</time>
      </trkpt>
      <trkpt lat="42.30027" lon="1.84263">
        <ele>1638.195</ele>
        <time>2019-04-08T00:36:42Z</time>
      </trkpt>
      <trkpt lat="42.30035" lon="1.84267">
        <ele>1641.239</ele>
        <time>2019-04-08T00:36:45Z</time>
      </trkpt>
      <trkpt lat="42.30044" lon="1.84272">
        <ele>1644.248</ele>
        <time>2019-04-08T00:36:49Z</time>
      </trkpt>
      <trkpt lat="42.30046" lon="1.84272">
        <ele>1645.24</ele>
        <time>2019-04-08T00:36:50Z</time>
      </trkpt>
      <trkpt lat="42.30051" lon="1.84274">
        <ele>1648.595</ele>
        <time>2019-04-08T00:36:52Z</time>
      </trkpt>
      <trkpt lat="42.30056" lon="1.84273">
        <ele>1651.949</ele>
        <time>2019-04-08T00:36:54Z</time>
      </trkpt>
      <trkpt lat="42.30066" lon="1.84278">
        <ele>1655.823</ele>
        <time>2019-04-08T00:36:58Z</time>
      </trkpt>
      <trkpt lat="42.30071" lon="1.84276">
        <ele>1658.108</ele>
        <time>2019-04-08T00:37:00Z</time>
      </trkpt>
      <trkpt lat="42.30073" lon="1.84273">
        <ele>1661.322</ele>
        <time>2019-04-08T00:37:02Z</time>
      </trkpt>
      <trkpt lat="42.30078" lon="1.84274">
        <ele>1664.014</ele>
        <time>2019-04-08T00:37:04Z</time>
      </trkpt>
      <trkpt lat="42.3008" lon="1.8427">
        <ele>1667.289</ele>
        <time>2019-04-08T00:37:05Z</time>
      </trkpt>
      <trkpt lat="42.30085" lon="1.84267">
        <ele>1670.13</ele>
        <time>2019-04-08T00:37:07Z</time>
      </trkpt>
      <trkpt lat="42.30087" lon="1.84264">
        <ele>1673.76</ele>
        <time>2019-04-08T00:37:08Z</time>
      </trkpt>
      <trkpt lat="42.30084" lon="1.84254">
        <ele>1673.954</ele>
        <time>2019-04-08T00:37:12Z</time>
      </trkpt>
      <trkpt lat="42.30078" lon="1.84238">
        <ele>1676.353</ele>
        <time>2019-04-08T00:37:17Z</time>
      </trkpt>
      <trkpt lat="42.30077" lon="1.84236">
        <ele>1676.415</ele>
        <time>2019-04-08T00:37:18Z</time>
      </trkpt>
      <trkpt lat="42.30069" lon="1.84223">
        <ele>1678.731</ele>
        <time>2019-04-08T00:37:23Z</time>
      </trkpt>
      <trkpt lat="42.3007" lon="1.84225">
        <ele>1680.161</ele>
        <time>2019-04-08T00:37:23Z</time>
      </trkpt>
      <trkpt lat="42.30077" lon="1.8423">
        <ele>1682.907</ele>
        <time>2019-04-08T00:37:27Z</time>
      </trkpt>
      <trkpt lat="42.30085" lon="1.84235">
        <ele>1684.608</ele>
        <time>2019-04-08T00:37:30Z</time>
      </trkpt>
      <trkpt lat="42.30086" lon="1.84234">
        <ele>1686.146</ele>
        <time>2019-04-08T00:37:31Z</time>
      </trkpt>
      <trkpt lat="42.30086" lon="1.84229">
        <ele>1689.128</ele>
        <time>2019-04-08T00:37:32Z</time>
      </trkpt>
      <trkpt lat="42.30086" lon="1.84228">
        <ele>1691.353</ele>
        <time>2019-04-08T00:37:32Z</time>
      </trkpt>
      <trkpt lat="42.30086" lon="1.84221">
        <ele>1693.784</ele>
        <time>2019-04-08T00:37:35Z</time>
      </trkpt>
      <trkpt lat="42.30089" lon="1.84195">
        <ele>1697.264</ele>
        <time>2019-04-08T00:37:42Z</time>
      </trkpt>
      <trkpt lat="42.30088" lon="1.84194">
        <ele>1700.298</ele>
        <time>2019-04-08T00:37:43Z</time>
      </trkpt>
      <trkpt lat="42.30088" lon="1.84194">
        <ele>1699.827</ele>
        <time>2019-04-08T00:37:43Z</time>
      </trkpt>
      <trkpt lat="42.30091" lon="1.84197">
        <ele>1702.629</ele>
        <time>2019-04-08T00:37:45Z</time>
      </trkpt>
      <trkpt lat="42.30094" lon="1.84198">
        <ele>1706.169</ele>
        <time>2019-04-08T00:37:46Z</time>
      </trkpt>
      <trkpt lat="42.30102" lon="1.84203">
        <ele>1708.604</ele>
        <time>2019-04-08T00:37:49Z</time>
      </trkpt>
      <trkpt lat="42.30107" lon="1.84205">
        <ele>1712.424</ele>
        <time>2019-04-08T00:37:51Z</time>
      </trkpt>
      <trkpt lat="42.30109" lon="1.84204">
        <ele>1715.408</ele>
        <time>2019-04-08T00:37:52Z</time>
      </trkpt>
      <trkpt lat="42.30115" lon="1.84204">
        <ele>1717.399</ele>
        <time>2019-04-08T00:37:55Z</time>
      </trkpt>
      <trkpt lat="42.30122" lon="1.84204">
        <ele>1720.651</ele>
        <time>2019-04-08T00:37:57Z</time>
      </trkpt>
      <trkpt lat="42.3013" lon="1.84199">
        <ele>1723.646</ele>
        <time>2019-04-08T00:38:01Z</time>
      </trkpt>
      <trkpt lat="42.3013" lon="1.84199">
        <ele>1726.997</ele>
        <time>2019-04-08T00:38:01Z</time>
      </trkpt>
      <trkpt lat="42.30137" lon="1.84195">
        <ele>1729.357</ele>
        <time>2019-04-08T00:38:04Z</time>
      </trkpt>
      <trkpt lat="42.30141" lon="1.84197">
        <ele>1732.351</ele>
        <time>2019-04-08T00:38:06Z</time>
      </trkpt>
      <trkpt lat="42.30147" lon="1.84179">
        <ele>1735.54</ele>
        <time>2019-04-08T00:38:11Z</time>
      </trkpt>
      <trkpt lat="42.30148" lon="1.84175">
        <ele>1738.812</ele>
        <time>2019-04-08T00:38:13Z</time>
      </trkpt>
      <trkpt lat="42.30153" lon="1.84172">
        <ele>1742.353</ele>
        <time>2019-04-08T00:38:15Z</time>
      </trkpt>
      <trkpt lat="42.30154" lon="1.84171">
        <ele>1745.104</ele>
        <time>2019-04-08T00:38:15Z</time>
      </trkpt>
      <trkpt lat="42.30153" lon="1.84158">
        <ele>1748.514</ele>
        <time>2019-04-08T00:38:19Z</time>
      </trkpt>
      <trkpt lat="42.30149" lon="1.8414">
        <ele>1751.308</ele>
        <time>2019-04-08T00:38:25Z</time>
      </trkpt>
      <trkpt lat="42.30155" lon="1.84139">
        <ele>1755.258</ele>
        <time>2019-04-08T00:38:27Z</time>
      </trkpt>
      <trkpt lat="42.3016" lon="1.84141">
        <ele>1756.22</ele>
        <time>2019-04-08T00:38:29Z</time>
      </trkpt>
      <trkpt lat="42.30167" lon="1.84144">
        <ele>1758.065</ele>
        <time>2019-04-08T00:38:32Z</time>
      </trkpt>
      <trkpt lat="42.30176" lon="1.84147">
        <ele>1761.526</ele>
        <time>2019-04-08T00:38:36Z</time>
      </trkpt>
      <trkpt lat="42.30181" lon="1.84154">
        <ele>1762.956</ele>
        <time>2019-04-08T00:38:39Z</time>
      </trkpt>
      <trkpt lat="42.30186" lon="1.8416">
        <ele>1765.91</ele>
        <time>2019-04-08T00:38:41Z</time>
      </trkpt>
      <trkpt lat="42.30191" lon="1.84163">
        <ele>1767.289</ele>
        <time>2019-04-08T00:38:44Z</time>
      </trkpt>
      <trkpt lat="42.302" lon="1.84178">
        <ele>1768.821</ele>
        <time>2019-04-08T00:38:49Z</time>
      </trkpt>
      <trkpt lat="42.30203" lon="1.84187">
        <ele>1772.029</ele>
        <time>2019-04-08T00:38:52Z</time>
      </trkpt>
      <trkpt lat="42.30209" lon="1.84197">
        <ele>1775</ele>
        <time>2019-04-08T00:38:56Z</time>
      </trkpt>
      <trkpt lat="42.3021" lon="1.84208">
        <ele>1774.52</ele>
        <time>2019-04-08T00:38:59Z</time>
      </trkpt>
      <trkpt lat="42.30215" lon="1.84212">
        <ele>1775.808</ele>
        <time>2019-04-08T00:39:01Z</time>
      </trkpt>
      <trkpt lat="42.3022" lon="1.84219">
        <ele>1778.665</ele>
        <time>2019-04-08T00:39:04Z</time>
      </trkpt>
      <trkpt lat="42.30227" lon="1.8423">
        <ele>1782.117</ele>
        <time>2019-04-08T00:39:09Z</time>
      </trkpt>
      <trkpt lat="42.3023" lon="1.84236">
        <ele>1785.452</ele>
        <time>2019-04-08T00:39:11Z</time>
      </trkpt>
      <trkpt lat="42.30238" lon="1.84243">
        <ele>1787.413</ele>
        <time>2019-04-08T00:39:15Z</time>
      </trkpt>
      <trkpt lat="42.30242" lon="1.84244">
        <ele>1789.443</ele>
        <time>2019-04-08T00:39:16Z</time>
      </trkpt>
      <trkpt lat="42.30248" lon="1.84239">
        <ele>1791.947</ele>
        <time>2019-04-08T00:39:19Z</time>
      </trkpt>
      <trkpt lat="42.30251" lon="1.84243">
        <ele>1795.066</ele>
        <time>2019-04-08T00:39:21Z</time>
      </trkpt>
      <trkpt lat="42.30251" lon="1.84244">
        <ele>1794.938</ele>
        <time>2019-04-08T00:39:21Z</time>
      </trkpt>
      <trkpt lat="42.30254" lon="1.84252">
        <ele>1796.829</ele>
        <time>2019-04-08T00:39:24Z</time>
      </trkpt>
      <trkpt lat="42.30255" lon="1.84257">
        <ele>1798.4</ele>
        <time>2019-04-08T00:39:25Z</time>
      </trkpt>
      <trkpt lat="42.30259" lon="1.84267">
        <ele>1801.42</ele>
        <time>2019-04-08T00:39:29Z</time>
      </trkpt>
      <trkpt lat="42.30263" lon="1.8427">
        <ele>1804.308</ele>
        <time>2019-04-08T00:39:30Z</time>
      </trkpt>
      <trkpt lat="42.30268" lon="1.84274">
        <ele>1806.165</ele>
        <time>2019-04-08T00:39:33Z</time>
      </trkpt>
      <trkpt lat="42.3027" lon="1.84275">
        <ele>1807.797</ele>
        <time>2019-04-08T00:39:34Z</time>
      </trkpt>
      <trkpt lat="42.30271" lon="1.84278">
        <ele>1809.362</ele>
        <time>2019-04-08T00:39:35Z</time>
      </trkpt>
      <trkpt lat="42.30271" lon="1.84289">
        <ele>1813.313</ele>
        <time>2019-04-08T00:39:38Z</time>
      </trkpt>
      <trkpt lat="42.30273" lon="1.84299">
        <ele>1815.733</ele>
        <time>2019-04-08T00:39:41Z</time>
      </trkpt>
      <trkpt lat="42.30279" lon="1.84301">
        <ele>1818.867</ele>
        <time>2019-04-08T00:39:43Z</time>
      </trkpt>
      <trkpt lat="42.30282" lon="1.84304">
        <ele>1822.486</ele>
        <time>2019-04-08T00:39:45Z</time>
      </trkpt>
      <trkpt lat="42.30284" lon="1.84308">
        <ele>1826.458</ele>
        <time>2019-04-08T00:39:46Z</time>
      </trkpt>
      <trkpt lat="42.30289" lon="1.84307">
        <ele>1829.324</ele>
        <time>2019-04-08T00:39:48Z</time>
      </trkpt>
      <trkpt lat="42.30293" lon="1.8431">
        <ele>1832.204</ele>
        <time>2019-04-08T00:39:50Z</time>
      </trkpt>
      <trkpt lat="42.30296" lon="1.84311">
        <ele>1835.114</ele>
        <time>2019-04-08T00:39:51Z</time>
      </trkpt>
      <trkpt lat="42.30296" lon="1.84311">
        <ele>1836.508</ele>
        <time>2019-04-08T00:39:51Z</time>
      </trkpt>
      <trkpt lat="42.30296" lon="1.84311">
        <ele>1838.135</ele>
        <time>2019-04-08T00:39:51Z</time>
      </trkpt>
      <trkpt lat="42.30301" lon="1.84306">
        <ele>1840.247</ele>
        <time>2019-04-08T00:39:54Z</time>
      </trkpt>
      <trkpt lat="42.30305" lon="1.84305">
        <ele>1842.652</ele>
        <time>2019-04-08T00:39:55Z</time>
      </trkpt>
      <trkpt lat="42.30312" lon="1.84295">
        <ele>1845.183</ele>
        <time>2019-04-08T00:40:00Z</time>
      </trkpt>
      <trkpt lat="42.3031" lon="1.84287">
        <ele>1844.423</ele>
        <time>2019-04-08T00:40:02Z</time>
      </trkpt>
      <trkpt lat="42.30313" lon="1.8427">
        <ele>1846.137</ele>
        <time>2019-04-08T00:40:07Z</time>
      </trkpt>
      <trkpt lat="42.30318" lon="1.84247">
        <ele>1848.566</ele>
        <time>2019-04-08T00:40:14Z</time>
      </trkpt>
      <trkpt lat="42.3032" lon="1.8424">
        <ele>1851.318</ele>
        <time>2019-04-08T00:40:16Z</time>
      </trkpt>
      <trkpt lat="42.3032" lon="1.84232">
        <ele>1852.242</ele>
        <time>2019-04-08T00:40:19Z</time>
      </trkpt>
      <trkpt lat="42.30324" lon="1.84223">
        <ele>1853.722</ele>
        <time>2019-04-08T00:40:22Z</time>
      </trkpt>
      <trkpt lat="42.30323" lon="1.8422">
        <ele>1852.714</ele>
        <time>2019-04-08T00:40:23Z</time>
      </trkpt>
      <trkpt lat="42.3032" lon="1.84199">
        <ele>1854.608</ele>
        <time>2019-04-08T00:40:29Z</time>
      </trkpt>
      <trkpt lat="42.3032" lon="1.84194">
        <ele>1855.777</ele>
        <time>2019-04-08T00:40:31Z</time>
      </trkpt>
      <trkpt lat="42.30322" lon="1.84184">
        <ele>1856.939</ele>
        <time>2019-04-08T00:40:34Z</time>
      </trkpt>
      <trkpt lat="42.30322" lon="1.84169">
        <ele>1857.124</ele>
        <time>2019-04-08T00:40:38Z</time>
      </trkpt>
      <trkpt lat="42.30323" lon="1.84156">
        <ele>1859.515</ele>
        <time>2019-04-08T00:40:42Z</time>
      </trkpt>
      <trkpt lat="42.30326" lon="1.84142">
        <ele>1861.515</ele>
        <time>2019-04-08T00:40:47Z</time>
      </trkpt>
      <trkpt lat="42.30328" lon="1.84126">
        <ele>1865.079</ele>
        <time>2019-04-08T00:40:51Z</time>
      </trkpt>
      <trkpt lat="42.30327" lon="1.84125">
        <ele>1864.878</ele>
        <time>2019-04-08T00:40:52Z</time>
      </trkpt>
      <trkpt lat="42.30324" lon="1.84115">
        <ele>1866.36</ele>
        <time>2019-04-08T00:40:55Z</time>
      </trkpt>
      <trkpt lat="42.30319" lon="1.84109">
        <ele>1867.267</ele>
        <time>2019-04-08T00:40:57Z</time>
      </trkpt>
      <trkpt lat="42.30316" lon="1.841">
        <ele>1868.381</ele>
        <time>2019-04-08T00:41:01Z</time>
      </trkpt>
      <trkpt lat="42.30316" lon="1.84094">
        <ele>1868.219</ele>
        <time>2019-04-08T00:41:02Z</time>
      </trkpt>
      <trkpt lat="42.30309" lon="1.84078">
        <ele>1867.208</ele>
        <time>2019-04-08T00:41:08Z</time>
      </trkpt>
      <trkpt lat="42.30309" lon="1.84073">
        <ele>1867.269</ele>
        <time>2019-04-08T00:41:09Z</time>
      </trkpt>
      <trkpt lat="42.30308" lon="1.84074">
        <ele>1866.211</ele>
        <time>2019-04-08T00:41:09Z</time>
      </trkpt>
      <trkpt lat="42.30308" lon="1.84074">
        <ele>1865.246</ele>
        <time>2019-04-08T00:41:09Z</time>
      </trkpt>
      <trkpt lat="42.30308" lon="1.84074">
        <ele>1866.287</ele>
        <time>2019-04-08T00:41:10Z</time>
      </trkpt>
      <trkpt lat="42.30308" lon="1.84074">
        <ele>1863.987</ele>
        <time>2019-04-08T00:41:10Z</time>
      </trkpt>
      <trkpt lat="42.30308" lon="1.84076">
        <ele>1862.171</ele>
        <time>2019-04-08T00:41:10Z</time>
      </trkpt>
      <trkpt lat="42.30307" lon="1.84079">
        <ele>1862.34</ele>
        <time>2019-04-08T00:41:11Z</time>
      </trkpt>
      <trkpt lat="42.30307" lon="1.8408">
        <ele>1862.992</ele>
        <time>2019-04-08T00:41:11Z</time>
      </trkpt>
      <trkpt lat="42.30307" lon="1.8408">
        <ele>1860.982</ele>
        <time>2019-04-08T00:41:11Z</time>
      </trkpt>
      <trkpt lat="42.30306" lon="1.84081">
        <ele>1861.243</ele>
        <time>2019-04-08T00:41:12Z</time>
      </trkpt>
      <trkpt lat="42.30306" lon="1.84081">
        <ele>1860.917</ele>
        <time>2019-04-08T00:41:12Z</time>
      </trkpt>
      <trkpt lat="42.30306" lon="1.84081">
        <ele>1860.508</ele>
        <time>2019-04-08T00:41:12Z</time>
      </trkpt>
      <trkpt lat="42.30305" lon="1.84081">
        <ele>1861.141</ele>
        <time>2019-04-08T00:41:12Z</time>
      </trkpt>
      <trkpt lat="42.30304" lon="1.84082">
        <ele>1859.373</ele>
        <time>2019-04-08T00:41:13Z</time>
      </trkpt>
      <trkpt lat="42.30304" lon="1.84082">
        <ele>1855.268</ele>
        <time>2019-04-08T00:41:13Z</time>
      </trkpt>
      <trkpt lat="42.30304" lon="1.84082">
        <ele>1857.099</ele>
        <time>2019-04-08T00:41:13Z</time>
      </trkpt>
      <trkpt lat="42.30304" lon="1.84084">
        <ele>1857.129</ele>
        <time>2019-04-08T00:41:13Z</time>
      </trkpt>
      <trkpt lat="42.30303" lon="1.84088">
        <ele>1858.653</ele>
        <time>2019-04-08T00:41:14Z</time>
      </trkpt>
      <trkpt lat="42.30299" lon="1.84093">
        <ele>1858.132</ele>
        <time>2019-04-08T00:41:17Z</time>
      </trkpt>
      <trkpt lat="42.30299" lon="1.84093">
        <ele>1858.094</ele>
        <time>2019-04-08T00:41:17Z</time>
      </trkpt>
      <trkpt lat="42.30299" lon="1.84092">
        <ele>1857.677</ele>
        <time>2019-04-08T00:41:17Z</time>
      </trkpt>
      <trkpt lat="42.30299" lon="1.84091">
        <ele>1857.461</ele>
        <time>2019-04-08T00:41:17Z</time>
      </trkpt>
      <trkpt lat="42.30298" lon="1.84089">
        <ele>1854.727</ele>
        <time>2019-04-08T00:41:18Z</time>
      </trkpt>
      <trkpt lat="42.30298" lon="1.8409">
        <ele>1854.308</ele>
        <time>2019-04-08T00:41:18Z</time>
      </trkpt>
      <trkpt lat="42.30298" lon="1.8409">
        <ele>1855.77</ele>
        <time>2019-04-08T00:41:18Z</time>
      </trkpt>
      <trkpt lat="42.30299" lon="1.84089">
        <ele>1854.272</ele>
        <time>2019-04-08T00:41:19Z</time>
      </trkpt>
      <trkpt lat="42.30299" lon="1.84089">
        <ele>1853.337</ele>
        <time>2019-04-08T00:41:19Z</time>
      </trkpt>
      <trkpt lat="42.30297" lon="1.84086">
        <ele>1853.738</ele>
        <time>2019-04-08T00:41:20Z</time>
      </trkpt>
      <trkpt lat="42.30293" lon="1.84081">
        <ele>1853.998</ele>
        <time>2019-04-08T00:41:22Z</time>
      </trkpt>
      <trkpt lat="42.30293" lon="1.84079">
        <ele>1854.292</ele>
        <time>2019-04-08T00:41:23Z</time>
      </trkpt>
      <trkpt lat="42.30293" lon="1.84079">
        <ele>1857.311</ele>
        <time>2019-04-08T00:41:23Z</time>
      </trkpt>
      <trkpt lat="42.30293" lon="1.84079">
        <ele>1853.743</ele>
        <time>2019-04-08T00:41:23Z</time>
      </trkpt>
      <trkpt lat="42.30292" lon="1.8407">
        <ele>1855.169</ele>
        <time>2019-04-08T00:41:25Z</time>
      </trkpt>
      <trkpt lat="42.30287" lon="1.84068">
        <ele>1857.104</ele>
        <time>2019-04-08T00:41:27Z</time>
      </trkpt>
      <trkpt lat="42.30277" lon="1.84055">
        <ele>1859.524</ele>
        <time>2019-04-08T00:41:33Z</time>
      </trkpt>
      <trkpt lat="42.30273" lon="1.84045">
        <ele>1863.208</ele>
        <time>2019-04-08T00:41:36Z</time>
      </trkpt>
      <trkpt lat="42.30272" lon="1.84034">
        <ele>1862.849</ele>
        <time>2019-04-08T00:41:40Z</time>
      </trkpt>
      <trkpt lat="42.30271" lon="1.8403">
        <ele>1864.811</ele>
        <time>2019-04-08T00:41:41Z</time>
      </trkpt>
      <trkpt lat="42.30272" lon="1.84026">
        <ele>1866.256</ele>
        <time>2019-04-08T00:41:42Z</time>
      </trkpt>
      <trkpt lat="42.30271" lon="1.84024">
        <ele>1865.457</ele>
        <time>2019-04-08T00:41:43Z</time>
      </trkpt>
      <trkpt lat="42.30271" lon="1.8402">
        <ele>1868.297</ele>
        <time>2019-04-08T00:41:44Z</time>
      </trkpt>
      <trkpt lat="42.30272" lon="1.84014">
        <ele>1870.151</ele>
        <time>2019-04-08T00:41:46Z</time>
      </trkpt>
      <trkpt lat="42.30268" lon="1.84001">
        <ele>1873.09</ele>
        <time>2019-04-08T00:41:50Z</time>
      </trkpt>
      <trkpt lat="42.30265" lon="1.83988">
        <ele>1874.882</ele>
        <time>2019-04-08T00:41:54Z</time>
      </trkpt>
      <trkpt lat="42.30261" lon="1.83982">
        <ele>1876.333</ele>
        <time>2019-04-08T00:41:56Z</time>
      </trkpt>
      <trkpt lat="42.30259" lon="1.83966">
        <ele>1879.723</ele>
        <time>2019-04-08T00:42:01Z</time>
      </trkpt>
      <trkpt lat="42.30257" lon="1.8396">
        <ele>1880.315</ele>
        <time>2019-04-08T00:42:03Z</time>
      </trkpt>
      <trkpt lat="42.30242" lon="1.8395">
        <ele>1881.608</ele>
        <time>2019-04-08T00:42:10Z</time>
      </trkpt>
      <trkpt lat="42.30241" lon="1.83948">
        <ele>1882.036</ele>
        <time>2019-04-08T00:42:10Z</time>
      </trkpt>
      <trkpt lat="42.30238" lon="1.83943">
        <ele>1885.578</ele>
        <time>2019-04-08T00:42:12Z</time>
      </trkpt>
      <trkpt lat="42.30236" lon="1.8394">
        <ele>1887.813</ele>
        <time>2019-04-08T00:42:13Z</time>
      </trkpt>
      <trkpt lat="42.30233" lon="1.83937">
        <ele>1888.034</ele>
        <time>2019-04-08T00:42:15Z</time>
      </trkpt>
      <trkpt lat="42.30227" lon="1.83933">
        <ele>1888.324</ele>
        <time>2019-04-08T00:42:17Z</time>
      </trkpt>
      <trkpt lat="42.30221" lon="1.83928">
        <ele>1892.298</ele>
        <time>2019-04-08T00:42:21Z</time>
      </trkpt>
      <trkpt lat="42.30217" lon="1.83926">
        <ele>1894.027</ele>
        <time>2019-04-08T00:42:22Z</time>
      </trkpt>
      <trkpt lat="42.30216" lon="1.83925">
        <ele>1898.489</ele>
        <time>2019-04-08T00:42:23Z</time>
      </trkpt>
      <trkpt lat="42.30215" lon="1.83924">
        <ele>1894.126</ele>
        <time>2019-04-08T00:42:23Z</time>
      </trkpt>
      <trkpt lat="42.30208" lon="1.83921">
        <ele>1898.047</ele>
        <time>2019-04-08T00:42:26Z</time>
      </trkpt>
      <trkpt lat="42.30208" lon="1.8392">
        <ele>1897.311</ele>
        <time>2019-04-08T00:42:26Z</time>
      </trkpt>
      <trkpt lat="42.30205" lon="1.83918">
        <ele>1901.008</ele>
        <time>2019-04-08T00:42:28Z</time>
      </trkpt>
      <trkpt lat="42.30199" lon="1.83911">
        <ele>1902.395</ele>
        <time>2019-04-08T00:42:31Z</time>
      </trkpt>
      <trkpt lat="42.30198" lon="1.83907">
        <ele>1908.847</ele>
        <time>2019-04-08T00:42:32Z</time>
      </trkpt>
      <trkpt lat="42.30198" lon="1.83905">
        <ele>1908.082</ele>
        <time>2019-04-08T00:42:33Z</time>
      </trkpt>
      <trkpt lat="42.30198" lon="1.83902">
        <ele>1907.133</ele>
        <time>2019-04-08T00:42:33Z</time>
      </trkpt>
      <trkpt lat="42.30198" lon="1.83897">
        <ele>1910.913</ele>
        <time>2019-04-08T00:42:35Z</time>
      </trkpt>
      <trkpt lat="42.30197" lon="1.83894">
        <ele>1911.487</ele>
        <time>2019-04-08T00:42:36Z</time>
      </trkpt>
      <trkpt lat="42.30198" lon="1.83892">
        <ele>1909.536</ele>
        <time>2019-04-08T00:42:37Z</time>
      </trkpt>
      <trkpt lat="42.30198" lon="1.83891">
        <ele>1908.058</ele>
        <time>2019-04-08T00:42:37Z</time>
      </trkpt>
      <trkpt lat="42.30199" lon="1.8389">
        <ele>1912.939</ele>
        <time>2019-04-08T00:42:38Z</time>
      </trkpt>
      <trkpt lat="42.30199" lon="1.83887">
        <ele>1911.601</ele>
        <time>2019-04-08T00:42:38Z</time>
      </trkpt>
      <trkpt lat="42.30203" lon="1.83879">
        <ele>1913.321</ele>
        <time>2019-04-08T00:42:41Z</time>
      </trkpt>
      <trkpt lat="42.30204" lon="1.83877">
        <ele>1914.708</ele>
        <time>2019-04-08T00:42:42Z</time>
      </trkpt>
      <trkpt lat="42.30206" lon="1.83872">
        <ele>1912.916</ele>
        <time>2019-04-08T00:42:44Z</time>
      </trkpt>
      <trkpt lat="42.30207" lon="1.8387">
        <ele>1915.868</ele>
        <time>2019-04-08T00:42:45Z</time>
      </trkpt>
      <trkpt lat="42.30209" lon="1.83868">
        <ele>1911.343</ele>
        <time>2019-04-08T00:42:46Z</time>
      </trkpt>
      <trkpt lat="42.3021" lon="1.83867">
        <ele>1913.424</ele>
        <time>2019-04-08T00:42:46Z</time>
      </trkpt>
      <trkpt lat="42.30213" lon="1.83865">
        <ele>1913.674</ele>
        <time>2019-04-08T00:42:47Z</time>
      </trkpt>
      <trkpt lat="42.30214" lon="1.83856">
        <ele>1912.868</ele>
        <time>2019-04-08T00:42:50Z</time>
      </trkpt>
      <trkpt lat="42.30214" lon="1.83853">
        <ele>1911.787</ele>
        <time>2019-04-08T00:42:51Z</time>
      </trkpt>
      <trkpt lat="42.30214" lon="1.83849">
        <ele>1911.539</ele>
        <time>2019-04-08T00:42:52Z</time>
      </trkpt>
      <trkpt lat="42.30216" lon="1.83823">
        <ele>1912.975</ele>
        <time>2019-04-08T00:43:00Z</time>
      </trkpt>
      <trkpt lat="42.30216" lon="1.83811">
        <ele>1911.328</ele>
        <time>2019-04-08T00:43:03Z</time>
      </trkpt>
      <trkpt lat="42.30216" lon="1.83806">
        <ele>1912.82</ele>
        <time>2019-04-08T00:43:05Z</time>
      </trkpt>
      <trkpt lat="42.30218" lon="1.83799">
        <ele>1915.808</ele>
        <time>2019-04-08T00:43:07Z</time>
      </trkpt>
      <trkpt lat="42.30218" lon="1.83794">
        <ele>1908.98</ele>
        <time>2019-04-08T00:43:09Z</time>
      </trkpt>
      <trkpt lat="42.30219" lon="1.83793">
        <ele>1909.622</ele>
        <time>2019-04-08T00:43:09Z</time>
      </trkpt>
      <trkpt lat="42.30219" lon="1.8379">
        <ele>1913.917</ele>
        <time>2019-04-08T00:43:10Z</time>
      </trkpt>
      <trkpt lat="42.3022" lon="1.83788">
        <ele>1914.128</ele>
        <time>2019-04-08T00:43:10Z</time>
      </trkpt>
      <trkpt lat="42.30222" lon="1.83786">
        <ele>1912.738</ele>
        <time>2019-04-08T00:43:11Z</time>
      </trkpt>
      <trkpt lat="42.30229" lon="1.83767">
        <ele>1910.012</ele>
        <time>2019-04-08T00:43:18Z</time>
      </trkpt>
      <trkpt lat="42.30229" lon="1.8376">
        <ele>1909.491</ele>
        <time>2019-04-08T00:43:20Z</time>
      </trkpt>
      <trkpt lat="42.3023" lon="1.83755">
        <ele>1912.943</ele>
        <time>2019-04-08T00:43:21Z</time>
      </trkpt>
      <trkpt lat="42.30231" lon="1.8375">
        <ele>1912.052</ele>
        <time>2019-04-08T00:43:23Z</time>
      </trkpt>
      <trkpt lat="42.30235" lon="1.83743">
        <ele>1912.453</ele>
        <time>2019-04-08T00:43:25Z</time>
      </trkpt>
      <trkpt lat="42.30238" lon="1.83731">
        <ele>1916.108</ele>
        <time>2019-04-08T00:43:29Z</time>
      </trkpt>
      <trkpt lat="42.30239" lon="1.83729">
        <ele>1915.608</ele>
        <time>2019-04-08T00:43:30Z</time>
      </trkpt>
      <trkpt lat="42.30241" lon="1.8372">
        <ele>1920.188</ele>
        <time>2019-04-08T00:43:33Z</time>
      </trkpt>
      <trkpt lat="42.30242" lon="1.83718">
        <ele>1921.52</ele>
        <time>2019-04-08T00:43:33Z</time>
      </trkpt>
      <trkpt lat="42.30242" lon="1.837">
        <ele>1924.925</ele>
        <time>2019-04-08T00:43:39Z</time>
      </trkpt>
      <trkpt lat="42.30241" lon="1.83695">
        <ele>1928.736</ele>
        <time>2019-04-08T00:43:40Z</time>
      </trkpt>
      <trkpt lat="42.30238" lon="1.83691">
        <ele>1928.766</ele>
        <time>2019-04-08T00:43:42Z</time>
      </trkpt>
      <trkpt lat="42.30234" lon="1.83678">
        <ele>1934.09</ele>
        <time>2019-04-08T00:43:46Z</time>
      </trkpt>
      <trkpt lat="42.30233" lon="1.83677">
        <ele>1933.589</ele>
        <time>2019-04-08T00:43:46Z</time>
      </trkpt>
      <trkpt lat="42.30233" lon="1.83676">
        <ele>1933.011</ele>
        <time>2019-04-08T00:43:47Z</time>
      </trkpt>
      <trkpt lat="42.30229" lon="1.83671">
        <ele>1937.257</ele>
        <time>2019-04-08T00:43:49Z</time>
      </trkpt>
      <trkpt lat="42.30229" lon="1.83666">
        <ele>1934.1</ele>
        <time>2019-04-08T00:43:50Z</time>
      </trkpt>
      <trkpt lat="42.30227" lon="1.83657">
        <ele>1937.32</ele>
        <time>2019-04-08T00:43:53Z</time>
      </trkpt>
      <trkpt lat="42.30226" lon="1.83655">
        <ele>1937.708</ele>
        <time>2019-04-08T00:43:54Z</time>
      </trkpt>
      <trkpt lat="42.30223" lon="1.83649">
        <ele>1941.128</ele>
        <time>2019-04-08T00:43:56Z</time>
      </trkpt>
      <trkpt lat="42.3022" lon="1.83641">
        <ele>1943.44</ele>
        <time>2019-04-08T00:43:59Z</time>
      </trkpt>
      <trkpt lat="42.30217" lon="1.83637">
        <ele>1946.035</ele>
        <time>2019-04-08T00:44:00Z</time>
      </trkpt>
      <trkpt lat="42.30216" lon="1.83633">
        <ele>1942.526</ele>
        <time>2019-04-08T00:44:02Z</time>
      </trkpt>
      <trkpt lat="42.30214" lon="1.83628">
        <ele>1939.796</ele>
        <time>2019-04-08T00:44:03Z</time>
      </trkpt>
      <trkpt lat="42.30216" lon="1.8363">
        <ele>1945.13</ele>
        <time>2019-04-08T00:44:04Z</time>
      </trkpt>
      <trkpt lat="42.30217" lon="1.83631">
        <ele>1947.029</ele>
        <time>2019-04-08T00:44:05Z</time>
      </trkpt>
      <trkpt lat="42.30219" lon="1.83632">
        <ele>1948.081</ele>
        <time>2019-04-08T00:44:05Z</time>
      </trkpt>
      <trkpt lat="42.30221" lon="1.83632">
        <ele>1950.748</ele>
        <time>2019-04-08T00:44:06Z</time>
      </trkpt>
      <trkpt lat="42.30223" lon="1.83624">
        <ele>1949.861</ele>
        <time>2019-04-08T00:44:09Z</time>
      </trkpt>
      <trkpt lat="42.30224" lon="1.83624">
        <ele>1953.317</ele>
        <time>2019-04-08T00:44:09Z</time>
      </trkpt>
      <trkpt lat="42.30227" lon="1.83623">
        <ele>1958.908</ele>
        <time>2019-04-08T00:44:10Z</time>
      </trkpt>
      <trkpt lat="42.30229" lon="1.83622">
        <ele>1959.947</ele>
        <time>2019-04-08T00:44:11Z</time>
      </trkpt>
      <trkpt lat="42.3023" lon="1.83621">
        <ele>1956.699</ele>
        <time>2019-04-08T00:44:11Z</time>
      </trkpt>
      <trkpt lat="42.3023" lon="1.83621">
        <ele>1957.124</ele>
        <time>2019-04-08T00:44:12Z</time>
      </trkpt>
      <trkpt lat="42.30233" lon="1.8362">
        <ele>1957.965</ele>
        <time>2019-04-08T00:44:13Z</time>
      </trkpt>
      <trkpt lat="42.30235" lon="1.8362">
        <ele>1963.665</ele>
        <time>2019-04-08T00:44:14Z</time>
      </trkpt>
      <trkpt lat="42.30236" lon="1.8362">
        <ele>1960.039</ele>
        <time>2019-04-08T00:44:14Z</time>
      </trkpt>
      <trkpt lat="42.30236" lon="1.83618">
        <ele>1965.398</ele>
        <time>2019-04-08T00:44:15Z</time>
      </trkpt>
      <trkpt lat="42.30236" lon="1.83617">
        <ele>1964.22</ele>
        <time>2019-04-08T00:44:15Z</time>
      </trkpt>
      <trkpt lat="42.30236" lon="1.83612">
        <ele>1969.769</ele>
        <time>2019-04-08T00:44:17Z</time>
      </trkpt>
      <trkpt lat="42.30236" lon="1.83612">
        <ele>1965.404</ele>
        <time>2019-04-08T00:44:17Z</time>
      </trkpt>
      <trkpt lat="42.30234" lon="1.8361">
        <ele>1971.024</ele>
        <time>2019-04-08T00:44:17Z</time>
      </trkpt>
      <trkpt lat="42.30233" lon="1.83608">
        <ele>1978.608</ele>
        <time>2019-04-08T00:44:18Z</time>
      </trkpt>
      <trkpt lat="42.30233" lon="1.83605">
        <ele>1969.639</ele>
        <time>2019-04-08T00:44:19Z</time>
      </trkpt>
      <trkpt lat="42.30233" lon="1.83603">
        <ele>1971.991</ele>
        <time>2019-04-08T00:44:20Z</time>
      </trkpt>
      <trkpt lat="42.30232" lon="1.83598">
        <ele>1971.146</ele>
        <time>2019-04-08T00:44:21Z</time>
      </trkpt>
      <trkpt lat="42.30234" lon="1.83592">
        <ele>1974.737</ele>
        <time>2019-04-08T00:44:23Z</time>
      </trkpt>
      <trkpt lat="42.30234" lon="1.83591">
        <ele>1977.377</ele>
        <time>2019-04-08T00:44:23Z</time>
      </trkpt>
      <trkpt lat="42.30233" lon="1.83589">
        <ele>1973.951</ele>
        <time>2019-04-08T00:44:24Z</time>
      </trkpt>
      <trkpt lat="42.30233" lon="1.83589">
        <ele>1974.71</ele>
        <time>2019-04-08T00:44:24Z</time>
      </trkpt>
      <trkpt lat="42.30233" lon="1.83588">
        <ele>1978.362</ele>
        <time>2019-04-08T00:44:24Z</time>
      </trkpt>
      <trkpt lat="42.30234" lon="1.83588">
        <ele>1977.831</ele>
        <time>2019-04-08T00:44:25Z</time>
      </trkpt>
      <trkpt lat="42.30233" lon="1.83582">
        <ele>1974.361</ele>
        <time>2019-04-08T00:44:26Z</time>
      </trkpt>
      <trkpt lat="42.30233" lon="1.83578">
        <ele>1970.907</ele>
        <time>2019-04-08T00:44:27Z</time>
      </trkpt>
      <trkpt lat="42.30233" lon="1.83575">
        <ele>1974.908</ele>
        <time>2019-04-08T00:44:29Z</time>
      </trkpt>
      <trkpt lat="42.30233" lon="1.83574">
        <ele>1973.066</ele>
        <time>2019-04-08T00:44:29Z</time>
      </trkpt>
      <trkpt lat="42.30232" lon="1.83572">
        <ele>1973.488</ele>
        <time>2019-04-08T00:44:29Z</time>
      </trkpt>
      <trkpt lat="42.30229" lon="1.83569">
        <ele>1975.213</ele>
        <time>2019-04-08T00:44:31Z</time>
      </trkpt>
      <trkpt lat="42.30227" lon="1.83567">
        <ele>1980.764</ele>
        <time>2019-04-08T00:44:32Z</time>
      </trkpt>
      <trkpt lat="42.30225" lon="1.83565">
        <ele>1984.694</ele>
        <time>2019-04-08T00:44:33Z</time>
      </trkpt>
      <trkpt lat="42.30225" lon="1.83565">
        <ele>1984.158</ele>
        <time>2019-04-08T00:44:33Z</time>
      </trkpt>
      <trkpt lat="42.30225" lon="1.83564">
        <ele>1979.717</ele>
        <time>2019-04-08T00:44:33Z</time>
      </trkpt>
      <trkpt lat="42.30225" lon="1.83564">
        <ele>1983.069</ele>
        <time>2019-04-08T00:44:33Z</time>
      </trkpt>
      <trkpt lat="42.30225" lon="1.83564">
        <ele>1979.659</ele>
        <time>2019-04-08T00:44:33Z</time>
      </trkpt>
      <trkpt lat="42.30225" lon="1.83564">
        <ele>1983.503</ele>
        <time>2019-04-08T00:44:33Z</time>
      </trkpt>
      <trkpt lat="42.30225" lon="1.83564">
        <ele>1982.023</ele>
        <time>2019-04-08T00:44:33Z</time>
      </trkpt>
      <trkpt lat="42.30225" lon="1.83564">
        <ele>1984.508</ele>
        <time>2019-04-08T00:44:33Z</time>
      </trkpt>
      <trkpt lat="42.30225" lon="1.83564">
        <ele>1988.858</ele>
        <time>2019-04-08T00:44:33Z</time>
      </trkpt>
      <trkpt lat="42.30225" lon="1.83564">
        <ele>1988.34</ele>
        <time>2019-04-08T00:44:33Z</time>
      </trkpt>
      <trkpt lat="42.30226" lon="1.83562">
        <ele>1990.995</ele>
        <time>2019-04-08T00:44:34Z</time>
      </trkpt>
      <trkpt lat="42.30226" lon="1.83558">
        <ele>1987.536</ele>
        <time>2019-04-08T00:44:35Z</time>
      </trkpt>
      <trkpt lat="42.30226" lon="1.83554">
        <ele>1986.856</ele>
        <time>2019-04-08T00:44:36Z</time>
      </trkpt>
      <trkpt lat="42.30225" lon="1.83552">
        <ele>1990.11</ele>
        <time>2019-04-08T00:44:37Z</time>
      </trkpt>
      <trkpt lat="42.30225" lon="1.83551">
        <ele>1984.619</ele>
        <time>2019-04-08T00:44:37Z</time>
      </trkpt>
      <trkpt lat="42.30224" lon="1.83549">
        <ele>1988.271</ele>
        <time>2019-04-08T00:44:38Z</time>
      </trkpt>
      <trkpt lat="42.30224" lon="1.83547">
        <ele>1989.143</ele>
        <time>2019-04-08T00:44:39Z</time>
      </trkpt>
      <trkpt lat="42.30224" lon="1.83546">
        <ele>1987.364</ele>
        <time>2019-04-08T00:44:39Z</time>
      </trkpt>
      <trkpt lat="42.30224" lon="1.83546">
        <ele>1990.91</ele>
        <time>2019-04-08T00:44:39Z</time>
      </trkpt>
      <trkpt lat="42.30224" lon="1.83546">
        <ele>1991.608</ele>
        <time>2019-04-08T00:44:39Z</time>
      </trkpt>
      <trkpt lat="42.30224" lon="1.83546">
        <ele>1993.487</ele>
        <time>2019-04-08T00:44:39Z</time>
      </trkpt>
      <trkpt lat="42.30228" lon="1.83543">
        <ele>1998.979</ele>
        <time>2019-04-08T00:44:41Z</time>
      </trkpt>
      <trkpt lat="42.30229" lon="1.83543">
        <ele>2000.014</ele>
        <time>2019-04-08T00:44:41Z</time>
      </trkpt>
      <trkpt lat="42.30232" lon="1.83542">
        <ele>1996.075</ele>
        <time>2019-04-08T00:44:43Z</time>
      </trkpt>
      <trkpt lat="42.30242" lon="1.83536">
        <ele>2000.345</ele>
        <time>2019-04-08T00:44:47Z</time>
      </trkpt>
      <trkpt lat="42.30242" lon="1.8353">
        <ele>2001.319</ele>
        <time>2019-04-08T00:44:49Z</time>
      </trkpt>
      <trkpt lat="42.3024" lon="1.83524">
        <ele>2007.158</ele>
        <time>2019-04-08T00:44:51Z</time>
      </trkpt>
      <trkpt lat="42.3024" lon="1.83523">
        <ele>2006.54</ele>
        <time>2019-04-08T00:44:51Z</time>
      </trkpt>
      <trkpt lat="42.30237" lon="1.83516">
        <ele>2002.717</ele>
        <time>2019-04-08T00:44:53Z</time>
      </trkpt>
      <trkpt lat="42.30236" lon="1.83512">
        <ele>2000.087</ele>
        <time>2019-04-08T00:44:54Z</time>
      </trkpt>
      <trkpt lat="42.30235" lon="1.83509">
        <ele>2005.615</ele>
        <time>2019-04-08T00:44:55Z</time>
      </trkpt>
      <trkpt lat="42.30233" lon="1.83502">
        <ele>2000.408</ele>
        <time>2019-04-08T00:44:58Z</time>
      </trkpt>
      <trkpt lat="42.30231" lon="1.835">
        <ele>2004.244</ele>
        <time>2019-04-08T00:44:58Z</time>
      </trkpt>
      <trkpt lat="42.30231" lon="1.83499">
        <ele>2008.216</ele>
        <time>2019-04-08T00:44:59Z</time>
      </trkpt>
      <trkpt lat="42.3023" lon="1.83498">
        <ele>2005.291</ele>
        <time>2019-04-08T00:44:59Z</time>
      </trkpt>
      <trkpt lat="42.3023" lon="1.83494">
        <ele>2003.152</ele>
        <time>2019-04-08T00:45:00Z</time>
      </trkpt>
      <trkpt lat="42.3023" lon="1.83491">
        <ele>2006.172</ele>
        <time>2019-04-08T00:45:01Z</time>
      </trkpt>
      <trkpt lat="42.30229" lon="1.83487">
        <ele>2008.266</ele>
        <time>2019-04-08T00:45:03Z</time>
      </trkpt>
      <trkpt lat="42.30227" lon="1.83483">
        <ele>2011.345</ele>
        <time>2019-04-08T00:45:04Z</time>
      </trkpt>
      <trkpt lat="42.30226" lon="1.8348">
        <ele>2014.277</ele>
        <time>2019-04-08T00:45:05Z</time>
      </trkpt>
      <trkpt lat="42.30226" lon="1.83479">
        <ele>2013.687</ele>
        <time>2019-04-08T00:45:05Z</time>
      </trkpt>
      <trkpt lat="42.30221" lon="1.83467">
        <ele>2015.842</ele>
        <time>2019-04-08T00:45:09Z</time>
      </trkpt>
      <trkpt lat="42.3022" lon="1.83464">
        <ele>2019.626</ele>
        <time>2019-04-08T00:45:10Z</time>
      </trkpt>
      <trkpt lat="42.3022" lon="1.83463">
        <ele>2019.208</ele>
        <time>2019-04-08T00:45:11Z</time>
      </trkpt>
      <trkpt lat="42.30219" lon="1.8346">
        <ele>2012.821</ele>
        <time>2019-04-08T00:45:11Z</time>
      </trkpt>
      <trkpt lat="42.30219" lon="1.83459">
        <ele>2013.063</ele>
        <time>2019-04-08T00:45:12Z</time>
      </trkpt>
      <trkpt lat="42.30217" lon="1.83455">
        <ele>2015.688</ele>
        <time>2019-04-08T00:45:13Z</time>
      </trkpt>
      <trkpt lat="42.30215" lon="1.83445">
        <ele>2019.019</ele>
        <time>2019-04-08T00:45:16Z</time>
      </trkpt>
      <trkpt lat="42.30215" lon="1.83442">
        <ele>2017.839</ele>
        <time>2019-04-08T00:45:17Z</time>
      </trkpt>
      <trkpt lat="42.30216" lon="1.8344">
        <ele>2022.583</ele>
        <time>2019-04-08T00:45:18Z</time>
      </trkpt>
      <trkpt lat="42.30217" lon="1.83438">
        <ele>2023.082</ele>
        <time>2019-04-08T00:45:19Z</time>
      </trkpt>
      <trkpt lat="42.30218" lon="1.83435">
        <ele>2021.034</ele>
        <time>2019-04-08T00:45:20Z</time>
      </trkpt>
      <trkpt lat="42.30224" lon="1.83425">
        <ele>2024.864</ele>
        <time>2019-04-08T00:45:24Z</time>
      </trkpt>
      <trkpt lat="42.30228" lon="1.83421">
        <ele>2029.206</ele>
        <time>2019-04-08T00:45:25Z</time>
      </trkpt>
      <trkpt lat="42.30232" lon="1.83416">
        <ele>2033.416</ele>
        <time>2019-04-08T00:45:28Z</time>
      </trkpt>
      <trkpt lat="42.30234" lon="1.83412">
        <ele>2036.208</ele>
        <time>2019-04-08T00:45:29Z</time>
      </trkpt>
      <trkpt lat="42.30234" lon="1.83411">
        <ele>2037.869</ele>
        <time>2019-04-08T00:45:29Z</time>
      </trkpt>
      <trkpt lat="42.3024" lon="1.83405">
        <ele>2038.621</ele>
        <time>2019-04-08T00:45:32Z</time>
      </trkpt>
      <trkpt lat="42.30242" lon="1.83401">
        <ele>2042.086</ele>
        <time>2019-04-08T00:45:34Z</time>
      </trkpt>
      <trkpt lat="42.30242" lon="1.83399">
        <ele>2045.917</ele>
        <time>2019-04-08T00:45:34Z</time>
      </trkpt>
      <trkpt lat="42.30245" lon="1.83392">
        <ele>2046.577</ele>
        <time>2019-04-08T00:45:37Z</time>
      </trkpt>
      <trkpt lat="42.30246" lon="1.83387">
        <ele>2046.921</ele>
        <time>2019-04-08T00:45:38Z</time>
      </trkpt>
      <trkpt lat="42.30251" lon="1.83385">
        <ele>2050.79</ele>
        <time>2019-04-08T00:45:40Z</time>
      </trkpt>
      <trkpt lat="42.30251" lon="1.83385">
        <ele>2050.422</ele>
        <time>2019-04-08T00:45:40Z</time>
      </trkpt>
      <trkpt lat="42.30251" lon="1.83385">
        <ele>2054.144</ele>
        <time>2019-04-08T00:45:40Z</time>
      </trkpt>
      <trkpt lat="42.30251" lon="1.83385">
        <ele>2060.405</ele>
        <time>2019-04-08T00:45:40Z</time>
      </trkpt>
      <trkpt lat="42.30251" lon="1.83385">
        <ele>2059.815</ele>
        <time>2019-04-08T00:45:40Z</time>
      </trkpt>
      <trkpt lat="42.30252" lon="1.83383">
        <ele>2056.408</ele>
        <time>2019-04-08T00:45:41Z</time>
      </trkpt>
      <trkpt lat="42.30254" lon="1.83381">
        <ele>2055.287</ele>
        <time>2019-04-08T00:45:42Z</time>
      </trkpt>
      <trkpt lat="42.30261" lon="1.83378">
        <ele>2059.249</ele>
        <time>2019-04-08T00:45:45Z</time>
      </trkpt>
      <trkpt lat="42.30264" lon="1.83376">
        <ele>2062.094</ele>
        <time>2019-04-08T00:45:46Z</time>
      </trkpt>
      <trkpt lat="42.30265" lon="1.83374">
        <ele>2063.115</ele>
        <time>2019-04-08T00:45:47Z</time>
      </trkpt>
      <trkpt lat="42.30266" lon="1.83373">
        <ele>2066.355</ele>
        <time>2019-04-08T00:45:47Z</time>
      </trkpt>
      <trkpt lat="42.30267" lon="1.8337">
        <ele>2070.189</ele>
        <time>2019-04-08T00:45:48Z</time>
      </trkpt>
      <trkpt lat="42.30267" lon="1.83369">
        <ele>2069.198</ele>
        <time>2019-04-08T00:45:49Z</time>
      </trkpt>
      <trkpt lat="42.30268" lon="1.83366">
        <ele>2064.91</ele>
        <time>2019-04-08T00:45:49Z</time>
      </trkpt>
      <trkpt lat="42.30268" lon="1.83365">
        <ele>2067.288</ele>
        <time>2019-04-08T00:45:50Z</time>
      </trkpt>
      <trkpt lat="42.30268" lon="1.83361">
        <ele>2069.224</ele>
        <time>2019-04-08T00:45:51Z</time>
      </trkpt>
      <trkpt lat="42.30268" lon="1.83357">
        <ele>2067.726</ele>
        <time>2019-04-08T00:45:52Z</time>
      </trkpt>
      <trkpt lat="42.30268" lon="1.83356">
        <ele>2070.508</ele>
        <time>2019-04-08T00:45:53Z</time>
      </trkpt>
      <trkpt lat="42.30268" lon="1.83354">
        <ele>2069.691</ele>
        <time>2019-04-08T00:45:53Z</time>
      </trkpt>
      <trkpt lat="42.30268" lon="1.8335">
        <ele>2062.983</ele>
        <time>2019-04-08T00:45:54Z</time>
      </trkpt>
      <trkpt lat="42.30267" lon="1.83343">
        <ele>2067.198</ele>
        <time>2019-04-08T00:45:56Z</time>
      </trkpt>
      <trkpt lat="42.30266" lon="1.83338">
        <ele>2062.329</ele>
        <time>2019-04-08T00:45:58Z</time>
      </trkpt>
      <trkpt lat="42.30265" lon="1.83334">
        <ele>2057.059</ele>
        <time>2019-04-08T00:45:59Z</time>
      </trkpt>
      <trkpt lat="42.30263" lon="1.83329">
        <ele>2062.093</ele>
        <time>2019-04-08T00:46:01Z</time>
      </trkpt>
      <trkpt lat="42.30262" lon="1.83325">
        <ele>2054.222</ele>
        <time>2019-04-08T00:46:02Z</time>
      </trkpt>
      <trkpt lat="42.30261" lon="1.83324">
        <ele>2056.034</ele>
        <time>2019-04-08T00:46:03Z</time>
      </trkpt>
      <trkpt lat="42.30259" lon="1.83318">
        <ele>2061.784</ele>
        <time>2019-04-08T00:46:05Z</time>
      </trkpt>
      <trkpt lat="42.30259" lon="1.83316">
        <ele>2061.407</ele>
        <time>2019-04-08T00:46:05Z</time>
      </trkpt>
      <trkpt lat="42.30257" lon="1.83313">
        <ele>2060.317</ele>
        <time>2019-04-08T00:46:06Z</time>
      </trkpt>
      <trkpt lat="42.30252" lon="1.83295">
        <ele>2057.508</ele>
        <time>2019-04-08T00:46:12Z</time>
      </trkpt>
      <trkpt lat="42.30251" lon="1.83292">
        <ele>2058.491</ele>
        <time>2019-04-08T00:46:13Z</time>
      </trkpt>
      <trkpt lat="42.30248" lon="1.83281">
        <ele>2059.453</ele>
        <time>2019-04-08T00:46:16Z</time>
      </trkpt>
      <trkpt lat="42.30247" lon="1.8327">
        <ele>2055.198</ele>
        <time>2019-04-08T00:46:20Z</time>
      </trkpt>
      <trkpt lat="42.30246" lon="1.83263">
        <ele>2052.699</ele>
        <time>2019-04-08T00:46:22Z</time>
      </trkpt>
      <trkpt lat="42.30247" lon="1.83242">
        <ele>2055.749</ele>
        <time>2019-04-08T00:46:28Z</time>
      </trkpt>
      <trkpt lat="42.30248" lon="1.83239">
        <ele>2055.553</ele>
        <time>2019-04-08T00:46:29Z</time>
      </trkpt>
      <trkpt lat="42.30248" lon="1.83234">
        <ele>2052.522</ele>
        <time>2019-04-08T00:46:30Z</time>
      </trkpt>
      <trkpt lat="42.30247" lon="1.83231">
        <ele>2052.424</ele>
        <time>2019-04-08T00:46:31Z</time>
      </trkpt>
      <trkpt lat="42.30247" lon="1.83213">
        <ele>2046.055</ele>
        <time>2019-04-08T00:46:37Z</time>
      </trkpt>
      <trkpt lat="42.30246" lon="1.8321">
        <ele>2046.307</ele>
        <time>2019-04-08T00:46:37Z</time>
      </trkpt>
      <trkpt lat="42.30247" lon="1.83203">
        <ele>2043.517</ele>
        <time>2019-04-08T00:46:39Z</time>
      </trkpt>
      <trkpt lat="42.30247" lon="1.83201">
        <ele>2043.108</ele>
        <time>2019-04-08T00:46:40Z</time>
      </trkpt>
      <trkpt lat="42.30246" lon="1.83194">
        <ele>2036.888</ele>
        <time>2019-04-08T00:46:42Z</time>
      </trkpt>
      <trkpt lat="42.30246" lon="1.83191">
        <ele>2039.21</ele>
        <time>2019-04-08T00:46:43Z</time>
      </trkpt>
      <trkpt lat="42.30245" lon="1.83185">
        <ele>2043.115</ele>
        <time>2019-04-08T00:46:45Z</time>
      </trkpt>
      <trkpt lat="42.30247" lon="1.83181">
        <ele>2036.376</ele>
        <time>2019-04-08T00:46:46Z</time>
      </trkpt>
      <trkpt lat="42.30248" lon="1.83176">
        <ele>2035.096</ele>
        <time>2019-04-08T00:46:48Z</time>
      </trkpt>
      <trkpt lat="42.30249" lon="1.83158">
        <ele>2031.72</ele>
        <time>2019-04-08T00:46:53Z</time>
      </trkpt>
      <trkpt lat="42.30248" lon="1.83144">
        <ele>2034.559</ele>
        <time>2019-04-08T00:46:57Z</time>
      </trkpt>
      <trkpt lat="42.30241" lon="1.83113">
        <ele>2032.931</ele>
        <time>2019-04-08T00:47:07Z</time>
      </trkpt>
      <trkpt lat="42.30233" lon="1.83085">
        <ele>2030.294</ele>
        <time>2019-04-08T00:47:16Z</time>
      </trkpt>
      <trkpt lat="42.3022" lon="1.83069">
        <ele>2026.557</ele>
        <time>2019-04-08T00:47:23Z</time>
      </trkpt>
      <trkpt lat="42.30217" lon="1.83061">
        <ele>2023.422</ele>
        <time>2019-04-08T00:47:26Z</time>
      </trkpt>
      <trkpt lat="42.30209" lon="1.83048">
        <ele>2019.608</ele>
        <time>2019-04-08T00:47:31Z</time>
      </trkpt>
      <trkpt lat="42.30196" lon="1.8303">
        <ele>2016.132</ele>
        <time>2019-04-08T00:47:38Z</time>
      </trkpt>
      <trkpt lat="42.30191" lon="1.83026">
        <ele>2015.634</ele>
        <time>2019-04-08T00:47:40Z</time>
      </trkpt>
      <trkpt lat="42.30176" lon="1.83013">
        <ele>2011.989</ele>
        <time>2019-04-08T00:47:48Z</time>
      </trkpt>
      <trkpt lat="42.30168" lon="1.83004">
        <ele>2008.03</ele>
        <time>2019-04-08T00:47:52Z</time>
      </trkpt>
      <trkpt lat="42.30157" lon="1.82992">
        <ele>2007.65</ele>
        <time>2019-04-08T00:47:58Z</time>
      </trkpt>
      <trkpt lat="42.30156" lon="1.82986">
        <ele>2004.794</ele>
        <time>2019-04-08T00:47:59Z</time>
      </trkpt>
      <trkpt lat="42.30138" lon="1.82968">
        <ele>2001.893</ele>
        <time>2019-04-08T00:48:08Z</time>
      </trkpt>
      <trkpt lat="42.30124" lon="1.82958">
        <ele>1998.075</ele>
        <time>2019-04-08T00:48:14Z</time>
      </trkpt>
      <trkpt lat="42.30123" lon="1.82957">
        <ele>1999.297</ele>
        <time>2019-04-08T00:48:15Z</time>
      </trkpt>
      <trkpt lat="42.30108" lon="1.82942">
        <ele>1995.723</ele>
        <time>2019-04-08T00:48:23Z</time>
      </trkpt>
      <trkpt lat="42.30103" lon="1.82936">
        <ele>1994.425</ele>
        <time>2019-04-08T00:48:25Z</time>
      </trkpt>
      <trkpt lat="42.30095" lon="1.82923">
        <ele>1988.308</ele>
        <time>2019-04-08T00:48:30Z</time>
      </trkpt>
      <trkpt lat="42.30094" lon="1.82919">
        <ele>1988.292</ele>
        <time>2019-04-08T00:48:31Z</time>
      </trkpt>
      <trkpt lat="42.30092" lon="1.82913">
        <ele>1989.844</ele>
        <time>2019-04-08T00:48:33Z</time>
      </trkpt>
      <trkpt lat="42.30091" lon="1.82907">
        <ele>1992.539</ele>
        <time>2019-04-08T00:48:35Z</time>
      </trkpt>
      <trkpt lat="42.30091" lon="1.82903">
        <ele>1992.87</ele>
        <time>2019-04-08T00:48:36Z</time>
      </trkpt>
      <trkpt lat="42.30089" lon="1.82886">
        <ele>1995.52</ele>
        <time>2019-04-08T00:48:41Z</time>
      </trkpt>
      <trkpt lat="42.30088" lon="1.82873">
        <ele>1990.944</ele>
        <time>2019-04-08T00:48:45Z</time>
      </trkpt>
      <trkpt lat="42.30088" lon="1.82857">
        <ele>1995.143</ele>
        <time>2019-04-08T00:48:50Z</time>
      </trkpt>
      <trkpt lat="42.30086" lon="1.82838">
        <ele>1989.265</ele>
        <time>2019-04-08T00:48:56Z</time>
      </trkpt>
      <trkpt lat="42.30086" lon="1.82834">
        <ele>1992.398</ele>
        <time>2019-04-08T00:48:57Z</time>
      </trkpt>
      <trkpt lat="42.30084" lon="1.82825">
        <ele>1993.615</ele>
        <time>2019-04-08T00:48:59Z</time>
      </trkpt>
      <trkpt lat="42.30083" lon="1.82806">
        <ele>1995.926</ele>
        <time>2019-04-08T00:49:05Z</time>
      </trkpt>
      <trkpt lat="42.30077" lon="1.82788">
        <ele>1992.608</ele>
        <time>2019-04-08T00:49:11Z</time>
      </trkpt>
      <trkpt lat="42.30076" lon="1.82777">
        <ele>1996.132</ele>
        <time>2019-04-08T00:49:14Z</time>
      </trkpt>
      <trkpt lat="42.30075" lon="1.82775">
        <ele>1996.414</ele>
        <time>2019-04-08T00:49:15Z</time>
      </trkpt>
      <trkpt lat="42.30068" lon="1.82771">
        <ele>1997.519</ele>
        <time>2019-04-08T00:49:18Z</time>
      </trkpt>
      <trkpt lat="42.30059" lon="1.82755">
        <ele>1996.98</ele>
        <time>2019-04-08T00:49:24Z</time>
      </trkpt>
      <trkpt lat="42.30054" lon="1.82745">
        <ele>1994.11</ele>
        <time>2019-04-08T00:49:28Z</time>
      </trkpt>
      <trkpt lat="42.30051" lon="1.8274">
        <ele>1996.934</ele>
        <time>2019-04-08T00:49:29Z</time>
      </trkpt>
      <trkpt lat="42.30046" lon="1.8273">
        <ele>1994.283</ele>
        <time>2019-04-08T00:49:33Z</time>
      </trkpt>
      <trkpt lat="42.30045" lon="1.82727">
        <ele>1997.835</ele>
        <time>2019-04-08T00:49:34Z</time>
      </trkpt>
      <trkpt lat="42.30057" lon="1.82707">
        <ele>1993.498</ele>
        <time>2019-04-08T00:49:42Z</time>
      </trkpt>
      <trkpt lat="42.30056" lon="1.82699">
        <ele>1993.115</ele>
        <time>2019-04-08T00:49:44Z</time>
      </trkpt>
      <trkpt lat="42.30056" lon="1.82696">
        <ele>1992.626</ele>
        <time>2019-04-08T00:49:45Z</time>
      </trkpt>
      <trkpt lat="42.30055" lon="1.82692">
        <ele>1992.508</ele>
        <time>2019-04-08T00:49:46Z</time>
      </trkpt>
      <trkpt lat="42.30055" lon="1.82687">
        <ele>1992.712</ele>
        <time>2019-04-08T00:49:48Z</time>
      </trkpt>
      <trkpt lat="42.30057" lon="1.82677">
        <ele>1991.144</ele>
        <time>2019-04-08T00:49:51Z</time>
      </trkpt>
      <trkpt lat="42.30055" lon="1.82674">
        <ele>1991.649</ele>
        <time>2019-04-08T00:49:52Z</time>
      </trkpt>
      <trkpt lat="42.30055" lon="1.82671">
        <ele>1991.08</ele>
        <time>2019-04-08T00:49:53Z</time>
      </trkpt>
      <trkpt lat="42.30053" lon="1.8265">
        <ele>1991.24</ele>
        <time>2019-04-08T00:49:59Z</time>
      </trkpt>
      <trkpt lat="42.3005" lon="1.82645">
        <ele>1992.734</ele>
        <time>2019-04-08T00:50:01Z</time>
      </trkpt>
      <trkpt lat="42.30049" lon="1.82642">
        <ele>1993.163</ele>
        <time>2019-04-08T00:50:02Z</time>
      </trkpt>
      <trkpt lat="42.30049" lon="1.8264">
        <ele>1993.385</ele>
        <time>2019-04-08T00:50:03Z</time>
      </trkpt>
      <trkpt lat="42.30048" lon="1.82636">
        <ele>1993.615</ele>
        <time>2019-04-08T00:50:04Z</time>
      </trkpt>
      <trkpt lat="42.30041" lon="1.82607">
        <ele>1994.265</ele>
        <time>2019-04-08T00:50:13Z</time>
      </trkpt>
      <trkpt lat="42.30037" lon="1.82583">
        <ele>1994.511</ele>
        <time>2019-04-08T00:50:20Z</time>
      </trkpt>
      <trkpt lat="42.30035" lon="1.82564">
        <ele>1995.608</ele>
        <time>2019-04-08T00:50:26Z</time>
      </trkpt>
      <trkpt lat="42.30034" lon="1.82545">
        <ele>1996.844</ele>
        <time>2019-04-08T00:50:32Z</time>
      </trkpt>
      <trkpt lat="42.30034" lon="1.82549">
        <ele>1996.946</ele>
        <time>2019-04-08T00:50:33Z</time>
      </trkpt>
      <trkpt lat="42.30037" lon="1.82527">
        <ele>1998.531</ele>
        <time>2019-04-08T00:50:40Z</time>
      </trkpt>
      <trkpt lat="42.30037" lon="1.82516">
        <ele>2000.372</ele>
        <time>2019-04-08T00:50:43Z</time>
      </trkpt>
      <trkpt lat="42.30037" lon="1.82511">
        <ele>2000.772</ele>
        <time>2019-04-08T00:50:44Z</time>
      </trkpt>
      <trkpt lat="42.30035" lon="1.82493">
        <ele>2004.756</ele>
        <time>2019-04-08T00:50:49Z</time>
      </trkpt>
      <trkpt lat="42.30034" lon="1.82486">
        <ele>2007.275</ele>
        <time>2019-04-08T00:50:52Z</time>
      </trkpt>
      <trkpt lat="42.30035" lon="1.82474">
        <ele>2010.577</ele>
        <time>2019-04-08T00:50:55Z</time>
      </trkpt>
      <trkpt lat="42.30035" lon="1.82469">
        <ele>2010.837</ele>
        <time>2019-04-08T00:50:57Z</time>
      </trkpt>
      <trkpt lat="42.30036" lon="1.82459">
        <ele>2012.849</ele>
        <time>2019-04-08T00:51:00Z</time>
      </trkpt>
      <trkpt lat="42.30036" lon="1.82451">
        <ele>2015.613</ele>
        <time>2019-04-08T00:51:02Z</time>
      </trkpt>
      <trkpt lat="42.30034" lon="1.82438">
        <ele>2018.708</ele>
        <time>2019-04-08T00:51:06Z</time>
      </trkpt>
      <trkpt lat="42.30031" lon="1.82433">
        <ele>2021.036</ele>
        <time>2019-04-08T00:51:08Z</time>
      </trkpt>
      <trkpt lat="42.30029" lon="1.82431">
        <ele>2023.858</ele>
        <time>2019-04-08T00:51:09Z</time>
      </trkpt>
      <trkpt lat="42.30028" lon="1.82428">
        <ele>2025.333</ele>
        <time>2019-04-08T00:51:10Z</time>
      </trkpt>
      <trkpt lat="42.30023" lon="1.82411">
        <ele>2029.714</ele>
        <time>2019-04-08T00:51:15Z</time>
      </trkpt>
      <trkpt lat="42.30022" lon="1.82406">
        <ele>2030.164</ele>
        <time>2019-04-08T00:51:17Z</time>
      </trkpt>
      <trkpt lat="42.3002" lon="1.82397">
        <ele>2032.748</ele>
        <time>2019-04-08T00:51:19Z</time>
      </trkpt>
      <trkpt lat="42.30019" lon="1.82383">
        <ele>2034.967</ele>
        <time>2019-04-08T00:51:24Z</time>
      </trkpt>
      <trkpt lat="42.30019" lon="1.82377">
        <ele>2035.649</ele>
        <time>2019-04-08T00:51:25Z</time>
      </trkpt>
      <trkpt lat="42.30018" lon="1.82366">
        <ele>2038.452</ele>
        <time>2019-04-08T00:51:29Z</time>
      </trkpt>
      <trkpt lat="42.30017" lon="1.82352">
        <ele>2041.153</ele>
        <time>2019-04-08T00:51:33Z</time>
      </trkpt>
      <trkpt lat="42.30018" lon="1.82334">
        <ele>2044.908</ele>
        <time>2019-04-08T00:51:38Z</time>
      </trkpt>
      <trkpt lat="42.30019" lon="1.8232">
        <ele>2047.508</ele>
        <time>2019-04-08T00:51:42Z</time>
      </trkpt>
      <trkpt lat="42.30018" lon="1.82311">
        <ele>2050.798</ele>
        <time>2019-04-08T00:51:45Z</time>
      </trkpt>
      <trkpt lat="42.30018" lon="1.82309">
        <ele>2051.98</ele>
        <time>2019-04-08T00:51:46Z</time>
      </trkpt>
      <trkpt lat="42.3002" lon="1.82295">
        <ele>2055.545</ele>
        <time>2019-04-08T00:51:50Z</time>
      </trkpt>
      <trkpt lat="42.30019" lon="1.82286">
        <ele>2058.036</ele>
        <time>2019-04-08T00:51:53Z</time>
      </trkpt>
      <trkpt lat="42.30018" lon="1.82279">
        <ele>2060.116</ele>
        <time>2019-04-08T00:51:55Z</time>
      </trkpt>
      <trkpt lat="42.30016" lon="1.82277">
        <ele>2059.94</ele>
        <time>2019-04-08T00:51:56Z</time>
      </trkpt>
      <trkpt lat="42.30014" lon="1.82267">
        <ele>2061.899</ele>
        <time>2019-04-08T00:51:59Z</time>
      </trkpt>
      <trkpt lat="42.30014" lon="1.82257">
        <ele>2062.861</ele>
        <time>2019-04-08T00:52:02Z</time>
      </trkpt>
      <trkpt lat="42.30009" lon="1.82256">
        <ele>2064.435</ele>
        <time>2019-04-08T00:52:04Z</time>
      </trkpt>
      <trkpt lat="42.30006" lon="1.82254">
        <ele>2065.786</ele>
        <time>2019-04-08T00:52:05Z</time>
      </trkpt>
      <trkpt lat="42.30006" lon="1.82254">
        <ele>2066.014</ele>
        <time>2019-04-08T00:52:05Z</time>
      </trkpt>
      <trkpt lat="42.30001" lon="1.82251">
        <ele>2069.608</ele>
        <time>2019-04-08T00:52:07Z</time>
      </trkpt>
      <trkpt lat="42.29998" lon="1.82249">
        <ele>2072.636</ele>
        <time>2019-04-08T00:52:09Z</time>
      </trkpt>
      <trkpt lat="42.29993" lon="1.82247">
        <ele>2075.268</ele>
        <time>2019-04-08T00:52:11Z</time>
      </trkpt>
      <trkpt lat="42.29991" lon="1.82241">
        <ele>2077.833</ele>
        <time>2019-04-08T00:52:13Z</time>
      </trkpt>
      <trkpt lat="42.29987" lon="1.8224">
        <ele>2079.744</ele>
        <time>2019-04-08T00:52:14Z</time>
      </trkpt>
      <trkpt lat="42.29984" lon="1.82232">
        <ele>2082.214</ele>
        <time>2019-04-08T00:52:17Z</time>
      </trkpt>
      <trkpt lat="42.29978" lon="1.82225">
        <ele>2082.188</ele>
        <time>2019-04-08T00:52:20Z</time>
      </trkpt>
      <trkpt lat="42.29977" lon="1.82223">
        <ele>2082.327</ele>
        <time>2019-04-08T00:52:21Z</time>
      </trkpt>
      <trkpt lat="42.29978" lon="1.82224">
        <ele>2082.099</ele>
        <time>2019-04-08T00:52:21Z</time>
      </trkpt>
      <trkpt lat="42.29978" lon="1.82226">
        <ele>2082.234</ele>
        <time>2019-04-08T00:52:22Z</time>
      </trkpt>
      <trkpt lat="42.29974" lon="1.8222">
        <ele>2082.855</ele>
        <time>2019-04-08T00:52:25Z</time>
      </trkpt>
      <trkpt lat="42.29968" lon="1.82212">
        <ele>2083.51</ele>
        <time>2019-04-08T00:52:28Z</time>
      </trkpt>
      <trkpt lat="42.29967" lon="1.8221">
        <ele>2084.508</ele>
        <time>2019-04-08T00:52:28Z</time>
      </trkpt>
      <trkpt lat="42.29962" lon="1.82199">
        <ele>2086.416</ele>
        <time>2019-04-08T00:52:32Z</time>
      </trkpt>
      <trkpt lat="42.2996" lon="1.82189">
        <ele>2086.928</ele>
        <time>2019-04-08T00:52:35Z</time>
      </trkpt>
      <trkpt lat="42.29959" lon="1.82185">
        <ele>2086.963</ele>
        <time>2019-04-08T00:52:37Z</time>
      </trkpt>
      <trkpt lat="42.29957" lon="1.82184">
        <ele>2086.964</ele>
        <time>2019-04-08T00:52:37Z</time>
      </trkpt>
      <trkpt lat="42.29957" lon="1.82183">
        <ele>2087.024</ele>
        <time>2019-04-08T00:52:38Z</time>
      </trkpt>
      <trkpt lat="42.29958" lon="1.82184">
        <ele>2086.718</ele>
        <time>2019-04-08T00:52:38Z</time>
      </trkpt>
      <trkpt lat="42.29957" lon="1.82183">
        <ele>2087.087</ele>
        <time>2019-04-08T00:52:38Z</time>
      </trkpt>
      <trkpt lat="42.29958" lon="1.82183">
        <ele>2086.859</ele>
        <time>2019-04-08T00:52:39Z</time>
      </trkpt>
      <trkpt lat="42.29956" lon="1.82186">
        <ele>2087.076</ele>
        <time>2019-04-08T00:52:40Z</time>
      </trkpt>
      <trkpt lat="42.29956" lon="1.82181">
        <ele>2086.79</ele>
        <time>2019-04-08T00:52:42Z</time>
      </trkpt>
      <trkpt lat="42.29957" lon="1.82183">
        <ele>2087.419</ele>
        <time>2019-04-08T00:52:42Z</time>
      </trkpt>
      <trkpt lat="42.29957" lon="1.82181">
        <ele>2087.308</ele>
        <time>2019-04-08T00:52:43Z</time>
      </trkpt>
      <trkpt lat="42.29957" lon="1.82183">
        <ele>2087.49</ele>
        <time>2019-04-08T00:52:43Z</time>
      </trkpt>
      <trkpt lat="42.29954" lon="1.8218">
        <ele>2087.412</ele>
        <time>2019-04-08T00:52:45Z</time>
      </trkpt>
      <trkpt lat="42.29956" lon="1.82178">
        <ele>2087.447</ele>
        <time>2019-04-08T00:52:46Z</time>
      </trkpt>
      <trkpt lat="42.29955" lon="1.82178">
        <ele>2087.488</ele>
        <time>2019-04-08T00:52:46Z</time>
      </trkpt>
      <trkpt lat="42.29956" lon="1.82174">
        <ele>2087.458</ele>
        <time>2019-04-08T00:52:47Z</time>
      </trkpt>
      <trkpt lat="42.29955" lon="1.82175">
        <ele>2087.732</ele>
        <time>2019-04-08T00:52:48Z</time>
      </trkpt>
      <trkpt lat="42.29956" lon="1.82185">
        <ele>2087.831</ele>
        <time>2019-04-08T00:52:51Z</time>
      </trkpt>
      <trkpt lat="42.29959" lon="1.82189">
        <ele>2087.763</ele>
        <time>2019-04-08T00:52:52Z</time>
      </trkpt>
      <trkpt lat="42.29959" lon="1.82188">
        <ele>2087.774</ele>
        <time>2019-04-08T00:52:52Z</time>
      </trkpt>
      <trkpt lat="42.29959" lon="1.82188">
        <ele>2087.856</ele>
        <time>2019-04-08T00:52:52Z</time>
      </trkpt>
      <trkpt lat="42.29958" lon="1.82187">
        <ele>2087.721</ele>
        <time>2019-04-08T00:52:53Z</time>
      </trkpt>
      <trkpt lat="42.29958" lon="1.82187">
        <ele>2088.308</ele>
        <time>2019-04-08T00:52:53Z</time>
      </trkpt>
      <trkpt lat="42.29958" lon="1.82185">
        <ele>2088.35</ele>
        <time>2019-04-08T00:52:53Z</time>
      </trkpt>
      <trkpt lat="42.29957" lon="1.82189">
        <ele>2088.222</ele>
        <time>2019-04-08T00:52:55Z</time>
      </trkpt>
      <trkpt lat="42.29958" lon="1.82189">
        <ele>2088.297</ele>
        <time>2019-04-08T00:52:55Z</time>
      </trkpt>
      <trkpt lat="42.29959" lon="1.82185">
        <ele>2088.338</ele>
        <time>2019-04-08T00:52:57Z</time>
      </trkpt>
      <trkpt lat="42.29958" lon="1.82184">
        <ele>2088.258</ele>
        <time>2019-04-08T00:52:57Z</time>
      </trkpt>
      <trkpt lat="42.29958" lon="1.82186">
        <ele>2089.362</ele>
        <time>2019-04-08T00:52:57Z</time>
      </trkpt>
      <trkpt lat="42.29958" lon="1.82186">
        <ele>2089.471</ele>
        <time>2019-04-08T00:52:58Z</time>
      </trkpt>
      <trkpt lat="42.29957" lon="1.82182">
        <ele>2087.743</ele>
        <time>2019-04-08T00:52:59Z</time>
      </trkpt>
      <trkpt lat="42.2996" lon="1.82181">
        <ele>2086.732</ele>
        <time>2019-04-08T00:53:00Z</time>
      </trkpt>
      <trkpt lat="42.29962" lon="1.82175">
        <ele>2085.192</ele>
        <time>2019-04-08T00:53:02Z</time>
      </trkpt>
      <trkpt lat="42.29967" lon="1.82165">
        <ele>2082.211</ele>
        <time>2019-04-08T00:53:05Z</time>
      </trkpt>
      <trkpt lat="42.2997" lon="1.82158">
        <ele>2080.308</ele>
        <time>2019-04-08T00:53:08Z</time>
      </trkpt>
      <trkpt lat="42.2997" lon="1.82153">
        <ele>2077.796</ele>
        <time>2019-04-08T00:53:09Z</time>
      </trkpt>
      <trkpt lat="42.29971" lon="1.82149">
        <ele>2075.868</ele>
        <time>2019-04-08T00:53:10Z</time>
      </trkpt>
      <trkpt lat="42.29973" lon="1.82145">
        <ele>2072.893</ele>
        <time>2019-04-08T00:53:12Z</time>
      </trkpt>
      <trkpt lat="42.29974" lon="1.82137">
        <ele>2069.914</ele>
        <time>2019-04-08T00:53:14Z</time>
      </trkpt>
      <trkpt lat="42.29972" lon="1.8213">
        <ele>2067.594</ele>
        <time>2019-04-08T00:53:16Z</time>
      </trkpt>
      <trkpt lat="42.29975" lon="1.82125">
        <ele>2064.848</ele>
        <time>2019-04-08T00:53:19Z</time>
      </trkpt>
      <trkpt lat="42.29978" lon="1.82126">
        <ele>2062.927</ele>
        <time>2019-04-08T00:53:20Z</time>
      </trkpt>
      <trkpt lat="42.2998" lon="1.82119">
        <ele>2060.189</ele>
        <time>2019-04-08T00:53:22Z</time>
      </trkpt>
      <trkpt lat="42.29982" lon="1.82115">
        <ele>2057.952</ele>
        <time>2019-04-08T00:53:23Z</time>
      </trkpt>
      <trkpt lat="42.29984" lon="1.82106">
        <ele>2055.753</ele>
        <time>2019-04-08T00:53:26Z</time>
      </trkpt>
      <trkpt lat="42.29985" lon="1.82105">
        <ele>2055.008</ele>
        <time>2019-04-08T00:53:27Z</time>
      </trkpt>
      <trkpt lat="42.2999" lon="1.82096">
        <ele>2051.708</ele>
        <time>2019-04-08T00:53:30Z</time>
      </trkpt>
      <trkpt lat="42.29994" lon="1.82087">
        <ele>2048.478</ele>
        <time>2019-04-08T00:53:33Z</time>
      </trkpt>
      <trkpt lat="42.29996" lon="1.82075">
        <ele>2046.62</ele>
        <time>2019-04-08T00:53:37Z</time>
      </trkpt>
      <trkpt lat="42.29996" lon="1.82076">
        <ele>2046.565</ele>
        <time>2019-04-08T00:53:37Z</time>
      </trkpt>
      <trkpt lat="42.3" lon="1.82067">
        <ele>2043.956</ele>
        <time>2019-04-08T00:53:40Z</time>
      </trkpt>
      <trkpt lat="42.30002" lon="1.82058">
        <ele>2041.316</ele>
        <time>2019-04-08T00:53:43Z</time>
      </trkpt>
      <trkpt lat="42.30001" lon="1.82054">
        <ele>2040.74</ele>
        <time>2019-04-08T00:53:44Z</time>
      </trkpt>
      <trkpt lat="42.30001" lon="1.82045">
        <ele>2038.639</ele>
        <time>2019-04-08T00:53:47Z</time>
      </trkpt>
      <trkpt lat="42.30004" lon="1.82035">
        <ele>2036.331</ele>
        <time>2019-04-08T00:53:50Z</time>
      </trkpt>
      <trkpt lat="42.30008" lon="1.82028">
        <ele>2032.857</ele>
        <time>2019-04-08T00:53:53Z</time>
      </trkpt>
      <trkpt lat="42.30009" lon="1.82016">
        <ele>2031.1</ele>
        <time>2019-04-08T00:53:56Z</time>
      </trkpt>
      <trkpt lat="42.30009" lon="1.82004">
        <ele>2028.62</ele>
        <time>2019-04-08T00:54:00Z</time>
      </trkpt>
      <trkpt lat="42.30007" lon="1.81986">
        <ele>2026.108</ele>
        <time>2019-04-08T00:54:05Z</time>
      </trkpt>
      <trkpt lat="42.30001" lon="1.8197">
        <ele>2025.588</ele>
        <time>2019-04-08T00:54:11Z</time>
      </trkpt>
      <trkpt lat="42.30002" lon="1.81955">
        <ele>2022.49</ele>
        <time>2019-04-08T00:54:15Z</time>
      </trkpt>
      <trkpt lat="42.30002" lon="1.81953">
        <ele>2022.695</ele>
        <time>2019-04-08T00:54:16Z</time>
      </trkpt>
      <trkpt lat="42.30002" lon="1.81938">
        <ele>2020.926</ele>
        <time>2019-04-08T00:54:20Z</time>
      </trkpt>
      <trkpt lat="42.30002" lon="1.81936">
        <ele>2021.086</ele>
        <time>2019-04-08T00:54:21Z</time>
      </trkpt>
      <trkpt lat="42.30002" lon="1.81937">
        <ele>2020.97</ele>
        <time>2019-04-08T00:54:21Z</time>
      </trkpt>
      <trkpt lat="42.30001" lon="1.81921">
        <ele>2018.199</ele>
        <time>2019-04-08T00:54:25Z</time>
      </trkpt>
      <trkpt lat="42.30001" lon="1.81907">
        <ele>2016.361</ele>
        <time>2019-04-08T00:54:29Z</time>
      </trkpt>
      <trkpt lat="42.30002" lon="1.81893">
        <ele>2013.886</ele>
        <time>2019-04-08T00:54:34Z</time>
      </trkpt>
      <trkpt lat="42.30005" lon="1.81876">
        <ele>2010.76</ele>
        <time>2019-04-08T00:54:39Z</time>
      </trkpt>
      <trkpt lat="42.30005" lon="1.81873">
        <ele>2009.926</ele>
        <time>2019-04-08T00:54:40Z</time>
      </trkpt>
      <trkpt lat="42.30006" lon="1.81864">
        <ele>2009.908</ele>
        <time>2019-04-08T00:54:42Z</time>
      </trkpt>
      <trkpt lat="42.30006" lon="1.8186">
        <ele>2008.011</ele>
        <time>2019-04-08T00:54:44Z</time>
      </trkpt>
      <trkpt lat="42.30007" lon="1.81849">
        <ele>2007.033</ele>
        <time>2019-04-08T00:54:47Z</time>
      </trkpt>
      <trkpt lat="42.30008" lon="1.81834">
        <ele>2005.268</ele>
        <time>2019-04-08T00:54:52Z</time>
      </trkpt>
      <trkpt lat="42.30013" lon="1.8182">
        <ele>2002.889</ele>
        <time>2019-04-08T00:54:56Z</time>
      </trkpt>
      <trkpt lat="42.30015" lon="1.81812">
        <ele>2001.329</ele>
        <time>2019-04-08T00:54:59Z</time>
      </trkpt>
      <trkpt lat="42.30014" lon="1.81808">
        <ele>1999.553</ele>
        <time>2019-04-08T00:55:00Z</time>
      </trkpt>
      <trkpt lat="42.30018" lon="1.81796">
        <ele>1996.572</ele>
        <time>2019-04-08T00:55:04Z</time>
      </trkpt>
      <trkpt lat="42.3002" lon="1.81785">
        <ele>1993.594</ele>
        <time>2019-04-08T00:55:07Z</time>
      </trkpt>
      <trkpt lat="42.30023" lon="1.81786">
        <ele>1993.192</ele>
        <time>2019-04-08T00:55:08Z</time>
      </trkpt>
      <trkpt lat="42.30023" lon="1.81779">
        <ele>1992.073</ele>
        <time>2019-04-08T00:55:10Z</time>
      </trkpt>
      <trkpt lat="42.30028" lon="1.81771">
        <ele>1989.32</ele>
        <time>2019-04-08T00:55:13Z</time>
      </trkpt>
      <trkpt lat="42.30032" lon="1.81763">
        <ele>1986.308</ele>
        <time>2019-04-08T00:55:16Z</time>
      </trkpt>
      <trkpt lat="42.30037" lon="1.81748">
        <ele>1983.132</ele>
        <time>2019-04-08T00:55:21Z</time>
      </trkpt>
      <trkpt lat="42.30037" lon="1.81738">
        <ele>1981.574</ele>
        <time>2019-04-08T00:55:24Z</time>
      </trkpt>
      <trkpt lat="42.30039" lon="1.81724">
        <ele>1978.549</ele>
        <time>2019-04-08T00:55:28Z</time>
      </trkpt>
      <trkpt lat="42.3004" lon="1.81701">
        <ele>1976.87</ele>
        <time>2019-04-08T00:55:35Z</time>
      </trkpt>
      <trkpt lat="42.30039" lon="1.81693">
        <ele>1976.88</ele>
        <time>2019-04-08T00:55:38Z</time>
      </trkpt>
      <trkpt lat="42.30036" lon="1.81676">
        <ele>1974.824</ele>
        <time>2019-04-08T00:55:43Z</time>
      </trkpt>
      <trkpt lat="42.30037" lon="1.81663">
        <ele>1973.943</ele>
        <time>2019-04-08T00:55:47Z</time>
      </trkpt>
      <trkpt lat="42.30036" lon="1.81659">
        <ele>1973.925</ele>
        <time>2019-04-08T00:55:48Z</time>
      </trkpt>
      <trkpt lat="42.30033" lon="1.81663">
        <ele>1973.949</ele>
        <time>2019-04-08T00:55:49Z</time>
      </trkpt>
      <trkpt lat="42.30034" lon="1.81663">
        <ele>1969.802</ele>
        <time>2019-04-08T00:55:50Z</time>
      </trkpt>
      <trkpt lat="42.30034" lon="1.81664">
        <ele>1969.522</ele>
        <time>2019-04-08T00:55:50Z</time>
      </trkpt>
      <trkpt lat="42.30034" lon="1.81665">
        <ele>1969.108</ele>
        <time>2019-04-08T00:55:50Z</time>
      </trkpt>
      <trkpt lat="42.30035" lon="1.81661">
        <ele>1969.227</ele>
        <time>2019-04-08T00:55:51Z</time>
      </trkpt>
      <trkpt lat="42.30039" lon="1.81655">
        <ele>1969.069</ele>
        <time>2019-04-08T00:55:53Z</time>
      </trkpt>
      <trkpt lat="42.30041" lon="1.81652">
        <ele>1968.514</ele>
        <time>2019-04-08T00:55:55Z</time>
      </trkpt>
      <trkpt lat="42.30041" lon="1.81645">
        <ele>1967.795</ele>
        <time>2019-04-08T00:55:57Z</time>
      </trkpt>
      <trkpt lat="42.3004" lon="1.81642">
        <ele>1967.625</ele>
        <time>2019-04-08T00:55:58Z</time>
      </trkpt>
      <trkpt lat="42.30039" lon="1.81644">
        <ele>1967.889</ele>
        <time>2019-04-08T00:55:58Z</time>
      </trkpt>
      <trkpt lat="42.30037" lon="1.81638">
        <ele>1967.598</ele>
        <time>2019-04-08T00:56:00Z</time>
      </trkpt>
      <trkpt lat="42.30038" lon="1.81638">
        <ele>1968.52</ele>
        <time>2019-04-08T00:56:00Z</time>
      </trkpt>
      <trkpt lat="42.30038" lon="1.8164">
        <ele>1968.545</ele>
        <time>2019-04-08T00:56:01Z</time>
      </trkpt>
      <trkpt lat="42.30039" lon="1.81641">
        <ele>1968.447</ele>
        <time>2019-04-08T00:56:01Z</time>
      </trkpt>
      <trkpt lat="42.30039" lon="1.81642">
        <ele>1968.211</ele>
        <time>2019-04-08T00:56:02Z</time>
      </trkpt>
      <trkpt lat="42.30039" lon="1.81642">
        <ele>1968.008</ele>
        <time>2019-04-08T00:56:02Z</time>
      </trkpt>
      <trkpt lat="42.30041" lon="1.81644">
        <ele>1968.497</ele>
        <time>2019-04-08T00:56:03Z</time>
      </trkpt>
      <trkpt lat="42.3004" lon="1.81643">
        <ele>1968.699</ele>
        <time>2019-04-08T00:56:04Z</time>
      </trkpt>
      <trkpt lat="42.30038" lon="1.81638">
        <ele>1968.744</ele>
        <time>2019-04-08T00:56:05Z</time>
      </trkpt>
      <trkpt lat="42.30039" lon="1.81639">
        <ele>1968.625</ele>
        <time>2019-04-08T00:56:05Z</time>
      </trkpt>
      <trkpt lat="42.30057" lon="1.81633">
        <ele>2032.325</ele>
        <time>2019-04-08T00:56:13Z</time>
      </trkpt>
      <trkpt lat="42.30064" lon="1.81626">
        <ele>2034.199</ele>
        <time>2019-04-08T00:56:17Z</time>
      </trkpt>
      <trkpt lat="42.30073" lon="1.8162">
        <ele>2035.868</ele>
        <time>2019-04-08T00:56:21Z</time>
      </trkpt>
      <trkpt lat="42.30082" lon="1.81617">
        <ele>2037.72</ele>
        <time>2019-04-08T00:56:24Z</time>
      </trkpt>
      <trkpt lat="42.30091" lon="1.81613">
        <ele>2039.775</ele>
        <time>2019-04-08T00:56:28Z</time>
      </trkpt>
      <trkpt lat="42.301" lon="1.81609">
        <ele>2042.028</ele>
        <time>2019-04-08T00:56:32Z</time>
      </trkpt>
      <trkpt lat="42.30109" lon="1.81605">
        <ele>2043.42</ele>
        <time>2019-04-08T00:56:36Z</time>
      </trkpt>
      <trkpt lat="42.30114" lon="1.81599">
        <ele>2045.708</ele>
        <time>2019-04-08T00:56:38Z</time>
      </trkpt>
      <trkpt lat="42.3012" lon="1.8159">
        <ele>2048.04</ele>
        <time>2019-04-08T00:56:42Z</time>
      </trkpt>
      <trkpt lat="42.30126" lon="1.81581">
        <ele>2049.152</ele>
        <time>2019-04-08T00:56:45Z</time>
      </trkpt>
      <trkpt lat="42.30134" lon="1.81577">
        <ele>2050.727</ele>
        <time>2019-04-08T00:56:49Z</time>
      </trkpt>
      <trkpt lat="42.30139" lon="1.8157">
        <ele>2052.378</ele>
        <time>2019-04-08T00:56:52Z</time>
      </trkpt>
      <trkpt lat="42.30143" lon="1.81564">
        <ele>2054.348</ele>
        <time>2019-04-08T00:56:54Z</time>
      </trkpt>
      <trkpt lat="42.30148" lon="1.81559">
        <ele>2055.962</ele>
        <time>2019-04-08T00:56:57Z</time>
      </trkpt>
      <trkpt lat="42.30154" lon="1.81551">
        <ele>2057.631</ele>
        <time>2019-04-08T00:57:00Z</time>
      </trkpt>
      <trkpt lat="42.30156" lon="1.81543">
        <ele>2058.913</ele>
        <time>2019-04-08T00:57:03Z</time>
      </trkpt>
      <trkpt lat="42.30155" lon="1.81533">
        <ele>2060.481</ele>
        <time>2019-04-08T00:57:06Z</time>
      </trkpt>
      <trkpt lat="42.30161" lon="1.81524">
        <ele>2062.161</ele>
        <time>2019-04-08T00:57:09Z</time>
      </trkpt>
      <trkpt lat="42.30163" lon="1.81515">
        <ele>2063.017</ele>
        <time>2019-04-08T00:57:12Z</time>
      </trkpt>
      <trkpt lat="42.30163" lon="1.81507">
        <ele>2063.208</ele>
        <time>2019-04-08T00:57:14Z</time>
      </trkpt>
      <trkpt lat="42.30161" lon="1.81502">
        <ele>2063.991</ele>
        <time>2019-04-08T00:57:16Z</time>
      </trkpt>
      <trkpt lat="42.30158" lon="1.81492">
        <ele>2063.893</ele>
        <time>2019-04-08T00:57:19Z</time>
      </trkpt>
      <trkpt lat="42.30156" lon="1.81483">
        <ele>2063.488</ele>
        <time>2019-04-08T00:57:22Z</time>
      </trkpt>
      <trkpt lat="42.30154" lon="1.81471">
        <ele>2062.469</ele>
        <time>2019-04-08T00:57:26Z</time>
      </trkpt>
      <trkpt lat="42.30156" lon="1.81461">
        <ele>2061.449</ele>
        <time>2019-04-08T00:57:29Z</time>
      </trkpt>
      <trkpt lat="42.30155" lon="1.81451">
        <ele>2060.053</ele>
        <time>2019-04-08T00:57:32Z</time>
      </trkpt>
      <trkpt lat="42.30154" lon="1.81442">
        <ele>2059.662</ele>
        <time>2019-04-08T00:57:34Z</time>
      </trkpt>
      <trkpt lat="42.30153" lon="1.8143">
        <ele>2058.434</ele>
        <time>2019-04-08T00:57:38Z</time>
      </trkpt>
      <trkpt lat="42.30152" lon="1.81424">
        <ele>2057.714</ele>
        <time>2019-04-08T00:57:40Z</time>
      </trkpt>
      <trkpt lat="42.30152" lon="1.81418">
        <ele>2057.154</ele>
        <time>2019-04-08T00:57:42Z</time>
      </trkpt>
      <trkpt lat="42.30146" lon="1.81412">
        <ele>2055.609</ele>
        <time>2019-04-08T00:57:45Z</time>
      </trkpt>
      <trkpt lat="42.30142" lon="1.81405">
        <ele>2054.608</ele>
        <time>2019-04-08T00:57:47Z</time>
      </trkpt>
      <trkpt lat="42.30135" lon="1.81398">
        <ele>2053.794</ele>
        <time>2019-04-08T00:57:51Z</time>
      </trkpt>
      <trkpt lat="42.30127" lon="1.81392">
        <ele>2053.526</ele>
        <time>2019-04-08T00:57:55Z</time>
      </trkpt>
      <trkpt lat="42.30122" lon="1.81382">
        <ele>2052.611</ele>
        <time>2019-04-08T00:57:58Z</time>
      </trkpt>
      <trkpt lat="42.30117" lon="1.81372">
        <ele>2053.062</ele>
        <time>2019-04-08T00:58:02Z</time>
      </trkpt>
      <trkpt lat="42.30112" lon="1.81362">
        <ele>2054.132</ele>
        <time>2019-04-08T00:58:05Z</time>
      </trkpt>
      <trkpt lat="42.30109" lon="1.81351">
        <ele>2054.326</ele>
        <time>2019-04-08T00:58:09Z</time>
      </trkpt>
      <trkpt lat="42.30105" lon="1.8134">
        <ele>2054.755</ele>
        <time>2019-04-08T00:58:13Z</time>
      </trkpt>
      <trkpt lat="42.30103" lon="1.81327">
        <ele>2055.347</ele>
        <time>2019-04-08T00:58:16Z</time>
      </trkpt>
      <trkpt lat="42.30099" lon="1.8132">
        <ele>2056.513</ele>
        <time>2019-04-08T00:58:19Z</time>
      </trkpt>
      <trkpt lat="42.30093" lon="1.8131">
        <ele>2057.843</ele>
        <time>2019-04-08T00:58:23Z</time>
      </trkpt>
      <trkpt lat="42.30093" lon="1.81304">
        <ele>2058.107</ele>
        <time>2019-04-08T00:58:25Z</time>
      </trkpt>
      <trkpt lat="42.30092" lon="1.81298">
        <ele>2059.608</ele>
        <time>2019-04-08T00:58:26Z</time>
      </trkpt>
      <trkpt lat="42.30091" lon="1.81292">
        <ele>2060.564</ele>
        <time>2019-04-08T00:58:28Z</time>
      </trkpt>
      <trkpt lat="42.30089" lon="1.81279">
        <ele>2061.186</ele>
        <time>2019-04-08T00:58:32Z</time>
      </trkpt>
      <trkpt lat="42.30089" lon="1.81268">
        <ele>2062.451</ele>
        <time>2019-04-08T00:58:35Z</time>
      </trkpt>
      <trkpt lat="42.3009" lon="1.81261">
        <ele>2063.562</ele>
        <time>2019-04-08T00:58:37Z</time>
      </trkpt>
      <trkpt lat="42.30089" lon="1.81251">
        <ele>2064.952</ele>
        <time>2019-04-08T00:58:40Z</time>
      </trkpt>
      <trkpt lat="42.30089" lon="1.81245">
        <ele>2065.536</ele>
        <time>2019-04-08T00:58:42Z</time>
      </trkpt>
      <trkpt lat="42.30088" lon="1.81238">
        <ele>2065.335</ele>
        <time>2019-04-08T00:58:44Z</time>
      </trkpt>
      <trkpt lat="42.30086" lon="1.81228">
        <ele>2064.997</ele>
        <time>2019-04-08T00:58:47Z</time>
      </trkpt>
      <trkpt lat="42.30084" lon="1.81222">
        <ele>2065.114</ele>
        <time>2019-04-08T00:58:49Z</time>
      </trkpt>
      <trkpt lat="42.3008" lon="1.81214">
        <ele>2064.754</ele>
        <time>2019-04-08T00:58:52Z</time>
      </trkpt>
      <trkpt lat="42.30075" lon="1.81209">
        <ele>2065.409</ele>
        <time>2019-04-08T00:58:55Z</time>
      </trkpt>
      <trkpt lat="42.30074" lon="1.81202">
        <ele>2065.708</ele>
        <time>2019-04-08T00:58:57Z</time>
      </trkpt>
      <trkpt lat="42.30075" lon="1.81196">
        <ele>2065.094</ele>
        <time>2019-04-08T00:58:59Z</time>
      </trkpt>
      <trkpt lat="42.30076" lon="1.81202">
        <ele>2065.146</ele>
        <time>2019-04-08T00:59:00Z</time>
      </trkpt>
      <trkpt lat="42.30073" lon="1.81197">
        <ele>2065.411</ele>
        <time>2019-04-08T00:59:02Z</time>
      </trkpt>
      <trkpt lat="42.30078" lon="1.81186">
        <ele>2064.782</ele>
        <time>2019-04-08T00:59:06Z</time>
      </trkpt>
      <trkpt lat="42.30083" lon="1.81176">
        <ele>2064.642</ele>
        <time>2019-04-08T00:59:09Z</time>
      </trkpt>
      <trkpt lat="42.30084" lon="1.81169">
        <ele>2063.966</ele>
        <time>2019-04-08T00:59:11Z</time>
      </trkpt>
      <trkpt lat="42.30085" lon="1.8116">
        <ele>2063.315</ele>
        <time>2019-04-08T00:59:14Z</time>
      </trkpt>
      <trkpt lat="42.30088" lon="1.81151">
        <ele>2062.987</ele>
        <time>2019-04-08T00:59:17Z</time>
      </trkpt>
      <trkpt lat="42.30089" lon="1.81139">
        <ele>2062.863</ele>
        <time>2019-04-08T00:59:21Z</time>
      </trkpt>
      <trkpt lat="42.3009" lon="1.81129">
        <ele>2062.444</ele>
        <time>2019-04-08T00:59:24Z</time>
      </trkpt>
      <trkpt lat="42.30094" lon="1.81117">
        <ele>2061.618</ele>
        <time>2019-04-08T00:59:28Z</time>
      </trkpt>
      <trkpt lat="42.30093" lon="1.81107">
        <ele>2061.008</ele>
        <time>2019-04-08T00:59:31Z</time>
      </trkpt>
      <trkpt lat="42.30095" lon="1.81096">
        <ele>2060.179</ele>
        <time>2019-04-08T00:59:34Z</time>
      </trkpt>
      <trkpt lat="42.30097" lon="1.81084">
        <ele>2059.181</ele>
        <time>2019-04-08T00:59:38Z</time>
      </trkpt>
      <trkpt lat="42.30095" lon="1.81071">
        <ele>2059.286</ele>
        <time>2019-04-08T00:59:42Z</time>
      </trkpt>
      <trkpt lat="42.30094" lon="1.81062">
        <ele>2058.077</ele>
        <time>2019-04-08T00:59:44Z</time>
      </trkpt>
      <trkpt lat="42.30097" lon="1.81057">
        <ele>2056.087</ele>
        <time>2019-04-08T00:59:46Z</time>
      </trkpt>
      <trkpt lat="42.30101" lon="1.81048">
        <ele>2054.541</ele>
        <time>2019-04-08T00:59:49Z</time>
      </trkpt>
      <trkpt lat="42.30103" lon="1.81036">
        <ele>2053.55</ele>
        <time>2019-04-08T00:59:53Z</time>
      </trkpt>
      <trkpt lat="42.301" lon="1.8103">
        <ele>2052.472</ele>
        <time>2019-04-08T00:59:55Z</time>
      </trkpt>
      <trkpt lat="42.301" lon="1.8102">
        <ele>2051.217</ele>
        <time>2019-04-08T00:59:58Z</time>
      </trkpt>
      <trkpt lat="42.30099" lon="1.81012">
        <ele>2049.687</ele>
        <time>2019-04-08T01:00:01Z</time>
      </trkpt>
      <trkpt lat="42.30102" lon="1.81003">
        <ele>2048.615</ele>
        <time>2019-04-08T01:00:03Z</time>
      </trkpt>
      <trkpt lat="42.30104" lon="1.80992">
        <ele>2047.408</ele>
        <time>2019-04-08T01:00:07Z</time>
      </trkpt>
      <trkpt lat="42.30105" lon="1.80983">
        <ele>2046.354</ele>
        <time>2019-04-08T01:00:09Z</time>
      </trkpt>
      <trkpt lat="42.30106" lon="1.80972">
        <ele>2045.136</ele>
        <time>2019-04-08T01:00:13Z</time>
      </trkpt>
      <trkpt lat="42.30106" lon="1.80962">
        <ele>2044.361</ele>
        <time>2019-04-08T01:00:16Z</time>
      </trkpt>
      <trkpt lat="42.30105" lon="1.80954">
        <ele>2043.252</ele>
        <time>2019-04-08T01:00:18Z</time>
      </trkpt>
      <trkpt lat="42.30102" lon="1.80946">
        <ele>2041.412</ele>
        <time>2019-04-08T01:00:21Z</time>
      </trkpt>
      <trkpt lat="42.30102" lon="1.8094">
        <ele>2040.076</ele>
        <time>2019-04-08T01:00:23Z</time>
      </trkpt>
      <trkpt lat="42.30102" lon="1.80934">
        <ele>2038.655</ele>
        <time>2019-04-08T01:00:24Z</time>
      </trkpt>
      <trkpt lat="42.30104" lon="1.80926">
        <ele>2037.587</ele>
        <time>2019-04-08T01:00:27Z</time>
      </trkpt>
      <trkpt lat="42.30105" lon="1.80918">
        <ele>2036.077</ele>
        <time>2019-04-08T01:00:29Z</time>
      </trkpt>
      <trkpt lat="42.30105" lon="1.80909">
        <ele>2034.861</ele>
        <time>2019-04-08T01:00:32Z</time>
      </trkpt>
      <trkpt lat="42.30103" lon="1.80898">
        <ele>2033.927</ele>
        <time>2019-04-08T01:00:35Z</time>
      </trkpt>
      <trkpt lat="42.30102" lon="1.80889">
        <ele>2033.508</ele>
        <time>2019-04-08T01:00:38Z</time>
      </trkpt>
      <trkpt lat="42.30102" lon="1.80876">
        <ele>2032.96</ele>
        <time>2019-04-08T01:00:42Z</time>
      </trkpt>
      <trkpt lat="42.30104" lon="1.80867">
        <ele>2032.112</ele>
        <time>2019-04-08T01:00:45Z</time>
      </trkpt>
      <trkpt lat="42.30105" lon="1.80858">
        <ele>2031.727</ele>
        <time>2019-04-08T01:00:47Z</time>
      </trkpt>
      <trkpt lat="42.30103" lon="1.80848">
        <ele>2031.228</ele>
        <time>2019-04-08T01:00:50Z</time>
      </trkpt>
      <trkpt lat="42.301" lon="1.80839">
        <ele>2030.798</ele>
        <time>2019-04-08T01:00:53Z</time>
      </trkpt>
      <trkpt lat="42.30099" lon="1.80829">
        <ele>2029.452</ele>
        <time>2019-04-08T01:00:56Z</time>
      </trkpt>
      <trkpt lat="42.30097" lon="1.80822">
        <ele>2027.991</ele>
        <time>2019-04-08T01:00:58Z</time>
      </trkpt>
      <trkpt lat="42.30095" lon="1.80816">
        <ele>2026.523</ele>
        <time>2019-04-08T01:01:00Z</time>
      </trkpt>
      <trkpt lat="42.30094" lon="1.80807">
        <ele>2026.196</ele>
        <time>2019-04-08T01:01:03Z</time>
      </trkpt>
      <trkpt lat="42.30093" lon="1.80797">
        <ele>2025.931</ele>
        <time>2019-04-08T01:01:06Z</time>
      </trkpt>
      <trkpt lat="42.30091" lon="1.80787">
        <ele>2025.124</ele>
        <time>2019-04-08T01:01:09Z</time>
      </trkpt>
      <trkpt lat="42.30088" lon="1.80777">
        <ele>2023.808</ele>
        <time>2019-04-08T01:01:12Z</time>
      </trkpt>
      <trkpt lat="42.30087" lon="1.80768">
        <ele>2022.192</ele>
        <time>2019-04-08T01:01:15Z</time>
      </trkpt>
      <trkpt lat="42.30086" lon="1.80758">
        <ele>2020.894</ele>
        <time>2019-04-08T01:01:18Z</time>
      </trkpt>
      <trkpt lat="42.30086" lon="1.8075">
        <ele>2020.089</ele>
        <time>2019-04-08T01:01:21Z</time>
      </trkpt>
      <trkpt lat="42.30083" lon="1.80744">
        <ele>2019.61</ele>
        <time>2019-04-08T01:01:23Z</time>
      </trkpt>
      <trkpt lat="42.30082" lon="1.80733">
        <ele>2019.18</ele>
        <time>2019-04-08T01:01:26Z</time>
      </trkpt>
      <trkpt lat="42.30083" lon="1.80719">
        <ele>2018.124</ele>
        <time>2019-04-08T01:01:30Z</time>
      </trkpt>
      <trkpt lat="42.30084" lon="1.80707">
        <ele>2017.033</ele>
        <time>2019-04-08T01:01:34Z</time>
      </trkpt>
      <trkpt lat="42.30084" lon="1.80697">
        <ele>2016.455</ele>
        <time>2019-04-08T01:01:37Z</time>
      </trkpt>
      <trkpt lat="42.30085" lon="1.80684">
        <ele>2016.054</ele>
        <time>2019-04-08T01:01:41Z</time>
      </trkpt>
      <trkpt lat="42.30086" lon="1.80673">
        <ele>2015.556</ele>
        <time>2019-04-08T01:01:44Z</time>
      </trkpt>
      <trkpt lat="42.30087" lon="1.80661">
        <ele>2014.811</ele>
        <time>2019-04-08T01:01:47Z</time>
      </trkpt>
      <trkpt lat="42.30089" lon="1.80648">
        <ele>2013.908</ele>
        <time>2019-04-08T01:01:51Z</time>
      </trkpt>
      <trkpt lat="42.3009" lon="1.80638">
        <ele>2013.168</ele>
        <time>2019-04-08T01:01:54Z</time>
      </trkpt>
      <trkpt lat="42.3009" lon="1.80625">
        <ele>2012.41</ele>
        <time>2019-04-08T01:01:58Z</time>
      </trkpt>
      <trkpt lat="42.3009" lon="1.80618">
        <ele>2011.835</ele>
        <time>2019-04-08T01:02:00Z</time>
      </trkpt>
      <trkpt lat="42.30089" lon="1.80608">
        <ele>2010.676</ele>
        <time>2019-04-08T01:02:03Z</time>
      </trkpt>
      <trkpt lat="42.30089" lon="1.80599">
        <ele>2009.356</ele>
        <time>2019-04-08T01:02:06Z</time>
      </trkpt>
      <trkpt lat="42.30088" lon="1.80591">
        <ele>2008.48</ele>
        <time>2019-04-08T01:02:08Z</time>
      </trkpt>
      <trkpt lat="42.30086" lon="1.80581">
        <ele>2007.839</ele>
        <time>2019-04-08T01:02:11Z</time>
      </trkpt>
      <trkpt lat="42.30087" lon="1.80569">
        <ele>2007.081</ele>
        <time>2019-04-08T01:02:15Z</time>
      </trkpt>
      <trkpt lat="42.30084" lon="1.80563">
        <ele>2006.488</ele>
        <time>2019-04-08T01:02:17Z</time>
      </trkpt>
      <trkpt lat="42.30082" lon="1.80555">
        <ele>2005.724</ele>
        <time>2019-04-08T01:02:19Z</time>
      </trkpt>
      <trkpt lat="42.30082" lon="1.80544">
        <ele>2005.026</ele>
        <time>2019-04-08T01:02:23Z</time>
      </trkpt>
      <trkpt lat="42.3008" lon="1.80533">
        <ele>2004.308</ele>
        <time>2019-04-08T01:02:26Z</time>
      </trkpt>
      <trkpt lat="42.30079" lon="1.80523">
        <ele>2003.991</ele>
        <time>2019-04-08T01:02:29Z</time>
      </trkpt>
      <trkpt lat="42.30076" lon="1.80516">
        <ele>2002.963</ele>
        <time>2019-04-08T01:02:32Z</time>
      </trkpt>
      <trkpt lat="42.30073" lon="1.80509">
        <ele>2000.978</ele>
        <time>2019-04-08T01:02:34Z</time>
      </trkpt>
      <trkpt lat="42.3007" lon="1.805">
        <ele>1999.819</ele>
        <time>2019-04-08T01:02:37Z</time>
      </trkpt>
      <trkpt lat="42.30069" lon="1.80494">
        <ele>1998.469</ele>
        <time>2019-04-08T01:02:39Z</time>
      </trkpt>
      <trkpt lat="42.30069" lon="1.80485">
        <ele>1998.573</ele>
        <time>2019-04-08T01:02:42Z</time>
      </trkpt>
      <trkpt lat="42.30068" lon="1.80478">
        <ele>1998.652</ele>
        <time>2019-04-08T01:02:44Z</time>
      </trkpt>
      <trkpt lat="42.30064" lon="1.80474">
        <ele>1998.884</ele>
        <time>2019-04-08T01:02:45Z</time>
      </trkpt>
      <trkpt lat="42.30066" lon="1.8048">
        <ele>1999.031</ele>
        <time>2019-04-08T01:02:47Z</time>
      </trkpt>
      <trkpt lat="42.30061" lon="1.80483">
        <ele>1998.761</ele>
        <time>2019-04-08T01:02:50Z</time>
      </trkpt>
      <trkpt lat="42.30059" lon="1.80474">
        <ele>1998.407</ele>
        <time>2019-04-08T01:02:53Z</time>
      </trkpt>
      <trkpt lat="42.30059" lon="1.80467">
        <ele>1996.908</ele>
        <time>2019-04-08T01:02:55Z</time>
      </trkpt>
      <trkpt lat="42.30056" lon="1.80463">
        <ele>1995.726</ele>
        <time>2019-04-08T01:02:56Z</time>
      </trkpt>
      <trkpt lat="42.30053" lon="1.80457">
        <ele>1994.398</ele>
        <time>2019-04-08T01:02:58Z</time>
      </trkpt>
      <trkpt lat="42.30051" lon="1.80451">
        <ele>1993.783</ele>
        <time>2019-04-08T01:03:00Z</time>
      </trkpt>
      <trkpt lat="42.3005" lon="1.80443">
        <ele>1993.274</ele>
        <time>2019-04-08T01:03:03Z</time>
      </trkpt>
      <trkpt lat="42.30049" lon="1.8043">
        <ele>1993.314</ele>
        <time>2019-04-08T01:03:07Z</time>
      </trkpt>
      <trkpt lat="42.30047" lon="1.80422">
        <ele>1993.758</ele>
        <time>2019-04-08T01:03:09Z</time>
      </trkpt>
      <trkpt lat="42.30046" lon="1.80409">
        <ele>1993.947</ele>
        <time>2019-04-08T01:03:13Z</time>
      </trkpt>
      <trkpt lat="42.30046" lon="1.80396">
        <ele>1994.699</ele>
        <time>2019-04-08T01:03:17Z</time>
      </trkpt>
      <trkpt lat="42.30048" lon="1.80384">
        <ele>1994.972</ele>
        <time>2019-04-08T01:03:21Z</time>
      </trkpt>
      <trkpt lat="42.30049" lon="1.80371">
        <ele>1994.413</ele>
        <time>2019-04-08T01:03:24Z</time>
      </trkpt>
      <trkpt lat="42.30051" lon="1.80359">
        <ele>1994.714</ele>
        <time>2019-04-08T01:03:28Z</time>
      </trkpt>
      <trkpt lat="42.30049" lon="1.8035">
        <ele>1994.308</ele>
        <time>2019-04-08T01:03:31Z</time>
      </trkpt>
      <trkpt lat="42.30047" lon="1.80338">
        <ele>1993.51</ele>
        <time>2019-04-08T01:03:35Z</time>
      </trkpt>
      <trkpt lat="42.30045" lon="1.80326">
        <ele>1992.312</ele>
        <time>2019-04-08T01:03:38Z</time>
      </trkpt>
      <trkpt lat="42.30042" lon="1.80321">
        <ele>1991.977</ele>
        <time>2019-04-08T01:03:40Z</time>
      </trkpt>
      <trkpt lat="42.30039" lon="1.8031">
        <ele>1990.928</ele>
        <time>2019-04-08T01:03:43Z</time>
      </trkpt>
      <trkpt lat="42.30036" lon="1.80306">
        <ele>1989.058</ele>
        <time>2019-04-08T01:03:45Z</time>
      </trkpt>
      <trkpt lat="42.30035" lon="1.80298">
        <ele>1987.332</ele>
        <time>2019-04-08T01:03:48Z</time>
      </trkpt>
      <trkpt lat="42.30034" lon="1.80287">
        <ele>1985.721</ele>
        <time>2019-04-08T01:03:51Z</time>
      </trkpt>
      <trkpt lat="42.30033" lon="1.80279">
        <ele>1984.133</ele>
        <time>2019-04-08T01:03:53Z</time>
      </trkpt>
      <trkpt lat="42.30031" lon="1.80273">
        <ele>1981.818</ele>
        <time>2019-04-08T01:03:55Z</time>
      </trkpt>
      <trkpt lat="42.30028" lon="1.80267">
        <ele>1980.798</ele>
        <time>2019-04-08T01:03:57Z</time>
      </trkpt>
      <trkpt lat="42.30026" lon="1.8026">
        <ele>1979.817</ele>
        <time>2019-04-08T01:03:59Z</time>
      </trkpt>
      <trkpt lat="42.30023" lon="1.80253">
        <ele>1978.408</ele>
        <time>2019-04-08T01:04:02Z</time>
      </trkpt>
      <trkpt lat="42.30019" lon="1.80246">
        <ele>1977.664</ele>
        <time>2019-04-08T01:04:05Z</time>
      </trkpt>
      <trkpt lat="42.30015" lon="1.80236">
        <ele>1976.186</ele>
        <time>2019-04-08T01:04:08Z</time>
      </trkpt>
      <trkpt lat="42.30015" lon="1.80226">
        <ele>1974.561</ele>
        <time>2019-04-08T01:04:11Z</time>
      </trkpt>
      <trkpt lat="42.30015" lon="1.80218">
        <ele>1973.172</ele>
        <time>2019-04-08T01:04:13Z</time>
      </trkpt>
      <trkpt lat="42.30012" lon="1.80205">
        <ele>1971.412</ele>
        <time>2019-04-08T01:04:17Z</time>
      </trkpt>
      <trkpt lat="42.3001" lon="1.80193">
        <ele>1969.786</ele>
        <time>2019-04-08T01:04:21Z</time>
      </trkpt>
      <trkpt lat="42.30009" lon="1.8018">
        <ele>1968.735</ele>
        <time>2019-04-08T01:04:25Z</time>
      </trkpt>
      <trkpt lat="42.30008" lon="1.80171">
        <ele>1967.337</ele>
        <time>2019-04-08T01:04:28Z</time>
      </trkpt>
      <trkpt lat="42.30007" lon="1.80159">
        <ele>1966.452</ele>
        <time>2019-04-08T01:04:31Z</time>
      </trkpt>
      <trkpt lat="42.30004" lon="1.80147">
        <ele>1966.153</ele>
        <time>2019-04-08T01:04:35Z</time>
      </trkpt>
      <trkpt lat="42.30004" lon="1.80134">
        <ele>1964.608</ele>
        <time>2019-04-08T01:04:39Z</time>
      </trkpt>
      <trkpt lat="42.30003" lon="1.80121">
        <ele>1963.208</ele>
        <time>2019-04-08T01:04:43Z</time>
      </trkpt>
      <trkpt lat="42.30002" lon="1.80108">
        <ele>1961.958</ele>
        <time>2019-04-08T01:04:47Z</time>
      </trkpt>
      <trkpt lat="42.29999" lon="1.80098">
        <ele>1961.01</ele>
        <time>2019-04-08T01:04:50Z</time>
      </trkpt>
      <trkpt lat="42.29999" lon="1.80086">
        <ele>1960.545</ele>
        <time>2019-04-08T01:04:53Z</time>
      </trkpt>
      <trkpt lat="42.29996" lon="1.80073">
        <ele>1960.526</ele>
        <time>2019-04-08T01:04:57Z</time>
      </trkpt>
      <trkpt lat="42.29991" lon="1.80073">
        <ele>1960.026</ele>
        <time>2019-04-08T01:04:59Z</time>
      </trkpt>
      <trkpt lat="42.29988" lon="1.80076">
        <ele>1958.63</ele>
        <time>2019-04-08T01:05:01Z</time>
      </trkpt>
      <trkpt lat="42.29993" lon="1.80073">
        <ele>1958.849</ele>
        <time>2019-04-08T01:05:03Z</time>
      </trkpt>
      <trkpt lat="42.29994" lon="1.80064">
        <ele>1959.341</ele>
        <time>2019-04-08T01:05:05Z</time>
      </trkpt>
      <trkpt lat="42.29988" lon="1.80058">
        <ele>1958.969</ele>
        <time>2019-04-08T01:05:08Z</time>
      </trkpt>
      <trkpt lat="42.29987" lon="1.80048">
        <ele>1957.704</ele>
        <time>2019-04-08T01:05:11Z</time>
      </trkpt>
      <trkpt lat="42.29985" lon="1.80038">
        <ele>1956.924</ele>
        <time>2019-04-08T01:05:15Z</time>
      </trkpt>
      <trkpt lat="42.29983" lon="1.80032">
        <ele>1956.508</ele>
        <time>2019-04-08T01:05:17Z</time>
      </trkpt>
      <trkpt lat="42.29979" lon="1.80021">
        <ele>1956.059</ele>
        <time>2019-04-08T01:05:20Z</time>
      </trkpt>
      <trkpt lat="42.29972" lon="1.80012">
        <ele>1955.251</ele>
        <time>2019-04-08T01:05:24Z</time>
      </trkpt>
      <trkpt lat="42.29966" lon="1.80005">
        <ele>1954.326</ele>
        <time>2019-04-08T01:05:27Z</time>
      </trkpt>
      <trkpt lat="42.29959" lon="1.8">
        <ele>1953.947</ele>
        <time>2019-04-08T01:05:31Z</time>
      </trkpt>
      <trkpt lat="42.29951" lon="1.79993">
        <ele>1953.137</ele>
        <time>2019-04-08T01:05:34Z</time>
      </trkpt>
      <trkpt lat="42.29946" lon="1.79986">
        <ele>1952.091</ele>
        <time>2019-04-08T01:05:37Z</time>
      </trkpt>
      <trkpt lat="42.29941" lon="1.79977">
        <ele>1950.88</ele>
        <time>2019-04-08T01:05:40Z</time>
      </trkpt>
      <trkpt lat="42.29938" lon="1.7997">
        <ele>1949.432</ele>
        <time>2019-04-08T01:05:43Z</time>
      </trkpt>
      <trkpt lat="42.29936" lon="1.79961">
        <ele>1948.425</ele>
        <time>2019-04-08T01:05:46Z</time>
      </trkpt>
      <trkpt lat="42.29934" lon="1.79951">
        <ele>1948.026</ele>
        <time>2019-04-08T01:05:49Z</time>
      </trkpt>
      <trkpt lat="42.29929" lon="1.79947">
        <ele>1947.008</ele>
        <time>2019-04-08T01:05:51Z</time>
      </trkpt>
      <trkpt lat="42.29923" lon="1.79943">
        <ele>1946.008</ele>
        <time>2019-04-08T01:05:54Z</time>
      </trkpt>
      <trkpt lat="42.29919" lon="1.79939">
        <ele>1944.355</ele>
        <time>2019-04-08T01:05:56Z</time>
      </trkpt>
      <trkpt lat="42.29916" lon="1.79933">
        <ele>1942.747</ele>
        <time>2019-04-08T01:05:58Z</time>
      </trkpt>
      <trkpt lat="42.29912" lon="1.79929">
        <ele>1939.912</ele>
        <time>2019-04-08T01:06:00Z</time>
      </trkpt>
      <trkpt lat="42.29909" lon="1.79925">
        <ele>1939.093</ele>
        <time>2019-04-08T01:06:02Z</time>
      </trkpt>
      <trkpt lat="42.29906" lon="1.7992">
        <ele>1938.333</ele>
        <time>2019-04-08T01:06:04Z</time>
      </trkpt>
      <trkpt lat="42.29903" lon="1.79915">
        <ele>1937.697</ele>
        <time>2019-04-08T01:06:06Z</time>
      </trkpt>
      <trkpt lat="42.29902" lon="1.79908">
        <ele>1937.026</ele>
        <time>2019-04-08T01:06:08Z</time>
      </trkpt>
      <trkpt lat="42.29901" lon="1.79902">
        <ele>1935.738</ele>
        <time>2019-04-08T01:06:09Z</time>
      </trkpt>
      <trkpt lat="42.29899" lon="1.79896">
        <ele>1934.975</ele>
        <time>2019-04-08T01:06:11Z</time>
      </trkpt>
      <trkpt lat="42.29897" lon="1.79889">
        <ele>1934.028</ele>
        <time>2019-04-08T01:06:14Z</time>
      </trkpt>
      <trkpt lat="42.29897" lon="1.79881">
        <ele>1932.62</ele>
        <time>2019-04-08T01:06:16Z</time>
      </trkpt>
      <trkpt lat="42.29895" lon="1.79875">
        <ele>1931.408</ele>
        <time>2019-04-08T01:06:18Z</time>
      </trkpt>
      <trkpt lat="42.29893" lon="1.79868">
        <ele>1930.76</ele>
        <time>2019-04-08T01:06:20Z</time>
      </trkpt>
      <trkpt lat="42.29892" lon="1.79862">
        <ele>1929.172</ele>
        <time>2019-04-08T01:06:22Z</time>
      </trkpt>
      <trkpt lat="42.29891" lon="1.79855">
        <ele>1928.037</ele>
        <time>2019-04-08T01:06:24Z</time>
      </trkpt>
      <trkpt lat="42.2989" lon="1.79847">
        <ele>1926.278</ele>
        <time>2019-04-08T01:06:27Z</time>
      </trkpt>
      <trkpt lat="42.29889" lon="1.7984">
        <ele>1923.118</ele>
        <time>2019-04-08T01:06:29Z</time>
      </trkpt>
      <trkpt lat="42.29885" lon="1.79837">
        <ele>1921.442</ele>
        <time>2019-04-08T01:06:30Z</time>
      </trkpt>
      <trkpt lat="42.29881" lon="1.79833">
        <ele>1919.581</ele>
        <time>2019-04-08T01:06:33Z</time>
      </trkpt>
      <trkpt lat="42.29881" lon="1.79827">
        <ele>1917.713</ele>
        <time>2019-04-08T01:06:34Z</time>
      </trkpt>
      <trkpt lat="42.2988" lon="1.79821">
        <ele>1915.962</ele>
        <time>2019-04-08T01:06:36Z</time>
      </trkpt>
      <trkpt lat="42.29875" lon="1.7982">
        <ele>1914.183</ele>
        <time>2019-04-08T01:06:38Z</time>
      </trkpt>
      <trkpt lat="42.2987" lon="1.79825">
        <ele>1911.911</ele>
        <time>2019-04-08T01:06:40Z</time>
      </trkpt>
      <trkpt lat="42.29866" lon="1.79822">
        <ele>1910.808</ele>
        <time>2019-04-08T01:06:42Z</time>
      </trkpt>
      <trkpt lat="42.29863" lon="1.79815">
        <ele>1909.829</ele>
        <time>2019-04-08T01:06:44Z</time>
      </trkpt>
      <trkpt lat="42.2986" lon="1.79811">
        <ele>1907.761</ele>
        <time>2019-04-08T01:06:46Z</time>
      </trkpt>
      <trkpt lat="42.29858" lon="1.79805">
        <ele>1905.466</ele>
        <time>2019-04-08T01:06:48Z</time>
      </trkpt>
      <trkpt lat="42.29857" lon="1.79805">
        <ele>1902.237</ele>
        <time>2019-04-08T01:06:49Z</time>
      </trkpt>
      <trkpt lat="42.29856" lon="1.79798">
        <ele>1900.957</ele>
        <time>2019-04-08T01:06:51Z</time>
      </trkpt>
      <trkpt lat="42.29857" lon="1.79792">
        <ele>1899.511</ele>
        <time>2019-04-08T01:06:53Z</time>
      </trkpt>
      <trkpt lat="42.29855" lon="1.79786">
        <ele>1898.49</ele>
        <time>2019-04-08T01:06:55Z</time>
      </trkpt>
      <trkpt lat="42.29855" lon="1.79779">
        <ele>1897.392</ele>
        <time>2019-04-08T01:06:57Z</time>
      </trkpt>
      <trkpt lat="42.29853" lon="1.79773">
        <ele>1896.096</ele>
        <time>2019-04-08T01:06:58Z</time>
      </trkpt>
      <trkpt lat="42.29851" lon="1.79768">
        <ele>1893.031</ele>
        <time>2019-04-08T01:07:00Z</time>
      </trkpt>
      <trkpt lat="42.29849" lon="1.79762">
        <ele>1891.524</ele>
        <time>2019-04-08T01:07:02Z</time>
      </trkpt>
      <trkpt lat="42.29848" lon="1.79756">
        <ele>1888.908</ele>
        <time>2019-04-08T01:07:04Z</time>
      </trkpt>
      <trkpt lat="42.29846" lon="1.7975">
        <ele>1887.722</ele>
        <time>2019-04-08T01:07:06Z</time>
      </trkpt>
      <trkpt lat="42.29843" lon="1.79745">
        <ele>1886.054</ele>
        <time>2019-04-08T01:07:08Z</time>
      </trkpt>
      <trkpt lat="42.29838" lon="1.79745">
        <ele>1884.689</ele>
        <time>2019-04-08T01:07:10Z</time>
      </trkpt>
      <trkpt lat="42.29833" lon="1.79743">
        <ele>1883.32</ele>
        <time>2019-04-08T01:07:12Z</time>
      </trkpt>
      <trkpt lat="42.29829" lon="1.79745">
        <ele>1881.53</ele>
        <time>2019-04-08T01:07:14Z</time>
      </trkpt>
      <trkpt lat="42.29825" lon="1.79741">
        <ele>1878.024</ele>
        <time>2019-04-08T01:07:15Z</time>
      </trkpt>
      <trkpt lat="42.29824" lon="1.79734">
        <ele>1877.373</ele>
        <time>2019-04-08T01:07:18Z</time>
      </trkpt>
      <trkpt lat="42.29822" lon="1.79728">
        <ele>1875.465</ele>
        <time>2019-04-08T01:07:20Z</time>
      </trkpt>
      <trkpt lat="42.29825" lon="1.79721">
        <ele>1873.742</ele>
        <time>2019-04-08T01:07:22Z</time>
      </trkpt>
      <trkpt lat="42.29822" lon="1.79716">
        <ele>1872.322</ele>
        <time>2019-04-08T01:07:24Z</time>
      </trkpt>
      <trkpt lat="42.29818" lon="1.79713">
        <ele>1871.714</ele>
        <time>2019-04-08T01:07:25Z</time>
      </trkpt>
      <trkpt lat="42.29816" lon="1.79707">
        <ele>1869.508</ele>
        <time>2019-04-08T01:07:27Z</time>
      </trkpt>
      <trkpt lat="42.2981" lon="1.79709">
        <ele>1867.357</ele>
        <time>2019-04-08T01:07:30Z</time>
      </trkpt>
      <trkpt lat="42.29806" lon="1.7971">
        <ele>1862.789</ele>
        <time>2019-04-08T01:07:32Z</time>
      </trkpt>
      <trkpt lat="42.29804" lon="1.79716">
        <ele>1861.234</ele>
        <time>2019-04-08T01:07:34Z</time>
      </trkpt>
      <trkpt lat="42.29799" lon="1.79714">
        <ele>1859.515</ele>
        <time>2019-04-08T01:07:35Z</time>
      </trkpt>
      <trkpt lat="42.29795" lon="1.79714">
        <ele>1856.655</ele>
        <time>2019-04-08T01:07:37Z</time>
      </trkpt>
      <trkpt lat="42.29791" lon="1.7971">
        <ele>1854.319</ele>
        <time>2019-04-08T01:07:39Z</time>
      </trkpt>
      <trkpt lat="42.29788" lon="1.79706">
        <ele>1853.388</ele>
        <time>2019-04-08T01:07:41Z</time>
      </trkpt>
      <trkpt lat="42.29786" lon="1.79699">
        <ele>1851.35</ele>
        <time>2019-04-08T01:07:43Z</time>
      </trkpt>
      <trkpt lat="42.29783" lon="1.79694">
        <ele>1849.498</ele>
        <time>2019-04-08T01:07:45Z</time>
      </trkpt>
      <trkpt lat="42.29779" lon="1.79691">
        <ele>1848.215</ele>
        <time>2019-04-08T01:07:47Z</time>
      </trkpt>
      <trkpt lat="42.29775" lon="1.79691">
        <ele>1846.826</ele>
        <time>2019-04-08T01:07:49Z</time>
      </trkpt>
      <trkpt lat="42.29772" lon="1.79695">
        <ele>1845.508</ele>
        <time>2019-04-08T01:07:50Z</time>
      </trkpt>
      <trkpt lat="42.29768" lon="1.79701">
        <ele>1844.452</ele>
        <time>2019-04-08T01:07:53Z</time>
      </trkpt>
      <trkpt lat="42.29763" lon="1.79702">
        <ele>1842.914</ele>
        <time>2019-04-08T01:07:55Z</time>
      </trkpt>
      <trkpt lat="42.29759" lon="1.79705">
        <ele>1841.169</ele>
        <time>2019-04-08T01:07:56Z</time>
      </trkpt>
      <trkpt lat="42.29754" lon="1.79706">
        <ele>1840.01</ele>
        <time>2019-04-08T01:07:58Z</time>
      </trkpt>
      <trkpt lat="42.2975" lon="1.79709">
        <ele>1838.88</ele>
        <time>2019-04-08T01:08:00Z</time>
      </trkpt>
      <trkpt lat="42.29745" lon="1.79709">
        <ele>1837.984</ele>
        <time>2019-04-08T01:08:02Z</time>
      </trkpt>
      <trkpt lat="42.29741" lon="1.79706">
        <ele>1836.843</ele>
        <time>2019-04-08T01:08:04Z</time>
      </trkpt>
      <trkpt lat="42.29736" lon="1.79705">
        <ele>1835.375</ele>
        <time>2019-04-08T01:08:06Z</time>
      </trkpt>
      <trkpt lat="42.29731" lon="1.79706">
        <ele>1833.559</ele>
        <time>2019-04-08T01:08:08Z</time>
      </trkpt>
      <trkpt lat="42.29727" lon="1.79712">
        <ele>1832.603</ele>
        <time>2019-04-08T01:08:11Z</time>
      </trkpt>
      <trkpt lat="42.29722" lon="1.79716">
        <ele>1831.323</ele>
        <time>2019-04-08T01:08:13Z</time>
      </trkpt>
      <trkpt lat="42.29718" lon="1.79712">
        <ele>1830.408</ele>
        <time>2019-04-08T01:08:15Z</time>
      </trkpt>
      <trkpt lat="42.29718" lon="1.79705">
        <ele>1829.368</ele>
        <time>2019-04-08T01:08:17Z</time>
      </trkpt>
      <trkpt lat="42.29714" lon="1.79712">
        <ele>1829.18</ele>
        <time>2019-04-08T01:08:20Z</time>
      </trkpt>
      <trkpt lat="42.29716" lon="1.79706">
        <ele>1829.175</ele>
        <time>2019-04-08T01:08:21Z</time>
      </trkpt>
      <trkpt lat="42.29719" lon="1.79694">
        <ele>1828.976</ele>
        <time>2019-04-08T01:08:25Z</time>
      </trkpt>
      <trkpt lat="42.29721" lon="1.79689">
        <ele>1828.336</ele>
        <time>2019-04-08T01:08:27Z</time>
      </trkpt>
      <trkpt lat="42.29718" lon="1.79694">
        <ele>1828.18</ele>
        <time>2019-04-08T01:08:29Z</time>
      </trkpt>
      <trkpt lat="42.29721" lon="1.79689">
        <ele>1828.169</ele>
        <time>2019-04-08T01:08:31Z</time>
      </trkpt>
      <trkpt lat="42.29718" lon="1.79694">
        <ele>1828.171</ele>
        <time>2019-04-08T01:08:33Z</time>
      </trkpt>
      <trkpt lat="42.2972" lon="1.79689">
        <ele>1828.339</ele>
        <time>2019-04-08T01:08:34Z</time>
      </trkpt>
      <trkpt lat="42.29722" lon="1.79695">
        <ele>1828.401</ele>
        <time>2019-04-08T01:08:37Z</time>
      </trkpt>
      <trkpt lat="42.29724" lon="1.79687">
        <ele>1828.621</ele>
        <time>2019-04-08T01:08:39Z</time>
      </trkpt>
      <trkpt lat="42.2972" lon="1.7969">
        <ele>1828.908</ele>
        <time>2019-04-08T01:08:41Z</time>
      </trkpt>
      <trkpt lat="42.2972" lon="1.79697">
        <ele>1829.236</ele>
        <time>2019-04-08T01:08:43Z</time>
      </trkpt>
      <trkpt lat="42.2972" lon="1.79691">
        <ele>1829.448</ele>
        <time>2019-04-08T01:08:45Z</time>
      </trkpt>
      <trkpt lat="42.29715" lon="1.79688">
        <ele>1828.883</ele>
        <time>2019-04-08T01:08:47Z</time>
      </trkpt>
      <trkpt lat="42.2972" lon="1.79694">
        <ele>1828.434</ele>
        <time>2019-04-08T01:08:49Z</time>
      </trkpt>
      <trkpt lat="42.29721" lon="1.79695">
        <ele>1828.524</ele>
        <time>2019-04-08T01:08:50Z</time>
      </trkpt>
      <trkpt lat="42.29719" lon="1.79693">
        <ele>1828.788</ele>
        <time>2019-04-08T01:08:50Z</time>
      </trkpt>
      <trkpt lat="42.29721" lon="1.79692">
        <ele>1828.847</ele>
        <time>2019-04-08T01:08:51Z</time>
      </trkpt>
      <trkpt lat="42.29718" lon="1.79692">
        <ele>1829.159</ele>
        <time>2019-04-08T01:08:53Z</time>
      </trkpt>
      <trkpt lat="42.29715" lon="1.79697">
        <ele>1829.143</ele>
        <time>2019-04-08T01:08:55Z</time>
      </trkpt>
      <trkpt lat="42.2971" lon="1.79702">
        <ele>1828.664</ele>
        <time>2019-04-08T01:08:57Z</time>
      </trkpt>
      <trkpt lat="42.29713" lon="1.79712">
        <ele>1827.91</ele>
        <time>2019-04-08T01:09:00Z</time>
      </trkpt>
      <trkpt lat="42.29719" lon="1.79722">
        <ele>1827.008</ele>
        <time>2019-04-08T01:09:04Z</time>
      </trkpt>
      <trkpt lat="42.2972" lon="1.79728">
        <ele>1826.517</ele>
        <time>2019-04-08T01:09:06Z</time>
      </trkpt>
      <trkpt lat="42.29719" lon="1.79738">
        <ele>1824.659</ele>
        <time>2019-04-08T01:09:09Z</time>
      </trkpt>
      <trkpt lat="42.29719" lon="1.79749">
        <ele>1823.034</ele>
        <time>2019-04-08T01:09:12Z</time>
      </trkpt>
      <trkpt lat="42.29718" lon="1.79758">
        <ele>1821.965</ele>
        <time>2019-04-08T01:09:15Z</time>
      </trkpt>
      <trkpt lat="42.29719" lon="1.79764">
        <ele>1820.875</ele>
        <time>2019-04-08T01:09:17Z</time>
      </trkpt>
      <trkpt lat="42.29719" lon="1.79771">
        <ele>1820.249</ele>
        <time>2019-04-08T01:09:19Z</time>
      </trkpt>
      <trkpt lat="42.29721" lon="1.79778">
        <ele>1819.938</ele>
        <time>2019-04-08T01:09:21Z</time>
      </trkpt>
      <trkpt lat="42.29724" lon="1.79786">
        <ele>1818.53</ele>
        <time>2019-04-08T01:09:24Z</time>
      </trkpt>
      <trkpt lat="42.29727" lon="1.79793">
        <ele>1817.363</ele>
        <time>2019-04-08T01:09:26Z</time>
      </trkpt>
      <trkpt lat="42.29723" lon="1.79799">
        <ele>1815.844</ele>
        <time>2019-04-08T01:09:28Z</time>
      </trkpt>
      <trkpt lat="42.29717" lon="1.79806">
        <ele>1813.918</ele>
        <time>2019-04-08T01:09:31Z</time>
      </trkpt>
      <trkpt lat="42.29719" lon="1.79813">
        <ele>1812.508</ele>
        <time>2019-04-08T01:09:34Z</time>
      </trkpt>
      <trkpt lat="42.29719" lon="1.7982">
        <ele>1811.229</ele>
        <time>2019-04-08T01:09:36Z</time>
      </trkpt>
      <trkpt lat="42.29716" lon="1.79825">
        <ele>1809.521</ele>
        <time>2019-04-08T01:09:38Z</time>
      </trkpt>
      <trkpt lat="42.29716" lon="1.79832">
        <ele>1808.716</ele>
        <time>2019-04-08T01:09:40Z</time>
      </trkpt>
      <trkpt lat="42.29716" lon="1.79838">
        <ele>1807.627</ele>
        <time>2019-04-08T01:09:42Z</time>
      </trkpt>
      <trkpt lat="42.29715" lon="1.79845">
        <ele>1805.957</ele>
        <time>2019-04-08T01:09:43Z</time>
      </trkpt>
      <trkpt lat="42.29716" lon="1.79852">
        <ele>1804.321</ele>
        <time>2019-04-08T01:09:46Z</time>
      </trkpt>
      <trkpt lat="42.29716" lon="1.79859">
        <ele>1803.38</ele>
        <time>2019-04-08T01:09:48Z</time>
      </trkpt>
      <trkpt lat="42.29714" lon="1.79865">
        <ele>1802.552</ele>
        <time>2019-04-08T01:09:50Z</time>
      </trkpt>
      <trkpt lat="42.2971" lon="1.79858">
        <ele>1801.257</ele>
        <time>2019-04-08T01:09:52Z</time>
      </trkpt>
      <trkpt lat="42.29705" lon="1.79864">
        <ele>1800.5</ele>
        <time>2019-04-08T01:09:55Z</time>
      </trkpt>
      <trkpt lat="42.29708" lon="1.79871">
        <ele>1799.32</ele>
        <time>2019-04-08T01:09:57Z</time>
      </trkpt>
      <trkpt lat="42.29711" lon="1.79878">
        <ele>1798.608</ele>
        <time>2019-04-08T01:10:00Z</time>
      </trkpt>
      <trkpt lat="42.29705" lon="1.79877">
        <ele>1797.488</ele>
        <time>2019-04-08T01:10:02Z</time>
      </trkpt>
      <trkpt lat="42.297" lon="1.79877">
        <ele>1795.05</ele>
        <time>2019-04-08T01:10:04Z</time>
      </trkpt>
      <trkpt lat="42.29703" lon="1.79886">
        <ele>1793.755</ele>
        <time>2019-04-08T01:10:07Z</time>
      </trkpt>
      <trkpt lat="42.29706" lon="1.79892">
        <ele>1791.816</ele>
        <time>2019-04-08T01:10:09Z</time>
      </trkpt>
      <trkpt lat="42.29707" lon="1.79898">
        <ele>1789.996</ele>
        <time>2019-04-08T01:10:11Z</time>
      </trkpt>
      <trkpt lat="42.29705" lon="1.79906">
        <ele>1788.97</ele>
        <time>2019-04-08T01:10:14Z</time>
      </trkpt>
      <trkpt lat="42.29702" lon="1.7991">
        <ele>1787.329</ele>
        <time>2019-04-08T01:10:15Z</time>
      </trkpt>
      <trkpt lat="42.29698" lon="1.79914">
        <ele>1784.971</ele>
        <time>2019-04-08T01:10:17Z</time>
      </trkpt>
      <trkpt lat="42.297" lon="1.7992">
        <ele>1783.418</ele>
        <time>2019-04-08T01:10:19Z</time>
      </trkpt>
      <trkpt lat="42.29694" lon="1.79918">
        <ele>1781.698</ele>
        <time>2019-04-08T01:10:22Z</time>
      </trkpt>
      <trkpt lat="42.2969" lon="1.79915">
        <ele>1778.217</ele>
        <time>2019-04-08T01:10:24Z</time>
      </trkpt>
      <trkpt lat="42.29686" lon="1.79919">
        <ele>1777.008</ele>
        <time>2019-04-08T01:10:26Z</time>
      </trkpt>
      <trkpt lat="42.29685" lon="1.79925">
        <ele>1776.574</ele>
        <time>2019-04-08T01:10:27Z</time>
      </trkpt>
      <trkpt lat="42.29687" lon="1.79932">
        <ele>1775.086</ele>
        <time>2019-04-08T01:10:30Z</time>
      </trkpt>
      <trkpt lat="42.29687" lon="1.79939">
        <ele>1773.881</ele>
        <time>2019-04-08T01:10:32Z</time>
      </trkpt>
      <trkpt lat="42.29688" lon="1.79945">
        <ele>1773.122</ele>
        <time>2019-04-08T01:10:33Z</time>
      </trkpt>
      <trkpt lat="42.29683" lon="1.79942">
        <ele>1771.162</ele>
        <time>2019-04-08T01:10:35Z</time>
      </trkpt>
      <trkpt lat="42.29681" lon="1.79952">
        <ele>1770.486</ele>
        <time>2019-04-08T01:10:38Z</time>
      </trkpt>
      <trkpt lat="42.29681" lon="1.79958">
        <ele>1769.175</ele>
        <time>2019-04-08T01:10:40Z</time>
      </trkpt>
      <trkpt lat="42.29678" lon="1.79957">
        <ele>1768.747</ele>
        <time>2019-04-08T01:10:42Z</time>
      </trkpt>
      <trkpt lat="42.29678" lon="1.79956">
        <ele>1768.282</ele>
        <time>2019-04-08T01:10:42Z</time>
      </trkpt>
      <trkpt lat="42.29673" lon="1.79959">
        <ele>1766.643</ele>
        <time>2019-04-08T01:10:45Z</time>
      </trkpt>
      <trkpt lat="42.29678" lon="1.79964">
        <ele>1764.817</ele>
        <time>2019-04-08T01:10:47Z</time>
      </trkpt>
      <trkpt lat="42.29674" lon="1.7997">
        <ele>1763.808</ele>
        <time>2019-04-08T01:10:49Z</time>
      </trkpt>
      <trkpt lat="42.2967" lon="1.79973">
        <ele>1762.471</ele>
        <time>2019-04-08T01:10:51Z</time>
      </trkpt>
      <trkpt lat="42.29663" lon="1.79978">
        <ele>1761.433</ele>
        <time>2019-04-08T01:10:54Z</time>
      </trkpt>
      <trkpt lat="42.29661" lon="1.79984">
        <ele>1759.358</ele>
        <time>2019-04-08T01:10:56Z</time>
      </trkpt>
      <trkpt lat="42.29659" lon="1.7999">
        <ele>1754.559</ele>
        <time>2019-04-08T01:10:58Z</time>
      </trkpt>
      <trkpt lat="42.29664" lon="1.79996">
        <ele>1753.539</ele>
        <time>2019-04-08T01:11:01Z</time>
      </trkpt>
      <trkpt lat="42.29663" lon="1.80003">
        <ele>1752.613</ele>
        <time>2019-04-08T01:11:03Z</time>
      </trkpt>
      <trkpt lat="42.29659" lon="1.80008">
        <ele>1751.012</ele>
        <time>2019-04-08T01:11:05Z</time>
      </trkpt>
      <trkpt lat="42.29658" lon="1.80014">
        <ele>1750.214</ele>
        <time>2019-04-08T01:11:07Z</time>
      </trkpt>
      <trkpt lat="42.29658" lon="1.80023">
        <ele>1750.338</ele>
        <time>2019-04-08T01:11:09Z</time>
      </trkpt>
      <trkpt lat="42.29652" lon="1.80032">
        <ele>1749.67</ele>
        <time>2019-04-08T01:11:13Z</time>
      </trkpt>
      <trkpt lat="42.2965" lon="1.80038">
        <ele>1746.617</ele>
        <time>2019-04-08T01:11:15Z</time>
      </trkpt>
      <trkpt lat="42.29645" lon="1.80051">
        <ele>1744.408</ele>
        <time>2019-04-08T01:11:19Z</time>
      </trkpt>
      <trkpt lat="42.29642" lon="1.80067">
        <ele>1743.796</ele>
        <time>2019-04-08T01:11:24Z</time>
      </trkpt>
      <trkpt lat="42.29642" lon="1.80073">
        <ele>1742.558</ele>
        <time>2019-04-08T01:11:26Z</time>
      </trkpt>
      <trkpt lat="42.2964" lon="1.8008">
        <ele>1740.953</ele>
        <time>2019-04-08T01:11:28Z</time>
      </trkpt>
      <trkpt lat="42.29639" lon="1.80086">
        <ele>1738.884</ele>
        <time>2019-04-08T01:11:30Z</time>
      </trkpt>
      <trkpt lat="42.29638" lon="1.80093">
        <ele>1734.894</ele>
        <time>2019-04-08T01:11:32Z</time>
      </trkpt>
      <trkpt lat="42.29638" lon="1.80093">
        <ele>1731.458</ele>
        <time>2019-04-08T01:11:32Z</time>
      </trkpt>
      <trkpt lat="42.29633" lon="1.80099">
        <ele>1730.077</ele>
        <time>2019-04-08T01:11:35Z</time>
      </trkpt>
      <trkpt lat="42.29632" lon="1.80102">
        <ele>1724.849</ele>
        <time>2019-04-08T01:11:36Z</time>
      </trkpt>
      <trkpt lat="42.29625" lon="1.80099">
        <ele>1722.578</ele>
        <time>2019-04-08T01:11:39Z</time>
      </trkpt>
      <trkpt lat="42.29618" lon="1.80103">
        <ele>1720.533</ele>
        <time>2019-04-08T01:11:42Z</time>
      </trkpt>
      <trkpt lat="42.29617" lon="1.80111">
        <ele>1718.326</ele>
        <time>2019-04-08T01:11:44Z</time>
      </trkpt>
      <trkpt lat="42.29621" lon="1.80113">
        <ele>1717.108</ele>
        <time>2019-04-08T01:11:46Z</time>
      </trkpt>
      <trkpt lat="42.29617" lon="1.80119">
        <ele>1715.99</ele>
        <time>2019-04-08T01:11:48Z</time>
      </trkpt>
      <trkpt lat="42.29622" lon="1.80122">
        <ele>1714.982</ele>
        <time>2019-04-08T01:11:51Z</time>
      </trkpt>
      <trkpt lat="42.29622" lon="1.80132">
        <ele>1713.477</ele>
        <time>2019-04-08T01:11:54Z</time>
      </trkpt>
      <trkpt lat="42.29619" lon="1.80139">
        <ele>1712.038</ele>
        <time>2019-04-08T01:11:56Z</time>
      </trkpt>
      <trkpt lat="42.29621" lon="1.80144">
        <ele>1710.588</ele>
        <time>2019-04-08T01:11:58Z</time>
      </trkpt>
      <trkpt lat="42.29617" lon="1.80149">
        <ele>1709.452</ele>
        <time>2019-04-08T01:12:00Z</time>
      </trkpt>
      <trkpt lat="42.29613" lon="1.80151">
        <ele>1707.181</ele>
        <time>2019-04-08T01:12:02Z</time>
      </trkpt>
      <trkpt lat="42.29616" lon="1.80159">
        <ele>1705.923</ele>
        <time>2019-04-08T01:12:04Z</time>
      </trkpt>
      <trkpt lat="42.29613" lon="1.80163">
        <ele>1704.814</ele>
        <time>2019-04-08T01:12:06Z</time>
      </trkpt>
      <trkpt lat="42.29607" lon="1.80165">
        <ele>1703.854</ele>
        <time>2019-04-08T01:12:09Z</time>
      </trkpt>
      <trkpt lat="42.29601" lon="1.80166">
        <ele>1703.409</ele>
        <time>2019-04-08T01:12:11Z</time>
      </trkpt>
      <trkpt lat="42.29606" lon="1.80172">
        <ele>1702.708</ele>
        <time>2019-04-08T01:12:14Z</time>
      </trkpt>
      <trkpt lat="42.29609" lon="1.80177">
        <ele>1701.544</ele>
        <time>2019-04-08T01:12:16Z</time>
      </trkpt>
      <trkpt lat="42.2961" lon="1.80186">
        <ele>1700.046</ele>
        <time>2019-04-08T01:12:18Z</time>
      </trkpt>
      <trkpt lat="42.29608" lon="1.80191">
        <ele>1698.641</ele>
        <time>2019-04-08T01:12:20Z</time>
      </trkpt>
      <trkpt lat="42.29602" lon="1.8019">
        <ele>1697.272</ele>
        <time>2019-04-08T01:12:22Z</time>
      </trkpt>
      <trkpt lat="42.29598" lon="1.80193">
        <ele>1695.352</ele>
        <time>2019-04-08T01:12:24Z</time>
      </trkpt>
      <trkpt lat="42.29598" lon="1.80201">
        <ele>1694.076</ele>
        <time>2019-04-08T01:12:27Z</time>
      </trkpt>
      <trkpt lat="42.296" lon="1.8021">
        <ele>1692.035</ele>
        <time>2019-04-08T01:12:29Z</time>
      </trkpt>
      <trkpt lat="42.29597" lon="1.80215">
        <ele>1688.767</ele>
        <time>2019-04-08T01:12:31Z</time>
      </trkpt>
      <trkpt lat="42.29589" lon="1.80215">
        <ele>1687.966</ele>
        <time>2019-04-08T01:12:34Z</time>
      </trkpt>
      <trkpt lat="42.29585" lon="1.80217">
        <ele>1686.829</ele>
        <time>2019-04-08T01:12:36Z</time>
      </trkpt>
      <trkpt lat="42.29585" lon="1.80223">
        <ele>1688.521</ele>
        <time>2019-04-08T01:12:38Z</time>
      </trkpt>
      <trkpt lat="42.29583" lon="1.80217">
        <ele>1689.008</ele>
        <time>2019-04-08T01:12:40Z</time>
      </trkpt>
      <trkpt lat="42.29581" lon="1.80222">
        <ele>1686.029</ele>
        <time>2019-04-08T01:12:42Z</time>
      </trkpt>
      <trkpt lat="42.29584" lon="1.80227">
        <ele>1685.441</ele>
        <time>2019-04-08T01:12:44Z</time>
      </trkpt>
      <trkpt lat="42.29584" lon="1.80233">
        <ele>1684.856</ele>
        <time>2019-04-08T01:12:46Z</time>
      </trkpt>
      <trkpt lat="42.29579" lon="1.80235">
        <ele>1683.027</ele>
        <time>2019-04-08T01:12:48Z</time>
      </trkpt>
      <trkpt lat="42.29571" lon="1.80232">
        <ele>1681.587</ele>
        <time>2019-04-08T01:12:51Z</time>
      </trkpt>
      <trkpt lat="42.2957" lon="1.80238">
        <ele>1680.741</ele>
        <time>2019-04-08T01:12:53Z</time>
      </trkpt>
      <trkpt lat="42.29575" lon="1.80247">
        <ele>1679.39</ele>
        <time>2019-04-08T01:12:56Z</time>
      </trkpt>
      <trkpt lat="42.29578" lon="1.80256">
        <ele>1677.822</ele>
        <time>2019-04-08T01:12:59Z</time>
      </trkpt>
      <trkpt lat="42.29574" lon="1.8026">
        <ele>1676.314</ele>
        <time>2019-04-08T01:13:01Z</time>
      </trkpt>
      <trkpt lat="42.2957" lon="1.80264">
        <ele>1674.854</ele>
        <time>2019-04-08T01:13:03Z</time>
      </trkpt>
      <trkpt lat="42.29565" lon="1.80264">
        <ele>1674.109</ele>
        <time>2019-04-08T01:13:05Z</time>
      </trkpt>
      <trkpt lat="42.29558" lon="1.80264">
        <ele>1673.508</ele>
        <time>2019-04-08T01:13:08Z</time>
      </trkpt>
      <trkpt lat="42.29563" lon="1.80276">
        <ele>1672.634</ele>
        <time>2019-04-08T01:13:12Z</time>
      </trkpt>
      <trkpt lat="42.29565" lon="1.80283">
        <ele>1672.146</ele>
        <time>2019-04-08T01:13:14Z</time>
      </trkpt>
      <trkpt lat="42.29561" lon="1.80279">
        <ele>1670.651</ele>
        <time>2019-04-08T01:13:16Z</time>
      </trkpt>
      <trkpt lat="42.29563" lon="1.80285">
        <ele>1670.052</ele>
        <time>2019-04-08T01:13:18Z</time>
      </trkpt>
      <trkpt lat="42.29567" lon="1.80291">
        <ele>1668.482</ele>
        <time>2019-04-08T01:13:20Z</time>
      </trkpt>
      <trkpt lat="42.2957" lon="1.80296">
        <ele>1666.736</ele>
        <time>2019-04-08T01:13:22Z</time>
      </trkpt>
      <trkpt lat="42.29569" lon="1.80304">
        <ele>1665.625</ele>
        <time>2019-04-08T01:13:25Z</time>
      </trkpt>
      <trkpt lat="42.29567" lon="1.80311">
        <ele>1664.437</ele>
        <time>2019-04-08T01:13:27Z</time>
      </trkpt>
      <trkpt lat="42.29563" lon="1.80322">
        <ele>1663.994</ele>
        <time>2019-04-08T01:13:31Z</time>
      </trkpt>
      <trkpt lat="42.29563" lon="1.80328">
        <ele>1662.557</ele>
        <time>2019-04-08T01:13:32Z</time>
      </trkpt>
      <trkpt lat="42.29563" lon="1.80336">
        <ele>1661.522</ele>
        <time>2019-04-08T01:13:35Z</time>
      </trkpt>
      <trkpt lat="42.29557" lon="1.80339">
        <ele>1661.108</ele>
        <time>2019-04-08T01:13:37Z</time>
      </trkpt>
      <trkpt lat="42.29553" lon="1.80337">
        <ele>1658.632</ele>
        <time>2019-04-08T01:13:39Z</time>
      </trkpt>
      <trkpt lat="42.29547" lon="1.80333">
        <ele>1656.724</ele>
        <time>2019-04-08T01:13:42Z</time>
      </trkpt>
      <trkpt lat="42.29543" lon="1.80336">
        <ele>1655.499</ele>
        <time>2019-04-08T01:13:44Z</time>
      </trkpt>
      <trkpt lat="42.29537" lon="1.80336">
        <ele>1654.52</ele>
        <time>2019-04-08T01:13:46Z</time>
      </trkpt>
      <trkpt lat="42.29534" lon="1.80343">
        <ele>1653.74</ele>
        <time>2019-04-08T01:13:48Z</time>
      </trkpt>
      <trkpt lat="42.29532" lon="1.80351">
        <ele>1652.534</ele>
        <time>2019-04-08T01:13:51Z</time>
      </trkpt>
      <trkpt lat="42.29527" lon="1.80346">
        <ele>1651.373</ele>
        <time>2019-04-08T01:13:54Z</time>
      </trkpt>
      <trkpt lat="42.29525" lon="1.80337">
        <ele>1650.915</ele>
        <time>2019-04-08T01:13:56Z</time>
      </trkpt>
      <trkpt lat="42.29517" lon="1.80338">
        <ele>1649.514</ele>
        <time>2019-04-08T01:13:59Z</time>
      </trkpt>
      <trkpt lat="42.29516" lon="1.80347">
        <ele>1649.154</ele>
        <time>2019-04-08T01:14:02Z</time>
      </trkpt>
      <trkpt lat="42.29517" lon="1.80356">
        <ele>1647.509</ele>
        <time>2019-04-08T01:14:05Z</time>
      </trkpt>
      <trkpt lat="42.29518" lon="1.80362">
        <ele>1645.008</ele>
        <time>2019-04-08T01:14:06Z</time>
      </trkpt>
      <trkpt lat="42.2952" lon="1.80368">
        <ele>1643.824</ele>
        <time>2019-04-08T01:14:08Z</time>
      </trkpt>
      <trkpt lat="42.29519" lon="1.80376">
        <ele>1643.096</ele>
        <time>2019-04-08T01:14:11Z</time>
      </trkpt>
      <trkpt lat="42.29513" lon="1.80377">
        <ele>1641.671</ele>
        <time>2019-04-08T01:14:14Z</time>
      </trkpt>
      <trkpt lat="42.29506" lon="1.80381">
        <ele>1640.242</ele>
        <time>2019-04-08T01:14:17Z</time>
      </trkpt>
      <trkpt lat="42.29499" lon="1.80382">
        <ele>1638.782</ele>
        <time>2019-04-08T01:14:19Z</time>
      </trkpt>
      <trkpt lat="42.29492" lon="1.80381">
        <ele>1637.996</ele>
        <time>2019-04-08T01:14:22Z</time>
      </trkpt>
      <trkpt lat="42.29486" lon="1.80382">
        <ele>1636.725</ele>
        <time>2019-04-08T01:14:24Z</time>
      </trkpt>
      <trkpt lat="42.29483" lon="1.80387">
        <ele>1635.857</ele>
        <time>2019-04-08T01:14:26Z</time>
      </trkpt>
      <trkpt lat="42.29478" lon="1.80394">
        <ele>1635.747</ele>
        <time>2019-04-08T01:14:29Z</time>
      </trkpt>
      <trkpt lat="42.29479" lon="1.80405">
        <ele>1633.429</ele>
        <time>2019-04-08T01:14:32Z</time>
      </trkpt>
      <trkpt lat="42.29473" lon="1.80407">
        <ele>1631.521</ele>
        <time>2019-04-08T01:14:35Z</time>
      </trkpt>
      <trkpt lat="42.29469" lon="1.80411">
        <ele>1630.308</ele>
        <time>2019-04-08T01:14:37Z</time>
      </trkpt>
      <trkpt lat="42.29466" lon="1.80417">
        <ele>1628.697</ele>
        <time>2019-04-08T01:14:39Z</time>
      </trkpt>
      <trkpt lat="42.29459" lon="1.80418">
        <ele>1627.729</ele>
        <time>2019-04-08T01:14:42Z</time>
      </trkpt>
      <trkpt lat="42.29454" lon="1.80419">
        <ele>1627.574</ele>
        <time>2019-04-08T01:14:44Z</time>
      </trkpt>
      <trkpt lat="42.29452" lon="1.80426">
        <ele>1627.425</ele>
        <time>2019-04-08T01:14:46Z</time>
      </trkpt>
      <trkpt lat="42.29456" lon="1.80425">
        <ele>1626.775</ele>
        <time>2019-04-08T01:14:48Z</time>
      </trkpt>
      <trkpt lat="42.29452" lon="1.80422">
        <ele>1626.639</ele>
        <time>2019-04-08T01:14:50Z</time>
      </trkpt>
      <trkpt lat="42.29447" lon="1.80424">
        <ele>1625.218</ele>
        <time>2019-04-08T01:14:52Z</time>
      </trkpt>
      <trkpt lat="42.29448" lon="1.8043">
        <ele>1624.49</ele>
        <time>2019-04-08T01:14:54Z</time>
      </trkpt>
      <trkpt lat="42.29449" lon="1.80437">
        <ele>1623.422</ele>
        <time>2019-04-08T01:14:56Z</time>
      </trkpt>
      <trkpt lat="42.29445" lon="1.80441">
        <ele>1621.762</ele>
        <time>2019-04-08T01:14:58Z</time>
      </trkpt>
      <trkpt lat="42.29443" lon="1.80447">
        <ele>1620.408</ele>
        <time>2019-04-08T01:15:00Z</time>
      </trkpt>
      <trkpt lat="42.29442" lon="1.80453">
        <ele>1619.608</ele>
        <time>2019-04-08T01:15:02Z</time>
      </trkpt>
      <trkpt lat="42.29436" lon="1.80459">
        <ele>1619.125</ele>
        <time>2019-04-08T01:15:05Z</time>
      </trkpt>
      <trkpt lat="42.29416" lon="1.80546">
        <ele>1572.547</ele>
        <time>2019-04-08T01:15:32Z</time>
      </trkpt>
      <trkpt lat="42.29416" lon="1.80534">
        <ele>1572.662</ele>
        <time>2019-04-08T01:15:36Z</time>
      </trkpt>
      <trkpt lat="42.29415" lon="1.80525">
        <ele>1572.653</ele>
        <time>2019-04-08T01:15:38Z</time>
      </trkpt>
      <trkpt lat="42.29415" lon="1.80521">
        <ele>1571.653</ele>
        <time>2019-04-08T01:15:40Z</time>
      </trkpt>
      <trkpt lat="42.29411" lon="1.80516">
        <ele>1569.377</ele>
        <time>2019-04-08T01:15:42Z</time>
      </trkpt>
      <trkpt lat="42.29409" lon="1.80509">
        <ele>1567.326</ele>
        <time>2019-04-08T01:15:44Z</time>
      </trkpt>
      <trkpt lat="42.29411" lon="1.80506">
        <ele>1567.838</ele>
        <time>2019-04-08T01:15:45Z</time>
      </trkpt>
      <trkpt lat="42.29414" lon="1.80504">
        <ele>1568.614</ele>
        <time>2019-04-08T01:15:46Z</time>
      </trkpt>
      <trkpt lat="42.29407" lon="1.80501">
        <ele>1565.754</ele>
        <time>2019-04-08T01:15:49Z</time>
      </trkpt>
      <trkpt lat="42.29405" lon="1.80498">
        <ele>1565.709</ele>
        <time>2019-04-08T01:15:50Z</time>
      </trkpt>
      <trkpt lat="42.29406" lon="1.80494">
        <ele>1565.608</ele>
        <time>2019-04-08T01:15:52Z</time>
      </trkpt>
      <trkpt lat="42.29398" lon="1.80484">
        <ele>1564.954</ele>
        <time>2019-04-08T01:15:56Z</time>
      </trkpt>
      <trkpt lat="42.29403" lon="1.805">
        <ele>1565.326</ele>
        <time>2019-04-08T01:16:01Z</time>
      </trkpt>
      <trkpt lat="42.29403" lon="1.80499">
        <ele>1565.411</ele>
        <time>2019-04-08T01:16:01Z</time>
      </trkpt>
      <trkpt lat="42.29399" lon="1.80498">
        <ele>1565.572</ele>
        <time>2019-04-08T01:16:03Z</time>
      </trkpt>
      <trkpt lat="42.29402" lon="1.80496">
        <ele>1565.552</ele>
        <time>2019-04-08T01:16:04Z</time>
      </trkpt>
      <trkpt lat="42.29399" lon="1.80497">
        <ele>1565.486</ele>
        <time>2019-04-08T01:16:05Z</time>
      </trkpt>
      <trkpt lat="42.29399" lon="1.80498">
        <ele>1565.515</ele>
        <time>2019-04-08T01:16:05Z</time>
      </trkpt>
      <trkpt lat="42.29397" lon="1.80499">
        <ele>1565.367</ele>
        <time>2019-04-08T01:16:06Z</time>
      </trkpt>
      <trkpt lat="42.29402" lon="1.805">
        <ele>1565.399</ele>
        <time>2019-04-08T01:16:08Z</time>
      </trkpt>
      <trkpt lat="42.29401" lon="1.80499">
        <ele>1565.507</ele>
        <time>2019-04-08T01:16:08Z</time>
      </trkpt>
      <trkpt lat="42.29401" lon="1.805">
        <ele>1565.427</ele>
        <time>2019-04-08T01:16:08Z</time>
      </trkpt>
      <trkpt lat="42.29401" lon="1.805">
        <ele>1565.408</ele>
        <time>2019-04-08T01:16:09Z</time>
      </trkpt>
      <trkpt lat="42.29403" lon="1.80499">
        <ele>1565.322</ele>
        <time>2019-04-08T01:16:09Z</time>
      </trkpt>
      <trkpt lat="42.29401" lon="1.80498">
        <ele>1565.314</ele>
        <time>2019-04-08T01:16:10Z</time>
      </trkpt>
      <trkpt lat="42.294" lon="1.80497">
        <ele>1565.519</ele>
        <time>2019-04-08T01:16:10Z</time>
      </trkpt>
      <trkpt lat="42.29401" lon="1.805">
        <ele>1565.44</ele>
        <time>2019-04-08T01:16:11Z</time>
      </trkpt>
      <trkpt lat="42.29393" lon="1.80499">
        <ele>1565.46</ele>
        <time>2019-04-08T01:16:14Z</time>
      </trkpt>
      <trkpt lat="42.29394" lon="1.80498">
        <ele>1565.464</ele>
        <time>2019-04-08T01:16:15Z</time>
      </trkpt>
      <trkpt lat="42.29394" lon="1.80498">
        <ele>1565.043</ele>
        <time>2019-04-08T01:16:15Z</time>
      </trkpt>
      <trkpt lat="42.29399" lon="1.80497">
        <ele>1564.865</ele>
        <time>2019-04-08T01:16:17Z</time>
      </trkpt>
      <trkpt lat="42.294" lon="1.80498">
        <ele>1564.832</ele>
        <time>2019-04-08T01:16:17Z</time>
      </trkpt>
      <trkpt lat="42.29402" lon="1.80498">
        <ele>1564.892</ele>
        <time>2019-04-08T01:16:18Z</time>
      </trkpt>
      <trkpt lat="42.29406" lon="1.805">
        <ele>1565.211</ele>
        <time>2019-04-08T01:16:20Z</time>
      </trkpt>
      <trkpt lat="42.29406" lon="1.80499">
        <ele>1566.808</ele>
        <time>2019-04-08T01:16:20Z</time>
      </trkpt>
      <trkpt lat="42.29406" lon="1.80499">
        <ele>1563.836</ele>
        <time>2019-04-08T01:16:20Z</time>
      </trkpt>
      <trkpt lat="42.29404" lon="1.805">
        <ele>1565.378</ele>
        <time>2019-04-08T01:16:20Z</time>
      </trkpt>
      <trkpt lat="42.29404" lon="1.80499">
        <ele>1565.643</ele>
        <time>2019-04-08T01:16:21Z</time>
      </trkpt>
      <trkpt lat="42.29403" lon="1.80498">
        <ele>1565.314</ele>
        <time>2019-04-08T01:16:21Z</time>
      </trkpt>
      <trkpt lat="42.29401" lon="1.80497">
        <ele>1565.574</ele>
        <time>2019-04-08T01:16:22Z</time>
      </trkpt>
      <trkpt lat="42.29402" lon="1.80497">
        <ele>1565.478</ele>
        <time>2019-04-08T01:16:23Z</time>
      </trkpt>
      <trkpt lat="42.29405" lon="1.80499">
        <ele>1564.867</ele>
        <time>2019-04-08T01:16:24Z</time>
      </trkpt>
      <trkpt lat="42.29405" lon="1.80501">
        <ele>1564.839</ele>
        <time>2019-04-08T01:16:25Z</time>
      </trkpt>
      <trkpt lat="42.29397" lon="1.80485">
        <ele>1564.836</ele>
        <time>2019-04-08T01:16:30Z</time>
      </trkpt>
      <trkpt lat="42.29395" lon="1.80484">
        <ele>1564.817</ele>
        <time>2019-04-08T01:16:32Z</time>
      </trkpt>
      <trkpt lat="42.29395" lon="1.80483">
        <ele>1564.918</ele>
        <time>2019-04-08T01:16:32Z</time>
      </trkpt>
      <trkpt lat="42.29397" lon="1.8048">
        <ele>1564.708</ele>
        <time>2019-04-08T01:16:33Z</time>
      </trkpt>
      <trkpt lat="42.29399" lon="1.80481">
        <ele>1563.516</ele>
        <time>2019-04-08T01:16:34Z</time>
      </trkpt>
      <trkpt lat="42.29396" lon="1.80481">
        <ele>1563.518</ele>
        <time>2019-04-08T01:16:35Z</time>
      </trkpt>
      <trkpt lat="42.29398" lon="1.80482">
        <ele>1564.953</ele>
        <time>2019-04-08T01:16:36Z</time>
      </trkpt>
      <trkpt lat="42.29405" lon="1.805">
        <ele>1564.924</ele>
        <time>2019-04-08T01:16:42Z</time>
      </trkpt>
      <trkpt lat="42.29405" lon="1.80501">
        <ele>1565.524</ele>
        <time>2019-04-08T01:16:42Z</time>
      </trkpt>
      <trkpt lat="42.29412" lon="1.80506">
        <ele>1567.438</ele>
        <time>2019-04-08T01:16:46Z</time>
      </trkpt>
      <trkpt lat="42.29415" lon="1.80501">
        <ele>1569.127</ele>
        <time>2019-04-08T01:16:48Z</time>
      </trkpt>
      <trkpt lat="42.29429" lon="1.80502">
        <ele>1569.269</ele>
        <time>2019-04-08T01:16:53Z</time>
      </trkpt>
      <trkpt lat="42.29439" lon="1.80505">
        <ele>1569.267</ele>
        <time>2019-04-08T01:16:57Z</time>
      </trkpt>
      <trkpt lat="42.29424" lon="1.80501">
        <ele>1569.181</ele>
        <time>2019-04-08T01:17:04Z</time>
      </trkpt>
      <trkpt lat="42.29422" lon="1.80499">
        <ele>1569.019</ele>
        <time>2019-04-08T01:17:05Z</time>
      </trkpt>
      <trkpt lat="42.29418" lon="1.80498">
        <ele>1569.108</ele>
        <time>2019-04-08T01:17:06Z</time>
      </trkpt>
      <trkpt lat="42.29416" lon="1.80501">
        <ele>1569.229</ele>
        <time>2019-04-08T01:17:07Z</time>
      </trkpt>
      <trkpt lat="42.29411" lon="1.80504">
        <ele>1567.861</ele>
        <time>2019-04-08T01:17:09Z</time>
      </trkpt>
      <trkpt lat="42.29406" lon="1.80497">
        <ele>1566.216</ele>
        <time>2019-04-08T01:17:12Z</time>
      </trkpt>
      <trkpt lat="42.29406" lon="1.80496">
        <ele>1566.477</ele>
        <time>2019-04-08T01:17:13Z</time>
      </trkpt>
      <trkpt lat="42.29405" lon="1.80497">
        <ele>1566.077</ele>
        <time>2019-04-08T01:17:13Z</time>
      </trkpt>
      <trkpt lat="42.29401" lon="1.80508">
        <ele>1565.041</ele>
        <time>2019-04-08T01:17:17Z</time>
      </trkpt>
      <trkpt lat="42.29396" lon="1.80523">
        <ele>1562.33</ele>
        <time>2019-04-08T01:17:22Z</time>
      </trkpt>
      <trkpt lat="42.29395" lon="1.80531">
        <ele>1561.072</ele>
        <time>2019-04-08T01:17:24Z</time>
      </trkpt>
      <trkpt lat="42.29381" lon="1.80528">
        <ele>1561.082</ele>
        <time>2019-04-08T01:17:30Z</time>
      </trkpt>
      <trkpt lat="42.29379" lon="1.80527">
        <ele>1560.943</ele>
        <time>2019-04-08T01:17:31Z</time>
      </trkpt>
      <trkpt lat="42.29376" lon="1.80527">
        <ele>1561.017</ele>
        <time>2019-04-08T01:17:32Z</time>
      </trkpt>
      <trkpt lat="42.29373" lon="1.80526">
        <ele>1560.608</ele>
        <time>2019-04-08T01:17:33Z</time>
      </trkpt>
      <trkpt lat="42.29368" lon="1.80516">
        <ele>1558.141</ele>
        <time>2019-04-08T01:17:37Z</time>
      </trkpt>
      <trkpt lat="42.29369" lon="1.80501">
        <ele>1555.853</ele>
        <time>2019-04-08T01:17:41Z</time>
      </trkpt>
      <trkpt lat="42.29365" lon="1.8049">
        <ele>1552.418</ele>
        <time>2019-04-08T01:17:45Z</time>
      </trkpt>
      <trkpt lat="42.29364" lon="1.80485">
        <ele>1554.079</ele>
        <time>2019-04-08T01:17:47Z</time>
      </trkpt>
      <trkpt lat="42.29362" lon="1.80481">
        <ele>1553.979</ele>
        <time>2019-04-08T01:17:48Z</time>
      </trkpt>
      <trkpt lat="42.29356" lon="1.80483">
        <ele>1553.433</ele>
        <time>2019-04-08T01:17:51Z</time>
      </trkpt>
      <trkpt lat="42.29321" lon="1.80467">
        <ele>1531.152</ele>
        <time>2019-04-08T01:18:05Z</time>
      </trkpt>
      <trkpt lat="42.29322" lon="1.8047">
        <ele>1531.294</ele>
        <time>2019-04-08T01:18:06Z</time>
      </trkpt>
      <trkpt lat="42.29327" lon="1.80481">
        <ele>1531.284</ele>
        <time>2019-04-08T01:18:10Z</time>
      </trkpt>
      <trkpt lat="42.29327" lon="1.8049">
        <ele>1531.307</ele>
        <time>2019-04-08T01:18:13Z</time>
      </trkpt>
      <trkpt lat="42.29319" lon="1.80498">
        <ele>1530.117</ele>
        <time>2019-04-08T01:18:17Z</time>
      </trkpt>
      <trkpt lat="42.29318" lon="1.80499">
        <ele>1529.108</ele>
        <time>2019-04-08T01:18:18Z</time>
      </trkpt>
      <trkpt lat="42.29317" lon="1.80496">
        <ele>1530.211</ele>
        <time>2019-04-08T01:18:19Z</time>
      </trkpt>
      <trkpt lat="42.29317" lon="1.80493">
        <ele>1532.293</ele>
        <time>2019-04-08T01:18:19Z</time>
      </trkpt>
      <trkpt lat="42.29317" lon="1.8049">
        <ele>1531.278</ele>
        <time>2019-04-08T01:18:20Z</time>
      </trkpt>
      <trkpt lat="42.29316" lon="1.80488">
        <ele>1532.369</ele>
        <time>2019-04-08T01:18:21Z</time>
      </trkpt>
      <trkpt lat="42.29315" lon="1.8049">
        <ele>1531.149</ele>
        <time>2019-04-08T01:18:22Z</time>
      </trkpt>
      <trkpt lat="42.29313" lon="1.80491">
        <ele>1531.293</ele>
        <time>2019-04-08T01:18:23Z</time>
      </trkpt>
      <trkpt lat="42.29311" lon="1.80492">
        <ele>1531.162</ele>
        <time>2019-04-08T01:18:23Z</time>
      </trkpt>
      <trkpt lat="42.29309" lon="1.80493">
        <ele>1531.254</ele>
        <time>2019-04-08T01:18:24Z</time>
      </trkpt>
      <trkpt lat="42.29307" lon="1.80494">
        <ele>1529.193</ele>
        <time>2019-04-08T01:18:25Z</time>
      </trkpt>
      <trkpt lat="42.29304" lon="1.80494">
        <ele>1528.465</ele>
        <time>2019-04-08T01:18:26Z</time>
      </trkpt>
      <trkpt lat="42.29302" lon="1.80496">
        <ele>1528.121</ele>
        <time>2019-04-08T01:18:27Z</time>
      </trkpt>
      <trkpt lat="42.293" lon="1.80498">
        <ele>1528.108</ele>
        <time>2019-04-08T01:18:28Z</time>
      </trkpt>
      <trkpt lat="42.29297" lon="1.80499">
        <ele>1528.152</ele>
        <time>2019-04-08T01:18:29Z</time>
      </trkpt>
      <trkpt lat="42.29295" lon="1.80498">
        <ele>1526.144</ele>
        <time>2019-04-08T01:18:30Z</time>
      </trkpt>
      <trkpt lat="42.29293" lon="1.80498">
        <ele>1525.219</ele>
        <time>2019-04-08T01:18:31Z</time>
      </trkpt>
      <trkpt lat="42.2929" lon="1.805">
        <ele>1525.33</ele>
        <time>2019-04-08T01:18:32Z</time>
      </trkpt>
      <trkpt lat="42.29289" lon="1.80503">
        <ele>1524.21</ele>
        <time>2019-04-08T01:18:33Z</time>
      </trkpt>
      <trkpt lat="42.29288" lon="1.80505">
        <ele>1524.154</ele>
        <time>2019-04-08T01:18:34Z</time>
      </trkpt>
      <trkpt lat="42.29286" lon="1.80505">
        <ele>1523.053</ele>
        <time>2019-04-08T01:18:35Z</time>
      </trkpt>
      <trkpt lat="42.29284" lon="1.80508">
        <ele>1521.125</ele>
        <time>2019-04-08T01:18:36Z</time>
      </trkpt>
      <trkpt lat="42.29282" lon="1.80511">
        <ele>1521.179</ele>
        <time>2019-04-08T01:18:37Z</time>
      </trkpt>
      <trkpt lat="42.2928" lon="1.80513">
        <ele>1521.305</ele>
        <time>2019-04-08T01:18:38Z</time>
      </trkpt>
      <trkpt lat="42.29278" lon="1.80515">
        <ele>1520.125</ele>
        <time>2019-04-08T01:18:39Z</time>
      </trkpt>
      <trkpt lat="42.29276" lon="1.80515">
        <ele>1519.108</ele>
        <time>2019-04-08T01:18:40Z</time>
      </trkpt>
      <trkpt lat="42.29274" lon="1.80516">
        <ele>1517.26</ele>
        <time>2019-04-08T01:18:41Z</time>
      </trkpt>
      <trkpt lat="42.29272" lon="1.80517">
        <ele>1517.212</ele>
        <time>2019-04-08T01:18:42Z</time>
      </trkpt>
      <trkpt lat="42.29269" lon="1.80517">
        <ele>1517.137</ele>
        <time>2019-04-08T01:18:43Z</time>
      </trkpt>
      <trkpt lat="42.29266" lon="1.80518">
        <ele>1515.288</ele>
        <time>2019-04-08T01:18:44Z</time>
      </trkpt>
      <trkpt lat="42.29264" lon="1.80519">
        <ele>1515.248</ele>
        <time>2019-04-08T01:18:45Z</time>
      </trkpt>
      <trkpt lat="42.29256" lon="1.80528">
        <ele>1511.152</ele>
        <time>2019-04-08T01:18:49Z</time>
      </trkpt>
      <trkpt lat="42.29248" lon="1.80536">
        <ele>1505.171</ele>
        <time>2019-04-08T01:18:53Z</time>
      </trkpt>
      <trkpt lat="42.29239" lon="1.80547">
        <ele>1499.293</ele>
        <time>2019-04-08T01:18:58Z</time>
      </trkpt>
      <trkpt lat="42.29232" lon="1.80554">
        <ele>1496.344</ele>
        <time>2019-04-08T01:19:01Z</time>
      </trkpt>
      <trkpt lat="42.29224" lon="1.80562">
        <ele>1492.105</ele>
        <time>2019-04-08T01:19:05Z</time>
      </trkpt>
      <trkpt lat="42.29215" lon="1.80567">
        <ele>1491.115</ele>
        <time>2019-04-08T01:19:09Z</time>
      </trkpt>
      <trkpt lat="42.29205" lon="1.80569">
        <ele>1487.108</ele>
        <time>2019-04-08T01:19:13Z</time>
      </trkpt>
      <trkpt lat="42.29196" lon="1.80572">
        <ele>1484.027</ele>
        <time>2019-04-08T01:19:17Z</time>
      </trkpt>
      <trkpt lat="42.29187" lon="1.8058">
        <ele>1480.159</ele>
        <time>2019-04-08T01:19:21Z</time>
      </trkpt>
      <trkpt lat="42.29178" lon="1.80588">
        <ele>1478.254</ele>
        <time>2019-04-08T01:19:26Z</time>
      </trkpt>
      <trkpt lat="42.29169" lon="1.80594">
        <ele>1477.345</ele>
        <time>2019-04-08T01:19:30Z</time>
      </trkpt>
      <trkpt lat="42.2916" lon="1.80596">
        <ele>1477.365</ele>
        <time>2019-04-08T01:19:33Z</time>
      </trkpt>
      <trkpt lat="42.29152" lon="1.80604">
        <ele>1474.339</ele>
        <time>2019-04-08T01:19:37Z</time>
      </trkpt>
      <trkpt lat="42.29143" lon="1.80606">
        <ele>1472.288</ele>
        <time>2019-04-08T01:19:41Z</time>
      </trkpt>
      <trkpt lat="42.29133" lon="1.80611">
        <ele>1471.18</ele>
        <time>2019-04-08T01:19:45Z</time>
      </trkpt>
      <trkpt lat="42.29124" lon="1.80616">
        <ele>1470.264</ele>
        <time>2019-04-08T01:19:49Z</time>
      </trkpt>
      <trkpt lat="42.29116" lon="1.80622">
        <ele>1466.206</ele>
        <time>2019-04-08T01:19:53Z</time>
      </trkpt>
      <trkpt lat="42.29106" lon="1.80628">
        <ele>1463.116</ele>
        <time>2019-04-08T01:19:57Z</time>
      </trkpt>
      <trkpt lat="42.291" lon="1.80637">
        <ele>1456.108</ele>
        <time>2019-04-08T01:20:01Z</time>
      </trkpt>
      <trkpt lat="42.29092" lon="1.80643">
        <ele>1452.129</ele>
        <time>2019-04-08T01:20:04Z</time>
      </trkpt>
      <trkpt lat="42.29086" lon="1.80652">
        <ele>1449.221</ele>
        <time>2019-04-08T01:20:08Z</time>
      </trkpt>
      <trkpt lat="42.29079" lon="1.80661">
        <ele>1447.156</ele>
        <time>2019-04-08T01:20:12Z</time>
      </trkpt>
      <trkpt lat="42.29074" lon="1.80673">
        <ele>1444.227</ele>
        <time>2019-04-08T01:20:16Z</time>
      </trkpt>
      <trkpt lat="42.2907" lon="1.80685">
        <ele>1443.467</ele>
        <time>2019-04-08T01:20:20Z</time>
      </trkpt>
      <trkpt lat="42.29062" lon="1.80693">
        <ele>1443.261</ele>
        <time>2019-04-08T01:20:24Z</time>
      </trkpt>
      <trkpt lat="42.29055" lon="1.80701">
        <ele>1441.22</ele>
        <time>2019-04-08T01:20:27Z</time>
      </trkpt>
      <trkpt lat="42.29049" lon="1.80711">
        <ele>1436.262</ele>
        <time>2019-04-08T01:20:31Z</time>
      </trkpt>
      <trkpt lat="42.29045" lon="1.80722">
        <ele>1433.162</ele>
        <time>2019-04-08T01:20:35Z</time>
      </trkpt>
      <trkpt lat="42.29041" lon="1.80735">
        <ele>1432.383</ele>
        <time>2019-04-08T01:20:39Z</time>
      </trkpt>
      <trkpt lat="42.29035" lon="1.80745">
        <ele>1426.111</ele>
        <time>2019-04-08T01:20:43Z</time>
      </trkpt>
      <trkpt lat="42.29028" lon="1.80754">
        <ele>1422.208</ele>
        <time>2019-04-08T01:20:47Z</time>
      </trkpt>
      <trkpt lat="42.2902" lon="1.8076">
        <ele>1420.249</ele>
        <time>2019-04-08T01:20:50Z</time>
      </trkpt>
      <trkpt lat="42.29013" lon="1.8077">
        <ele>1417.291</ele>
        <time>2019-04-08T01:20:54Z</time>
      </trkpt>
      <trkpt lat="42.29007" lon="1.80781">
        <ele>1414.226</ele>
        <time>2019-04-08T01:20:58Z</time>
      </trkpt>
      <trkpt lat="42.28999" lon="1.80788">
        <ele>1413.527</ele>
        <time>2019-04-08T01:21:02Z</time>
      </trkpt>
      <trkpt lat="42.28995" lon="1.808">
        <ele>1406.157</ele>
        <time>2019-04-08T01:21:06Z</time>
      </trkpt>
      <trkpt lat="42.28994" lon="1.80813">
        <ele>1405.021</ele>
        <time>2019-04-08T01:21:10Z</time>
      </trkpt>
      <trkpt lat="42.2899" lon="1.80825">
        <ele>1402.47</ele>
        <time>2019-04-08T01:21:14Z</time>
      </trkpt>
      <trkpt lat="42.28986" lon="1.80837">
        <ele>1401.222</ele>
        <time>2019-04-08T01:21:18Z</time>
      </trkpt>
      <trkpt lat="42.28982" lon="1.80849">
        <ele>1399.148</ele>
        <time>2019-04-08T01:21:22Z</time>
      </trkpt>
      <trkpt lat="42.28978" lon="1.80861">
        <ele>1396.161</ele>
        <time>2019-04-08T01:21:25Z</time>
      </trkpt>
      <trkpt lat="42.2897" lon="1.80865">
        <ele>1394.217</ele>
        <time>2019-04-08T01:21:29Z</time>
      </trkpt>
      <trkpt lat="42.28966" lon="1.80878">
        <ele>1390.108</ele>
        <time>2019-04-08T01:21:33Z</time>
      </trkpt>
      <trkpt lat="42.28962" lon="1.80892">
        <ele>1387.187</ele>
        <time>2019-04-08T01:21:38Z</time>
      </trkpt>
      <trkpt lat="42.28956" lon="1.80903">
        <ele>1384.299</ele>
        <time>2019-04-08T01:21:42Z</time>
      </trkpt>
      <trkpt lat="42.28954" lon="1.80915">
        <ele>1381.264</ele>
        <time>2019-04-08T01:21:45Z</time>
      </trkpt>
      <trkpt lat="42.28951" lon="1.80927">
        <ele>1378.115</ele>
        <time>2019-04-08T01:21:49Z</time>
      </trkpt>
      <trkpt lat="42.28945" lon="1.80939">
        <ele>1375.285</ele>
        <time>2019-04-08T01:21:53Z</time>
      </trkpt>
      <trkpt lat="42.28939" lon="1.8095">
        <ele>1372.269</ele>
        <time>2019-04-08T01:21:57Z</time>
      </trkpt>
      <trkpt lat="42.28935" lon="1.80962">
        <ele>1368.298</ele>
        <time>2019-04-08T01:22:01Z</time>
      </trkpt>
      <trkpt lat="42.28927" lon="1.80967">
        <ele>1366.29</ele>
        <time>2019-04-08T01:22:05Z</time>
      </trkpt>
      <trkpt lat="42.28917" lon="1.80966">
        <ele>1363.329</ele>
        <time>2019-04-08T01:22:09Z</time>
      </trkpt>
      <trkpt lat="42.28908" lon="1.8097">
        <ele>1358.1</ele>
        <time>2019-04-08T01:22:13Z</time>
      </trkpt>
      <trkpt lat="42.28899" lon="1.80976">
        <ele>1354.92</ele>
        <time>2019-04-08T01:22:17Z</time>
      </trkpt>
      <trkpt lat="42.28894" lon="1.80987">
        <ele>1352.008</ele>
        <time>2019-04-08T01:22:21Z</time>
      </trkpt>
      <trkpt lat="42.28888" lon="1.80996">
        <ele>1346.025</ele>
        <time>2019-04-08T01:22:24Z</time>
      </trkpt>
      <trkpt lat="42.28889" lon="1.8101">
        <ele>1342.137</ele>
        <time>2019-04-08T01:22:28Z</time>
      </trkpt>
      <trkpt lat="42.2888" lon="1.81013">
        <ele>1340.362</ele>
        <time>2019-04-08T01:22:32Z</time>
      </trkpt>
      <trkpt lat="42.28874" lon="1.81022">
        <ele>1337.253</ele>
        <time>2019-04-08T01:22:36Z</time>
      </trkpt>
      <trkpt lat="42.2887" lon="1.81034">
        <ele>1334.123</ele>
        <time>2019-04-08T01:22:40Z</time>
      </trkpt>
      <trkpt lat="42.28863" lon="1.81044">
        <ele>1332.347</ele>
        <time>2019-04-08T01:22:43Z</time>
      </trkpt>
      <trkpt lat="42.28869" lon="1.81055">
        <ele>1329.186</ele>
        <time>2019-04-08T01:22:48Z</time>
      </trkpt>
      <trkpt lat="42.28864" lon="1.81066">
        <ele>1327.168</ele>
        <time>2019-04-08T01:22:51Z</time>
      </trkpt>
      <trkpt lat="42.28855" lon="1.81069">
        <ele>1323.957</ele>
        <time>2019-04-08T01:22:55Z</time>
      </trkpt>
      <trkpt lat="42.28847" lon="1.81076">
        <ele>1322.3</ele>
        <time>2019-04-08T01:22:59Z</time>
      </trkpt>
      <trkpt lat="42.28846" lon="1.81089">
        <ele>1320.12</ele>
        <time>2019-04-08T01:23:02Z</time>
      </trkpt>
      <trkpt lat="42.28844" lon="1.81101">
        <ele>1318.108</ele>
        <time>2019-04-08T01:23:06Z</time>
      </trkpt>
      <trkpt lat="42.28837" lon="1.81109">
        <ele>1317.078</ele>
        <time>2019-04-08T01:23:10Z</time>
      </trkpt>
      <trkpt lat="42.28835" lon="1.81122">
        <ele>1314.08</ele>
        <time>2019-04-08T01:23:14Z</time>
      </trkpt>
      <trkpt lat="42.2884" lon="1.81132">
        <ele>1304.115</ele>
        <time>2019-04-08T01:23:17Z</time>
      </trkpt>
      <trkpt lat="42.28849" lon="1.81131">
        <ele>1302.156</ele>
        <time>2019-04-08T01:23:21Z</time>
      </trkpt>
      <trkpt lat="42.28859" lon="1.81131">
        <ele>1300.136</ele>
        <time>2019-04-08T01:23:25Z</time>
      </trkpt>
      <trkpt lat="42.28861" lon="1.81144">
        <ele>1292.28</ele>
        <time>2019-04-08T01:23:29Z</time>
      </trkpt>
      <trkpt lat="42.2886" lon="1.81157">
        <ele>1289.319</ele>
        <time>2019-04-08T01:23:33Z</time>
      </trkpt>
      <trkpt lat="42.28853" lon="1.81166">
        <ele>1288.241</ele>
        <time>2019-04-08T01:23:36Z</time>
      </trkpt>
      <trkpt lat="42.28848" lon="1.81176">
        <ele>1284.369</ele>
        <time>2019-04-08T01:23:40Z</time>
      </trkpt>
      <trkpt lat="42.28843" lon="1.81185">
        <ele>1281.204</ele>
        <time>2019-04-08T01:23:44Z</time>
      </trkpt>
      <trkpt lat="42.28837" lon="1.81196">
        <ele>1280.224</ele>
        <time>2019-04-08T01:23:47Z</time>
      </trkpt>
      <trkpt lat="42.28841" lon="1.81208">
        <ele>1279.008</ele>
        <time>2019-04-08T01:23:51Z</time>
      </trkpt>
      <trkpt lat="42.28831" lon="1.81204">
        <ele>1277.139</ele>
        <time>2019-04-08T01:23:55Z</time>
      </trkpt>
      <trkpt lat="42.28822" lon="1.81212">
        <ele>1277.121</ele>
        <time>2019-04-08T01:24:00Z</time>
      </trkpt>
      <trkpt lat="42.28824" lon="1.81229">
        <ele>1277.426</ele>
        <time>2019-04-08T01:24:05Z</time>
      </trkpt>
      <trkpt lat="42.28825" lon="1.81245">
        <ele>1274.257</ele>
        <time>2019-04-08T01:24:10Z</time>
      </trkpt>
      <trkpt lat="42.28819" lon="1.81254">
        <ele>1272.027</ele>
        <time>2019-04-08T01:24:13Z</time>
      </trkpt>
      <trkpt lat="42.28815" lon="1.81267">
        <ele>1271.361</ele>
        <time>2019-04-08T01:24:18Z</time>
      </trkpt>
      <trkpt lat="42.28809" lon="1.81279">
        <ele>1269.26</ele>
        <time>2019-04-08T01:24:22Z</time>
      </trkpt>
      <trkpt lat="42.28801" lon="1.81285">
        <ele>1268.162</ele>
        <time>2019-04-08T01:24:26Z</time>
      </trkpt>
      <trkpt lat="42.28791" lon="1.81288">
        <ele>1268.023</ele>
        <time>2019-04-08T01:24:30Z</time>
      </trkpt>
      <trkpt lat="42.28783" lon="1.81297">
        <ele>1265.483</ele>
        <time>2019-04-08T01:24:34Z</time>
      </trkpt>
      <trkpt lat="42.28776" lon="1.81305">
        <ele>1264.211</ele>
        <time>2019-04-08T01:24:37Z</time>
      </trkpt>
      <trkpt lat="42.28769" lon="1.81313">
        <ele>1264.108</ele>
        <time>2019-04-08T01:24:41Z</time>
      </trkpt>
      <trkpt lat="42.28763" lon="1.81325">
        <ele>1261.075</ele>
        <time>2019-04-08T01:24:45Z</time>
      </trkpt>
      <trkpt lat="42.28755" lon="1.81334">
        <ele>1258.227</ele>
        <time>2019-04-08T01:24:50Z</time>
      </trkpt>
      <trkpt lat="42.28746" lon="1.81345">
        <ele>1256.232</ele>
        <time>2019-04-08T01:24:54Z</time>
      </trkpt>
      <trkpt lat="42.28745" lon="1.81358">
        <ele>1255.053</ele>
        <time>2019-04-08T01:24:58Z</time>
      </trkpt>
      <trkpt lat="42.28737" lon="1.81366">
        <ele>1253.263</ele>
        <time>2019-04-08T01:25:02Z</time>
      </trkpt>
      <trkpt lat="42.28732" lon="1.81378">
        <ele>1251.227</ele>
        <time>2019-04-08T01:25:06Z</time>
      </trkpt>
      <trkpt lat="42.28732" lon="1.81391">
        <ele>1250.346</ele>
        <time>2019-04-08T01:25:10Z</time>
      </trkpt>
      <trkpt lat="42.28728" lon="1.81404">
        <ele>1247.168</ele>
        <time>2019-04-08T01:25:14Z</time>
      </trkpt>
      <trkpt lat="42.2872" lon="1.81411">
        <ele>1246.185</ele>
        <time>2019-04-08T01:25:18Z</time>
      </trkpt>
      <trkpt lat="42.28711" lon="1.81414">
        <ele>1241.289</ele>
        <time>2019-04-08T01:25:22Z</time>
      </trkpt>
      <trkpt lat="42.28702" lon="1.81419">
        <ele>1239.117</ele>
        <time>2019-04-08T01:25:26Z</time>
      </trkpt>
      <trkpt lat="42.28694" lon="1.81428">
        <ele>1237.208</ele>
        <time>2019-04-08T01:25:30Z</time>
      </trkpt>
      <trkpt lat="42.28689" lon="1.81438">
        <ele>1236.261</ele>
        <time>2019-04-08T01:25:34Z</time>
      </trkpt>
      <trkpt lat="42.28682" lon="1.81446">
        <ele>1236.193</ele>
        <time>2019-04-08T01:25:37Z</time>
      </trkpt>
      <trkpt lat="42.28673" lon="1.81448">
        <ele>1237.288</ele>
        <time>2019-04-08T01:25:41Z</time>
      </trkpt>
      <trkpt lat="42.28663" lon="1.81451">
        <ele>1239.339</ele>
        <time>2019-04-08T01:25:45Z</time>
      </trkpt>
      <trkpt lat="42.28654" lon="1.81457">
        <ele>1239.389</ele>
        <time>2019-04-08T01:25:49Z</time>
      </trkpt>
      <trkpt lat="42.28644" lon="1.81457">
        <ele>1239.283</ele>
        <time>2019-04-08T01:25:53Z</time>
      </trkpt>
      <trkpt lat="42.28634" lon="1.81461">
        <ele>1239.262</ele>
        <time>2019-04-08T01:25:57Z</time>
      </trkpt>
      <trkpt lat="42.28625" lon="1.81466">
        <ele>1239.194</ele>
        <time>2019-04-08T01:26:01Z</time>
      </trkpt>
      <trkpt lat="42.28626" lon="1.8148">
        <ele>1239.214</ele>
        <time>2019-04-08T01:26:05Z</time>
      </trkpt>
      <trkpt lat="42.28623" lon="1.81491">
        <ele>1236.254</ele>
        <time>2019-04-08T01:26:08Z</time>
      </trkpt>
      <trkpt lat="42.28619" lon="1.81503">
        <ele>1232.009</ele>
        <time>2019-04-08T01:26:12Z</time>
      </trkpt>
      <trkpt lat="42.28615" lon="1.81516">
        <ele>1230.008</ele>
        <time>2019-04-08T01:26:17Z</time>
      </trkpt>
      <trkpt lat="42.28611" lon="1.81528">
        <ele>1229.124</ele>
        <time>2019-04-08T01:26:20Z</time>
      </trkpt>
      <trkpt lat="42.28605" lon="1.81537">
        <ele>1228.126</ele>
        <time>2019-04-08T01:26:24Z</time>
      </trkpt>
      <trkpt lat="42.28597" lon="1.81545">
        <ele>1226.131</ele>
        <time>2019-04-08T01:26:28Z</time>
      </trkpt>
      <trkpt lat="42.28588" lon="1.81551">
        <ele>1225.082</ele>
        <time>2019-04-08T01:26:32Z</time>
      </trkpt>
      <trkpt lat="42.2858" lon="1.81558">
        <ele>1224.262</ele>
        <time>2019-04-08T01:26:36Z</time>
      </trkpt>
      <trkpt lat="42.28573" lon="1.81566">
        <ele>1224.216</ele>
        <time>2019-04-08T01:26:40Z</time>
      </trkpt>
      <trkpt lat="42.28564" lon="1.8157">
        <ele>1224.435</ele>
        <time>2019-04-08T01:26:43Z</time>
      </trkpt>
      <trkpt lat="42.28554" lon="1.81576">
        <ele>1224.117</ele>
        <time>2019-04-08T01:26:48Z</time>
      </trkpt>
      <trkpt lat="42.28545" lon="1.81582">
        <ele>1222.168</ele>
        <time>2019-04-08T01:26:52Z</time>
      </trkpt>
      <trkpt lat="42.28538" lon="1.8159">
        <ele>1221.342</ele>
        <time>2019-04-08T01:26:56Z</time>
      </trkpt>
      <trkpt lat="42.28529" lon="1.81597">
        <ele>1220.026</ele>
        <time>2019-04-08T01:27:00Z</time>
      </trkpt>
      <trkpt lat="42.28521" lon="1.81604">
        <ele>1217.108</ele>
        <time>2019-04-08T01:27:03Z</time>
      </trkpt>
      <trkpt lat="42.28513" lon="1.81611">
        <ele>1215.129</ele>
        <time>2019-04-08T01:27:07Z</time>
      </trkpt>
      <trkpt lat="42.28504" lon="1.81618">
        <ele>1213.211</ele>
        <time>2019-04-08T01:27:11Z</time>
      </trkpt>
      <trkpt lat="42.28495" lon="1.81626">
        <ele>1212.426</ele>
        <time>2019-04-08T01:27:16Z</time>
      </trkpt>
      <trkpt lat="42.28485" lon="1.81631">
        <ele>1211.317</ele>
        <time>2019-04-08T01:27:20Z</time>
      </trkpt>
      <trkpt lat="42.28476" lon="1.81638">
        <ele>1211.377</ele>
        <time>2019-04-08T01:27:24Z</time>
      </trkpt>
      <trkpt lat="42.28467" lon="1.81641">
        <ele>1208.271</ele>
        <time>2019-04-08T01:27:28Z</time>
      </trkpt>
      <trkpt lat="42.28458" lon="1.81646">
        <ele>1206.12</ele>
        <time>2019-04-08T01:27:32Z</time>
      </trkpt>
      <trkpt lat="42.2845" lon="1.8165">
        <ele>1204.272</ele>
        <time>2019-04-08T01:27:35Z</time>
      </trkpt>
      <trkpt lat="42.28439" lon="1.81652">
        <ele>1203.129</ele>
        <time>2019-04-08T01:27:40Z</time>
      </trkpt>
      <trkpt lat="42.28428" lon="1.81657">
        <ele>1200.1</ele>
        <time>2019-04-08T01:27:44Z</time>
      </trkpt>
      <trkpt lat="42.28418" lon="1.81656">
        <ele>1199.02</ele>
        <time>2019-04-08T01:27:48Z</time>
      </trkpt>
      <trkpt lat="42.28409" lon="1.81652">
        <ele>1198.008</ele>
        <time>2019-04-08T01:27:52Z</time>
      </trkpt>
      <trkpt lat="42.28399" lon="1.81652">
        <ele>1197.035</ele>
        <time>2019-04-08T01:27:56Z</time>
      </trkpt>
      <trkpt lat="42.2839" lon="1.81647">
        <ele>1194.027</ele>
        <time>2019-04-08T01:28:00Z</time>
      </trkpt>
      <trkpt lat="42.28381" lon="1.81648">
        <ele>1193.232</ele>
        <time>2019-04-08T01:28:04Z</time>
      </trkpt>
      <trkpt lat="42.28378" lon="1.81646">
        <ele>1193.293</ele>
        <time>2019-04-08T01:28:05Z</time>
      </trkpt>
      <trkpt lat="42.28377" lon="1.81644">
        <ele>1193.163</ele>
        <time>2019-04-08T01:28:06Z</time>
      </trkpt>
      <trkpt lat="42.28374" lon="1.81642">
        <ele>1192.247</ele>
        <time>2019-04-08T01:28:07Z</time>
      </trkpt>
      <trkpt lat="42.28371" lon="1.81641">
        <ele>1192.176</ele>
        <time>2019-04-08T01:28:08Z</time>
      </trkpt>
      <trkpt lat="42.28368" lon="1.81639">
        <ele>1192.288</ele>
        <time>2019-04-08T01:28:09Z</time>
      </trkpt>
      <trkpt lat="42.28366" lon="1.81638">
        <ele>1192.018</ele>
        <time>2019-04-08T01:28:10Z</time>
      </trkpt>
      <trkpt lat="42.28364" lon="1.81639">
        <ele>1190.098</ele>
        <time>2019-04-08T01:28:11Z</time>
      </trkpt>
      <trkpt lat="42.28362" lon="1.81639">
        <ele>1189.317</ele>
        <time>2019-04-08T01:28:12Z</time>
      </trkpt>
      <trkpt lat="42.28352" lon="1.81639">
        <ele>1186.308</ele>
        <time>2019-04-08T01:28:16Z</time>
      </trkpt>
      <trkpt lat="42.28348" lon="1.81653">
        <ele>1174.094</ele>
        <time>2019-04-08T01:28:20Z</time>
      </trkpt>
      <trkpt lat="42.2834" lon="1.81662">
        <ele>1172.176</ele>
        <time>2019-04-08T01:28:24Z</time>
      </trkpt>
      <trkpt lat="42.28332" lon="1.81664">
        <ele>1169.291</ele>
        <time>2019-04-08T01:28:28Z</time>
      </trkpt>
      <trkpt lat="42.28324" lon="1.81674">
        <ele>1164.262</ele>
        <time>2019-04-08T01:28:32Z</time>
      </trkpt>
      <trkpt lat="42.28316" lon="1.8168">
        <ele>1163.022</ele>
        <time>2019-04-08T01:28:36Z</time>
      </trkpt>
      <trkpt lat="42.28312" lon="1.81691">
        <ele>1158.236</ele>
        <time>2019-04-08T01:28:39Z</time>
      </trkpt>
      <trkpt lat="42.28304" lon="1.81698">
        <ele>1158.215</ele>
        <time>2019-04-08T01:28:43Z</time>
      </trkpt>
      <trkpt lat="42.28294" lon="1.81703">
        <ele>1156.157</ele>
        <time>2019-04-08T01:28:47Z</time>
      </trkpt>
      <trkpt lat="42.28284" lon="1.81703">
        <ele>1152.177</ele>
        <time>2019-04-08T01:28:51Z</time>
      </trkpt>
      <trkpt lat="42.28274" lon="1.81699">
        <ele>1151.161</ele>
        <time>2019-04-08T01:28:55Z</time>
      </trkpt>
      <trkpt lat="42.28265" lon="1.817">
        <ele>1149.227</ele>
        <time>2019-04-08T01:28:59Z</time>
      </trkpt>
      <trkpt lat="42.28256" lon="1.81695">
        <ele>1146.108</ele>
        <time>2019-04-08T01:29:03Z</time>
      </trkpt>
      <trkpt lat="42.28247" lon="1.81689">
        <ele>1144.06</ele>
        <time>2019-04-08T01:29:07Z</time>
      </trkpt>
      <trkpt lat="42.28239" lon="1.81695">
        <ele>1141.272</ele>
        <time>2019-04-08T01:29:11Z</time>
      </trkpt>
      <trkpt lat="42.28229" lon="1.817">
        <ele>1140.147</ele>
        <time>2019-04-08T01:29:15Z</time>
      </trkpt>
      <trkpt lat="42.2822" lon="1.81698">
        <ele>1139.368</ele>
        <time>2019-04-08T01:29:18Z</time>
      </trkpt>
      <trkpt lat="42.2821" lon="1.81693">
        <ele>1137.948</ele>
        <time>2019-04-08T01:29:23Z</time>
      </trkpt>
      <trkpt lat="42.28199" lon="1.81689">
        <ele>1138.212</ele>
        <time>2019-04-08T01:29:27Z</time>
      </trkpt>
      <trkpt lat="42.282" lon="1.81701">
        <ele>1139.171</ele>
        <time>2019-04-08T01:29:31Z</time>
      </trkpt>
      <trkpt lat="42.282" lon="1.81686">
        <ele>1140.243</ele>
        <time>2019-04-08T01:29:35Z</time>
      </trkpt>
      <trkpt lat="42.28192" lon="1.81676">
        <ele>1140.218</ele>
        <time>2019-04-08T01:29:39Z</time>
      </trkpt>
      <trkpt lat="42.28186" lon="1.81667">
        <ele>1137.298</ele>
        <time>2019-04-08T01:29:43Z</time>
      </trkpt>
      <trkpt lat="42.28178" lon="1.8167">
        <ele>1135.117</ele>
        <time>2019-04-08T01:29:46Z</time>
      </trkpt>
      <trkpt lat="42.28169" lon="1.81673">
        <ele>1134.108</ele>
        <time>2019-04-08T01:29:50Z</time>
      </trkpt>
      <trkpt lat="42.2816" lon="1.81679">
        <ele>1129.274</ele>
        <time>2019-04-08T01:29:54Z</time>
      </trkpt>
      <trkpt lat="42.28152" lon="1.81688">
        <ele>1126.036</ele>
        <time>2019-04-08T01:29:58Z</time>
      </trkpt>
      <trkpt lat="42.28152" lon="1.81701">
        <ele>1124.081</ele>
        <time>2019-04-08T01:30:02Z</time>
      </trkpt>
      <trkpt lat="42.28147" lon="1.81711">
        <ele>1120.282</ele>
        <time>2019-04-08T01:30:06Z</time>
      </trkpt>
      <trkpt lat="42.28142" lon="1.81723">
        <ele>1118.142</ele>
        <time>2019-04-08T01:30:10Z</time>
      </trkpt>
      <trkpt lat="42.28136" lon="1.81732">
        <ele>1117.246</ele>
        <time>2019-04-08T01:30:14Z</time>
      </trkpt>
      <trkpt lat="42.28134" lon="1.81745">
        <ele>1117.215</ele>
        <time>2019-04-08T01:30:18Z</time>
      </trkpt>
      <trkpt lat="42.28134" lon="1.81759">
        <ele>1115.127</ele>
        <time>2019-04-08T01:30:22Z</time>
      </trkpt>
      <trkpt lat="42.28132" lon="1.81773">
        <ele>1112.282</ele>
        <time>2019-04-08T01:30:26Z</time>
      </trkpt>
      <trkpt lat="42.28129" lon="1.81784">
        <ele>1112.243</ele>
        <time>2019-04-08T01:30:29Z</time>
      </trkpt>
      <trkpt lat="42.28127" lon="1.81797">
        <ele>1111.117</ele>
        <time>2019-04-08T01:30:33Z</time>
      </trkpt>
      <trkpt lat="42.28123" lon="1.81809">
        <ele>1111.008</ele>
        <time>2019-04-08T01:30:37Z</time>
      </trkpt>
      <trkpt lat="42.28118" lon="1.81821">
        <ele>1110.111</ele>
        <time>2019-04-08T01:30:41Z</time>
      </trkpt>
      <trkpt lat="42.28115" lon="1.81835">
        <ele>1110.223</ele>
        <time>2019-04-08T01:30:46Z</time>
      </trkpt>
      <trkpt lat="42.28111" lon="1.81846">
        <ele>1109.368</ele>
        <time>2019-04-08T01:30:49Z</time>
      </trkpt>
      <trkpt lat="42.28104" lon="1.81855">
        <ele>1107.139</ele>
        <time>2019-04-08T01:30:53Z</time>
      </trkpt>
      <trkpt lat="42.28099" lon="1.81866">
        <ele>1107.369</ele>
        <time>2019-04-08T01:30:57Z</time>
      </trkpt>
      <trkpt lat="42.28097" lon="1.81878">
        <ele>1107.243</ele>
        <time>2019-04-08T01:31:01Z</time>
      </trkpt>
      <trkpt lat="42.2809" lon="1.81891">
        <ele>1106.282</ele>
        <time>2019-04-08T01:31:05Z</time>
      </trkpt>
      <trkpt lat="42.28084" lon="1.81904">
        <ele>1105.394</ele>
        <time>2019-04-08T01:31:10Z</time>
      </trkpt>
      <trkpt lat="42.28073" lon="1.81912">
        <ele>1105.261</ele>
        <time>2019-04-08T01:31:15Z</time>
      </trkpt>
      <trkpt lat="42.28067" lon="1.81924">
        <ele>1104.021</ele>
        <time>2019-04-08T01:31:19Z</time>
      </trkpt>
      <trkpt lat="42.28064" lon="1.81936">
        <ele>1103.213</ele>
        <time>2019-04-08T01:31:23Z</time>
      </trkpt>
      <trkpt lat="42.2806" lon="1.81948">
        <ele>1099.008</ele>
        <time>2019-04-08T01:31:27Z</time>
      </trkpt>
      <trkpt lat="42.28051" lon="1.81949">
        <ele>1096.239</ele>
        <time>2019-04-08T01:31:30Z</time>
      </trkpt>
      <trkpt lat="42.28042" lon="1.81948">
        <ele>1095.131</ele>
        <time>2019-04-08T01:31:34Z</time>
      </trkpt>
      <trkpt lat="42.2803" lon="1.81944">
        <ele>1095.266</ele>
        <time>2019-04-08T01:31:39Z</time>
      </trkpt>
      <trkpt lat="42.28022" lon="1.81939">
        <ele>1094.137</ele>
        <time>2019-04-08T01:31:43Z</time>
      </trkpt>
      <trkpt lat="42.28009" lon="1.81934">
        <ele>1094.347</ele>
        <time>2019-04-08T01:31:48Z</time>
      </trkpt>
      <trkpt lat="42.28" lon="1.81935">
        <ele>1093.111</ele>
        <time>2019-04-08T01:31:52Z</time>
      </trkpt>
      <trkpt lat="42.27991" lon="1.81937">
        <ele>1093.12</ele>
        <time>2019-04-08T01:31:55Z</time>
      </trkpt>
      <trkpt lat="42.27989" lon="1.81949">
        <ele>1094.132</ele>
        <time>2019-04-08T01:31:59Z</time>
      </trkpt>
      <trkpt lat="42.2798" lon="1.81948">
        <ele>1093.236</ele>
        <time>2019-04-08T01:32:03Z</time>
      </trkpt>
      <trkpt lat="42.27971" lon="1.81955">
        <ele>1093.317</ele>
        <time>2019-04-08T01:32:07Z</time>
      </trkpt>
      <trkpt lat="42.27961" lon="1.81959">
        <ele>1092.118</ele>
        <time>2019-04-08T01:32:11Z</time>
      </trkpt>
      <trkpt lat="42.27956" lon="1.8197">
        <ele>1091.208</ele>
        <time>2019-04-08T01:32:15Z</time>
      </trkpt>
      <trkpt lat="42.27949" lon="1.81976">
        <ele>1089.196</ele>
        <time>2019-04-08T01:32:18Z</time>
      </trkpt>
      <trkpt lat="42.27938" lon="1.81976">
        <ele>1088.288</ele>
        <time>2019-04-08T01:32:23Z</time>
      </trkpt>
      <trkpt lat="42.27927" lon="1.81973">
        <ele>1087.313</ele>
        <time>2019-04-08T01:32:27Z</time>
      </trkpt>
      <trkpt lat="42.27917" lon="1.81973">
        <ele>1084.424</ele>
        <time>2019-04-08T01:32:31Z</time>
      </trkpt>
      <trkpt lat="42.27906" lon="1.81972">
        <ele>1083.244</ele>
        <time>2019-04-08T01:32:35Z</time>
      </trkpt>
      <trkpt lat="42.27897" lon="1.81968">
        <ele>1081.268</ele>
        <time>2019-04-08T01:32:39Z</time>
      </trkpt>
      <trkpt lat="42.27889" lon="1.81961">
        <ele>1080.357</ele>
        <time>2019-04-08T01:32:43Z</time>
      </trkpt>
      <trkpt lat="42.27879" lon="1.81961">
        <ele>1079.339</ele>
        <time>2019-04-08T01:32:47Z</time>
      </trkpt>
      <trkpt lat="42.2787" lon="1.81965">
        <ele>1076.257</ele>
        <time>2019-04-08T01:32:51Z</time>
      </trkpt>
      <trkpt lat="42.2786" lon="1.81961">
        <ele>1075.3</ele>
        <time>2019-04-08T01:32:55Z</time>
      </trkpt>
      <trkpt lat="42.27852" lon="1.81951">
        <ele>1073.12</ele>
        <time>2019-04-08T01:32:59Z</time>
      </trkpt>
      <trkpt lat="42.27845" lon="1.81943">
        <ele>1072.208</ele>
        <time>2019-04-08T01:33:03Z</time>
      </trkpt>
      <trkpt lat="42.27839" lon="1.81933">
        <ele>1062.058</ele>
        <time>2019-04-08T01:33:07Z</time>
      </trkpt>
      <trkpt lat="42.27832" lon="1.81925">
        <ele>1059.14</ele>
        <time>2019-04-08T01:33:11Z</time>
      </trkpt>
      <trkpt lat="42.27822" lon="1.81929">
        <ele>1055.295</ele>
        <time>2019-04-08T01:33:14Z</time>
      </trkpt>
      <trkpt lat="42.27813" lon="1.81927">
        <ele>1053.336</ele>
        <time>2019-04-08T01:33:18Z</time>
      </trkpt>
      <trkpt lat="42.2781" lon="1.81912">
        <ele>1051.366</ele>
        <time>2019-04-08T01:33:23Z</time>
      </trkpt>
      <trkpt lat="42.278" lon="1.81906">
        <ele>1048.16</ele>
        <time>2019-04-08T01:33:27Z</time>
      </trkpt>
      <trkpt lat="42.27791" lon="1.81902">
        <ele>1047.139</ele>
        <time>2019-04-08T01:33:31Z</time>
      </trkpt>
      <trkpt lat="42.27781" lon="1.81901">
        <ele>1044.141</ele>
        <time>2019-04-08T01:33:35Z</time>
      </trkpt>
      <trkpt lat="42.27788" lon="1.81893">
        <ele>1042.227</ele>
        <time>2019-04-08T01:33:39Z</time>
      </trkpt>
      <trkpt lat="42.27779" lon="1.81891">
        <ele>1040.268</ele>
        <time>2019-04-08T01:33:42Z</time>
      </trkpt>
      <trkpt lat="42.27769" lon="1.81896">
        <ele>1039.014</ele>
        <time>2019-04-08T01:33:47Z</time>
      </trkpt>
      <trkpt lat="42.27769" lon="1.81908">
        <ele>1035.008</ele>
        <time>2019-04-08T01:33:50Z</time>
      </trkpt>
      <trkpt lat="42.27765" lon="1.81921">
        <ele>1033.065</ele>
        <time>2019-04-08T01:33:54Z</time>
      </trkpt>
      <trkpt lat="42.2776" lon="1.8191">
        <ele>1029.267</ele>
        <time>2019-04-08T01:33:58Z</time>
      </trkpt>
      <trkpt lat="42.2776" lon="1.81898">
        <ele>1027.472</ele>
        <time>2019-04-08T01:34:02Z</time>
      </trkpt>
      <trkpt lat="42.27751" lon="1.81893">
        <ele>1025.333</ele>
        <time>2019-04-08T01:34:06Z</time>
      </trkpt>
      <trkpt lat="42.27741" lon="1.81898">
        <ele>1024.233</ele>
        <time>2019-04-08T01:34:10Z</time>
      </trkpt>
      <trkpt lat="42.2775" lon="1.81901">
        <ele>1024.397</ele>
        <time>2019-04-08T01:34:14Z</time>
      </trkpt>
      <trkpt lat="42.27744" lon="1.81911">
        <ele>1018.196</ele>
        <time>2019-04-08T01:34:17Z</time>
      </trkpt>
      <trkpt lat="42.27738" lon="1.81922">
        <ele>1018.138</ele>
        <time>2019-04-08T01:34:21Z</time>
      </trkpt>
      <trkpt lat="42.27743" lon="1.81932">
        <ele>1015.065</ele>
        <time>2019-04-08T01:34:25Z</time>
      </trkpt>
      <trkpt lat="42.27748" lon="1.8192">
        <ele>1011.368</ele>
        <time>2019-04-08T01:34:29Z</time>
      </trkpt>
      <trkpt lat="42.2774" lon="1.81913">
        <ele>1011.114</ele>
        <time>2019-04-08T01:34:33Z</time>
      </trkpt>
      <trkpt lat="42.27735" lon="1.81902">
        <ele>1010.108</ele>
        <time>2019-04-08T01:34:37Z</time>
      </trkpt>
      <trkpt lat="42.27723" lon="1.81888">
        <ele>1009.269</ele>
        <time>2019-04-08T01:34:43Z</time>
      </trkpt>
      <trkpt lat="42.27722" lon="1.81874">
        <ele>1007.011</ele>
        <time>2019-04-08T01:34:47Z</time>
      </trkpt>
      <trkpt lat="42.27723" lon="1.81861">
        <ele>1006.326</ele>
        <time>2019-04-08T01:34:51Z</time>
      </trkpt>
      <trkpt lat="42.27733" lon="1.81863">
        <ele>1007.347</ele>
        <time>2019-04-08T01:34:55Z</time>
      </trkpt>
      <trkpt lat="42.27743" lon="1.81859">
        <ele>1008.167</ele>
        <time>2019-04-08T01:34:59Z</time>
      </trkpt>
      <trkpt lat="42.27752" lon="1.81864">
        <ele>1006.161</ele>
        <time>2019-04-08T01:35:03Z</time>
      </trkpt>
      <trkpt lat="42.27739" lon="1.81855">
        <ele>1006.21</ele>
        <time>2019-04-08T01:35:09Z</time>
      </trkpt>
      <trkpt lat="42.27728" lon="1.81849">
        <ele>1005.122</ele>
        <time>2019-04-08T01:35:14Z</time>
      </trkpt>
      <trkpt lat="42.27719" lon="1.81842">
        <ele>1004.325</ele>
        <time>2019-04-08T01:35:17Z</time>
      </trkpt>
      <trkpt lat="42.27711" lon="1.81838">
        <ele>1004.226</ele>
        <time>2019-04-08T01:35:21Z</time>
      </trkpt>
      <trkpt lat="42.27704" lon="1.81847">
        <ele>1003.308</ele>
        <time>2019-04-08T01:35:25Z</time>
      </trkpt>
      <trkpt lat="42.27712" lon="1.81854">
        <ele>1003.108</ele>
        <time>2019-04-08T01:35:29Z</time>
      </trkpt>
      <trkpt lat="42.27708" lon="1.81843">
        <ele>1001.085</ele>
        <time>2019-04-08T01:35:32Z</time>
      </trkpt>
      <trkpt lat="42.277" lon="1.81836">
        <ele>1000.397</ele>
        <time>2019-04-08T01:35:36Z</time>
      </trkpt>
      <trkpt lat="42.27692" lon="1.81833">
        <ele>1000.382</ele>
        <time>2019-04-08T01:35:40Z</time>
      </trkpt>
      <trkpt lat="42.27683" lon="1.81832">
        <ele>999.313</ele>
        <time>2019-04-08T01:35:43Z</time>
      </trkpt>
      <trkpt lat="42.27684" lon="1.81845">
        <ele>997.323</ele>
        <time>2019-04-08T01:35:47Z</time>
      </trkpt>
      <trkpt lat="42.27682" lon="1.81863">
        <ele>995.317</ele>
        <time>2019-04-08T01:35:53Z</time>
      </trkpt>
      <trkpt lat="42.27685" lon="1.81878">
        <ele>995.386</ele>
        <time>2019-04-08T01:35:57Z</time>
      </trkpt>
      <trkpt lat="42.27688" lon="1.81892">
        <ele>994.178</ele>
        <time>2019-04-08T01:36:02Z</time>
      </trkpt>
      <trkpt lat="42.27692" lon="1.81904">
        <ele>993.177</ele>
        <time>2019-04-08T01:36:06Z</time>
      </trkpt>
      <trkpt lat="42.27703" lon="1.81902">
        <ele>993.461</ele>
        <time>2019-04-08T01:36:10Z</time>
      </trkpt>
      <trkpt lat="42.27701" lon="1.81914">
        <ele>992.027</ele>
        <time>2019-04-08T01:36:14Z</time>
      </trkpt>
      <trkpt lat="42.27693" lon="1.81905">
        <ele>991.208</ele>
        <time>2019-04-08T01:36:18Z</time>
      </trkpt>
      <trkpt lat="42.27687" lon="1.81895">
        <ele>992.21</ele>
        <time>2019-04-08T01:36:22Z</time>
      </trkpt>
      <trkpt lat="42.27681" lon="1.81886">
        <ele>992.182</ele>
        <time>2019-04-08T01:36:25Z</time>
      </trkpt>
      <trkpt lat="42.27674" lon="1.81874">
        <ele>992.367</ele>
        <time>2019-04-08T01:36:30Z</time>
      </trkpt>
      <trkpt lat="42.27669" lon="1.81863">
        <ele>991.368</ele>
        <time>2019-04-08T01:36:34Z</time>
      </trkpt>
      <trkpt lat="42.27661" lon="1.81848">
        <ele>992.248</ele>
        <time>2019-04-08T01:36:39Z</time>
      </trkpt>
      <trkpt lat="42.27654" lon="1.81841">
        <ele>992.282</ele>
        <time>2019-04-08T01:36:43Z</time>
      </trkpt>
      <trkpt lat="42.27649" lon="1.81828">
        <ele>993.351</ele>
        <time>2019-04-08T01:36:47Z</time>
      </trkpt>
      <trkpt lat="42.27641" lon="1.81825">
        <ele>992.133</ele>
        <time>2019-04-08T01:36:50Z</time>
      </trkpt>
      <trkpt lat="42.27641" lon="1.8184">
        <ele>992.136</ele>
        <time>2019-04-08T01:36:55Z</time>
      </trkpt>
      <trkpt lat="42.27633" lon="1.81848">
        <ele>993.117</ele>
        <time>2019-04-08T01:36:59Z</time>
      </trkpt>
      <trkpt lat="42.27624" lon="1.8184">
        <ele>989.218</ele>
        <time>2019-04-08T01:37:03Z</time>
      </trkpt>
      <trkpt lat="42.27621" lon="1.81827">
        <ele>989.108</ele>
        <time>2019-04-08T01:37:07Z</time>
      </trkpt>
      <trkpt lat="42.27612" lon="1.8182">
        <ele>990.166</ele>
        <time>2019-04-08T01:37:11Z</time>
      </trkpt>
      <trkpt lat="42.27604" lon="1.81827">
        <ele>992.368</ele>
        <time>2019-04-08T01:37:15Z</time>
      </trkpt>
      <trkpt lat="42.27599" lon="1.81837">
        <ele>992.213</ele>
        <time>2019-04-08T01:37:18Z</time>
      </trkpt>
      <trkpt lat="42.2759" lon="1.81831">
        <ele>989.364</ele>
        <time>2019-04-08T01:37:23Z</time>
      </trkpt>
      <trkpt lat="42.27578" lon="1.81826">
        <ele>988.334</ele>
        <time>2019-04-08T01:37:27Z</time>
      </trkpt>
      <trkpt lat="42.27571" lon="1.81833">
        <ele>986.398</ele>
        <time>2019-04-08T01:37:31Z</time>
      </trkpt>
      <trkpt lat="42.27563" lon="1.81842">
        <ele>985.097</ele>
        <time>2019-04-08T01:37:35Z</time>
      </trkpt>
      <trkpt lat="42.27554" lon="1.8184">
        <ele>983.139</ele>
        <time>2019-04-08T01:37:39Z</time>
      </trkpt>
      <trkpt lat="42.27544" lon="1.81844">
        <ele>980.294</ele>
        <time>2019-04-08T01:37:43Z</time>
      </trkpt>
      <trkpt lat="42.27537" lon="1.81842">
        <ele>976.257</ele>
        <time>2019-04-08T01:37:46Z</time>
      </trkpt>
      <trkpt lat="42.27531" lon="1.81831">
        <ele>973.222</ele>
        <time>2019-04-08T01:37:50Z</time>
      </trkpt>
      <trkpt lat="42.27524" lon="1.81823">
        <ele>972.108</ele>
        <time>2019-04-08T01:37:53Z</time>
      </trkpt>
      <trkpt lat="42.27517" lon="1.81815">
        <ele>969.042</ele>
        <time>2019-04-08T01:37:57Z</time>
      </trkpt>
      <trkpt lat="42.27506" lon="1.81813">
        <ele>968.074</ele>
        <time>2019-04-08T01:38:01Z</time>
      </trkpt>
      <trkpt lat="42.27498" lon="1.81817">
        <ele>968.259</ele>
        <time>2019-04-08T01:38:05Z</time>
      </trkpt>
      <trkpt lat="42.27493" lon="1.81806">
        <ele>965.15</ele>
        <time>2019-04-08T01:38:09Z</time>
      </trkpt>
      <trkpt lat="42.27484" lon="1.81804">
        <ele>965.28</ele>
        <time>2019-04-08T01:38:13Z</time>
      </trkpt>
      <trkpt lat="42.27474" lon="1.81807">
        <ele>966.314</ele>
        <time>2019-04-08T01:38:17Z</time>
      </trkpt>
      <trkpt lat="42.27471" lon="1.81819">
        <ele>966.233</ele>
        <time>2019-04-08T01:38:20Z</time>
      </trkpt>
      <trkpt lat="42.27465" lon="1.81831">
        <ele>965.285</ele>
        <time>2019-04-08T01:38:24Z</time>
      </trkpt>
      <trkpt lat="42.27457" lon="1.81836">
        <ele>965.345</ele>
        <time>2019-04-08T01:38:28Z</time>
      </trkpt>
      <trkpt lat="42.27447" lon="1.81839">
        <ele>966.147</ele>
        <time>2019-04-08T01:38:32Z</time>
      </trkpt>
      <trkpt lat="42.27436" lon="1.81842">
        <ele>965.011</ele>
        <time>2019-04-08T01:38:36Z</time>
      </trkpt>
      <trkpt lat="42.27427" lon="1.81841">
        <ele>964.208</ele>
        <time>2019-04-08T01:38:40Z</time>
      </trkpt>
      <trkpt lat="42.27417" lon="1.8184">
        <ele>963.247</ele>
        <time>2019-04-08T01:38:44Z</time>
      </trkpt>
      <trkpt lat="42.27409" lon="1.81834">
        <ele>963.289</ele>
        <time>2019-04-08T01:38:48Z</time>
      </trkpt>
      <trkpt lat="42.27399" lon="1.81827">
        <ele>960.344</ele>
        <time>2019-04-08T01:38:52Z</time>
      </trkpt>
      <trkpt lat="42.2739" lon="1.81824">
        <ele>959.355</ele>
        <time>2019-04-08T01:38:56Z</time>
      </trkpt>
      <trkpt lat="42.27378" lon="1.8182">
        <ele>958.355</ele>
        <time>2019-04-08T01:39:01Z</time>
      </trkpt>
      <trkpt lat="42.27369" lon="1.81815">
        <ele>957.199</ele>
        <time>2019-04-08T01:39:05Z</time>
      </trkpt>
      <trkpt lat="42.27362" lon="1.81822">
        <ele>954.398</ele>
        <time>2019-04-08T01:39:09Z</time>
      </trkpt>
      <trkpt lat="42.27355" lon="1.81822">
        <ele>952.13</ele>
        <time>2019-04-08T01:39:11Z</time>
      </trkpt>
      <trkpt lat="42.27346" lon="1.8183">
        <ele>952.059</ele>
        <time>2019-04-08T01:39:16Z</time>
      </trkpt>
      <trkpt lat="42.27336" lon="1.81837">
        <ele>952.103</ele>
        <time>2019-04-08T01:39:20Z</time>
      </trkpt>
      <trkpt lat="42.27331" lon="1.81848">
        <ele>951.323</ele>
        <time>2019-04-08T01:39:24Z</time>
      </trkpt>
      <trkpt lat="42.27322" lon="1.81855">
        <ele>952.108</ele>
        <time>2019-04-08T01:39:28Z</time>
      </trkpt>
      <trkpt lat="42.27313" lon="1.81861">
        <ele>951.028</ele>
        <time>2019-04-08T01:39:32Z</time>
      </trkpt>
      <trkpt lat="42.27306" lon="1.81855">
        <ele>950.25</ele>
        <time>2019-04-08T01:39:36Z</time>
      </trkpt>
      <trkpt lat="42.27304" lon="1.81842">
        <ele>949.265</ele>
        <time>2019-04-08T01:39:40Z</time>
      </trkpt>
      <trkpt lat="42.27302" lon="1.8183">
        <ele>948.346</ele>
        <time>2019-04-08T01:39:43Z</time>
      </trkpt>
      <trkpt lat="42.27299" lon="1.81817">
        <ele>949.396</ele>
        <time>2019-04-08T01:39:47Z</time>
      </trkpt>
      <trkpt lat="42.27296" lon="1.81806">
        <ele>947.34</ele>
        <time>2019-04-08T01:39:51Z</time>
      </trkpt>
      <trkpt lat="42.27292" lon="1.81793">
        <ele>945.299</ele>
        <time>2019-04-08T01:39:55Z</time>
      </trkpt>
      <trkpt lat="42.27291" lon="1.8178">
        <ele>946.121</ele>
        <time>2019-04-08T01:39:59Z</time>
      </trkpt>
      <trkpt lat="42.27288" lon="1.81769">
        <ele>942.196</ele>
        <time>2019-04-08T01:40:02Z</time>
      </trkpt>
      <trkpt lat="42.27281" lon="1.8176">
        <ele>941.231</ele>
        <time>2019-04-08T01:40:06Z</time>
      </trkpt>
      <trkpt lat="42.27275" lon="1.81748">
        <ele>941.224</ele>
        <time>2019-04-08T01:40:10Z</time>
      </trkpt>
      <trkpt lat="42.27267" lon="1.81741">
        <ele>940.008</ele>
        <time>2019-04-08T01:40:14Z</time>
      </trkpt>
      <trkpt lat="42.27257" lon="1.81734">
        <ele>939.042</ele>
        <time>2019-04-08T01:40:19Z</time>
      </trkpt>
      <trkpt lat="42.27247" lon="1.81732">
        <ele>938.284</ele>
        <time>2019-04-08T01:40:23Z</time>
      </trkpt>
      <trkpt lat="42.27238" lon="1.81727">
        <ele>938.149</ele>
        <time>2019-04-08T01:40:27Z</time>
      </trkpt>
      <trkpt lat="42.27227" lon="1.81723">
        <ele>939.13</ele>
        <time>2019-04-08T01:40:31Z</time>
      </trkpt>
      <trkpt lat="42.27218" lon="1.81717">
        <ele>938.39</ele>
        <time>2019-04-08T01:40:35Z</time>
      </trkpt>
      <trkpt lat="42.27208" lon="1.81711">
        <ele>939.024</ele>
        <time>2019-04-08T01:40:39Z</time>
      </trkpt>
      <trkpt lat="42.27198" lon="1.81704">
        <ele>939.233</ele>
        <time>2019-04-08T01:40:44Z</time>
      </trkpt>
      <trkpt lat="42.2719" lon="1.81697">
        <ele>939.365</ele>
        <time>2019-04-08T01:40:48Z</time>
      </trkpt>
      <trkpt lat="42.27186" lon="1.81689">
        <ele>939.361</ele>
        <time>2019-04-08T01:40:51Z</time>
      </trkpt>
      <trkpt lat="42.27184" lon="1.81686">
        <ele>940.421</ele>
        <time>2019-04-08T01:40:52Z</time>
      </trkpt>
      <trkpt lat="42.27182" lon="1.81683">
        <ele>940.113</ele>
        <time>2019-04-08T01:40:53Z</time>
      </trkpt>
      <trkpt lat="42.27181" lon="1.8168">
        <ele>940.008</ele>
        <time>2019-04-08T01:40:54Z</time>
      </trkpt>
      <trkpt lat="42.2718" lon="1.81677">
        <ele>940.269</ele>
        <time>2019-04-08T01:40:55Z</time>
      </trkpt>
      <trkpt lat="42.2718" lon="1.81674">
        <ele>941.091</ele>
        <time>2019-04-08T01:40:56Z</time>
      </trkpt>
      <trkpt lat="42.27179" lon="1.8167">
        <ele>941.246</ele>
        <time>2019-04-08T01:40:57Z</time>
      </trkpt>
      <trkpt lat="42.27178" lon="1.81667">
        <ele>941.457</ele>
        <time>2019-04-08T01:40:58Z</time>
      </trkpt>
      <trkpt lat="42.27176" lon="1.81663">
        <ele>941.237</ele>
        <time>2019-04-08T01:40:59Z</time>
      </trkpt>
      <trkpt lat="42.27174" lon="1.81661">
        <ele>941.221</ele>
        <time>2019-04-08T01:41:01Z</time>
      </trkpt>
      <trkpt lat="42.27174" lon="1.81658">
        <ele>941.18</ele>
        <time>2019-04-08T01:41:01Z</time>
      </trkpt>
      <trkpt lat="42.27173" lon="1.81656">
        <ele>941.022</ele>
        <time>2019-04-08T01:41:02Z</time>
      </trkpt>
      <trkpt lat="42.27172" lon="1.81652">
        <ele>941.178</ele>
        <time>2019-04-08T01:41:03Z</time>
      </trkpt>
      <trkpt lat="42.27169" lon="1.8164">
        <ele>942.233</ele>
        <time>2019-04-08T01:41:07Z</time>
      </trkpt>
      <trkpt lat="42.27165" lon="1.8163">
        <ele>942.126</ele>
        <time>2019-04-08T01:41:11Z</time>
      </trkpt>
      <trkpt lat="42.27157" lon="1.81622">
        <ele>942.108</ele>
        <time>2019-04-08T01:41:14Z</time>
      </trkpt>
      <trkpt lat="42.27147" lon="1.81617">
        <ele>942.16</ele>
        <time>2019-04-08T01:41:19Z</time>
      </trkpt>
      <trkpt lat="42.27138" lon="1.81614">
        <ele>943.162</ele>
        <time>2019-04-08T01:41:22Z</time>
      </trkpt>
      <trkpt lat="42.2713" lon="1.81617">
        <ele>944.217</ele>
        <time>2019-04-08T01:41:25Z</time>
      </trkpt>
      <trkpt lat="42.27122" lon="1.81623">
        <ele>942.288</ele>
        <time>2019-04-08T01:41:29Z</time>
      </trkpt>
      <trkpt lat="42.27112" lon="1.81629">
        <ele>942.238</ele>
        <time>2019-04-08T01:41:34Z</time>
      </trkpt>
      <trkpt lat="42.27103" lon="1.81634">
        <ele>941.142</ele>
        <time>2019-04-08T01:41:38Z</time>
      </trkpt>
      <trkpt lat="42.27093" lon="1.81636">
        <ele>940.291</ele>
        <time>2019-04-08T01:41:42Z</time>
      </trkpt>
      <trkpt lat="42.27085" lon="1.81635">
        <ele>938.313</ele>
        <time>2019-04-08T01:41:45Z</time>
      </trkpt>
      <trkpt lat="42.27076" lon="1.81633">
        <ele>937.278</ele>
        <time>2019-04-08T01:41:48Z</time>
      </trkpt>
      <trkpt lat="42.27066" lon="1.81635">
        <ele>936.033</ele>
        <time>2019-04-08T01:41:53Z</time>
      </trkpt>
      <trkpt lat="42.27057" lon="1.81641">
        <ele>933.126</ele>
        <time>2019-04-08T01:41:56Z</time>
      </trkpt>
      <trkpt lat="42.27049" lon="1.81646">
        <ele>933.208</ele>
        <time>2019-04-08T01:42:00Z</time>
      </trkpt>
      <trkpt lat="42.27043" lon="1.81646">
        <ele>932.02</ele>
        <time>2019-04-08T01:42:02Z</time>
      </trkpt>
      <trkpt lat="42.27041" lon="1.81645">
        <ele>931.122</ele>
        <time>2019-04-08T01:42:03Z</time>
      </trkpt>
      <trkpt lat="42.27038" lon="1.81645">
        <ele>931.317</ele>
        <time>2019-04-08T01:42:04Z</time>
      </trkpt>
      <trkpt lat="42.27036" lon="1.81645">
        <ele>931.148</ele>
        <time>2019-04-08T01:42:05Z</time>
      </trkpt>
      <trkpt lat="42.27033" lon="1.81644">
        <ele>929.268</ele>
        <time>2019-04-08T01:42:06Z</time>
      </trkpt>
      <trkpt lat="42.27032" lon="1.81643">
        <ele>929.162</ele>
        <time>2019-04-08T01:42:07Z</time>
      </trkpt>
      <trkpt lat="42.27028" lon="1.81643">
        <ele>927.951</ele>
        <time>2019-04-08T01:42:08Z</time>
      </trkpt>
      <trkpt lat="42.27025" lon="1.81643">
        <ele>928.113</ele>
        <time>2019-04-08T01:42:09Z</time>
      </trkpt>
      <trkpt lat="42.27023" lon="1.81643">
        <ele>928.276</ele>
        <time>2019-04-08T01:42:10Z</time>
      </trkpt>
      <trkpt lat="42.27016" lon="1.81638">
        <ele>927.29</ele>
        <time>2019-04-08T01:42:14Z</time>
      </trkpt>
      <trkpt lat="42.27013" lon="1.81636">
        <ele>925.119</ele>
        <time>2019-04-08T01:42:15Z</time>
      </trkpt>
      <trkpt lat="42.27009" lon="1.81634">
        <ele>923.308</ele>
        <time>2019-04-08T01:42:17Z</time>
      </trkpt>
      <trkpt lat="42.27006" lon="1.81634">
        <ele>922.16</ele>
        <time>2019-04-08T01:42:18Z</time>
      </trkpt>
      <trkpt lat="42.27005" lon="1.81634">
        <ele>922.172</ele>
        <time>2019-04-08T01:42:18Z</time>
      </trkpt>
      <trkpt lat="42.27001" lon="1.81633">
        <ele>923.117</ele>
        <time>2019-04-08T01:42:20Z</time>
      </trkpt>
      <trkpt lat="42.26993" lon="1.81624">
        <ele>922.428</ele>
        <time>2019-04-08T01:42:24Z</time>
      </trkpt>
      <trkpt lat="42.26983" lon="1.81614">
        <ele>921.248</ele>
        <time>2019-04-08T01:42:29Z</time>
      </trkpt>
      <trkpt lat="42.26974" lon="1.81609">
        <ele>921.152</ele>
        <time>2019-04-08T01:42:33Z</time>
      </trkpt>
      <trkpt lat="42.26966" lon="1.81602">
        <ele>920.171</ele>
        <time>2019-04-08T01:42:37Z</time>
      </trkpt>
      <trkpt lat="42.26963" lon="1.81594">
        <ele>921.223</ele>
        <time>2019-04-08T01:42:39Z</time>
      </trkpt>
      <trkpt lat="42.26962" lon="1.81586">
        <ele>921.294</ele>
        <time>2019-04-08T01:42:42Z</time>
      </trkpt>
      <trkpt lat="42.26957" lon="1.81575">
        <ele>921.257</ele>
        <time>2019-04-08T01:42:46Z</time>
      </trkpt>
      <trkpt lat="42.26954" lon="1.81567">
        <ele>920.122</ele>
        <time>2019-04-08T01:42:48Z</time>
      </trkpt>
      <trkpt lat="42.26953" lon="1.81566">
        <ele>920.108</ele>
        <time>2019-04-08T01:42:49Z</time>
      </trkpt>
      <trkpt lat="42.26951" lon="1.81563">
        <ele>919.932</ele>
        <time>2019-04-08T01:42:50Z</time>
      </trkpt>
      <trkpt lat="42.26949" lon="1.81561">
        <ele>918.244</ele>
        <time>2019-04-08T01:42:51Z</time>
      </trkpt>
      <trkpt lat="42.26946" lon="1.81558">
        <ele>918.219</ele>
        <time>2019-04-08T01:42:52Z</time>
      </trkpt>
      <trkpt lat="42.26944" lon="1.81556">
        <ele>919.35</ele>
        <time>2019-04-08T01:42:53Z</time>
      </trkpt>
      <trkpt lat="42.26942" lon="1.81553">
        <ele>918.38</ele>
        <time>2019-04-08T01:42:54Z</time>
      </trkpt>
      <trkpt lat="42.26935" lon="1.81545">
        <ele>918.214</ele>
        <time>2019-04-08T01:42:58Z</time>
      </trkpt>
      <trkpt lat="42.26927" lon="1.81535">
        <ele>915.383</ele>
        <time>2019-04-08T01:43:03Z</time>
      </trkpt>
      <trkpt lat="42.2692" lon="1.81527">
        <ele>916.295</ele>
        <time>2019-04-08T01:43:06Z</time>
      </trkpt>
      <trkpt lat="42.26912" lon="1.8152">
        <ele>915.299</ele>
        <time>2019-04-08T01:43:10Z</time>
      </trkpt>
      <trkpt lat="42.26902" lon="1.81521">
        <ele>912.007</ele>
        <time>2019-04-08T01:43:14Z</time>
      </trkpt>
      <trkpt lat="42.269" lon="1.81521">
        <ele>911.327</ele>
        <time>2019-04-08T01:43:15Z</time>
      </trkpt>
      <trkpt lat="42.26895" lon="1.81521">
        <ele>911.008</ele>
        <time>2019-04-08T01:43:17Z</time>
      </trkpt>
      <trkpt lat="42.26892" lon="1.8152">
        <ele>911.182</ele>
        <time>2019-04-08T01:43:18Z</time>
      </trkpt>
      <trkpt lat="42.26889" lon="1.81519">
        <ele>911.224</ele>
        <time>2019-04-08T01:43:19Z</time>
      </trkpt>
      <trkpt lat="42.26886" lon="1.81517">
        <ele>911.329</ele>
        <time>2019-04-08T01:43:21Z</time>
      </trkpt>
      <trkpt lat="42.26883" lon="1.81515">
        <ele>911.29</ele>
        <time>2019-04-08T01:43:22Z</time>
      </trkpt>
      <trkpt lat="42.26881" lon="1.81514">
        <ele>911.11</ele>
        <time>2019-04-08T01:43:23Z</time>
      </trkpt>
      <trkpt lat="42.26879" lon="1.81514">
        <ele>911.144</ele>
        <time>2019-04-08T01:43:24Z</time>
      </trkpt>
      <trkpt lat="42.26876" lon="1.81512">
        <ele>909.133</ele>
        <time>2019-04-08T01:43:25Z</time>
      </trkpt>
      <trkpt lat="42.26874" lon="1.81511">
        <ele>909.015</ele>
        <time>2019-04-08T01:43:26Z</time>
      </trkpt>
      <trkpt lat="42.26873" lon="1.8151">
        <ele>909.234</ele>
        <time>2019-04-08T01:43:26Z</time>
      </trkpt>
      <trkpt lat="42.26871" lon="1.81508">
        <ele>909.255</ele>
        <time>2019-04-08T01:43:27Z</time>
      </trkpt>
      <trkpt lat="42.26869" lon="1.81507">
        <ele>908.11</ele>
        <time>2019-04-08T01:43:28Z</time>
      </trkpt>
      <trkpt lat="42.26867" lon="1.81504">
        <ele>908.108</ele>
        <time>2019-04-08T01:43:29Z</time>
      </trkpt>
      <trkpt lat="42.26863" lon="1.81501">
        <ele>907.286</ele>
        <time>2019-04-08T01:43:31Z</time>
      </trkpt>
      <trkpt lat="42.26862" lon="1.815">
        <ele>907.278</ele>
        <time>2019-04-08T01:43:32Z</time>
      </trkpt>
      <trkpt lat="42.26859" lon="1.81497">
        <ele>907.393</ele>
        <time>2019-04-08T01:43:33Z</time>
      </trkpt>
      <trkpt lat="42.26856" lon="1.81495">
        <ele>908.244</ele>
        <time>2019-04-08T01:43:35Z</time>
      </trkpt>
      <trkpt lat="42.26853" lon="1.81493">
        <ele>907.524</ele>
        <time>2019-04-08T01:43:36Z</time>
      </trkpt>
      <trkpt lat="42.26851" lon="1.81491">
        <ele>907.358</ele>
        <time>2019-04-08T01:43:37Z</time>
      </trkpt>
      <trkpt lat="42.26848" lon="1.8149">
        <ele>907.377</ele>
        <time>2019-04-08T01:43:38Z</time>
      </trkpt>
      <trkpt lat="42.26846" lon="1.81488">
        <ele>907.149</ele>
        <time>2019-04-08T01:43:39Z</time>
      </trkpt>
      <trkpt lat="42.26843" lon="1.81487">
        <ele>907.159</ele>
        <time>2019-04-08T01:43:40Z</time>
      </trkpt>
      <trkpt lat="42.26836" lon="1.81482">
        <ele>905.303</ele>
        <time>2019-04-08T01:43:43Z</time>
      </trkpt>
      <trkpt lat="42.26833" lon="1.81481">
        <ele>905.323</ele>
        <time>2019-04-08T01:43:44Z</time>
      </trkpt>
      <trkpt lat="42.26831" lon="1.8148">
        <ele>905.108</ele>
        <time>2019-04-08T01:43:45Z</time>
      </trkpt>
      <trkpt lat="42.2683" lon="1.81479">
        <ele>906.178</ele>
        <time>2019-04-08T01:43:46Z</time>
      </trkpt>
      <trkpt lat="42.2683" lon="1.81482">
        <ele>906.39</ele>
        <time>2019-04-08T01:43:47Z</time>
      </trkpt>
      <trkpt lat="42.26831" lon="1.81485">
        <ele>907.135</ele>
        <time>2019-04-08T01:43:48Z</time>
      </trkpt>
      <trkpt lat="42.2683" lon="1.81483">
        <ele>907.466</ele>
        <time>2019-04-08T01:43:49Z</time>
      </trkpt>
      <trkpt lat="42.2683" lon="1.81479">
        <ele>907.256</ele>
        <time>2019-04-08T01:43:49Z</time>
      </trkpt>
      <trkpt lat="42.26829" lon="1.81477">
        <ele>908.24</ele>
        <time>2019-04-08T01:43:50Z</time>
      </trkpt>
      <trkpt lat="42.2683" lon="1.81479">
        <ele>908.029</ele>
        <time>2019-04-08T01:43:51Z</time>
      </trkpt>
      <trkpt lat="42.26831" lon="1.81481">
        <ele>908.211</ele>
        <time>2019-04-08T01:43:52Z</time>
      </trkpt>
      <trkpt lat="42.26831" lon="1.81483">
        <ele>908.113</ele>
        <time>2019-04-08T01:43:53Z</time>
      </trkpt>
      <trkpt lat="42.26831" lon="1.81486">
        <ele>908.143</ele>
        <time>2019-04-08T01:43:53Z</time>
      </trkpt>
      <trkpt lat="42.2683" lon="1.81488">
        <ele>908.107</ele>
        <time>2019-04-08T01:43:54Z</time>
      </trkpt>
      <trkpt lat="42.26828" lon="1.81491">
        <ele>908.108</ele>
        <time>2019-04-08T01:43:55Z</time>
      </trkpt>
      <trkpt lat="42.26827" lon="1.81493">
        <ele>909.194</ele>
        <time>2019-04-08T01:43:56Z</time>
      </trkpt>
      <trkpt lat="42.26828" lon="1.81491">
        <ele>909.226</ele>
        <time>2019-04-08T01:43:57Z</time>
      </trkpt>
      <trkpt lat="42.26828" lon="1.81488">
        <ele>909.271</ele>
        <time>2019-04-08T01:43:58Z</time>
      </trkpt>
      <trkpt lat="42.26828" lon="1.81485">
        <ele>908.842</ele>
        <time>2019-04-08T01:43:59Z</time>
      </trkpt>
      <trkpt lat="42.26828" lon="1.81483">
        <ele>907.972</ele>
        <time>2019-04-08T01:43:59Z</time>
      </trkpt>
      <trkpt lat="42.26828" lon="1.8148">
        <ele>907.386</ele>
        <time>2019-04-08T01:44:00Z</time>
      </trkpt>
      <trkpt lat="42.26828" lon="1.81477">
        <ele>907.195</ele>
        <time>2019-04-08T01:44:01Z</time>
      </trkpt>
      <trkpt lat="42.26828" lon="1.81474">
        <ele>907.017</ele>
        <time>2019-04-08T01:44:02Z</time>
      </trkpt>
      <trkpt lat="42.26828" lon="1.81471">
        <ele>907.219</ele>
        <time>2019-04-08T01:44:03Z</time>
      </trkpt>
      <trkpt lat="42.26827" lon="1.81468">
        <ele>907.209</ele>
        <time>2019-04-08T01:44:04Z</time>
      </trkpt>
      <trkpt lat="42.26825" lon="1.81466">
        <ele>907.019</ele>
        <time>2019-04-08T01:44:05Z</time>
      </trkpt>
      <trkpt lat="42.26822" lon="1.81464">
        <ele>907.108</ele>
        <time>2019-04-08T01:44:06Z</time>
      </trkpt>
      <trkpt lat="42.2682" lon="1.81462">
        <ele>907.194</ele>
        <time>2019-04-08T01:44:07Z</time>
      </trkpt>
      <trkpt lat="42.26818" lon="1.81462">
        <ele>907.266</ele>
        <time>2019-04-08T01:44:08Z</time>
      </trkpt>
      <trkpt lat="42.26815" lon="1.81461">
        <ele>906.141</ele>
        <time>2019-04-08T01:44:09Z</time>
      </trkpt>
      <trkpt lat="42.26813" lon="1.81461">
        <ele>906.062</ele>
        <time>2019-04-08T01:44:10Z</time>
      </trkpt>
      <trkpt lat="42.26811" lon="1.8146">
        <ele>906.272</ele>
        <time>2019-04-08T01:44:11Z</time>
      </trkpt>
      <trkpt lat="42.26809" lon="1.81459">
        <ele>906.316</ele>
        <time>2019-04-08T01:44:12Z</time>
      </trkpt>
      <trkpt lat="42.26806" lon="1.81459">
        <ele>906.475</ele>
        <time>2019-04-08T01:44:13Z</time>
      </trkpt>
      <trkpt lat="42.26803" lon="1.81459">
        <ele>906.217</ele>
        <time>2019-04-08T01:44:14Z</time>
      </trkpt>
      <trkpt lat="42.26799" lon="1.81459">
        <ele>906.111</ele>
        <time>2019-04-08T01:44:16Z</time>
      </trkpt>
      <trkpt lat="42.26796" lon="1.8146">
        <ele>907.321</ele>
        <time>2019-04-08T01:44:17Z</time>
      </trkpt>
      <trkpt lat="42.26794" lon="1.8146">
        <ele>907.103</ele>
        <time>2019-04-08T01:44:18Z</time>
      </trkpt>
      <trkpt lat="42.26791" lon="1.8146">
        <ele>906.108</ele>
        <time>2019-04-08T01:44:19Z</time>
      </trkpt>
      <trkpt lat="42.26787" lon="1.81461">
        <ele>906.014</ele>
        <time>2019-04-08T01:44:20Z</time>
      </trkpt>
      <trkpt lat="42.26785" lon="1.81463">
        <ele>906.116</ele>
        <time>2019-04-08T01:44:22Z</time>
      </trkpt>
      <trkpt lat="42.26782" lon="1.81465">
        <ele>906.351</ele>
        <time>2019-04-08T01:44:23Z</time>
      </trkpt>
      <trkpt lat="42.26779" lon="1.81466">
        <ele>906.182</ele>
        <time>2019-04-08T01:44:24Z</time>
      </trkpt>
      <trkpt lat="42.26777" lon="1.81466">
        <ele>905.232</ele>
        <time>2019-04-08T01:44:25Z</time>
      </trkpt>
      <trkpt lat="42.26775" lon="1.81468">
        <ele>905.116</ele>
        <time>2019-04-08T01:44:26Z</time>
      </trkpt>
      <trkpt lat="42.26772" lon="1.8147">
        <ele>905.195</ele>
        <time>2019-04-08T01:44:27Z</time>
      </trkpt>
      <trkpt lat="42.2677" lon="1.81472">
        <ele>906.167</ele>
        <time>2019-04-08T01:44:28Z</time>
      </trkpt>
      <trkpt lat="42.26767" lon="1.81474">
        <ele>906.189</ele>
        <time>2019-04-08T01:44:30Z</time>
      </trkpt>
      <trkpt lat="42.26764" lon="1.81476">
        <ele>906.106</ele>
        <time>2019-04-08T01:44:31Z</time>
      </trkpt>
      <trkpt lat="42.26761" lon="1.81476">
        <ele>905.226</ele>
        <time>2019-04-08T01:44:32Z</time>
      </trkpt>
      <trkpt lat="42.26758" lon="1.81475">
        <ele>905.008</ele>
        <time>2019-04-08T01:44:33Z</time>
      </trkpt>
      <trkpt lat="42.26755" lon="1.81473">
        <ele>905.991</ele>
        <time>2019-04-08T01:44:35Z</time>
      </trkpt>
      <trkpt lat="42.26754" lon="1.81471">
        <ele>906.323</ele>
        <time>2019-04-08T01:44:35Z</time>
      </trkpt>
      <trkpt lat="42.26751" lon="1.81468">
        <ele>906.278</ele>
        <time>2019-04-08T01:44:37Z</time>
      </trkpt>
      <trkpt lat="42.2675" lon="1.81465">
        <ele>906.079</ele>
        <time>2019-04-08T01:44:38Z</time>
      </trkpt>
      <trkpt lat="42.26749" lon="1.81461">
        <ele>907.299</ele>
        <time>2019-04-08T01:44:39Z</time>
      </trkpt>
      <trkpt lat="42.26748" lon="1.81458">
        <ele>907.413</ele>
        <time>2019-04-08T01:44:40Z</time>
      </trkpt>
      <trkpt lat="42.26748" lon="1.81454">
        <ele>908.372</ele>
        <time>2019-04-08T01:44:41Z</time>
      </trkpt>
      <trkpt lat="42.26748" lon="1.81451">
        <ele>908.384</ele>
        <time>2019-04-08T01:44:42Z</time>
      </trkpt>
      <trkpt lat="42.26748" lon="1.81448">
        <ele>908.343</ele>
        <time>2019-04-08T01:44:43Z</time>
      </trkpt>
      <trkpt lat="42.26749" lon="1.81445">
        <ele>908.264</ele>
        <time>2019-04-08T01:44:44Z</time>
      </trkpt>
      <trkpt lat="42.2675" lon="1.81441">
        <ele>909.01</ele>
        <time>2019-04-08T01:44:45Z</time>
      </trkpt>
      <trkpt lat="42.26751" lon="1.81438">
        <ele>909.208</ele>
        <time>2019-04-08T01:44:46Z</time>
      </trkpt>
      <trkpt lat="42.26753" lon="1.81435">
        <ele>910.087</ele>
        <time>2019-04-08T01:44:47Z</time>
      </trkpt>
      <trkpt lat="42.26755" lon="1.81433">
        <ele>911.219</ele>
        <time>2019-04-08T01:44:48Z</time>
      </trkpt>
      <trkpt lat="42.26757" lon="1.81431">
        <ele>911.254</ele>
        <time>2019-04-08T01:44:49Z</time>
      </trkpt>
      <trkpt lat="42.26759" lon="1.81428">
        <ele>911.275</ele>
        <time>2019-04-08T01:44:51Z</time>
      </trkpt>
      <trkpt lat="42.26762" lon="1.81426">
        <ele>911.215</ele>
        <time>2019-04-08T01:44:52Z</time>
      </trkpt>
      <trkpt lat="42.26764" lon="1.81424">
        <ele>912.239</ele>
        <time>2019-04-08T01:44:53Z</time>
      </trkpt>
      <trkpt lat="42.26766" lon="1.81422">
        <ele>912.278</ele>
        <time>2019-04-08T01:44:54Z</time>
      </trkpt>
      <trkpt lat="42.26768" lon="1.8142">
        <ele>913.05</ele>
        <time>2019-04-08T01:44:55Z</time>
      </trkpt>
      <trkpt lat="42.2677" lon="1.81418">
        <ele>913.249</ele>
        <time>2019-04-08T01:44:56Z</time>
      </trkpt>
      <trkpt lat="42.26773" lon="1.81415">
        <ele>913.102</ele>
        <time>2019-04-08T01:44:57Z</time>
      </trkpt>
      <trkpt lat="42.26859" lon="1.81291">
        <ele>873.022</ele>
        <time>2019-04-08T01:45:48Z</time>
      </trkpt>
      <trkpt lat="42.26852" lon="1.81302">
        <ele>876.308</ele>
        <time>2019-04-08T01:45:52Z</time>
      </trkpt>
      <trkpt lat="42.26846" lon="1.81312">
        <ele>876.237</ele>
        <time>2019-04-08T01:45:56Z</time>
      </trkpt>
      <trkpt lat="42.2684" lon="1.81322">
        <ele>877.169</ele>
        <time>2019-04-08T01:46:00Z</time>
      </trkpt>
      <trkpt lat="42.26835" lon="1.81332">
        <ele>877.394</ele>
        <time>2019-04-08T01:46:03Z</time>
      </trkpt>
      <trkpt lat="42.2683" lon="1.81344">
        <ele>878.235</ele>
        <time>2019-04-08T01:46:07Z</time>
      </trkpt>
      <trkpt lat="42.26827" lon="1.81356">
        <ele>878.245</ele>
        <time>2019-04-08T01:46:11Z</time>
      </trkpt>
      <trkpt lat="42.26822" lon="1.81367">
        <ele>880.099</ele>
        <time>2019-04-08T01:46:15Z</time>
      </trkpt>
      <trkpt lat="42.26815" lon="1.81378">
        <ele>881.298</ele>
        <time>2019-04-08T01:46:19Z</time>
      </trkpt>
      <trkpt lat="42.26819" lon="1.81366">
        <ele>887.22</ele>
        <time>2019-04-08T01:46:23Z</time>
      </trkpt>
      <trkpt lat="42.26824" lon="1.81355">
        <ele>889.224</ele>
        <time>2019-04-08T01:46:27Z</time>
      </trkpt>
      <trkpt lat="42.26831" lon="1.81345">
        <ele>890.204</ele>
        <time>2019-04-08T01:46:31Z</time>
      </trkpt>
      <trkpt lat="42.26841" lon="1.81339">
        <ele>891.114</ele>
        <time>2019-04-08T01:46:35Z</time>
      </trkpt>
      <trkpt lat="42.26848" lon="1.81329">
        <ele>893.208</ele>
        <time>2019-04-08T01:46:39Z</time>
      </trkpt>
      <trkpt lat="42.26853" lon="1.81319">
        <ele>894.185</ele>
        <time>2019-04-08T01:46:43Z</time>
      </trkpt>
      <trkpt lat="42.26862" lon="1.81312">
        <ele>895.357</ele>
        <time>2019-04-08T01:46:47Z</time>
      </trkpt>
      <trkpt lat="42.26871" lon="1.81306">
        <ele>897.132</ele>
        <time>2019-04-08T01:46:51Z</time>
      </trkpt>
      <trkpt lat="42.26879" lon="1.81298">
        <ele>899.233</ele>
        <time>2019-04-08T01:46:55Z</time>
      </trkpt>
      <trkpt lat="42.26887" lon="1.81291">
        <ele>900.283</ele>
        <time>2019-04-08T01:46:59Z</time>
      </trkpt>
      <trkpt lat="42.26897" lon="1.81289">
        <ele>902.127</ele>
        <time>2019-04-08T01:47:03Z</time>
      </trkpt>
      <trkpt lat="42.26906" lon="1.81289">
        <ele>903.026</ele>
        <time>2019-04-08T01:47:07Z</time>
      </trkpt>
      <trkpt lat="42.26915" lon="1.81282">
        <ele>905.068</ele>
        <time>2019-04-08T01:47:11Z</time>
      </trkpt>
      <trkpt lat="42.26923" lon="1.81277">
        <ele>907.111</ele>
        <time>2019-04-08T01:47:14Z</time>
      </trkpt>
      <trkpt lat="42.2693" lon="1.81268">
        <ele>908.321</ele>
        <time>2019-04-08T01:47:18Z</time>
      </trkpt>
      <trkpt lat="42.26939" lon="1.81269">
        <ele>910.203</ele>
        <time>2019-04-08T01:47:22Z</time>
      </trkpt>
      <trkpt lat="42.26948" lon="1.81265">
        <ele>912.008</ele>
        <time>2019-04-08T01:47:26Z</time>
      </trkpt>
      <trkpt lat="42.26957" lon="1.81263">
        <ele>914.094</ele>
        <time>2019-04-08T01:47:29Z</time>
      </trkpt>
      <trkpt lat="42.26967" lon="1.81262">
        <ele>915.186</ele>
        <time>2019-04-08T01:47:33Z</time>
      </trkpt>
      <trkpt lat="42.26976" lon="1.81257">
        <ele>917.261</ele>
        <time>2019-04-08T01:47:37Z</time>
      </trkpt>
      <trkpt lat="42.26986" lon="1.81254">
        <ele>918.242</ele>
        <time>2019-04-08T01:47:41Z</time>
      </trkpt>
      <trkpt lat="42.26995" lon="1.81249">
        <ele>920.052</ele>
        <time>2019-04-08T01:47:45Z</time>
      </trkpt>
      <trkpt lat="42.27005" lon="1.81245">
        <ele>921.156</ele>
        <time>2019-04-08T01:47:49Z</time>
      </trkpt>
      <trkpt lat="42.27014" lon="1.81239">
        <ele>925.165</ele>
        <time>2019-04-08T01:47:53Z</time>
      </trkpt>
      <trkpt lat="42.27022" lon="1.81232">
        <ele>927.277</ele>
        <time>2019-04-08T01:47:57Z</time>
      </trkpt>
      <trkpt lat="42.2703" lon="1.81227">
        <ele>930.222</ele>
        <time>2019-04-08T01:48:01Z</time>
      </trkpt>
      <trkpt lat="42.27036" lon="1.81216">
        <ele>931.362</ele>
        <time>2019-04-08T01:48:05Z</time>
      </trkpt>
      <trkpt lat="42.27044" lon="1.81211">
        <ele>934.108</ele>
        <time>2019-04-08T01:48:09Z</time>
      </trkpt>
      <trkpt lat="42.27053" lon="1.81204">
        <ele>936.108</ele>
        <time>2019-04-08T01:48:13Z</time>
      </trkpt>
      <trkpt lat="42.27059" lon="1.81194">
        <ele>938.185</ele>
        <time>2019-04-08T01:48:16Z</time>
      </trkpt>
      <trkpt lat="42.27064" lon="1.81183">
        <ele>940.197</ele>
        <time>2019-04-08T01:48:20Z</time>
      </trkpt>
      <trkpt lat="42.27071" lon="1.81173">
        <ele>940.082</ele>
        <time>2019-04-08T01:48:24Z</time>
      </trkpt>
      <trkpt lat="42.27073" lon="1.8116">
        <ele>943.233</ele>
        <time>2019-04-08T01:48:28Z</time>
      </trkpt>
      <trkpt lat="42.27077" lon="1.81148">
        <ele>944.353</ele>
        <time>2019-04-08T01:48:32Z</time>
      </trkpt>
      <trkpt lat="42.27085" lon="1.8114">
        <ele>948.137</ele>
        <time>2019-04-08T01:48:36Z</time>
      </trkpt>
      <trkpt lat="42.27084" lon="1.81127">
        <ele>952.136</ele>
        <time>2019-04-08T01:48:40Z</time>
      </trkpt>
      <trkpt lat="42.27084" lon="1.81115">
        <ele>954.218</ele>
        <time>2019-04-08T01:48:43Z</time>
      </trkpt>
      <trkpt lat="42.27084" lon="1.81102">
        <ele>958.356</ele>
        <time>2019-04-08T01:48:47Z</time>
      </trkpt>
      <trkpt lat="42.2709" lon="1.81092">
        <ele>959.359</ele>
        <time>2019-04-08T01:48:51Z</time>
      </trkpt>
      <trkpt lat="42.27093" lon="1.8108">
        <ele>961.214</ele>
        <time>2019-04-08T01:48:55Z</time>
      </trkpt>
      <trkpt lat="42.27097" lon="1.81069">
        <ele>965.108</ele>
        <time>2019-04-08T01:48:58Z</time>
      </trkpt>
      <trkpt lat="42.27099" lon="1.81056">
        <ele>967.398</ele>
        <time>2019-04-08T01:49:02Z</time>
      </trkpt>
      <trkpt lat="42.27103" lon="1.81043">
        <ele>969.25</ele>
        <time>2019-04-08T01:49:06Z</time>
      </trkpt>
      <trkpt lat="42.27105" lon="1.81031">
        <ele>971.315</ele>
        <time>2019-04-08T01:49:10Z</time>
      </trkpt>
      <trkpt lat="42.27107" lon="1.81019">
        <ele>973.136</ele>
        <time>2019-04-08T01:49:14Z</time>
      </trkpt>
      <trkpt lat="42.27113" lon="1.81009">
        <ele>975.266</ele>
        <time>2019-04-08T01:49:17Z</time>
      </trkpt>
      <trkpt lat="42.27117" lon="1.80998">
        <ele>979.14</ele>
        <time>2019-04-08T01:49:21Z</time>
      </trkpt>
      <trkpt lat="42.27118" lon="1.80986">
        <ele>984.339</ele>
        <time>2019-04-08T01:49:25Z</time>
      </trkpt>
      <trkpt lat="42.27125" lon="1.80977">
        <ele>987.221</ele>
        <time>2019-04-08T01:49:29Z</time>
      </trkpt>
      <trkpt lat="42.27131" lon="1.80967">
        <ele>992.282</ele>
        <time>2019-04-08T01:49:32Z</time>
      </trkpt>
      <trkpt lat="42.27135" lon="1.80956">
        <ele>997.043</ele>
        <time>2019-04-08T01:49:36Z</time>
      </trkpt>
      <trkpt lat="42.2714" lon="1.80946">
        <ele>1000.217</ele>
        <time>2019-04-08T01:49:40Z</time>
      </trkpt>
      <trkpt lat="42.27144" lon="1.80934">
        <ele>1001.108</ele>
        <time>2019-04-08T01:49:43Z</time>
      </trkpt>
      <trkpt lat="42.27144" lon="1.80926">
        <ele>1001.261</ele>
        <time>2019-04-08T01:49:46Z</time>
      </trkpt>
      <trkpt lat="42.27143" lon="1.80921">
        <ele>1001.243</ele>
        <time>2019-04-08T01:49:47Z</time>
      </trkpt>
      <trkpt lat="42.27144" lon="1.80919">
        <ele>1001.498</ele>
        <time>2019-04-08T01:49:48Z</time>
      </trkpt>
      <trkpt lat="42.27145" lon="1.80915">
        <ele>1002.289</ele>
        <time>2019-04-08T01:49:49Z</time>
      </trkpt>
      <trkpt lat="42.27151" lon="1.80905">
        <ele>1000.259</ele>
        <time>2019-04-08T01:49:53Z</time>
      </trkpt>
      <trkpt lat="42.27158" lon="1.80897">
        <ele>1001.273</ele>
        <time>2019-04-08T01:49:57Z</time>
      </trkpt>
      <trkpt lat="42.27164" lon="1.80886">
        <ele>1000.212</ele>
        <time>2019-04-08T01:50:01Z</time>
      </trkpt>
      <trkpt lat="42.27172" lon="1.80875">
        <ele>1001.244</ele>
        <time>2019-04-08T01:50:05Z</time>
      </trkpt>
      <trkpt lat="42.27179" lon="1.80867">
        <ele>1003.224</ele>
        <time>2019-04-08T01:50:09Z</time>
      </trkpt>
      <trkpt lat="42.27181" lon="1.80864">
        <ele>1003.104</ele>
        <time>2019-04-08T01:50:10Z</time>
      </trkpt>
      <trkpt lat="42.27183" lon="1.80862">
        <ele>1003.314</ele>
        <time>2019-04-08T01:50:11Z</time>
      </trkpt>
      <trkpt lat="42.27185" lon="1.80859">
        <ele>1004.008</ele>
        <time>2019-04-08T01:50:12Z</time>
      </trkpt>
      <trkpt lat="42.27187" lon="1.80857">
        <ele>1005.125</ele>
        <time>2019-04-08T01:50:13Z</time>
      </trkpt>
      <trkpt lat="42.27188" lon="1.80856">
        <ele>1005.287</ele>
        <time>2019-04-08T01:50:14Z</time>
      </trkpt>
      <trkpt lat="42.2719" lon="1.80856">
        <ele>1004.332</ele>
        <time>2019-04-08T01:50:15Z</time>
      </trkpt>
      <trkpt lat="42.27192" lon="1.80855">
        <ele>1005.183</ele>
        <time>2019-04-08T01:50:16Z</time>
      </trkpt>
      <trkpt lat="42.27194" lon="1.80854">
        <ele>1005.263</ele>
        <time>2019-04-08T01:50:16Z</time>
      </trkpt>
      <trkpt lat="42.27199" lon="1.80851">
        <ele>1005.237</ele>
        <time>2019-04-08T01:50:19Z</time>
      </trkpt>
      <trkpt lat="42.27203" lon="1.80851">
        <ele>1006.126</ele>
        <time>2019-04-08T01:50:20Z</time>
      </trkpt>
      <trkpt lat="42.27206" lon="1.80851">
        <ele>1006.918</ele>
        <time>2019-04-08T01:50:21Z</time>
      </trkpt>
      <trkpt lat="42.27215" lon="1.8085">
        <ele>1008.273</ele>
        <time>2019-04-08T01:50:25Z</time>
      </trkpt>
      <trkpt lat="42.27218" lon="1.80849">
        <ele>1009.285</ele>
        <time>2019-04-08T01:50:26Z</time>
      </trkpt>
      <trkpt lat="42.2722" lon="1.80849">
        <ele>1010.313</ele>
        <time>2019-04-08T01:50:27Z</time>
      </trkpt>
      <trkpt lat="42.27223" lon="1.80849">
        <ele>1010.108</ele>
        <time>2019-04-08T01:50:28Z</time>
      </trkpt>
      <trkpt lat="42.27228" lon="1.80848">
        <ele>1010.07</ele>
        <time>2019-04-08T01:50:30Z</time>
      </trkpt>
      <trkpt lat="42.2723" lon="1.8085">
        <ele>1011.122</ele>
        <time>2019-04-08T01:50:31Z</time>
      </trkpt>
      <trkpt lat="42.27239" lon="1.8085">
        <ele>1015.177</ele>
        <time>2019-04-08T01:50:35Z</time>
      </trkpt>
      <trkpt lat="42.27246" lon="1.8085">
        <ele>1015.258</ele>
        <time>2019-04-08T01:50:38Z</time>
      </trkpt>
      <trkpt lat="42.27248" lon="1.80849">
        <ele>1015.058</ele>
        <time>2019-04-08T01:50:38Z</time>
      </trkpt>
      <trkpt lat="42.2725" lon="1.8085">
        <ele>1016.252</ele>
        <time>2019-04-08T01:50:39Z</time>
      </trkpt>
      <trkpt lat="42.27253" lon="1.8085">
        <ele>1016.111</ele>
        <time>2019-04-08T01:50:40Z</time>
      </trkpt>
      <trkpt lat="42.27262" lon="1.80852">
        <ele>1016.353</ele>
        <time>2019-04-08T01:50:44Z</time>
      </trkpt>
      <trkpt lat="42.27269" lon="1.80851">
        <ele>1018.145</ele>
        <time>2019-04-08T01:50:47Z</time>
      </trkpt>
      <trkpt lat="42.27279" lon="1.80851">
        <ele>1020.347</ele>
        <time>2019-04-08T01:50:51Z</time>
      </trkpt>
      <trkpt lat="42.27288" lon="1.80854">
        <ele>1020.111</ele>
        <time>2019-04-08T01:50:55Z</time>
      </trkpt>
      <trkpt lat="42.27291" lon="1.80854">
        <ele>1020.108</ele>
        <time>2019-04-08T01:50:56Z</time>
      </trkpt>
      <trkpt lat="42.27293" lon="1.80856">
        <ele>1020.297</ele>
        <time>2019-04-08T01:50:57Z</time>
      </trkpt>
      <trkpt lat="42.27301" lon="1.80863">
        <ele>1022.199</ele>
        <time>2019-04-08T01:51:01Z</time>
      </trkpt>
      <trkpt lat="42.27306" lon="1.80868">
        <ele>1022.244</ele>
        <time>2019-04-08T01:51:03Z</time>
      </trkpt>
      <trkpt lat="42.27307" lon="1.80868">
        <ele>1022.435</ele>
        <time>2019-04-08T01:51:04Z</time>
      </trkpt>
      <trkpt lat="42.27311" lon="1.80867">
        <ele>1022.195</ele>
        <time>2019-04-08T01:51:05Z</time>
      </trkpt>
      <trkpt lat="42.2732" lon="1.80872">
        <ele>1024.319</ele>
        <time>2019-04-08T01:51:09Z</time>
      </trkpt>
      <trkpt lat="42.27324" lon="1.80883">
        <ele>1025.358</ele>
        <time>2019-04-08T01:51:13Z</time>
      </trkpt>
      <trkpt lat="42.27333" lon="1.80889">
        <ele>1027.32</ele>
        <time>2019-04-08T01:51:17Z</time>
      </trkpt>
      <trkpt lat="42.27342" lon="1.80883">
        <ele>1028.048</ele>
        <time>2019-04-08T01:51:21Z</time>
      </trkpt>
      <trkpt lat="42.27351" lon="1.80886">
        <ele>1031.261</ele>
        <time>2019-04-08T01:51:24Z</time>
      </trkpt>
      <trkpt lat="42.27358" lon="1.80895">
        <ele>1034.217</ele>
        <time>2019-04-08T01:51:28Z</time>
      </trkpt>
      <trkpt lat="42.27365" lon="1.80897">
        <ele>1037.108</ele>
        <time>2019-04-08T01:51:31Z</time>
      </trkpt>
      <trkpt lat="42.27374" lon="1.80899">
        <ele>1040.097</ele>
        <time>2019-04-08T01:51:35Z</time>
      </trkpt>
      <trkpt lat="42.27384" lon="1.809">
        <ele>1041.149</ele>
        <time>2019-04-08T01:51:38Z</time>
      </trkpt>
      <trkpt lat="42.27393" lon="1.80903">
        <ele>1044.154</ele>
        <time>2019-04-08T01:51:42Z</time>
      </trkpt>
      <trkpt lat="42.27398" lon="1.80913">
        <ele>1047.375</ele>
        <time>2019-04-08T01:51:46Z</time>
      </trkpt>
      <trkpt lat="42.27405" lon="1.80903">
        <ele>1048.165</ele>
        <time>2019-04-08T01:51:50Z</time>
      </trkpt>
      <trkpt lat="42.2741" lon="1.80892">
        <ele>1049.329</ele>
        <time>2019-04-08T01:51:54Z</time>
      </trkpt>
      <trkpt lat="42.27418" lon="1.80885">
        <ele>1050.288</ele>
        <time>2019-04-08T01:51:58Z</time>
      </trkpt>
      <trkpt lat="42.27427" lon="1.80887">
        <ele>1055.15</ele>
        <time>2019-04-08T01:52:01Z</time>
      </trkpt>
      <trkpt lat="42.27436" lon="1.80883">
        <ele>1057.122</ele>
        <time>2019-04-08T01:52:05Z</time>
      </trkpt>
      <trkpt lat="42.27444" lon="1.80879">
        <ele>1060.362</ele>
        <time>2019-04-08T01:52:09Z</time>
      </trkpt>
      <trkpt lat="42.27453" lon="1.80873">
        <ele>1062.208</ele>
        <time>2019-04-08T01:52:12Z</time>
      </trkpt>
      <trkpt lat="42.27462" lon="1.80871">
        <ele>1065.108</ele>
        <time>2019-04-08T01:52:16Z</time>
      </trkpt>
      <trkpt lat="42.2747" lon="1.80868">
        <ele>1069.215</ele>
        <time>2019-04-08T01:52:20Z</time>
      </trkpt>
      <trkpt lat="42.27481" lon="1.80868">
        <ele>1072.377</ele>
        <time>2019-04-08T01:52:24Z</time>
      </trkpt>
      <trkpt lat="42.27489" lon="1.80862">
        <ele>1074.252</ele>
        <time>2019-04-08T01:52:27Z</time>
      </trkpt>
      <trkpt lat="42.27497" lon="1.80854">
        <ele>1076.373</ele>
        <time>2019-04-08T01:52:32Z</time>
      </trkpt>
      <trkpt lat="42.27504" lon="1.80843">
        <ele>1078.023</ele>
        <time>2019-04-08T01:52:36Z</time>
      </trkpt>
      <trkpt lat="42.27511" lon="1.80834">
        <ele>1079.057</ele>
        <time>2019-04-08T01:52:40Z</time>
      </trkpt>
      <trkpt lat="42.27519" lon="1.80827">
        <ele>1080.166</ele>
        <time>2019-04-08T01:52:43Z</time>
      </trkpt>
      <trkpt lat="42.27529" lon="1.80824">
        <ele>1082.128</ele>
        <time>2019-04-08T01:52:47Z</time>
      </trkpt>
      <trkpt lat="42.27538" lon="1.80821">
        <ele>1084.379</ele>
        <time>2019-04-08T01:52:51Z</time>
      </trkpt>
      <trkpt lat="42.27547" lon="1.80823">
        <ele>1086.205</ele>
        <time>2019-04-08T01:52:55Z</time>
      </trkpt>
      <trkpt lat="42.27557" lon="1.80825">
        <ele>1088.225</ele>
        <time>2019-04-08T01:52:59Z</time>
      </trkpt>
      <trkpt lat="42.27566" lon="1.80821">
        <ele>1090.208</ele>
        <time>2019-04-08T01:53:03Z</time>
      </trkpt>
      <trkpt lat="42.27574" lon="1.80813">
        <ele>1092.23</ele>
        <time>2019-04-08T01:53:07Z</time>
      </trkpt>
      <trkpt lat="42.27584" lon="1.80808">
        <ele>1094.272</ele>
        <time>2019-04-08T01:53:11Z</time>
      </trkpt>
      <trkpt lat="42.27592" lon="1.80812">
        <ele>1097.297</ele>
        <time>2019-04-08T01:53:14Z</time>
      </trkpt>
      <trkpt lat="42.276" lon="1.80817">
        <ele>1099.388</ele>
        <time>2019-04-08T01:53:18Z</time>
      </trkpt>
      <trkpt lat="42.27609" lon="1.80812">
        <ele>1106.368</ele>
        <time>2019-04-08T01:53:22Z</time>
      </trkpt>
      <trkpt lat="42.27619" lon="1.80811">
        <ele>1107.392</ele>
        <time>2019-04-08T01:53:26Z</time>
      </trkpt>
      <trkpt lat="42.27625" lon="1.8082">
        <ele>1109.231</ele>
        <time>2019-04-08T01:53:29Z</time>
      </trkpt>
      <trkpt lat="42.27634" lon="1.80827">
        <ele>1111.353</ele>
        <time>2019-04-08T01:53:34Z</time>
      </trkpt>
      <trkpt lat="42.27643" lon="1.80831">
        <ele>1113.233</ele>
        <time>2019-04-08T01:53:37Z</time>
      </trkpt>
      <trkpt lat="42.27651" lon="1.80838">
        <ele>1115.323</ele>
        <time>2019-04-08T01:53:41Z</time>
      </trkpt>
      <trkpt lat="42.27657" lon="1.80848">
        <ele>1117.315</ele>
        <time>2019-04-08T01:53:45Z</time>
      </trkpt>
      <trkpt lat="42.27663" lon="1.80858">
        <ele>1120.308</ele>
        <time>2019-04-08T01:53:49Z</time>
      </trkpt>
      <trkpt lat="42.2767" lon="1.80865">
        <ele>1123.176</ele>
        <time>2019-04-08T01:53:53Z</time>
      </trkpt>
      <trkpt lat="42.27679" lon="1.80862">
        <ele>1125.178</ele>
        <time>2019-04-08T01:53:56Z</time>
      </trkpt>
      <trkpt lat="42.27683" lon="1.8085">
        <ele>1128.283</ele>
        <time>2019-04-08T01:54:00Z</time>
      </trkpt>
      <trkpt lat="42.27687" lon="1.80839">
        <ele>1131.284</ele>
        <time>2019-04-08T01:54:04Z</time>
      </trkpt>
      <trkpt lat="42.27696" lon="1.80831">
        <ele>1132.284</ele>
        <time>2019-04-08T01:54:08Z</time>
      </trkpt>
      <trkpt lat="42.27697" lon="1.80818">
        <ele>1134.198</ele>
        <time>2019-04-08T01:54:12Z</time>
      </trkpt>
      <trkpt lat="42.277" lon="1.80805">
        <ele>1137.317</ele>
        <time>2019-04-08T01:54:16Z</time>
      </trkpt>
      <trkpt lat="42.27709" lon="1.808">
        <ele>1139.279</ele>
        <time>2019-04-08T01:54:20Z</time>
      </trkpt>
      <trkpt lat="42.27715" lon="1.8081">
        <ele>1142.247</ele>
        <time>2019-04-08T01:54:23Z</time>
      </trkpt>
      <trkpt lat="42.27724" lon="1.80812">
        <ele>1147.229</ele>
        <time>2019-04-08T01:54:27Z</time>
      </trkpt>
      <trkpt lat="42.27731" lon="1.80805">
        <ele>1152.221</ele>
        <time>2019-04-08T01:54:31Z</time>
      </trkpt>
      <trkpt lat="42.27724" lon="1.80797">
        <ele>1154.108</ele>
        <time>2019-04-08T01:54:35Z</time>
      </trkpt>
      <trkpt lat="42.27725" lon="1.80785">
        <ele>1156.257</ele>
        <time>2019-04-08T01:54:38Z</time>
      </trkpt>
      <trkpt lat="42.27726" lon="1.80772">
        <ele>1160.129</ele>
        <time>2019-04-08T01:54:42Z</time>
      </trkpt>
      <trkpt lat="42.27732" lon="1.80762">
        <ele>1163.164</ele>
        <time>2019-04-08T01:54:46Z</time>
      </trkpt>
      <trkpt lat="42.27738" lon="1.80753">
        <ele>1166.145</ele>
        <time>2019-04-08T01:54:50Z</time>
      </trkpt>
      <trkpt lat="42.27746" lon="1.80745">
        <ele>1168.355</ele>
        <time>2019-04-08T01:54:53Z</time>
      </trkpt>
      <trkpt lat="42.27753" lon="1.80755">
        <ele>1171.329</ele>
        <time>2019-04-08T01:54:57Z</time>
      </trkpt>
      <trkpt lat="42.27758" lon="1.80745">
        <ele>1175.218</ele>
        <time>2019-04-08T01:55:01Z</time>
      </trkpt>
      <trkpt lat="42.27764" lon="1.80734">
        <ele>1178.22</ele>
        <time>2019-04-08T01:55:05Z</time>
      </trkpt>
      <trkpt lat="42.27771" lon="1.80727">
        <ele>1181.921</ele>
        <time>2019-04-08T01:55:08Z</time>
      </trkpt>
      <trkpt lat="42.27776" lon="1.80714">
        <ele>1185.241</ele>
        <time>2019-04-08T01:55:13Z</time>
      </trkpt>
      <trkpt lat="42.27784" lon="1.80707">
        <ele>1188.305</ele>
        <time>2019-04-08T01:55:17Z</time>
      </trkpt>
      <trkpt lat="42.27786" lon="1.80695">
        <ele>1191.008</ele>
        <time>2019-04-08T01:55:20Z</time>
      </trkpt>
      <trkpt lat="42.27791" lon="1.80684">
        <ele>1196.275</ele>
        <time>2019-04-08T01:55:24Z</time>
      </trkpt>
      <trkpt lat="42.27785" lon="1.80673">
        <ele>1200.167</ele>
        <time>2019-04-08T01:55:28Z</time>
      </trkpt>
      <trkpt lat="42.27784" lon="1.80661">
        <ele>1203.392</ele>
        <time>2019-04-08T01:55:32Z</time>
      </trkpt>
      <trkpt lat="42.2779" lon="1.80652">
        <ele>1209.283</ele>
        <time>2019-04-08T01:55:35Z</time>
      </trkpt>
      <trkpt lat="42.27796" lon="1.80642">
        <ele>1214.943</ele>
        <time>2019-04-08T01:55:39Z</time>
      </trkpt>
      <trkpt lat="42.27794" lon="1.8063">
        <ele>1218.187</ele>
        <time>2019-04-08T01:55:43Z</time>
      </trkpt>
      <trkpt lat="42.27801" lon="1.80617">
        <ele>1224.316</ele>
        <time>2019-04-08T01:55:47Z</time>
      </trkpt>
      <trkpt lat="42.27803" lon="1.80604">
        <ele>1230.238</ele>
        <time>2019-04-08T01:55:51Z</time>
      </trkpt>
      <trkpt lat="42.27803" lon="1.80591">
        <ele>1234.049</ele>
        <time>2019-04-08T01:55:55Z</time>
      </trkpt>
      <trkpt lat="42.27806" lon="1.80578">
        <ele>1236.102</ele>
        <time>2019-04-08T01:55:59Z</time>
      </trkpt>
      <trkpt lat="42.27815" lon="1.80576">
        <ele>1239.222</ele>
        <time>2019-04-08T01:56:03Z</time>
      </trkpt>
      <trkpt lat="42.27822" lon="1.80584">
        <ele>1243.208</ele>
        <time>2019-04-08T01:56:07Z</time>
      </trkpt>
      <trkpt lat="42.27829" lon="1.80592">
        <ele>1244.287</ele>
        <time>2019-04-08T01:56:10Z</time>
      </trkpt>
      <trkpt lat="42.27837" lon="1.80598">
        <ele>1248.399</ele>
        <time>2019-04-08T01:56:14Z</time>
      </trkpt>
      <trkpt lat="42.2783" lon="1.8059">
        <ele>1251.254</ele>
        <time>2019-04-08T01:56:18Z</time>
      </trkpt>
      <trkpt lat="42.27827" lon="1.80577">
        <ele>1255.115</ele>
        <time>2019-04-08T01:56:21Z</time>
      </trkpt>
      <trkpt lat="42.2783" lon="1.80565">
        <ele>1256.065</ele>
        <time>2019-04-08T01:56:25Z</time>
      </trkpt>
      <trkpt lat="42.27829" lon="1.80553">
        <ele>1261.279</ele>
        <time>2019-04-08T01:56:29Z</time>
      </trkpt>
      <trkpt lat="42.27833" lon="1.80539">
        <ele>1262.368</ele>
        <time>2019-04-08T01:56:33Z</time>
      </trkpt>
      <trkpt lat="42.27834" lon="1.80526">
        <ele>1265.28</ele>
        <time>2019-04-08T01:56:37Z</time>
      </trkpt>
      <trkpt lat="42.27834" lon="1.80513">
        <ele>1267.275</ele>
        <time>2019-04-08T01:56:41Z</time>
      </trkpt>
      <trkpt lat="42.27834" lon="1.805">
        <ele>1270.228</ele>
        <time>2019-04-08T01:56:45Z</time>
      </trkpt>
      <trkpt lat="42.27842" lon="1.80493">
        <ele>1272.32</ele>
        <time>2019-04-08T01:56:49Z</time>
      </trkpt>
      <trkpt lat="42.27848" lon="1.80505">
        <ele>1273.108</ele>
        <time>2019-04-08T01:56:53Z</time>
      </trkpt>
      <trkpt lat="42.27853" lon="1.80515">
        <ele>1275.32</ele>
        <time>2019-04-08T01:56:56Z</time>
      </trkpt>
      <trkpt lat="42.27857" lon="1.80526">
        <ele>1277.182</ele>
        <time>2019-04-08T01:57:00Z</time>
      </trkpt>
      <trkpt lat="42.27861" lon="1.80524">
        <ele>1283.347</ele>
        <time>2019-04-08T01:57:02Z</time>
      </trkpt>
      <trkpt lat="42.27862" lon="1.80522">
        <ele>1283.248</ele>
        <time>2019-04-08T01:57:03Z</time>
      </trkpt>
      <trkpt lat="42.27862" lon="1.80519">
        <ele>1284.278</ele>
        <time>2019-04-08T01:57:04Z</time>
      </trkpt>
      <trkpt lat="42.27869" lon="1.80509">
        <ele>1287.122</ele>
        <time>2019-04-08T01:57:07Z</time>
      </trkpt>
      <trkpt lat="42.27871" lon="1.80509">
        <ele>1288.281</ele>
        <time>2019-04-08T01:57:08Z</time>
      </trkpt>
      <trkpt lat="42.27872" lon="1.80511">
        <ele>1288.263</ele>
        <time>2019-04-08T01:57:09Z</time>
      </trkpt>
      <trkpt lat="42.27874" lon="1.80511">
        <ele>1289.195</ele>
        <time>2019-04-08T01:57:10Z</time>
      </trkpt>
      <trkpt lat="42.27875" lon="1.80509">
        <ele>1290.249</ele>
        <time>2019-04-08T01:57:10Z</time>
      </trkpt>
      <trkpt lat="42.27875" lon="1.80506">
        <ele>1291.223</ele>
        <time>2019-04-08T01:57:11Z</time>
      </trkpt>
      <trkpt lat="42.27874" lon="1.80503">
        <ele>1292.208</ele>
        <time>2019-04-08T01:57:12Z</time>
      </trkpt>
      <trkpt lat="42.27873" lon="1.80501">
        <ele>1294.142</ele>
        <time>2019-04-08T01:57:13Z</time>
      </trkpt>
      <trkpt lat="42.27874" lon="1.80499">
        <ele>1294.094</ele>
        <time>2019-04-08T01:57:14Z</time>
      </trkpt>
      <trkpt lat="42.27875" lon="1.80496">
        <ele>1295.399</ele>
        <time>2019-04-08T01:57:15Z</time>
      </trkpt>
      <trkpt lat="42.27875" lon="1.80493">
        <ele>1297.26</ele>
        <time>2019-04-08T01:57:15Z</time>
      </trkpt>
      <trkpt lat="42.27876" lon="1.80481">
        <ele>1301.37</ele>
        <time>2019-04-08T01:57:19Z</time>
      </trkpt>
      <trkpt lat="42.27882" lon="1.8047">
        <ele>1302.254</ele>
        <time>2019-04-08T01:57:23Z</time>
      </trkpt>
      <trkpt lat="42.27882" lon="1.80464">
        <ele>1309.173</ele>
        <time>2019-04-08T01:57:25Z</time>
      </trkpt>
      <trkpt lat="42.27882" lon="1.80461">
        <ele>1310.315</ele>
        <time>2019-04-08T01:57:26Z</time>
      </trkpt>
      <trkpt lat="42.27882" lon="1.80457">
        <ele>1311.161</ele>
        <time>2019-04-08T01:57:27Z</time>
      </trkpt>
      <trkpt lat="42.27883" lon="1.80454">
        <ele>1311.321</ele>
        <time>2019-04-08T01:57:28Z</time>
      </trkpt>
      <trkpt lat="42.27884" lon="1.80451">
        <ele>1311.213</ele>
        <time>2019-04-08T01:57:29Z</time>
      </trkpt>
      <trkpt lat="42.27884" lon="1.80449">
        <ele>1312.008</ele>
        <time>2019-04-08T01:57:30Z</time>
      </trkpt>
      <trkpt lat="42.27884" lon="1.80445">
        <ele>1312.149</ele>
        <time>2019-04-08T01:57:31Z</time>
      </trkpt>
      <trkpt lat="42.27884" lon="1.80443">
        <ele>1313.221</ele>
        <time>2019-04-08T01:57:31Z</time>
      </trkpt>
      <trkpt lat="42.27885" lon="1.80439">
        <ele>1314.376</ele>
        <time>2019-04-08T01:57:32Z</time>
      </trkpt>
      <trkpt lat="42.27887" lon="1.80436">
        <ele>1314.247</ele>
        <time>2019-04-08T01:57:34Z</time>
      </trkpt>
      <trkpt lat="42.27889" lon="1.80433">
        <ele>1314.177</ele>
        <time>2019-04-08T01:57:35Z</time>
      </trkpt>
      <trkpt lat="42.2789" lon="1.80431">
        <ele>1315.171</ele>
        <time>2019-04-08T01:57:36Z</time>
      </trkpt>
      <trkpt lat="42.27892" lon="1.80429">
        <ele>1316.23</ele>
        <time>2019-04-08T01:57:37Z</time>
      </trkpt>
      <trkpt lat="42.27893" lon="1.80427">
        <ele>1317.132</ele>
        <time>2019-04-08T01:57:37Z</time>
      </trkpt>
      <trkpt lat="42.27895" lon="1.80425">
        <ele>1318.226</ele>
        <time>2019-04-08T01:57:38Z</time>
      </trkpt>
      <trkpt lat="42.27897" lon="1.80427">
        <ele>1319.347</ele>
        <time>2019-04-08T01:57:39Z</time>
      </trkpt>
      <trkpt lat="42.27902" lon="1.80425">
        <ele>1322.211</ele>
        <time>2019-04-08T01:57:41Z</time>
      </trkpt>
      <trkpt lat="42.27904" lon="1.80427">
        <ele>1323.308</ele>
        <time>2019-04-08T01:57:42Z</time>
      </trkpt>
      <trkpt lat="42.27906" lon="1.80424">
        <ele>1323.255</ele>
        <time>2019-04-08T01:57:43Z</time>
      </trkpt>
      <trkpt lat="42.27912" lon="1.80424">
        <ele>1326.117</ele>
        <time>2019-04-08T01:57:46Z</time>
      </trkpt>
      <trkpt lat="42.27913" lon="1.80422">
        <ele>1328.262</ele>
        <time>2019-04-08T01:57:47Z</time>
      </trkpt>
      <trkpt lat="42.27914" lon="1.80419">
        <ele>1330.123</ele>
        <time>2019-04-08T01:57:48Z</time>
      </trkpt>
      <trkpt lat="42.27915" lon="1.80416">
        <ele>1331.133</ele>
        <time>2019-04-08T01:57:49Z</time>
      </trkpt>
      <trkpt lat="42.27917" lon="1.80415">
        <ele>1331.097</ele>
        <time>2019-04-08T01:57:49Z</time>
      </trkpt>
      <trkpt lat="42.27922" lon="1.80405">
        <ele>1336.256</ele>
        <time>2019-04-08T01:57:53Z</time>
      </trkpt>
      <trkpt lat="42.2793" lon="1.80397">
        <ele>1338.268</ele>
        <time>2019-04-08T01:57:57Z</time>
      </trkpt>
      <trkpt lat="42.27933" lon="1.80385">
        <ele>1342.251</ele>
        <time>2019-04-08T01:58:01Z</time>
      </trkpt>
      <trkpt lat="42.27935" lon="1.80384">
        <ele>1344.201</ele>
        <time>2019-04-08T01:58:01Z</time>
      </trkpt>
      <trkpt lat="42.27939" lon="1.80382">
        <ele>1345.311</ele>
        <time>2019-04-08T01:58:03Z</time>
      </trkpt>
      <trkpt lat="42.2794" lon="1.8038">
        <ele>1345.208</ele>
        <time>2019-04-08T01:58:04Z</time>
      </trkpt>
      <trkpt lat="42.27942" lon="1.80379">
        <ele>1345.228</ele>
        <time>2019-04-08T01:58:05Z</time>
      </trkpt>
      <trkpt lat="42.27945" lon="1.80378">
        <ele>1347.25</ele>
        <time>2019-04-08T01:58:06Z</time>
      </trkpt>
      <trkpt lat="42.27947" lon="1.80377">
        <ele>1348.335</ele>
        <time>2019-04-08T01:58:06Z</time>
      </trkpt>
      <trkpt lat="42.27949" lon="1.80376">
        <ele>1349.196</ele>
        <time>2019-04-08T01:58:07Z</time>
      </trkpt>
      <trkpt lat="42.2795" lon="1.80373">
        <ele>1350.126</ele>
        <time>2019-04-08T01:58:08Z</time>
      </trkpt>
      <trkpt lat="42.27952" lon="1.80371">
        <ele>1350.21</ele>
        <time>2019-04-08T01:58:09Z</time>
      </trkpt>
      <trkpt lat="42.27957" lon="1.80368">
        <ele>1350.159</ele>
        <time>2019-04-08T01:58:11Z</time>
      </trkpt>
      <trkpt lat="42.27961" lon="1.80365">
        <ele>1351.251</ele>
        <time>2019-04-08T01:58:13Z</time>
      </trkpt>
      <trkpt lat="42.2797" lon="1.80364">
        <ele>1356.277</ele>
        <time>2019-04-08T01:58:17Z</time>
      </trkpt>
      <trkpt lat="42.27972" lon="1.80362">
        <ele>1356.461</ele>
        <time>2019-04-08T01:58:18Z</time>
      </trkpt>
      <trkpt lat="42.27974" lon="1.8036">
        <ele>1356.227</ele>
        <time>2019-04-08T01:58:19Z</time>
      </trkpt>
      <trkpt lat="42.27976" lon="1.80358">
        <ele>1357.208</ele>
        <time>2019-04-08T01:58:20Z</time>
      </trkpt>
      <trkpt lat="42.27983" lon="1.8035">
        <ele>1361.28</ele>
        <time>2019-04-08T01:58:24Z</time>
      </trkpt>
      <trkpt lat="42.27986" lon="1.80349">
        <ele>1361.132</ele>
        <time>2019-04-08T01:58:25Z</time>
      </trkpt>
      <trkpt lat="42.27988" lon="1.80349">
        <ele>1362.267</ele>
        <time>2019-04-08T01:58:25Z</time>
      </trkpt>
      <trkpt lat="42.2799" lon="1.80347">
        <ele>1363.318</ele>
        <time>2019-04-08T01:58:26Z</time>
      </trkpt>
      <trkpt lat="42.27992" lon="1.80347">
        <ele>1363.828</ele>
        <time>2019-04-08T01:58:27Z</time>
      </trkpt>
      <trkpt lat="42.27994" lon="1.80348">
        <ele>1364.212</ele>
        <time>2019-04-08T01:58:28Z</time>
      </trkpt>
      <trkpt lat="42.27997" lon="1.80344">
        <ele>1366.231</ele>
        <time>2019-04-08T01:58:30Z</time>
      </trkpt>
      <trkpt lat="42.28" lon="1.80343">
        <ele>1366.363</ele>
        <time>2019-04-08T01:58:31Z</time>
      </trkpt>
      <trkpt lat="42.28008" lon="1.80336">
        <ele>1367.269</ele>
        <time>2019-04-08T01:58:35Z</time>
      </trkpt>
      <trkpt lat="42.28016" lon="1.80328">
        <ele>1366.404</ele>
        <time>2019-04-08T01:58:39Z</time>
      </trkpt>
      <trkpt lat="42.28023" lon="1.80321">
        <ele>1367.324</ele>
        <time>2019-04-08T01:58:42Z</time>
      </trkpt>
      <trkpt lat="42.28032" lon="1.80316">
        <ele>1368.108</ele>
        <time>2019-04-08T01:58:46Z</time>
      </trkpt>
      <trkpt lat="42.28041" lon="1.80311">
        <ele>1369.139</ele>
        <time>2019-04-08T01:58:50Z</time>
      </trkpt>
      <trkpt lat="42.28048" lon="1.80303">
        <ele>1371.251</ele>
        <time>2019-04-08T01:58:54Z</time>
      </trkpt>
      <trkpt lat="42.28054" lon="1.80293">
        <ele>1371.216</ele>
        <time>2019-04-08T01:58:58Z</time>
      </trkpt>
      <trkpt lat="42.28055" lon="1.80281">
        <ele>1374.377</ele>
        <time>2019-04-08T01:59:01Z</time>
      </trkpt>
      <trkpt lat="42.28056" lon="1.80279">
        <ele>1374.047</ele>
        <time>2019-04-08T01:59:02Z</time>
      </trkpt>
      <trkpt lat="42.28057" lon="1.80276">
        <ele>1375.251</ele>
        <time>2019-04-08T01:59:03Z</time>
      </trkpt>
      <trkpt lat="42.28057" lon="1.80273">
        <ele>1376.46</ele>
        <time>2019-04-08T01:59:04Z</time>
      </trkpt>
      <trkpt lat="42.28058" lon="1.8027">
        <ele>1376.172</ele>
        <time>2019-04-08T01:59:05Z</time>
      </trkpt>
      <trkpt lat="42.28058" lon="1.80267">
        <ele>1376.256</ele>
        <time>2019-04-08T01:59:06Z</time>
      </trkpt>
      <trkpt lat="42.2806" lon="1.80253">
        <ele>1376.259</ele>
        <time>2019-04-08T01:59:10Z</time>
      </trkpt>
      <trkpt lat="42.28061" lon="1.80242">
        <ele>1376.214</ele>
        <time>2019-04-08T01:59:13Z</time>
      </trkpt>
      <trkpt lat="42.28062" lon="1.80239">
        <ele>1376.108</ele>
        <time>2019-04-08T01:59:14Z</time>
      </trkpt>
      <trkpt lat="42.28062" lon="1.80235">
        <ele>1376.198</ele>
        <time>2019-04-08T01:59:15Z</time>
      </trkpt>
      <trkpt lat="42.28062" lon="1.80231">
        <ele>1376.13</ele>
        <time>2019-04-08T01:59:16Z</time>
      </trkpt>
      <trkpt lat="42.28061" lon="1.80223">
        <ele>1376.135</ele>
        <time>2019-04-08T01:59:19Z</time>
      </trkpt>
      <trkpt lat="42.2806" lon="1.8022">
        <ele>1377.476</ele>
        <time>2019-04-08T01:59:20Z</time>
      </trkpt>
      <trkpt lat="42.28059" lon="1.80217">
        <ele>1378.286</ele>
        <time>2019-04-08T01:59:21Z</time>
      </trkpt>
      <trkpt lat="42.28058" lon="1.80214">
        <ele>1378.19</ele>
        <time>2019-04-08T01:59:22Z</time>
      </trkpt>
      <trkpt lat="42.28059" lon="1.80211">
        <ele>1378.369</ele>
        <time>2019-04-08T01:59:22Z</time>
      </trkpt>
      <trkpt lat="42.28058" lon="1.80208">
        <ele>1378.121</ele>
        <time>2019-04-08T01:59:24Z</time>
      </trkpt>
      <trkpt lat="42.28059" lon="1.80204">
        <ele>1378.224</ele>
        <time>2019-04-08T01:59:25Z</time>
      </trkpt>
      <trkpt lat="42.2806" lon="1.802">
        <ele>1378.204</ele>
        <time>2019-04-08T01:59:26Z</time>
      </trkpt>
      <trkpt lat="42.28061" lon="1.80195">
        <ele>1379.214</ele>
        <time>2019-04-08T01:59:27Z</time>
      </trkpt>
      <trkpt lat="42.28061" lon="1.80193">
        <ele>1379.008</ele>
        <time>2019-04-08T01:59:28Z</time>
      </trkpt>
      <trkpt lat="42.28061" lon="1.80189">
        <ele>1379.185</ele>
        <time>2019-04-08T01:59:29Z</time>
      </trkpt>
      <trkpt lat="42.28061" lon="1.80186">
        <ele>1378.367</ele>
        <time>2019-04-08T01:59:30Z</time>
      </trkpt>
      <trkpt lat="42.2806" lon="1.80183">
        <ele>1378.282</ele>
        <time>2019-04-08T01:59:31Z</time>
      </trkpt>
      <trkpt lat="42.28059" lon="1.8018">
        <ele>1378.323</ele>
        <time>2019-04-08T01:59:32Z</time>
      </trkpt>
      <trkpt lat="42.28059" lon="1.80177">
        <ele>1379.143</ele>
        <time>2019-04-08T01:59:33Z</time>
      </trkpt>
      <trkpt lat="42.28059" lon="1.80174">
        <ele>1379.237</ele>
        <time>2019-04-08T01:59:34Z</time>
      </trkpt>
      <trkpt lat="42.28059" lon="1.8017">
        <ele>1379.166</ele>
        <time>2019-04-08T01:59:35Z</time>
      </trkpt>
      <trkpt lat="42.28059" lon="1.80166">
        <ele>1379.198</ele>
        <time>2019-04-08T01:59:36Z</time>
      </trkpt>
      <trkpt lat="42.28059" lon="1.80163">
        <ele>1379.286</ele>
        <time>2019-04-08T01:59:37Z</time>
      </trkpt>
      <trkpt lat="42.2806" lon="1.8016">
        <ele>1379.26</ele>
        <time>2019-04-08T01:59:38Z</time>
      </trkpt>
      <trkpt lat="42.28059" lon="1.80156">
        <ele>1379.026</ele>
        <time>2019-04-08T01:59:39Z</time>
      </trkpt>
      <trkpt lat="42.28058" lon="1.80152">
        <ele>1379.208</ele>
        <time>2019-04-08T01:59:40Z</time>
      </trkpt>
      <trkpt lat="42.2806" lon="1.80143">
        <ele>1377.221</ele>
        <time>2019-04-08T01:59:43Z</time>
      </trkpt>
      <trkpt lat="42.2806" lon="1.80139">
        <ele>1377.183</ele>
        <time>2019-04-08T01:59:44Z</time>
      </trkpt>
      <trkpt lat="42.28062" lon="1.80136">
        <ele>1377.118</ele>
        <time>2019-04-08T01:59:45Z</time>
      </trkpt>
      <trkpt lat="42.28063" lon="1.80133">
        <ele>1377.239</ele>
        <time>2019-04-08T01:59:46Z</time>
      </trkpt>
      <trkpt lat="42.28064" lon="1.80129">
        <ele>1378.289</ele>
        <time>2019-04-08T01:59:48Z</time>
      </trkpt>
      <trkpt lat="42.28064" lon="1.80126">
        <ele>1379.173</ele>
        <time>2019-04-08T01:59:49Z</time>
      </trkpt>
      <trkpt lat="42.28064" lon="1.80122">
        <ele>1379.332</ele>
        <time>2019-04-08T01:59:50Z</time>
      </trkpt>
      <trkpt lat="42.28064" lon="1.8012">
        <ele>1379.884</ele>
        <time>2019-04-08T01:59:50Z</time>
      </trkpt>
      <trkpt lat="42.28064" lon="1.80116">
        <ele>1380.389</ele>
        <time>2019-04-08T01:59:51Z</time>
      </trkpt>
      <trkpt lat="42.28064" lon="1.80113">
        <ele>1381.306</ele>
        <time>2019-04-08T01:59:52Z</time>
      </trkpt>
      <trkpt lat="42.28064" lon="1.8011">
        <ele>1381.126</ele>
        <time>2019-04-08T01:59:53Z</time>
      </trkpt>
      <trkpt lat="42.28064" lon="1.80106">
        <ele>1381.308</ele>
        <time>2019-04-08T01:59:54Z</time>
      </trkpt>
      <trkpt lat="42.28065" lon="1.80102">
        <ele>1382.021</ele>
        <time>2019-04-08T01:59:56Z</time>
      </trkpt>
      <trkpt lat="42.28065" lon="1.80099">
        <ele>1382.113</ele>
        <time>2019-04-08T01:59:57Z</time>
      </trkpt>
      <trkpt lat="42.28065" lon="1.80095">
        <ele>1382.378</ele>
        <time>2019-04-08T01:59:58Z</time>
      </trkpt>
      <trkpt lat="42.28065" lon="1.80092">
        <ele>1382.299</ele>
        <time>2019-04-08T01:59:59Z</time>
      </trkpt>
      <trkpt lat="42.28065" lon="1.80088">
        <ele>1382.029</ele>
        <time>2019-04-08T02:00:00Z</time>
      </trkpt>
      <trkpt lat="42.28064" lon="1.80085">
        <ele>1382.313</ele>
        <time>2019-04-08T02:00:01Z</time>
      </trkpt>
      <trkpt lat="42.28064" lon="1.80081">
        <ele>1382.342</ele>
        <time>2019-04-08T02:00:02Z</time>
      </trkpt>
      <trkpt lat="42.28064" lon="1.80078">
        <ele>1383.134</ele>
        <time>2019-04-08T02:00:03Z</time>
      </trkpt>
      <trkpt lat="42.28064" lon="1.80075">
        <ele>1383.288</ele>
        <time>2019-04-08T02:00:04Z</time>
      </trkpt>
      <trkpt lat="42.28064" lon="1.80072">
        <ele>1383.124</ele>
        <time>2019-04-08T02:00:04Z</time>
      </trkpt>
      <trkpt lat="42.28063" lon="1.80069">
        <ele>1383.226</ele>
        <time>2019-04-08T02:00:05Z</time>
      </trkpt>
      <trkpt lat="42.28063" lon="1.80066">
        <ele>1383.308</ele>
        <time>2019-04-08T02:00:07Z</time>
      </trkpt>
      <trkpt lat="42.28061" lon="1.80063">
        <ele>1383.221</ele>
        <time>2019-04-08T02:00:08Z</time>
      </trkpt>
      <trkpt lat="42.28061" lon="1.80059">
        <ele>1383.143</ele>
        <time>2019-04-08T02:00:09Z</time>
      </trkpt>
      <trkpt lat="42.28061" lon="1.80055">
        <ele>1383.248</ele>
        <time>2019-04-08T02:00:10Z</time>
      </trkpt>
      <trkpt lat="42.2806" lon="1.80051">
        <ele>1383.119</ele>
        <time>2019-04-08T02:00:11Z</time>
      </trkpt>
      <trkpt lat="42.28061" lon="1.80048">
        <ele>1383.219</ele>
        <time>2019-04-08T02:00:12Z</time>
      </trkpt>
      <trkpt lat="42.2806" lon="1.80045">
        <ele>1383.393</ele>
        <time>2019-04-08T02:00:13Z</time>
      </trkpt>
      <trkpt lat="42.2806" lon="1.80041">
        <ele>1382.262</ele>
        <time>2019-04-08T02:00:14Z</time>
      </trkpt>
      <trkpt lat="42.28061" lon="1.80038">
        <ele>1382.114</ele>
        <time>2019-04-08T02:00:15Z</time>
      </trkpt>
      <trkpt lat="42.28061" lon="1.80034">
        <ele>1382.233</ele>
        <time>2019-04-08T02:00:16Z</time>
      </trkpt>
      <trkpt lat="42.28062" lon="1.8003">
        <ele>1381.123</ele>
        <time>2019-04-08T02:00:17Z</time>
      </trkpt>
      <trkpt lat="42.28063" lon="1.80027">
        <ele>1382.315</ele>
        <time>2019-04-08T02:00:18Z</time>
      </trkpt>
      <trkpt lat="42.28064" lon="1.80023">
        <ele>1382.108</ele>
        <time>2019-04-08T02:00:20Z</time>
      </trkpt>
      <trkpt lat="42.28065" lon="1.8002">
        <ele>1382.336</ele>
        <time>2019-04-08T02:00:21Z</time>
      </trkpt>
      <trkpt lat="42.28066" lon="1.80017">
        <ele>1382.388</ele>
        <time>2019-04-08T02:00:21Z</time>
      </trkpt>
      <trkpt lat="42.28066" lon="1.80014">
        <ele>1383.223</ele>
        <time>2019-04-08T02:00:22Z</time>
      </trkpt>
      <trkpt lat="42.28066" lon="1.80012">
        <ele>1383.214</ele>
        <time>2019-04-08T02:00:23Z</time>
      </trkpt>
      <trkpt lat="42.28067" lon="1.80009">
        <ele>1383.354</ele>
        <time>2019-04-08T02:00:24Z</time>
      </trkpt>
      <trkpt lat="42.28067" lon="1.80006">
        <ele>1383.288</ele>
        <time>2019-04-08T02:00:25Z</time>
      </trkpt>
      <trkpt lat="42.28067" lon="1.80003">
        <ele>1384.197</ele>
        <time>2019-04-08T02:00:26Z</time>
      </trkpt>
      <trkpt lat="42.28067" lon="1.80001">
        <ele>1384.269</ele>
        <time>2019-04-08T02:00:26Z</time>
      </trkpt>
      <trkpt lat="42.28068" lon="1.79998">
        <ele>1384.241</ele>
        <time>2019-04-08T02:00:27Z</time>
      </trkpt>
      <trkpt lat="42.28068" lon="1.79995">
        <ele>1384.381</ele>
        <time>2019-04-08T02:00:28Z</time>
      </trkpt>
      <trkpt lat="42.28068" lon="1.79992">
        <ele>1384.209</ele>
        <time>2019-04-08T02:00:29Z</time>
      </trkpt>
      <trkpt lat="42.28069" lon="1.79989">
        <ele>1384.108</ele>
        <time>2019-04-08T02:00:30Z</time>
      </trkpt>
      <trkpt lat="42.2807" lon="1.79985">
        <ele>1384.127</ele>
        <time>2019-04-08T02:00:31Z</time>
      </trkpt>
      <trkpt lat="42.2807" lon="1.79982">
        <ele>1384.129</ele>
        <time>2019-04-08T02:00:32Z</time>
      </trkpt>
      <trkpt lat="42.28071" lon="1.79978">
        <ele>1383.244</ele>
        <time>2019-04-08T02:00:33Z</time>
      </trkpt>
      <trkpt lat="42.28072" lon="1.79974">
        <ele>1383.155</ele>
        <time>2019-04-08T02:00:35Z</time>
      </trkpt>
      <trkpt lat="42.28073" lon="1.79971">
        <ele>1383.235</ele>
        <time>2019-04-08T02:00:36Z</time>
      </trkpt>
      <trkpt lat="42.28073" lon="1.79968">
        <ele>1383.139</ele>
        <time>2019-04-08T02:00:37Z</time>
      </trkpt>
      <trkpt lat="42.28073" lon="1.79963">
        <ele>1383.198</ele>
        <time>2019-04-08T02:00:38Z</time>
      </trkpt>
      <trkpt lat="42.28072" lon="1.7996">
        <ele>1382.06</ele>
        <time>2019-04-08T02:00:39Z</time>
      </trkpt>
      <trkpt lat="42.28072" lon="1.79957">
        <ele>1382.149</ele>
        <time>2019-04-08T02:00:40Z</time>
      </trkpt>
      <trkpt lat="42.28072" lon="1.79954">
        <ele>1382.202</ele>
        <time>2019-04-08T02:00:41Z</time>
      </trkpt>
      <trkpt lat="42.28072" lon="1.79952">
        <ele>1383.022</ele>
        <time>2019-04-08T02:00:41Z</time>
      </trkpt>
      <trkpt lat="42.28072" lon="1.79948">
        <ele>1384.208</ele>
        <time>2019-04-08T02:00:42Z</time>
      </trkpt>
      <trkpt lat="42.28072" lon="1.79946">
        <ele>1384.137</ele>
        <time>2019-04-08T02:00:43Z</time>
      </trkpt>
      <trkpt lat="42.28073" lon="1.79943">
        <ele>1384.289</ele>
        <time>2019-04-08T02:00:44Z</time>
      </trkpt>
      <trkpt lat="42.28074" lon="1.7994">
        <ele>1384.384</ele>
        <time>2019-04-08T02:00:45Z</time>
      </trkpt>
      <trkpt lat="42.28075" lon="1.79937">
        <ele>1384.395</ele>
        <time>2019-04-08T02:00:46Z</time>
      </trkpt>
      <trkpt lat="42.28076" lon="1.79933">
        <ele>1384.215</ele>
        <time>2019-04-08T02:00:47Z</time>
      </trkpt>
      <trkpt lat="42.28077" lon="1.7993">
        <ele>1385.029</ele>
        <time>2019-04-08T02:00:48Z</time>
      </trkpt>
      <trkpt lat="42.28078" lon="1.79926">
        <ele>1385.328</ele>
        <time>2019-04-08T02:00:49Z</time>
      </trkpt>
      <trkpt lat="42.28079" lon="1.79922">
        <ele>1385.32</ele>
        <time>2019-04-08T02:00:51Z</time>
      </trkpt>
      <trkpt lat="42.2808" lon="1.79919">
        <ele>1385.387</ele>
        <time>2019-04-08T02:00:52Z</time>
      </trkpt>
      <trkpt lat="42.2808" lon="1.79915">
        <ele>1386.442</ele>
        <time>2019-04-08T02:00:53Z</time>
      </trkpt>
      <trkpt lat="42.2808" lon="1.79912">
        <ele>1386.226</ele>
        <time>2019-04-08T02:00:54Z</time>
      </trkpt>
      <trkpt lat="42.28079" lon="1.79909">
        <ele>1386.108</ele>
        <time>2019-04-08T02:00:55Z</time>
      </trkpt>
      <trkpt lat="42.28078" lon="1.79906">
        <ele>1385.211</ele>
        <time>2019-04-08T02:00:56Z</time>
      </trkpt>
      <trkpt lat="42.28078" lon="1.79901">
        <ele>1385.253</ele>
        <time>2019-04-08T02:00:57Z</time>
      </trkpt>
      <trkpt lat="42.28079" lon="1.79897">
        <ele>1385.498</ele>
        <time>2019-04-08T02:00:58Z</time>
      </trkpt>
      <trkpt lat="42.28079" lon="1.79893">
        <ele>1385.229</ele>
        <time>2019-04-08T02:00:59Z</time>
      </trkpt>
      <trkpt lat="42.28078" lon="1.79889">
        <ele>1385.299</ele>
        <time>2019-04-08T02:01:01Z</time>
      </trkpt>
      <trkpt lat="42.28078" lon="1.79885">
        <ele>1385.373</ele>
        <time>2019-04-08T02:01:02Z</time>
      </trkpt>
      <trkpt lat="42.28078" lon="1.79881">
        <ele>1385.312</ele>
        <time>2019-04-08T02:01:03Z</time>
      </trkpt>
      <trkpt lat="42.28077" lon="1.79878">
        <ele>1385.094</ele>
        <time>2019-04-08T02:01:04Z</time>
      </trkpt>
      <trkpt lat="42.28076" lon="1.79875">
        <ele>1385.344</ele>
        <time>2019-04-08T02:01:05Z</time>
      </trkpt>
      <trkpt lat="42.28075" lon="1.79871">
        <ele>1385.205</ele>
        <time>2019-04-08T02:01:06Z</time>
      </trkpt>
      <trkpt lat="42.28074" lon="1.79867">
        <ele>1384.115</ele>
        <time>2019-04-08T02:01:07Z</time>
      </trkpt>
      <trkpt lat="42.28073" lon="1.79863">
        <ele>1383.108</ele>
        <time>2019-04-08T02:01:09Z</time>
      </trkpt>
      <trkpt lat="42.28072" lon="1.79859">
        <ele>1383.377</ele>
        <time>2019-04-08T02:01:10Z</time>
      </trkpt>
      <trkpt lat="42.28072" lon="1.79855">
        <ele>1383.029</ele>
        <time>2019-04-08T02:01:11Z</time>
      </trkpt>
      <trkpt lat="42.28071" lon="1.79852">
        <ele>1383.074</ele>
        <time>2019-04-08T02:01:12Z</time>
      </trkpt>
      <trkpt lat="42.28071" lon="1.79848">
        <ele>1383.385</ele>
        <time>2019-04-08T02:01:13Z</time>
      </trkpt>
      <trkpt lat="42.2807" lon="1.79844">
        <ele>1383.185</ele>
        <time>2019-04-08T02:01:14Z</time>
      </trkpt>
      <trkpt lat="42.2807" lon="1.7984">
        <ele>1383.399</ele>
        <time>2019-04-08T02:01:16Z</time>
      </trkpt>
      <trkpt lat="42.2807" lon="1.79836">
        <ele>1383.178</ele>
        <time>2019-04-08T02:01:17Z</time>
      </trkpt>
      <trkpt lat="42.2807" lon="1.79833">
        <ele>1383.25</ele>
        <time>2019-04-08T02:01:18Z</time>
      </trkpt>
      <trkpt lat="42.2807" lon="1.7983">
        <ele>1384.269</ele>
        <time>2019-04-08T02:01:19Z</time>
      </trkpt>
      <trkpt lat="42.2807" lon="1.79827">
        <ele>1384.404</ele>
        <time>2019-04-08T02:01:20Z</time>
      </trkpt>
      <trkpt lat="42.2807" lon="1.79824">
        <ele>1384.224</ele>
        <time>2019-04-08T02:01:20Z</time>
      </trkpt>
      <trkpt lat="42.2807" lon="1.79821">
        <ele>1384.208</ele>
        <time>2019-04-08T02:01:21Z</time>
      </trkpt>
      <trkpt lat="42.2807" lon="1.79818">
        <ele>1384.259</ele>
        <time>2019-04-08T02:01:22Z</time>
      </trkpt>
      <trkpt lat="42.28069" lon="1.79816">
        <ele>1384.281</ele>
        <time>2019-04-08T02:01:23Z</time>
      </trkpt>
      <trkpt lat="42.28068" lon="1.79814">
        <ele>1384.366</ele>
        <time>2019-04-08T02:01:24Z</time>
      </trkpt>
      <trkpt lat="42.28067" lon="1.79811">
        <ele>1384.287</ele>
        <time>2019-04-08T02:01:25Z</time>
      </trkpt>
      <trkpt lat="42.28066" lon="1.79807">
        <ele>1381.327</ele>
        <time>2019-04-08T02:01:26Z</time>
      </trkpt>
      <trkpt lat="42.28066" lon="1.79804">
        <ele>1381.191</ele>
        <time>2019-04-08T02:01:27Z</time>
      </trkpt>
      <trkpt lat="42.28066" lon="1.798">
        <ele>1382.23</ele>
        <time>2019-04-08T02:01:28Z</time>
      </trkpt>
      <trkpt lat="42.28066" lon="1.79796">
        <ele>1382.132</ele>
        <time>2019-04-08T02:01:29Z</time>
      </trkpt>
      <trkpt lat="42.28066" lon="1.79792">
        <ele>1382.022</ele>
        <time>2019-04-08T02:01:30Z</time>
      </trkpt>
      <trkpt lat="42.28066" lon="1.79788">
        <ele>1382.162</ele>
        <time>2019-04-08T02:01:31Z</time>
      </trkpt>
      <trkpt lat="42.28066" lon="1.79786">
        <ele>1382.108</ele>
        <time>2019-04-08T02:01:32Z</time>
      </trkpt>
      <trkpt lat="42.28066" lon="1.79781">
        <ele>1382.308</ele>
        <time>2019-04-08T02:01:33Z</time>
      </trkpt>
      <trkpt lat="42.28066" lon="1.79778">
        <ele>1382.045</ele>
        <time>2019-04-08T02:01:34Z</time>
      </trkpt>
      <trkpt lat="42.28065" lon="1.79764">
        <ele>1381.297</ele>
        <time>2019-04-08T02:01:38Z</time>
      </trkpt>
      <trkpt lat="42.28063" lon="1.79752">
        <ele>1381.492</ele>
        <time>2019-04-08T02:01:42Z</time>
      </trkpt>
      <trkpt lat="42.28063" lon="1.79748">
        <ele>1381.373</ele>
        <time>2019-04-08T02:01:43Z</time>
      </trkpt>
      <trkpt lat="42.28061" lon="1.7974">
        <ele>1384.123</ele>
        <time>2019-04-08T02:01:46Z</time>
      </trkpt>
      <trkpt lat="42.2806" lon="1.79728">
        <ele>1385.297</ele>
        <time>2019-04-08T02:01:49Z</time>
      </trkpt>
      <trkpt lat="42.2805" lon="1.79724">
        <ele>1386.246</ele>
        <time>2019-04-08T02:01:54Z</time>
      </trkpt>
      <trkpt lat="42.28047" lon="1.7972">
        <ele>1387.028</ele>
        <time>2019-04-08T02:01:55Z</time>
      </trkpt>
      <trkpt lat="42.28047" lon="1.79718">
        <ele>1387.121</ele>
        <time>2019-04-08T02:01:56Z</time>
      </trkpt>
      <trkpt lat="42.28048" lon="1.79715">
        <ele>1387.241</ele>
        <time>2019-04-08T02:01:57Z</time>
      </trkpt>
      <trkpt lat="42.2805" lon="1.79712">
        <ele>1388.305</ele>
        <time>2019-04-08T02:01:58Z</time>
      </trkpt>
      <trkpt lat="42.2805" lon="1.79709">
        <ele>1389.108</ele>
        <time>2019-04-08T02:01:59Z</time>
      </trkpt>
      <trkpt lat="42.28048" lon="1.79708">
        <ele>1392.125</ele>
        <time>2019-04-08T02:02:00Z</time>
      </trkpt>
      <trkpt lat="42.28046" lon="1.79708">
        <ele>1392.057</ele>
        <time>2019-04-08T02:02:00Z</time>
      </trkpt>
      <trkpt lat="42.28041" lon="1.79705">
        <ele>1394.312</ele>
        <time>2019-04-08T02:02:02Z</time>
      </trkpt>
      <trkpt lat="42.2804" lon="1.79703">
        <ele>1395.013</ele>
        <time>2019-04-08T02:02:03Z</time>
      </trkpt>
      <trkpt lat="42.28038" lon="1.79701">
        <ele>1396.273</ele>
        <time>2019-04-08T02:02:04Z</time>
      </trkpt>
      <trkpt lat="42.28037" lon="1.79699">
        <ele>1397.177</ele>
        <time>2019-04-08T02:02:05Z</time>
      </trkpt>
      <trkpt lat="42.28035" lon="1.797">
        <ele>1397.176</ele>
        <time>2019-04-08T02:02:06Z</time>
      </trkpt>
      <trkpt lat="42.28032" lon="1.79699">
        <ele>1397.358</ele>
        <time>2019-04-08T02:02:07Z</time>
      </trkpt>
      <trkpt lat="42.28031" lon="1.79697">
        <ele>1397.295</ele>
        <time>2019-04-08T02:02:07Z</time>
      </trkpt>
      <trkpt lat="42.2803" lon="1.79696">
        <ele>1398.249</ele>
        <time>2019-04-08T02:02:08Z</time>
      </trkpt>
      <trkpt lat="42.28023" lon="1.7969">
        <ele>1401.323</ele>
        <time>2019-04-08T02:02:11Z</time>
      </trkpt>
      <trkpt lat="42.28023" lon="1.79687">
        <ele>1401.208</ele>
        <time>2019-04-08T02:02:12Z</time>
      </trkpt>
      <trkpt lat="42.28024" lon="1.79685">
        <ele>1402.352</ele>
        <time>2019-04-08T02:02:13Z</time>
      </trkpt>
      <trkpt lat="42.28026" lon="1.79683">
        <ele>1402.374</ele>
        <time>2019-04-08T02:02:13Z</time>
      </trkpt>
      <trkpt lat="42.28027" lon="1.79681">
        <ele>1403.039</ele>
        <time>2019-04-08T02:02:14Z</time>
      </trkpt>
      <trkpt lat="42.28029" lon="1.7968">
        <ele>1403.28</ele>
        <time>2019-04-08T02:02:15Z</time>
      </trkpt>
      <trkpt lat="42.28031" lon="1.79678">
        <ele>1403.27</ele>
        <time>2019-04-08T02:02:16Z</time>
      </trkpt>
      <trkpt lat="42.28033" lon="1.79677">
        <ele>1404.334</ele>
        <time>2019-04-08T02:02:17Z</time>
      </trkpt>
      <trkpt lat="42.28037" lon="1.79674">
        <ele>1404.173</ele>
        <time>2019-04-08T02:02:19Z</time>
      </trkpt>
      <trkpt lat="42.28039" lon="1.79674">
        <ele>1405.065</ele>
        <time>2019-04-08T02:02:20Z</time>
      </trkpt>
      <trkpt lat="42.28042" lon="1.79673">
        <ele>1405.239</ele>
        <time>2019-04-08T02:02:21Z</time>
      </trkpt>
      <trkpt lat="42.28044" lon="1.79672">
        <ele>1405.201</ele>
        <time>2019-04-08T02:02:22Z</time>
      </trkpt>
      <trkpt lat="42.28046" lon="1.7967">
        <ele>1406.021</ele>
        <time>2019-04-08T02:02:23Z</time>
      </trkpt>
      <trkpt lat="42.28053" lon="1.79669">
        <ele>1407.208</ele>
        <time>2019-04-08T02:02:25Z</time>
      </trkpt>
      <trkpt lat="42.28055" lon="1.79668">
        <ele>1408.186</ele>
        <time>2019-04-08T02:02:26Z</time>
      </trkpt>
      <trkpt lat="42.28057" lon="1.79668">
        <ele>1408.118</ele>
        <time>2019-04-08T02:02:27Z</time>
      </trkpt>
      <trkpt lat="42.28058" lon="1.79667">
        <ele>1408.223</ele>
        <time>2019-04-08T02:02:28Z</time>
      </trkpt>
      <trkpt lat="42.2806" lon="1.79666">
        <ele>1408.284</ele>
        <time>2019-04-08T02:02:29Z</time>
      </trkpt>
      <trkpt lat="42.28062" lon="1.79665">
        <ele>1409.014</ele>
        <time>2019-04-08T02:02:29Z</time>
      </trkpt>
      <trkpt lat="42.28065" lon="1.79665">
        <ele>1409.098</ele>
        <time>2019-04-08T02:02:31Z</time>
      </trkpt>
      <trkpt lat="42.28067" lon="1.79664">
        <ele>1409.377</ele>
        <time>2019-04-08T02:02:32Z</time>
      </trkpt>
      <trkpt lat="42.2807" lon="1.79665">
        <ele>1411.249</ele>
        <time>2019-04-08T02:02:33Z</time>
      </trkpt>
      <trkpt lat="42.28072" lon="1.79665">
        <ele>1411.213</ele>
        <time>2019-04-08T02:02:33Z</time>
      </trkpt>
      <trkpt lat="42.28077" lon="1.79663">
        <ele>1412.343</ele>
        <time>2019-04-08T02:02:35Z</time>
      </trkpt>
      <trkpt lat="42.28079" lon="1.7966">
        <ele>1414.107</ele>
        <time>2019-04-08T02:02:37Z</time>
      </trkpt>
      <trkpt lat="42.28081" lon="1.79659">
        <ele>1415.208</ele>
        <time>2019-04-08T02:02:38Z</time>
      </trkpt>
      <trkpt lat="42.28083" lon="1.79658">
        <ele>1415.264</ele>
        <time>2019-04-08T02:02:38Z</time>
      </trkpt>
      <trkpt lat="42.28084" lon="1.79657">
        <ele>1416.266</ele>
        <time>2019-04-08T02:02:39Z</time>
      </trkpt>
      <trkpt lat="42.28087" lon="1.79656">
        <ele>1417.331</ele>
        <time>2019-04-08T02:02:40Z</time>
      </trkpt>
      <trkpt lat="42.28089" lon="1.79653">
        <ele>1418.232</ele>
        <time>2019-04-08T02:02:41Z</time>
      </trkpt>
      <trkpt lat="42.2809" lon="1.79651">
        <ele>1419.172</ele>
        <time>2019-04-08T02:02:42Z</time>
      </trkpt>
      <trkpt lat="42.28091" lon="1.79648">
        <ele>1420.336</ele>
        <time>2019-04-08T02:02:43Z</time>
      </trkpt>
      <trkpt lat="42.28093" lon="1.79647">
        <ele>1420.255</ele>
        <time>2019-04-08T02:02:44Z</time>
      </trkpt>
      <trkpt lat="42.28097" lon="1.79645">
        <ele>1422.247</ele>
        <time>2019-04-08T02:02:46Z</time>
      </trkpt>
      <trkpt lat="42.28102" lon="1.79648">
        <ele>1423.083</ele>
        <time>2019-04-08T02:02:48Z</time>
      </trkpt>
      <trkpt lat="42.28104" lon="1.79648">
        <ele>1424.025</ele>
        <time>2019-04-08T02:02:49Z</time>
      </trkpt>
      <trkpt lat="42.28106" lon="1.79649">
        <ele>1424.217</ele>
        <time>2019-04-08T02:02:50Z</time>
      </trkpt>
      <trkpt lat="42.28108" lon="1.79649">
        <ele>1424.308</ele>
        <time>2019-04-08T02:02:50Z</time>
      </trkpt>
      <trkpt lat="42.2811" lon="1.7965">
        <ele>1424.131</ele>
        <time>2019-04-08T02:02:51Z</time>
      </trkpt>
      <trkpt lat="42.28112" lon="1.7965">
        <ele>1426.373</ele>
        <time>2019-04-08T02:02:52Z</time>
      </trkpt>
      <trkpt lat="42.28115" lon="1.79652">
        <ele>1426.258</ele>
        <time>2019-04-08T02:02:53Z</time>
      </trkpt>
      <trkpt lat="42.28116" lon="1.79653">
        <ele>1426.349</ele>
        <time>2019-04-08T02:02:54Z</time>
      </trkpt>
      <trkpt lat="42.28118" lon="1.79653">
        <ele>1427.339</ele>
        <time>2019-04-08T02:02:55Z</time>
      </trkpt>
      <trkpt lat="42.2812" lon="1.79651">
        <ele>1427.263</ele>
        <time>2019-04-08T02:02:56Z</time>
      </trkpt>
      <trkpt lat="42.28121" lon="1.7965">
        <ele>1429.172</ele>
        <time>2019-04-08T02:02:56Z</time>
      </trkpt>
      <trkpt lat="42.28124" lon="1.79649">
        <ele>1430.164</ele>
        <time>2019-04-08T02:02:57Z</time>
      </trkpt>
      <trkpt lat="42.28126" lon="1.7965">
        <ele>1430.234</ele>
        <time>2019-04-08T02:02:58Z</time>
      </trkpt>
      <trkpt lat="42.28127" lon="1.79651">
        <ele>1431.255</ele>
        <time>2019-04-08T02:02:59Z</time>
      </trkpt>
      <trkpt lat="42.2813" lon="1.79651">
        <ele>1432.11</ele>
        <time>2019-04-08T02:03:00Z</time>
      </trkpt>
      <trkpt lat="42.28132" lon="1.7965">
        <ele>1432.108</ele>
        <time>2019-04-08T02:03:01Z</time>
      </trkpt>
      <trkpt lat="42.28135" lon="1.79649">
        <ele>1433.276</ele>
        <time>2019-04-08T02:03:02Z</time>
      </trkpt>
      <trkpt lat="42.28137" lon="1.79647">
        <ele>1432.278</ele>
        <time>2019-04-08T02:03:03Z</time>
      </trkpt>
      <trkpt lat="42.28138" lon="1.79644">
        <ele>1433.313</ele>
        <time>2019-04-08T02:03:04Z</time>
      </trkpt>
      <trkpt lat="42.2814" lon="1.79642">
        <ele>1433.424</ele>
        <time>2019-04-08T02:03:05Z</time>
      </trkpt>
      <trkpt lat="42.28142" lon="1.79641">
        <ele>1433.234</ele>
        <time>2019-04-08T02:03:06Z</time>
      </trkpt>
      <trkpt lat="42.28143" lon="1.7964">
        <ele>1433.348</ele>
        <time>2019-04-08T02:03:06Z</time>
      </trkpt>
      <trkpt lat="42.28145" lon="1.79642">
        <ele>1434.167</ele>
        <time>2019-04-08T02:03:07Z</time>
      </trkpt>
      <trkpt lat="42.28147" lon="1.79644">
        <ele>1435.189</ele>
        <time>2019-04-08T02:03:08Z</time>
      </trkpt>
      <trkpt lat="42.28149" lon="1.79644">
        <ele>1436.153</ele>
        <time>2019-04-08T02:03:09Z</time>
      </trkpt>
      <trkpt lat="42.2815" lon="1.79646">
        <ele>1437.204</ele>
        <time>2019-04-08T02:03:10Z</time>
      </trkpt>
      <trkpt lat="42.28152" lon="1.79648">
        <ele>1437.214</ele>
        <time>2019-04-08T02:03:11Z</time>
      </trkpt>
      <trkpt lat="42.28154" lon="1.7965">
        <ele>1437.908</ele>
        <time>2019-04-08T02:03:12Z</time>
      </trkpt>
      <trkpt lat="42.28154" lon="1.79652">
        <ele>1439.098</ele>
        <time>2019-04-08T02:03:12Z</time>
      </trkpt>
      <trkpt lat="42.28156" lon="1.79654">
        <ele>1439.36</ele>
        <time>2019-04-08T02:03:13Z</time>
      </trkpt>
      <trkpt lat="42.28157" lon="1.79656">
        <ele>1440.115</ele>
        <time>2019-04-08T02:03:14Z</time>
      </trkpt>
      <trkpt lat="42.28158" lon="1.79659">
        <ele>1440.336</ele>
        <time>2019-04-08T02:03:15Z</time>
      </trkpt>
      <trkpt lat="42.28159" lon="1.79662">
        <ele>1441.296</ele>
        <time>2019-04-08T02:03:16Z</time>
      </trkpt>
      <trkpt lat="42.28161" lon="1.79664">
        <ele>1442.36</ele>
        <time>2019-04-08T02:03:17Z</time>
      </trkpt>
      <trkpt lat="42.28162" lon="1.79666">
        <ele>1442.229</ele>
        <time>2019-04-08T02:03:17Z</time>
      </trkpt>
      <trkpt lat="42.28163" lon="1.79668">
        <ele>1442.191</ele>
        <time>2019-04-08T02:03:18Z</time>
      </trkpt>
      <trkpt lat="42.28165" lon="1.7967">
        <ele>1443.223</ele>
        <time>2019-04-08T02:03:19Z</time>
      </trkpt>
      <trkpt lat="42.28166" lon="1.79672">
        <ele>1443.283</ele>
        <time>2019-04-08T02:03:20Z</time>
      </trkpt>
      <trkpt lat="42.28167" lon="1.79674">
        <ele>1443.211</ele>
        <time>2019-04-08T02:03:21Z</time>
      </trkpt>
      <trkpt lat="42.28169" lon="1.79677">
        <ele>1445.008</ele>
        <time>2019-04-08T02:03:22Z</time>
      </trkpt>
      <trkpt lat="42.2817" lon="1.79678">
        <ele>1445.395</ele>
        <time>2019-04-08T02:03:22Z</time>
      </trkpt>
      <trkpt lat="42.28172" lon="1.79681">
        <ele>1445.057</ele>
        <time>2019-04-08T02:03:23Z</time>
      </trkpt>
      <trkpt lat="42.28173" lon="1.79683">
        <ele>1446.112</ele>
        <time>2019-04-08T02:03:24Z</time>
      </trkpt>
      <trkpt lat="42.28174" lon="1.79686">
        <ele>1447.373</ele>
        <time>2019-04-08T02:03:25Z</time>
      </trkpt>
      <trkpt lat="42.28176" lon="1.79689">
        <ele>1448.193</ele>
        <time>2019-04-08T02:03:26Z</time>
      </trkpt>
      <trkpt lat="42.28177" lon="1.79691">
        <ele>1449.067</ele>
        <time>2019-04-08T02:03:27Z</time>
      </trkpt>
      <trkpt lat="42.28179" lon="1.79694">
        <ele>1450.466</ele>
        <time>2019-04-08T02:03:28Z</time>
      </trkpt>
      <trkpt lat="42.2818" lon="1.79697">
        <ele>1451.138</ele>
        <time>2019-04-08T02:03:29Z</time>
      </trkpt>
      <trkpt lat="42.28181" lon="1.797">
        <ele>1452.223</ele>
        <time>2019-04-08T02:03:30Z</time>
      </trkpt>
      <trkpt lat="42.28181" lon="1.79703">
        <ele>1452.283</ele>
        <time>2019-04-08T02:03:31Z</time>
      </trkpt>
      <trkpt lat="42.28181" lon="1.79706">
        <ele>1452.111</ele>
        <time>2019-04-08T02:03:32Z</time>
      </trkpt>
      <trkpt lat="42.28181" lon="1.79709">
        <ele>1453.308</ele>
        <time>2019-04-08T02:03:33Z</time>
      </trkpt>
      <trkpt lat="42.28182" lon="1.79711">
        <ele>1454.365</ele>
        <time>2019-04-08T02:03:34Z</time>
      </trkpt>
      <trkpt lat="42.28182" lon="1.79714">
        <ele>1455.277</ele>
        <time>2019-04-08T02:03:34Z</time>
      </trkpt>
      <trkpt lat="42.28183" lon="1.79717">
        <ele>1456.142</ele>
        <time>2019-04-08T02:03:35Z</time>
      </trkpt>
      <trkpt lat="42.28183" lon="1.7972">
        <ele>1456.343</ele>
        <time>2019-04-08T02:03:36Z</time>
      </trkpt>
      <trkpt lat="42.28183" lon="1.79723">
        <ele>1458.313</ele>
        <time>2019-04-08T02:03:37Z</time>
      </trkpt>
      <trkpt lat="42.28184" lon="1.79726">
        <ele>1458.117</ele>
        <time>2019-04-08T02:03:38Z</time>
      </trkpt>
      <trkpt lat="42.28184" lon="1.79729">
        <ele>1458.326</ele>
        <time>2019-04-08T02:03:39Z</time>
      </trkpt>
      <trkpt lat="42.28185" lon="1.79732">
        <ele>1459.138</ele>
        <time>2019-04-08T02:03:40Z</time>
      </trkpt>
      <trkpt lat="42.28186" lon="1.79735">
        <ele>1460.264</ele>
        <time>2019-04-08T02:03:41Z</time>
      </trkpt>
      <trkpt lat="42.28188" lon="1.79737">
        <ele>1461.206</ele>
        <time>2019-04-08T02:03:42Z</time>
      </trkpt>
      <trkpt lat="42.28188" lon="1.7974">
        <ele>1461.116</ele>
        <time>2019-04-08T02:03:43Z</time>
      </trkpt>
      <trkpt lat="42.28188" lon="1.79743">
        <ele>1463.108</ele>
        <time>2019-04-08T02:03:43Z</time>
      </trkpt>
      <trkpt lat="42.28188" lon="1.79746">
        <ele>1463.189</ele>
        <time>2019-04-08T02:03:44Z</time>
      </trkpt>
      <trkpt lat="42.28189" lon="1.79748">
        <ele>1463.161</ele>
        <time>2019-04-08T02:03:45Z</time>
      </trkpt>
      <trkpt lat="42.28191" lon="1.79747">
        <ele>1465.266</ele>
        <time>2019-04-08T02:03:46Z</time>
      </trkpt>
      <trkpt lat="42.28193" lon="1.79746">
        <ele>1466.067</ele>
        <time>2019-04-08T02:03:47Z</time>
      </trkpt>
      <trkpt lat="42.28195" lon="1.79745">
        <ele>1466.217</ele>
        <time>2019-04-08T02:03:48Z</time>
      </trkpt>
      <trkpt lat="42.28197" lon="1.79744">
        <ele>1467.151</ele>
        <time>2019-04-08T02:03:49Z</time>
      </trkpt>
      <trkpt lat="42.28198" lon="1.79741">
        <ele>1468.13</ele>
        <time>2019-04-08T02:03:50Z</time>
      </trkpt>
      <trkpt lat="42.28199" lon="1.79739">
        <ele>1468.222</ele>
        <time>2019-04-08T02:03:50Z</time>
      </trkpt>
      <trkpt lat="42.28201" lon="1.79739">
        <ele>1468.895</ele>
        <time>2019-04-08T02:03:51Z</time>
      </trkpt>
      <trkpt lat="42.28203" lon="1.79742">
        <ele>1469.949</ele>
        <time>2019-04-08T02:03:52Z</time>
      </trkpt>
      <trkpt lat="42.28204" lon="1.79745">
        <ele>1471.123</ele>
        <time>2019-04-08T02:03:53Z</time>
      </trkpt>
      <trkpt lat="42.28204" lon="1.79747">
        <ele>1470.208</ele>
        <time>2019-04-08T02:03:54Z</time>
      </trkpt>
      <trkpt lat="42.28206" lon="1.7975">
        <ele>1470.152</ele>
        <time>2019-04-08T02:03:55Z</time>
      </trkpt>
      <trkpt lat="42.28207" lon="1.79753">
        <ele>1472.244</ele>
        <time>2019-04-08T02:03:56Z</time>
      </trkpt>
      <trkpt lat="42.28208" lon="1.79755">
        <ele>1473.489</ele>
        <time>2019-04-08T02:03:56Z</time>
      </trkpt>
      <trkpt lat="42.2821" lon="1.79755">
        <ele>1473.28</ele>
        <time>2019-04-08T02:03:57Z</time>
      </trkpt>
      <trkpt lat="42.28211" lon="1.79758">
        <ele>1474.35</ele>
        <time>2019-04-08T02:03:58Z</time>
      </trkpt>
      <trkpt lat="42.28211" lon="1.7976">
        <ele>1475.284</ele>
        <time>2019-04-08T02:03:59Z</time>
      </trkpt>
      <trkpt lat="42.28211" lon="1.79763">
        <ele>1475.213</ele>
        <time>2019-04-08T02:04:00Z</time>
      </trkpt>
      <trkpt lat="42.28211" lon="1.79766">
        <ele>1476.185</ele>
        <time>2019-04-08T02:04:01Z</time>
      </trkpt>
      <trkpt lat="42.28211" lon="1.79768">
        <ele>1477.243</ele>
        <time>2019-04-08T02:04:01Z</time>
      </trkpt>
      <trkpt lat="42.2821" lon="1.79771">
        <ele>1477.264</ele>
        <time>2019-04-08T02:04:02Z</time>
      </trkpt>
      <trkpt lat="42.28211" lon="1.79773">
        <ele>1478.11</ele>
        <time>2019-04-08T02:04:03Z</time>
      </trkpt>
      <trkpt lat="42.28212" lon="1.79776">
        <ele>1478.208</ele>
        <time>2019-04-08T02:04:04Z</time>
      </trkpt>
      <trkpt lat="42.28214" lon="1.79778">
        <ele>1479.027</ele>
        <time>2019-04-08T02:04:05Z</time>
      </trkpt>
      <trkpt lat="42.28214" lon="1.79781">
        <ele>1480.179</ele>
        <time>2019-04-08T02:04:06Z</time>
      </trkpt>
      <trkpt lat="42.28215" lon="1.79783">
        <ele>1481.264</ele>
        <time>2019-04-08T02:04:07Z</time>
      </trkpt>
      <trkpt lat="42.28217" lon="1.79785">
        <ele>1481.295</ele>
        <time>2019-04-08T02:04:07Z</time>
      </trkpt>
      <trkpt lat="42.28219" lon="1.79785">
        <ele>1483.285</ele>
        <time>2019-04-08T02:04:08Z</time>
      </trkpt>
      <trkpt lat="42.28221" lon="1.79787">
        <ele>1484.269</ele>
        <time>2019-04-08T02:04:09Z</time>
      </trkpt>
      <trkpt lat="42.28221" lon="1.7979">
        <ele>1485.318</ele>
        <time>2019-04-08T02:04:10Z</time>
      </trkpt>
      <trkpt lat="42.28221" lon="1.79793">
        <ele>1486.25</ele>
        <time>2019-04-08T02:04:11Z</time>
      </trkpt>
      <trkpt lat="42.28221" lon="1.79796">
        <ele>1486.312</ele>
        <time>2019-04-08T02:04:12Z</time>
      </trkpt>
      <trkpt lat="42.28221" lon="1.79798">
        <ele>1486.332</ele>
        <time>2019-04-08T02:04:12Z</time>
      </trkpt>
      <trkpt lat="42.28222" lon="1.79801">
        <ele>1487.805</ele>
        <time>2019-04-08T02:04:13Z</time>
      </trkpt>
      <trkpt lat="42.28223" lon="1.79803">
        <ele>1488.108</ele>
        <time>2019-04-08T02:04:14Z</time>
      </trkpt>
      <trkpt lat="42.28224" lon="1.79805">
        <ele>1489.164</ele>
        <time>2019-04-08T02:04:15Z</time>
      </trkpt>
      <trkpt lat="42.28226" lon="1.79805">
        <ele>1490.176</ele>
        <time>2019-04-08T02:04:16Z</time>
      </trkpt>
      <trkpt lat="42.28227" lon="1.79807">
        <ele>1492.221</ele>
        <time>2019-04-08T02:04:16Z</time>
      </trkpt>
      <trkpt lat="42.28227" lon="1.7981">
        <ele>1492.272</ele>
        <time>2019-04-08T02:04:17Z</time>
      </trkpt>
      <trkpt lat="42.28229" lon="1.79811">
        <ele>1494.032</ele>
        <time>2019-04-08T02:04:18Z</time>
      </trkpt>
      <trkpt lat="42.28229" lon="1.79814">
        <ele>1495.186</ele>
        <time>2019-04-08T02:04:19Z</time>
      </trkpt>
      <trkpt lat="42.28228" lon="1.79816">
        <ele>1495.235</ele>
        <time>2019-04-08T02:04:20Z</time>
      </trkpt>
      <trkpt lat="42.28226" lon="1.79816">
        <ele>1494.147</ele>
        <time>2019-04-08T02:04:20Z</time>
      </trkpt>
      <trkpt lat="42.28226" lon="1.79819">
        <ele>1494.115</ele>
        <time>2019-04-08T02:04:21Z</time>
      </trkpt>
      <trkpt lat="42.28226" lon="1.79822">
        <ele>1494.265</ele>
        <time>2019-04-08T02:04:22Z</time>
      </trkpt>
      <trkpt lat="42.28225" lon="1.79819">
        <ele>1494.211</ele>
        <time>2019-04-08T02:04:23Z</time>
      </trkpt>
      <trkpt lat="42.28226" lon="1.79816">
        <ele>1494.208</ele>
        <time>2019-04-08T02:04:24Z</time>
      </trkpt>
      <trkpt lat="42.28227" lon="1.79814">
        <ele>1494.254</ele>
        <time>2019-04-08T02:04:25Z</time>
      </trkpt>
      <trkpt lat="42.28229" lon="1.79814">
        <ele>1494.226</ele>
        <time>2019-04-08T02:04:25Z</time>
      </trkpt>
      <trkpt lat="42.2823" lon="1.79817">
        <ele>1495.461</ele>
        <time>2019-04-08T02:04:26Z</time>
      </trkpt>
      <trkpt lat="42.28232" lon="1.79818">
        <ele>1495.162</ele>
        <time>2019-04-08T02:04:27Z</time>
      </trkpt>
      <trkpt lat="42.28234" lon="1.79817">
        <ele>1496.022</ele>
        <time>2019-04-08T02:04:28Z</time>
      </trkpt>
      <trkpt lat="42.28236" lon="1.79816">
        <ele>1497.276</ele>
        <time>2019-04-08T02:04:29Z</time>
      </trkpt>
      <trkpt lat="42.28238" lon="1.79815">
        <ele>1497.215</ele>
        <time>2019-04-08T02:04:30Z</time>
      </trkpt>
      <trkpt lat="42.28239" lon="1.79818">
        <ele>1497.287</ele>
        <time>2019-04-08T02:04:30Z</time>
      </trkpt>
      <trkpt lat="42.28239" lon="1.7982">
        <ele>1498.255</ele>
        <time>2019-04-08T02:04:31Z</time>
      </trkpt>
      <trkpt lat="42.28239" lon="1.79823">
        <ele>1498.307</ele>
        <time>2019-04-08T02:04:32Z</time>
      </trkpt>
      <trkpt lat="42.2824" lon="1.79826">
        <ele>1498.017</ele>
        <time>2019-04-08T02:04:33Z</time>
      </trkpt>
      <trkpt lat="42.28242" lon="1.79828">
        <ele>1499.308</ele>
        <time>2019-04-08T02:04:34Z</time>
      </trkpt>
      <trkpt lat="42.28244" lon="1.79827">
        <ele>1500.158</ele>
        <time>2019-04-08T02:04:35Z</time>
      </trkpt>
      <trkpt lat="42.28245" lon="1.79825">
        <ele>1501.21</ele>
        <time>2019-04-08T02:04:35Z</time>
      </trkpt>
      <trkpt lat="42.28247" lon="1.79824">
        <ele>1502.325</ele>
        <time>2019-04-08T02:04:36Z</time>
      </trkpt>
      <trkpt lat="42.28249" lon="1.79822">
        <ele>1503.176</ele>
        <time>2019-04-08T02:04:37Z</time>
      </trkpt>
      <trkpt lat="42.28249" lon="1.79819">
        <ele>1503.186</ele>
        <time>2019-04-08T02:04:38Z</time>
      </trkpt>
      <trkpt lat="42.28251" lon="1.79819">
        <ele>1504.29</ele>
        <time>2019-04-08T02:04:39Z</time>
      </trkpt>
      <trkpt lat="42.28253" lon="1.79817">
        <ele>1505.129</ele>
        <time>2019-04-08T02:04:40Z</time>
      </trkpt>
      <trkpt lat="42.28255" lon="1.79816">
        <ele>1506.151</ele>
        <time>2019-04-08T02:04:40Z</time>
      </trkpt>
      <trkpt lat="42.28256" lon="1.79814">
        <ele>1507.392</ele>
        <time>2019-04-08T02:04:41Z</time>
      </trkpt>
      <trkpt lat="42.28258" lon="1.79814">
        <ele>1508.173</ele>
        <time>2019-04-08T02:04:42Z</time>
      </trkpt>
      <trkpt lat="42.2826" lon="1.79816">
        <ele>1509.12</ele>
        <time>2019-04-08T02:04:43Z</time>
      </trkpt>
      <trkpt lat="42.28261" lon="1.79817">
        <ele>1509.308</ele>
        <time>2019-04-08T02:04:44Z</time>
      </trkpt>
      <trkpt lat="42.28263" lon="1.79816">
        <ele>1510.392</ele>
        <time>2019-04-08T02:04:45Z</time>
      </trkpt>
      <trkpt lat="42.28265" lon="1.79815">
        <ele>1511.274</ele>
        <time>2019-04-08T02:04:45Z</time>
      </trkpt>
      <trkpt lat="42.28267" lon="1.79815">
        <ele>1511.189</ele>
        <time>2019-04-08T02:04:46Z</time>
      </trkpt>
      <trkpt lat="42.28268" lon="1.79812">
        <ele>1511.02</ele>
        <time>2019-04-08T02:04:47Z</time>
      </trkpt>
      <trkpt lat="42.28269" lon="1.7981">
        <ele>1512.28</ele>
        <time>2019-04-08T02:04:48Z</time>
      </trkpt>
      <trkpt lat="42.28271" lon="1.79808">
        <ele>1513.384</ele>
        <time>2019-04-08T02:04:49Z</time>
      </trkpt>
      <trkpt lat="42.28271" lon="1.79806">
        <ele>1513.163</ele>
        <time>2019-04-08T02:04:49Z</time>
      </trkpt>
      <trkpt lat="42.28273" lon="1.79805">
        <ele>1513.225</ele>
        <time>2019-04-08T02:04:50Z</time>
      </trkpt>
      <trkpt lat="42.28275" lon="1.79806">
        <ele>1514.218</ele>
        <time>2019-04-08T02:04:51Z</time>
      </trkpt>
      <trkpt lat="42.28277" lon="1.79805">
        <ele>1514.198</ele>
        <time>2019-04-08T02:04:52Z</time>
      </trkpt>
      <trkpt lat="42.28279" lon="1.79804">
        <ele>1515.017</ele>
        <time>2019-04-08T02:04:53Z</time>
      </trkpt>
      <trkpt lat="42.2828" lon="1.79801">
        <ele>1517.308</ele>
        <time>2019-04-08T02:04:54Z</time>
      </trkpt>
      <trkpt lat="42.28281" lon="1.79799">
        <ele>1518.214</ele>
        <time>2019-04-08T02:04:54Z</time>
      </trkpt>
      <trkpt lat="42.28283" lon="1.79801">
        <ele>1519.276</ele>
        <time>2019-04-08T02:04:55Z</time>
      </trkpt>
      <trkpt lat="42.28285" lon="1.79802">
        <ele>1519.391</ele>
        <time>2019-04-08T02:04:56Z</time>
      </trkpt>
      <trkpt lat="42.28287" lon="1.79803">
        <ele>1518.312</ele>
        <time>2019-04-08T02:04:57Z</time>
      </trkpt>
      <trkpt lat="42.28288" lon="1.79805">
        <ele>1519.292</ele>
        <time>2019-04-08T02:04:58Z</time>
      </trkpt>
      <trkpt lat="42.2829" lon="1.79808">
        <ele>1519.226</ele>
        <time>2019-04-08T02:04:59Z</time>
      </trkpt>
      <trkpt lat="42.28292" lon="1.79809">
        <ele>1520.165</ele>
        <time>2019-04-08T02:05:00Z</time>
      </trkpt>
      <trkpt lat="42.28294" lon="1.7981">
        <ele>1521.257</ele>
        <time>2019-04-08T02:05:01Z</time>
      </trkpt>
      <trkpt lat="42.28296" lon="1.79811">
        <ele>1521.177</ele>
        <time>2019-04-08T02:05:01Z</time>
      </trkpt>
      <trkpt lat="42.28298" lon="1.79813">
        <ele>1523.361</ele>
        <time>2019-04-08T02:05:02Z</time>
      </trkpt>
      <trkpt lat="42.28299" lon="1.79814">
        <ele>1523.127</ele>
        <time>2019-04-08T02:05:03Z</time>
      </trkpt>
      <trkpt lat="42.28301" lon="1.79815">
        <ele>1523.208</ele>
        <time>2019-04-08T02:05:04Z</time>
      </trkpt>
      <trkpt lat="42.28303" lon="1.79815">
        <ele>1525.13</ele>
        <time>2019-04-08T02:05:05Z</time>
      </trkpt>
      <trkpt lat="42.28305" lon="1.79816">
        <ele>1525.022</ele>
        <time>2019-04-08T02:05:06Z</time>
      </trkpt>
      <trkpt lat="42.28307" lon="1.79817">
        <ele>1525.387</ele>
        <time>2019-04-08T02:05:06Z</time>
      </trkpt>
      <trkpt lat="42.28309" lon="1.79819">
        <ele>1525.318</ele>
        <time>2019-04-08T02:05:07Z</time>
      </trkpt>
      <trkpt lat="42.2831" lon="1.79821">
        <ele>1526.038</ele>
        <time>2019-04-08T02:05:08Z</time>
      </trkpt>
      <trkpt lat="42.28312" lon="1.79821">
        <ele>1527.332</ele>
        <time>2019-04-08T02:05:09Z</time>
      </trkpt>
      <trkpt lat="42.28314" lon="1.79821">
        <ele>1527.231</ele>
        <time>2019-04-08T02:05:10Z</time>
      </trkpt>
      <trkpt lat="42.28316" lon="1.79822">
        <ele>1528.183</ele>
        <time>2019-04-08T02:05:10Z</time>
      </trkpt>
      <trkpt lat="42.28317" lon="1.79823">
        <ele>1527.385</ele>
        <time>2019-04-08T02:05:11Z</time>
      </trkpt>
      <trkpt lat="42.28319" lon="1.79825">
        <ele>1528.289</ele>
        <time>2019-04-08T02:05:12Z</time>
      </trkpt>
      <trkpt lat="42.28321" lon="1.79827">
        <ele>1528.117</ele>
        <time>2019-04-08T02:05:13Z</time>
      </trkpt>
      <trkpt lat="42.28323" lon="1.79828">
        <ele>1528.208</ele>
        <time>2019-04-08T02:05:14Z</time>
      </trkpt>
      <trkpt lat="42.28325" lon="1.7983">
        <ele>1529.131</ele>
        <time>2019-04-08T02:05:15Z</time>
      </trkpt>
      <trkpt lat="42.28326" lon="1.79832">
        <ele>1529.283</ele>
        <time>2019-04-08T02:05:16Z</time>
      </trkpt>
      <trkpt lat="42.28328" lon="1.79835">
        <ele>1530.228</ele>
        <time>2019-04-08T02:05:17Z</time>
      </trkpt>
      <trkpt lat="42.28329" lon="1.79837">
        <ele>1531.219</ele>
        <time>2019-04-08T02:05:17Z</time>
      </trkpt>
      <trkpt lat="42.2833" lon="1.79839">
        <ele>1531.179</ele>
        <time>2019-04-08T02:05:18Z</time>
      </trkpt>
      <trkpt lat="42.28332" lon="1.79841">
        <ele>1531.213</ele>
        <time>2019-04-08T02:05:19Z</time>
      </trkpt>
      <trkpt lat="42.28334" lon="1.79842">
        <ele>1532.212</ele>
        <time>2019-04-08T02:05:20Z</time>
      </trkpt>
      <trkpt lat="42.28336" lon="1.79845">
        <ele>1532.324</ele>
        <time>2019-04-08T02:05:21Z</time>
      </trkpt>
      <trkpt lat="42.28338" lon="1.79846">
        <ele>1531.281</ele>
        <time>2019-04-08T02:05:22Z</time>
      </trkpt>
      <trkpt lat="42.2834" lon="1.79845">
        <ele>1533.061</ele>
        <time>2019-04-08T02:05:23Z</time>
      </trkpt>
      <trkpt lat="42.28342" lon="1.79846">
        <ele>1533.217</ele>
        <time>2019-04-08T02:05:23Z</time>
      </trkpt>
      <trkpt lat="42.28344" lon="1.79846">
        <ele>1533.208</ele>
        <time>2019-04-08T02:05:24Z</time>
      </trkpt>
      <trkpt lat="42.28345" lon="1.79849">
        <ele>1533.121</ele>
        <time>2019-04-08T02:05:25Z</time>
      </trkpt>
      <trkpt lat="42.28344" lon="1.79852">
        <ele>1535.213</ele>
        <time>2019-04-08T02:05:26Z</time>
      </trkpt>
      <trkpt lat="42.28344" lon="1.79855">
        <ele>1535.248</ele>
        <time>2019-04-08T02:05:27Z</time>
      </trkpt>
      <trkpt lat="42.28345" lon="1.79857">
        <ele>1534.359</ele>
        <time>2019-04-08T02:05:28Z</time>
      </trkpt>
      <trkpt lat="42.28345" lon="1.79861">
        <ele>1535.399</ele>
        <time>2019-04-08T02:05:29Z</time>
      </trkpt>
      <trkpt lat="42.28346" lon="1.79864">
        <ele>1536.253</ele>
        <time>2019-04-08T02:05:30Z</time>
      </trkpt>
      <trkpt lat="42.28347" lon="1.79866">
        <ele>1536.362</ele>
        <time>2019-04-08T02:05:30Z</time>
      </trkpt>
      <trkpt lat="42.28348" lon="1.79868">
        <ele>1536.134</ele>
        <time>2019-04-08T02:05:31Z</time>
      </trkpt>
      <trkpt lat="42.28349" lon="1.79871">
        <ele>1537.042</ele>
        <time>2019-04-08T02:05:32Z</time>
      </trkpt>
      <trkpt lat="42.2835" lon="1.79873">
        <ele>1537.322</ele>
        <time>2019-04-08T02:05:33Z</time>
      </trkpt>
      <trkpt lat="42.2835" lon="1.79875">
        <ele>1537.214</ele>
        <time>2019-04-08T02:05:33Z</time>
      </trkpt>
      <trkpt lat="42.28351" lon="1.79878">
        <ele>1538.108</ele>
        <time>2019-04-08T02:05:34Z</time>
      </trkpt>
      <trkpt lat="42.28352" lon="1.79881">
        <ele>1538.157</ele>
        <time>2019-04-08T02:05:35Z</time>
      </trkpt>
      <trkpt lat="42.28353" lon="1.79884">
        <ele>1540.249</ele>
        <time>2019-04-08T02:05:36Z</time>
      </trkpt>
      <trkpt lat="42.28354" lon="1.79886">
        <ele>1540.034</ele>
        <time>2019-04-08T02:05:37Z</time>
      </trkpt>
      <trkpt lat="42.28355" lon="1.79888">
        <ele>1540.415</ele>
        <time>2019-04-08T02:05:38Z</time>
      </trkpt>
      <trkpt lat="42.28355" lon="1.79891">
        <ele>1542.185</ele>
        <time>2019-04-08T02:05:39Z</time>
      </trkpt>
      <trkpt lat="42.28356" lon="1.79893">
        <ele>1542.239</ele>
        <time>2019-04-08T02:05:39Z</time>
      </trkpt>
      <trkpt lat="42.28358" lon="1.79895">
        <ele>1542.358</ele>
        <time>2019-04-08T02:05:40Z</time>
      </trkpt>
      <trkpt lat="42.28359" lon="1.79898">
        <ele>1542.37</ele>
        <time>2019-04-08T02:05:41Z</time>
      </trkpt>
      <trkpt lat="42.2836" lon="1.79901">
        <ele>1543.279</ele>
        <time>2019-04-08T02:05:42Z</time>
      </trkpt>
      <trkpt lat="42.28361" lon="1.79903">
        <ele>1544.305</ele>
        <time>2019-04-08T02:05:43Z</time>
      </trkpt>
      <trkpt lat="42.28362" lon="1.79906">
        <ele>1545.225</ele>
        <time>2019-04-08T02:05:44Z</time>
      </trkpt>
      <trkpt lat="42.28363" lon="1.79909">
        <ele>1546.208</ele>
        <time>2019-04-08T02:05:45Z</time>
      </trkpt>
      <trkpt lat="42.28363" lon="1.79912">
        <ele>1546.13</ele>
        <time>2019-04-08T02:05:46Z</time>
      </trkpt>
      <trkpt lat="42.28363" lon="1.79914">
        <ele>1547.242</ele>
        <time>2019-04-08T02:05:46Z</time>
      </trkpt>
      <trkpt lat="42.28364" lon="1.79918">
        <ele>1547.317</ele>
        <time>2019-04-08T02:05:47Z</time>
      </trkpt>
      <trkpt lat="42.28364" lon="1.7992">
        <ele>1548.398</ele>
        <time>2019-04-08T02:05:48Z</time>
      </trkpt>
      <trkpt lat="42.28365" lon="1.79923">
        <ele>1548.118</ele>
        <time>2019-04-08T02:05:49Z</time>
      </trkpt>
      <trkpt lat="42.28366" lon="1.79926">
        <ele>1549.272</ele>
        <time>2019-04-08T02:05:50Z</time>
      </trkpt>
      <trkpt lat="42.28366" lon="1.79928">
        <ele>1549.471</ele>
        <time>2019-04-08T02:05:51Z</time>
      </trkpt>
      <trkpt lat="42.28367" lon="1.79931">
        <ele>1550.163</ele>
        <time>2019-04-08T02:05:52Z</time>
      </trkpt>
      <trkpt lat="42.28367" lon="1.79934">
        <ele>1551.288</ele>
        <time>2019-04-08T02:05:53Z</time>
      </trkpt>
      <trkpt lat="42.28368" lon="1.79937">
        <ele>1551.324</ele>
        <time>2019-04-08T02:05:53Z</time>
      </trkpt>
      <trkpt lat="42.28369" lon="1.7994">
        <ele>1552.226</ele>
        <time>2019-04-08T02:05:54Z</time>
      </trkpt>
      <trkpt lat="42.28369" lon="1.79943">
        <ele>1552.208</ele>
        <time>2019-04-08T02:05:55Z</time>
      </trkpt>
      <trkpt lat="42.28368" lon="1.79945">
        <ele>1552.231</ele>
        <time>2019-04-08T02:05:56Z</time>
      </trkpt>
      <trkpt lat="42.28368" lon="1.79948">
        <ele>1553.213</ele>
        <time>2019-04-08T02:05:57Z</time>
      </trkpt>
      <trkpt lat="42.28368" lon="1.79952">
        <ele>1553.368</ele>
        <time>2019-04-08T02:05:58Z</time>
      </trkpt>
      <trkpt lat="42.28368" lon="1.79955">
        <ele>1554.149</ele>
        <time>2019-04-08T02:05:59Z</time>
      </trkpt>
      <trkpt lat="42.28368" lon="1.79959">
        <ele>1555.129</ele>
        <time>2019-04-08T02:06:00Z</time>
      </trkpt>
      <trkpt lat="42.28368" lon="1.79962">
        <ele>1556.153</ele>
        <time>2019-04-08T02:06:01Z</time>
      </trkpt>
      <trkpt lat="42.28369" lon="1.79965">
        <ele>1557.262</ele>
        <time>2019-04-08T02:06:02Z</time>
      </trkpt>
      <trkpt lat="42.28369" lon="1.79967">
        <ele>1558.034</ele>
        <time>2019-04-08T02:06:03Z</time>
      </trkpt>
      <trkpt lat="42.2837" lon="1.7997">
        <ele>1558.114</ele>
        <time>2019-04-08T02:06:03Z</time>
      </trkpt>
      <trkpt lat="42.28371" lon="1.79973">
        <ele>1558.254</ele>
        <time>2019-04-08T02:06:04Z</time>
      </trkpt>
      <trkpt lat="42.28373" lon="1.7997">
        <ele>1560.109</ele>
        <time>2019-04-08T02:06:05Z</time>
      </trkpt>
      <trkpt lat="42.28374" lon="1.79967">
        <ele>1562.008</ele>
        <time>2019-04-08T02:06:06Z</time>
      </trkpt>
      <trkpt lat="42.28376" lon="1.79964">
        <ele>1562.314</ele>
        <time>2019-04-08T02:06:07Z</time>
      </trkpt>
      <trkpt lat="42.28376" lon="1.79962">
        <ele>1562.096</ele>
        <time>2019-04-08T02:06:08Z</time>
      </trkpt>
      <trkpt lat="42.28377" lon="1.79959">
        <ele>1562.261</ele>
        <time>2019-04-08T02:06:09Z</time>
      </trkpt>
      <trkpt lat="42.28379" lon="1.79958">
        <ele>1563.312</ele>
        <time>2019-04-08T02:06:10Z</time>
      </trkpt>
      <trkpt lat="42.28381" lon="1.79957">
        <ele>1564.192</ele>
        <time>2019-04-08T02:06:11Z</time>
      </trkpt>
      <trkpt lat="42.28383" lon="1.79955">
        <ele>1565.116</ele>
        <time>2019-04-08T02:06:11Z</time>
      </trkpt>
      <trkpt lat="42.28383" lon="1.79958">
        <ele>1566.295</ele>
        <time>2019-04-08T02:06:12Z</time>
      </trkpt>
      <trkpt lat="42.28383" lon="1.79961">
        <ele>1566.117</ele>
        <time>2019-04-08T02:06:13Z</time>
      </trkpt>
      <trkpt lat="42.28383" lon="1.79963">
        <ele>1566.127</ele>
        <time>2019-04-08T02:06:14Z</time>
      </trkpt>
      <trkpt lat="42.28383" lon="1.79966">
        <ele>1567.168</ele>
        <time>2019-04-08T02:06:15Z</time>
      </trkpt>
      <trkpt lat="42.28383" lon="1.79969">
        <ele>1567.314</ele>
        <time>2019-04-08T02:06:15Z</time>
      </trkpt>
      <trkpt lat="42.28384" lon="1.79972">
        <ele>1567.108</ele>
        <time>2019-04-08T02:06:17Z</time>
      </trkpt>
      <trkpt lat="42.28384" lon="1.79975">
        <ele>1568.215</ele>
        <time>2019-04-08T02:06:17Z</time>
      </trkpt>
      <trkpt lat="42.28384" lon="1.79977">
        <ele>1568.057</ele>
        <time>2019-04-08T02:06:18Z</time>
      </trkpt>
      <trkpt lat="42.28385" lon="1.7998">
        <ele>1570.162</ele>
        <time>2019-04-08T02:06:19Z</time>
      </trkpt>
      <trkpt lat="42.28385" lon="1.79983">
        <ele>1570.063</ele>
        <time>2019-04-08T02:06:20Z</time>
      </trkpt>
      <trkpt lat="42.28386" lon="1.79981">
        <ele>1570.243</ele>
        <time>2019-04-08T02:06:20Z</time>
      </trkpt>
      <trkpt lat="42.28387" lon="1.79978">
        <ele>1571.227</ele>
        <time>2019-04-08T02:06:21Z</time>
      </trkpt>
      <trkpt lat="42.28389" lon="1.79976">
        <ele>1572.256</ele>
        <time>2019-04-08T02:06:22Z</time>
      </trkpt>
      <trkpt lat="42.2839" lon="1.79975">
        <ele>1572.298</ele>
        <time>2019-04-08T02:06:23Z</time>
      </trkpt>
      <trkpt lat="42.28392" lon="1.79973">
        <ele>1573.015</ele>
        <time>2019-04-08T02:06:24Z</time>
      </trkpt>
      <trkpt lat="42.28393" lon="1.7997">
        <ele>1574.165</ele>
        <time>2019-04-08T02:06:25Z</time>
      </trkpt>
      <trkpt lat="42.28395" lon="1.79968">
        <ele>1574.311</ele>
        <time>2019-04-08T02:06:26Z</time>
      </trkpt>
      <trkpt lat="42.28397" lon="1.79966">
        <ele>1575.008</ele>
        <time>2019-04-08T02:06:27Z</time>
      </trkpt>
      <trkpt lat="42.28399" lon="1.79964">
        <ele>1575.214</ele>
        <time>2019-04-08T02:06:28Z</time>
      </trkpt>
      <trkpt lat="42.28401" lon="1.79963">
        <ele>1576.296</ele>
        <time>2019-04-08T02:06:29Z</time>
      </trkpt>
      <trkpt lat="42.28403" lon="1.79961">
        <ele>1576.291</ele>
        <time>2019-04-08T02:06:30Z</time>
      </trkpt>
      <trkpt lat="42.28404" lon="1.79958">
        <ele>1577.342</ele>
        <time>2019-04-08T02:06:30Z</time>
      </trkpt>
      <trkpt lat="42.28406" lon="1.7996">
        <ele>1577.162</ele>
        <time>2019-04-08T02:06:31Z</time>
      </trkpt>
      <trkpt lat="42.28407" lon="1.79964">
        <ele>1578.286</ele>
        <time>2019-04-08T02:06:32Z</time>
      </trkpt>
      <trkpt lat="42.28408" lon="1.79966">
        <ele>1579.225</ele>
        <time>2019-04-08T02:06:33Z</time>
      </trkpt>
      <trkpt lat="42.28407" lon="1.79968">
        <ele>1579.237</ele>
        <time>2019-04-08T02:06:34Z</time>
      </trkpt>
      <trkpt lat="42.28406" lon="1.79971">
        <ele>1579.956</ele>
        <time>2019-04-08T02:06:35Z</time>
      </trkpt>
      <trkpt lat="42.28406" lon="1.79974">
        <ele>1580.259</ele>
        <time>2019-04-08T02:06:36Z</time>
      </trkpt>
      <trkpt lat="42.28407" lon="1.79977">
        <ele>1581.214</ele>
        <time>2019-04-08T02:06:37Z</time>
      </trkpt>
      <trkpt lat="42.28407" lon="1.7998">
        <ele>1581.008</ele>
        <time>2019-04-08T02:06:38Z</time>
      </trkpt>
      <trkpt lat="42.28408" lon="1.79983">
        <ele>1582.268</ele>
        <time>2019-04-08T02:06:38Z</time>
      </trkpt>
      <trkpt lat="42.28408" lon="1.79986">
        <ele>1583.28</ele>
        <time>2019-04-08T02:06:39Z</time>
      </trkpt>
      <trkpt lat="42.28409" lon="1.79988">
        <ele>1584.395</ele>
        <time>2019-04-08T02:06:40Z</time>
      </trkpt>
      <trkpt lat="42.2841" lon="1.7999">
        <ele>1584.136</ele>
        <time>2019-04-08T02:06:41Z</time>
      </trkpt>
      <trkpt lat="42.28411" lon="1.79989">
        <ele>1585.186</ele>
        <time>2019-04-08T02:06:42Z</time>
      </trkpt>
      <trkpt lat="42.28413" lon="1.79987">
        <ele>1586.12</ele>
        <time>2019-04-08T02:06:42Z</time>
      </trkpt>
      <trkpt lat="42.28414" lon="1.79985">
        <ele>1586.229</ele>
        <time>2019-04-08T02:06:43Z</time>
      </trkpt>
      <trkpt lat="42.28416" lon="1.79983">
        <ele>1587.261</ele>
        <time>2019-04-08T02:06:44Z</time>
      </trkpt>
      <trkpt lat="42.28418" lon="1.79983">
        <ele>1587.183</ele>
        <time>2019-04-08T02:06:45Z</time>
      </trkpt>
      <trkpt lat="42.28419" lon="1.79985">
        <ele>1588.225</ele>
        <time>2019-04-08T02:06:46Z</time>
      </trkpt>
      <trkpt lat="42.2842" lon="1.79986">
        <ele>1588.217</ele>
        <time>2019-04-08T02:06:46Z</time>
      </trkpt>
      <trkpt lat="42.28423" lon="1.79989">
        <ele>1589.208</ele>
        <time>2019-04-08T02:06:48Z</time>
      </trkpt>
      <trkpt lat="42.28424" lon="1.79991">
        <ele>1590.221</ele>
        <time>2019-04-08T02:06:48Z</time>
      </trkpt>
      <trkpt lat="42.28424" lon="1.79994">
        <ele>1590.313</ele>
        <time>2019-04-08T02:06:49Z</time>
      </trkpt>
      <trkpt lat="42.28424" lon="1.79997">
        <ele>1592.298</ele>
        <time>2019-04-08T02:06:50Z</time>
      </trkpt>
      <trkpt lat="42.28424" lon="1.8">
        <ele>1592.239</ele>
        <time>2019-04-08T02:06:51Z</time>
      </trkpt>
      <trkpt lat="42.28424" lon="1.80003">
        <ele>1593.059</ele>
        <time>2019-04-08T02:06:52Z</time>
      </trkpt>
      <trkpt lat="42.28425" lon="1.80006">
        <ele>1595.293</ele>
        <time>2019-04-08T02:06:53Z</time>
      </trkpt>
      <trkpt lat="42.28426" lon="1.80009">
        <ele>1596.262</ele>
        <time>2019-04-08T02:06:54Z</time>
      </trkpt>
      <trkpt lat="42.28427" lon="1.80006">
        <ele>1596.134</ele>
        <time>2019-04-08T02:06:55Z</time>
      </trkpt>
      <trkpt lat="42.28429" lon="1.80004">
        <ele>1596.221</ele>
        <time>2019-04-08T02:06:55Z</time>
      </trkpt>
      <trkpt lat="42.2843" lon="1.80003">
        <ele>1596.341</ele>
        <time>2019-04-08T02:06:56Z</time>
      </trkpt>
      <trkpt lat="42.28432" lon="1.8">
        <ele>1598.105</ele>
        <time>2019-04-08T02:06:57Z</time>
      </trkpt>
      <trkpt lat="42.28434" lon="1.79998">
        <ele>1599.208</ele>
        <time>2019-04-08T02:06:58Z</time>
      </trkpt>
      <trkpt lat="42.28436" lon="1.79997">
        <ele>1599.045</ele>
        <time>2019-04-08T02:06:59Z</time>
      </trkpt>
      <trkpt lat="42.28438" lon="1.79996">
        <ele>1598.167</ele>
        <time>2019-04-08T02:07:00Z</time>
      </trkpt>
      <trkpt lat="42.2844" lon="1.79994">
        <ele>1598.332</ele>
        <time>2019-04-08T02:07:01Z</time>
      </trkpt>
      <trkpt lat="42.28442" lon="1.79992">
        <ele>1599.233</ele>
        <time>2019-04-08T02:07:02Z</time>
      </trkpt>
      <trkpt lat="42.28443" lon="1.79989">
        <ele>1600.013</ele>
        <time>2019-04-08T02:07:03Z</time>
      </trkpt>
      <trkpt lat="42.28445" lon="1.79986">
        <ele>1600.047</ele>
        <time>2019-04-08T02:07:04Z</time>
      </trkpt>
      <trkpt lat="42.28446" lon="1.79984">
        <ele>1601.456</ele>
        <time>2019-04-08T02:07:05Z</time>
      </trkpt>
      <trkpt lat="42.28447" lon="1.7998">
        <ele>1602.268</ele>
        <time>2019-04-08T02:07:06Z</time>
      </trkpt>
      <trkpt lat="42.28448" lon="1.79978">
        <ele>1603.081</ele>
        <time>2019-04-08T02:07:07Z</time>
      </trkpt>
      <trkpt lat="42.2845" lon="1.79975">
        <ele>1603.461</ele>
        <time>2019-04-08T02:07:08Z</time>
      </trkpt>
      <trkpt lat="42.28451" lon="1.79973">
        <ele>1603.217</ele>
        <time>2019-04-08T02:07:09Z</time>
      </trkpt>
      <trkpt lat="42.28452" lon="1.79971">
        <ele>1604.008</ele>
        <time>2019-04-08T02:07:10Z</time>
      </trkpt>
      <trkpt lat="42.28453" lon="1.79968">
        <ele>1604.241</ele>
        <time>2019-04-08T02:07:10Z</time>
      </trkpt>
      <trkpt lat="42.28453" lon="1.79966">
        <ele>1605.243</ele>
        <time>2019-04-08T02:07:11Z</time>
      </trkpt>
      <trkpt lat="42.28455" lon="1.79963">
        <ele>1606.278</ele>
        <time>2019-04-08T02:07:12Z</time>
      </trkpt>
      <trkpt lat="42.28456" lon="1.7996">
        <ele>1607.359</ele>
        <time>2019-04-08T02:07:13Z</time>
      </trkpt>
      <trkpt lat="42.28458" lon="1.79958">
        <ele>1607.399</ele>
        <time>2019-04-08T02:07:14Z</time>
      </trkpt>
      <trkpt lat="42.28459" lon="1.79955">
        <ele>1608.293</ele>
        <time>2019-04-08T02:07:15Z</time>
      </trkpt>
      <trkpt lat="42.2846" lon="1.79951">
        <ele>1609.212</ele>
        <time>2019-04-08T02:07:16Z</time>
      </trkpt>
      <trkpt lat="42.28462" lon="1.79949">
        <ele>1609.284</ele>
        <time>2019-04-08T02:07:17Z</time>
      </trkpt>
      <trkpt lat="42.28463" lon="1.79947">
        <ele>1609.257</ele>
        <time>2019-04-08T02:07:18Z</time>
      </trkpt>
      <trkpt lat="42.28464" lon="1.79944">
        <ele>1610.2</ele>
        <time>2019-04-08T02:07:19Z</time>
      </trkpt>
      <trkpt lat="42.28465" lon="1.79941">
        <ele>1611.22</ele>
        <time>2019-04-08T02:07:20Z</time>
      </trkpt>
      <trkpt lat="42.28466" lon="1.79939">
        <ele>1611.108</ele>
        <time>2019-04-08T02:07:21Z</time>
      </trkpt>
      <trkpt lat="42.28468" lon="1.7994">
        <ele>1611.258</ele>
        <time>2019-04-08T02:07:22Z</time>
      </trkpt>
      <trkpt lat="42.28469" lon="1.79942">
        <ele>1613.28</ele>
        <time>2019-04-08T02:07:23Z</time>
      </trkpt>
      <trkpt lat="42.28471" lon="1.79944">
        <ele>1614.255</ele>
        <time>2019-04-08T02:07:23Z</time>
      </trkpt>
      <trkpt lat="42.28471" lon="1.79947">
        <ele>1614.436</ele>
        <time>2019-04-08T02:07:24Z</time>
      </trkpt>
      <trkpt lat="42.28472" lon="1.7995">
        <ele>1615.246</ele>
        <time>2019-04-08T02:07:25Z</time>
      </trkpt>
      <trkpt lat="42.28472" lon="1.79953">
        <ele>1615.16</ele>
        <time>2019-04-08T02:07:26Z</time>
      </trkpt>
      <trkpt lat="42.28473" lon="1.79956">
        <ele>1616.279</ele>
        <time>2019-04-08T02:07:27Z</time>
      </trkpt>
      <trkpt lat="42.28473" lon="1.79958">
        <ele>1616.211</ele>
        <time>2019-04-08T02:07:28Z</time>
      </trkpt>
      <trkpt lat="42.28473" lon="1.79961">
        <ele>1616.249</ele>
        <time>2019-04-08T02:07:28Z</time>
      </trkpt>
      <trkpt lat="42.28474" lon="1.79964">
        <ele>1617.102</ele>
        <time>2019-04-08T02:07:29Z</time>
      </trkpt>
      <trkpt lat="42.28475" lon="1.79967">
        <ele>1617.222</ele>
        <time>2019-04-08T02:07:30Z</time>
      </trkpt>
      <trkpt lat="42.28476" lon="1.7997">
        <ele>1617.108</ele>
        <time>2019-04-08T02:07:31Z</time>
      </trkpt>
      <trkpt lat="42.28477" lon="1.79973">
        <ele>1617.127</ele>
        <time>2019-04-08T02:07:32Z</time>
      </trkpt>
      <trkpt lat="42.28478" lon="1.79976">
        <ele>1618.279</ele>
        <time>2019-04-08T02:07:33Z</time>
      </trkpt>
      <trkpt lat="42.2848" lon="1.79978">
        <ele>1619.144</ele>
        <time>2019-04-08T02:07:34Z</time>
      </trkpt>
      <trkpt lat="42.28482" lon="1.79975">
        <ele>1619.285</ele>
        <time>2019-04-08T02:07:35Z</time>
      </trkpt>
      <trkpt lat="42.28482" lon="1.79972">
        <ele>1620.335</ele>
        <time>2019-04-08T02:07:36Z</time>
      </trkpt>
      <trkpt lat="42.28483" lon="1.79969">
        <ele>1620.199</ele>
        <time>2019-04-08T02:07:37Z</time>
      </trkpt>
      <trkpt lat="42.28484" lon="1.79966">
        <ele>1622.268</ele>
        <time>2019-04-08T02:07:38Z</time>
      </trkpt>
      <trkpt lat="42.28484" lon="1.79963">
        <ele>1622.14</ele>
        <time>2019-04-08T02:07:39Z</time>
      </trkpt>
      <trkpt lat="42.28486" lon="1.7996">
        <ele>1622.168</ele>
        <time>2019-04-08T02:07:40Z</time>
      </trkpt>
      <trkpt lat="42.28487" lon="1.79958">
        <ele>1622.342</ele>
        <time>2019-04-08T02:07:41Z</time>
      </trkpt>
      <trkpt lat="42.28487" lon="1.79956">
        <ele>1622.226</ele>
        <time>2019-04-08T02:07:41Z</time>
      </trkpt>
      <trkpt lat="42.28489" lon="1.79953">
        <ele>1624.208</ele>
        <time>2019-04-08T02:07:42Z</time>
      </trkpt>
      <trkpt lat="42.2849" lon="1.79951">
        <ele>1624.269</ele>
        <time>2019-04-08T02:07:43Z</time>
      </trkpt>
      <trkpt lat="42.28492" lon="1.79952">
        <ele>1625.311</ele>
        <time>2019-04-08T02:07:44Z</time>
      </trkpt>
      <trkpt lat="42.28492" lon="1.79956">
        <ele>1626.286</ele>
        <time>2019-04-08T02:07:45Z</time>
      </trkpt>
      <trkpt lat="42.28493" lon="1.79958">
        <ele>1627.297</ele>
        <time>2019-04-08T02:07:46Z</time>
      </trkpt>
      <trkpt lat="42.28493" lon="1.79961">
        <ele>1627.297</ele>
        <time>2019-04-08T02:07:47Z</time>
      </trkpt>
      <trkpt lat="42.28494" lon="1.79964">
        <ele>1627.371</ele>
        <time>2019-04-08T02:07:48Z</time>
      </trkpt>
      <trkpt lat="42.28495" lon="1.79966">
        <ele>1628.13</ele>
        <time>2019-04-08T02:07:48Z</time>
      </trkpt>
      <trkpt lat="42.28496" lon="1.79968">
        <ele>1628.032</ele>
        <time>2019-04-08T02:07:49Z</time>
      </trkpt>
      <trkpt lat="42.28496" lon="1.79971">
        <ele>1629.266</ele>
        <time>2019-04-08T02:07:50Z</time>
      </trkpt>
      <trkpt lat="42.28496" lon="1.79974">
        <ele>1629.229</ele>
        <time>2019-04-08T02:07:51Z</time>
      </trkpt>
      <trkpt lat="42.28497" lon="1.79976">
        <ele>1629.121</ele>
        <time>2019-04-08T02:07:52Z</time>
      </trkpt>
      <trkpt lat="42.28498" lon="1.7998">
        <ele>1630.108</ele>
        <time>2019-04-08T02:07:53Z</time>
      </trkpt>
      <trkpt lat="42.28499" lon="1.79982">
        <ele>1631.249</ele>
        <time>2019-04-08T02:07:53Z</time>
      </trkpt>
      <trkpt lat="42.28499" lon="1.79985">
        <ele>1631.381</ele>
        <time>2019-04-08T02:07:55Z</time>
      </trkpt>
      <trkpt lat="42.28499" lon="1.79988">
        <ele>1631.326</ele>
        <time>2019-04-08T02:07:55Z</time>
      </trkpt>
      <trkpt lat="42.28501" lon="1.7999">
        <ele>1632.397</ele>
        <time>2019-04-08T02:07:56Z</time>
      </trkpt>
      <trkpt lat="42.28502" lon="1.79993">
        <ele>1633.187</ele>
        <time>2019-04-08T02:07:57Z</time>
      </trkpt>
      <trkpt lat="42.28502" lon="1.79995">
        <ele>1634.271</ele>
        <time>2019-04-08T02:07:58Z</time>
      </trkpt>
      <trkpt lat="42.28502" lon="1.79998">
        <ele>1634.45</ele>
        <time>2019-04-08T02:07:59Z</time>
      </trkpt>
      <trkpt lat="42.28503" lon="1.8">
        <ele>1634.222</ele>
        <time>2019-04-08T02:07:59Z</time>
      </trkpt>
      <trkpt lat="42.28503" lon="1.80003">
        <ele>1634.399</ele>
        <time>2019-04-08T02:08:00Z</time>
      </trkpt>
      <trkpt lat="42.28504" lon="1.80006">
        <ele>1635.207</ele>
        <time>2019-04-08T02:08:01Z</time>
      </trkpt>
      <trkpt lat="42.28504" lon="1.80009">
        <ele>1635.127</ele>
        <time>2019-04-08T02:08:02Z</time>
      </trkpt>
      <trkpt lat="42.28504" lon="1.80012">
        <ele>1636.208</ele>
        <time>2019-04-08T02:08:03Z</time>
      </trkpt>
      <trkpt lat="42.28506" lon="1.80014">
        <ele>1636.312</ele>
        <time>2019-04-08T02:08:04Z</time>
      </trkpt>
      <trkpt lat="42.28506" lon="1.80018">
        <ele>1638.114</ele>
        <time>2019-04-08T02:08:05Z</time>
      </trkpt>
      <trkpt lat="42.28507" lon="1.8002">
        <ele>1638.139</ele>
        <time>2019-04-08T02:08:05Z</time>
      </trkpt>
      <trkpt lat="42.28506" lon="1.80023">
        <ele>1640.21</ele>
        <time>2019-04-08T02:08:06Z</time>
      </trkpt>
      <trkpt lat="42.28506" lon="1.80026">
        <ele>1640.18</ele>
        <time>2019-04-08T02:08:07Z</time>
      </trkpt>
      <trkpt lat="42.28507" lon="1.80029">
        <ele>1641.174</ele>
        <time>2019-04-08T02:08:08Z</time>
      </trkpt>
      <trkpt lat="42.28508" lon="1.80032">
        <ele>1642.243</ele>
        <time>2019-04-08T02:08:09Z</time>
      </trkpt>
      <trkpt lat="42.28508" lon="1.80035">
        <ele>1642.295</ele>
        <time>2019-04-08T02:08:10Z</time>
      </trkpt>
      <trkpt lat="42.28509" lon="1.80038">
        <ele>1643.377</ele>
        <time>2019-04-08T02:08:11Z</time>
      </trkpt>
      <trkpt lat="42.2851" lon="1.8004">
        <ele>1644.161</ele>
        <time>2019-04-08T02:08:12Z</time>
      </trkpt>
      <trkpt lat="42.2851" lon="1.80043">
        <ele>1644.127</ele>
        <time>2019-04-08T02:08:13Z</time>
      </trkpt>
      <trkpt lat="42.2851" lon="1.80047">
        <ele>1645.208</ele>
        <time>2019-04-08T02:08:14Z</time>
      </trkpt>
      <trkpt lat="42.2851" lon="1.8005">
        <ele>1646.01</ele>
        <time>2019-04-08T02:08:15Z</time>
      </trkpt>
      <trkpt lat="42.2851" lon="1.80054">
        <ele>1646.312</ele>
        <time>2019-04-08T02:08:16Z</time>
      </trkpt>
      <trkpt lat="42.2851" lon="1.80057">
        <ele>1647.077</ele>
        <time>2019-04-08T02:08:17Z</time>
      </trkpt>
      <trkpt lat="42.2851" lon="1.8006">
        <ele>1647.388</ele>
        <time>2019-04-08T02:08:18Z</time>
      </trkpt>
      <trkpt lat="42.28511" lon="1.80064">
        <ele>1647.188</ele>
        <time>2019-04-08T02:08:19Z</time>
      </trkpt>
      <trkpt lat="42.28511" lon="1.80067">
        <ele>1650.252</ele>
        <time>2019-04-08T02:08:20Z</time>
      </trkpt>
      <trkpt lat="42.2851" lon="1.8007">
        <ele>1650.431</ele>
        <time>2019-04-08T02:08:21Z</time>
      </trkpt>
      <trkpt lat="42.28511" lon="1.80073">
        <ele>1651.183</ele>
        <time>2019-04-08T02:08:22Z</time>
      </trkpt>
      <trkpt lat="42.28511" lon="1.80076">
        <ele>1651.181</ele>
        <time>2019-04-08T02:08:22Z</time>
      </trkpt>
      <trkpt lat="42.28511" lon="1.80078">
        <ele>1652.361</ele>
        <time>2019-04-08T02:08:23Z</time>
      </trkpt>
      <trkpt lat="42.2851" lon="1.80081">
        <ele>1653.117</ele>
        <time>2019-04-08T02:08:24Z</time>
      </trkpt>
      <trkpt lat="42.28511" lon="1.80084">
        <ele>1653.208</ele>
        <time>2019-04-08T02:08:25Z</time>
      </trkpt>
      <trkpt lat="42.28511" lon="1.80087">
        <ele>1654.341</ele>
        <time>2019-04-08T02:08:26Z</time>
      </trkpt>
      <trkpt lat="42.28513" lon="1.80084">
        <ele>1655.223</ele>
        <time>2019-04-08T02:08:27Z</time>
      </trkpt>
      <trkpt lat="42.28515" lon="1.80082">
        <ele>1656.468</ele>
        <time>2019-04-08T02:08:28Z</time>
      </trkpt>
      <trkpt lat="42.28517" lon="1.80081">
        <ele>1657.189</ele>
        <time>2019-04-08T02:08:29Z</time>
      </trkpt>
      <trkpt lat="42.28518" lon="1.80084">
        <ele>1658.079</ele>
        <time>2019-04-08T02:08:30Z</time>
      </trkpt>
      <trkpt lat="42.28517" lon="1.80087">
        <ele>1658.183</ele>
        <time>2019-04-08T02:08:31Z</time>
      </trkpt>
      <trkpt lat="42.28517" lon="1.8009">
        <ele>1659.272</ele>
        <time>2019-04-08T02:08:31Z</time>
      </trkpt>
      <trkpt lat="42.28517" lon="1.80095">
        <ele>1660.234</ele>
        <time>2019-04-08T02:08:33Z</time>
      </trkpt>
      <trkpt lat="42.28518" lon="1.80098">
        <ele>1661.278</ele>
        <time>2019-04-08T02:08:34Z</time>
      </trkpt>
      <trkpt lat="42.28517" lon="1.801">
        <ele>1661.333</ele>
        <time>2019-04-08T02:08:35Z</time>
      </trkpt>
      <trkpt lat="42.28516" lon="1.80103">
        <ele>1661.126</ele>
        <time>2019-04-08T02:08:36Z</time>
      </trkpt>
      <trkpt lat="42.28516" lon="1.80106">
        <ele>1662.308</ele>
        <time>2019-04-08T02:08:36Z</time>
      </trkpt>
      <trkpt lat="42.28516" lon="1.80109">
        <ele>1663.33</ele>
        <time>2019-04-08T02:08:37Z</time>
      </trkpt>
      <trkpt lat="42.28516" lon="1.80113">
        <ele>1663.182</ele>
        <time>2019-04-08T02:08:38Z</time>
      </trkpt>
      <trkpt lat="42.28516" lon="1.80116">
        <ele>1663.187</ele>
        <time>2019-04-08T02:08:39Z</time>
      </trkpt>
      <trkpt lat="42.28516" lon="1.80118">
        <ele>1664.218</ele>
        <time>2019-04-08T02:08:40Z</time>
      </trkpt>
      <trkpt lat="42.28517" lon="1.80122">
        <ele>1664.228</ele>
        <time>2019-04-08T02:08:41Z</time>
      </trkpt>
      <trkpt lat="42.28517" lon="1.80125">
        <ele>1665.192</ele>
        <time>2019-04-08T02:08:42Z</time>
      </trkpt>
      <trkpt lat="42.28517" lon="1.80128">
        <ele>1666.381</ele>
        <time>2019-04-08T02:08:43Z</time>
      </trkpt>
      <trkpt lat="42.28517" lon="1.80131">
        <ele>1667.243</ele>
        <time>2019-04-08T02:08:44Z</time>
      </trkpt>
      <trkpt lat="42.28517" lon="1.80134">
        <ele>1667.116</ele>
        <time>2019-04-08T02:08:45Z</time>
      </trkpt>
      <trkpt lat="42.28517" lon="1.80137">
        <ele>1667.376</ele>
        <time>2019-04-08T02:08:46Z</time>
      </trkpt>
      <trkpt lat="42.28517" lon="1.8014">
        <ele>1668.113</ele>
        <time>2019-04-08T02:08:47Z</time>
      </trkpt>
      <trkpt lat="42.28517" lon="1.80144">
        <ele>1668.308</ele>
        <time>2019-04-08T02:08:48Z</time>
      </trkpt>
      <trkpt lat="42.28517" lon="1.80146">
        <ele>1668.194</ele>
        <time>2019-04-08T02:08:49Z</time>
      </trkpt>
      <trkpt lat="42.28517" lon="1.8015">
        <ele>1669.166</ele>
        <time>2019-04-08T02:08:50Z</time>
      </trkpt>
      <trkpt lat="42.28517" lon="1.80153">
        <ele>1670.361</ele>
        <time>2019-04-08T02:08:50Z</time>
      </trkpt>
      <trkpt lat="42.28517" lon="1.80156">
        <ele>1670.372</ele>
        <time>2019-04-08T02:08:51Z</time>
      </trkpt>
      <trkpt lat="42.28518" lon="1.80159">
        <ele>1671.222</ele>
        <time>2019-04-08T02:08:52Z</time>
      </trkpt>
      <trkpt lat="42.28518" lon="1.80162">
        <ele>1672.246</ele>
        <time>2019-04-08T02:08:53Z</time>
      </trkpt>
      <trkpt lat="42.28518" lon="1.80165">
        <ele>1672.275</ele>
        <time>2019-04-08T02:08:54Z</time>
      </trkpt>
      <trkpt lat="42.28518" lon="1.80167">
        <ele>1673.127</ele>
        <time>2019-04-08T02:08:55Z</time>
      </trkpt>
      <trkpt lat="42.28518" lon="1.8017">
        <ele>1673.155</ele>
        <time>2019-04-08T02:08:56Z</time>
      </trkpt>
      <trkpt lat="42.28518" lon="1.80173">
        <ele>1673.407</ele>
        <time>2019-04-08T02:08:56Z</time>
      </trkpt>
      <trkpt lat="42.28518" lon="1.80176">
        <ele>1673.117</ele>
        <time>2019-04-08T02:08:58Z</time>
      </trkpt>
      <trkpt lat="42.28518" lon="1.80179">
        <ele>1673.208</ele>
        <time>2019-04-08T02:08:58Z</time>
      </trkpt>
      <trkpt lat="42.28517" lon="1.80182">
        <ele>1675.118</ele>
        <time>2019-04-08T02:08:59Z</time>
      </trkpt>
      <trkpt lat="42.28517" lon="1.80184">
        <ele>1675.38</ele>
        <time>2019-04-08T02:09:00Z</time>
      </trkpt>
      <trkpt lat="42.28518" lon="1.80187">
        <ele>1676.295</ele>
        <time>2019-04-08T02:09:01Z</time>
      </trkpt>
      <trkpt lat="42.28518" lon="1.8019">
        <ele>1677.266</ele>
        <time>2019-04-08T02:09:02Z</time>
      </trkpt>
      <trkpt lat="42.28519" lon="1.80193">
        <ele>1678.116</ele>
        <time>2019-04-08T02:09:03Z</time>
      </trkpt>
      <trkpt lat="42.28519" lon="1.80196">
        <ele>1678.31</ele>
        <time>2019-04-08T02:09:03Z</time>
      </trkpt>
      <trkpt lat="42.28518" lon="1.80198">
        <ele>1679.389</ele>
        <time>2019-04-08T02:09:04Z</time>
      </trkpt>
      <trkpt lat="42.28518" lon="1.80201">
        <ele>1679.221</ele>
        <time>2019-04-08T02:09:05Z</time>
      </trkpt>
      <trkpt lat="42.28519" lon="1.80203">
        <ele>1680.268</ele>
        <time>2019-04-08T02:09:06Z</time>
      </trkpt>
      <trkpt lat="42.28519" lon="1.80206">
        <ele>1681.142</ele>
        <time>2019-04-08T02:09:07Z</time>
      </trkpt>
      <trkpt lat="42.28519" lon="1.80209">
        <ele>1682.226</ele>
        <time>2019-04-08T02:09:08Z</time>
      </trkpt>
      <trkpt lat="42.28519" lon="1.80212">
        <ele>1682.208</ele>
        <time>2019-04-08T02:09:09Z</time>
      </trkpt>
      <trkpt lat="42.28519" lon="1.80215">
        <ele>1683.119</ele>
        <time>2019-04-08T02:09:09Z</time>
      </trkpt>
      <trkpt lat="42.28519" lon="1.80219">
        <ele>1684.381</ele>
        <time>2019-04-08T02:09:11Z</time>
      </trkpt>
      <trkpt lat="42.28519" lon="1.80221">
        <ele>1685.216</ele>
        <time>2019-04-08T02:09:11Z</time>
      </trkpt>
      <trkpt lat="42.28519" lon="1.80224">
        <ele>1685.297</ele>
        <time>2019-04-08T02:09:12Z</time>
      </trkpt>
      <trkpt lat="42.28519" lon="1.80227">
        <ele>1686.227</ele>
        <time>2019-04-08T02:09:13Z</time>
      </trkpt>
      <trkpt lat="42.2852" lon="1.8023">
        <ele>1686.211</ele>
        <time>2019-04-08T02:09:14Z</time>
      </trkpt>
      <trkpt lat="42.2852" lon="1.80233">
        <ele>1687.28</ele>
        <time>2019-04-08T02:09:15Z</time>
      </trkpt>
      <trkpt lat="42.2852" lon="1.80235">
        <ele>1687.382</ele>
        <time>2019-04-08T02:09:15Z</time>
      </trkpt>
      <trkpt lat="42.28522" lon="1.80238">
        <ele>1689.297</ele>
        <time>2019-04-08T02:09:16Z</time>
      </trkpt>
      <trkpt lat="42.28523" lon="1.8024">
        <ele>1690.123</ele>
        <time>2019-04-08T02:09:17Z</time>
      </trkpt>
      <trkpt lat="42.28524" lon="1.80242">
        <ele>1691.125</ele>
        <time>2019-04-08T02:09:18Z</time>
      </trkpt>
      <trkpt lat="42.28526" lon="1.80242">
        <ele>1692.108</ele>
        <time>2019-04-08T02:09:19Z</time>
      </trkpt>
      <trkpt lat="42.28526" lon="1.80239">
        <ele>1693.222</ele>
        <time>2019-04-08T02:09:20Z</time>
      </trkpt>
      <trkpt lat="42.28528" lon="1.80237">
        <ele>1694.344</ele>
        <time>2019-04-08T02:09:21Z</time>
      </trkpt>
      <trkpt lat="42.28529" lon="1.80234">
        <ele>1694.279</ele>
        <time>2019-04-08T02:09:21Z</time>
      </trkpt>
      <trkpt lat="42.28531" lon="1.80233">
        <ele>1694.15</ele>
        <time>2019-04-08T02:09:22Z</time>
      </trkpt>
      <trkpt lat="42.28532" lon="1.8023">
        <ele>1695.14</ele>
        <time>2019-04-08T02:09:23Z</time>
      </trkpt>
      <trkpt lat="42.28534" lon="1.80229">
        <ele>1696.214</ele>
        <time>2019-04-08T02:09:24Z</time>
      </trkpt>
      <trkpt lat="42.28536" lon="1.80228">
        <ele>1697.233</ele>
        <time>2019-04-08T02:09:25Z</time>
      </trkpt>
      <trkpt lat="42.28537" lon="1.80226">
        <ele>1698.165</ele>
        <time>2019-04-08T02:09:26Z</time>
      </trkpt>
      <trkpt lat="42.28538" lon="1.80225">
        <ele>1699.333</ele>
        <time>2019-04-08T02:09:26Z</time>
      </trkpt>
      <trkpt lat="42.28541" lon="1.80223">
        <ele>1699.223</ele>
        <time>2019-04-08T02:09:27Z</time>
      </trkpt>
      <trkpt lat="42.28542" lon="1.80221">
        <ele>1700.215</ele>
        <time>2019-04-08T02:09:28Z</time>
      </trkpt>
      <trkpt lat="42.28544" lon="1.80221">
        <ele>1700.308</ele>
        <time>2019-04-08T02:09:29Z</time>
      </trkpt>
      <trkpt lat="42.28547" lon="1.8022">
        <ele>1701.096</ele>
        <time>2019-04-08T02:09:30Z</time>
      </trkpt>
      <trkpt lat="42.28548" lon="1.80218">
        <ele>1702.028</ele>
        <time>2019-04-08T02:09:31Z</time>
      </trkpt>
      <trkpt lat="42.28549" lon="1.80216">
        <ele>1703.333</ele>
        <time>2019-04-08T02:09:32Z</time>
      </trkpt>
      <trkpt lat="42.28551" lon="1.80213">
        <ele>1703.264</ele>
        <time>2019-04-08T02:09:33Z</time>
      </trkpt>
      <trkpt lat="42.28552" lon="1.8021">
        <ele>1704.134</ele>
        <time>2019-04-08T02:09:34Z</time>
      </trkpt>
      <trkpt lat="42.28554" lon="1.80208">
        <ele>1705.278</ele>
        <time>2019-04-08T02:09:34Z</time>
      </trkpt>
      <trkpt lat="42.28555" lon="1.80205">
        <ele>1705.337</ele>
        <time>2019-04-08T02:09:35Z</time>
      </trkpt>
      <trkpt lat="42.28557" lon="1.80203">
        <ele>1706.179</ele>
        <time>2019-04-08T02:09:36Z</time>
      </trkpt>
      <trkpt lat="42.28559" lon="1.80201">
        <ele>1705.229</ele>
        <time>2019-04-08T02:09:37Z</time>
      </trkpt>
      <trkpt lat="42.2856" lon="1.80201">
        <ele>1705.1</ele>
        <time>2019-04-08T02:09:38Z</time>
      </trkpt>
      <trkpt lat="42.28563" lon="1.802">
        <ele>1706.22</ele>
        <time>2019-04-08T02:09:39Z</time>
      </trkpt>
      <trkpt lat="42.28565" lon="1.80199">
        <ele>1707.308</ele>
        <time>2019-04-08T02:09:40Z</time>
      </trkpt>
      <trkpt lat="42.28566" lon="1.80197">
        <ele>1707.275</ele>
        <time>2019-04-08T02:09:41Z</time>
      </trkpt>
      <trkpt lat="42.28568" lon="1.80198">
        <ele>1707.037</ele>
        <time>2019-04-08T02:09:41Z</time>
      </trkpt>
      <trkpt lat="42.2857" lon="1.80197">
        <ele>1708.312</ele>
        <time>2019-04-08T02:09:42Z</time>
      </trkpt>
      <trkpt lat="42.28573" lon="1.80196">
        <ele>1709.183</ele>
        <time>2019-04-08T02:09:43Z</time>
      </trkpt>
      <trkpt lat="42.28575" lon="1.80195">
        <ele>1709.313</ele>
        <time>2019-04-08T02:09:44Z</time>
      </trkpt>
      <trkpt lat="42.28577" lon="1.80194">
        <ele>1709.237</ele>
        <time>2019-04-08T02:09:45Z</time>
      </trkpt>
      <trkpt lat="42.28579" lon="1.80193">
        <ele>1709.466</ele>
        <time>2019-04-08T02:09:46Z</time>
      </trkpt>
      <trkpt lat="42.2858" lon="1.80191">
        <ele>1710.268</ele>
        <time>2019-04-08T02:09:47Z</time>
      </trkpt>
      <trkpt lat="42.28581" lon="1.80189">
        <ele>1711.152</ele>
        <time>2019-04-08T02:09:47Z</time>
      </trkpt>
      <trkpt lat="42.28583" lon="1.80186">
        <ele>1710.153</ele>
        <time>2019-04-08T02:09:48Z</time>
      </trkpt>
      <trkpt lat="42.28584" lon="1.80184">
        <ele>1711.208</ele>
        <time>2019-04-08T02:09:49Z</time>
      </trkpt>
      <trkpt lat="42.28586" lon="1.80181">
        <ele>1711.108</ele>
        <time>2019-04-08T02:09:50Z</time>
      </trkpt>
      <trkpt lat="42.28588" lon="1.8018">
        <ele>1711.218</ele>
        <time>2019-04-08T02:09:51Z</time>
      </trkpt>
      <trkpt lat="42.28589" lon="1.80177">
        <ele>1712.23</ele>
        <time>2019-04-08T02:09:52Z</time>
      </trkpt>
      <trkpt lat="42.28589" lon="1.80173">
        <ele>1712.365</ele>
        <time>2019-04-08T02:09:53Z</time>
      </trkpt>
      <trkpt lat="42.2859" lon="1.8017">
        <ele>1713.386</ele>
        <time>2019-04-08T02:09:54Z</time>
      </trkpt>
      <trkpt lat="42.28591" lon="1.80167">
        <ele>1714.396</ele>
        <time>2019-04-08T02:09:55Z</time>
      </trkpt>
      <trkpt lat="42.28592" lon="1.80165">
        <ele>1714.01</ele>
        <time>2019-04-08T02:09:56Z</time>
      </trkpt>
      <trkpt lat="42.28594" lon="1.80162">
        <ele>1714.139</ele>
        <time>2019-04-08T02:09:57Z</time>
      </trkpt>
      <trkpt lat="42.28595" lon="1.8016">
        <ele>1715.251</ele>
        <time>2019-04-08T02:09:58Z</time>
      </trkpt>
      <trkpt lat="42.28596" lon="1.80158">
        <ele>1715.362</ele>
        <time>2019-04-08T02:09:59Z</time>
      </trkpt>
      <trkpt lat="42.28597" lon="1.80156">
        <ele>1715.383</ele>
        <time>2019-04-08T02:09:59Z</time>
      </trkpt>
      <trkpt lat="42.28599" lon="1.80153">
        <ele>1716.211</ele>
        <time>2019-04-08T02:10:00Z</time>
      </trkpt>
      <trkpt lat="42.286" lon="1.80151">
        <ele>1716.108</ele>
        <time>2019-04-08T02:10:01Z</time>
      </trkpt>
      <trkpt lat="42.28601" lon="1.80149">
        <ele>1715.319</ele>
        <time>2019-04-08T02:10:02Z</time>
      </trkpt>
      <trkpt lat="42.28603" lon="1.80147">
        <ele>1716.121</ele>
        <time>2019-04-08T02:10:03Z</time>
      </trkpt>
      <trkpt lat="42.28604" lon="1.80144">
        <ele>1716.266</ele>
        <time>2019-04-08T02:10:04Z</time>
      </trkpt>
      <trkpt lat="42.28606" lon="1.80142">
        <ele>1716.197</ele>
        <time>2019-04-08T02:10:05Z</time>
      </trkpt>
      <trkpt lat="42.28608" lon="1.8014">
        <ele>1717.297</ele>
        <time>2019-04-08T02:10:06Z</time>
      </trkpt>
      <trkpt lat="42.28609" lon="1.80139">
        <ele>1717.151</ele>
        <time>2019-04-08T02:10:06Z</time>
      </trkpt>
      <trkpt lat="42.28611" lon="1.80136">
        <ele>1718.11</ele>
        <time>2019-04-08T02:10:07Z</time>
      </trkpt>
      <trkpt lat="42.28613" lon="1.80134">
        <ele>1718.392</ele>
        <time>2019-04-08T02:10:08Z</time>
      </trkpt>
      <trkpt lat="42.28614" lon="1.80131">
        <ele>1718.225</ele>
        <time>2019-04-08T02:10:09Z</time>
      </trkpt>
      <trkpt lat="42.28615" lon="1.80128">
        <ele>1719.226</ele>
        <time>2019-04-08T02:10:10Z</time>
      </trkpt>
      <trkpt lat="42.28617" lon="1.80126">
        <ele>1718.108</ele>
        <time>2019-04-08T02:10:11Z</time>
      </trkpt>
      <trkpt lat="42.28618" lon="1.80123">
        <ele>1719.108</ele>
        <time>2019-04-08T02:10:12Z</time>
      </trkpt>
      <trkpt lat="42.28619" lon="1.80121">
        <ele>1719.185</ele>
        <time>2019-04-08T02:10:13Z</time>
      </trkpt>
      <trkpt lat="42.28621" lon="1.80119">
        <ele>1719.377</ele>
        <time>2019-04-08T02:10:14Z</time>
      </trkpt>
      <trkpt lat="42.28622" lon="1.80116">
        <ele>1720.322</ele>
        <time>2019-04-08T02:10:15Z</time>
      </trkpt>
      <trkpt lat="42.28622" lon="1.80114">
        <ele>1720.273</ele>
        <time>2019-04-08T02:10:16Z</time>
      </trkpt>
      <trkpt lat="42.28623" lon="1.80111">
        <ele>1720.133</ele>
        <time>2019-04-08T02:10:16Z</time>
      </trkpt>
      <trkpt lat="42.28625" lon="1.80109">
        <ele>1720.387</ele>
        <time>2019-04-08T02:10:17Z</time>
      </trkpt>
      <trkpt lat="42.28627" lon="1.80107">
        <ele>1720.036</ele>
        <time>2019-04-08T02:10:18Z</time>
      </trkpt>
      <trkpt lat="42.28628" lon="1.80105">
        <ele>1720.328</ele>
        <time>2019-04-08T02:10:19Z</time>
      </trkpt>
      <trkpt lat="42.28629" lon="1.80102">
        <ele>1721.066</ele>
        <time>2019-04-08T02:10:20Z</time>
      </trkpt>
      <trkpt lat="42.28631" lon="1.801">
        <ele>1722.429</ele>
        <time>2019-04-08T02:10:21Z</time>
      </trkpt>
      <trkpt lat="42.28632" lon="1.80098">
        <ele>1723.221</ele>
        <time>2019-04-08T02:10:22Z</time>
      </trkpt>
      <trkpt lat="42.28634" lon="1.80096">
        <ele>1723.208</ele>
        <time>2019-04-08T02:10:23Z</time>
      </trkpt>
      <trkpt lat="42.28636" lon="1.80093">
        <ele>1722.059</ele>
        <time>2019-04-08T02:10:24Z</time>
      </trkpt>
      <trkpt lat="42.28637" lon="1.80091">
        <ele>1723.121</ele>
        <time>2019-04-08T02:10:25Z</time>
      </trkpt>
      <trkpt lat="42.28639" lon="1.80089">
        <ele>1724.356</ele>
        <time>2019-04-08T02:10:25Z</time>
      </trkpt>
      <trkpt lat="42.28641" lon="1.80088">
        <ele>1724.357</ele>
        <time>2019-04-08T02:10:26Z</time>
      </trkpt>
      <trkpt lat="42.28643" lon="1.80086">
        <ele>1725.367</ele>
        <time>2019-04-08T02:10:27Z</time>
      </trkpt>
      <trkpt lat="42.28644" lon="1.80084">
        <ele>1726.281</ele>
        <time>2019-04-08T02:10:28Z</time>
      </trkpt>
      <trkpt lat="42.28646" lon="1.80082">
        <ele>1727.23</ele>
        <time>2019-04-08T02:10:29Z</time>
      </trkpt>
      <trkpt lat="42.28648" lon="1.8008">
        <ele>1727.012</ele>
        <time>2019-04-08T02:10:30Z</time>
      </trkpt>
      <trkpt lat="42.2865" lon="1.80079">
        <ele>1728.016</ele>
        <time>2019-04-08T02:10:31Z</time>
      </trkpt>
      <trkpt lat="42.28652" lon="1.80077">
        <ele>1728.476</ele>
        <time>2019-04-08T02:10:32Z</time>
      </trkpt>
      <trkpt lat="42.28654" lon="1.80075">
        <ele>1729.213</ele>
        <time>2019-04-08T02:10:33Z</time>
      </trkpt>
      <trkpt lat="42.28656" lon="1.80074">
        <ele>1730.208</ele>
        <time>2019-04-08T02:10:34Z</time>
      </trkpt>
      <trkpt lat="42.28657" lon="1.80072">
        <ele>1731.094</ele>
        <time>2019-04-08T02:10:34Z</time>
      </trkpt>
      <trkpt lat="42.28659" lon="1.80071">
        <ele>1731.356</ele>
        <time>2019-04-08T02:10:35Z</time>
      </trkpt>
      <trkpt lat="42.2866" lon="1.8007">
        <ele>1733.061</ele>
        <time>2019-04-08T02:10:36Z</time>
      </trkpt>
      <trkpt lat="42.28662" lon="1.80069">
        <ele>1733.372</ele>
        <time>2019-04-08T02:10:37Z</time>
      </trkpt>
      <trkpt lat="42.28664" lon="1.80068">
        <ele>1734.152</ele>
        <time>2019-04-08T02:10:37Z</time>
      </trkpt>
      <trkpt lat="42.28666" lon="1.80066">
        <ele>1733.376</ele>
        <time>2019-04-08T02:10:38Z</time>
      </trkpt>
      <trkpt lat="42.28667" lon="1.80065">
        <ele>1734.325</ele>
        <time>2019-04-08T02:10:39Z</time>
      </trkpt>
      <trkpt lat="42.28669" lon="1.80063">
        <ele>1735.257</ele>
        <time>2019-04-08T02:10:40Z</time>
      </trkpt>
      <trkpt lat="42.28671" lon="1.80062">
        <ele>1735.179</ele>
        <time>2019-04-08T02:10:41Z</time>
      </trkpt>
      <trkpt lat="42.28673" lon="1.80061">
        <ele>1737.105</ele>
        <time>2019-04-08T02:10:42Z</time>
      </trkpt>
      <trkpt lat="42.28674" lon="1.80058">
        <ele>1737.225</ele>
        <time>2019-04-08T02:10:43Z</time>
      </trkpt>
      <trkpt lat="42.28675" lon="1.80055">
        <ele>1738.208</ele>
        <time>2019-04-08T02:10:44Z</time>
      </trkpt>
      <trkpt lat="42.28677" lon="1.80054">
        <ele>1738.17</ele>
        <time>2019-04-08T02:10:44Z</time>
      </trkpt>
      <trkpt lat="42.28678" lon="1.80051">
        <ele>1739.172</ele>
        <time>2019-04-08T02:10:45Z</time>
      </trkpt>
      <trkpt lat="42.28679" lon="1.80049">
        <ele>1740.437</ele>
        <time>2019-04-08T02:10:46Z</time>
      </trkpt>
      <trkpt lat="42.28681" lon="1.80046">
        <ele>1740.238</ele>
        <time>2019-04-08T02:10:47Z</time>
      </trkpt>
      <trkpt lat="42.28682" lon="1.80044">
        <ele>1741.268</ele>
        <time>2019-04-08T02:10:48Z</time>
      </trkpt>
      <trkpt lat="42.28684" lon="1.80042">
        <ele>1741.182</ele>
        <time>2019-04-08T02:10:49Z</time>
      </trkpt>
      <trkpt lat="42.28684" lon="1.80039">
        <ele>1742.151</ele>
        <time>2019-04-08T02:10:50Z</time>
      </trkpt>
      <trkpt lat="42.28685" lon="1.80035">
        <ele>1742.223</ele>
        <time>2019-04-08T02:10:51Z</time>
      </trkpt>
      <trkpt lat="42.28685" lon="1.80032">
        <ele>1743.176</ele>
        <time>2019-04-08T02:10:52Z</time>
      </trkpt>
      <trkpt lat="42.28686" lon="1.80029">
        <ele>1743.29</ele>
        <time>2019-04-08T02:10:53Z</time>
      </trkpt>
      <trkpt lat="42.28687" lon="1.80026">
        <ele>1744.019</ele>
        <time>2019-04-08T02:10:54Z</time>
      </trkpt>
      <trkpt lat="42.28688" lon="1.80023">
        <ele>1744.008</ele>
        <time>2019-04-08T02:10:55Z</time>
      </trkpt>
      <trkpt lat="42.28688" lon="1.80021">
        <ele>1744.24</ele>
        <time>2019-04-08T02:10:55Z</time>
      </trkpt>
      <trkpt lat="42.28689" lon="1.80018">
        <ele>1745.252</ele>
        <time>2019-04-08T02:10:56Z</time>
      </trkpt>
      <trkpt lat="42.2869" lon="1.80016">
        <ele>1745.257</ele>
        <time>2019-04-08T02:10:57Z</time>
      </trkpt>
      <trkpt lat="42.28691" lon="1.80013">
        <ele>1744.188</ele>
        <time>2019-04-08T02:10:58Z</time>
      </trkpt>
      <trkpt lat="42.28692" lon="1.80011">
        <ele>1744.148</ele>
        <time>2019-04-08T02:10:59Z</time>
      </trkpt>
      <trkpt lat="42.28693" lon="1.80008">
        <ele>1745.262</ele>
        <time>2019-04-08T02:11:00Z</time>
      </trkpt>
      <trkpt lat="42.28694" lon="1.80005">
        <ele>1745.161</ele>
        <time>2019-04-08T02:11:01Z</time>
      </trkpt>
      <trkpt lat="42.28696" lon="1.80003">
        <ele>1746.353</ele>
        <time>2019-04-08T02:11:02Z</time>
      </trkpt>
      <trkpt lat="42.28698" lon="1.80001">
        <ele>1746.222</ele>
        <time>2019-04-08T02:11:03Z</time>
      </trkpt>
      <trkpt lat="42.28699" lon="1.79998">
        <ele>1747.362</ele>
        <time>2019-04-08T02:11:03Z</time>
      </trkpt>
      <trkpt lat="42.287" lon="1.79996">
        <ele>1747.008</ele>
        <time>2019-04-08T02:11:04Z</time>
      </trkpt>
      <trkpt lat="42.28701" lon="1.79993">
        <ele>1747.208</ele>
        <time>2019-04-08T02:11:05Z</time>
      </trkpt>
      <trkpt lat="42.28702" lon="1.7999">
        <ele>1747.955</ele>
        <time>2019-04-08T02:11:06Z</time>
      </trkpt>
      <trkpt lat="42.28703" lon="1.79988">
        <ele>1748.317</ele>
        <time>2019-04-08T02:11:07Z</time>
      </trkpt>
      <trkpt lat="42.28704" lon="1.79985">
        <ele>1749.282</ele>
        <time>2019-04-08T02:11:08Z</time>
      </trkpt>
      <trkpt lat="42.28705" lon="1.79983">
        <ele>1749.173</ele>
        <time>2019-04-08T02:11:09Z</time>
      </trkpt>
      <trkpt lat="42.28706" lon="1.7998">
        <ele>1749.193</ele>
        <time>2019-04-08T02:11:10Z</time>
      </trkpt>
      <trkpt lat="42.28708" lon="1.79978">
        <ele>1750.157</ele>
        <time>2019-04-08T02:11:11Z</time>
      </trkpt>
      <trkpt lat="42.28709" lon="1.79976">
        <ele>1750.236</ele>
        <time>2019-04-08T02:11:11Z</time>
      </trkpt>
      <trkpt lat="42.28711" lon="1.79974">
        <ele>1752.148</ele>
        <time>2019-04-08T02:11:12Z</time>
      </trkpt>
      <trkpt lat="42.28712" lon="1.79973">
        <ele>1753.187</ele>
        <time>2019-04-08T02:11:13Z</time>
      </trkpt>
      <trkpt lat="42.28714" lon="1.7997">
        <ele>1753.342</ele>
        <time>2019-04-08T02:11:14Z</time>
      </trkpt>
      <trkpt lat="42.28716" lon="1.79969">
        <ele>1754.326</ele>
        <time>2019-04-08T02:11:15Z</time>
      </trkpt>
      <trkpt lat="42.28718" lon="1.79968">
        <ele>1755.208</ele>
        <time>2019-04-08T02:11:16Z</time>
      </trkpt>
      <trkpt lat="42.28719" lon="1.79965">
        <ele>1755.121</ele>
        <time>2019-04-08T02:11:17Z</time>
      </trkpt>
      <trkpt lat="42.28721" lon="1.79963">
        <ele>1756.193</ele>
        <time>2019-04-08T02:11:18Z</time>
      </trkpt>
      <trkpt lat="42.28722" lon="1.79962">
        <ele>1757.348</ele>
        <time>2019-04-08T02:11:18Z</time>
      </trkpt>
      <trkpt lat="42.28724" lon="1.7996">
        <ele>1758.119</ele>
        <time>2019-04-08T02:11:19Z</time>
      </trkpt>
      <trkpt lat="42.28726" lon="1.79958">
        <ele>1760.289</ele>
        <time>2019-04-08T02:11:20Z</time>
      </trkpt>
      <trkpt lat="42.28728" lon="1.79956">
        <ele>1760.293</ele>
        <time>2019-04-08T02:11:21Z</time>
      </trkpt>
      <trkpt lat="42.28729" lon="1.79954">
        <ele>1760.272</ele>
        <time>2019-04-08T02:11:22Z</time>
      </trkpt>
      <trkpt lat="42.28729" lon="1.79952">
        <ele>1761.084</ele>
        <time>2019-04-08T02:11:23Z</time>
      </trkpt>
      <trkpt lat="42.28731" lon="1.79949">
        <ele>1761.132</ele>
        <time>2019-04-08T02:11:24Z</time>
      </trkpt>
      <trkpt lat="42.28732" lon="1.79947">
        <ele>1762.392</ele>
        <time>2019-04-08T02:11:24Z</time>
      </trkpt>
      <trkpt lat="42.28734" lon="1.79946">
        <ele>1762.211</ele>
        <time>2019-04-08T02:11:25Z</time>
      </trkpt>
      <trkpt lat="42.28736" lon="1.79943">
        <ele>1764.108</ele>
        <time>2019-04-08T02:11:26Z</time>
      </trkpt>
      <trkpt lat="42.28737" lon="1.79942">
        <ele>1764.226</ele>
        <time>2019-04-08T02:11:27Z</time>
      </trkpt>
      <trkpt lat="42.28739" lon="1.79941">
        <ele>1765.288</ele>
        <time>2019-04-08T02:11:28Z</time>
      </trkpt>
      <trkpt lat="42.28741" lon="1.79944">
        <ele>1766.123</ele>
        <time>2019-04-08T02:11:29Z</time>
      </trkpt>
      <trkpt lat="42.28743" lon="1.79946">
        <ele>1767.244</ele>
        <time>2019-04-08T02:11:30Z</time>
      </trkpt>
      <trkpt lat="42.28744" lon="1.79947">
        <ele>1766.494</ele>
        <time>2019-04-08T02:11:31Z</time>
      </trkpt>
      <trkpt lat="42.28746" lon="1.79945">
        <ele>1767.138</ele>
        <time>2019-04-08T02:11:31Z</time>
      </trkpt>
      <trkpt lat="42.28747" lon="1.79943">
        <ele>1768.317</ele>
        <time>2019-04-08T02:11:32Z</time>
      </trkpt>
      <trkpt lat="42.28749" lon="1.79941">
        <ele>1769.119</ele>
        <time>2019-04-08T02:11:33Z</time>
      </trkpt>
      <trkpt lat="42.2875" lon="1.79939">
        <ele>1770.145</ele>
        <time>2019-04-08T02:11:34Z</time>
      </trkpt>
      <trkpt lat="42.28752" lon="1.79937">
        <ele>1770.347</ele>
        <time>2019-04-08T02:11:35Z</time>
      </trkpt>
      <trkpt lat="42.28753" lon="1.79935">
        <ele>1771.111</ele>
        <time>2019-04-08T02:11:36Z</time>
      </trkpt>
      <trkpt lat="42.28755" lon="1.79933">
        <ele>1772.008</ele>
        <time>2019-04-08T02:11:36Z</time>
      </trkpt>
      <trkpt lat="42.28756" lon="1.7993">
        <ele>1773.197</ele>
        <time>2019-04-08T02:11:37Z</time>
      </trkpt>
      <trkpt lat="42.28757" lon="1.79928">
        <ele>1774.339</ele>
        <time>2019-04-08T02:11:38Z</time>
      </trkpt>
      <trkpt lat="42.28758" lon="1.79926">
        <ele>1774.314</ele>
        <time>2019-04-08T02:11:39Z</time>
      </trkpt>
      <trkpt lat="42.2876" lon="1.79927">
        <ele>1774.455</ele>
        <time>2019-04-08T02:11:40Z</time>
      </trkpt>
      <trkpt lat="42.28762" lon="1.79929">
        <ele>1775.115</ele>
        <time>2019-04-08T02:11:40Z</time>
      </trkpt>
      <trkpt lat="42.28764" lon="1.79928">
        <ele>1776.039</ele>
        <time>2019-04-08T02:11:41Z</time>
      </trkpt>
      <trkpt lat="42.28765" lon="1.79926">
        <ele>1778.328</ele>
        <time>2019-04-08T02:11:42Z</time>
      </trkpt>
      <trkpt lat="42.28767" lon="1.79923">
        <ele>1778.33</ele>
        <time>2019-04-08T02:11:43Z</time>
      </trkpt>
      <trkpt lat="42.28768" lon="1.79921">
        <ele>1778.044</ele>
        <time>2019-04-08T02:11:44Z</time>
      </trkpt>
      <trkpt lat="42.28769" lon="1.79919">
        <ele>1779.205</ele>
        <time>2019-04-08T02:11:45Z</time>
      </trkpt>
      <trkpt lat="42.2877" lon="1.79916">
        <ele>1779.115</ele>
        <time>2019-04-08T02:11:46Z</time>
      </trkpt>
      <trkpt lat="42.28771" lon="1.79913">
        <ele>1779.108</ele>
        <time>2019-04-08T02:11:47Z</time>
      </trkpt>
      <trkpt lat="42.28773" lon="1.79912">
        <ele>1780.317</ele>
        <time>2019-04-08T02:11:48Z</time>
      </trkpt>
      <trkpt lat="42.28775" lon="1.7991">
        <ele>1780.289</ele>
        <time>2019-04-08T02:11:49Z</time>
      </trkpt>
      <trkpt lat="42.28777" lon="1.79908">
        <ele>1782.384</ele>
        <time>2019-04-08T02:11:49Z</time>
      </trkpt>
      <trkpt lat="42.28779" lon="1.79906">
        <ele>1783.235</ele>
        <time>2019-04-08T02:11:50Z</time>
      </trkpt>
      <trkpt lat="42.28781" lon="1.79904">
        <ele>1783.265</ele>
        <time>2019-04-08T02:11:51Z</time>
      </trkpt>
      <trkpt lat="42.28782" lon="1.79902">
        <ele>1784.159</ele>
        <time>2019-04-08T02:11:52Z</time>
      </trkpt>
      <trkpt lat="42.28783" lon="1.799">
        <ele>1785.298</ele>
        <time>2019-04-08T02:11:53Z</time>
      </trkpt>
      <trkpt lat="42.28785" lon="1.79898">
        <ele>1786.29</ele>
        <time>2019-04-08T02:11:54Z</time>
      </trkpt>
      <trkpt lat="42.28787" lon="1.79896">
        <ele>1787.383</ele>
        <time>2019-04-08T02:11:55Z</time>
      </trkpt>
      <trkpt lat="42.28788" lon="1.79894">
        <ele>1787.225</ele>
        <time>2019-04-08T02:11:56Z</time>
      </trkpt>
      <trkpt lat="42.2879" lon="1.79891">
        <ele>1788.217</ele>
        <time>2019-04-08T02:11:57Z</time>
      </trkpt>
      <trkpt lat="42.28792" lon="1.79893">
        <ele>1790.208</ele>
        <time>2019-04-08T02:11:58Z</time>
      </trkpt>
      <trkpt lat="42.28793" lon="1.79896">
        <ele>1790.281</ele>
        <time>2019-04-08T02:11:59Z</time>
      </trkpt>
      <trkpt lat="42.28794" lon="1.79899">
        <ele>1791.353</ele>
        <time>2019-04-08T02:11:59Z</time>
      </trkpt>
      <trkpt lat="42.28795" lon="1.79901">
        <ele>1791.138</ele>
        <time>2019-04-08T02:12:00Z</time>
      </trkpt>
      <trkpt lat="42.28796" lon="1.79903">
        <ele>1791.379</ele>
        <time>2019-04-08T02:12:01Z</time>
      </trkpt>
      <trkpt lat="42.28797" lon="1.79905">
        <ele>1792.199</ele>
        <time>2019-04-08T02:12:02Z</time>
      </trkpt>
      <trkpt lat="42.28799" lon="1.79907">
        <ele>1793.033</ele>
        <time>2019-04-08T02:12:03Z</time>
      </trkpt>
      <trkpt lat="42.28801" lon="1.79909">
        <ele>1793.212</ele>
        <time>2019-04-08T02:12:03Z</time>
      </trkpt>
      <trkpt lat="42.28802" lon="1.79907">
        <ele>1795.124</ele>
        <time>2019-04-08T02:12:04Z</time>
      </trkpt>
      <trkpt lat="42.28804" lon="1.79905">
        <ele>1795.399</ele>
        <time>2019-04-08T02:12:05Z</time>
      </trkpt>
      <trkpt lat="42.28806" lon="1.79906">
        <ele>1797.407</ele>
        <time>2019-04-08T02:12:06Z</time>
      </trkpt>
      <trkpt lat="42.28808" lon="1.79905">
        <ele>1798.127</ele>
        <time>2019-04-08T02:12:07Z</time>
      </trkpt>
      <trkpt lat="42.2881" lon="1.79905">
        <ele>1798.008</ele>
        <time>2019-04-08T02:12:07Z</time>
      </trkpt>
      <trkpt lat="42.28811" lon="1.79903">
        <ele>1799.222</ele>
        <time>2019-04-08T02:12:08Z</time>
      </trkpt>
      <trkpt lat="42.28812" lon="1.79899">
        <ele>1800.224</ele>
        <time>2019-04-08T02:12:09Z</time>
      </trkpt>
      <trkpt lat="42.28812" lon="1.79897">
        <ele>1800.189</ele>
        <time>2019-04-08T02:12:10Z</time>
      </trkpt>
      <trkpt lat="42.28813" lon="1.79895">
        <ele>1802.27</ele>
        <time>2019-04-08T02:12:11Z</time>
      </trkpt>
      <trkpt lat="42.28815" lon="1.79893">
        <ele>1802.09</ele>
        <time>2019-04-08T02:12:12Z</time>
      </trkpt>
      <trkpt lat="42.28816" lon="1.79891">
        <ele>1802.384</ele>
        <time>2019-04-08T02:12:12Z</time>
      </trkpt>
      <trkpt lat="42.28818" lon="1.79889">
        <ele>1803.173</ele>
        <time>2019-04-08T02:12:13Z</time>
      </trkpt>
      <trkpt lat="42.28819" lon="1.79887">
        <ele>1804.275</ele>
        <time>2019-04-08T02:12:14Z</time>
      </trkpt>
      <trkpt lat="42.2882" lon="1.79884">
        <ele>1804.284</ele>
        <time>2019-04-08T02:12:15Z</time>
      </trkpt>
      <trkpt lat="42.28821" lon="1.79882">
        <ele>1805.307</ele>
        <time>2019-04-08T02:12:16Z</time>
      </trkpt>
      <trkpt lat="42.28823" lon="1.79881">
        <ele>1807.017</ele>
        <time>2019-04-08T02:12:17Z</time>
      </trkpt>
      <trkpt lat="42.28824" lon="1.79879">
        <ele>1807.208</ele>
        <time>2019-04-08T02:12:18Z</time>
      </trkpt>
      <trkpt lat="42.28826" lon="1.79877">
        <ele>1807.291</ele>
        <time>2019-04-08T02:12:18Z</time>
      </trkpt>
      <trkpt lat="42.28827" lon="1.79875">
        <ele>1810.113</ele>
        <time>2019-04-08T02:12:19Z</time>
      </trkpt>
      <trkpt lat="42.28829" lon="1.79873">
        <ele>1811.258</ele>
        <time>2019-04-08T02:12:20Z</time>
      </trkpt>
      <trkpt lat="42.2883" lon="1.79875">
        <ele>1811.349</ele>
        <time>2019-04-08T02:12:21Z</time>
      </trkpt>
      <trkpt lat="42.28831" lon="1.79877">
        <ele>1812.069</ele>
        <time>2019-04-08T02:12:22Z</time>
      </trkpt>
      <trkpt lat="42.28833" lon="1.79875">
        <ele>1813.143</ele>
        <time>2019-04-08T02:12:23Z</time>
      </trkpt>
      <trkpt lat="42.28834" lon="1.79873">
        <ele>1813.262</ele>
        <time>2019-04-08T02:12:23Z</time>
      </trkpt>
      <trkpt lat="42.28835" lon="1.79871">
        <ele>1814.124</ele>
        <time>2019-04-08T02:12:24Z</time>
      </trkpt>
      <trkpt lat="42.28837" lon="1.79873">
        <ele>1816.238</ele>
        <time>2019-04-08T02:12:25Z</time>
      </trkpt>
      <trkpt lat="42.28838" lon="1.79875">
        <ele>1817.27</ele>
        <time>2019-04-08T02:12:26Z</time>
      </trkpt>
      <trkpt lat="42.28839" lon="1.79872">
        <ele>1817.217</ele>
        <time>2019-04-08T02:12:27Z</time>
      </trkpt>
      <trkpt lat="42.2884" lon="1.7987">
        <ele>1818.008</ele>
        <time>2019-04-08T02:12:28Z</time>
      </trkpt>
      <trkpt lat="42.28842" lon="1.79868">
        <ele>1819.296</ele>
        <time>2019-04-08T02:12:28Z</time>
      </trkpt>
      <trkpt lat="42.28843" lon="1.79865">
        <ele>1819.148</ele>
        <time>2019-04-08T02:12:29Z</time>
      </trkpt>
      <trkpt lat="42.28844" lon="1.79863">
        <ele>1819.283</ele>
        <time>2019-04-08T02:12:30Z</time>
      </trkpt>
      <trkpt lat="42.28845" lon="1.79861">
        <ele>1820.134</ele>
        <time>2019-04-08T02:12:31Z</time>
      </trkpt>
      <trkpt lat="42.28847" lon="1.79862">
        <ele>1823.124</ele>
        <time>2019-04-08T02:12:32Z</time>
      </trkpt>
      <trkpt lat="42.28847" lon="1.79864">
        <ele>1823.198</ele>
        <time>2019-04-08T02:12:32Z</time>
      </trkpt>
      <trkpt lat="42.28849" lon="1.79862">
        <ele>1824.397</ele>
        <time>2019-04-08T02:12:33Z</time>
      </trkpt>
      <trkpt lat="42.28851" lon="1.79863">
        <ele>1825.349</ele>
        <time>2019-04-08T02:12:34Z</time>
      </trkpt>
      <trkpt lat="42.28853" lon="1.79862">
        <ele>1826.237</ele>
        <time>2019-04-08T02:12:35Z</time>
      </trkpt>
      <trkpt lat="42.28854" lon="1.79859">
        <ele>1827.149</ele>
        <time>2019-04-08T02:12:36Z</time>
      </trkpt>
      <trkpt lat="42.28855" lon="1.79857">
        <ele>1828.213</ele>
        <time>2019-04-08T02:12:37Z</time>
      </trkpt>
      <trkpt lat="42.28857" lon="1.79857">
        <ele>1829.008</ele>
        <time>2019-04-08T02:12:37Z</time>
      </trkpt>
      <trkpt lat="42.28858" lon="1.79859">
        <ele>1828.056</ele>
        <time>2019-04-08T02:12:38Z</time>
      </trkpt>
      <trkpt lat="42.28859" lon="1.79861">
        <ele>1828.198</ele>
        <time>2019-04-08T02:12:39Z</time>
      </trkpt>
      <trkpt lat="42.28857" lon="1.79863">
        <ele>1828.233</ele>
        <time>2019-04-08T02:12:40Z</time>
      </trkpt>
      <trkpt lat="42.28856" lon="1.79864">
        <ele>1827.064</ele>
        <time>2019-04-08T02:12:41Z</time>
      </trkpt>
      <trkpt lat="42.28854" lon="1.79865">
        <ele>1827.354</ele>
        <time>2019-04-08T02:12:41Z</time>
      </trkpt>
      <trkpt lat="42.28852" lon="1.79868">
        <ele>1826.088</ele>
        <time>2019-04-08T02:12:42Z</time>
      </trkpt>
      <trkpt lat="42.2885" lon="1.79866">
        <ele>1825.167</ele>
        <time>2019-04-08T02:12:43Z</time>
      </trkpt>
      <trkpt lat="42.28848" lon="1.79868">
        <ele>1822.259</ele>
        <time>2019-04-08T02:12:44Z</time>
      </trkpt>
      <trkpt lat="42.28846" lon="1.79866">
        <ele>1821.352</ele>
        <time>2019-04-08T02:12:45Z</time>
      </trkpt>
      <trkpt lat="42.28845" lon="1.79866">
        <ele>1820.353</ele>
        <time>2019-04-08T02:12:46Z</time>
      </trkpt>
      <trkpt lat="42.28843" lon="1.79869">
        <ele>1820.108</ele>
        <time>2019-04-08T02:12:47Z</time>
      </trkpt>
      <trkpt lat="42.28842" lon="1.79871">
        <ele>1819.108</ele>
        <time>2019-04-08T02:12:47Z</time>
      </trkpt>
      <trkpt lat="42.28841" lon="1.79873">
        <ele>1819.288</ele>
        <time>2019-04-08T02:12:48Z</time>
      </trkpt>
      <trkpt lat="42.28839" lon="1.79875">
        <ele>1818.16</ele>
        <time>2019-04-08T02:12:49Z</time>
      </trkpt>
      <trkpt lat="42.28838" lon="1.79877">
        <ele>1817.015</ele>
        <time>2019-04-08T02:12:50Z</time>
      </trkpt>
      <trkpt lat="42.28837" lon="1.79879">
        <ele>1816.216</ele>
        <time>2019-04-08T02:12:51Z</time>
      </trkpt>
      <trkpt lat="42.28834" lon="1.79877">
        <ele>1815.016</ele>
        <time>2019-04-08T02:12:52Z</time>
      </trkpt>
      <trkpt lat="42.28833" lon="1.79878">
        <ele>1814.19</ele>
        <time>2019-04-08T02:12:52Z</time>
      </trkpt>
      <trkpt lat="42.28831" lon="1.79881">
        <ele>1812.269</ele>
        <time>2019-04-08T02:12:54Z</time>
      </trkpt>
      <trkpt lat="42.28829" lon="1.79882">
        <ele>1811.291</ele>
        <time>2019-04-08T02:12:54Z</time>
      </trkpt>
      <trkpt lat="42.28828" lon="1.79881">
        <ele>1810.121</ele>
        <time>2019-04-08T02:12:55Z</time>
      </trkpt>
      <trkpt lat="42.28826" lon="1.79882">
        <ele>1809.241</ele>
        <time>2019-04-08T02:12:56Z</time>
      </trkpt>
      <trkpt lat="42.28824" lon="1.79884">
        <ele>1808.205</ele>
        <time>2019-04-08T02:12:57Z</time>
      </trkpt>
      <trkpt lat="42.28822" lon="1.79887">
        <ele>1806.308</ele>
        <time>2019-04-08T02:12:58Z</time>
      </trkpt>
      <trkpt lat="42.2882" lon="1.79889">
        <ele>1806.375</ele>
        <time>2019-04-08T02:12:59Z</time>
      </trkpt>
      <trkpt lat="42.28819" lon="1.79891">
        <ele>1806.127</ele>
        <time>2019-04-08T02:13:00Z</time>
      </trkpt>
      <trkpt lat="42.28817" lon="1.79894">
        <ele>1805.372</ele>
        <time>2019-04-08T02:13:01Z</time>
      </trkpt>
      <trkpt lat="42.28815" lon="1.79896">
        <ele>1804.033</ele>
        <time>2019-04-08T02:13:02Z</time>
      </trkpt>
      <trkpt lat="42.28813" lon="1.79899">
        <ele>1803.183</ele>
        <time>2019-04-08T02:13:03Z</time>
      </trkpt>
      <trkpt lat="42.28811" lon="1.79902">
        <ele>1802.247</ele>
        <time>2019-04-08T02:13:04Z</time>
      </trkpt>
      <trkpt lat="42.28809" lon="1.79905">
        <ele>1799.096</ele>
        <time>2019-04-08T02:13:05Z</time>
      </trkpt>
      <trkpt lat="42.28808" lon="1.79909">
        <ele>1799.218</ele>
        <time>2019-04-08T02:13:07Z</time>
      </trkpt>
      <trkpt lat="42.28807" lon="1.79912">
        <ele>1797.913</ele>
        <time>2019-04-08T02:13:08Z</time>
      </trkpt>
      <trkpt lat="42.28805" lon="1.79913">
        <ele>1796.343</ele>
        <time>2019-04-08T02:13:09Z</time>
      </trkpt>
      <trkpt lat="42.28803" lon="1.79914">
        <ele>1796.207</ele>
        <time>2019-04-08T02:13:09Z</time>
      </trkpt>
      <trkpt lat="42.28802" lon="1.79917">
        <ele>1795.108</ele>
        <time>2019-04-08T02:13:10Z</time>
      </trkpt>
      <trkpt lat="42.28801" lon="1.79919">
        <ele>1795.364</ele>
        <time>2019-04-08T02:13:11Z</time>
      </trkpt>
      <trkpt lat="42.28799" lon="1.7992">
        <ele>1794.246</ele>
        <time>2019-04-08T02:13:12Z</time>
      </trkpt>
      <trkpt lat="42.28797" lon="1.79918">
        <ele>1793.291</ele>
        <time>2019-04-08T02:13:13Z</time>
      </trkpt>
      <trkpt lat="42.28795" lon="1.79916">
        <ele>1792.172</ele>
        <time>2019-04-08T02:13:14Z</time>
      </trkpt>
      <trkpt lat="42.28793" lon="1.79913">
        <ele>1791.182</ele>
        <time>2019-04-08T02:13:15Z</time>
      </trkpt>
      <trkpt lat="42.28791" lon="1.7991">
        <ele>1790.136</ele>
        <time>2019-04-08T02:13:16Z</time>
      </trkpt>
      <trkpt lat="42.2879" lon="1.79907">
        <ele>1789.055</ele>
        <time>2019-04-08T02:13:17Z</time>
      </trkpt>
      <trkpt lat="42.28789" lon="1.79903">
        <ele>1787.187</ele>
        <time>2019-04-08T02:13:19Z</time>
      </trkpt>
      <trkpt lat="42.28787" lon="1.79901">
        <ele>1786.118</ele>
        <time>2019-04-08T02:13:19Z</time>
      </trkpt>
      <trkpt lat="42.28786" lon="1.79904">
        <ele>1786.398</ele>
        <time>2019-04-08T02:13:20Z</time>
      </trkpt>
      <trkpt lat="42.28784" lon="1.79906">
        <ele>1785.017</ele>
        <time>2019-04-08T02:13:21Z</time>
      </trkpt>
      <trkpt lat="42.28782" lon="1.79909">
        <ele>1783.308</ele>
        <time>2019-04-08T02:13:22Z</time>
      </trkpt>
      <trkpt lat="42.28781" lon="1.79911">
        <ele>1783.084</ele>
        <time>2019-04-08T02:13:23Z</time>
      </trkpt>
      <trkpt lat="42.28779" lon="1.79913">
        <ele>1781.476</ele>
        <time>2019-04-08T02:13:24Z</time>
      </trkpt>
      <trkpt lat="42.28777" lon="1.79916">
        <ele>1781.061</ele>
        <time>2019-04-08T02:13:25Z</time>
      </trkpt>
      <trkpt lat="42.28775" lon="1.79918">
        <ele>1779.352</ele>
        <time>2019-04-08T02:13:26Z</time>
      </trkpt>
      <trkpt lat="42.28773" lon="1.7992">
        <ele>1779.232</ele>
        <time>2019-04-08T02:13:27Z</time>
      </trkpt>
      <trkpt lat="42.28772" lon="1.79922">
        <ele>1777.226</ele>
        <time>2019-04-08T02:13:28Z</time>
      </trkpt>
      <trkpt lat="42.28771" lon="1.79925">
        <ele>1775.395</ele>
        <time>2019-04-08T02:13:29Z</time>
      </trkpt>
      <trkpt lat="42.28769" lon="1.79928">
        <ele>1775.227</ele>
        <time>2019-04-08T02:13:30Z</time>
      </trkpt>
      <trkpt lat="42.28767" lon="1.7993">
        <ele>1774.278</ele>
        <time>2019-04-08T02:13:31Z</time>
      </trkpt>
      <trkpt lat="42.28765" lon="1.79932">
        <ele>1773.333</ele>
        <time>2019-04-08T02:13:32Z</time>
      </trkpt>
      <trkpt lat="42.28764" lon="1.79935">
        <ele>1773.226</ele>
        <time>2019-04-08T02:13:33Z</time>
      </trkpt>
      <trkpt lat="42.28761" lon="1.79936">
        <ele>1773.108</ele>
        <time>2019-04-08T02:13:34Z</time>
      </trkpt>
      <trkpt lat="42.28759" lon="1.79937">
        <ele>1771.19</ele>
        <time>2019-04-08T02:13:35Z</time>
      </trkpt>
      <trkpt lat="42.28758" lon="1.7994">
        <ele>1770.272</ele>
        <time>2019-04-08T02:13:36Z</time>
      </trkpt>
      <trkpt lat="42.28756" lon="1.79943">
        <ele>1769.327</ele>
        <time>2019-04-08T02:13:37Z</time>
      </trkpt>
      <trkpt lat="42.28754" lon="1.79945">
        <ele>1769.198</ele>
        <time>2019-04-08T02:13:38Z</time>
      </trkpt>
      <trkpt lat="42.28751" lon="1.79948">
        <ele>1767.198</ele>
        <time>2019-04-08T02:13:40Z</time>
      </trkpt>
      <trkpt lat="42.2875" lon="1.79951">
        <ele>1766.392</ele>
        <time>2019-04-08T02:13:41Z</time>
      </trkpt>
      <trkpt lat="42.28748" lon="1.79953">
        <ele>1764.981</ele>
        <time>2019-04-08T02:13:41Z</time>
      </trkpt>
      <trkpt lat="42.28748" lon="1.79955">
        <ele>1764.293</ele>
        <time>2019-04-08T02:13:42Z</time>
      </trkpt>
      <trkpt lat="42.28746" lon="1.79958">
        <ele>1764.371</ele>
        <time>2019-04-08T02:13:43Z</time>
      </trkpt>
      <trkpt lat="42.28745" lon="1.7996">
        <ele>1764.241</ele>
        <time>2019-04-08T02:13:44Z</time>
      </trkpt>
      <trkpt lat="42.28744" lon="1.79962">
        <ele>1763.015</ele>
        <time>2019-04-08T02:13:45Z</time>
      </trkpt>
      <trkpt lat="42.28743" lon="1.79965">
        <ele>1762.108</ele>
        <time>2019-04-08T02:13:46Z</time>
      </trkpt>
      <trkpt lat="42.28741" lon="1.79967">
        <ele>1761.25</ele>
        <time>2019-04-08T02:13:47Z</time>
      </trkpt>
      <trkpt lat="42.28739" lon="1.79969">
        <ele>1760.342</ele>
        <time>2019-04-08T02:13:48Z</time>
      </trkpt>
      <trkpt lat="42.28738" lon="1.79971">
        <ele>1760.147</ele>
        <time>2019-04-08T02:13:48Z</time>
      </trkpt>
      <trkpt lat="42.28736" lon="1.79974">
        <ele>1760.138</ele>
        <time>2019-04-08T02:13:49Z</time>
      </trkpt>
      <trkpt lat="42.28734" lon="1.79977">
        <ele>1758.098</ele>
        <time>2019-04-08T02:13:51Z</time>
      </trkpt>
      <trkpt lat="42.28732" lon="1.79979">
        <ele>1757.242</ele>
        <time>2019-04-08T02:13:52Z</time>
      </trkpt>
      <trkpt lat="42.2873" lon="1.79979">
        <ele>1757.231</ele>
        <time>2019-04-08T02:13:52Z</time>
      </trkpt>
      <trkpt lat="42.28728" lon="1.79978">
        <ele>1757.193</ele>
        <time>2019-04-08T02:13:53Z</time>
      </trkpt>
      <trkpt lat="42.28726" lon="1.7998">
        <ele>1755.215</ele>
        <time>2019-04-08T02:13:54Z</time>
      </trkpt>
      <trkpt lat="42.28724" lon="1.79981">
        <ele>1753.165</ele>
        <time>2019-04-08T02:13:55Z</time>
      </trkpt>
      <trkpt lat="42.28722" lon="1.79983">
        <ele>1752.311</ele>
        <time>2019-04-08T02:13:56Z</time>
      </trkpt>
      <trkpt lat="42.2872" lon="1.79985">
        <ele>1752.108</ele>
        <time>2019-04-08T02:13:57Z</time>
      </trkpt>
      <trkpt lat="42.28719" lon="1.79987">
        <ele>1751.344</ele>
        <time>2019-04-08T02:13:58Z</time>
      </trkpt>
      <trkpt lat="42.28717" lon="1.79986">
        <ele>1749.226</ele>
        <time>2019-04-08T02:13:59Z</time>
      </trkpt>
      <trkpt lat="42.28715" lon="1.79985">
        <ele>1749.071</ele>
        <time>2019-04-08T02:14:00Z</time>
      </trkpt>
      <trkpt lat="42.28712" lon="1.79987">
        <ele>1747.172</ele>
        <time>2019-04-08T02:14:01Z</time>
      </trkpt>
      <trkpt lat="42.2871" lon="1.79988">
        <ele>1745.322</ele>
        <time>2019-04-08T02:14:02Z</time>
      </trkpt>
      <trkpt lat="42.28708" lon="1.7999">
        <ele>1745.036</ele>
        <time>2019-04-08T02:14:03Z</time>
      </trkpt>
      <trkpt lat="42.28707" lon="1.79992">
        <ele>1744.475</ele>
        <time>2019-04-08T02:14:04Z</time>
      </trkpt>
      <trkpt lat="42.28705" lon="1.79993">
        <ele>1743.197</ele>
        <time>2019-04-08T02:14:04Z</time>
      </trkpt>
      <trkpt lat="42.28703" lon="1.79996">
        <ele>1741.195</ele>
        <time>2019-04-08T02:14:05Z</time>
      </trkpt>
      <trkpt lat="42.28702" lon="1.79999">
        <ele>1741.249</ele>
        <time>2019-04-08T02:14:07Z</time>
      </trkpt>
      <trkpt lat="42.28701" lon="1.80003">
        <ele>1740.123</ele>
        <time>2019-04-08T02:14:08Z</time>
      </trkpt>
      <trkpt lat="42.28699" lon="1.80006">
        <ele>1740.108</ele>
        <time>2019-04-08T02:14:09Z</time>
      </trkpt>
      <trkpt lat="42.28697" lon="1.80009">
        <ele>1740.182</ele>
        <time>2019-04-08T02:14:10Z</time>
      </trkpt>
      <trkpt lat="42.28695" lon="1.80013">
        <ele>1739.214</ele>
        <time>2019-04-08T02:14:12Z</time>
      </trkpt>
      <trkpt lat="42.28693" lon="1.80016">
        <ele>1739.119</ele>
        <time>2019-04-08T02:14:13Z</time>
      </trkpt>
      <trkpt lat="42.28692" lon="1.80019">
        <ele>1738.33</ele>
        <time>2019-04-08T02:14:14Z</time>
      </trkpt>
      <trkpt lat="42.28691" lon="1.80023">
        <ele>1737.15</ele>
        <time>2019-04-08T02:14:15Z</time>
      </trkpt>
      <trkpt lat="42.2869" lon="1.80026">
        <ele>1737.214</ele>
        <time>2019-04-08T02:14:16Z</time>
      </trkpt>
      <trkpt lat="42.28689" lon="1.8003">
        <ele>1736.173</ele>
        <time>2019-04-08T02:14:17Z</time>
      </trkpt>
      <trkpt lat="42.28688" lon="1.80033">
        <ele>1736.335</ele>
        <time>2019-04-08T02:14:18Z</time>
      </trkpt>
      <trkpt lat="42.28688" lon="1.80036">
        <ele>1735.297</ele>
        <time>2019-04-08T02:14:19Z</time>
      </trkpt>
      <trkpt lat="42.28687" lon="1.80039">
        <ele>1735.323</ele>
        <time>2019-04-08T02:14:20Z</time>
      </trkpt>
      <trkpt lat="42.28687" lon="1.80042">
        <ele>1735.325</ele>
        <time>2019-04-08T02:14:21Z</time>
      </trkpt>
      <trkpt lat="42.28686" lon="1.80045">
        <ele>1735.108</ele>
        <time>2019-04-08T02:14:22Z</time>
      </trkpt>
      <trkpt lat="42.28685" lon="1.80047">
        <ele>1734.292</ele>
        <time>2019-04-08T02:14:23Z</time>
      </trkpt>
      <trkpt lat="42.28684" lon="1.8005">
        <ele>1734.294</ele>
        <time>2019-04-08T02:14:24Z</time>
      </trkpt>
      <trkpt lat="42.28682" lon="1.80052">
        <ele>1733.349</ele>
        <time>2019-04-08T02:14:25Z</time>
      </trkpt>
      <trkpt lat="42.28681" lon="1.80054">
        <ele>1732.35</ele>
        <time>2019-04-08T02:14:25Z</time>
      </trkpt>
      <trkpt lat="42.2868" lon="1.80058">
        <ele>1731.23</ele>
        <time>2019-04-08T02:14:26Z</time>
      </trkpt>
      <trkpt lat="42.28679" lon="1.8006">
        <ele>1731.144</ele>
        <time>2019-04-08T02:14:27Z</time>
      </trkpt>
      <trkpt lat="42.28677" lon="1.80063">
        <ele>1729.153</ele>
        <time>2019-04-08T02:14:28Z</time>
      </trkpt>
      <trkpt lat="42.28675" lon="1.80065">
        <ele>1729.035</ele>
        <time>2019-04-08T02:14:29Z</time>
      </trkpt>
      <trkpt lat="42.28674" lon="1.80067">
        <ele>1729.175</ele>
        <time>2019-04-08T02:14:30Z</time>
      </trkpt>
      <trkpt lat="42.28672" lon="1.80068">
        <ele>1727.228</ele>
        <time>2019-04-08T02:14:31Z</time>
      </trkpt>
      <trkpt lat="42.2867" lon="1.8007">
        <ele>1726.52</ele>
        <time>2019-04-08T02:14:32Z</time>
      </trkpt>
      <trkpt lat="42.28668" lon="1.80073">
        <ele>1726.108</ele>
        <time>2019-04-08T02:14:33Z</time>
      </trkpt>
      <trkpt lat="42.28666" lon="1.80075">
        <ele>1724.34</ele>
        <time>2019-04-08T02:14:34Z</time>
      </trkpt>
      <trkpt lat="42.28663" lon="1.80077">
        <ele>1724.162</ele>
        <time>2019-04-08T02:14:35Z</time>
      </trkpt>
      <trkpt lat="42.28661" lon="1.80079">
        <ele>1723.037</ele>
        <time>2019-04-08T02:14:37Z</time>
      </trkpt>
      <trkpt lat="42.28659" lon="1.80081">
        <ele>1722.198</ele>
        <time>2019-04-08T02:14:37Z</time>
      </trkpt>
      <trkpt lat="42.28657" lon="1.80082">
        <ele>1721.258</ele>
        <time>2019-04-08T02:14:38Z</time>
      </trkpt>
      <trkpt lat="42.28655" lon="1.80084">
        <ele>1721.292</ele>
        <time>2019-04-08T02:14:39Z</time>
      </trkpt>
      <trkpt lat="42.28653" lon="1.80086">
        <ele>1719.251</ele>
        <time>2019-04-08T02:14:40Z</time>
      </trkpt>
      <trkpt lat="42.28651" lon="1.80088">
        <ele>1718.023</ele>
        <time>2019-04-08T02:14:41Z</time>
      </trkpt>
      <trkpt lat="42.28649" lon="1.8009">
        <ele>1717.189</ele>
        <time>2019-04-08T02:14:42Z</time>
      </trkpt>
      <trkpt lat="42.28647" lon="1.80092">
        <ele>1715.006</ele>
        <time>2019-04-08T02:14:43Z</time>
      </trkpt>
      <trkpt lat="42.28645" lon="1.80095">
        <ele>1714.226</ele>
        <time>2019-04-08T02:14:45Z</time>
      </trkpt>
      <trkpt lat="42.28643" lon="1.80096">
        <ele>1714.108</ele>
        <time>2019-04-08T02:14:46Z</time>
      </trkpt>
      <trkpt lat="42.28641" lon="1.80098">
        <ele>1714.191</ele>
        <time>2019-04-08T02:14:46Z</time>
      </trkpt>
      <trkpt lat="42.28639" lon="1.801">
        <ele>1714.133</ele>
        <time>2019-04-08T02:14:47Z</time>
      </trkpt>
      <trkpt lat="42.28637" lon="1.80102">
        <ele>1713.128</ele>
        <time>2019-04-08T02:14:48Z</time>
      </trkpt>
      <trkpt lat="42.28635" lon="1.80104">
        <ele>1712.469</ele>
        <time>2019-04-08T02:14:49Z</time>
      </trkpt>
      <trkpt lat="42.28634" lon="1.80106">
        <ele>1712.049</ele>
        <time>2019-04-08T02:14:50Z</time>
      </trkpt>
      <trkpt lat="42.28632" lon="1.80108">
        <ele>1711.293</ele>
        <time>2019-04-08T02:14:51Z</time>
      </trkpt>
      <trkpt lat="42.28631" lon="1.80111">
        <ele>1710.082</ele>
        <time>2019-04-08T02:14:52Z</time>
      </trkpt>
      <trkpt lat="42.2863" lon="1.80113">
        <ele>1708.064</ele>
        <time>2019-04-08T02:14:53Z</time>
      </trkpt>
      <trkpt lat="42.28628" lon="1.80115">
        <ele>1708.369</ele>
        <time>2019-04-08T02:14:54Z</time>
      </trkpt>
      <trkpt lat="42.28627" lon="1.80118">
        <ele>1708.104</ele>
        <time>2019-04-08T02:14:55Z</time>
      </trkpt>
      <trkpt lat="42.28626" lon="1.80121">
        <ele>1708.024</ele>
        <time>2019-04-08T02:14:56Z</time>
      </trkpt>
      <trkpt lat="42.28624" lon="1.80125">
        <ele>1707.008</ele>
        <time>2019-04-08T02:14:57Z</time>
      </trkpt>
      <trkpt lat="42.28622" lon="1.80127">
        <ele>1706.349</ele>
        <time>2019-04-08T02:14:58Z</time>
      </trkpt>
      <trkpt lat="42.2862" lon="1.8013">
        <ele>1706.291</ele>
        <time>2019-04-08T02:14:59Z</time>
      </trkpt>
      <trkpt lat="42.28619" lon="1.80132">
        <ele>1705.136</ele>
        <time>2019-04-08T02:15:00Z</time>
      </trkpt>
      <trkpt lat="42.28618" lon="1.80136">
        <ele>1706.337</ele>
        <time>2019-04-08T02:15:01Z</time>
      </trkpt>
      <trkpt lat="42.28617" lon="1.80138">
        <ele>1706.217</ele>
        <time>2019-04-08T02:15:02Z</time>
      </trkpt>
      <trkpt lat="42.28615" lon="1.80141">
        <ele>1706.191</ele>
        <time>2019-04-08T02:15:03Z</time>
      </trkpt>
      <trkpt lat="42.28613" lon="1.80144">
        <ele>1705.33</ele>
        <time>2019-04-08T02:15:04Z</time>
      </trkpt>
      <trkpt lat="42.28612" lon="1.80147">
        <ele>1704.312</ele>
        <time>2019-04-08T02:15:05Z</time>
      </trkpt>
      <trkpt lat="42.2861" lon="1.8015">
        <ele>1704.197</ele>
        <time>2019-04-08T02:15:06Z</time>
      </trkpt>
      <trkpt lat="42.28608" lon="1.80152">
        <ele>1704.123</ele>
        <time>2019-04-08T02:15:07Z</time>
      </trkpt>
      <trkpt lat="42.28606" lon="1.80154">
        <ele>1704.225</ele>
        <time>2019-04-08T02:15:08Z</time>
      </trkpt>
      <trkpt lat="42.28604" lon="1.80156">
        <ele>1704.108</ele>
        <time>2019-04-08T02:15:09Z</time>
      </trkpt>
      <trkpt lat="42.28603" lon="1.8016">
        <ele>1702.222</ele>
        <time>2019-04-08T02:15:10Z</time>
      </trkpt>
      <trkpt lat="42.28601" lon="1.80163">
        <ele>1702.364</ele>
        <time>2019-04-08T02:15:12Z</time>
      </trkpt>
      <trkpt lat="42.28599" lon="1.80165">
        <ele>1702.439</ele>
        <time>2019-04-08T02:15:13Z</time>
      </trkpt>
      <trkpt lat="42.28597" lon="1.80168">
        <ele>1702.43</ele>
        <time>2019-04-08T02:15:14Z</time>
      </trkpt>
      <trkpt lat="42.28595" lon="1.80171">
        <ele>1702.14</ele>
        <time>2019-04-08T02:15:15Z</time>
      </trkpt>
      <trkpt lat="42.28593" lon="1.80175">
        <ele>1701.294</ele>
        <time>2019-04-08T02:15:16Z</time>
      </trkpt>
      <trkpt lat="42.28592" lon="1.80178">
        <ele>1701.153</ele>
        <time>2019-04-08T02:15:18Z</time>
      </trkpt>
      <trkpt lat="42.2859" lon="1.80182">
        <ele>1700.095</ele>
        <time>2019-04-08T02:15:19Z</time>
      </trkpt>
      <trkpt lat="42.2859" lon="1.80185">
        <ele>1699.191</ele>
        <time>2019-04-08T02:15:20Z</time>
      </trkpt>
      <trkpt lat="42.28592" lon="1.80187">
        <ele>1698.281</ele>
        <time>2019-04-08T02:15:21Z</time>
      </trkpt>
      <trkpt lat="42.28594" lon="1.80186">
        <ele>1697.219</ele>
        <time>2019-04-08T02:15:22Z</time>
      </trkpt>
      <trkpt lat="42.28595" lon="1.80184">
        <ele>1697.308</ele>
        <time>2019-04-08T02:15:22Z</time>
      </trkpt>
      <trkpt lat="42.28597" lon="1.80182">
        <ele>1697.222</ele>
        <time>2019-04-08T02:15:23Z</time>
      </trkpt>
      <trkpt lat="42.28598" lon="1.80179">
        <ele>1697.364</ele>
        <time>2019-04-08T02:15:24Z</time>
      </trkpt>
      <trkpt lat="42.286" lon="1.80177">
        <ele>1698.049</ele>
        <time>2019-04-08T02:15:25Z</time>
      </trkpt>
      <trkpt lat="42.28602" lon="1.80175">
        <ele>1698.16</ele>
        <time>2019-04-08T02:15:26Z</time>
      </trkpt>
      <trkpt lat="42.28604" lon="1.80172">
        <ele>1699.29</ele>
        <time>2019-04-08T02:15:27Z</time>
      </trkpt>
      <trkpt lat="42.28605" lon="1.8017">
        <ele>1699.144</ele>
        <time>2019-04-08T02:15:28Z</time>
      </trkpt>
      <trkpt lat="42.28606" lon="1.80167">
        <ele>1699.283</ele>
        <time>2019-04-08T02:15:29Z</time>
      </trkpt>
      <trkpt lat="42.28608" lon="1.80164">
        <ele>1699.255</ele>
        <time>2019-04-08T02:15:30Z</time>
      </trkpt>
      <trkpt lat="42.2861" lon="1.80163">
        <ele>1699.292</ele>
        <time>2019-04-08T02:15:31Z</time>
      </trkpt>
      <trkpt lat="42.28613" lon="1.80161">
        <ele>1699.373</ele>
        <time>2019-04-08T02:15:32Z</time>
      </trkpt>
      <trkpt lat="42.28615" lon="1.80159">
        <ele>1699.22</ele>
        <time>2019-04-08T02:15:34Z</time>
      </trkpt>
      <trkpt lat="42.28618" lon="1.80158">
        <ele>1699.008</ele>
        <time>2019-04-08T02:15:35Z</time>
      </trkpt>
      <trkpt lat="42.28619" lon="1.80156">
        <ele>1699.212</ele>
        <time>2019-04-08T02:15:36Z</time>
      </trkpt>
      <trkpt lat="42.28621" lon="1.80154">
        <ele>1698.244</ele>
        <time>2019-04-08T02:15:36Z</time>
      </trkpt>
      <trkpt lat="42.28623" lon="1.80152">
        <ele>1698.029</ele>
        <time>2019-04-08T02:15:37Z</time>
      </trkpt>
      <trkpt lat="42.28626" lon="1.80152">
        <ele>1697.24</ele>
        <time>2019-04-08T02:15:38Z</time>
      </trkpt>
      <trkpt lat="42.28627" lon="1.80154">
        <ele>1696.06</ele>
        <time>2019-04-08T02:15:39Z</time>
      </trkpt>
      <trkpt lat="42.28629" lon="1.80155">
        <ele>1693.334</ele>
        <time>2019-04-08T02:15:40Z</time>
      </trkpt>
      <trkpt lat="42.28631" lon="1.80156">
        <ele>1692.463</ele>
        <time>2019-04-08T02:15:41Z</time>
      </trkpt>
      <trkpt lat="42.28631" lon="1.8016">
        <ele>1691.325</ele>
        <time>2019-04-08T02:15:42Z</time>
      </trkpt>
      <trkpt lat="42.28633" lon="1.80161">
        <ele>1691.077</ele>
        <time>2019-04-08T02:15:43Z</time>
      </trkpt>
      <trkpt lat="42.28633" lon="1.80158">
        <ele>1690.161</ele>
        <time>2019-04-08T02:15:44Z</time>
      </trkpt>
      <trkpt lat="42.28635" lon="1.80156">
        <ele>1688.227</ele>
        <time>2019-04-08T02:15:45Z</time>
      </trkpt>
      <trkpt lat="42.28638" lon="1.80153">
        <ele>1688.108</ele>
        <time>2019-04-08T02:15:47Z</time>
      </trkpt>
      <trkpt lat="42.28641" lon="1.80152">
        <ele>1688.35</ele>
        <time>2019-04-08T02:15:48Z</time>
      </trkpt>
      <trkpt lat="42.28643" lon="1.80151">
        <ele>1686.332</ele>
        <time>2019-04-08T02:15:49Z</time>
      </trkpt>
      <trkpt lat="42.28646" lon="1.8015">
        <ele>1685.987</ele>
        <time>2019-04-08T02:15:50Z</time>
      </trkpt>
      <trkpt lat="42.28648" lon="1.80149">
        <ele>1685.018</ele>
        <time>2019-04-08T02:15:51Z</time>
      </trkpt>
      <trkpt lat="42.28651" lon="1.80149">
        <ele>1685.098</ele>
        <time>2019-04-08T02:15:52Z</time>
      </trkpt>
      <trkpt lat="42.28654" lon="1.80149">
        <ele>1685.052</ele>
        <time>2019-04-08T02:15:53Z</time>
      </trkpt>
      <trkpt lat="42.28657" lon="1.80148">
        <ele>1685.241</ele>
        <time>2019-04-08T02:15:54Z</time>
      </trkpt>
      <trkpt lat="42.2866" lon="1.80146">
        <ele>1685.253</ele>
        <time>2019-04-08T02:15:55Z</time>
      </trkpt>
      <trkpt lat="42.28661" lon="1.80146">
        <ele>1685.034</ele>
        <time>2019-04-08T02:15:56Z</time>
      </trkpt>
      <trkpt lat="42.28664" lon="1.80144">
        <ele>1685.155</ele>
        <time>2019-04-08T02:15:57Z</time>
      </trkpt>
      <trkpt lat="42.28665" lon="1.80142">
        <ele>1685.21</ele>
        <time>2019-04-08T02:15:58Z</time>
      </trkpt>
      <trkpt lat="42.28667" lon="1.8014">
        <ele>1684.208</ele>
        <time>2019-04-08T02:15:59Z</time>
      </trkpt>
      <trkpt lat="42.28676" lon="1.80134">
        <ele>1683.236</ele>
        <time>2019-04-08T02:16:03Z</time>
      </trkpt>
      <trkpt lat="42.28678" lon="1.80132">
        <ele>1684.358</ele>
        <time>2019-04-08T02:16:04Z</time>
      </trkpt>
      <trkpt lat="42.28685" lon="1.80122">
        <ele>1684.133</ele>
        <time>2019-04-08T02:16:08Z</time>
      </trkpt>
      <trkpt lat="42.28689" lon="1.80114">
        <ele>1686.424</ele>
        <time>2019-04-08T02:16:11Z</time>
      </trkpt>
      <trkpt lat="42.28692" lon="1.80112">
        <ele>1686.244</ele>
        <time>2019-04-08T02:16:12Z</time>
      </trkpt>
      <trkpt lat="42.28699" lon="1.80103">
        <ele>1687.298</ele>
        <time>2019-04-08T02:16:16Z</time>
      </trkpt>
      <trkpt lat="42.28706" lon="1.80095">
        <ele>1688.247</ele>
        <time>2019-04-08T02:16:20Z</time>
      </trkpt>
      <trkpt lat="42.28714" lon="1.80087">
        <ele>1692.299</ele>
        <time>2019-04-08T02:16:24Z</time>
      </trkpt>
      <trkpt lat="42.2872" lon="1.80077">
        <ele>1690.119</ele>
        <time>2019-04-08T02:16:27Z</time>
      </trkpt>
      <trkpt lat="42.28729" lon="1.80078">
        <ele>1690.209</ele>
        <time>2019-04-08T02:16:31Z</time>
      </trkpt>
      <trkpt lat="42.28738" lon="1.80075">
        <ele>1692.219</ele>
        <time>2019-04-08T02:16:35Z</time>
      </trkpt>
      <trkpt lat="42.28743" lon="1.80072">
        <ele>1691.908</ele>
        <time>2019-04-08T02:16:37Z</time>
      </trkpt>
      <trkpt lat="42.28752" lon="1.80068">
        <ele>1692.114</ele>
        <time>2019-04-08T02:16:41Z</time>
      </trkpt>
      <trkpt lat="42.28759" lon="1.80061">
        <ele>1692.236</ele>
        <time>2019-04-08T02:16:44Z</time>
      </trkpt>
      <trkpt lat="42.28764" lon="1.80058">
        <ele>1692.321</ele>
        <time>2019-04-08T02:16:46Z</time>
      </trkpt>
      <trkpt lat="42.28769" lon="1.80054">
        <ele>1693.012</ele>
        <time>2019-04-08T02:16:49Z</time>
      </trkpt>
      <trkpt lat="42.28772" lon="1.80054">
        <ele>1693.272</ele>
        <time>2019-04-08T02:16:50Z</time>
      </trkpt>
      <trkpt lat="42.28774" lon="1.80052">
        <ele>1693.376</ele>
        <time>2019-04-08T02:16:51Z</time>
      </trkpt>
      <trkpt lat="42.28783" lon="1.80048">
        <ele>1694.245</ele>
        <time>2019-04-08T02:16:55Z</time>
      </trkpt>
      <trkpt lat="42.28794" lon="1.80047">
        <ele>1694.127</ele>
        <time>2019-04-08T02:16:59Z</time>
      </trkpt>
      <trkpt lat="42.28804" lon="1.80046">
        <ele>1694.116</ele>
        <time>2019-04-08T02:17:03Z</time>
      </trkpt>
      <trkpt lat="42.28813" lon="1.80046">
        <ele>1694.376</ele>
        <time>2019-04-08T02:17:07Z</time>
      </trkpt>
      <trkpt lat="42.28823" lon="1.80044">
        <ele>1694.213</ele>
        <time>2019-04-08T02:17:11Z</time>
      </trkpt>
      <trkpt lat="42.28833" lon="1.80044">
        <ele>1695.208</ele>
        <time>2019-04-08T02:17:15Z</time>
      </trkpt>
      <trkpt lat="42.28843" lon="1.80043">
        <ele>1695.124</ele>
        <time>2019-04-08T02:17:19Z</time>
      </trkpt>
      <trkpt lat="42.28854" lon="1.80042">
        <ele>1695.266</ele>
        <time>2019-04-08T02:17:23Z</time>
      </trkpt>
      <trkpt lat="42.28864" lon="1.80038">
        <ele>1697.271</ele>
        <time>2019-04-08T02:17:27Z</time>
      </trkpt>
      <trkpt lat="42.28873" lon="1.80035">
        <ele>1697.322</ele>
        <time>2019-04-08T02:17:31Z</time>
      </trkpt>
      <trkpt lat="42.28882" lon="1.80038">
        <ele>1693.272</ele>
        <time>2019-04-08T02:17:35Z</time>
      </trkpt>
      <trkpt lat="42.28892" lon="1.80041">
        <ele>1690.126</ele>
        <time>2019-04-08T02:17:39Z</time>
      </trkpt>
      <trkpt lat="42.28901" lon="1.80044">
        <ele>1686.255</ele>
        <time>2019-04-08T02:17:43Z</time>
      </trkpt>
      <trkpt lat="42.29157" lon="1.79808">
        <ele>1716.077</ele>
        <time>2019-04-08T02:19:47Z</time>
      </trkpt>
      <trkpt lat="42.2915" lon="1.79804">
        <ele>1715.373</ele>
        <time>2019-04-08T02:19:50Z</time>
      </trkpt>
      <trkpt lat="42.29135" lon="1.79803">
        <ele>1717.985</ele>
        <time>2019-04-08T02:19:56Z</time>
      </trkpt>
      <trkpt lat="42.29119" lon="1.79798">
        <ele>1718.413</ele>
        <time>2019-04-08T02:20:03Z</time>
      </trkpt>
      <trkpt lat="42.29105" lon="1.79795">
        <ele>1719.508</ele>
        <time>2019-04-08T02:20:09Z</time>
      </trkpt>
      <trkpt lat="42.29099" lon="1.79791">
        <ele>1717.15</ele>
        <time>2019-04-08T02:20:11Z</time>
      </trkpt>
      <trkpt lat="42.29095" lon="1.79811">
        <ele>1721.632</ele>
        <time>2019-04-08T02:20:17Z</time>
      </trkpt>
      <trkpt lat="42.29093" lon="1.79813">
        <ele>1721.577</ele>
        <time>2019-04-08T02:20:18Z</time>
      </trkpt>
      <trkpt lat="42.29082" lon="1.79827">
        <ele>1720.778</ele>
        <time>2019-04-08T02:20:24Z</time>
      </trkpt>
      <trkpt lat="42.29067" lon="1.79846">
        <ele>1719.368</ele>
        <time>2019-04-08T02:20:32Z</time>
      </trkpt>
      <trkpt lat="42.29055" lon="1.79868">
        <ele>1719.272</ele>
        <time>2019-04-08T02:20:40Z</time>
      </trkpt>
      <trkpt lat="42.29047" lon="1.79891">
        <ele>1720.891</ele>
        <time>2019-04-08T02:20:48Z</time>
      </trkpt>
      <trkpt lat="42.29047" lon="1.79904">
        <ele>1723.143</ele>
        <time>2019-04-08T02:20:52Z</time>
      </trkpt>
      <trkpt lat="42.29045" lon="1.79909">
        <ele>1723.052</ele>
        <time>2019-04-08T02:20:53Z</time>
      </trkpt>
      <trkpt lat="42.29041" lon="1.79928">
        <ele>1723.953</ele>
        <time>2019-04-08T02:20:59Z</time>
      </trkpt>
      <trkpt lat="42.29035" lon="1.79942">
        <ele>1723.208</ele>
        <time>2019-04-08T02:21:04Z</time>
      </trkpt>
      <trkpt lat="42.29029" lon="1.79958">
        <ele>1720.508</ele>
        <time>2019-04-08T02:21:09Z</time>
      </trkpt>
      <trkpt lat="42.2903" lon="1.79964">
        <ele>1719.028</ele>
        <time>2019-04-08T02:21:11Z</time>
      </trkpt>
      <trkpt lat="42.29027" lon="1.79963">
        <ele>1719.51</ele>
        <time>2019-04-08T02:21:12Z</time>
      </trkpt>
      <trkpt lat="42.29019" lon="1.79967">
        <ele>1717.835</ele>
        <time>2019-04-08T02:21:16Z</time>
      </trkpt>
      <trkpt lat="42.29011" lon="1.79977">
        <ele>1713.546</ele>
        <time>2019-04-08T02:21:20Z</time>
      </trkpt>
      <trkpt lat="42.29004" lon="1.79984">
        <ele>1710.046</ele>
        <time>2019-04-08T02:21:24Z</time>
      </trkpt>
      <trkpt lat="42.28999" lon="1.7999">
        <ele>1707.47</ele>
        <time>2019-04-08T02:21:26Z</time>
      </trkpt>
      <trkpt lat="42.28998" lon="1.79994">
        <ele>1705.789</ele>
        <time>2019-04-08T02:21:27Z</time>
      </trkpt>
      <trkpt lat="42.28998" lon="1.79993">
        <ele>1705.821</ele>
        <time>2019-04-08T02:21:27Z</time>
      </trkpt>
      <trkpt lat="42.28988" lon="1.79996">
        <ele>1704.288</ele>
        <time>2019-04-08T02:21:31Z</time>
      </trkpt>
      <trkpt lat="42.28984" lon="1.8">
        <ele>1702.724</ele>
        <time>2019-04-08T02:21:33Z</time>
      </trkpt>
      <trkpt lat="42.28984" lon="1.80001">
        <ele>1702.126</ele>
        <time>2019-04-08T02:21:34Z</time>
      </trkpt>
      <trkpt lat="42.2897" lon="1.80005">
        <ele>1700.608</ele>
        <time>2019-04-08T02:21:39Z</time>
      </trkpt>
      <trkpt lat="42.28967" lon="1.80006">
        <ele>1700.121</ele>
        <time>2019-04-08T02:21:41Z</time>
      </trkpt>
      <trkpt lat="42.2896" lon="1.80016">
        <ele>1695.913</ele>
        <time>2019-04-08T02:21:45Z</time>
      </trkpt>
      <trkpt lat="42.28945" lon="1.80018">
        <ele>1695.488</ele>
        <time>2019-04-08T02:21:51Z</time>
      </trkpt>
      <trkpt lat="42.28925" lon="1.80026">
        <ele>1694.189</ele>
        <time>2019-04-08T02:21:59Z</time>
      </trkpt>
      <trkpt lat="42.28905" lon="1.80033">
        <ele>1694.319</ele>
        <time>2019-04-08T02:22:07Z</time>
      </trkpt>
      <trkpt lat="42.28903" lon="1.80034">
        <ele>1694.263</ele>
        <time>2019-04-08T02:22:08Z</time>
      </trkpt>
      <trkpt lat="42.29174" lon="1.79799">
        <ele>1706.622</ele>
        <time>2019-04-08T02:24:17Z</time>
      </trkpt>
      <trkpt lat="42.29174" lon="1.798">
        <ele>1706.664</ele>
        <time>2019-04-08T02:24:18Z</time>
      </trkpt>
      <trkpt lat="42.29172" lon="1.79801">
        <ele>1706.628</ele>
        <time>2019-04-08T02:24:18Z</time>
      </trkpt>
      <trkpt lat="42.29168" lon="1.79804">
        <ele>1707.789</ele>
        <time>2019-04-08T02:24:20Z</time>
      </trkpt>
      <trkpt lat="42.29167" lon="1.79804">
        <ele>1707.717</ele>
        <time>2019-04-08T02:24:21Z</time>
      </trkpt>
      <trkpt lat="42.29165" lon="1.79806">
        <ele>1708.008</ele>
        <time>2019-04-08T02:24:22Z</time>
      </trkpt>
      <trkpt lat="42.29163" lon="1.79808">
        <ele>1708.235</ele>
        <time>2019-04-08T02:24:23Z</time>
      </trkpt>
      <trkpt lat="42.29163" lon="1.79808">
        <ele>1708.397</ele>
        <time>2019-04-08T02:24:23Z</time>
      </trkpt>
      <trkpt lat="42.29162" lon="1.79809">
        <ele>1708.682</ele>
        <time>2019-04-08T02:24:23Z</time>
      </trkpt>
      <trkpt lat="42.29162" lon="1.79809">
        <ele>1708.623</ele>
        <time>2019-04-08T02:24:23Z</time>
      </trkpt>
      <trkpt lat="42.29161" lon="1.79806">
        <ele>1709.253</ele>
        <time>2019-04-08T02:24:24Z</time>
      </trkpt>
      <trkpt lat="42.29161" lon="1.79804">
        <ele>1709.297</ele>
        <time>2019-04-08T02:24:25Z</time>
      </trkpt>
      <trkpt lat="42.29163" lon="1.79799">
        <ele>1709.436</ele>
        <time>2019-04-08T02:24:26Z</time>
      </trkpt>
      <trkpt lat="42.29161" lon="1.79797">
        <ele>1707.768</ele>
        <time>2019-04-08T02:24:27Z</time>
      </trkpt>
      <trkpt lat="42.2916" lon="1.79797">
        <ele>1707.535</ele>
        <time>2019-04-08T02:24:28Z</time>
      </trkpt>
      <trkpt lat="42.29158" lon="1.79796">
        <ele>1706.686</ele>
        <time>2019-04-08T02:24:29Z</time>
      </trkpt>
      <trkpt lat="42.29158" lon="1.79795">
        <ele>1706.314</ele>
        <time>2019-04-08T02:24:29Z</time>
      </trkpt>
      <trkpt lat="42.29157" lon="1.79793">
        <ele>1705.408</ele>
        <time>2019-04-08T02:24:30Z</time>
      </trkpt>
      <trkpt lat="42.29158" lon="1.79788">
        <ele>1704.326</ele>
        <time>2019-04-08T02:24:31Z</time>
      </trkpt>
      <trkpt lat="42.29158" lon="1.79787">
        <ele>1704.288</ele>
        <time>2019-04-08T02:24:31Z</time>
      </trkpt>
      <trkpt lat="42.2916" lon="1.79783">
        <ele>1702.853</ele>
        <time>2019-04-08T02:24:33Z</time>
      </trkpt>
      <trkpt lat="42.29162" lon="1.79782">
        <ele>1702.634</ele>
        <time>2019-04-08T02:24:33Z</time>
      </trkpt>
      <trkpt lat="42.29163" lon="1.79781">
        <ele>1701.894</ele>
        <time>2019-04-08T02:24:34Z</time>
      </trkpt>
      <trkpt lat="42.29163" lon="1.79782">
        <ele>1701.598</ele>
        <time>2019-04-08T02:24:34Z</time>
      </trkpt>
      <trkpt lat="42.29163" lon="1.79782">
        <ele>1701.257</ele>
        <time>2019-04-08T02:24:35Z</time>
      </trkpt>
      <trkpt lat="42.29163" lon="1.79782">
        <ele>1700.879</ele>
        <time>2019-04-08T02:24:35Z</time>
      </trkpt>
      <trkpt lat="42.29163" lon="1.79779">
        <ele>1700.348</ele>
        <time>2019-04-08T02:24:36Z</time>
      </trkpt>
      <trkpt lat="42.29164" lon="1.79778">
        <ele>1700.261</ele>
        <time>2019-04-08T02:24:36Z</time>
      </trkpt>
      <trkpt lat="42.29165" lon="1.79777">
        <ele>1699.817</ele>
        <time>2019-04-08T02:24:37Z</time>
      </trkpt>
      <trkpt lat="42.29167" lon="1.79777">
        <ele>1700.008</ele>
        <time>2019-04-08T02:24:37Z</time>
      </trkpt>
      <trkpt lat="42.29169" lon="1.79774">
        <ele>1700.797</ele>
        <time>2019-04-08T02:24:39Z</time>
      </trkpt>
      <trkpt lat="42.2917" lon="1.79772">
        <ele>1700.819</ele>
        <time>2019-04-08T02:24:39Z</time>
      </trkpt>
      <trkpt lat="42.29165" lon="1.79767">
        <ele>1701.314</ele>
        <time>2019-04-08T02:24:42Z</time>
      </trkpt>
      <trkpt lat="42.29163" lon="1.79769">
        <ele>1699.655</ele>
        <time>2019-04-08T02:24:42Z</time>
      </trkpt>
      <trkpt lat="42.29165" lon="1.79769">
        <ele>1699.515</ele>
        <time>2019-04-08T02:24:43Z</time>
      </trkpt>
      <trkpt lat="42.29164" lon="1.79769">
        <ele>1699.519</ele>
        <time>2019-04-08T02:24:43Z</time>
      </trkpt>
      <trkpt lat="42.29159" lon="1.79772">
        <ele>1698.798</ele>
        <time>2019-04-08T02:24:46Z</time>
      </trkpt>
      <trkpt lat="42.29156" lon="1.79771">
        <ele>1697.39</ele>
        <time>2019-04-08T02:24:47Z</time>
      </trkpt>
      <trkpt lat="42.29155" lon="1.7977">
        <ele>1696.524</ele>
        <time>2019-04-08T02:24:47Z</time>
      </trkpt>
      <trkpt lat="42.29154" lon="1.79769">
        <ele>1696.304</ele>
        <time>2019-04-08T02:24:48Z</time>
      </trkpt>
      <trkpt lat="42.29152" lon="1.79756">
        <ele>1695.214</ele>
        <time>2019-04-08T02:24:52Z</time>
      </trkpt>
      <trkpt lat="42.29151" lon="1.79756">
        <ele>1695.008</ele>
        <time>2019-04-08T02:24:52Z</time>
      </trkpt>
      <trkpt lat="42.29149" lon="1.79756">
        <ele>1694.265</ele>
        <time>2019-04-08T02:24:53Z</time>
      </trkpt>
      <trkpt lat="42.29147" lon="1.79756">
        <ele>1694.197</ele>
        <time>2019-04-08T02:24:54Z</time>
      </trkpt>
      <trkpt lat="42.29147" lon="1.79755">
        <ele>1693.592</ele>
        <time>2019-04-08T02:24:54Z</time>
      </trkpt>
      <trkpt lat="42.29147" lon="1.79755">
        <ele>1692.583</ele>
        <time>2019-04-08T02:24:54Z</time>
      </trkpt>
      <trkpt lat="42.29146" lon="1.79755">
        <ele>1692.063</ele>
        <time>2019-04-08T02:24:54Z</time>
      </trkpt>
      <trkpt lat="42.29145" lon="1.79754">
        <ele>1691.497</ele>
        <time>2019-04-08T02:24:55Z</time>
      </trkpt>
      <trkpt lat="42.29144" lon="1.79751">
        <ele>1689.946</ele>
        <time>2019-04-08T02:24:56Z</time>
      </trkpt>
      <trkpt lat="42.29143" lon="1.79748">
        <ele>1689.368</ele>
        <time>2019-04-08T02:24:57Z</time>
      </trkpt>
      <trkpt lat="42.29143" lon="1.79746">
        <ele>1688.962</ele>
        <time>2019-04-08T02:24:57Z</time>
      </trkpt>
      <trkpt lat="42.29145" lon="1.79739">
        <ele>1687.383</ele>
        <time>2019-04-08T02:24:59Z</time>
      </trkpt>
      <trkpt lat="42.29145" lon="1.79738">
        <ele>1686.211</ele>
        <time>2019-04-08T02:25:00Z</time>
      </trkpt>
      <trkpt lat="42.29145" lon="1.79737">
        <ele>1685.908</ele>
        <time>2019-04-08T02:25:00Z</time>
      </trkpt>
      <trkpt lat="42.29143" lon="1.79729">
        <ele>1685.179</ele>
        <time>2019-04-08T02:25:03Z</time>
      </trkpt>
      <trkpt lat="42.29142" lon="1.79729">
        <ele>1684.971</ele>
        <time>2019-04-08T02:25:03Z</time>
      </trkpt>
      <trkpt lat="42.29142" lon="1.79727">
        <ele>1683.686</ele>
        <time>2019-04-08T02:25:03Z</time>
      </trkpt>
      <trkpt lat="42.29141" lon="1.79725">
        <ele>1682.557</ele>
        <time>2019-04-08T02:25:04Z</time>
      </trkpt>
      <trkpt lat="42.29141" lon="1.79725">
        <ele>1682.437</ele>
        <time>2019-04-08T02:25:04Z</time>
      </trkpt>
      <trkpt lat="42.29137" lon="1.79721">
        <ele>1681.521</ele>
        <time>2019-04-08T02:25:06Z</time>
      </trkpt>
      <trkpt lat="42.29134" lon="1.79717">
        <ele>1680.62</ele>
        <time>2019-04-08T02:25:08Z</time>
      </trkpt>
      <trkpt lat="42.29133" lon="1.79716">
        <ele>1679.362</ele>
        <time>2019-04-08T02:25:08Z</time>
      </trkpt>
      <trkpt lat="42.29131" lon="1.79716">
        <ele>1678.962</ele>
        <time>2019-04-08T02:25:09Z</time>
      </trkpt>
      <trkpt lat="42.2913" lon="1.79715">
        <ele>1677.883</ele>
        <time>2019-04-08T02:25:10Z</time>
      </trkpt>
      <trkpt lat="42.2913" lon="1.79713">
        <ele>1677.011</ele>
        <time>2019-04-08T02:25:10Z</time>
      </trkpt>
      <trkpt lat="42.2913" lon="1.79712">
        <ele>1676.608</ele>
        <time>2019-04-08T02:25:10Z</time>
      </trkpt>
      <trkpt lat="42.29129" lon="1.79707">
        <ele>1675.789</ele>
        <time>2019-04-08T02:25:12Z</time>
      </trkpt>
      <trkpt lat="42.29128" lon="1.79706">
        <ele>1675.641</ele>
        <time>2019-04-08T02:25:12Z</time>
      </trkpt>
      <trkpt lat="42.29128" lon="1.79705">
        <ele>1675.356</ele>
        <time>2019-04-08T02:25:13Z</time>
      </trkpt>
      <trkpt lat="42.29127" lon="1.79703">
        <ele>1674.477</ele>
        <time>2019-04-08T02:25:13Z</time>
      </trkpt>
      <trkpt lat="42.29125" lon="1.79702">
        <ele>1674.027</ele>
        <time>2019-04-08T02:25:14Z</time>
      </trkpt>
      <trkpt lat="42.29123" lon="1.79701">
        <ele>1673.331</ele>
        <time>2019-04-08T02:25:15Z</time>
      </trkpt>
      <trkpt lat="42.29122" lon="1.79701">
        <ele>1673.22</ele>
        <time>2019-04-08T02:25:15Z</time>
      </trkpt>
      <trkpt lat="42.29121" lon="1.797">
        <ele>1672.262</ele>
        <time>2019-04-08T02:25:16Z</time>
      </trkpt>
      <trkpt lat="42.2912" lon="1.79699">
        <ele>1672.243</ele>
        <time>2019-04-08T02:25:16Z</time>
      </trkpt>
      <trkpt lat="42.29119" lon="1.79697">
        <ele>1671.064</ele>
        <time>2019-04-08T02:25:17Z</time>
      </trkpt>
      <trkpt lat="42.29119" lon="1.79696">
        <ele>1670.11</ele>
        <time>2019-04-08T02:25:17Z</time>
      </trkpt>
      <trkpt lat="42.29119" lon="1.79694">
        <ele>1669.808</ele>
        <time>2019-04-08T02:25:18Z</time>
      </trkpt>
      <trkpt lat="42.29118" lon="1.79694">
        <ele>1669.047</ele>
        <time>2019-04-08T02:25:18Z</time>
      </trkpt>
      <trkpt lat="42.29118" lon="1.79693">
        <ele>1668.639</ele>
        <time>2019-04-08T02:25:18Z</time>
      </trkpt>
      <trkpt lat="42.29117" lon="1.7969">
        <ele>1667.184</ele>
        <time>2019-04-08T02:25:19Z</time>
      </trkpt>
      <trkpt lat="42.29116" lon="1.79689">
        <ele>1666.125</ele>
        <time>2019-04-08T02:25:20Z</time>
      </trkpt>
      <trkpt lat="42.29109" lon="1.79684">
        <ele>1664.955</ele>
        <time>2019-04-08T02:25:23Z</time>
      </trkpt>
      <trkpt lat="42.29106" lon="1.79682">
        <ele>1663.539</ele>
        <time>2019-04-08T02:25:24Z</time>
      </trkpt>
      <trkpt lat="42.29105" lon="1.79681">
        <ele>1663.138</ele>
        <time>2019-04-08T02:25:25Z</time>
      </trkpt>
      <trkpt lat="42.29103" lon="1.79677">
        <ele>1662.36</ele>
        <time>2019-04-08T02:25:26Z</time>
      </trkpt>
      <trkpt lat="42.29103" lon="1.79673">
        <ele>1662.357</ele>
        <time>2019-04-08T02:25:27Z</time>
      </trkpt>
      <trkpt lat="42.29104" lon="1.79671">
        <ele>1661.9</ele>
        <time>2019-04-08T02:25:28Z</time>
      </trkpt>
      <trkpt lat="42.29104" lon="1.79669">
        <ele>1661.62</ele>
        <time>2019-04-08T02:25:29Z</time>
      </trkpt>
      <trkpt lat="42.29105" lon="1.79667">
        <ele>1661.208</ele>
        <time>2019-04-08T02:25:29Z</time>
      </trkpt>
      <trkpt lat="42.29106" lon="1.79666">
        <ele>1660.978</ele>
        <time>2019-04-08T02:25:30Z</time>
      </trkpt>
      <trkpt lat="42.29107" lon="1.79662">
        <ele>1660.29</ele>
        <time>2019-04-08T02:25:31Z</time>
      </trkpt>
      <trkpt lat="42.29108" lon="1.79662">
        <ele>1660.315</ele>
        <time>2019-04-08T02:25:31Z</time>
      </trkpt>
      <trkpt lat="42.29109" lon="1.79658">
        <ele>1659.746</ele>
        <time>2019-04-08T02:25:32Z</time>
      </trkpt>
      <trkpt lat="42.29109" lon="1.79656">
        <ele>1659.236</ele>
        <time>2019-04-08T02:25:33Z</time>
      </trkpt>
      <trkpt lat="42.29109" lon="1.79655">
        <ele>1659.32</ele>
        <time>2019-04-08T02:25:33Z</time>
      </trkpt>
      <trkpt lat="42.29109" lon="1.79654">
        <ele>1658.759</ele>
        <time>2019-04-08T02:25:34Z</time>
      </trkpt>
      <trkpt lat="42.29109" lon="1.79653">
        <ele>1657.931</ele>
        <time>2019-04-08T02:25:34Z</time>
      </trkpt>
      <trkpt lat="42.29109" lon="1.79652">
        <ele>1657.762</ele>
        <time>2019-04-08T02:25:34Z</time>
      </trkpt>
      <trkpt lat="42.29107" lon="1.79651">
        <ele>1657.183</ele>
        <time>2019-04-08T02:25:35Z</time>
      </trkpt>
      <trkpt lat="42.29107" lon="1.79651">
        <ele>1656.911</ele>
        <time>2019-04-08T02:25:35Z</time>
      </trkpt>
      <trkpt lat="42.29106" lon="1.7965">
        <ele>1656.508</ele>
        <time>2019-04-08T02:25:36Z</time>
      </trkpt>
      <trkpt lat="42.29105" lon="1.79648">
        <ele>1656.079</ele>
        <time>2019-04-08T02:25:36Z</time>
      </trkpt>
      <trkpt lat="42.29105" lon="1.79647">
        <ele>1655.631</ele>
        <time>2019-04-08T02:25:37Z</time>
      </trkpt>
      <trkpt lat="42.29105" lon="1.79645">
        <ele>1655.316</ele>
        <time>2019-04-08T02:25:37Z</time>
      </trkpt>
      <trkpt lat="42.29105" lon="1.79643">
        <ele>1654.377</ele>
        <time>2019-04-08T02:25:38Z</time>
      </trkpt>
      <trkpt lat="42.29105" lon="1.79642">
        <ele>1653.827</ele>
        <time>2019-04-08T02:25:38Z</time>
      </trkpt>
      <trkpt lat="42.29105" lon="1.79642">
        <ele>1653.431</ele>
        <time>2019-04-08T02:25:38Z</time>
      </trkpt>
      <trkpt lat="42.29105" lon="1.79642">
        <ele>1653.24</ele>
        <time>2019-04-08T02:25:39Z</time>
      </trkpt>
      <trkpt lat="42.29102" lon="1.79641">
        <ele>1652.482</ele>
        <time>2019-04-08T02:25:40Z</time>
      </trkpt>
      <trkpt lat="42.29101" lon="1.79641">
        <ele>1652.236</ele>
        <time>2019-04-08T02:25:40Z</time>
      </trkpt>
      <trkpt lat="42.291" lon="1.79641">
        <ele>1651.117</ele>
        <time>2019-04-08T02:25:40Z</time>
      </trkpt>
      <trkpt lat="42.291" lon="1.79636">
        <ele>1649.918</ele>
        <time>2019-04-08T02:25:42Z</time>
      </trkpt>
      <trkpt lat="42.29097" lon="1.79629">
        <ele>1648.708</ele>
        <time>2019-04-08T02:25:44Z</time>
      </trkpt>
      <trkpt lat="42.29096" lon="1.79627">
        <ele>1648.636</ele>
        <time>2019-04-08T02:25:45Z</time>
      </trkpt>
      <trkpt lat="42.29096" lon="1.79625">
        <ele>1648.498</ele>
        <time>2019-04-08T02:25:45Z</time>
      </trkpt>
      <trkpt lat="42.29096" lon="1.79623">
        <ele>1647.733</ele>
        <time>2019-04-08T02:25:46Z</time>
      </trkpt>
      <trkpt lat="42.29096" lon="1.79623">
        <ele>1647.654</ele>
        <time>2019-04-08T02:25:46Z</time>
      </trkpt>
      <trkpt lat="42.29096" lon="1.79623">
        <ele>1647.354</ele>
        <time>2019-04-08T02:25:46Z</time>
      </trkpt>
      <trkpt lat="42.29096" lon="1.79622">
        <ele>1647.298</ele>
        <time>2019-04-08T02:25:46Z</time>
      </trkpt>
      <trkpt lat="42.29094" lon="1.79618">
        <ele>1646.727</ele>
        <time>2019-04-08T02:25:47Z</time>
      </trkpt>
      <trkpt lat="42.29094" lon="1.79617">
        <ele>1646.639</ele>
        <time>2019-04-08T02:25:48Z</time>
      </trkpt>
      <trkpt lat="42.29094" lon="1.79616">
        <ele>1646.193</ele>
        <time>2019-04-08T02:25:48Z</time>
      </trkpt>
      <trkpt lat="42.29093" lon="1.79613">
        <ele>1645.265</ele>
        <time>2019-04-08T02:25:49Z</time>
      </trkpt>
      <trkpt lat="42.29093" lon="1.79612">
        <ele>1644.621</ele>
        <time>2019-04-08T02:25:49Z</time>
      </trkpt>
      <trkpt lat="42.29094" lon="1.79611">
        <ele>1644.208</ele>
        <time>2019-04-08T02:25:50Z</time>
      </trkpt>
      <trkpt lat="42.29094" lon="1.7961">
        <ele>1643.612</ele>
        <time>2019-04-08T02:25:50Z</time>
      </trkpt>
      <trkpt lat="42.29094" lon="1.7961">
        <ele>1643.684</ele>
        <time>2019-04-08T02:25:50Z</time>
      </trkpt>
      <trkpt lat="42.29093" lon="1.7961">
        <ele>1643.189</ele>
        <time>2019-04-08T02:25:50Z</time>
      </trkpt>
      <trkpt lat="42.29093" lon="1.7961">
        <ele>1643.13</ele>
        <time>2019-04-08T02:25:50Z</time>
      </trkpt>
      <trkpt lat="42.29092" lon="1.7961">
        <ele>1643.17</ele>
        <time>2019-04-08T02:25:51Z</time>
      </trkpt>
      <trkpt lat="42.29091" lon="1.79609">
        <ele>1642.914</ele>
        <time>2019-04-08T02:25:51Z</time>
      </trkpt>
      <trkpt lat="42.29089" lon="1.79608">
        <ele>1641.813</ele>
        <time>2019-04-08T02:25:52Z</time>
      </trkpt>
      <trkpt lat="42.29087" lon="1.79608">
        <ele>1641.235</ele>
        <time>2019-04-08T02:25:53Z</time>
      </trkpt>
      <trkpt lat="42.29086" lon="1.79607">
        <ele>1640.843</ele>
        <time>2019-04-08T02:25:53Z</time>
      </trkpt>
      <trkpt lat="42.29084" lon="1.79601">
        <ele>1640.264</ele>
        <time>2019-04-08T02:25:55Z</time>
      </trkpt>
      <trkpt lat="42.29083" lon="1.796">
        <ele>1640.11</ele>
        <time>2019-04-08T02:25:56Z</time>
      </trkpt>
      <trkpt lat="42.29082" lon="1.79598">
        <ele>1639.508</ele>
        <time>2019-04-08T02:25:56Z</time>
      </trkpt>
      <trkpt lat="42.29081" lon="1.79597">
        <ele>1639.157</ele>
        <time>2019-04-08T02:25:57Z</time>
      </trkpt>
      <trkpt lat="42.29079" lon="1.79596">
        <ele>1638.239</ele>
        <time>2019-04-08T02:25:58Z</time>
      </trkpt>
      <trkpt lat="42.29079" lon="1.79595">
        <ele>1638.354</ele>
        <time>2019-04-08T02:25:58Z</time>
      </trkpt>
      <trkpt lat="42.29079" lon="1.79593">
        <ele>1637.795</ele>
        <time>2019-04-08T02:25:59Z</time>
      </trkpt>
      <trkpt lat="42.29078" lon="1.79591">
        <ele>1637.265</ele>
        <time>2019-04-08T02:25:59Z</time>
      </trkpt>
      <trkpt lat="42.29077" lon="1.7959">
        <ele>1637.269</ele>
        <time>2019-04-08T02:26:00Z</time>
      </trkpt>
      <trkpt lat="42.29077" lon="1.79589">
        <ele>1636.968</ele>
        <time>2019-04-08T02:26:00Z</time>
      </trkpt>
      <trkpt lat="42.29076" lon="1.79589">
        <ele>1636.67</ele>
        <time>2019-04-08T02:26:00Z</time>
      </trkpt>
      <trkpt lat="42.29076" lon="1.79589">
        <ele>1636.259</ele>
        <time>2019-04-08T02:26:00Z</time>
      </trkpt>
      <trkpt lat="42.29074" lon="1.79588">
        <ele>1634.703</ele>
        <time>2019-04-08T02:26:01Z</time>
      </trkpt>
      <trkpt lat="42.29073" lon="1.79588">
        <ele>1633.223</ele>
        <time>2019-04-08T02:26:02Z</time>
      </trkpt>
      <trkpt lat="42.29073" lon="1.79589">
        <ele>1632.308</ele>
        <time>2019-04-08T02:26:02Z</time>
      </trkpt>
      <trkpt lat="42.29072" lon="1.79589">
        <ele>1631.038</ele>
        <time>2019-04-08T02:26:03Z</time>
      </trkpt>
      <trkpt lat="42.2907" lon="1.79585">
        <ele>1630.54</ele>
        <time>2019-04-08T02:26:04Z</time>
      </trkpt>
      <trkpt lat="42.29068" lon="1.79581">
        <ele>1630.425</ele>
        <time>2019-04-08T02:26:05Z</time>
      </trkpt>
      <trkpt lat="42.29064" lon="1.79579">
        <ele>1630.156</ele>
        <time>2019-04-08T02:26:07Z</time>
      </trkpt>
      <trkpt lat="42.29063" lon="1.79577">
        <ele>1629.646</ele>
        <time>2019-04-08T02:26:08Z</time>
      </trkpt>
      <trkpt lat="42.29062" lon="1.79576">
        <ele>1629.31</ele>
        <time>2019-04-08T02:26:08Z</time>
      </trkpt>
      <trkpt lat="42.29061" lon="1.79575">
        <ele>1628.759</ele>
        <time>2019-04-08T02:26:09Z</time>
      </trkpt>
      <trkpt lat="42.29059" lon="1.79574">
        <ele>1627.231</ele>
        <time>2019-04-08T02:26:10Z</time>
      </trkpt>
      <trkpt lat="42.29058" lon="1.79573">
        <ele>1627.312</ele>
        <time>2019-04-08T02:26:10Z</time>
      </trkpt>
      <trkpt lat="42.29054" lon="1.79572">
        <ele>1626.732</ele>
        <time>2019-04-08T02:26:12Z</time>
      </trkpt>
      <trkpt lat="42.29053" lon="1.79571">
        <ele>1626.005</ele>
        <time>2019-04-08T02:26:12Z</time>
      </trkpt>
      <trkpt lat="42.29052" lon="1.79572">
        <ele>1625.008</ele>
        <time>2019-04-08T02:26:13Z</time>
      </trkpt>
      <trkpt lat="42.29051" lon="1.79572">
        <ele>1624.614</ele>
        <time>2019-04-08T02:26:13Z</time>
      </trkpt>
      <trkpt lat="42.29048" lon="1.79571">
        <ele>1623.686</ele>
        <time>2019-04-08T02:26:14Z</time>
      </trkpt>
      <trkpt lat="42.29046" lon="1.79569">
        <ele>1623.021</ele>
        <time>2019-04-08T02:26:15Z</time>
      </trkpt>
      <trkpt lat="42.29045" lon="1.79567">
        <ele>1622.612</ele>
        <time>2019-04-08T02:26:16Z</time>
      </trkpt>
      <trkpt lat="42.29042" lon="1.79566">
        <ele>1621.522</ele>
        <time>2019-04-08T02:26:17Z</time>
      </trkpt>
      <trkpt lat="42.29043" lon="1.79564">
        <ele>1621.326</ele>
        <time>2019-04-08T02:26:18Z</time>
      </trkpt>
      <trkpt lat="42.29046" lon="1.79555">
        <ele>1621.655</ele>
        <time>2019-04-08T02:26:21Z</time>
      </trkpt>
      <trkpt lat="42.29046" lon="1.79554">
        <ele>1621.237</ele>
        <time>2019-04-08T02:26:21Z</time>
      </trkpt>
      <trkpt lat="42.29047" lon="1.79554">
        <ele>1621.145</ele>
        <time>2019-04-08T02:26:21Z</time>
      </trkpt>
      <trkpt lat="42.29049" lon="1.79554">
        <ele>1620.747</ele>
        <time>2019-04-08T02:26:22Z</time>
      </trkpt>
      <trkpt lat="42.29051" lon="1.79557">
        <ele>1620.311</ele>
        <time>2019-04-08T02:26:23Z</time>
      </trkpt>
      <trkpt lat="42.29051" lon="1.79562">
        <ele>1620.608</ele>
        <time>2019-04-08T02:26:25Z</time>
      </trkpt>
      <trkpt lat="42.29051" lon="1.79565">
        <ele>1621.477</ele>
        <time>2019-04-08T02:26:26Z</time>
      </trkpt>
      <trkpt lat="42.29051" lon="1.79567">
        <ele>1622.199</ele>
        <time>2019-04-08T02:26:26Z</time>
      </trkpt>
      <trkpt lat="42.29051" lon="1.79575">
        <ele>1621.594</ele>
        <time>2019-04-08T02:26:29Z</time>
      </trkpt>
      <trkpt lat="42.2905" lon="1.79581">
        <ele>1620.175</ele>
        <time>2019-04-08T02:26:30Z</time>
      </trkpt>
      <trkpt lat="42.29049" lon="1.79582">
        <ele>1620.175</ele>
        <time>2019-04-08T02:26:31Z</time>
      </trkpt>
      <trkpt lat="42.29047" lon="1.79586">
        <ele>1619.899</ele>
        <time>2019-04-08T02:26:32Z</time>
      </trkpt>
      <trkpt lat="42.29046" lon="1.79587">
        <ele>1619.528</ele>
        <time>2019-04-08T02:26:33Z</time>
      </trkpt>
      <trkpt lat="42.29043" lon="1.79589">
        <ele>1618.39</ele>
        <time>2019-04-08T02:26:34Z</time>
      </trkpt>
      <trkpt lat="42.29043" lon="1.7959">
        <ele>1618.155</ele>
        <time>2019-04-08T02:26:34Z</time>
      </trkpt>
      <trkpt lat="42.29041" lon="1.79592">
        <ele>1617.507</ele>
        <time>2019-04-08T02:26:35Z</time>
      </trkpt>
      <trkpt lat="42.29039" lon="1.79593">
        <ele>1617.017</ele>
        <time>2019-04-08T02:26:36Z</time>
      </trkpt>
      <trkpt lat="42.29038" lon="1.79594">
        <ele>1616.708</ele>
        <time>2019-04-08T02:26:37Z</time>
      </trkpt>
      <trkpt lat="42.29036" lon="1.79594">
        <ele>1616.658</ele>
        <time>2019-04-08T02:26:37Z</time>
      </trkpt>
      <trkpt lat="42.29035" lon="1.79595">
        <ele>1616.16</ele>
        <time>2019-04-08T02:26:38Z</time>
      </trkpt>
      <trkpt lat="42.29034" lon="1.79596">
        <ele>1616.015</ele>
        <time>2019-04-08T02:26:38Z</time>
      </trkpt>
      <trkpt lat="42.29033" lon="1.79596">
        <ele>1615.686</ele>
        <time>2019-04-08T02:26:39Z</time>
      </trkpt>
      <trkpt lat="42.29032" lon="1.79597">
        <ele>1615.376</ele>
        <time>2019-04-08T02:26:39Z</time>
      </trkpt>
      <trkpt lat="42.2903" lon="1.79597">
        <ele>1614.61</ele>
        <time>2019-04-08T02:26:40Z</time>
      </trkpt>
      <trkpt lat="42.29026" lon="1.79596">
        <ele>1613.779</ele>
        <time>2019-04-08T02:26:42Z</time>
      </trkpt>
      <trkpt lat="42.29025" lon="1.79596">
        <ele>1613.221</ele>
        <time>2019-04-08T02:26:42Z</time>
      </trkpt>
      <trkpt lat="42.29022" lon="1.79596">
        <ele>1613.025</ele>
        <time>2019-04-08T02:26:43Z</time>
      </trkpt>
      <trkpt lat="42.29019" lon="1.79596">
        <ele>1613.126</ele>
        <time>2019-04-08T02:26:45Z</time>
      </trkpt>
      <trkpt lat="42.29016" lon="1.79597">
        <ele>1612.708</ele>
        <time>2019-04-08T02:26:46Z</time>
      </trkpt>
      <trkpt lat="42.29014" lon="1.79597">
        <ele>1612.308</ele>
        <time>2019-04-08T02:26:46Z</time>
      </trkpt>
      <trkpt lat="42.29011" lon="1.79596">
        <ele>1611.735</ele>
        <time>2019-04-08T02:26:48Z</time>
      </trkpt>
      <trkpt lat="42.29009" lon="1.79595">
        <ele>1611.267</ele>
        <time>2019-04-08T02:26:49Z</time>
      </trkpt>
      <trkpt lat="42.29007" lon="1.79594">
        <ele>1609.562</ele>
        <time>2019-04-08T02:26:49Z</time>
      </trkpt>
      <trkpt lat="42.29004" lon="1.79592">
        <ele>1608.573</ele>
        <time>2019-04-08T02:26:51Z</time>
      </trkpt>
      <trkpt lat="42.29003" lon="1.79591">
        <ele>1608.493</ele>
        <time>2019-04-08T02:26:51Z</time>
      </trkpt>
      <trkpt lat="42.29" lon="1.79583">
        <ele>1607.787</ele>
        <time>2019-04-08T02:26:54Z</time>
      </trkpt>
      <trkpt lat="42.29" lon="1.79581">
        <ele>1607.796</ele>
        <time>2019-04-08T02:26:54Z</time>
      </trkpt>
      <trkpt lat="42.28999" lon="1.79577">
        <ele>1607.158</ele>
        <time>2019-04-08T02:26:56Z</time>
      </trkpt>
      <trkpt lat="42.28998" lon="1.79574">
        <ele>1606.546</ele>
        <time>2019-04-08T02:26:57Z</time>
      </trkpt>
      <trkpt lat="42.28998" lon="1.79573">
        <ele>1606.288</ele>
        <time>2019-04-08T02:26:57Z</time>
      </trkpt>
      <trkpt lat="42.28998" lon="1.79572">
        <ele>1605.516</ele>
        <time>2019-04-08T02:26:57Z</time>
      </trkpt>
      <trkpt lat="42.28996" lon="1.79572">
        <ele>1605.008</ele>
        <time>2019-04-08T02:26:58Z</time>
      </trkpt>
      <trkpt lat="42.28995" lon="1.79572">
        <ele>1604.927</ele>
        <time>2019-04-08T02:26:58Z</time>
      </trkpt>
      <trkpt lat="42.28994" lon="1.79572">
        <ele>1604.329</ele>
        <time>2019-04-08T02:26:59Z</time>
      </trkpt>
      <trkpt lat="42.28994" lon="1.79571">
        <ele>1604.144</ele>
        <time>2019-04-08T02:26:59Z</time>
      </trkpt>
      <trkpt lat="42.28994" lon="1.79569">
        <ele>1602.555</ele>
        <time>2019-04-08T02:27:00Z</time>
      </trkpt>
      <trkpt lat="42.28994" lon="1.79567">
        <ele>1601.735</ele>
        <time>2019-04-08T02:27:01Z</time>
      </trkpt>
      <trkpt lat="42.28995" lon="1.79564">
        <ele>1601.419</ele>
        <time>2019-04-08T02:27:01Z</time>
      </trkpt>
      <trkpt lat="42.28995" lon="1.79561">
        <ele>1600.348</ele>
        <time>2019-04-08T02:27:02Z</time>
      </trkpt>
      <trkpt lat="42.28995" lon="1.7956">
        <ele>1600.21</ele>
        <time>2019-04-08T02:27:03Z</time>
      </trkpt>
      <trkpt lat="42.28994" lon="1.79557">
        <ele>1598.925</ele>
        <time>2019-04-08T02:27:04Z</time>
      </trkpt>
      <trkpt lat="42.28993" lon="1.79556">
        <ele>1598.526</ele>
        <time>2019-04-08T02:27:04Z</time>
      </trkpt>
      <trkpt lat="42.28993" lon="1.79556">
        <ele>1597.908</ele>
        <time>2019-04-08T02:27:04Z</time>
      </trkpt>
      <trkpt lat="42.28992" lon="1.79555">
        <ele>1597.508</ele>
        <time>2019-04-08T02:27:04Z</time>
      </trkpt>
      <trkpt lat="42.28989" lon="1.7955">
        <ele>1596.785</ele>
        <time>2019-04-08T02:27:06Z</time>
      </trkpt>
      <trkpt lat="42.28989" lon="1.79549">
        <ele>1596.277</ele>
        <time>2019-04-08T02:27:07Z</time>
      </trkpt>
      <trkpt lat="42.28989" lon="1.79547">
        <ele>1596.192</ele>
        <time>2019-04-08T02:27:07Z</time>
      </trkpt>
      <trkpt lat="42.28989" lon="1.79544">
        <ele>1595.593</ele>
        <time>2019-04-08T02:27:08Z</time>
      </trkpt>
      <trkpt lat="42.2899" lon="1.7954">
        <ele>1594.433</ele>
        <time>2019-04-08T02:27:10Z</time>
      </trkpt>
      <trkpt lat="42.28992" lon="1.79536">
        <ele>1593.297</ele>
        <time>2019-04-08T02:27:11Z</time>
      </trkpt>
      <trkpt lat="42.28992" lon="1.79534">
        <ele>1592.576</ele>
        <time>2019-04-08T02:27:11Z</time>
      </trkpt>
      <trkpt lat="42.28993" lon="1.79533">
        <ele>1592.128</ele>
        <time>2019-04-08T02:27:12Z</time>
      </trkpt>
      <trkpt lat="42.28996" lon="1.79533">
        <ele>1590.537</ele>
        <time>2019-04-08T02:27:13Z</time>
      </trkpt>
      <trkpt lat="42.28993" lon="1.79532">
        <ele>1590.149</ele>
        <time>2019-04-08T02:27:14Z</time>
      </trkpt>
      <trkpt lat="42.28992" lon="1.7953">
        <ele>1589.713</ele>
        <time>2019-04-08T02:27:15Z</time>
      </trkpt>
      <trkpt lat="42.28992" lon="1.7953">
        <ele>1589.208</ele>
        <time>2019-04-08T02:27:15Z</time>
      </trkpt>
      <trkpt lat="42.28991" lon="1.79526">
        <ele>1588.616</ele>
        <time>2019-04-08T02:27:16Z</time>
      </trkpt>
      <trkpt lat="42.28991" lon="1.79523">
        <ele>1587.658</ele>
        <time>2019-04-08T02:27:17Z</time>
      </trkpt>
      <trkpt lat="42.28991" lon="1.79523">
        <ele>1587.753</ele>
        <time>2019-04-08T02:27:17Z</time>
      </trkpt>
      <trkpt lat="42.28989" lon="1.79521">
        <ele>1586.534</ele>
        <time>2019-04-08T02:27:18Z</time>
      </trkpt>
      <trkpt lat="42.28989" lon="1.7952">
        <ele>1586.334</ele>
        <time>2019-04-08T02:27:18Z</time>
      </trkpt>
      <trkpt lat="42.28988" lon="1.79518">
        <ele>1585.128</ele>
        <time>2019-04-08T02:27:19Z</time>
      </trkpt>
      <trkpt lat="42.28986" lon="1.79515">
        <ele>1584.467</ele>
        <time>2019-04-08T02:27:20Z</time>
      </trkpt>
      <trkpt lat="42.28984" lon="1.79512">
        <ele>1583.729</ele>
        <time>2019-04-08T02:27:21Z</time>
      </trkpt>
      <trkpt lat="42.28982" lon="1.79512">
        <ele>1583.438</ele>
        <time>2019-04-08T02:27:22Z</time>
      </trkpt>
      <trkpt lat="42.2898" lon="1.79513">
        <ele>1583.17</ele>
        <time>2019-04-08T02:27:23Z</time>
      </trkpt>
      <trkpt lat="42.28978" lon="1.79515">
        <ele>1583.017</ele>
        <time>2019-04-08T02:27:24Z</time>
      </trkpt>
      <trkpt lat="42.28976" lon="1.79515">
        <ele>1583.108</ele>
        <time>2019-04-08T02:27:25Z</time>
      </trkpt>
      <trkpt lat="42.28974" lon="1.79515">
        <ele>1583.166</ele>
        <time>2019-04-08T02:27:26Z</time>
      </trkpt>
      <trkpt lat="42.2897" lon="1.7951">
        <ele>1582.628</ele>
        <time>2019-04-08T02:27:28Z</time>
      </trkpt>
      <trkpt lat="42.28968" lon="1.79509">
        <ele>1581.523</ele>
        <time>2019-04-08T02:27:28Z</time>
      </trkpt>
      <trkpt lat="42.28968" lon="1.79508">
        <ele>1581.254</ele>
        <time>2019-04-08T02:27:29Z</time>
      </trkpt>
      <trkpt lat="42.28968" lon="1.79507">
        <ele>1580.734</ele>
        <time>2019-04-08T02:27:29Z</time>
      </trkpt>
      <trkpt lat="42.28968" lon="1.79506">
        <ele>1580.488</ele>
        <time>2019-04-08T02:27:29Z</time>
      </trkpt>
      <trkpt lat="42.28968" lon="1.79503">
        <ele>1579.357</ele>
        <time>2019-04-08T02:27:30Z</time>
      </trkpt>
      <trkpt lat="42.28967" lon="1.79502">
        <ele>1579.059</ele>
        <time>2019-04-08T02:27:31Z</time>
      </trkpt>
      <trkpt lat="42.28966" lon="1.795">
        <ele>1578.113</ele>
        <time>2019-04-08T02:27:31Z</time>
      </trkpt>
      <trkpt lat="42.28964" lon="1.79497">
        <ele>1576.943</ele>
        <time>2019-04-08T02:27:33Z</time>
      </trkpt>
      <trkpt lat="42.28962" lon="1.79492">
        <ele>1575.807</ele>
        <time>2019-04-08T02:27:34Z</time>
      </trkpt>
      <trkpt lat="42.28963" lon="1.7949">
        <ele>1575.408</ele>
        <time>2019-04-08T02:27:35Z</time>
      </trkpt>
      <trkpt lat="42.28965" lon="1.79487">
        <ele>1574.744</ele>
        <time>2019-04-08T02:27:36Z</time>
      </trkpt>
      <trkpt lat="42.28968" lon="1.79478">
        <ele>1573.546</ele>
        <time>2019-04-08T02:27:39Z</time>
      </trkpt>
      <trkpt lat="42.28968" lon="1.79478">
        <ele>1573.151</ele>
        <time>2019-04-08T02:27:39Z</time>
      </trkpt>
      <trkpt lat="42.28968" lon="1.79478">
        <ele>1572.462</ele>
        <time>2019-04-08T02:27:39Z</time>
      </trkpt>
      <trkpt lat="42.28968" lon="1.79478">
        <ele>1572.242</ele>
        <time>2019-04-08T02:27:40Z</time>
      </trkpt>
      <trkpt lat="42.28966" lon="1.79477">
        <ele>1571.646</ele>
        <time>2019-04-08T02:27:40Z</time>
      </trkpt>
      <trkpt lat="42.28965" lon="1.79476">
        <ele>1571.355</ele>
        <time>2019-04-08T02:27:41Z</time>
      </trkpt>
      <trkpt lat="42.28964" lon="1.79475">
        <ele>1570.777</ele>
        <time>2019-04-08T02:27:41Z</time>
      </trkpt>
      <trkpt lat="42.28959" lon="1.79471">
        <ele>1569.439</ele>
        <time>2019-04-08T02:27:44Z</time>
      </trkpt>
      <trkpt lat="42.28959" lon="1.79471">
        <ele>1569.501</ele>
        <time>2019-04-08T02:27:44Z</time>
      </trkpt>
      <trkpt lat="42.28958" lon="1.79471">
        <ele>1569.121</ele>
        <time>2019-04-08T02:27:44Z</time>
      </trkpt>
      <trkpt lat="42.28957" lon="1.79471">
        <ele>1568.508</ele>
        <time>2019-04-08T02:27:45Z</time>
      </trkpt>
      <trkpt lat="42.28957" lon="1.79471">
        <ele>1568.296</ele>
        <time>2019-04-08T02:27:45Z</time>
      </trkpt>
      <trkpt lat="42.28955" lon="1.7947">
        <ele>1566.948</ele>
        <time>2019-04-08T02:27:45Z</time>
      </trkpt>
      <trkpt lat="42.28954" lon="1.79469">
        <ele>1566.783</ele>
        <time>2019-04-08T02:27:46Z</time>
      </trkpt>
      <trkpt lat="42.28953" lon="1.79469">
        <ele>1566.244</ele>
        <time>2019-04-08T02:27:46Z</time>
      </trkpt>
      <trkpt lat="42.28952" lon="1.79468">
        <ele>1565.644</ele>
        <time>2019-04-08T02:27:47Z</time>
      </trkpt>
      <trkpt lat="42.2895" lon="1.79465">
        <ele>1564.838</ele>
        <time>2019-04-08T02:27:48Z</time>
      </trkpt>
      <trkpt lat="42.28949" lon="1.79463">
        <ele>1564.787</ele>
        <time>2019-04-08T02:27:49Z</time>
      </trkpt>
      <trkpt lat="42.28948" lon="1.79461">
        <ele>1564.299</ele>
        <time>2019-04-08T02:27:49Z</time>
      </trkpt>
      <trkpt lat="42.28947" lon="1.7946">
        <ele>1564.079</ele>
        <time>2019-04-08T02:27:50Z</time>
      </trkpt>
      <trkpt lat="42.28946" lon="1.79456">
        <ele>1563.205</ele>
        <time>2019-04-08T02:27:51Z</time>
      </trkpt>
      <trkpt lat="42.28946" lon="1.79455">
        <ele>1563.225</ele>
        <time>2019-04-08T02:27:51Z</time>
      </trkpt>
      <trkpt lat="42.28946" lon="1.79453">
        <ele>1562.908</ele>
        <time>2019-04-08T02:27:52Z</time>
      </trkpt>
      <trkpt lat="42.28947" lon="1.79451">
        <ele>1562.52</ele>
        <time>2019-04-08T02:27:53Z</time>
      </trkpt>
      <trkpt lat="42.28948" lon="1.79449">
        <ele>1562.262</ele>
        <time>2019-04-08T02:27:53Z</time>
      </trkpt>
      <trkpt lat="42.28951" lon="1.79447">
        <ele>1560.927</ele>
        <time>2019-04-08T02:27:55Z</time>
      </trkpt>
      <trkpt lat="42.28951" lon="1.79446">
        <ele>1560.718</ele>
        <time>2019-04-08T02:27:55Z</time>
      </trkpt>
      <trkpt lat="42.28951" lon="1.79446">
        <ele>1560.698</ele>
        <time>2019-04-08T02:27:55Z</time>
      </trkpt>
      <trkpt lat="42.2895" lon="1.79445">
        <ele>1560.072</ele>
        <time>2019-04-08T02:27:55Z</time>
      </trkpt>
      <trkpt lat="42.2895" lon="1.79443">
        <ele>1559.421</ele>
        <time>2019-04-08T02:27:56Z</time>
      </trkpt>
      <trkpt lat="42.2895" lon="1.79443">
        <ele>1558.823</ele>
        <time>2019-04-08T02:27:56Z</time>
      </trkpt>
      <trkpt lat="42.28949" lon="1.79442">
        <ele>1558.738</ele>
        <time>2019-04-08T02:27:56Z</time>
      </trkpt>
      <trkpt lat="42.28948" lon="1.79438">
        <ele>1557.27</ele>
        <time>2019-04-08T02:27:58Z</time>
      </trkpt>
      <trkpt lat="42.28948" lon="1.79434">
        <ele>1556.917</ele>
        <time>2019-04-08T02:27:59Z</time>
      </trkpt>
      <trkpt lat="42.2895" lon="1.7943">
        <ele>1556.508</ele>
        <time>2019-04-08T02:28:00Z</time>
      </trkpt>
      <trkpt lat="42.2895" lon="1.7943">
        <ele>1556.236</ele>
        <time>2019-04-08T02:28:00Z</time>
      </trkpt>
      <trkpt lat="42.28952" lon="1.79431">
        <ele>1555.328</ele>
        <time>2019-04-08T02:28:01Z</time>
      </trkpt>
      <trkpt lat="42.28953" lon="1.7943">
        <ele>1554.633</ele>
        <time>2019-04-08T02:28:01Z</time>
      </trkpt>
      <trkpt lat="42.28952" lon="1.79428">
        <ele>1554.224</ele>
        <time>2019-04-08T02:28:02Z</time>
      </trkpt>
      <trkpt lat="42.28953" lon="1.79427">
        <ele>1553.914</ele>
        <time>2019-04-08T02:28:02Z</time>
      </trkpt>
      <trkpt lat="42.28954" lon="1.79426">
        <ele>1553.698</ele>
        <time>2019-04-08T02:28:03Z</time>
      </trkpt>
      <trkpt lat="42.28956" lon="1.7942">
        <ele>1552.987</ele>
        <time>2019-04-08T02:28:05Z</time>
      </trkpt>
      <trkpt lat="42.28957" lon="1.79417">
        <ele>1552.179</ele>
        <time>2019-04-08T02:28:06Z</time>
      </trkpt>
      <trkpt lat="42.28957" lon="1.79414">
        <ele>1552.287</ele>
        <time>2019-04-08T02:28:07Z</time>
      </trkpt>
      <trkpt lat="42.28957" lon="1.79413">
        <ele>1552.342</ele>
        <time>2019-04-08T02:28:07Z</time>
      </trkpt>
      <trkpt lat="42.28958" lon="1.79411">
        <ele>1551.526</ele>
        <time>2019-04-08T02:28:07Z</time>
      </trkpt>
      <trkpt lat="42.28958" lon="1.79412">
        <ele>1551.108</ele>
        <time>2019-04-08T02:28:08Z</time>
      </trkpt>
      <trkpt lat="42.28958" lon="1.79411">
        <ele>1550.641</ele>
        <time>2019-04-08T02:28:08Z</time>
      </trkpt>
      <trkpt lat="42.28958" lon="1.79411">
        <ele>1550.343</ele>
        <time>2019-04-08T02:28:08Z</time>
      </trkpt>
      <trkpt lat="42.28958" lon="1.79411">
        <ele>1549.768</ele>
        <time>2019-04-08T02:28:08Z</time>
      </trkpt>
      <trkpt lat="42.28957" lon="1.79409">
        <ele>1549.239</ele>
        <time>2019-04-08T02:28:09Z</time>
      </trkpt>
      <trkpt lat="42.28957" lon="1.79408">
        <ele>1549.079</ele>
        <time>2019-04-08T02:28:09Z</time>
      </trkpt>
      <trkpt lat="42.28957" lon="1.79407">
        <ele>1548.843</ele>
        <time>2019-04-08T02:28:09Z</time>
      </trkpt>
      <trkpt lat="42.28956" lon="1.79405">
        <ele>1548.122</ele>
        <time>2019-04-08T02:28:10Z</time>
      </trkpt>
      <trkpt lat="42.28956" lon="1.79403">
        <ele>1546.874</ele>
        <time>2019-04-08T02:28:11Z</time>
      </trkpt>
      <trkpt lat="42.28955" lon="1.79401">
        <ele>1546.335</ele>
        <time>2019-04-08T02:28:11Z</time>
      </trkpt>
      <trkpt lat="42.28954" lon="1.794">
        <ele>1546.086</ele>
        <time>2019-04-08T02:28:12Z</time>
      </trkpt>
      <trkpt lat="42.28954" lon="1.79399">
        <ele>1545.614</ele>
        <time>2019-04-08T02:28:12Z</time>
      </trkpt>
      <trkpt lat="42.28954" lon="1.79398">
        <ele>1545.308</ele>
        <time>2019-04-08T02:28:12Z</time>
      </trkpt>
      <trkpt lat="42.28953" lon="1.79397">
        <ele>1544.956</ele>
        <time>2019-04-08T02:28:12Z</time>
      </trkpt>
      <trkpt lat="42.28953" lon="1.79396">
        <ele>1544.218</ele>
        <time>2019-04-08T02:28:13Z</time>
      </trkpt>
      <trkpt lat="42.28952" lon="1.79395">
        <ele>1543.963</ele>
        <time>2019-04-08T02:28:13Z</time>
      </trkpt>
      <trkpt lat="42.28951" lon="1.79394">
        <ele>1543.464</ele>
        <time>2019-04-08T02:28:14Z</time>
      </trkpt>
      <trkpt lat="42.28949" lon="1.79391">
        <ele>1542.264</ele>
        <time>2019-04-08T02:28:15Z</time>
      </trkpt>
      <trkpt lat="42.28949" lon="1.7939">
        <ele>1541.468</ele>
        <time>2019-04-08T02:28:15Z</time>
      </trkpt>
      <trkpt lat="42.28949" lon="1.79389">
        <ele>1541.037</ele>
        <time>2019-04-08T02:28:16Z</time>
      </trkpt>
      <trkpt lat="42.28947" lon="1.79387">
        <ele>1540.299</ele>
        <time>2019-04-08T02:28:16Z</time>
      </trkpt>
      <trkpt lat="42.28944" lon="1.79383">
        <ele>1538.848</ele>
        <time>2019-04-08T02:28:18Z</time>
      </trkpt>
      <trkpt lat="42.28942" lon="1.79379">
        <ele>1537.561</ele>
        <time>2019-04-08T02:28:20Z</time>
      </trkpt>
      <trkpt lat="42.28941" lon="1.79378">
        <ele>1537.217</ele>
        <time>2019-04-08T02:28:20Z</time>
      </trkpt>
      <trkpt lat="42.28941" lon="1.79377">
        <ele>1537.108</ele>
        <time>2019-04-08T02:28:20Z</time>
      </trkpt>
      <trkpt lat="42.28941" lon="1.79375">
        <ele>1536.667</ele>
        <time>2019-04-08T02:28:21Z</time>
      </trkpt>
      <trkpt lat="42.28941" lon="1.79372">
        <ele>1536.589</ele>
        <time>2019-04-08T02:28:22Z</time>
      </trkpt>
      <trkpt lat="42.28941" lon="1.79371">
        <ele>1536.374</ele>
        <time>2019-04-08T02:28:22Z</time>
      </trkpt>
      <trkpt lat="42.28942" lon="1.79368">
        <ele>1536.115</ele>
        <time>2019-04-08T02:28:23Z</time>
      </trkpt>
      <trkpt lat="42.28942" lon="1.79362">
        <ele>1536.345</ele>
        <time>2019-04-08T02:28:25Z</time>
      </trkpt>
      <trkpt lat="42.28938" lon="1.79357">
        <ele>1536.219</ele>
        <time>2019-04-08T02:28:27Z</time>
      </trkpt>
      <trkpt lat="42.28935" lon="1.79353">
        <ele>1536.288</ele>
        <time>2019-04-08T02:28:29Z</time>
      </trkpt>
      <trkpt lat="42.2893" lon="1.79348">
        <ele>1535.12</ele>
        <time>2019-04-08T02:28:31Z</time>
      </trkpt>
      <trkpt lat="42.28929" lon="1.79345">
        <ele>1535.218</ele>
        <time>2019-04-08T02:28:32Z</time>
      </trkpt>
      <trkpt lat="42.28928" lon="1.79342">
        <ele>1535.198</ele>
        <time>2019-04-08T02:28:33Z</time>
      </trkpt>
      <trkpt lat="42.28924" lon="1.79335">
        <ele>1535.317</ele>
        <time>2019-04-08T02:28:36Z</time>
      </trkpt>
      <trkpt lat="42.28922" lon="1.79332">
        <ele>1534.708</ele>
        <time>2019-04-08T02:28:37Z</time>
      </trkpt>
      <trkpt lat="42.28922" lon="1.79331">
        <ele>1534.344</ele>
        <time>2019-04-08T02:28:37Z</time>
      </trkpt>
      <trkpt lat="42.2892" lon="1.79326">
        <ele>1534.196</ele>
        <time>2019-04-08T02:28:39Z</time>
      </trkpt>
      <trkpt lat="42.28919" lon="1.79324">
        <ele>1533.651</ele>
        <time>2019-04-08T02:28:40Z</time>
      </trkpt>
      <trkpt lat="42.28918" lon="1.79321">
        <ele>1533.232</ele>
        <time>2019-04-08T02:28:40Z</time>
      </trkpt>
      <trkpt lat="42.28917" lon="1.7932">
        <ele>1533.072</ele>
        <time>2019-04-08T02:28:41Z</time>
      </trkpt>
      <trkpt lat="42.28916" lon="1.79316">
        <ele>1532.626</ele>
        <time>2019-04-08T02:28:42Z</time>
      </trkpt>
      <trkpt lat="42.28916" lon="1.79314">
        <ele>1532.435</ele>
        <time>2019-04-08T02:28:43Z</time>
      </trkpt>
      <trkpt lat="42.28916" lon="1.7931">
        <ele>1532.187</ele>
        <time>2019-04-08T02:28:44Z</time>
      </trkpt>
      <trkpt lat="42.28916" lon="1.79304">
        <ele>1531.621</ele>
        <time>2019-04-08T02:28:46Z</time>
      </trkpt>
      <trkpt lat="42.28915" lon="1.79301">
        <ele>1530.641</ele>
        <time>2019-04-08T02:28:47Z</time>
      </trkpt>
      <trkpt lat="42.28914" lon="1.79292">
        <ele>1529.605</ele>
        <time>2019-04-08T02:28:49Z</time>
      </trkpt>
      <trkpt lat="42.28912" lon="1.7929">
        <ele>1528.708</ele>
        <time>2019-04-08T02:28:50Z</time>
      </trkpt>
      <trkpt lat="42.28911" lon="1.79285">
        <ele>1527.645</ele>
        <time>2019-04-08T02:28:52Z</time>
      </trkpt>
      <trkpt lat="42.28912" lon="1.79279">
        <ele>1527.147</ele>
        <time>2019-04-08T02:28:53Z</time>
      </trkpt>
      <trkpt lat="42.28911" lon="1.79277">
        <ele>1526.532</ele>
        <time>2019-04-08T02:28:54Z</time>
      </trkpt>
      <trkpt lat="42.28911" lon="1.79277">
        <ele>1526.333</ele>
        <time>2019-04-08T02:28:54Z</time>
      </trkpt>
      <trkpt lat="42.2891" lon="1.79272">
        <ele>1525.293</ele>
        <time>2019-04-08T02:28:56Z</time>
      </trkpt>
      <trkpt lat="42.28909" lon="1.7927">
        <ele>1524.497</ele>
        <time>2019-04-08T02:28:56Z</time>
      </trkpt>
      <trkpt lat="42.28909" lon="1.79269">
        <ele>1523.896</ele>
        <time>2019-04-08T02:28:57Z</time>
      </trkpt>
      <trkpt lat="42.28909" lon="1.79268">
        <ele>1523.628</ele>
        <time>2019-04-08T02:28:57Z</time>
      </trkpt>
      <trkpt lat="42.28908" lon="1.79267">
        <ele>1523.012</ele>
        <time>2019-04-08T02:28:57Z</time>
      </trkpt>
      <trkpt lat="42.28907" lon="1.79266">
        <ele>1522.232</ele>
        <time>2019-04-08T02:28:58Z</time>
      </trkpt>
      <trkpt lat="42.28907" lon="1.79266">
        <ele>1521.705</ele>
        <time>2019-04-08T02:28:58Z</time>
      </trkpt>
      <trkpt lat="42.28907" lon="1.79266">
        <ele>1521.208</ele>
        <time>2019-04-08T02:28:58Z</time>
      </trkpt>
      <trkpt lat="42.28909" lon="1.79264">
        <ele>1520.864</ele>
        <time>2019-04-08T02:28:59Z</time>
      </trkpt>
      <trkpt lat="42.2891" lon="1.79263">
        <ele>1520.556</ele>
        <time>2019-04-08T02:29:00Z</time>
      </trkpt>
      <trkpt lat="42.28909" lon="1.7926">
        <ele>1519.961</ele>
        <time>2019-04-08T02:29:01Z</time>
      </trkpt>
      <trkpt lat="42.28908" lon="1.7926">
        <ele>1519.762</ele>
        <time>2019-04-08T02:29:01Z</time>
      </trkpt>
      <trkpt lat="42.28908" lon="1.7926">
        <ele>1519.732</ele>
        <time>2019-04-08T02:29:01Z</time>
      </trkpt>
      <trkpt lat="42.28908" lon="1.79257">
        <ele>1519.256</ele>
        <time>2019-04-08T02:29:02Z</time>
      </trkpt>
      <trkpt lat="42.28908" lon="1.79255">
        <ele>1519.215</ele>
        <time>2019-04-08T02:29:03Z</time>
      </trkpt>
      <trkpt lat="42.28908" lon="1.79253">
        <ele>1518.697</ele>
        <time>2019-04-08T02:29:03Z</time>
      </trkpt>
      <trkpt lat="42.28907" lon="1.79252">
        <ele>1518.649</ele>
        <time>2019-04-08T02:29:04Z</time>
      </trkpt>
      <trkpt lat="42.28905" lon="1.79248">
        <ele>1517.802</ele>
        <time>2019-04-08T02:29:05Z</time>
      </trkpt>
      <trkpt lat="42.28905" lon="1.79246">
        <ele>1517.622</ele>
        <time>2019-04-08T02:29:06Z</time>
      </trkpt>
      <trkpt lat="42.28904" lon="1.79244">
        <ele>1516.708</ele>
        <time>2019-04-08T02:29:06Z</time>
      </trkpt>
      <trkpt lat="42.28904" lon="1.79242">
        <ele>1516.667</ele>
        <time>2019-04-08T02:29:07Z</time>
      </trkpt>
      <trkpt lat="42.28904" lon="1.7924">
        <ele>1516.239</ele>
        <time>2019-04-08T02:29:07Z</time>
      </trkpt>
      <trkpt lat="42.28904" lon="1.79239">
        <ele>1516.264</ele>
        <time>2019-04-08T02:29:08Z</time>
      </trkpt>
      <trkpt lat="42.28904" lon="1.79238">
        <ele>1515.945</ele>
        <time>2019-04-08T02:29:08Z</time>
      </trkpt>
      <trkpt lat="42.28904" lon="1.79237">
        <ele>1515.315</ele>
        <time>2019-04-08T02:29:09Z</time>
      </trkpt>
      <trkpt lat="42.28904" lon="1.79235">
        <ele>1514.759</ele>
        <time>2019-04-08T02:29:09Z</time>
      </trkpt>
      <trkpt lat="42.28903" lon="1.79238">
        <ele>1514.448</ele>
        <time>2019-04-08T02:29:10Z</time>
      </trkpt>
      <trkpt lat="42.28902" lon="1.79239">
        <ele>1514.22</ele>
        <time>2019-04-08T02:29:10Z</time>
      </trkpt>
      <trkpt lat="42.289" lon="1.79241">
        <ele>1513.282</ele>
        <time>2019-04-08T02:29:11Z</time>
      </trkpt>
      <trkpt lat="42.28899" lon="1.79242">
        <ele>1513.143</ele>
        <time>2019-04-08T02:29:12Z</time>
      </trkpt>
      <trkpt lat="42.28897" lon="1.79243">
        <ele>1512.417</ele>
        <time>2019-04-08T02:29:13Z</time>
      </trkpt>
      <trkpt lat="42.28896" lon="1.79244">
        <ele>1511.708</ele>
        <time>2019-04-08T02:29:13Z</time>
      </trkpt>
      <trkpt lat="42.28895" lon="1.79245">
        <ele>1511.381</ele>
        <time>2019-04-08T02:29:13Z</time>
      </trkpt>
      <trkpt lat="42.28894" lon="1.79245">
        <ele>1510.683</ele>
        <time>2019-04-08T02:29:14Z</time>
      </trkpt>
      <trkpt lat="42.28893" lon="1.79245">
        <ele>1510.198</ele>
        <time>2019-04-08T02:29:14Z</time>
      </trkpt>
      <trkpt lat="42.28892" lon="1.79245">
        <ele>1509.629</ele>
        <time>2019-04-08T02:29:15Z</time>
      </trkpt>
      <trkpt lat="42.28891" lon="1.79245">
        <ele>1509.219</ele>
        <time>2019-04-08T02:29:15Z</time>
      </trkpt>
      <trkpt lat="42.28889" lon="1.79246">
        <ele>1508.533</ele>
        <time>2019-04-08T02:29:16Z</time>
      </trkpt>
      <trkpt lat="42.28886" lon="1.79248">
        <ele>1507.712</ele>
        <time>2019-04-08T02:29:17Z</time>
      </trkpt>
      <trkpt lat="42.28885" lon="1.79248">
        <ele>1507.384</ele>
        <time>2019-04-08T02:29:18Z</time>
      </trkpt>
      <trkpt lat="42.28883" lon="1.79248">
        <ele>1506.399</ele>
        <time>2019-04-08T02:29:19Z</time>
      </trkpt>
      <trkpt lat="42.2888" lon="1.79249">
        <ele>1504.507</ele>
        <time>2019-04-08T02:29:20Z</time>
      </trkpt>
      <trkpt lat="42.28879" lon="1.7925">
        <ele>1504.327</ele>
        <time>2019-04-08T02:29:20Z</time>
      </trkpt>
      <trkpt lat="42.28876" lon="1.79248">
        <ele>1503.708</ele>
        <time>2019-04-08T02:29:22Z</time>
      </trkpt>
      <trkpt lat="42.28875" lon="1.79246">
        <ele>1503.592</ele>
        <time>2019-04-08T02:29:22Z</time>
      </trkpt>
      <trkpt lat="42.28874" lon="1.79246">
        <ele>1503.354</ele>
        <time>2019-04-08T02:29:23Z</time>
      </trkpt>
      <trkpt lat="42.28874" lon="1.79247">
        <ele>1502.599</ele>
        <time>2019-04-08T02:29:23Z</time>
      </trkpt>
      <trkpt lat="42.28873" lon="1.79248">
        <ele>1502.39</ele>
        <time>2019-04-08T02:29:23Z</time>
      </trkpt>
      <trkpt lat="42.28873" lon="1.7925">
        <ele>1502.19</ele>
        <time>2019-04-08T02:29:24Z</time>
      </trkpt>
      <trkpt lat="42.2887" lon="1.79248">
        <ele>1501.854</ele>
        <time>2019-04-08T02:29:25Z</time>
      </trkpt>
      <trkpt lat="42.28868" lon="1.79246">
        <ele>1501.533</ele>
        <time>2019-04-08T02:29:26Z</time>
      </trkpt>
      <trkpt lat="42.28865" lon="1.79244">
        <ele>1501.515</ele>
        <time>2019-04-08T02:29:28Z</time>
      </trkpt>
      <trkpt lat="42.28862" lon="1.79242">
        <ele>1501.416</ele>
        <time>2019-04-08T02:29:29Z</time>
      </trkpt>
      <trkpt lat="42.2886" lon="1.79239">
        <ele>1501.876</ele>
        <time>2019-04-08T02:29:30Z</time>
      </trkpt>
      <trkpt lat="42.28857" lon="1.79238">
        <ele>1501.613</ele>
        <time>2019-04-08T02:29:31Z</time>
      </trkpt>
      <trkpt lat="42.28855" lon="1.79237">
        <ele>1501.208</ele>
        <time>2019-04-08T02:29:32Z</time>
      </trkpt>
      <trkpt lat="42.28854" lon="1.79236">
        <ele>1500.984</ele>
        <time>2019-04-08T02:29:32Z</time>
      </trkpt>
      <trkpt lat="42.2885" lon="1.79234">
        <ele>1501.116</ele>
        <time>2019-04-08T02:29:34Z</time>
      </trkpt>
      <trkpt lat="42.28848" lon="1.79233">
        <ele>1500.621</ele>
        <time>2019-04-08T02:29:35Z</time>
      </trkpt>
      <trkpt lat="42.28846" lon="1.79233">
        <ele>1500.652</ele>
        <time>2019-04-08T02:29:36Z</time>
      </trkpt>
      <trkpt lat="42.28845" lon="1.79231">
        <ele>1500.322</ele>
        <time>2019-04-08T02:29:37Z</time>
      </trkpt>
      <trkpt lat="42.28839" lon="1.7922">
        <ele>1500.026</ele>
        <time>2019-04-08T02:29:40Z</time>
      </trkpt>
      <trkpt lat="42.28838" lon="1.79217">
        <ele>1499.875</ele>
        <time>2019-04-08T02:29:41Z</time>
      </trkpt>
      <trkpt lat="42.28836" lon="1.79215">
        <ele>1499.597</ele>
        <time>2019-04-08T02:29:42Z</time>
      </trkpt>
      <trkpt lat="42.28834" lon="1.79213">
        <ele>1499.087</ele>
        <time>2019-04-08T02:29:43Z</time>
      </trkpt>
      <trkpt lat="42.28833" lon="1.7921">
        <ele>1498.842</ele>
        <time>2019-04-08T02:29:44Z</time>
      </trkpt>
      <trkpt lat="42.28832" lon="1.79209">
        <ele>1498.326</ele>
        <time>2019-04-08T02:29:45Z</time>
      </trkpt>
      <trkpt lat="42.28829" lon="1.79205">
        <ele>1497.108</ele>
        <time>2019-04-08T02:29:47Z</time>
      </trkpt>
      <trkpt lat="42.28828" lon="1.79201">
        <ele>1495.611</ele>
        <time>2019-04-08T02:29:48Z</time>
      </trkpt>
      <trkpt lat="42.28825" lon="1.79199">
        <ele>1494.653</ele>
        <time>2019-04-08T02:29:49Z</time>
      </trkpt>
      <trkpt lat="42.28825" lon="1.79199">
        <ele>1494.398</ele>
        <time>2019-04-08T02:29:49Z</time>
      </trkpt>
      <trkpt lat="42.28821" lon="1.79198">
        <ele>1493.249</ele>
        <time>2019-04-08T02:29:50Z</time>
      </trkpt>
      <trkpt lat="42.2882" lon="1.79198">
        <ele>1492.779</ele>
        <time>2019-04-08T02:29:51Z</time>
      </trkpt>
      <trkpt lat="42.28819" lon="1.79198">
        <ele>1492.333</ele>
        <time>2019-04-08T02:29:51Z</time>
      </trkpt>
      <trkpt lat="42.28818" lon="1.79197">
        <ele>1492.122</ele>
        <time>2019-04-08T02:29:52Z</time>
      </trkpt>
      <trkpt lat="42.28814" lon="1.79195">
        <ele>1491.074</ele>
        <time>2019-04-08T02:29:54Z</time>
      </trkpt>
      <trkpt lat="42.28812" lon="1.79193">
        <ele>1490.725</ele>
        <time>2019-04-08T02:29:54Z</time>
      </trkpt>
      <trkpt lat="42.28811" lon="1.79192">
        <ele>1490.426</ele>
        <time>2019-04-08T02:29:55Z</time>
      </trkpt>
      <trkpt lat="42.2881" lon="1.79191">
        <ele>1489.608</ele>
        <time>2019-04-08T02:29:55Z</time>
      </trkpt>
      <trkpt lat="42.28809" lon="1.7919">
        <ele>1488.808</ele>
        <time>2019-04-08T02:29:56Z</time>
      </trkpt>
      <trkpt lat="42.28808" lon="1.79191">
        <ele>1487.625</ele>
        <time>2019-04-08T02:29:57Z</time>
      </trkpt>
      <trkpt lat="42.28808" lon="1.79193">
        <ele>1487.267</ele>
        <time>2019-04-08T02:29:57Z</time>
      </trkpt>
      <trkpt lat="42.28809" lon="1.79194">
        <ele>1487.162</ele>
        <time>2019-04-08T02:29:58Z</time>
      </trkpt>
      <trkpt lat="42.2881" lon="1.79197">
        <ele>1486.583</ele>
        <time>2019-04-08T02:29:59Z</time>
      </trkpt>
      <trkpt lat="42.28811" lon="1.79201">
        <ele>1485.723</ele>
        <time>2019-04-08T02:30:00Z</time>
      </trkpt>
      <trkpt lat="42.28811" lon="1.79203">
        <ele>1485.637</ele>
        <time>2019-04-08T02:30:00Z</time>
      </trkpt>
      <trkpt lat="42.28811" lon="1.79206">
        <ele>1485.396</ele>
        <time>2019-04-08T02:30:01Z</time>
      </trkpt>
      <trkpt lat="42.28811" lon="1.79207">
        <ele>1484.638</ele>
        <time>2019-04-08T02:30:02Z</time>
      </trkpt>
      <trkpt lat="42.28811" lon="1.79209">
        <ele>1484.278</ele>
        <time>2019-04-08T02:30:02Z</time>
      </trkpt>
      <trkpt lat="42.28811" lon="1.79216">
        <ele>1483.133</ele>
        <time>2019-04-08T02:30:04Z</time>
      </trkpt>
      <trkpt lat="42.28812" lon="1.7922">
        <ele>1482.026</ele>
        <time>2019-04-08T02:30:05Z</time>
      </trkpt>
      <trkpt lat="42.28813" lon="1.79221">
        <ele>1481.608</ele>
        <time>2019-04-08T02:30:06Z</time>
      </trkpt>
      <trkpt lat="42.28812" lon="1.79223">
        <ele>1481.36</ele>
        <time>2019-04-08T02:30:06Z</time>
      </trkpt>
      <trkpt lat="42.2881" lon="1.79224">
        <ele>1481.022</ele>
        <time>2019-04-08T02:30:07Z</time>
      </trkpt>
      <trkpt lat="42.28809" lon="1.79224">
        <ele>1480.587</ele>
        <time>2019-04-08T02:30:08Z</time>
      </trkpt>
      <trkpt lat="42.28804" lon="1.79224">
        <ele>1480.128</ele>
        <time>2019-04-08T02:30:10Z</time>
      </trkpt>
      <trkpt lat="42.28803" lon="1.79223">
        <ele>1479.628</ele>
        <time>2019-04-08T02:30:10Z</time>
      </trkpt>
      <trkpt lat="42.28801" lon="1.79221">
        <ele>1479.232</ele>
        <time>2019-04-08T02:30:11Z</time>
      </trkpt>
      <trkpt lat="42.28799" lon="1.79218">
        <ele>1478.731</ele>
        <time>2019-04-08T02:30:12Z</time>
      </trkpt>
      <trkpt lat="42.28798" lon="1.79216">
        <ele>1478.693</ele>
        <time>2019-04-08T02:30:13Z</time>
      </trkpt>
      <trkpt lat="42.28796" lon="1.79214">
        <ele>1477.621</ele>
        <time>2019-04-08T02:30:14Z</time>
      </trkpt>
      <trkpt lat="42.28796" lon="1.79213">
        <ele>1477.241</ele>
        <time>2019-04-08T02:30:15Z</time>
      </trkpt>
      <trkpt lat="42.28795" lon="1.79211">
        <ele>1476.805</ele>
        <time>2019-04-08T02:30:15Z</time>
      </trkpt>
      <trkpt lat="42.28792" lon="1.79207">
        <ele>1475.408</ele>
        <time>2019-04-08T02:30:17Z</time>
      </trkpt>
      <trkpt lat="42.28791" lon="1.79206">
        <ele>1475.025</ele>
        <time>2019-04-08T02:30:17Z</time>
      </trkpt>
      <trkpt lat="42.2879" lon="1.79206">
        <ele>1474.317</ele>
        <time>2019-04-08T02:30:18Z</time>
      </trkpt>
      <trkpt lat="42.28788" lon="1.79206">
        <ele>1474.112</ele>
        <time>2019-04-08T02:30:18Z</time>
      </trkpt>
      <trkpt lat="42.28785" lon="1.79202">
        <ele>1473.053</ele>
        <time>2019-04-08T02:30:20Z</time>
      </trkpt>
      <trkpt lat="42.28783" lon="1.792">
        <ele>1472.543</ele>
        <time>2019-04-08T02:30:21Z</time>
      </trkpt>
      <trkpt lat="42.28781" lon="1.79198">
        <ele>1471.897</ele>
        <time>2019-04-08T02:30:22Z</time>
      </trkpt>
      <trkpt lat="42.28778" lon="1.79194">
        <ele>1470.336</ele>
        <time>2019-04-08T02:30:24Z</time>
      </trkpt>
      <trkpt lat="42.28778" lon="1.79193">
        <ele>1470.048</ele>
        <time>2019-04-08T02:30:24Z</time>
      </trkpt>
      <trkpt lat="42.28777" lon="1.79191">
        <ele>1469.674</ele>
        <time>2019-04-08T02:30:25Z</time>
      </trkpt>
      <trkpt lat="42.28777" lon="1.7919">
        <ele>1469.356</ele>
        <time>2019-04-08T02:30:25Z</time>
      </trkpt>
      <trkpt lat="42.28776" lon="1.79188">
        <ele>1469.121</ele>
        <time>2019-04-08T02:30:26Z</time>
      </trkpt>
      <trkpt lat="42.28774" lon="1.79183">
        <ele>1467.808</ele>
        <time>2019-04-08T02:30:27Z</time>
      </trkpt>
      <trkpt lat="42.28773" lon="1.79183">
        <ele>1467.69</ele>
        <time>2019-04-08T02:30:28Z</time>
      </trkpt>
      <trkpt lat="42.2877" lon="1.79181">
        <ele>1466.542</ele>
        <time>2019-04-08T02:30:29Z</time>
      </trkpt>
      <trkpt lat="42.28769" lon="1.79179">
        <ele>1465.957</ele>
        <time>2019-04-08T02:30:30Z</time>
      </trkpt>
      <trkpt lat="42.28769" lon="1.79178">
        <ele>1465.678</ele>
        <time>2019-04-08T02:30:30Z</time>
      </trkpt>
      <trkpt lat="42.28768" lon="1.79176">
        <ele>1465.228</ele>
        <time>2019-04-08T02:30:30Z</time>
      </trkpt>
      <trkpt lat="42.28766" lon="1.79172">
        <ele>1464.742</ele>
        <time>2019-04-08T02:30:32Z</time>
      </trkpt>
      <trkpt lat="42.28764" lon="1.79171">
        <ele>1464.271</ele>
        <time>2019-04-08T02:30:33Z</time>
      </trkpt>
      <trkpt lat="42.28762" lon="1.79168">
        <ele>1463.893</ele>
        <time>2019-04-08T02:30:34Z</time>
      </trkpt>
      <trkpt lat="42.28761" lon="1.79167">
        <ele>1463.686</ele>
        <time>2019-04-08T02:30:35Z</time>
      </trkpt>
      <trkpt lat="42.28759" lon="1.79165">
        <ele>1462.36</ele>
        <time>2019-04-08T02:30:35Z</time>
      </trkpt>
      <trkpt lat="42.28758" lon="1.79163">
        <ele>1461.626</ele>
        <time>2019-04-08T02:30:36Z</time>
      </trkpt>
      <trkpt lat="42.28757" lon="1.79162">
        <ele>1461.108</ele>
        <time>2019-04-08T02:30:37Z</time>
      </trkpt>
      <trkpt lat="42.28756" lon="1.79161">
        <ele>1461.091</ele>
        <time>2019-04-08T02:30:37Z</time>
      </trkpt>
      <trkpt lat="42.28755" lon="1.7916">
        <ele>1460.693</ele>
        <time>2019-04-08T02:30:38Z</time>
      </trkpt>
      <trkpt lat="42.28755" lon="1.79158">
        <ele>1460.278</ele>
        <time>2019-04-08T02:30:38Z</time>
      </trkpt>
      <trkpt lat="42.28755" lon="1.79158">
        <ele>1460.069</ele>
        <time>2019-04-08T02:30:39Z</time>
      </trkpt>
      <trkpt lat="42.28755" lon="1.7916">
        <ele>1459.619</ele>
        <time>2019-04-08T02:30:39Z</time>
      </trkpt>
      <trkpt lat="42.28755" lon="1.79162">
        <ele>1459.463</ele>
        <time>2019-04-08T02:30:40Z</time>
      </trkpt>
      <trkpt lat="42.28755" lon="1.79163">
        <ele>1458.642</ele>
        <time>2019-04-08T02:30:40Z</time>
      </trkpt>
      <trkpt lat="42.28755" lon="1.79166">
        <ele>1458.094</ele>
        <time>2019-04-08T02:30:41Z</time>
      </trkpt>
      <trkpt lat="42.28755" lon="1.79167">
        <ele>1457.672</ele>
        <time>2019-04-08T02:30:41Z</time>
      </trkpt>
      <trkpt lat="42.28754" lon="1.79169">
        <ele>1457.213</ele>
        <time>2019-04-08T02:30:42Z</time>
      </trkpt>
      <trkpt lat="42.28754" lon="1.7917">
        <ele>1456.614</ele>
        <time>2019-04-08T02:30:42Z</time>
      </trkpt>
      <trkpt lat="42.28753" lon="1.79171">
        <ele>1456.308</ele>
        <time>2019-04-08T02:30:43Z</time>
      </trkpt>
      <trkpt lat="42.28752" lon="1.79173">
        <ele>1456.17</ele>
        <time>2019-04-08T02:30:43Z</time>
      </trkpt>
      <trkpt lat="42.28752" lon="1.79174">
        <ele>1455.652</ele>
        <time>2019-04-08T02:30:44Z</time>
      </trkpt>
      <trkpt lat="42.28751" lon="1.79175">
        <ele>1455.457</ele>
        <time>2019-04-08T02:30:44Z</time>
      </trkpt>
      <trkpt lat="42.2875" lon="1.79177">
        <ele>1454.398</ele>
        <time>2019-04-08T02:30:45Z</time>
      </trkpt>
      <trkpt lat="42.2875" lon="1.79178">
        <ele>1453.788</ele>
        <time>2019-04-08T02:30:45Z</time>
      </trkpt>
      <trkpt lat="42.28751" lon="1.79181">
        <ele>1452.952</ele>
        <time>2019-04-08T02:30:46Z</time>
      </trkpt>
      <trkpt lat="42.28751" lon="1.79182">
        <ele>1452.711</ele>
        <time>2019-04-08T02:30:46Z</time>
      </trkpt>
      <trkpt lat="42.2875" lon="1.79183">
        <ele>1452.063</ele>
        <time>2019-04-08T02:30:47Z</time>
      </trkpt>
      <trkpt lat="42.2875" lon="1.79184">
        <ele>1451.632</ele>
        <time>2019-04-08T02:30:47Z</time>
      </trkpt>
      <trkpt lat="42.28749" lon="1.79185">
        <ele>1451.292</ele>
        <time>2019-04-08T02:30:47Z</time>
      </trkpt>
      <trkpt lat="42.28749" lon="1.79186">
        <ele>1451.011</ele>
        <time>2019-04-08T02:30:48Z</time>
      </trkpt>
      <trkpt lat="42.28749" lon="1.79187">
        <ele>1450.708</ele>
        <time>2019-04-08T02:30:48Z</time>
      </trkpt>
      <trkpt lat="42.28749" lon="1.79188">
        <ele>1450.316</ele>
        <time>2019-04-08T02:30:48Z</time>
      </trkpt>
      <trkpt lat="42.28749" lon="1.79189">
        <ele>1449.398</ele>
        <time>2019-04-08T02:30:49Z</time>
      </trkpt>
      <trkpt lat="42.28749" lon="1.79191">
        <ele>1448.543</ele>
        <time>2019-04-08T02:30:49Z</time>
      </trkpt>
      <trkpt lat="42.28749" lon="1.79192">
        <ele>1448.294</ele>
        <time>2019-04-08T02:30:49Z</time>
      </trkpt>
      <trkpt lat="42.28749" lon="1.79193">
        <ele>1447.294</ele>
        <time>2019-04-08T02:30:50Z</time>
      </trkpt>
      <trkpt lat="42.28748" lon="1.79194">
        <ele>1447.078</ele>
        <time>2019-04-08T02:30:50Z</time>
      </trkpt>
      <trkpt lat="42.28745" lon="1.79195">
        <ele>1446.167</ele>
        <time>2019-04-08T02:30:51Z</time>
      </trkpt>
      <trkpt lat="42.28744" lon="1.79195">
        <ele>1445.779</ele>
        <time>2019-04-08T02:30:52Z</time>
      </trkpt>
      <trkpt lat="42.28739" lon="1.79194">
        <ele>1444.565</ele>
        <time>2019-04-08T02:30:54Z</time>
      </trkpt>
      <trkpt lat="42.28736" lon="1.79194">
        <ele>1444.468</ele>
        <time>2019-04-08T02:30:55Z</time>
      </trkpt>
      <trkpt lat="42.28729" lon="1.79194">
        <ele>1443.814</ele>
        <time>2019-04-08T02:30:58Z</time>
      </trkpt>
      <trkpt lat="42.28727" lon="1.79194">
        <ele>1443.608</ele>
        <time>2019-04-08T02:30:59Z</time>
      </trkpt>
      <trkpt lat="42.28724" lon="1.79193">
        <ele>1442.069</ele>
        <time>2019-04-08T02:31:00Z</time>
      </trkpt>
      <trkpt lat="42.28723" lon="1.79192">
        <ele>1441.761</ele>
        <time>2019-04-08T02:31:01Z</time>
      </trkpt>
      <trkpt lat="42.28721" lon="1.7919">
        <ele>1440.936</ele>
        <time>2019-04-08T02:31:01Z</time>
      </trkpt>
      <trkpt lat="42.28721" lon="1.79189">
        <ele>1440.637</ele>
        <time>2019-04-08T02:31:02Z</time>
      </trkpt>
      <trkpt lat="42.2872" lon="1.79188">
        <ele>1439.297</ele>
        <time>2019-04-08T02:31:02Z</time>
      </trkpt>
      <trkpt lat="42.28718" lon="1.79181">
        <ele>1438.261</ele>
        <time>2019-04-08T02:31:04Z</time>
      </trkpt>
      <trkpt lat="42.28717" lon="1.79179">
        <ele>1437.86</ele>
        <time>2019-04-08T02:31:05Z</time>
      </trkpt>
      <trkpt lat="42.28716" lon="1.79176">
        <ele>1436.962</ele>
        <time>2019-04-08T02:31:06Z</time>
      </trkpt>
      <trkpt lat="42.28715" lon="1.79174">
        <ele>1435.683</ele>
        <time>2019-04-08T02:31:07Z</time>
      </trkpt>
      <trkpt lat="42.28714" lon="1.79172">
        <ele>1434.625</ele>
        <time>2019-04-08T02:31:08Z</time>
      </trkpt>
      <trkpt lat="42.28713" lon="1.79167">
        <ele>1433.717</ele>
        <time>2019-04-08T02:31:09Z</time>
      </trkpt>
      <trkpt lat="42.28713" lon="1.79166">
        <ele>1433.408</ele>
        <time>2019-04-08T02:31:09Z</time>
      </trkpt>
      <trkpt lat="42.28712" lon="1.79161">
        <ele>1432.341</ele>
        <time>2019-04-08T02:31:11Z</time>
      </trkpt>
      <trkpt lat="42.28712" lon="1.79157">
        <ele>1431.863</ele>
        <time>2019-04-08T02:31:12Z</time>
      </trkpt>
      <trkpt lat="42.28711" lon="1.79156">
        <ele>1431.248</ele>
        <time>2019-04-08T02:31:13Z</time>
      </trkpt>
      <trkpt lat="42.28709" lon="1.79154">
        <ele>1430.659</ele>
        <time>2019-04-08T02:31:13Z</time>
      </trkpt>
      <trkpt lat="42.28708" lon="1.79154">
        <ele>1430.159</ele>
        <time>2019-04-08T02:31:14Z</time>
      </trkpt>
      <trkpt lat="42.28704" lon="1.79147">
        <ele>1429.073</ele>
        <time>2019-04-08T02:31:16Z</time>
      </trkpt>
      <trkpt lat="42.28704" lon="1.79146">
        <ele>1428.652</ele>
        <time>2019-04-08T02:31:17Z</time>
      </trkpt>
      <trkpt lat="42.28701" lon="1.79144">
        <ele>1427.944</ele>
        <time>2019-04-08T02:31:18Z</time>
      </trkpt>
      <trkpt lat="42.28697" lon="1.79142">
        <ele>1426.888</ele>
        <time>2019-04-08T02:31:20Z</time>
      </trkpt>
      <trkpt lat="42.28692" lon="1.7914">
        <ele>1425.624</ele>
        <time>2019-04-08T02:31:22Z</time>
      </trkpt>
      <trkpt lat="42.28689" lon="1.79139">
        <ele>1424.226</ele>
        <time>2019-04-08T02:31:23Z</time>
      </trkpt>
      <trkpt lat="42.28687" lon="1.79138">
        <ele>1423.708</ele>
        <time>2019-04-08T02:31:24Z</time>
      </trkpt>
      <trkpt lat="42.28686" lon="1.79138">
        <ele>1423.211</ele>
        <time>2019-04-08T02:31:24Z</time>
      </trkpt>
      <trkpt lat="42.28685" lon="1.79138">
        <ele>1423.023</ele>
        <time>2019-04-08T02:31:25Z</time>
      </trkpt>
      <trkpt lat="42.28681" lon="1.79135">
        <ele>1422.068</ele>
        <time>2019-04-08T02:31:26Z</time>
      </trkpt>
      <trkpt lat="42.2868" lon="1.79134">
        <ele>1422.079</ele>
        <time>2019-04-08T02:31:27Z</time>
      </trkpt>
      <trkpt lat="42.28679" lon="1.79134">
        <ele>1422.129</ele>
        <time>2019-04-08T02:31:27Z</time>
      </trkpt>
      <trkpt lat="42.28677" lon="1.79131">
        <ele>1421.283</ele>
        <time>2019-04-08T02:31:28Z</time>
      </trkpt>
      <trkpt lat="42.28677" lon="1.7913">
        <ele>1420.732</ele>
        <time>2019-04-08T02:31:29Z</time>
      </trkpt>
      <trkpt lat="42.28676" lon="1.79128">
        <ele>1420.294</ele>
        <time>2019-04-08T02:31:29Z</time>
      </trkpt>
      <trkpt lat="42.28675" lon="1.79126">
        <ele>1419.839</ele>
        <time>2019-04-08T02:31:30Z</time>
      </trkpt>
      <trkpt lat="42.28674" lon="1.79123">
        <ele>1419.801</ele>
        <time>2019-04-08T02:31:31Z</time>
      </trkpt>
      <trkpt lat="42.28672" lon="1.79119">
        <ele>1419.321</ele>
        <time>2019-04-08T02:31:32Z</time>
      </trkpt>
      <trkpt lat="42.2867" lon="1.79118">
        <ele>1419.208</ele>
        <time>2019-04-08T02:31:33Z</time>
      </trkpt>
      <trkpt lat="42.28668" lon="1.79116">
        <ele>1419.146</ele>
        <time>2019-04-08T02:31:34Z</time>
      </trkpt>
      <trkpt lat="42.28667" lon="1.79116">
        <ele>1419.148</ele>
        <time>2019-04-08T02:31:35Z</time>
      </trkpt>
      <trkpt lat="42.28666" lon="1.79115">
        <ele>1419.123</ele>
        <time>2019-04-08T02:31:35Z</time>
      </trkpt>
      <trkpt lat="42.28665" lon="1.79115">
        <ele>1419.154</ele>
        <time>2019-04-08T02:31:35Z</time>
      </trkpt>
      <trkpt lat="42.28662" lon="1.79115">
        <ele>1419.124</ele>
        <time>2019-04-08T02:31:37Z</time>
      </trkpt>
      <trkpt lat="42.2866" lon="1.79114">
        <ele>1418.178</ele>
        <time>2019-04-08T02:31:38Z</time>
      </trkpt>
      <trkpt lat="42.28658" lon="1.79113">
        <ele>1417.717</ele>
        <time>2019-04-08T02:31:39Z</time>
      </trkpt>
      <trkpt lat="42.28657" lon="1.79113">
        <ele>1417.279</ele>
        <time>2019-04-08T02:31:39Z</time>
      </trkpt>
      <trkpt lat="42.28657" lon="1.79113">
        <ele>1417.075</ele>
        <time>2019-04-08T02:31:39Z</time>
      </trkpt>
      <trkpt lat="42.28656" lon="1.79114">
        <ele>1416.828</ele>
        <time>2019-04-08T02:31:39Z</time>
      </trkpt>
      <trkpt lat="42.28656" lon="1.79115">
        <ele>1416.72</ele>
        <time>2019-04-08T02:31:40Z</time>
      </trkpt>
      <trkpt lat="42.28656" lon="1.79115">
        <ele>1416.408</ele>
        <time>2019-04-08T02:31:40Z</time>
      </trkpt>
      <trkpt lat="42.28656" lon="1.79116">
        <ele>1416.58</ele>
        <time>2019-04-08T02:31:40Z</time>
      </trkpt>
      <trkpt lat="42.28653" lon="1.79116">
        <ele>1416.362</ele>
        <time>2019-04-08T02:31:41Z</time>
      </trkpt>
      <trkpt lat="42.28652" lon="1.79116">
        <ele>1415.827</ele>
        <time>2019-04-08T02:31:41Z</time>
      </trkpt>
      <trkpt lat="42.28652" lon="1.79116">
        <ele>1415.518</ele>
        <time>2019-04-08T02:31:42Z</time>
      </trkpt>
      <trkpt lat="42.28651" lon="1.79116">
        <ele>1415.378</ele>
        <time>2019-04-08T02:31:42Z</time>
      </trkpt>
      <trkpt lat="42.28648" lon="1.79114">
        <ele>1414.592</ele>
        <time>2019-04-08T02:31:43Z</time>
      </trkpt>
      <trkpt lat="42.28647" lon="1.79113">
        <ele>1414.371</ele>
        <time>2019-04-08T02:31:44Z</time>
      </trkpt>
      <trkpt lat="42.28646" lon="1.79113">
        <ele>1414.353</ele>
        <time>2019-04-08T02:31:44Z</time>
      </trkpt>
      <trkpt lat="42.28645" lon="1.79113">
        <ele>1414.171</ele>
        <time>2019-04-08T02:31:44Z</time>
      </trkpt>
      <trkpt lat="42.28637" lon="1.79092">
        <ele>1413.241</ele>
        <time>2019-04-08T02:31:51Z</time>
      </trkpt>
      <trkpt lat="42.28635" lon="1.79093">
        <ele>1412.515</ele>
        <time>2019-04-08T02:31:52Z</time>
      </trkpt>
      <trkpt lat="42.28632" lon="1.79093">
        <ele>1412.308</ele>
        <time>2019-04-08T02:31:53Z</time>
      </trkpt>
      <trkpt lat="42.2863" lon="1.79092">
        <ele>1412.17</ele>
        <time>2019-04-08T02:31:54Z</time>
      </trkpt>
      <trkpt lat="42.28622" lon="1.79076">
        <ele>1411.582</ele>
        <time>2019-04-08T02:32:00Z</time>
      </trkpt>
      <trkpt lat="42.28617" lon="1.79059">
        <ele>1411.377</ele>
        <time>2019-04-08T02:32:05Z</time>
      </trkpt>
      <trkpt lat="42.28608" lon="1.79032">
        <ele>1410.158</ele>
        <time>2019-04-08T02:32:14Z</time>
      </trkpt>
      <trkpt lat="42.28605" lon="1.79025">
        <ele>1410.018</ele>
        <time>2019-04-08T02:32:16Z</time>
      </trkpt>
      <trkpt lat="42.28604" lon="1.79019">
        <ele>1409.752</ele>
        <time>2019-04-08T02:32:18Z</time>
      </trkpt>
      <trkpt lat="42.28601" lon="1.79014">
        <ele>1409.761</ele>
        <time>2019-04-08T02:32:20Z</time>
      </trkpt>
      <trkpt lat="42.28601" lon="1.79015">
        <ele>1409.153</ele>
        <time>2019-04-08T02:32:20Z</time>
      </trkpt>
      <trkpt lat="42.28598" lon="1.79014">
        <ele>1408.971</ele>
        <time>2019-04-08T02:32:22Z</time>
      </trkpt>
      <trkpt lat="42.28614" lon="1.79049">
        <ele>1408.441</ele>
        <time>2019-04-08T02:32:34Z</time>
      </trkpt>
      <trkpt lat="42.28614" lon="1.79049">
        <ele>1408.215</ele>
        <time>2019-04-08T02:32:34Z</time>
      </trkpt>
      <trkpt lat="42.28614" lon="1.79049">
        <ele>1407.908</ele>
        <time>2019-04-08T02:32:34Z</time>
      </trkpt>
      <trkpt lat="42.28618" lon="1.79056">
        <ele>1407.21</ele>
        <time>2019-04-08T02:32:37Z</time>
      </trkpt>
      <trkpt lat="42.28617" lon="1.79056">
        <ele>1406.782</ele>
        <time>2019-04-08T02:32:37Z</time>
      </trkpt>
      <trkpt lat="42.28616" lon="1.79056">
        <ele>1406.797</ele>
        <time>2019-04-08T02:32:37Z</time>
      </trkpt>
      <trkpt lat="42.28616" lon="1.79055">
        <ele>1405.558</ele>
        <time>2019-04-08T02:32:37Z</time>
      </trkpt>
      <trkpt lat="42.28617" lon="1.79055">
        <ele>1405.278</ele>
        <time>2019-04-08T02:32:38Z</time>
      </trkpt>
      <trkpt lat="42.28617" lon="1.79054">
        <ele>1404.692</ele>
        <time>2019-04-08T02:32:38Z</time>
      </trkpt>
      <trkpt lat="42.28618" lon="1.79054">
        <ele>1404.451</ele>
        <time>2019-04-08T02:32:38Z</time>
      </trkpt>
      <trkpt lat="42.28619" lon="1.79053">
        <ele>1403.633</ele>
        <time>2019-04-08T02:32:39Z</time>
      </trkpt>
      <trkpt lat="42.28619" lon="1.79054">
        <ele>1402.935</ele>
        <time>2019-04-08T02:32:39Z</time>
      </trkpt>
      <trkpt lat="42.2862" lon="1.79054">
        <ele>1402.686</ele>
        <time>2019-04-08T02:32:39Z</time>
      </trkpt>
      <trkpt lat="42.28621" lon="1.79054">
        <ele>1402.214</ele>
        <time>2019-04-08T02:32:39Z</time>
      </trkpt>
      <trkpt lat="42.28622" lon="1.79054">
        <ele>1402.008</ele>
        <time>2019-04-08T02:32:40Z</time>
      </trkpt>
      <trkpt lat="42.28622" lon="1.79055">
        <ele>1402.036</ele>
        <time>2019-04-08T02:32:40Z</time>
      </trkpt>
      <trkpt lat="42.28622" lon="1.79055">
        <ele>1402.048</ele>
        <time>2019-04-08T02:32:40Z</time>
      </trkpt>
      <trkpt lat="42.28622" lon="1.79055">
        <ele>1401.913</ele>
        <time>2019-04-08T02:32:40Z</time>
      </trkpt>
      <trkpt lat="42.28621" lon="1.79056">
        <ele>1401.814</ele>
        <time>2019-04-08T02:32:41Z</time>
      </trkpt>
      <trkpt lat="42.28623" lon="1.79056">
        <ele>1401.164</ele>
        <time>2019-04-08T02:32:42Z</time>
      </trkpt>
      <trkpt lat="42.28623" lon="1.79057">
        <ele>1401.448</ele>
        <time>2019-04-08T02:32:42Z</time>
      </trkpt>
      <trkpt lat="42.28623" lon="1.79057">
        <ele>1401.227</ele>
        <time>2019-04-08T02:32:42Z</time>
      </trkpt>
      <trkpt lat="42.28623" lon="1.79058">
        <ele>1401.219</ele>
        <time>2019-04-08T02:32:42Z</time>
      </trkpt>
      <trkpt lat="42.28623" lon="1.79058">
        <ele>1401.722</ele>
        <time>2019-04-08T02:32:43Z</time>
      </trkpt>
      <trkpt lat="42.28619" lon="1.79058">
        <ele>1402.362</ele>
        <time>2019-04-08T02:32:44Z</time>
      </trkpt>
      <trkpt lat="42.28619" lon="1.79058">
        <ele>1402.208</ele>
        <time>2019-04-08T02:32:44Z</time>
      </trkpt>
      <trkpt lat="42.28616" lon="1.79053">
        <ele>1401.608</ele>
        <time>2019-04-08T02:32:46Z</time>
      </trkpt>
      <trkpt lat="42.28615" lon="1.7905">
        <ele>1401.415</ele>
        <time>2019-04-08T02:32:47Z</time>
      </trkpt>
      <trkpt lat="42.28613" lon="1.7904">
        <ele>1400.777</ele>
        <time>2019-04-08T02:32:50Z</time>
      </trkpt>
      <trkpt lat="42.28611" lon="1.79034">
        <ele>1400.252</ele>
        <time>2019-04-08T02:32:52Z</time>
      </trkpt>
      <trkpt lat="42.28609" lon="1.79031">
        <ele>1399.853</ele>
        <time>2019-04-08T02:32:53Z</time>
      </trkpt>
      <trkpt lat="42.28607" lon="1.79029">
        <ele>1399.753</ele>
        <time>2019-04-08T02:32:54Z</time>
      </trkpt>
      <trkpt lat="42.28606" lon="1.79028">
        <ele>1399.927</ele>
        <time>2019-04-08T02:32:55Z</time>
      </trkpt>
      <trkpt lat="42.28604" lon="1.79028">
        <ele>1399.756</ele>
        <time>2019-04-08T02:32:55Z</time>
      </trkpt>
      <trkpt lat="42.28603" lon="1.79027">
        <ele>1399.478</ele>
        <time>2019-04-08T02:32:56Z</time>
      </trkpt>
      <trkpt lat="42.286" lon="1.79026">
        <ele>1398.438</ele>
        <time>2019-04-08T02:32:57Z</time>
      </trkpt>
      <trkpt lat="42.28597" lon="1.79026">
        <ele>1398.17</ele>
        <time>2019-04-08T02:32:58Z</time>
      </trkpt>
      <trkpt lat="42.28595" lon="1.79026">
        <ele>1397.217</ele>
        <time>2019-04-08T02:32:59Z</time>
      </trkpt>
      <trkpt lat="42.28594" lon="1.79025">
        <ele>1396.208</ele>
        <time>2019-04-08T02:33:00Z</time>
      </trkpt>
      <trkpt lat="42.28593" lon="1.79025">
        <ele>1395.936</ele>
        <time>2019-04-08T02:33:00Z</time>
      </trkpt>
      <trkpt lat="42.28593" lon="1.79025">
        <ele>1395.818</ele>
        <time>2019-04-08T02:33:00Z</time>
      </trkpt>
      <trkpt lat="42.28592" lon="1.79025">
        <ele>1395.223</ele>
        <time>2019-04-08T02:33:01Z</time>
      </trkpt>
      <trkpt lat="42.28592" lon="1.79026">
        <ele>1394.964</ele>
        <time>2019-04-08T02:33:01Z</time>
      </trkpt>
      <trkpt lat="42.28591" lon="1.79027">
        <ele>1394.234</ele>
        <time>2019-04-08T02:33:01Z</time>
      </trkpt>
      <trkpt lat="42.28591" lon="1.79028">
        <ele>1394.028</ele>
        <time>2019-04-08T02:33:02Z</time>
      </trkpt>
      <trkpt lat="42.2859" lon="1.79034">
        <ele>1393.247</ele>
        <time>2019-04-08T02:33:03Z</time>
      </trkpt>
      <trkpt lat="42.28589" lon="1.79036">
        <ele>1393.149</ele>
        <time>2019-04-08T02:33:04Z</time>
      </trkpt>
      <trkpt lat="42.28588" lon="1.79038">
        <ele>1392.937</ele>
        <time>2019-04-08T02:33:05Z</time>
      </trkpt>
      <trkpt lat="42.28587" lon="1.79038">
        <ele>1392.849</ele>
        <time>2019-04-08T02:33:05Z</time>
      </trkpt>
      <trkpt lat="42.28586" lon="1.79037">
        <ele>1392.113</ele>
        <time>2019-04-08T02:33:06Z</time>
      </trkpt>
      <trkpt lat="42.28585" lon="1.79036">
        <ele>1391.708</ele>
        <time>2019-04-08T02:33:06Z</time>
      </trkpt>
      <trkpt lat="42.28584" lon="1.79036">
        <ele>1391.246</ele>
        <time>2019-04-08T02:33:06Z</time>
      </trkpt>
      <trkpt lat="42.28582" lon="1.79036">
        <ele>1390.698</ele>
        <time>2019-04-08T02:33:07Z</time>
      </trkpt>
      <trkpt lat="42.2858" lon="1.79036">
        <ele>1390.233</ele>
        <time>2019-04-08T02:33:08Z</time>
      </trkpt>
      <trkpt lat="42.28576" lon="1.79033">
        <ele>1389.964</ele>
        <time>2019-04-08T02:33:10Z</time>
      </trkpt>
      <trkpt lat="42.28574" lon="1.79032">
        <ele>1389.644</ele>
        <time>2019-04-08T02:33:10Z</time>
      </trkpt>
      <trkpt lat="42.28572" lon="1.79031">
        <ele>1389.058</ele>
        <time>2019-04-08T02:33:12Z</time>
      </trkpt>
      <trkpt lat="42.2857" lon="1.79031">
        <ele>1388.347</ele>
        <time>2019-04-08T02:33:12Z</time>
      </trkpt>
      <trkpt lat="42.28568" lon="1.79029">
        <ele>1387.799</ele>
        <time>2019-04-08T02:33:13Z</time>
      </trkpt>
      <trkpt lat="42.28567" lon="1.79029">
        <ele>1387.155</ele>
        <time>2019-04-08T02:33:14Z</time>
      </trkpt>
      <trkpt lat="42.28565" lon="1.79028">
        <ele>1386.407</ele>
        <time>2019-04-08T02:33:15Z</time>
      </trkpt>
      <trkpt lat="42.28564" lon="1.79027">
        <ele>1386.317</ele>
        <time>2019-04-08T02:33:15Z</time>
      </trkpt>
      <trkpt lat="42.28565" lon="1.79027">
        <ele>1385.708</ele>
        <time>2019-04-08T02:33:15Z</time>
      </trkpt>
      <trkpt lat="42.28563" lon="1.79026">
        <ele>1385.028</ele>
        <time>2019-04-08T02:33:16Z</time>
      </trkpt>
      <trkpt lat="42.28563" lon="1.79025">
        <ele>1384.78</ele>
        <time>2019-04-08T02:33:16Z</time>
      </trkpt>
      <trkpt lat="42.28563" lon="1.79024">
        <ele>1384.085</ele>
        <time>2019-04-08T02:33:16Z</time>
      </trkpt>
      <trkpt lat="42.28562" lon="1.79024">
        <ele>1383.656</ele>
        <time>2019-04-08T02:33:17Z</time>
      </trkpt>
      <trkpt lat="42.28562" lon="1.79024">
        <ele>1383.316</ele>
        <time>2019-04-08T02:33:17Z</time>
      </trkpt>
      <trkpt lat="42.28562" lon="1.79024">
        <ele>1383.05</ele>
        <time>2019-04-08T02:33:17Z</time>
      </trkpt>
      <trkpt lat="42.28561" lon="1.79024">
        <ele>1382.689</ele>
        <time>2019-04-08T02:33:17Z</time>
      </trkpt>
      <trkpt lat="42.28561" lon="1.79023">
        <ele>1381.321</ele>
        <time>2019-04-08T02:33:17Z</time>
      </trkpt>
      <trkpt lat="42.28561" lon="1.79021">
        <ele>1380.221</ele>
        <time>2019-04-08T02:33:18Z</time>
      </trkpt>
      <trkpt lat="42.28562" lon="1.79019">
        <ele>1379.941</ele>
        <time>2019-04-08T02:33:18Z</time>
      </trkpt>
      <trkpt lat="42.28562" lon="1.7902">
        <ele>1379.905</ele>
        <time>2019-04-08T02:33:19Z</time>
      </trkpt>
      <trkpt lat="42.28555" lon="1.79021">
        <ele>1379.708</ele>
        <time>2019-04-08T02:33:22Z</time>
      </trkpt>
      <trkpt lat="42.2855" lon="1.79023">
        <ele>1380.125</ele>
        <time>2019-04-08T02:33:24Z</time>
      </trkpt>
      <trkpt lat="42.2855" lon="1.79023">
        <ele>1380.037</ele>
        <time>2019-04-08T02:33:24Z</time>
      </trkpt>
      <trkpt lat="42.28547" lon="1.79029">
        <ele>1379.362</ele>
        <time>2019-04-08T02:33:26Z</time>
      </trkpt>
      <trkpt lat="42.28547" lon="1.7903">
        <ele>1379.163</ele>
        <time>2019-04-08T02:33:26Z</time>
      </trkpt>
      <trkpt lat="42.28544" lon="1.79033">
        <ele>1377.693</ele>
        <time>2019-04-08T02:33:28Z</time>
      </trkpt>
      <trkpt lat="42.28543" lon="1.79035">
        <ele>1377.117</ele>
        <time>2019-04-08T02:33:28Z</time>
      </trkpt>
      <trkpt lat="42.28542" lon="1.79035">
        <ele>1376.786</ele>
        <time>2019-04-08T02:33:29Z</time>
      </trkpt>
      <trkpt lat="42.28537" lon="1.79037">
        <ele>1375.448</ele>
        <time>2019-04-08T02:33:31Z</time>
      </trkpt>
      <trkpt lat="42.28536" lon="1.79038">
        <ele>1375.036</ele>
        <time>2019-04-08T02:33:31Z</time>
      </trkpt>
      <trkpt lat="42.28534" lon="1.79037">
        <ele>1374.317</ele>
        <time>2019-04-08T02:33:32Z</time>
      </trkpt>
      <trkpt lat="42.28532" lon="1.79036">
        <ele>1373.018</ele>
        <time>2019-04-08T02:33:33Z</time>
      </trkpt>
      <trkpt lat="42.28532" lon="1.79035">
        <ele>1372.708</ele>
        <time>2019-04-08T02:33:33Z</time>
      </trkpt>
      <trkpt lat="42.28531" lon="1.79035">
        <ele>1371.826</ele>
        <time>2019-04-08T02:33:33Z</time>
      </trkpt>
      <trkpt lat="42.2853" lon="1.79035">
        <ele>1371.248</ele>
        <time>2019-04-08T02:33:34Z</time>
      </trkpt>
      <trkpt lat="42.28529" lon="1.79037">
        <ele>1371.033</ele>
        <time>2019-04-08T02:33:34Z</time>
      </trkpt>
      <trkpt lat="42.28528" lon="1.79038">
        <ele>1370.524</ele>
        <time>2019-04-08T02:33:35Z</time>
      </trkpt>
      <trkpt lat="42.28527" lon="1.7904">
        <ele>1369.454</ele>
        <time>2019-04-08T02:33:35Z</time>
      </trkpt>
      <trkpt lat="42.28526" lon="1.79041">
        <ele>1368.918</ele>
        <time>2019-04-08T02:33:36Z</time>
      </trkpt>
      <trkpt lat="42.28524" lon="1.79043">
        <ele>1368.397</ele>
        <time>2019-04-08T02:33:37Z</time>
      </trkpt>
      <trkpt lat="42.28524" lon="1.79044">
        <ele>1367.799</ele>
        <time>2019-04-08T02:33:37Z</time>
      </trkpt>
      <trkpt lat="42.28523" lon="1.79045">
        <ele>1367.457</ele>
        <time>2019-04-08T02:33:38Z</time>
      </trkpt>
      <trkpt lat="42.28523" lon="1.79045">
        <ele>1366.8</ele>
        <time>2019-04-08T02:33:38Z</time>
      </trkpt>
      <trkpt lat="42.28521" lon="1.79046">
        <ele>1365.52</ele>
        <time>2019-04-08T02:33:39Z</time>
      </trkpt>
      <trkpt lat="42.28523" lon="1.79072">
        <ele>1365.508</ele>
        <time>2019-04-08T02:33:46Z</time>
      </trkpt>
      <trkpt lat="42.28523" lon="1.79079">
        <ele>1365.228</ele>
        <time>2019-04-08T02:33:49Z</time>
      </trkpt>
      <trkpt lat="42.28528" lon="1.79098">
        <ele>1365.19</ele>
        <time>2019-04-08T02:33:54Z</time>
      </trkpt>
      <trkpt lat="42.28537" lon="1.79094">
        <ele>1364.565</ele>
        <time>2019-04-08T02:33:58Z</time>
      </trkpt>
      <trkpt lat="42.28536" lon="1.79093">
        <ele>1364.396</ele>
        <time>2019-04-08T02:33:58Z</time>
      </trkpt>
      <trkpt lat="42.28537" lon="1.79092">
        <ele>1364.476</ele>
        <time>2019-04-08T02:33:58Z</time>
      </trkpt>
      <trkpt lat="42.2854" lon="1.79094">
        <ele>1364.15</ele>
        <time>2019-04-08T02:34:00Z</time>
      </trkpt>
      <trkpt lat="42.28534" lon="1.79097">
        <ele>1363.039</ele>
        <time>2019-04-08T02:34:02Z</time>
      </trkpt>
      <trkpt lat="42.28529" lon="1.79096">
        <ele>1362.211</ele>
        <time>2019-04-08T02:34:05Z</time>
      </trkpt>
      <trkpt lat="42.28527" lon="1.79095">
        <ele>1362.182</ele>
        <time>2019-04-08T02:34:05Z</time>
      </trkpt>
      <trkpt lat="42.28525" lon="1.79096">
        <ele>1361.743</ele>
        <time>2019-04-08T02:34:06Z</time>
      </trkpt>
      <trkpt lat="42.28519" lon="1.791">
        <ele>1360.817</ele>
        <time>2019-04-08T02:34:09Z</time>
      </trkpt>
      <trkpt lat="42.28518" lon="1.791">
        <ele>1360.308</ele>
        <time>2019-04-08T02:34:09Z</time>
      </trkpt>
      <trkpt lat="42.28517" lon="1.79101">
        <ele>1360.091</ele>
        <time>2019-04-08T02:34:10Z</time>
      </trkpt>
      <trkpt lat="42.28517" lon="1.79102">
        <ele>1359.823</ele>
        <time>2019-04-08T02:34:10Z</time>
      </trkpt>
      <trkpt lat="42.28516" lon="1.79102">
        <ele>1359.598</ele>
        <time>2019-04-08T02:34:10Z</time>
      </trkpt>
      <trkpt lat="42.28516" lon="1.79104">
        <ele>1358.569</ele>
        <time>2019-04-08T02:34:11Z</time>
      </trkpt>
      <trkpt lat="42.28515" lon="1.79105">
        <ele>1358.059</ele>
        <time>2019-04-08T02:34:11Z</time>
      </trkpt>
      <trkpt lat="42.28515" lon="1.79105">
        <ele>1357.483</ele>
        <time>2019-04-08T02:34:11Z</time>
      </trkpt>
      <trkpt lat="42.28513" lon="1.79106">
        <ele>1356.382</ele>
        <time>2019-04-08T02:34:12Z</time>
      </trkpt>
      <trkpt lat="42.28512" lon="1.79106">
        <ele>1355.994</ele>
        <time>2019-04-08T02:34:13Z</time>
      </trkpt>
      <trkpt lat="42.28507" lon="1.79104">
        <ele>1355.369</ele>
        <time>2019-04-08T02:34:15Z</time>
      </trkpt>
      <trkpt lat="42.28506" lon="1.79103">
        <ele>1355.004</ele>
        <time>2019-04-08T02:34:15Z</time>
      </trkpt>
      <trkpt lat="42.28502" lon="1.79101">
        <ele>1354.224</ele>
        <time>2019-04-08T02:34:17Z</time>
      </trkpt>
      <trkpt lat="42.28501" lon="1.79099">
        <ele>1353.708</ele>
        <time>2019-04-08T02:34:18Z</time>
      </trkpt>
      <trkpt lat="42.285" lon="1.79097">
        <ele>1353.359</ele>
        <time>2019-04-08T02:34:18Z</time>
      </trkpt>
      <trkpt lat="42.28497" lon="1.79092">
        <ele>1352.541</ele>
        <time>2019-04-08T02:34:20Z</time>
      </trkpt>
      <trkpt lat="42.28497" lon="1.79087">
        <ele>1351.976</ele>
        <time>2019-04-08T02:34:22Z</time>
      </trkpt>
      <trkpt lat="42.28496" lon="1.79086">
        <ele>1351.637</ele>
        <time>2019-04-08T02:34:22Z</time>
      </trkpt>
      <trkpt lat="42.28495" lon="1.79085">
        <ele>1350.957</ele>
        <time>2019-04-08T02:34:22Z</time>
      </trkpt>
      <trkpt lat="42.28493" lon="1.79084">
        <ele>1350.491</ele>
        <time>2019-04-08T02:34:23Z</time>
      </trkpt>
      <trkpt lat="42.28492" lon="1.79084">
        <ele>1350.03</ele>
        <time>2019-04-08T02:34:24Z</time>
      </trkpt>
      <trkpt lat="42.2849" lon="1.79083">
        <ele>1349.252</ele>
        <time>2019-04-08T02:34:25Z</time>
      </trkpt>
      <trkpt lat="42.28487" lon="1.79082">
        <ele>1348.851</ele>
        <time>2019-04-08T02:34:26Z</time>
      </trkpt>
      <trkpt lat="42.28483" lon="1.79081">
        <ele>1348.601</ele>
        <time>2019-04-08T02:34:27Z</time>
      </trkpt>
      <trkpt lat="42.28481" lon="1.79081">
        <ele>1348.111</ele>
        <time>2019-04-08T02:34:28Z</time>
      </trkpt>
      <trkpt lat="42.2848" lon="1.79081">
        <ele>1348.308</ele>
        <time>2019-04-08T02:34:28Z</time>
      </trkpt>
      <trkpt lat="42.2848" lon="1.79081">
        <ele>1348.018</ele>
        <time>2019-04-08T02:34:29Z</time>
      </trkpt>
      <trkpt lat="42.28478" lon="1.79078">
        <ele>1346.93</ele>
        <time>2019-04-08T02:34:30Z</time>
      </trkpt>
      <trkpt lat="42.28477" lon="1.79076">
        <ele>1345.785</ele>
        <time>2019-04-08T02:34:30Z</time>
      </trkpt>
      <trkpt lat="42.28475" lon="1.79075">
        <ele>1344.756</ele>
        <time>2019-04-08T02:34:31Z</time>
      </trkpt>
      <trkpt lat="42.28474" lon="1.79075">
        <ele>1344.246</ele>
        <time>2019-04-08T02:34:32Z</time>
      </trkpt>
      <trkpt lat="42.28472" lon="1.79075">
        <ele>1343.69</ele>
        <time>2019-04-08T02:34:32Z</time>
      </trkpt>
      <trkpt lat="42.28471" lon="1.79075">
        <ele>1343.669</ele>
        <time>2019-04-08T02:34:33Z</time>
      </trkpt>
      <trkpt lat="42.2847" lon="1.79075">
        <ele>1343.261</ele>
        <time>2019-04-08T02:34:33Z</time>
      </trkpt>
      <trkpt lat="42.28468" lon="1.79075">
        <ele>1342.342</ele>
        <time>2019-04-08T02:34:34Z</time>
      </trkpt>
      <trkpt lat="42.28468" lon="1.79075">
        <ele>1342.322</ele>
        <time>2019-04-08T02:34:34Z</time>
      </trkpt>
      <trkpt lat="42.28467" lon="1.79076">
        <ele>1341.814</ele>
        <time>2019-04-08T02:34:35Z</time>
      </trkpt>
      <trkpt lat="42.28467" lon="1.79078">
        <ele>1340.908</ele>
        <time>2019-04-08T02:34:35Z</time>
      </trkpt>
      <trkpt lat="42.28466" lon="1.7908">
        <ele>1339.977</ele>
        <time>2019-04-08T02:34:36Z</time>
      </trkpt>
      <trkpt lat="42.28465" lon="1.7908">
        <ele>1339.669</ele>
        <time>2019-04-08T02:34:36Z</time>
      </trkpt>
      <trkpt lat="42.28462" lon="1.79079">
        <ele>1338.794</ele>
        <time>2019-04-08T02:34:37Z</time>
      </trkpt>
      <trkpt lat="42.28462" lon="1.79078">
        <ele>1338.635</ele>
        <time>2019-04-08T02:34:38Z</time>
      </trkpt>
      <trkpt lat="42.28461" lon="1.79078">
        <ele>1338.195</ele>
        <time>2019-04-08T02:34:38Z</time>
      </trkpt>
      <trkpt lat="42.2846" lon="1.79079">
        <ele>1337.989</ele>
        <time>2019-04-08T02:34:38Z</time>
      </trkpt>
      <trkpt lat="42.28459" lon="1.79079">
        <ele>1337.188</ele>
        <time>2019-04-08T02:34:39Z</time>
      </trkpt>
      <trkpt lat="42.28459" lon="1.79079">
        <ele>1336.72</ele>
        <time>2019-04-08T02:34:39Z</time>
      </trkpt>
      <trkpt lat="42.28458" lon="1.79079">
        <ele>1336.254</ele>
        <time>2019-04-08T02:34:39Z</time>
      </trkpt>
      <trkpt lat="42.28458" lon="1.79079">
        <ele>1336.056</ele>
        <time>2019-04-08T02:34:39Z</time>
      </trkpt>
      <trkpt lat="42.28458" lon="1.79077">
        <ele>1335.111</ele>
        <time>2019-04-08T02:34:40Z</time>
      </trkpt>
      <trkpt lat="42.28458" lon="1.79075">
        <ele>1334.108</ele>
        <time>2019-04-08T02:34:41Z</time>
      </trkpt>
      <trkpt lat="42.28459" lon="1.79071">
        <ele>1333.648</ele>
        <time>2019-04-08T02:34:42Z</time>
      </trkpt>
      <trkpt lat="42.28461" lon="1.79068">
        <ele>1333.13</ele>
        <time>2019-04-08T02:34:43Z</time>
      </trkpt>
      <trkpt lat="42.28461" lon="1.79067">
        <ele>1332.895</ele>
        <time>2019-04-08T02:34:43Z</time>
      </trkpt>
      <trkpt lat="42.28466" lon="1.79059">
        <ele>1332.756</ele>
        <time>2019-04-08T02:34:46Z</time>
      </trkpt>
      <trkpt lat="42.2847" lon="1.79055">
        <ele>1332.776</ele>
        <time>2019-04-08T02:34:48Z</time>
      </trkpt>
      <trkpt lat="42.2847" lon="1.79055">
        <ele>1333.28</ele>
        <time>2019-04-08T02:34:48Z</time>
      </trkpt>
      <trkpt lat="42.28469" lon="1.79056">
        <ele>1332.869</ele>
        <time>2019-04-08T02:34:48Z</time>
      </trkpt>
      <trkpt lat="42.28469" lon="1.79054">
        <ele>1332.631</ele>
        <time>2019-04-08T02:34:49Z</time>
      </trkpt>
      <trkpt lat="42.28478" lon="1.79045">
        <ele>1332.135</ele>
        <time>2019-04-08T02:34:53Z</time>
      </trkpt>
      <trkpt lat="42.28461" lon="1.79069">
        <ele>1331.386</ele>
        <time>2019-04-08T02:35:03Z</time>
      </trkpt>
      <trkpt lat="42.28456" lon="1.79068">
        <ele>1330.214</ele>
        <time>2019-04-08T02:35:05Z</time>
      </trkpt>
      <trkpt lat="42.28455" lon="1.79068">
        <ele>1330.008</ele>
        <time>2019-04-08T02:35:05Z</time>
      </trkpt>
      <trkpt lat="42.28455" lon="1.79073">
        <ele>1329.676</ele>
        <time>2019-04-08T02:35:07Z</time>
      </trkpt>
      <trkpt lat="42.28455" lon="1.79074">
        <ele>1329.418</ele>
        <time>2019-04-08T02:35:07Z</time>
      </trkpt>
      <trkpt lat="42.28453" lon="1.79082">
        <ele>1328.633</ele>
        <time>2019-04-08T02:35:10Z</time>
      </trkpt>
      <trkpt lat="42.28454" lon="1.79088">
        <ele>1328.184</ele>
        <time>2019-04-08T02:35:11Z</time>
      </trkpt>
      <trkpt lat="42.28455" lon="1.79089">
        <ele>1328.454</ele>
        <time>2019-04-08T02:35:12Z</time>
      </trkpt>
      <trkpt lat="42.28455" lon="1.79089">
        <ele>1328.248</ele>
        <time>2019-04-08T02:35:12Z</time>
      </trkpt>
      <trkpt lat="42.28455" lon="1.79089">
        <ele>1328.287</ele>
        <time>2019-04-08T02:35:12Z</time>
      </trkpt>
      <trkpt lat="42.28455" lon="1.7909">
        <ele>1328.119</ele>
        <time>2019-04-08T02:35:12Z</time>
      </trkpt>
      <trkpt lat="42.28455" lon="1.79091">
        <ele>1328.015</ele>
        <time>2019-04-08T02:35:12Z</time>
      </trkpt>
      <trkpt lat="42.28455" lon="1.79092">
        <ele>1328.065</ele>
        <time>2019-04-08T02:35:13Z</time>
      </trkpt>
      <trkpt lat="42.28455" lon="1.79093">
        <ele>1327.711</ele>
        <time>2019-04-08T02:35:13Z</time>
      </trkpt>
      <trkpt lat="42.28455" lon="1.79093">
        <ele>1327.608</ele>
        <time>2019-04-08T02:35:13Z</time>
      </trkpt>
      <trkpt lat="42.28455" lon="1.79093">
        <ele>1327.684</ele>
        <time>2019-04-08T02:35:13Z</time>
      </trkpt>
      <trkpt lat="42.28454" lon="1.79093">
        <ele>1327.776</ele>
        <time>2019-04-08T02:35:13Z</time>
      </trkpt>
      <trkpt lat="42.28455" lon="1.79093">
        <ele>1327.621</ele>
        <time>2019-04-08T02:35:13Z</time>
      </trkpt>
      <trkpt lat="42.28454" lon="1.79097">
        <ele>1327.682</ele>
        <time>2019-04-08T02:35:15Z</time>
      </trkpt>
      <trkpt lat="42.28453" lon="1.79098">
        <ele>1327.532</ele>
        <time>2019-04-08T02:35:15Z</time>
      </trkpt>
      <trkpt lat="42.28453" lon="1.79099">
        <ele>1327.136</ele>
        <time>2019-04-08T02:35:15Z</time>
      </trkpt>
      <trkpt lat="42.28453" lon="1.791">
        <ele>1326.955</ele>
        <time>2019-04-08T02:35:15Z</time>
      </trkpt>
      <trkpt lat="42.28452" lon="1.79101">
        <ele>1326.627</ele>
        <time>2019-04-08T02:35:16Z</time>
      </trkpt>
      <trkpt lat="42.28451" lon="1.79103">
        <ele>1326.222</ele>
        <time>2019-04-08T02:35:16Z</time>
      </trkpt>
      <trkpt lat="42.28451" lon="1.79107">
        <ele>1326.262</ele>
        <time>2019-04-08T02:35:18Z</time>
      </trkpt>
      <trkpt lat="42.28447" lon="1.7911">
        <ele>1326.008</ele>
        <time>2019-04-08T02:35:19Z</time>
      </trkpt>
      <trkpt lat="42.28446" lon="1.79111">
        <ele>1326.108</ele>
        <time>2019-04-08T02:35:20Z</time>
      </trkpt>
      <trkpt lat="42.28445" lon="1.79112">
        <ele>1325.885</ele>
        <time>2019-04-08T02:35:20Z</time>
      </trkpt>
      <trkpt lat="42.28445" lon="1.79111">
        <ele>1325.827</ele>
        <time>2019-04-08T02:35:21Z</time>
      </trkpt>
      <trkpt lat="42.28445" lon="1.7911">
        <ele>1325.792</ele>
        <time>2019-04-08T02:35:21Z</time>
      </trkpt>
      <trkpt lat="42.28442" lon="1.79106">
        <ele>1325.243</ele>
        <time>2019-04-08T02:35:22Z</time>
      </trkpt>
      <trkpt lat="42.28442" lon="1.79104">
        <ele>1325.283</ele>
        <time>2019-04-08T02:35:23Z</time>
      </trkpt>
      <trkpt lat="42.28437" lon="1.791">
        <ele>1324.737</ele>
        <time>2019-04-08T02:35:25Z</time>
      </trkpt>
      <trkpt lat="42.28433" lon="1.79101">
        <ele>1324.686</ele>
        <time>2019-04-08T02:35:27Z</time>
      </trkpt>
      <trkpt lat="42.28432" lon="1.79102">
        <ele>1324.748</ele>
        <time>2019-04-08T02:35:27Z</time>
      </trkpt>
      <trkpt lat="42.2843" lon="1.79104">
        <ele>1325.014</ele>
        <time>2019-04-08T02:35:28Z</time>
      </trkpt>
      <trkpt lat="42.28428" lon="1.79108">
        <ele>1324.954</ele>
        <time>2019-04-08T02:35:30Z</time>
      </trkpt>
      <trkpt lat="42.28428" lon="1.7911">
        <ele>1324.809</ele>
        <time>2019-04-08T02:35:30Z</time>
      </trkpt>
      <trkpt lat="42.2843" lon="1.7911">
        <ele>1324.908</ele>
        <time>2019-04-08T02:35:31Z</time>
      </trkpt>
      <trkpt lat="42.28431" lon="1.7911">
        <ele>1324.984</ele>
        <time>2019-04-08T02:35:32Z</time>
      </trkpt>
      <trkpt lat="42.28431" lon="1.79107">
        <ele>1325.576</ele>
        <time>2019-04-08T02:35:32Z</time>
      </trkpt>
      <trkpt lat="42.28431" lon="1.791">
        <ele>1325.531</ele>
        <time>2019-04-08T02:35:34Z</time>
      </trkpt>
      <trkpt lat="42.2843" lon="1.79096">
        <ele>1325.242</ele>
        <time>2019-04-08T02:35:36Z</time>
      </trkpt>
      <trkpt lat="42.28428" lon="1.79103">
        <ele>1325.382</ele>
        <time>2019-04-08T02:35:38Z</time>
      </trkpt>
      <trkpt lat="42.28429" lon="1.79104">
        <ele>1325.196</ele>
        <time>2019-04-08T02:35:38Z</time>
      </trkpt>
      <trkpt lat="42.28429" lon="1.79105">
        <ele>1325.245</ele>
        <time>2019-04-08T02:35:39Z</time>
      </trkpt>
      <trkpt lat="42.2843" lon="1.79106">
        <ele>1325.337</ele>
        <time>2019-04-08T02:35:39Z</time>
      </trkpt>
      <trkpt lat="42.28431" lon="1.79107">
        <ele>1325.586</ele>
        <time>2019-04-08T02:35:40Z</time>
      </trkpt>
      <trkpt lat="42.28431" lon="1.79107">
        <ele>1325.56</ele>
        <time>2019-04-08T02:35:40Z</time>
      </trkpt>
      <trkpt lat="42.28431" lon="1.79108">
        <ele>1325.626</ele>
        <time>2019-04-08T02:35:40Z</time>
      </trkpt>
      <trkpt lat="42.28431" lon="1.79105">
        <ele>1324.608</ele>
        <time>2019-04-08T02:35:41Z</time>
      </trkpt>
      <trkpt lat="42.28431" lon="1.79099">
        <ele>1323.521</ele>
        <time>2019-04-08T02:35:43Z</time>
      </trkpt>
      <trkpt lat="42.28431" lon="1.79096">
        <ele>1323.633</ele>
        <time>2019-04-08T02:35:44Z</time>
      </trkpt>
      <trkpt lat="42.28429" lon="1.79092">
        <ele>1322.858</ele>
        <time>2019-04-08T02:35:45Z</time>
      </trkpt>
      <trkpt lat="42.28426" lon="1.79087">
        <ele>1321.759</ele>
        <time>2019-04-08T02:35:47Z</time>
      </trkpt>
      <trkpt lat="42.28426" lon="1.79086">
        <ele>1321.649</ele>
        <time>2019-04-08T02:35:48Z</time>
      </trkpt>
      <trkpt lat="42.28425" lon="1.79085">
        <ele>1320.793</ele>
        <time>2019-04-08T02:35:48Z</time>
      </trkpt>
      <trkpt lat="42.28425" lon="1.79085">
        <ele>1320.492</ele>
        <time>2019-04-08T02:35:48Z</time>
      </trkpt>
      <trkpt lat="42.28425" lon="1.79086">
        <ele>1319.964</ele>
        <time>2019-04-08T02:35:48Z</time>
      </trkpt>
      <trkpt lat="42.28426" lon="1.79086">
        <ele>1319.359</ele>
        <time>2019-04-08T02:35:48Z</time>
      </trkpt>
      <trkpt lat="42.28426" lon="1.79085">
        <ele>1319.103</ele>
        <time>2019-04-08T02:35:49Z</time>
      </trkpt>
      <trkpt lat="42.28425" lon="1.79084">
        <ele>1318.623</ele>
        <time>2019-04-08T02:35:49Z</time>
      </trkpt>
      <trkpt lat="42.28424" lon="1.79084">
        <ele>1318.108</ele>
        <time>2019-04-08T02:35:50Z</time>
      </trkpt>
      <trkpt lat="42.28423" lon="1.79084">
        <ele>1318.168</ele>
        <time>2019-04-08T02:35:50Z</time>
      </trkpt>
      <trkpt lat="42.2842" lon="1.79082">
        <ele>1317.66</ele>
        <time>2019-04-08T02:35:51Z</time>
      </trkpt>
      <trkpt lat="42.28416" lon="1.79082">
        <ele>1317.145</ele>
        <time>2019-04-08T02:35:53Z</time>
      </trkpt>
      <trkpt lat="42.28415" lon="1.79082">
        <ele>1316.576</ele>
        <time>2019-04-08T02:35:53Z</time>
      </trkpt>
      <trkpt lat="42.28412" lon="1.79084">
        <ele>1316.256</ele>
        <time>2019-04-08T02:35:55Z</time>
      </trkpt>
      <trkpt lat="42.28411" lon="1.79083">
        <ele>1316.36</ele>
        <time>2019-04-08T02:35:55Z</time>
      </trkpt>
      <trkpt lat="42.2841" lon="1.79084">
        <ele>1316.079</ele>
        <time>2019-04-08T02:35:55Z</time>
      </trkpt>
      <trkpt lat="42.2841" lon="1.79085">
        <ele>1316.081</ele>
        <time>2019-04-08T02:35:56Z</time>
      </trkpt>
      <trkpt lat="42.28408" lon="1.79086">
        <ele>1315.737</ele>
        <time>2019-04-08T02:35:56Z</time>
      </trkpt>
      <trkpt lat="42.28403" lon="1.7909">
        <ele>1315.449</ele>
        <time>2019-04-08T02:35:59Z</time>
      </trkpt>
      <trkpt lat="42.28401" lon="1.79092">
        <ele>1315.713</ele>
        <time>2019-04-08T02:36:00Z</time>
      </trkpt>
      <trkpt lat="42.284" lon="1.79093">
        <ele>1315.708</ele>
        <time>2019-04-08T02:36:00Z</time>
      </trkpt>
      <trkpt lat="42.28398" lon="1.79095">
        <ele>1316.466</ele>
        <time>2019-04-08T02:36:01Z</time>
      </trkpt>
      <trkpt lat="42.28397" lon="1.79095">
        <ele>1316.398</ele>
        <time>2019-04-08T02:36:02Z</time>
      </trkpt>
      <trkpt lat="42.28396" lon="1.79095">
        <ele>1316.253</ele>
        <time>2019-04-08T02:36:02Z</time>
      </trkpt>
      <trkpt lat="42.28398" lon="1.79092">
        <ele>1316.294</ele>
        <time>2019-04-08T02:36:03Z</time>
      </trkpt>
      <trkpt lat="42.28397" lon="1.79093">
        <ele>1315.534</ele>
        <time>2019-04-08T02:36:04Z</time>
      </trkpt>
      <trkpt lat="42.28391" lon="1.79097">
        <ele>1314.798</ele>
        <time>2019-04-08T02:36:06Z</time>
      </trkpt>
      <trkpt lat="42.28368" lon="1.79054">
        <ele>1314.237</ele>
        <time>2019-04-08T02:36:22Z</time>
      </trkpt>
      <trkpt lat="42.28377" lon="1.79078">
        <ele>1313.669</ele>
        <time>2019-04-08T02:36:30Z</time>
      </trkpt>
      <trkpt lat="42.28295" lon="1.79033">
        <ele>1313.533</ele>
        <time>2019-04-08T02:37:05Z</time>
      </trkpt>
      <trkpt lat="42.28285" lon="1.79036">
        <ele>1313.423</ele>
        <time>2019-04-08T02:37:09Z</time>
      </trkpt>
      <trkpt lat="42.28255" lon="1.7903">
        <ele>1313.415</ele>
        <time>2019-04-08T02:37:22Z</time>
      </trkpt>
      <trkpt lat="42.28243" lon="1.79034">
        <ele>1312.608</ele>
        <time>2019-04-08T02:37:27Z</time>
      </trkpt>
      <trkpt lat="42.28235" lon="1.7903">
        <ele>1311.286</ele>
        <time>2019-04-08T02:37:30Z</time>
      </trkpt>
      <trkpt lat="42.28377" lon="1.79109">
        <ele>1310.198</ele>
        <time>2019-04-08T02:38:31Z</time>
      </trkpt>
      <trkpt lat="42.28378" lon="1.79109">
        <ele>1310.083</ele>
        <time>2019-04-08T02:38:31Z</time>
      </trkpt>
      <trkpt lat="42.28378" lon="1.79109">
        <ele>1309.944</ele>
        <time>2019-04-08T02:38:32Z</time>
      </trkpt>
      <trkpt lat="42.28378" lon="1.79106">
        <ele>1309.664</ele>
        <time>2019-04-08T02:38:32Z</time>
      </trkpt>
      <trkpt lat="42.28376" lon="1.79103">
        <ele>1308.968</ele>
        <time>2019-04-08T02:38:34Z</time>
      </trkpt>
      <trkpt lat="42.28375" lon="1.79102">
        <ele>1308.737</ele>
        <time>2019-04-08T02:38:34Z</time>
      </trkpt>
      <trkpt lat="42.28374" lon="1.791">
        <ele>1307.619</ele>
        <time>2019-04-08T02:38:35Z</time>
      </trkpt>
      <trkpt lat="42.28372" lon="1.79099">
        <ele>1307.289</ele>
        <time>2019-04-08T02:38:36Z</time>
      </trkpt>
      <trkpt lat="42.2837" lon="1.79098">
        <ele>1306.906</ele>
        <time>2019-04-08T02:38:36Z</time>
      </trkpt>
      <trkpt lat="42.28369" lon="1.79098">
        <ele>1305.526</ele>
        <time>2019-04-08T02:38:37Z</time>
      </trkpt>
      <trkpt lat="42.28348" lon="1.79069">
        <ele>1304.208</ele>
        <time>2019-04-08T02:38:49Z</time>
      </trkpt>
      <trkpt lat="42.28344" lon="1.79067">
        <ele>1303.741</ele>
        <time>2019-04-08T02:38:51Z</time>
      </trkpt>
      <trkpt lat="42.28342" lon="1.79065">
        <ele>1303.183</ele>
        <time>2019-04-08T02:38:52Z</time>
      </trkpt>
      <trkpt lat="42.28335" lon="1.7906">
        <ele>1302.388</ele>
        <time>2019-04-08T02:38:55Z</time>
      </trkpt>
      <trkpt lat="42.28332" lon="1.79058">
        <ele>1301.939</ele>
        <time>2019-04-08T02:38:56Z</time>
      </trkpt>
      <trkpt lat="42.28331" lon="1.79058">
        <ele>1301.679</ele>
        <time>2019-04-08T02:38:57Z</time>
      </trkpt>
      <trkpt lat="42.28325" lon="1.79055">
        <ele>1301.043</ele>
        <time>2019-04-08T02:38:59Z</time>
      </trkpt>
      <trkpt lat="42.28324" lon="1.79053">
        <ele>1300.792</ele>
        <time>2019-04-08T02:39:00Z</time>
      </trkpt>
      <trkpt lat="42.28307" lon="1.79038">
        <ele>1300.124</ele>
        <time>2019-04-08T02:39:08Z</time>
      </trkpt>
      <trkpt lat="42.28306" lon="1.79039">
        <ele>1299.195</ele>
        <time>2019-04-08T02:39:08Z</time>
      </trkpt>
      <trkpt lat="42.28305" lon="1.7904">
        <ele>1299.049</ele>
        <time>2019-04-08T02:39:08Z</time>
      </trkpt>
      <trkpt lat="42.28305" lon="1.7904">
        <ele>1298.723</ele>
        <time>2019-04-08T02:39:09Z</time>
      </trkpt>
      <trkpt lat="42.28303" lon="1.7904">
        <ele>1297.508</ele>
        <time>2019-04-08T02:39:10Z</time>
      </trkpt>
      <trkpt lat="42.28311" lon="1.79064">
        <ele>1297.262</ele>
        <time>2019-04-08T02:39:18Z</time>
      </trkpt>
      <trkpt lat="42.28313" lon="1.79062">
        <ele>1297.174</ele>
        <time>2019-04-08T02:39:19Z</time>
      </trkpt>
      <trkpt lat="42.28314" lon="1.79065">
        <ele>1296.129</ele>
        <time>2019-04-08T02:39:20Z</time>
      </trkpt>
      <trkpt lat="42.28314" lon="1.79068">
        <ele>1295.99</ele>
        <time>2019-04-08T02:39:21Z</time>
      </trkpt>
      <trkpt lat="42.28315" lon="1.79073">
        <ele>1295.29</ele>
        <time>2019-04-08T02:39:22Z</time>
      </trkpt>
      <trkpt lat="42.28318" lon="1.79074">
        <ele>1295.334</ele>
        <time>2019-04-08T02:39:24Z</time>
      </trkpt>
      <trkpt lat="42.28318" lon="1.79075">
        <ele>1295.593</ele>
        <time>2019-04-08T02:39:24Z</time>
      </trkpt>
      <trkpt lat="42.28323" lon="1.79081">
        <ele>1295.465</ele>
        <time>2019-04-08T02:39:26Z</time>
      </trkpt>
      <trkpt lat="42.28323" lon="1.79086">
        <ele>1296.143</ele>
        <time>2019-04-08T02:39:28Z</time>
      </trkpt>
      <trkpt lat="42.28331" lon="1.79094">
        <ele>1296.564</ele>
        <time>2019-04-08T02:39:32Z</time>
      </trkpt>
      <trkpt lat="42.2833" lon="1.79095">
        <ele>1296.71</ele>
        <time>2019-04-08T02:39:33Z</time>
      </trkpt>
      <trkpt lat="42.28328" lon="1.79096">
        <ele>1297.308</ele>
        <time>2019-04-08T02:39:33Z</time>
      </trkpt>
      <trkpt lat="42.28327" lon="1.79096">
        <ele>1297.627</ele>
        <time>2019-04-08T02:39:34Z</time>
      </trkpt>
      <trkpt lat="42.28327" lon="1.79095">
        <ele>1297.689</ele>
        <time>2019-04-08T02:39:34Z</time>
      </trkpt>
      <trkpt lat="42.28327" lon="1.79095">
        <ele>1297.124</ele>
        <time>2019-04-08T02:39:34Z</time>
      </trkpt>
      <trkpt lat="42.28326" lon="1.79096">
        <ele>1296.865</ele>
        <time>2019-04-08T02:39:34Z</time>
      </trkpt>
      <trkpt lat="42.28325" lon="1.79096">
        <ele>1296.545</ele>
        <time>2019-04-08T02:39:35Z</time>
      </trkpt>
      <trkpt lat="42.28324" lon="1.79096">
        <ele>1296.259</ele>
        <time>2019-04-08T02:39:35Z</time>
      </trkpt>
      <trkpt lat="42.28322" lon="1.79097">
        <ele>1295.828</ele>
        <time>2019-04-08T02:39:36Z</time>
      </trkpt>
      <trkpt lat="42.2832" lon="1.79099">
        <ele>1295.25</ele>
        <time>2019-04-08T02:39:37Z</time>
      </trkpt>
      <trkpt lat="42.28319" lon="1.79099">
        <ele>1294.547</ele>
        <time>2019-04-08T02:39:37Z</time>
      </trkpt>
      <trkpt lat="42.28318" lon="1.791">
        <ele>1294.529</ele>
        <time>2019-04-08T02:39:38Z</time>
      </trkpt>
      <trkpt lat="42.28315" lon="1.79104">
        <ele>1294.621</ele>
        <time>2019-04-08T02:39:40Z</time>
      </trkpt>
      <trkpt lat="42.28314" lon="1.79105">
        <ele>1294.608</ele>
        <time>2019-04-08T02:39:40Z</time>
      </trkpt>
      <trkpt lat="42.28309" lon="1.7911">
        <ele>1293.937</ele>
        <time>2019-04-08T02:39:43Z</time>
      </trkpt>
      <trkpt lat="42.28307" lon="1.79111">
        <ele>1293.749</ele>
        <time>2019-04-08T02:39:44Z</time>
      </trkpt>
      <trkpt lat="42.28305" lon="1.79111">
        <ele>1293.214</ele>
        <time>2019-04-08T02:39:44Z</time>
      </trkpt>
      <trkpt lat="42.28299" lon="1.79113">
        <ele>1292.985</ele>
        <time>2019-04-08T02:39:47Z</time>
      </trkpt>
      <trkpt lat="42.28298" lon="1.79113">
        <ele>1293.295</ele>
        <time>2019-04-08T02:39:47Z</time>
      </trkpt>
      <trkpt lat="42.28296" lon="1.79113">
        <ele>1292.789</ele>
        <time>2019-04-08T02:39:48Z</time>
      </trkpt>
      <trkpt lat="42.28293" lon="1.79112">
        <ele>1292.278</ele>
        <time>2019-04-08T02:39:49Z</time>
      </trkpt>
      <trkpt lat="42.28293" lon="1.7911">
        <ele>1291.51</ele>
        <time>2019-04-08T02:39:50Z</time>
      </trkpt>
      <trkpt lat="42.28291" lon="1.79108">
        <ele>1291.059</ele>
        <time>2019-04-08T02:39:51Z</time>
      </trkpt>
      <trkpt lat="42.2829" lon="1.79104">
        <ele>1290.803</ele>
        <time>2019-04-08T02:39:52Z</time>
      </trkpt>
      <trkpt lat="42.28289" lon="1.79104">
        <ele>1290.823</ele>
        <time>2019-04-08T02:39:52Z</time>
      </trkpt>
      <trkpt lat="42.28288" lon="1.79105">
        <ele>1290.608</ele>
        <time>2019-04-08T02:39:53Z</time>
      </trkpt>
      <trkpt lat="42.28288" lon="1.79106">
        <ele>1290.568</ele>
        <time>2019-04-08T02:39:53Z</time>
      </trkpt>
      <trkpt lat="42.28287" lon="1.79108">
        <ele>1290.79</ele>
        <time>2019-04-08T02:39:54Z</time>
      </trkpt>
      <trkpt lat="42.28288" lon="1.79109">
        <ele>1290.385</ele>
        <time>2019-04-08T02:39:54Z</time>
      </trkpt>
      <trkpt lat="42.2829" lon="1.7911">
        <ele>1290.246</ele>
        <time>2019-04-08T02:39:55Z</time>
      </trkpt>
      <trkpt lat="42.2829" lon="1.79108">
        <ele>1289.786</ele>
        <time>2019-04-08T02:39:56Z</time>
      </trkpt>
      <trkpt lat="42.28288" lon="1.79108">
        <ele>1289.48</ele>
        <time>2019-04-08T02:39:57Z</time>
      </trkpt>
      <trkpt lat="42.28287" lon="1.79109">
        <ele>1289.319</ele>
        <time>2019-04-08T02:39:58Z</time>
      </trkpt>
      <trkpt lat="42.28284" lon="1.79107">
        <ele>1289.141</ele>
        <time>2019-04-08T02:39:59Z</time>
      </trkpt>
      <trkpt lat="42.28288" lon="1.79095">
        <ele>1288.338</ele>
        <time>2019-04-08T02:40:03Z</time>
      </trkpt>
      <trkpt lat="42.28287" lon="1.79093">
        <ele>1288.37</ele>
        <time>2019-04-08T02:40:03Z</time>
      </trkpt>
      <trkpt lat="42.28283" lon="1.791">
        <ele>1288.217</ele>
        <time>2019-04-08T02:40:06Z</time>
      </trkpt>
      <trkpt lat="42.2828" lon="1.79112">
        <ele>1288.108</ele>
        <time>2019-04-08T02:40:09Z</time>
      </trkpt>
      <trkpt lat="42.2828" lon="1.79112">
        <ele>1288.176</ele>
        <time>2019-04-08T02:40:09Z</time>
      </trkpt>
      <trkpt lat="42.28278" lon="1.79111">
        <ele>1288.098</ele>
        <time>2019-04-08T02:40:10Z</time>
      </trkpt>
      <trkpt lat="42.28278" lon="1.79107">
        <ele>1287.263</ele>
        <time>2019-04-08T02:40:11Z</time>
      </trkpt>
      <trkpt lat="42.28279" lon="1.79105">
        <ele>1286.394</ele>
        <time>2019-04-08T02:40:12Z</time>
      </trkpt>
      <trkpt lat="42.28279" lon="1.79103">
        <ele>1286.194</ele>
        <time>2019-04-08T02:40:13Z</time>
      </trkpt>
      <trkpt lat="42.28281" lon="1.79097">
        <ele>1285.398</ele>
        <time>2019-04-08T02:40:15Z</time>
      </trkpt>
      <trkpt lat="42.28282" lon="1.7909">
        <ele>1284.057</ele>
        <time>2019-04-08T02:40:17Z</time>
      </trkpt>
      <trkpt lat="42.28284" lon="1.7909">
        <ele>1283.399</ele>
        <time>2019-04-08T02:40:18Z</time>
      </trkpt>
      <trkpt lat="42.28284" lon="1.79089">
        <ele>1282.997</ele>
        <time>2019-04-08T02:40:18Z</time>
      </trkpt>
      <trkpt lat="42.28285" lon="1.79086">
        <ele>1282.123</ele>
        <time>2019-04-08T02:40:19Z</time>
      </trkpt>
      <trkpt lat="42.28284" lon="1.79085">
        <ele>1281.625</ele>
        <time>2019-04-08T02:40:19Z</time>
      </trkpt>
      <trkpt lat="42.28285" lon="1.79083">
        <ele>1281.608</ele>
        <time>2019-04-08T02:40:20Z</time>
      </trkpt>
      <trkpt lat="42.28286" lon="1.79081">
        <ele>1281.312</ele>
        <time>2019-04-08T02:40:20Z</time>
      </trkpt>
      <trkpt lat="42.28286" lon="1.79077">
        <ele>1281.154</ele>
        <time>2019-04-08T02:40:22Z</time>
      </trkpt>
      <trkpt lat="42.28285" lon="1.79071">
        <ele>1280.719</ele>
        <time>2019-04-08T02:40:24Z</time>
      </trkpt>
      <trkpt lat="42.28285" lon="1.79061">
        <ele>1279.62</ele>
        <time>2019-04-08T02:40:26Z</time>
      </trkpt>
      <trkpt lat="42.28287" lon="1.79058">
        <ele>1279.15</ele>
        <time>2019-04-08T02:40:28Z</time>
      </trkpt>
      <trkpt lat="42.28288" lon="1.79056">
        <ele>1278.634</ele>
        <time>2019-04-08T02:40:28Z</time>
      </trkpt>
      <trkpt lat="42.28288" lon="1.79055">
        <ele>1278.413</ele>
        <time>2019-04-08T02:40:29Z</time>
      </trkpt>
      <trkpt lat="42.28289" lon="1.79054">
        <ele>1278.465</ele>
        <time>2019-04-08T02:40:29Z</time>
      </trkpt>
      <trkpt lat="42.28293" lon="1.79056">
        <ele>1278.436</ele>
        <time>2019-04-08T02:40:31Z</time>
      </trkpt>
      <trkpt lat="42.28294" lon="1.79058">
        <ele>1278.217</ele>
        <time>2019-04-08T02:40:31Z</time>
      </trkpt>
      <trkpt lat="42.28292" lon="1.79059">
        <ele>1278.318</ele>
        <time>2019-04-08T02:40:32Z</time>
      </trkpt>
      <trkpt lat="42.28289" lon="1.79058">
        <ele>1278.208</ele>
        <time>2019-04-08T02:40:33Z</time>
      </trkpt>
      <trkpt lat="42.28286" lon="1.79052">
        <ele>1278.336</ele>
        <time>2019-04-08T02:40:35Z</time>
      </trkpt>
      <trkpt lat="42.28285" lon="1.79051">
        <ele>1278.358</ele>
        <time>2019-04-08T02:40:36Z</time>
      </trkpt>
      <trkpt lat="42.28285" lon="1.79048">
        <ele>1278.773</ele>
        <time>2019-04-08T02:40:37Z</time>
      </trkpt>
      <trkpt lat="42.28286" lon="1.79044">
        <ele>1278.624</ele>
        <time>2019-04-08T02:40:38Z</time>
      </trkpt>
      <trkpt lat="42.28283" lon="1.7904">
        <ele>1278.714</ele>
        <time>2019-04-08T02:40:40Z</time>
      </trkpt>
      <trkpt lat="42.28283" lon="1.79038">
        <ele>1279.198</ele>
        <time>2019-04-08T02:40:40Z</time>
      </trkpt>
      <trkpt lat="42.28283" lon="1.79037">
        <ele>1279.277</ele>
        <time>2019-04-08T02:40:40Z</time>
      </trkpt>
      <trkpt lat="42.28283" lon="1.79038">
        <ele>1278.949</ele>
        <time>2019-04-08T02:40:41Z</time>
      </trkpt>
      <trkpt lat="42.28282" lon="1.79042">
        <ele>1278.732</ele>
        <time>2019-04-08T02:40:42Z</time>
      </trkpt>
      <trkpt lat="42.28284" lon="1.79048">
        <ele>1278.692</ele>
        <time>2019-04-08T02:40:44Z</time>
      </trkpt>
      <trkpt lat="42.28292" lon="1.79054">
        <ele>1278.211</ele>
        <time>2019-04-08T02:40:48Z</time>
      </trkpt>
      <trkpt lat="42.28293" lon="1.79057">
        <ele>1278.108</ele>
        <time>2019-04-08T02:40:49Z</time>
      </trkpt>
      <trkpt lat="42.28294" lon="1.79062">
        <ele>1278.096</ele>
        <time>2019-04-08T02:40:50Z</time>
      </trkpt>
      <trkpt lat="42.28295" lon="1.79076">
        <ele>1277.658</ele>
        <time>2019-04-08T02:40:54Z</time>
      </trkpt>
      <trkpt lat="42.28294" lon="1.79087">
        <ele>1277.873</ele>
        <time>2019-04-08T02:40:57Z</time>
      </trkpt>
      <trkpt lat="42.28294" lon="1.7909">
        <ele>1277.594</ele>
        <time>2019-04-08T02:40:59Z</time>
      </trkpt>
      <trkpt lat="42.28289" lon="1.79092">
        <ele>1278.444</ele>
        <time>2019-04-08T02:41:00Z</time>
      </trkpt>
      <trkpt lat="42.28289" lon="1.79094">
        <ele>1278.548</ele>
        <time>2019-04-08T02:41:01Z</time>
      </trkpt>
      <trkpt lat="42.28289" lon="1.79094">
        <ele>1278.267</ele>
        <time>2019-04-08T02:41:01Z</time>
      </trkpt>
      <trkpt lat="42.28288" lon="1.79094">
        <ele>1278.489</ele>
        <time>2019-04-08T02:41:01Z</time>
      </trkpt>
      <trkpt lat="42.28286" lon="1.79093">
        <ele>1278.416</ele>
        <time>2019-04-08T02:41:02Z</time>
      </trkpt>
      <trkpt lat="42.28287" lon="1.79091">
        <ele>1278.776</ele>
        <time>2019-04-08T02:41:03Z</time>
      </trkpt>
      <trkpt lat="42.28288" lon="1.7909">
        <ele>1278.313</ele>
        <time>2019-04-08T02:41:03Z</time>
      </trkpt>
      <trkpt lat="42.28283" lon="1.79094">
        <ele>1278.208</ele>
        <time>2019-04-08T02:41:06Z</time>
      </trkpt>
      <trkpt lat="42.28279" lon="1.791">
        <ele>1277.344</ele>
        <time>2019-04-08T02:41:08Z</time>
      </trkpt>
      <trkpt lat="42.28275" lon="1.79103">
        <ele>1276.896</ele>
        <time>2019-04-08T02:41:10Z</time>
      </trkpt>
      <trkpt lat="42.28273" lon="1.79102">
        <ele>1276.361</ele>
        <time>2019-04-08T02:41:11Z</time>
      </trkpt>
      <trkpt lat="42.28272" lon="1.79102">
        <ele>1276.282</ele>
        <time>2019-04-08T02:41:11Z</time>
      </trkpt>
      <trkpt lat="42.28264" lon="1.79102">
        <ele>1275.612</ele>
        <time>2019-04-08T02:41:14Z</time>
      </trkpt>
      <trkpt lat="42.2826" lon="1.79101">
        <ele>1274.926</ele>
        <time>2019-04-08T02:41:16Z</time>
      </trkpt>
      <trkpt lat="42.28257" lon="1.79101">
        <ele>1274.775</ele>
        <time>2019-04-08T02:41:17Z</time>
      </trkpt>
      <trkpt lat="42.28252" lon="1.791">
        <ele>1274.257</ele>
        <time>2019-04-08T02:41:19Z</time>
      </trkpt>
      <trkpt lat="42.28249" lon="1.79101">
        <ele>1274.065</ele>
        <time>2019-04-08T02:41:21Z</time>
      </trkpt>
      <trkpt lat="42.28242" lon="1.79108">
        <ele>1274.568</ele>
        <time>2019-04-08T02:41:24Z</time>
      </trkpt>
      <trkpt lat="42.28241" lon="1.79113">
        <ele>1274.014</ele>
        <time>2019-04-08T02:41:26Z</time>
      </trkpt>
      <trkpt lat="42.2824" lon="1.79113">
        <ele>1273.808</ele>
        <time>2019-04-08T02:41:26Z</time>
      </trkpt>
      <trkpt lat="42.28238" lon="1.79114">
        <ele>1274.089</ele>
        <time>2019-04-08T02:41:26Z</time>
      </trkpt>
      <trkpt lat="42.28237" lon="1.79115">
        <ele>1274.071</ele>
        <time>2019-04-08T02:41:27Z</time>
      </trkpt>
      <trkpt lat="42.28232" lon="1.7912">
        <ele>1273.956</ele>
        <time>2019-04-08T02:41:30Z</time>
      </trkpt>
      <trkpt lat="42.2823" lon="1.79121">
        <ele>1273.937</ele>
        <time>2019-04-08T02:41:30Z</time>
      </trkpt>
      <trkpt lat="42.28225" lon="1.79125">
        <ele>1274.247</ele>
        <time>2019-04-08T02:41:33Z</time>
      </trkpt>
      <trkpt lat="42.28218" lon="1.79127">
        <ele>1274.421</ele>
        <time>2019-04-08T02:41:35Z</time>
      </trkpt>
      <trkpt lat="42.28217" lon="1.79128">
        <ele>1274.36</ele>
        <time>2019-04-08T02:41:36Z</time>
      </trkpt>
      <trkpt lat="42.28217" lon="1.79124">
        <ele>1274.382</ele>
        <time>2019-04-08T02:41:37Z</time>
      </trkpt>
      <trkpt lat="42.28216" lon="1.79125">
        <ele>1274.266</ele>
        <time>2019-04-08T02:41:38Z</time>
      </trkpt>
      <trkpt lat="42.28213" lon="1.79129">
        <ele>1274.229</ele>
        <time>2019-04-08T02:41:40Z</time>
      </trkpt>
      <trkpt lat="42.28205" lon="1.79134">
        <ele>1274.021</ele>
        <time>2019-04-08T02:41:43Z</time>
      </trkpt>
      <trkpt lat="42.28203" lon="1.79135">
        <ele>1274.008</ele>
        <time>2019-04-08T02:41:44Z</time>
      </trkpt>
      <trkpt lat="42.28196" lon="1.79128">
        <ele>1273.739</ele>
        <time>2019-04-08T02:41:47Z</time>
      </trkpt>
      <trkpt lat="42.28194" lon="1.79124">
        <ele>1273.531</ele>
        <time>2019-04-08T02:41:49Z</time>
      </trkpt>
      <trkpt lat="42.28194" lon="1.79122">
        <ele>1273.366</ele>
        <time>2019-04-08T02:41:50Z</time>
      </trkpt>
      <trkpt lat="42.28194" lon="1.7912">
        <ele>1273.087</ele>
        <time>2019-04-08T02:41:50Z</time>
      </trkpt>
      <trkpt lat="42.28194" lon="1.79119">
        <ele>1272.837</ele>
        <time>2019-04-08T02:41:51Z</time>
      </trkpt>
      <trkpt lat="42.28194" lon="1.79111">
        <ele>1272.791</ele>
        <time>2019-04-08T02:41:53Z</time>
      </trkpt>
      <trkpt lat="42.28194" lon="1.7911">
        <ele>1272.83</ele>
        <time>2019-04-08T02:41:53Z</time>
      </trkpt>
      <trkpt lat="42.28196" lon="1.79097">
        <ele>1271.942</ele>
        <time>2019-04-08T02:41:57Z</time>
      </trkpt>
      <trkpt lat="42.28198" lon="1.79091">
        <ele>1272.153</ele>
        <time>2019-04-08T02:41:59Z</time>
      </trkpt>
      <trkpt lat="42.282" lon="1.79088">
        <ele>1271.904</ele>
        <time>2019-04-08T02:42:00Z</time>
      </trkpt>
      <trkpt lat="42.28201" lon="1.79084">
        <ele>1272.014</ele>
        <time>2019-04-08T02:42:02Z</time>
      </trkpt>
      <trkpt lat="42.28201" lon="1.7908">
        <ele>1271.908</ele>
        <time>2019-04-08T02:42:03Z</time>
      </trkpt>
      <trkpt lat="42.28202" lon="1.79077">
        <ele>1272.298</ele>
        <time>2019-04-08T02:42:04Z</time>
      </trkpt>
      <trkpt lat="42.28203" lon="1.79074">
        <ele>1272.17</ele>
        <time>2019-04-08T02:42:05Z</time>
      </trkpt>
      <trkpt lat="42.28204" lon="1.79073">
        <ele>1272.385</ele>
        <time>2019-04-08T02:42:05Z</time>
      </trkpt>
      <trkpt lat="42.28205" lon="1.79074">
        <ele>1272.366</ele>
        <time>2019-04-08T02:42:06Z</time>
      </trkpt>
      <trkpt lat="42.28206" lon="1.7907">
        <ele>1272.116</ele>
        <time>2019-04-08T02:42:07Z</time>
      </trkpt>
      <trkpt lat="42.28205" lon="1.79069">
        <ele>1272.35</ele>
        <time>2019-04-08T02:42:07Z</time>
      </trkpt>
      <trkpt lat="42.28208" lon="1.79071">
        <ele>1272.349</ele>
        <time>2019-04-08T02:42:09Z</time>
      </trkpt>
      <trkpt lat="42.28212" lon="1.79075">
        <ele>1272.131</ele>
        <time>2019-04-08T02:42:11Z</time>
      </trkpt>
      <trkpt lat="42.28212" lon="1.79072">
        <ele>1272.168</ele>
        <time>2019-04-08T02:42:11Z</time>
      </trkpt>
      <trkpt lat="42.28213" lon="1.79067">
        <ele>1272.142</ele>
        <time>2019-04-08T02:42:13Z</time>
      </trkpt>
      <trkpt lat="42.28214" lon="1.79067">
        <ele>1272.026</ele>
        <time>2019-04-08T02:42:13Z</time>
      </trkpt>
      <trkpt lat="42.28215" lon="1.79065">
        <ele>1271.908</ele>
        <time>2019-04-08T02:42:14Z</time>
      </trkpt>
      <trkpt lat="42.28215" lon="1.79064">
        <ele>1271.939</ele>
        <time>2019-04-08T02:42:14Z</time>
      </trkpt>
      <trkpt lat="42.28215" lon="1.79063">
        <ele>1271.931</ele>
        <time>2019-04-08T02:42:15Z</time>
      </trkpt>
      <trkpt lat="42.28216" lon="1.79061">
        <ele>1271.936</ele>
        <time>2019-04-08T02:42:15Z</time>
      </trkpt>
      <trkpt lat="42.2822" lon="1.79064">
        <ele>1272.167</ele>
        <time>2019-04-08T02:42:17Z</time>
      </trkpt>
      <trkpt lat="42.2822" lon="1.79066">
        <ele>1272.387</ele>
        <time>2019-04-08T02:42:17Z</time>
      </trkpt>
      <trkpt lat="42.28221" lon="1.79068">
        <ele>1272.451</ele>
        <time>2019-04-08T02:42:18Z</time>
      </trkpt>
      <trkpt lat="42.28221" lon="1.79068">
        <ele>1272.72</ele>
        <time>2019-04-08T02:42:19Z</time>
      </trkpt>
      <trkpt lat="42.28222" lon="1.7907">
        <ele>1273.012</ele>
        <time>2019-04-08T02:42:19Z</time>
      </trkpt>
      <trkpt lat="42.28222" lon="1.79072">
        <ele>1272.979</ele>
        <time>2019-04-08T02:42:20Z</time>
      </trkpt>
      <trkpt lat="42.28219" lon="1.79077">
        <ele>1273.005</ele>
        <time>2019-04-08T02:42:22Z</time>
      </trkpt>
      <trkpt lat="42.28215" lon="1.79073">
        <ele>1272.925</ele>
        <time>2019-04-08T02:42:24Z</time>
      </trkpt>
      <trkpt lat="42.28212" lon="1.79071">
        <ele>1272.508</ele>
        <time>2019-04-08T02:42:25Z</time>
      </trkpt>
      <trkpt lat="42.28209" lon="1.79072">
        <ele>1271.67</ele>
        <time>2019-04-08T02:42:26Z</time>
      </trkpt>
      <trkpt lat="42.28208" lon="1.79072">
        <ele>1271.432</ele>
        <time>2019-04-08T02:42:27Z</time>
      </trkpt>
      <trkpt lat="42.28206" lon="1.79074">
        <ele>1270.637</ele>
        <time>2019-04-08T02:42:28Z</time>
      </trkpt>
      <trkpt lat="42.28204" lon="1.79075">
        <ele>1270.528</ele>
        <time>2019-04-08T02:42:29Z</time>
      </trkpt>
      <trkpt lat="42.28197" lon="1.79072">
        <ele>1269.338</ele>
        <time>2019-04-08T02:42:32Z</time>
      </trkpt>
      <trkpt lat="42.28193" lon="1.79072">
        <ele>1268.722</ele>
        <time>2019-04-08T02:42:33Z</time>
      </trkpt>
      <trkpt lat="42.2819" lon="1.79074">
        <ele>1268.181</ele>
        <time>2019-04-08T02:42:34Z</time>
      </trkpt>
      <trkpt lat="42.28186" lon="1.79076">
        <ele>1267.243</ele>
        <time>2019-04-08T02:42:36Z</time>
      </trkpt>
      <trkpt lat="42.28182" lon="1.79077">
        <ele>1266.374</ele>
        <time>2019-04-08T02:42:38Z</time>
      </trkpt>
      <trkpt lat="42.28181" lon="1.79077">
        <ele>1265.856</ele>
        <time>2019-04-08T02:42:38Z</time>
      </trkpt>
      <trkpt lat="42.28181" lon="1.79076">
        <ele>1265.621</ele>
        <time>2019-04-08T02:42:39Z</time>
      </trkpt>
      <trkpt lat="42.2818" lon="1.79074">
        <ele>1265.508</ele>
        <time>2019-04-08T02:42:39Z</time>
      </trkpt>
      <trkpt lat="42.28179" lon="1.79074">
        <ele>1264.81</ele>
        <time>2019-04-08T02:42:40Z</time>
      </trkpt>
      <trkpt lat="42.28177" lon="1.79074">
        <ele>1264.232</ele>
        <time>2019-04-08T02:42:41Z</time>
      </trkpt>
      <trkpt lat="42.28175" lon="1.79071">
        <ele>1263.727</ele>
        <time>2019-04-08T02:42:41Z</time>
      </trkpt>
      <trkpt lat="42.28174" lon="1.79069">
        <ele>1263.658</ele>
        <time>2019-04-08T02:42:42Z</time>
      </trkpt>
      <trkpt lat="42.28172" lon="1.79063">
        <ele>1262.818</ele>
        <time>2019-04-08T02:42:44Z</time>
      </trkpt>
      <trkpt lat="42.28171" lon="1.79058">
        <ele>1262.342</ele>
        <time>2019-04-08T02:42:46Z</time>
      </trkpt>
      <trkpt lat="42.2817" lon="1.79054">
        <ele>1261.661</ele>
        <time>2019-04-08T02:42:47Z</time>
      </trkpt>
      <trkpt lat="42.28169" lon="1.79053">
        <ele>1261.443</ele>
        <time>2019-04-08T02:42:47Z</time>
      </trkpt>
      <trkpt lat="42.28168" lon="1.79053">
        <ele>1260.551</ele>
        <time>2019-04-08T02:42:48Z</time>
      </trkpt>
      <trkpt lat="42.28168" lon="1.79054">
        <ele>1260.701</ele>
        <time>2019-04-08T02:42:48Z</time>
      </trkpt>
      <trkpt lat="42.28167" lon="1.79054">
        <ele>1260.011</ele>
        <time>2019-04-08T02:42:49Z</time>
      </trkpt>
      <trkpt lat="42.28164" lon="1.79056">
        <ele>1259.208</ele>
        <time>2019-04-08T02:42:50Z</time>
      </trkpt>
      <trkpt lat="42.2816" lon="1.79052">
        <ele>1258.898</ele>
        <time>2019-04-08T02:42:52Z</time>
      </trkpt>
      <trkpt lat="42.28158" lon="1.79051">
        <ele>1258.14</ele>
        <time>2019-04-08T02:42:53Z</time>
      </trkpt>
      <trkpt lat="42.28155" lon="1.79046">
        <ele>1257.235</ele>
        <time>2019-04-08T02:42:55Z</time>
      </trkpt>
      <trkpt lat="42.28154" lon="1.79044">
        <ele>1256.936</ele>
        <time>2019-04-08T02:42:55Z</time>
      </trkpt>
      <trkpt lat="42.28152" lon="1.79042">
        <ele>1256.056</ele>
        <time>2019-04-08T02:42:56Z</time>
      </trkpt>
      <trkpt lat="42.28152" lon="1.79042">
        <ele>1255.65</ele>
        <time>2019-04-08T02:42:56Z</time>
      </trkpt>
      <trkpt lat="42.28149" lon="1.79039">
        <ele>1254.699</ele>
        <time>2019-04-08T02:42:58Z</time>
      </trkpt>
      <trkpt lat="42.28145" lon="1.79037">
        <ele>1253.291</ele>
        <time>2019-04-08T02:42:59Z</time>
      </trkpt>
      <trkpt lat="42.28142" lon="1.79034">
        <ele>1252.513</ele>
        <time>2019-04-08T02:43:01Z</time>
      </trkpt>
      <trkpt lat="42.28139" lon="1.79031">
        <ele>1252.443</ele>
        <time>2019-04-08T02:43:02Z</time>
      </trkpt>
      <trkpt lat="42.28138" lon="1.79031">
        <ele>1252.207</ele>
        <time>2019-04-08T02:43:03Z</time>
      </trkpt>
      <trkpt lat="42.28136" lon="1.79033">
        <ele>1251.608</ele>
        <time>2019-04-08T02:43:04Z</time>
      </trkpt>
      <trkpt lat="42.28135" lon="1.79034">
        <ele>1251.284</ele>
        <time>2019-04-08T02:43:05Z</time>
      </trkpt>
      <trkpt lat="42.28131" lon="1.79029">
        <ele>1250.226</ele>
        <time>2019-04-08T02:43:07Z</time>
      </trkpt>
      <trkpt lat="42.2813" lon="1.79025">
        <ele>1250.061</ele>
        <time>2019-04-08T02:43:08Z</time>
      </trkpt>
      <trkpt lat="42.28129" lon="1.79019">
        <ele>1249.552</ele>
        <time>2019-04-08T02:43:10Z</time>
      </trkpt>
      <trkpt lat="42.28128" lon="1.79018">
        <ele>1249.022</ele>
        <time>2019-04-08T02:43:10Z</time>
      </trkpt>
      <trkpt lat="42.28124" lon="1.79018">
        <ele>1248.176</ele>
        <time>2019-04-08T02:43:12Z</time>
      </trkpt>
      <trkpt lat="42.28124" lon="1.79017">
        <ele>1247.685</ele>
        <time>2019-04-08T02:43:12Z</time>
      </trkpt>
      <trkpt lat="42.28123" lon="1.79015">
        <ele>1247.027</ele>
        <time>2019-04-08T02:43:13Z</time>
      </trkpt>
      <trkpt lat="42.28123" lon="1.79013">
        <ele>1246.745</ele>
        <time>2019-04-08T02:43:13Z</time>
      </trkpt>
      <trkpt lat="42.28122" lon="1.79011">
        <ele>1245.747</ele>
        <time>2019-04-08T02:43:14Z</time>
      </trkpt>
      <trkpt lat="42.28117" lon="1.79003">
        <ele>1244.711</ele>
        <time>2019-04-08T02:43:17Z</time>
      </trkpt>
      <trkpt lat="42.28115" lon="1.79">
        <ele>1243.308</ele>
        <time>2019-04-08T02:43:18Z</time>
      </trkpt>
      <trkpt lat="42.28114" lon="1.79">
        <ele>1242.687</ele>
        <time>2019-04-08T02:43:18Z</time>
      </trkpt>
      <trkpt lat="42.28114" lon="1.79">
        <ele>1242.089</ele>
        <time>2019-04-08T02:43:19Z</time>
      </trkpt>
      <trkpt lat="42.28112" lon="1.78998">
        <ele>1241.024</ele>
        <time>2019-04-08T02:43:20Z</time>
      </trkpt>
      <trkpt lat="42.2811" lon="1.78995">
        <ele>1239.685</ele>
        <time>2019-04-08T02:43:21Z</time>
      </trkpt>
      <trkpt lat="42.28109" lon="1.78994">
        <ele>1239.335</ele>
        <time>2019-04-08T02:43:21Z</time>
      </trkpt>
      <trkpt lat="42.28108" lon="1.78992">
        <ele>1238.729</ele>
        <time>2019-04-08T02:43:22Z</time>
      </trkpt>
      <trkpt lat="42.28107" lon="1.78991">
        <ele>1237.718</ele>
        <time>2019-04-08T02:43:23Z</time>
      </trkpt>
      <trkpt lat="42.28106" lon="1.7899">
        <ele>1236.91</ele>
        <time>2019-04-08T02:43:23Z</time>
      </trkpt>
      <trkpt lat="42.28105" lon="1.7899">
        <ele>1236.216</ele>
        <time>2019-04-08T02:43:23Z</time>
      </trkpt>
      <trkpt lat="42.28105" lon="1.7899">
        <ele>1236.076</ele>
        <time>2019-04-08T02:43:23Z</time>
      </trkpt>
      <trkpt lat="42.28105" lon="1.78989">
        <ele>1235.613</ele>
        <time>2019-04-08T02:43:24Z</time>
      </trkpt>
      <trkpt lat="42.28105" lon="1.78988">
        <ele>1235.208</ele>
        <time>2019-04-08T02:43:24Z</time>
      </trkpt>
      <trkpt lat="42.28104" lon="1.78988">
        <ele>1234.144</ele>
        <time>2019-04-08T02:43:24Z</time>
      </trkpt>
      <trkpt lat="42.28102" lon="1.78988">
        <ele>1233.316</ele>
        <time>2019-04-08T02:43:25Z</time>
      </trkpt>
      <trkpt lat="42.28101" lon="1.78987">
        <ele>1232.761</ele>
        <time>2019-04-08T02:43:25Z</time>
      </trkpt>
      <trkpt lat="42.28099" lon="1.78985">
        <ele>1232.162</ele>
        <time>2019-04-08T02:43:26Z</time>
      </trkpt>
      <trkpt lat="42.28097" lon="1.78986">
        <ele>1231.722</ele>
        <time>2019-04-08T02:43:28Z</time>
      </trkpt>
      <trkpt lat="42.28094" lon="1.78985">
        <ele>1230.756</ele>
        <time>2019-04-08T02:43:29Z</time>
      </trkpt>
      <trkpt lat="42.2809" lon="1.78983">
        <ele>1229.795</ele>
        <time>2019-04-08T02:43:31Z</time>
      </trkpt>
      <trkpt lat="42.28089" lon="1.78982">
        <ele>1229.247</ele>
        <time>2019-04-08T02:43:31Z</time>
      </trkpt>
      <trkpt lat="42.28089" lon="1.78979">
        <ele>1228.615</ele>
        <time>2019-04-08T02:43:32Z</time>
      </trkpt>
      <trkpt lat="42.28088" lon="1.78977">
        <ele>1227.265</ele>
        <time>2019-04-08T02:43:32Z</time>
      </trkpt>
      <trkpt lat="42.28088" lon="1.78975">
        <ele>1227.411</ele>
        <time>2019-04-08T02:43:33Z</time>
      </trkpt>
      <trkpt lat="42.28085" lon="1.78969">
        <ele>1226.308</ele>
        <time>2019-04-08T02:43:35Z</time>
      </trkpt>
      <trkpt lat="42.28085" lon="1.78968">
        <ele>1225.534</ele>
        <time>2019-04-08T02:43:36Z</time>
      </trkpt>
      <trkpt lat="42.28084" lon="1.78967">
        <ele>1225.126</ele>
        <time>2019-04-08T02:43:36Z</time>
      </trkpt>
      <trkpt lat="42.28084" lon="1.78967">
        <ele>1224.781</ele>
        <time>2019-04-08T02:43:36Z</time>
      </trkpt>
      <trkpt lat="42.28084" lon="1.78968">
        <ele>1224.742</ele>
        <time>2019-04-08T02:43:36Z</time>
      </trkpt>
      <trkpt lat="42.28084" lon="1.78969">
        <ele>1224.012</ele>
        <time>2019-04-08T02:43:37Z</time>
      </trkpt>
      <trkpt lat="42.28083" lon="1.78968">
        <ele>1223.746</ele>
        <time>2019-04-08T02:43:37Z</time>
      </trkpt>
      <trkpt lat="42.28083" lon="1.78968">
        <ele>1223.775</ele>
        <time>2019-04-08T02:43:37Z</time>
      </trkpt>
      <trkpt lat="42.28077" lon="1.78966">
        <ele>1223.077</ele>
        <time>2019-04-08T02:43:39Z</time>
      </trkpt>
      <trkpt lat="42.28072" lon="1.78965">
        <ele>1222.195</ele>
        <time>2019-04-08T02:43:41Z</time>
      </trkpt>
      <trkpt lat="42.28069" lon="1.78963">
        <ele>1221.449</ele>
        <time>2019-04-08T02:43:43Z</time>
      </trkpt>
      <trkpt lat="42.28067" lon="1.78962">
        <ele>1221.223</ele>
        <time>2019-04-08T02:43:43Z</time>
      </trkpt>
      <trkpt lat="42.2806" lon="1.78959">
        <ele>1220.308</ele>
        <time>2019-04-08T02:43:47Z</time>
      </trkpt>
      <trkpt lat="42.28059" lon="1.78958">
        <ele>1219.592</ele>
        <time>2019-04-08T02:43:47Z</time>
      </trkpt>
      <trkpt lat="42.28055" lon="1.78955">
        <ele>1218.544</ele>
        <time>2019-04-08T02:43:49Z</time>
      </trkpt>
      <trkpt lat="42.28054" lon="1.78952">
        <ele>1218.399</ele>
        <time>2019-04-08T02:43:50Z</time>
      </trkpt>
      <trkpt lat="42.28052" lon="1.78949">
        <ele>1217.78</ele>
        <time>2019-04-08T02:43:51Z</time>
      </trkpt>
      <trkpt lat="42.28051" lon="1.78948">
        <ele>1217.79</ele>
        <time>2019-04-08T02:43:52Z</time>
      </trkpt>
      <trkpt lat="42.28049" lon="1.78946">
        <ele>1217.624</ele>
        <time>2019-04-08T02:43:52Z</time>
      </trkpt>
      <trkpt lat="42.28046" lon="1.78944">
        <ele>1217.383</ele>
        <time>2019-04-08T02:43:54Z</time>
      </trkpt>
      <trkpt lat="42.28045" lon="1.78943">
        <ele>1216.745</ele>
        <time>2019-04-08T02:43:54Z</time>
      </trkpt>
      <trkpt lat="42.28044" lon="1.78943">
        <ele>1216.548</ele>
        <time>2019-04-08T02:43:55Z</time>
      </trkpt>
      <trkpt lat="42.28044" lon="1.78941">
        <ele>1215.361</ele>
        <time>2019-04-08T02:43:55Z</time>
      </trkpt>
      <trkpt lat="42.28044" lon="1.78939">
        <ele>1214.717</ele>
        <time>2019-04-08T02:43:56Z</time>
      </trkpt>
      <trkpt lat="42.28044" lon="1.78939">
        <ele>1214.208</ele>
        <time>2019-04-08T02:43:56Z</time>
      </trkpt>
      <trkpt lat="42.28044" lon="1.78939">
        <ele>1213.727</ele>
        <time>2019-04-08T02:43:56Z</time>
      </trkpt>
      <trkpt lat="42.28044" lon="1.78939">
        <ele>1213.129</ele>
        <time>2019-04-08T02:43:56Z</time>
      </trkpt>
      <trkpt lat="42.28044" lon="1.78939">
        <ele>1212.734</ele>
        <time>2019-04-08T02:43:56Z</time>
      </trkpt>
      <trkpt lat="42.28044" lon="1.7894">
        <ele>1211.645</ele>
        <time>2019-04-08T02:43:56Z</time>
      </trkpt>
      <trkpt lat="42.28043" lon="1.78941">
        <ele>1210.615</ele>
        <time>2019-04-08T02:43:57Z</time>
      </trkpt>
      <trkpt lat="42.28042" lon="1.78942">
        <ele>1210.449</ele>
        <time>2019-04-08T02:43:57Z</time>
      </trkpt>
      <trkpt lat="42.2804" lon="1.78942">
        <ele>1209.618</ele>
        <time>2019-04-08T02:43:58Z</time>
      </trkpt>
      <trkpt lat="42.28039" lon="1.78941">
        <ele>1209.31</ele>
        <time>2019-04-08T02:43:59Z</time>
      </trkpt>
      <trkpt lat="42.28038" lon="1.78941">
        <ele>1208.131</ele>
        <time>2019-04-08T02:43:59Z</time>
      </trkpt>
      <trkpt lat="42.28038" lon="1.78941">
        <ele>1207.761</ele>
        <time>2019-04-08T02:43:59Z</time>
      </trkpt>
      <trkpt lat="42.28038" lon="1.7894">
        <ele>1207.307</ele>
        <time>2019-04-08T02:43:59Z</time>
      </trkpt>
      <trkpt lat="42.28038" lon="1.7894">
        <ele>1207.208</ele>
        <time>2019-04-08T02:43:59Z</time>
      </trkpt>
      <trkpt lat="42.28037" lon="1.78939">
        <ele>1206.916</ele>
        <time>2019-04-08T02:44:00Z</time>
      </trkpt>
      <trkpt lat="42.28033" lon="1.7894">
        <ele>1206.638</ele>
        <time>2019-04-08T02:44:01Z</time>
      </trkpt>
      <trkpt lat="42.28031" lon="1.78938">
        <ele>1206.563</ele>
        <time>2019-04-08T02:44:02Z</time>
      </trkpt>
      <trkpt lat="42.28029" lon="1.78937">
        <ele>1205.674</ele>
        <time>2019-04-08T02:44:03Z</time>
      </trkpt>
      <trkpt lat="42.28029" lon="1.78937">
        <ele>1205.214</ele>
        <time>2019-04-08T02:44:03Z</time>
      </trkpt>
      <trkpt lat="42.28028" lon="1.78937">
        <ele>1204.838</ele>
        <time>2019-04-08T02:44:03Z</time>
      </trkpt>
      <trkpt lat="42.28025" lon="1.78938">
        <ele>1204.027</ele>
        <time>2019-04-08T02:44:05Z</time>
      </trkpt>
      <trkpt lat="42.28024" lon="1.78938">
        <ele>1203.799</ele>
        <time>2019-04-08T02:44:05Z</time>
      </trkpt>
      <trkpt lat="42.28028" lon="1.78936">
        <ele>1203.849</ele>
        <time>2019-04-08T02:44:07Z</time>
      </trkpt>
      <trkpt lat="42.28028" lon="1.78936">
        <ele>1203.802</ele>
        <time>2019-04-08T02:44:07Z</time>
      </trkpt>
      <trkpt lat="42.28028" lon="1.78936">
        <ele>1203.822</ele>
        <time>2019-04-08T02:44:07Z</time>
      </trkpt>
      <trkpt lat="42.28028" lon="1.78938">
        <ele>1203.808</ele>
        <time>2019-04-08T02:44:08Z</time>
      </trkpt>
      <trkpt lat="42.28028" lon="1.78943">
        <ele>1204.057</ele>
        <time>2019-04-08T02:44:09Z</time>
      </trkpt>
      <trkpt lat="42.28029" lon="1.78944">
        <ele>1203.679</ele>
        <time>2019-04-08T02:44:10Z</time>
      </trkpt>
      <trkpt lat="42.28029" lon="1.78942">
        <ele>1204.284</ele>
        <time>2019-04-08T02:44:10Z</time>
      </trkpt>
      <trkpt lat="42.28027" lon="1.78935">
        <ele>1204.185</ele>
        <time>2019-04-08T02:44:12Z</time>
      </trkpt>
      <trkpt lat="42.28027" lon="1.78935">
        <ele>1203.875</ele>
        <time>2019-04-08T02:44:13Z</time>
      </trkpt>
      <trkpt lat="42.28026" lon="1.78936">
        <ele>1203.759</ele>
        <time>2019-04-08T02:44:13Z</time>
      </trkpt>
      <trkpt lat="42.28024" lon="1.78937">
        <ele>1203.498</ele>
        <time>2019-04-08T02:44:14Z</time>
      </trkpt>
      <trkpt lat="42.28024" lon="1.78937">
        <ele>1203.11</ele>
        <time>2019-04-08T02:44:14Z</time>
      </trkpt>
      <trkpt lat="42.28023" lon="1.78936">
        <ele>1203.362</ele>
        <time>2019-04-08T02:44:14Z</time>
      </trkpt>
      <trkpt lat="42.2802" lon="1.78934">
        <ele>1202.583</ele>
        <time>2019-04-08T02:44:16Z</time>
      </trkpt>
      <trkpt lat="42.28019" lon="1.78933">
        <ele>1202.411</ele>
        <time>2019-04-08T02:44:16Z</time>
      </trkpt>
      <trkpt lat="42.28014" lon="1.78929">
        <ele>1201.508</ele>
        <time>2019-04-08T02:44:19Z</time>
      </trkpt>
      <trkpt lat="42.28013" lon="1.78928">
        <ele>1201.259</ele>
        <time>2019-04-08T02:44:19Z</time>
      </trkpt>
      <trkpt lat="42.28008" lon="1.78926">
        <ele>1200.261</ele>
        <time>2019-04-08T02:44:21Z</time>
      </trkpt>
      <trkpt lat="42.28006" lon="1.78926">
        <ele>1200.026</ele>
        <time>2019-04-08T02:44:22Z</time>
      </trkpt>
      <trkpt lat="42.28004" lon="1.78926">
        <ele>1199.167</ele>
        <time>2019-04-08T02:44:23Z</time>
      </trkpt>
      <trkpt lat="42.27998" lon="1.78927">
        <ele>1198.327</ele>
        <time>2019-04-08T02:44:25Z</time>
      </trkpt>
      <trkpt lat="42.27996" lon="1.78928">
        <ele>1198.111</ele>
        <time>2019-04-08T02:44:26Z</time>
      </trkpt>
      <trkpt lat="42.27991" lon="1.78929">
        <ele>1198.36</ele>
        <time>2019-04-08T02:44:28Z</time>
      </trkpt>
      <trkpt lat="42.27991" lon="1.78927">
        <ele>1197.972</ele>
        <time>2019-04-08T02:44:28Z</time>
      </trkpt>
      <trkpt lat="42.27993" lon="1.78927">
        <ele>1197.671</ele>
        <time>2019-04-08T02:44:29Z</time>
      </trkpt>
      <trkpt lat="42.27994" lon="1.78923">
        <ele>1197.141</ele>
        <time>2019-04-08T02:44:30Z</time>
      </trkpt>
      <trkpt lat="42.27994" lon="1.78921">
        <ele>1197.115</ele>
        <time>2019-04-08T02:44:31Z</time>
      </trkpt>
      <trkpt lat="42.27993" lon="1.78913">
        <ele>1197.308</ele>
        <time>2019-04-08T02:44:33Z</time>
      </trkpt>
      <trkpt lat="42.27991" lon="1.78922">
        <ele>1197.64</ele>
        <time>2019-04-08T02:44:36Z</time>
      </trkpt>
      <trkpt lat="42.27988" lon="1.78928">
        <ele>1198.052</ele>
        <time>2019-04-08T02:44:38Z</time>
      </trkpt>
      <trkpt lat="42.27987" lon="1.78929">
        <ele>1198.367</ele>
        <time>2019-04-08T02:44:39Z</time>
      </trkpt>
      <trkpt lat="42.27985" lon="1.78932">
        <ele>1198.598</ele>
        <time>2019-04-08T02:44:40Z</time>
      </trkpt>
      <trkpt lat="42.27983" lon="1.78934">
        <ele>1198.638</ele>
        <time>2019-04-08T02:44:41Z</time>
      </trkpt>
      <trkpt lat="42.27981" lon="1.78937">
        <ele>1198.752</ele>
        <time>2019-04-08T02:44:42Z</time>
      </trkpt>
      <trkpt lat="42.27979" lon="1.7894">
        <ele>1198.531</ele>
        <time>2019-04-08T02:44:43Z</time>
      </trkpt>
      <trkpt lat="42.27976" lon="1.78943">
        <ele>1198.673</ele>
        <time>2019-04-08T02:44:45Z</time>
      </trkpt>
      <trkpt lat="42.27974" lon="1.78943">
        <ele>1198.378</ele>
        <time>2019-04-08T02:44:45Z</time>
      </trkpt>
      <trkpt lat="42.27973" lon="1.78941">
        <ele>1197.733</ele>
        <time>2019-04-08T02:44:46Z</time>
      </trkpt>
      <trkpt lat="42.27973" lon="1.7894">
        <ele>1197.026</ele>
        <time>2019-04-08T02:44:46Z</time>
      </trkpt>
      <trkpt lat="42.27973" lon="1.78941">
        <ele>1195.408</ele>
        <time>2019-04-08T02:44:47Z</time>
      </trkpt>
      <trkpt lat="42.27972" lon="1.78942">
        <ele>1195.02</ele>
        <time>2019-04-08T02:44:47Z</time>
      </trkpt>
      <trkpt lat="42.27972" lon="1.78942">
        <ele>1194.292</ele>
        <time>2019-04-08T02:44:47Z</time>
      </trkpt>
      <trkpt lat="42.27971" lon="1.7894">
        <ele>1193.057</ele>
        <time>2019-04-08T02:44:48Z</time>
      </trkpt>
      <trkpt lat="42.27968" lon="1.78939">
        <ele>1191.948</ele>
        <time>2019-04-08T02:44:49Z</time>
      </trkpt>
      <trkpt lat="42.27965" lon="1.78939">
        <ele>1191.268</ele>
        <time>2019-04-08T02:44:50Z</time>
      </trkpt>
      <trkpt lat="42.27963" lon="1.78938">
        <ele>1190.672</ele>
        <time>2019-04-08T02:44:51Z</time>
      </trkpt>
      <trkpt lat="42.27961" lon="1.78934">
        <ele>1189.771</ele>
        <time>2019-04-08T02:44:52Z</time>
      </trkpt>
      <trkpt lat="42.27959" lon="1.78934">
        <ele>1189.233</ele>
        <time>2019-04-08T02:44:53Z</time>
      </trkpt>
      <trkpt lat="42.27956" lon="1.78937">
        <ele>1188.252</ele>
        <time>2019-04-08T02:44:55Z</time>
      </trkpt>
      <trkpt lat="42.27954" lon="1.7894">
        <ele>1188.253</ele>
        <time>2019-04-08T02:44:56Z</time>
      </trkpt>
      <trkpt lat="42.27951" lon="1.78944">
        <ele>1187.308</ele>
        <time>2019-04-08T02:44:57Z</time>
      </trkpt>
      <trkpt lat="42.27951" lon="1.78945">
        <ele>1187.108</ele>
        <time>2019-04-08T02:44:58Z</time>
      </trkpt>
      <trkpt lat="42.27948" lon="1.78946">
        <ele>1186.978</ele>
        <time>2019-04-08T02:44:59Z</time>
      </trkpt>
      <trkpt lat="42.27947" lon="1.78945">
        <ele>1186.36</ele>
        <time>2019-04-08T02:44:59Z</time>
      </trkpt>
      <trkpt lat="42.2795" lon="1.78946">
        <ele>1186.775</ele>
        <time>2019-04-08T02:45:00Z</time>
      </trkpt>
      <trkpt lat="42.27952" lon="1.78947">
        <ele>1186.276</ele>
        <time>2019-04-08T02:45:01Z</time>
      </trkpt>
      <trkpt lat="42.27953" lon="1.78948">
        <ele>1186.116</ele>
        <time>2019-04-08T02:45:02Z</time>
      </trkpt>
      <trkpt lat="42.27954" lon="1.7895">
        <ele>1185.35</ele>
        <time>2019-04-08T02:45:03Z</time>
      </trkpt>
      <trkpt lat="42.27955" lon="1.7895">
        <ele>1185.289</ele>
        <time>2019-04-08T02:45:03Z</time>
      </trkpt>
      <trkpt lat="42.27953" lon="1.78947">
        <ele>1183.941</ele>
        <time>2019-04-08T02:45:04Z</time>
      </trkpt>
      <trkpt lat="42.27953" lon="1.78947">
        <ele>1183.748</ele>
        <time>2019-04-08T02:45:04Z</time>
      </trkpt>
      <trkpt lat="42.27952" lon="1.78948">
        <ele>1183.061</ele>
        <time>2019-04-08T02:45:04Z</time>
      </trkpt>
      <trkpt lat="42.27951" lon="1.78949">
        <ele>1182.617</ele>
        <time>2019-04-08T02:45:05Z</time>
      </trkpt>
      <trkpt lat="42.27949" lon="1.78949">
        <ele>1181.908</ele>
        <time>2019-04-08T02:45:06Z</time>
      </trkpt>
      <trkpt lat="42.27948" lon="1.78947">
        <ele>1181.037</ele>
        <time>2019-04-08T02:45:06Z</time>
      </trkpt>
      <trkpt lat="42.27948" lon="1.78947">
        <ele>1180.899</ele>
        <time>2019-04-08T02:45:07Z</time>
      </trkpt>
      <trkpt lat="42.27947" lon="1.78947">
        <ele>1179.724</ele>
        <time>2019-04-08T02:45:07Z</time>
      </trkpt>
      <trkpt lat="42.27947" lon="1.78947">
        <ele>1179.795</ele>
        <time>2019-04-08T02:45:07Z</time>
      </trkpt>
      <trkpt lat="42.27948" lon="1.78949">
        <ele>1178.765</ele>
        <time>2019-04-08T02:45:07Z</time>
      </trkpt>
      <trkpt lat="42.27947" lon="1.7895">
        <ele>1178.389</ele>
        <time>2019-04-08T02:45:08Z</time>
      </trkpt>
      <trkpt lat="42.27945" lon="1.7895">
        <ele>1177.278</ele>
        <time>2019-04-08T02:45:08Z</time>
      </trkpt>
      <trkpt lat="42.27944" lon="1.78951">
        <ele>1177.02</ele>
        <time>2019-04-08T02:45:09Z</time>
      </trkpt>
      <trkpt lat="42.27939" lon="1.78951">
        <ele>1176.047</ele>
        <time>2019-04-08T02:45:11Z</time>
      </trkpt>
      <trkpt lat="42.27936" lon="1.78951">
        <ele>1175.829</ele>
        <time>2019-04-08T02:45:12Z</time>
      </trkpt>
      <trkpt lat="42.27935" lon="1.7895">
        <ele>1175.521</ele>
        <time>2019-04-08T02:45:13Z</time>
      </trkpt>
      <trkpt lat="42.27932" lon="1.78948">
        <ele>1174.908</ele>
        <time>2019-04-08T02:45:14Z</time>
      </trkpt>
      <trkpt lat="42.2793" lon="1.78948">
        <ele>1174.687</ele>
        <time>2019-04-08T02:45:15Z</time>
      </trkpt>
      <trkpt lat="42.27925" lon="1.78947">
        <ele>1174.229</ele>
        <time>2019-04-08T02:45:17Z</time>
      </trkpt>
      <trkpt lat="42.27924" lon="1.78948">
        <ele>1174.134</ele>
        <time>2019-04-08T02:45:17Z</time>
      </trkpt>
      <trkpt lat="42.27925" lon="1.78952">
        <ele>1173.835</ele>
        <time>2019-04-08T02:45:18Z</time>
      </trkpt>
      <trkpt lat="42.27923" lon="1.78955">
        <ele>1173.185</ele>
        <time>2019-04-08T02:45:20Z</time>
      </trkpt>
      <trkpt lat="42.27923" lon="1.78956">
        <ele>1173.369</ele>
        <time>2019-04-08T02:45:20Z</time>
      </trkpt>
      <trkpt lat="42.27922" lon="1.78959">
        <ele>1173.338</ele>
        <time>2019-04-08T02:45:21Z</time>
      </trkpt>
      <trkpt lat="42.27921" lon="1.78959">
        <ele>1173.38</ele>
        <time>2019-04-08T02:45:21Z</time>
      </trkpt>
      <trkpt lat="42.27916" lon="1.78959">
        <ele>1172.798</ele>
        <time>2019-04-08T02:45:23Z</time>
      </trkpt>
      <trkpt lat="42.27914" lon="1.78959">
        <ele>1171.715</ele>
        <time>2019-04-08T02:45:24Z</time>
      </trkpt>
      <trkpt lat="42.27912" lon="1.78959">
        <ele>1171.426</ele>
        <time>2019-04-08T02:45:25Z</time>
      </trkpt>
      <trkpt lat="42.27907" lon="1.78956">
        <ele>1170.508</ele>
        <time>2019-04-08T02:45:27Z</time>
      </trkpt>
      <trkpt lat="42.27907" lon="1.78956">
        <ele>1170.542</ele>
        <time>2019-04-08T02:45:27Z</time>
      </trkpt>
      <trkpt lat="42.27906" lon="1.78956">
        <ele>1170.564</ele>
        <time>2019-04-08T02:45:27Z</time>
      </trkpt>
      <trkpt lat="42.27904" lon="1.78957">
        <ele>1169.779</ele>
        <time>2019-04-08T02:45:28Z</time>
      </trkpt>
      <trkpt lat="42.27903" lon="1.78957">
        <ele>1169.66</ele>
        <time>2019-04-08T02:45:29Z</time>
      </trkpt>
      <trkpt lat="42.27901" lon="1.78956">
        <ele>1169.32</ele>
        <time>2019-04-08T02:45:30Z</time>
      </trkpt>
      <trkpt lat="42.279" lon="1.78954">
        <ele>1168.894</ele>
        <time>2019-04-08T02:45:30Z</time>
      </trkpt>
      <trkpt lat="42.27898" lon="1.78953">
        <ele>1168.173</ele>
        <time>2019-04-08T02:45:31Z</time>
      </trkpt>
      <trkpt lat="42.27897" lon="1.78953">
        <ele>1168.395</ele>
        <time>2019-04-08T02:45:32Z</time>
      </trkpt>
      <trkpt lat="42.27894" lon="1.78954">
        <ele>1167.787</ele>
        <time>2019-04-08T02:45:33Z</time>
      </trkpt>
      <trkpt lat="42.27892" lon="1.78955">
        <ele>1167.742</ele>
        <time>2019-04-08T02:45:34Z</time>
      </trkpt>
      <trkpt lat="42.27891" lon="1.78955">
        <ele>1167.326</ele>
        <time>2019-04-08T02:45:34Z</time>
      </trkpt>
      <trkpt lat="42.27889" lon="1.78957">
        <ele>1166.608</ele>
        <time>2019-04-08T02:45:35Z</time>
      </trkpt>
      <trkpt lat="42.27886" lon="1.78958">
        <ele>1166.361</ele>
        <time>2019-04-08T02:45:36Z</time>
      </trkpt>
      <trkpt lat="42.27885" lon="1.78959">
        <ele>1166.153</ele>
        <time>2019-04-08T02:45:37Z</time>
      </trkpt>
      <trkpt lat="42.27882" lon="1.78959">
        <ele>1166.298</ele>
        <time>2019-04-08T02:45:38Z</time>
      </trkpt>
      <trkpt lat="42.2788" lon="1.78958">
        <ele>1166.179</ele>
        <time>2019-04-08T02:45:39Z</time>
      </trkpt>
      <trkpt lat="42.27878" lon="1.7896">
        <ele>1164.949</ele>
        <time>2019-04-08T02:45:40Z</time>
      </trkpt>
      <trkpt lat="42.27877" lon="1.7896">
        <ele>1164.723</ele>
        <time>2019-04-08T02:45:40Z</time>
      </trkpt>
      <trkpt lat="42.27876" lon="1.7896">
        <ele>1164.222</ele>
        <time>2019-04-08T02:45:41Z</time>
      </trkpt>
      <trkpt lat="42.2787" lon="1.78961">
        <ele>1163.634</ele>
        <time>2019-04-08T02:45:43Z</time>
      </trkpt>
      <trkpt lat="42.27869" lon="1.78961">
        <ele>1163.524</ele>
        <time>2019-04-08T02:45:43Z</time>
      </trkpt>
      <trkpt lat="42.27858" lon="1.78963">
        <ele>1163.204</ele>
        <time>2019-04-08T02:45:48Z</time>
      </trkpt>
      <trkpt lat="42.27857" lon="1.78964">
        <ele>1162.614</ele>
        <time>2019-04-08T02:45:48Z</time>
      </trkpt>
      <trkpt lat="42.27856" lon="1.78965">
        <ele>1162.308</ele>
        <time>2019-04-08T02:45:49Z</time>
      </trkpt>
      <trkpt lat="42.27853" lon="1.78966">
        <ele>1161.245</ele>
        <time>2019-04-08T02:45:50Z</time>
      </trkpt>
      <trkpt lat="42.2785" lon="1.78968">
        <ele>1160.397</ele>
        <time>2019-04-08T02:45:51Z</time>
      </trkpt>
      <trkpt lat="42.27845" lon="1.78966">
        <ele>1159.292</ele>
        <time>2019-04-08T02:45:53Z</time>
      </trkpt>
      <trkpt lat="42.27843" lon="1.78963">
        <ele>1158.683</ele>
        <time>2019-04-08T02:45:54Z</time>
      </trkpt>
      <trkpt lat="42.27842" lon="1.78962">
        <ele>1158.373</ele>
        <time>2019-04-08T02:45:55Z</time>
      </trkpt>
      <trkpt lat="42.27839" lon="1.78959">
        <ele>1157.077</ele>
        <time>2019-04-08T02:45:56Z</time>
      </trkpt>
      <trkpt lat="42.27838" lon="1.78958">
        <ele>1156.426</ele>
        <time>2019-04-08T02:45:57Z</time>
      </trkpt>
      <trkpt lat="42.27838" lon="1.78958">
        <ele>1156.228</ele>
        <time>2019-04-08T02:45:57Z</time>
      </trkpt>
      <trkpt lat="42.27838" lon="1.78958">
        <ele>1155.714</ele>
        <time>2019-04-08T02:45:57Z</time>
      </trkpt>
      <trkpt lat="42.27838" lon="1.78958">
        <ele>1155.854</ele>
        <time>2019-04-08T02:45:57Z</time>
      </trkpt>
      <trkpt lat="42.27837" lon="1.78957">
        <ele>1154.909</ele>
        <time>2019-04-08T02:45:58Z</time>
      </trkpt>
      <trkpt lat="42.27836" lon="1.78955">
        <ele>1154.508</ele>
        <time>2019-04-08T02:45:58Z</time>
      </trkpt>
      <trkpt lat="42.27836" lon="1.78954">
        <ele>1154.214</ele>
        <time>2019-04-08T02:45:59Z</time>
      </trkpt>
      <trkpt lat="42.27835" lon="1.78954">
        <ele>1154.026</ele>
        <time>2019-04-08T02:45:59Z</time>
      </trkpt>
      <trkpt lat="42.27834" lon="1.78954">
        <ele>1153.791</ele>
        <time>2019-04-08T02:45:59Z</time>
      </trkpt>
      <trkpt lat="42.27832" lon="1.78955">
        <ele>1153.372</ele>
        <time>2019-04-08T02:46:00Z</time>
      </trkpt>
      <trkpt lat="42.27829" lon="1.78956">
        <ele>1153.382</ele>
        <time>2019-04-08T02:46:02Z</time>
      </trkpt>
      <trkpt lat="42.27827" lon="1.78957">
        <ele>1153.486</ele>
        <time>2019-04-08T02:46:02Z</time>
      </trkpt>
      <trkpt lat="42.27825" lon="1.78959">
        <ele>1153.385</ele>
        <time>2019-04-08T02:46:03Z</time>
      </trkpt>
      <trkpt lat="42.27825" lon="1.78962">
        <ele>1153.267</ele>
        <time>2019-04-08T02:46:04Z</time>
      </trkpt>
      <trkpt lat="42.27824" lon="1.78965">
        <ele>1152.721</ele>
        <time>2019-04-08T02:46:05Z</time>
      </trkpt>
      <trkpt lat="42.27823" lon="1.78966">
        <ele>1152.241</ele>
        <time>2019-04-08T02:46:05Z</time>
      </trkpt>
      <trkpt lat="42.2782" lon="1.78969">
        <ele>1151.005</ele>
        <time>2019-04-08T02:46:07Z</time>
      </trkpt>
      <trkpt lat="42.27819" lon="1.78969">
        <ele>1151.008</ele>
        <time>2019-04-08T02:46:07Z</time>
      </trkpt>
      <trkpt lat="42.27819" lon="1.7897">
        <ele>1150.885</ele>
        <time>2019-04-08T02:46:08Z</time>
      </trkpt>
      <trkpt lat="42.27816" lon="1.7897">
        <ele>1150.347</ele>
        <time>2019-04-08T02:46:09Z</time>
      </trkpt>
      <trkpt lat="42.27811" lon="1.7897">
        <ele>1148.962</ele>
        <time>2019-04-08T02:46:11Z</time>
      </trkpt>
      <trkpt lat="42.27808" lon="1.7897">
        <ele>1148.433</ele>
        <time>2019-04-08T02:46:12Z</time>
      </trkpt>
      <trkpt lat="42.27804" lon="1.78969">
        <ele>1148.283</ele>
        <time>2019-04-08T02:46:13Z</time>
      </trkpt>
      <trkpt lat="42.27802" lon="1.78968">
        <ele>1147.757</ele>
        <time>2019-04-08T02:46:14Z</time>
      </trkpt>
      <trkpt lat="42.278" lon="1.78967">
        <ele>1147.456</ele>
        <time>2019-04-08T02:46:15Z</time>
      </trkpt>
      <trkpt lat="42.27796" lon="1.78964">
        <ele>1148.078</ele>
        <time>2019-04-08T02:46:17Z</time>
      </trkpt>
      <trkpt lat="42.27795" lon="1.78962">
        <ele>1148.032</ele>
        <time>2019-04-08T02:46:18Z</time>
      </trkpt>
      <trkpt lat="42.27793" lon="1.7896">
        <ele>1148.292</ele>
        <time>2019-04-08T02:46:19Z</time>
      </trkpt>
      <trkpt lat="42.27792" lon="1.7896">
        <ele>1147.811</ele>
        <time>2019-04-08T02:46:19Z</time>
      </trkpt>
      <trkpt lat="42.27788" lon="1.78959">
        <ele>1146.608</ele>
        <time>2019-04-08T02:46:21Z</time>
      </trkpt>
      <trkpt lat="42.27786" lon="1.78958">
        <ele>1146.416</ele>
        <time>2019-04-08T02:46:22Z</time>
      </trkpt>
      <trkpt lat="42.27783" lon="1.78959">
        <ele>1146.738</ele>
        <time>2019-04-08T02:46:23Z</time>
      </trkpt>
      <trkpt lat="42.27781" lon="1.7896">
        <ele>1147.013</ele>
        <time>2019-04-08T02:46:23Z</time>
      </trkpt>
      <trkpt lat="42.27776" lon="1.78957">
        <ele>1147.514</ele>
        <time>2019-04-08T02:46:26Z</time>
      </trkpt>
      <trkpt lat="42.27775" lon="1.78957">
        <ele>1148.034</ele>
        <time>2019-04-08T02:46:26Z</time>
      </trkpt>
      <trkpt lat="42.27774" lon="1.78957">
        <ele>1148.198</ele>
        <time>2019-04-08T02:46:27Z</time>
      </trkpt>
      <trkpt lat="42.27766" lon="1.78954">
        <ele>1148.327</ele>
        <time>2019-04-08T02:46:30Z</time>
      </trkpt>
      <trkpt lat="42.27765" lon="1.78952">
        <ele>1148.349</ele>
        <time>2019-04-08T02:46:31Z</time>
      </trkpt>
      <trkpt lat="42.27764" lon="1.78951">
        <ele>1148.379</ele>
        <time>2019-04-08T02:46:31Z</time>
      </trkpt>
      <trkpt lat="42.27762" lon="1.78948">
        <ele>1148.405</ele>
        <time>2019-04-08T02:46:32Z</time>
      </trkpt>
      <trkpt lat="42.27761" lon="1.78947">
        <ele>1148.725</ele>
        <time>2019-04-08T02:46:33Z</time>
      </trkpt>
      <trkpt lat="42.2776" lon="1.78946">
        <ele>1148.708</ele>
        <time>2019-04-08T02:46:33Z</time>
      </trkpt>
      <trkpt lat="42.27757" lon="1.78944">
        <ele>1148.94</ele>
        <time>2019-04-08T02:46:34Z</time>
      </trkpt>
      <trkpt lat="42.27755" lon="1.78938">
        <ele>1149.212</ele>
        <time>2019-04-08T02:46:36Z</time>
      </trkpt>
      <trkpt lat="42.27754" lon="1.78934">
        <ele>1149.447</ele>
        <time>2019-04-08T02:46:37Z</time>
      </trkpt>
      <trkpt lat="42.27751" lon="1.78931">
        <ele>1149.598</ele>
        <time>2019-04-08T02:46:39Z</time>
      </trkpt>
      <trkpt lat="42.27749" lon="1.78929">
        <ele>1149.848</ele>
        <time>2019-04-08T02:46:40Z</time>
      </trkpt>
      <trkpt lat="42.27747" lon="1.78928">
        <ele>1149.682</ele>
        <time>2019-04-08T02:46:41Z</time>
      </trkpt>
      <trkpt lat="42.27738" lon="1.78923">
        <ele>1149.051</ele>
        <time>2019-04-08T02:46:45Z</time>
      </trkpt>
      <trkpt lat="42.27731" lon="1.7892">
        <ele>1149.563</ele>
        <time>2019-04-08T02:46:48Z</time>
      </trkpt>
      <trkpt lat="42.27729" lon="1.7892">
        <ele>1149.683</ele>
        <time>2019-04-08T02:46:49Z</time>
      </trkpt>
      <trkpt lat="42.27727" lon="1.78921">
        <ele>1149.925</ele>
        <time>2019-04-08T02:46:49Z</time>
      </trkpt>
      <trkpt lat="42.27724" lon="1.7892">
        <ele>1150.117</ele>
        <time>2019-04-08T02:46:51Z</time>
      </trkpt>
      <trkpt lat="42.27722" lon="1.78921">
        <ele>1150.208</ele>
        <time>2019-04-08T02:46:51Z</time>
      </trkpt>
      <trkpt lat="42.27722" lon="1.78923">
        <ele>1150.791</ele>
        <time>2019-04-08T02:46:52Z</time>
      </trkpt>
      <trkpt lat="42.27721" lon="1.78923">
        <ele>1151.153</ele>
        <time>2019-04-08T02:46:52Z</time>
      </trkpt>
      <trkpt lat="42.27719" lon="1.78926">
        <ele>1151.438</ele>
        <time>2019-04-08T02:46:53Z</time>
      </trkpt>
      <trkpt lat="42.27719" lon="1.78926">
        <ele>1151.349</ele>
        <time>2019-04-08T02:46:53Z</time>
      </trkpt>
      <trkpt lat="42.27718" lon="1.78928">
        <ele>1151.289</ele>
        <time>2019-04-08T02:46:54Z</time>
      </trkpt>
      <trkpt lat="42.27718" lon="1.78931">
        <ele>1150.323</ele>
        <time>2019-04-08T02:46:55Z</time>
      </trkpt>
      <trkpt lat="42.27718" lon="1.78932">
        <ele>1150.222</ele>
        <time>2019-04-08T02:46:55Z</time>
      </trkpt>
      <trkpt lat="42.27717" lon="1.78934">
        <ele>1149.684</ele>
        <time>2019-04-08T02:46:56Z</time>
      </trkpt>
      <trkpt lat="42.27712" lon="1.78936">
        <ele>1148.762</ele>
        <time>2019-04-08T02:46:58Z</time>
      </trkpt>
      <trkpt lat="42.27711" lon="1.78935">
        <ele>1148.283</ele>
        <time>2019-04-08T02:46:59Z</time>
      </trkpt>
      <trkpt lat="42.27711" lon="1.78935">
        <ele>1147.611</ele>
        <time>2019-04-08T02:46:59Z</time>
      </trkpt>
      <trkpt lat="42.27708" lon="1.78939">
        <ele>1146.608</ele>
        <time>2019-04-08T02:47:01Z</time>
      </trkpt>
      <trkpt lat="42.27706" lon="1.7894">
        <ele>1146.019</ele>
        <time>2019-04-08T02:47:01Z</time>
      </trkpt>
      <trkpt lat="42.27705" lon="1.78942">
        <ele>1145.441</ele>
        <time>2019-04-08T02:47:02Z</time>
      </trkpt>
      <trkpt lat="42.27705" lon="1.78942">
        <ele>1145.026</ele>
        <time>2019-04-08T02:47:02Z</time>
      </trkpt>
      <trkpt lat="42.27706" lon="1.78943">
        <ele>1144.337</ele>
        <time>2019-04-08T02:47:03Z</time>
      </trkpt>
      <trkpt lat="42.27706" lon="1.78945">
        <ele>1143.947</ele>
        <time>2019-04-08T02:47:03Z</time>
      </trkpt>
      <trkpt lat="42.27707" lon="1.78946">
        <ele>1143.731</ele>
        <time>2019-04-08T02:47:04Z</time>
      </trkpt>
      <trkpt lat="42.27707" lon="1.78946">
        <ele>1143.27</ele>
        <time>2019-04-08T02:47:04Z</time>
      </trkpt>
      <trkpt lat="42.27704" lon="1.78949">
        <ele>1142.652</ele>
        <time>2019-04-08T02:47:05Z</time>
      </trkpt>
      <trkpt lat="42.27695" lon="1.78948">
        <ele>1142.726</ele>
        <time>2019-04-08T02:47:09Z</time>
      </trkpt>
      <trkpt lat="42.27694" lon="1.78948">
        <ele>1142.747</ele>
        <time>2019-04-08T02:47:09Z</time>
      </trkpt>
      <trkpt lat="42.27691" lon="1.7895">
        <ele>1141.911</ele>
        <time>2019-04-08T02:47:11Z</time>
      </trkpt>
      <trkpt lat="42.27688" lon="1.7895">
        <ele>1141.308</ele>
        <time>2019-04-08T02:47:12Z</time>
      </trkpt>
      <trkpt lat="42.27687" lon="1.78951">
        <ele>1141.075</ele>
        <time>2019-04-08T02:47:12Z</time>
      </trkpt>
      <trkpt lat="42.27686" lon="1.78952">
        <ele>1140.567</ele>
        <time>2019-04-08T02:47:13Z</time>
      </trkpt>
      <trkpt lat="42.27684" lon="1.78953">
        <ele>1139.612</ele>
        <time>2019-04-08T02:47:14Z</time>
      </trkpt>
      <trkpt lat="42.27684" lon="1.78953">
        <ele>1139.613</ele>
        <time>2019-04-08T02:47:14Z</time>
      </trkpt>
      <trkpt lat="42.27683" lon="1.78953">
        <ele>1139.193</ele>
        <time>2019-04-08T02:47:14Z</time>
      </trkpt>
      <trkpt lat="42.27682" lon="1.78954">
        <ele>1138.577</ele>
        <time>2019-04-08T02:47:15Z</time>
      </trkpt>
      <trkpt lat="42.27682" lon="1.78955">
        <ele>1138.266</ele>
        <time>2019-04-08T02:47:15Z</time>
      </trkpt>
      <trkpt lat="42.27682" lon="1.78956">
        <ele>1137.678</ele>
        <time>2019-04-08T02:47:15Z</time>
      </trkpt>
      <trkpt lat="42.27681" lon="1.78956">
        <ele>1137.139</ele>
        <time>2019-04-08T02:47:16Z</time>
      </trkpt>
      <trkpt lat="42.2768" lon="1.78959">
        <ele>1136.001</ele>
        <time>2019-04-08T02:47:17Z</time>
      </trkpt>
      <trkpt lat="42.27679" lon="1.78961">
        <ele>1135.621</ele>
        <time>2019-04-08T02:47:17Z</time>
      </trkpt>
      <trkpt lat="42.27678" lon="1.7896">
        <ele>1135.008</ele>
        <time>2019-04-08T02:47:18Z</time>
      </trkpt>
      <trkpt lat="42.27674" lon="1.7896">
        <ele>1133.666</ele>
        <time>2019-04-08T02:47:19Z</time>
      </trkpt>
      <trkpt lat="42.27671" lon="1.78959">
        <ele>1132.638</ele>
        <time>2019-04-08T02:47:21Z</time>
      </trkpt>
      <trkpt lat="42.2767" lon="1.78958">
        <ele>1131.523</ele>
        <time>2019-04-08T02:47:21Z</time>
      </trkpt>
      <trkpt lat="42.2767" lon="1.78958">
        <ele>1131.224</ele>
        <time>2019-04-08T02:47:21Z</time>
      </trkpt>
      <trkpt lat="42.27669" lon="1.78957">
        <ele>1130.784</ele>
        <time>2019-04-08T02:47:22Z</time>
      </trkpt>
      <trkpt lat="42.27668" lon="1.78955">
        <ele>1130.068</ele>
        <time>2019-04-08T02:47:22Z</time>
      </trkpt>
      <trkpt lat="42.27667" lon="1.78954">
        <ele>1130.197</ele>
        <time>2019-04-08T02:47:23Z</time>
      </trkpt>
      <trkpt lat="42.27667" lon="1.78953">
        <ele>1130.099</ele>
        <time>2019-04-08T02:47:23Z</time>
      </trkpt>
      <trkpt lat="42.27667" lon="1.78953">
        <ele>1130.017</ele>
        <time>2019-04-08T02:47:23Z</time>
      </trkpt>
      <trkpt lat="42.27667" lon="1.78953">
        <ele>1129.787</ele>
        <time>2019-04-08T02:47:23Z</time>
      </trkpt>
      <trkpt lat="42.27666" lon="1.78954">
        <ele>1129.615</ele>
        <time>2019-04-08T02:47:23Z</time>
      </trkpt>
      <trkpt lat="42.2766" lon="1.78958">
        <ele>1128.908</ele>
        <time>2019-04-08T02:47:26Z</time>
      </trkpt>
      <trkpt lat="42.27657" lon="1.78959">
        <ele>1127.754</ele>
        <time>2019-04-08T02:47:27Z</time>
      </trkpt>
      <trkpt lat="42.27653" lon="1.78958">
        <ele>1126.826</ele>
        <time>2019-04-08T02:47:29Z</time>
      </trkpt>
      <trkpt lat="42.27653" lon="1.78957">
        <ele>1126.511</ele>
        <time>2019-04-08T02:47:29Z</time>
      </trkpt>
      <trkpt lat="42.27652" lon="1.78955">
        <ele>1125.842</ele>
        <time>2019-04-08T02:47:30Z</time>
      </trkpt>
      <trkpt lat="42.27651" lon="1.78954">
        <ele>1125.872</ele>
        <time>2019-04-08T02:47:30Z</time>
      </trkpt>
      <trkpt lat="42.27649" lon="1.78951">
        <ele>1125.146</ele>
        <time>2019-04-08T02:47:32Z</time>
      </trkpt>
      <trkpt lat="42.27649" lon="1.7895">
        <ele>1125.295</ele>
        <time>2019-04-08T02:47:32Z</time>
      </trkpt>
      <trkpt lat="42.27648" lon="1.78949">
        <ele>1124.787</ele>
        <time>2019-04-08T02:47:32Z</time>
      </trkpt>
      <trkpt lat="42.27645" lon="1.78947">
        <ele>1124.495</ele>
        <time>2019-04-08T02:47:34Z</time>
      </trkpt>
      <trkpt lat="42.27642" lon="1.78951">
        <ele>1124.949</ele>
        <time>2019-04-08T02:47:36Z</time>
      </trkpt>
      <trkpt lat="42.2764" lon="1.78953">
        <ele>1125.223</ele>
        <time>2019-04-08T02:47:36Z</time>
      </trkpt>
      <trkpt lat="42.27639" lon="1.78956">
        <ele>1125.608</ele>
        <time>2019-04-08T02:47:37Z</time>
      </trkpt>
      <trkpt lat="42.27636" lon="1.78957">
        <ele>1126.052</ele>
        <time>2019-04-08T02:47:39Z</time>
      </trkpt>
      <trkpt lat="42.27635" lon="1.78958">
        <ele>1126.094</ele>
        <time>2019-04-08T02:47:39Z</time>
      </trkpt>
      <trkpt lat="42.27631" lon="1.78959">
        <ele>1126.179</ele>
        <time>2019-04-08T02:47:41Z</time>
      </trkpt>
      <trkpt lat="42.27628" lon="1.78959">
        <ele>1125.96</ele>
        <time>2019-04-08T02:47:42Z</time>
      </trkpt>
      <trkpt lat="42.27618" lon="1.78956">
        <ele>1124.86</ele>
        <time>2019-04-08T02:47:46Z</time>
      </trkpt>
      <trkpt lat="42.27617" lon="1.78955">
        <ele>1124.284</ele>
        <time>2019-04-08T02:47:47Z</time>
      </trkpt>
      <trkpt lat="42.27614" lon="1.78955">
        <ele>1123.313</ele>
        <time>2019-04-08T02:47:48Z</time>
      </trkpt>
      <trkpt lat="42.27612" lon="1.78955">
        <ele>1123.395</ele>
        <time>2019-04-08T02:47:48Z</time>
      </trkpt>
      <trkpt lat="42.27612" lon="1.78955">
        <ele>1123.269</ele>
        <time>2019-04-08T02:47:49Z</time>
      </trkpt>
      <trkpt lat="42.27609" lon="1.78955">
        <ele>1122.704</ele>
        <time>2019-04-08T02:47:50Z</time>
      </trkpt>
      <trkpt lat="42.27608" lon="1.78955">
        <ele>1122.324</ele>
        <time>2019-04-08T02:47:50Z</time>
      </trkpt>
      <trkpt lat="42.27604" lon="1.78954">
        <ele>1122.408</ele>
        <time>2019-04-08T02:47:52Z</time>
      </trkpt>
      <trkpt lat="42.27601" lon="1.78953">
        <ele>1122.559</ele>
        <time>2019-04-08T02:47:53Z</time>
      </trkpt>
      <trkpt lat="42.27601" lon="1.78952">
        <ele>1122.581</ele>
        <time>2019-04-08T02:47:53Z</time>
      </trkpt>
      <trkpt lat="42.27595" lon="1.78948">
        <ele>1121.576</ele>
        <time>2019-04-08T02:47:56Z</time>
      </trkpt>
      <trkpt lat="42.27595" lon="1.78947">
        <ele>1121.477</ele>
        <time>2019-04-08T02:47:56Z</time>
      </trkpt>
      <trkpt lat="42.27593" lon="1.78946">
        <ele>1120.857</ele>
        <time>2019-04-08T02:47:57Z</time>
      </trkpt>
      <trkpt lat="42.27591" lon="1.78948">
        <ele>1119.671</ele>
        <time>2019-04-08T02:47:58Z</time>
      </trkpt>
      <trkpt lat="42.27591" lon="1.78949">
        <ele>1119.75</ele>
        <time>2019-04-08T02:47:58Z</time>
      </trkpt>
      <trkpt lat="42.2759" lon="1.78949">
        <ele>1119.672</ele>
        <time>2019-04-08T02:47:58Z</time>
      </trkpt>
      <trkpt lat="42.27589" lon="1.7895">
        <ele>1119.319</ele>
        <time>2019-04-08T02:47:59Z</time>
      </trkpt>
      <trkpt lat="42.27587" lon="1.78949">
        <ele>1118.709</ele>
        <time>2019-04-08T02:48:00Z</time>
      </trkpt>
      <trkpt lat="42.27587" lon="1.78948">
        <ele>1118.219</ele>
        <time>2019-04-08T02:48:00Z</time>
      </trkpt>
      <trkpt lat="42.27581" lon="1.78945">
        <ele>1117.608</ele>
        <time>2019-04-08T02:48:02Z</time>
      </trkpt>
      <trkpt lat="42.27581" lon="1.78944">
        <ele>1117.274</ele>
        <time>2019-04-08T02:48:02Z</time>
      </trkpt>
      <trkpt lat="42.2758" lon="1.78944">
        <ele>1116.926</ele>
        <time>2019-04-08T02:48:03Z</time>
      </trkpt>
      <trkpt lat="42.27579" lon="1.78945">
        <ele>1116.211</ele>
        <time>2019-04-08T02:48:03Z</time>
      </trkpt>
      <trkpt lat="42.27577" lon="1.78946">
        <ele>1115.242</ele>
        <time>2019-04-08T02:48:04Z</time>
      </trkpt>
      <trkpt lat="42.27576" lon="1.78946">
        <ele>1115.142</ele>
        <time>2019-04-08T02:48:05Z</time>
      </trkpt>
      <trkpt lat="42.27576" lon="1.78945">
        <ele>1115.226</ele>
        <time>2019-04-08T02:48:05Z</time>
      </trkpt>
      <trkpt lat="42.27575" lon="1.78944">
        <ele>1115.645</ele>
        <time>2019-04-08T02:48:05Z</time>
      </trkpt>
      <trkpt lat="42.27569" lon="1.78946">
        <ele>1115.947</ele>
        <time>2019-04-08T02:48:08Z</time>
      </trkpt>
      <trkpt lat="42.27566" lon="1.78947">
        <ele>1116.223</ele>
        <time>2019-04-08T02:48:09Z</time>
      </trkpt>
      <trkpt lat="42.27565" lon="1.78945">
        <ele>1116.383</ele>
        <time>2019-04-08T02:48:09Z</time>
      </trkpt>
      <trkpt lat="42.2756" lon="1.78946">
        <ele>1116.611</ele>
        <time>2019-04-08T02:48:11Z</time>
      </trkpt>
      <trkpt lat="42.27554" lon="1.7895">
        <ele>1116.408</ele>
        <time>2019-04-08T02:48:14Z</time>
      </trkpt>
      <trkpt lat="42.27549" lon="1.78953">
        <ele>1115.645</ele>
        <time>2019-04-08T02:48:16Z</time>
      </trkpt>
      <trkpt lat="42.27545" lon="1.78959">
        <ele>1115.737</ele>
        <time>2019-04-08T02:48:19Z</time>
      </trkpt>
      <trkpt lat="42.27543" lon="1.7896">
        <ele>1115.282</ele>
        <time>2019-04-08T02:48:19Z</time>
      </trkpt>
      <trkpt lat="42.27542" lon="1.7896">
        <ele>1115.173</ele>
        <time>2019-04-08T02:48:20Z</time>
      </trkpt>
      <trkpt lat="42.27538" lon="1.78964">
        <ele>1114.323</ele>
        <time>2019-04-08T02:48:22Z</time>
      </trkpt>
      <trkpt lat="42.27534" lon="1.78966">
        <ele>1113.837</ele>
        <time>2019-04-08T02:48:23Z</time>
      </trkpt>
      <trkpt lat="42.27522" lon="1.78965">
        <ele>1113.096</ele>
        <time>2019-04-08T02:48:28Z</time>
      </trkpt>
      <trkpt lat="42.2752" lon="1.78965">
        <ele>1113.188</ele>
        <time>2019-04-08T02:48:29Z</time>
      </trkpt>
      <trkpt lat="42.27515" lon="1.7896">
        <ele>1112.223</ele>
        <time>2019-04-08T02:48:32Z</time>
      </trkpt>
      <trkpt lat="42.27513" lon="1.7896">
        <ele>1112.283</ele>
        <time>2019-04-08T02:48:32Z</time>
      </trkpt>
      <trkpt lat="42.27512" lon="1.7896">
        <ele>1112.011</ele>
        <time>2019-04-08T02:48:32Z</time>
      </trkpt>
      <trkpt lat="42.27507" lon="1.7896">
        <ele>1110.608</ele>
        <time>2019-04-08T02:48:35Z</time>
      </trkpt>
      <trkpt lat="42.27499" lon="1.7896">
        <ele>1110.235</ele>
        <time>2019-04-08T02:48:38Z</time>
      </trkpt>
      <trkpt lat="42.27486" lon="1.78959">
        <ele>1109.657</ele>
        <time>2019-04-08T02:48:43Z</time>
      </trkpt>
      <trkpt lat="42.27484" lon="1.78959">
        <ele>1109.222</ele>
        <time>2019-04-08T02:48:44Z</time>
      </trkpt>
      <trkpt lat="42.27482" lon="1.78958">
        <ele>1108.143</ele>
        <time>2019-04-08T02:48:45Z</time>
      </trkpt>
      <trkpt lat="42.2748" lon="1.78961">
        <ele>1107.813</ele>
        <time>2019-04-08T02:48:46Z</time>
      </trkpt>
      <trkpt lat="42.27477" lon="1.7896">
        <ele>1107.247</ele>
        <time>2019-04-08T02:48:47Z</time>
      </trkpt>
      <trkpt lat="42.27474" lon="1.78961">
        <ele>1106.626</ele>
        <time>2019-04-08T02:48:48Z</time>
      </trkpt>
      <trkpt lat="42.27472" lon="1.78963">
        <ele>1106.788</ele>
        <time>2019-04-08T02:48:49Z</time>
      </trkpt>
      <trkpt lat="42.27471" lon="1.78963">
        <ele>1106.176</ele>
        <time>2019-04-08T02:48:50Z</time>
      </trkpt>
      <trkpt lat="42.27469" lon="1.78966">
        <ele>1106.59</ele>
        <time>2019-04-08T02:48:51Z</time>
      </trkpt>
      <trkpt lat="42.27462" lon="1.78966">
        <ele>1106.719</ele>
        <time>2019-04-08T02:48:53Z</time>
      </trkpt>
      <trkpt lat="42.27459" lon="1.78967">
        <ele>1106.508</ele>
        <time>2019-04-08T02:48:55Z</time>
      </trkpt>
      <trkpt lat="42.27454" lon="1.78969">
        <ele>1106.25</ele>
        <time>2019-04-08T02:48:57Z</time>
      </trkpt>
      <trkpt lat="42.27453" lon="1.78968">
        <ele>1105.612</ele>
        <time>2019-04-08T02:48:57Z</time>
      </trkpt>
      <trkpt lat="42.27453" lon="1.78968">
        <ele>1104.987</ele>
        <time>2019-04-08T02:48:57Z</time>
      </trkpt>
      <trkpt lat="42.27451" lon="1.78968">
        <ele>1104.328</ele>
        <time>2019-04-08T02:48:58Z</time>
      </trkpt>
      <trkpt lat="42.2745" lon="1.78968">
        <ele>1104.218</ele>
        <time>2019-04-08T02:48:58Z</time>
      </trkpt>
      <trkpt lat="42.27449" lon="1.78967">
        <ele>1104.342</ele>
        <time>2019-04-08T02:48:59Z</time>
      </trkpt>
      <trkpt lat="42.27446" lon="1.78968">
        <ele>1104.121</ele>
        <time>2019-04-08T02:49:00Z</time>
      </trkpt>
      <trkpt lat="42.27444" lon="1.78968">
        <ele>1103.843</ele>
        <time>2019-04-08T02:49:01Z</time>
      </trkpt>
      <trkpt lat="42.27443" lon="1.78969">
        <ele>1103.587</ele>
        <time>2019-04-08T02:49:01Z</time>
      </trkpt>
      <trkpt lat="42.27438" lon="1.7897">
        <ele>1102.542</ele>
        <time>2019-04-08T02:49:03Z</time>
      </trkpt>
      <trkpt lat="42.27437" lon="1.7897">
        <ele>1102.226</ele>
        <time>2019-04-08T02:49:04Z</time>
      </trkpt>
      <trkpt lat="42.27437" lon="1.78971">
        <ele>1101.508</ele>
        <time>2019-04-08T02:49:04Z</time>
      </trkpt>
      <trkpt lat="42.27436" lon="1.78971">
        <ele>1100.621</ele>
        <time>2019-04-08T02:49:04Z</time>
      </trkpt>
      <trkpt lat="42.27436" lon="1.7897">
        <ele>1100.313</ele>
        <time>2019-04-08T02:49:05Z</time>
      </trkpt>
      <trkpt lat="42.27436" lon="1.7897">
        <ele>1100.248</ele>
        <time>2019-04-08T02:49:05Z</time>
      </trkpt>
      <trkpt lat="42.27435" lon="1.78968">
        <ele>1099.659</ele>
        <time>2019-04-08T02:49:05Z</time>
      </trkpt>
      <trkpt lat="42.27434" lon="1.78966">
        <ele>1099.539</ele>
        <time>2019-04-08T02:49:06Z</time>
      </trkpt>
      <trkpt lat="42.27434" lon="1.78964">
        <ele>1099.683</ele>
        <time>2019-04-08T02:49:07Z</time>
      </trkpt>
      <trkpt lat="42.27433" lon="1.78963">
        <ele>1099.712</ele>
        <time>2019-04-08T02:49:07Z</time>
      </trkpt>
      <trkpt lat="42.27428" lon="1.78963">
        <ele>1099.314</ele>
        <time>2019-04-08T02:49:09Z</time>
      </trkpt>
      <trkpt lat="42.27425" lon="1.78963">
        <ele>1099.192</ele>
        <time>2019-04-08T02:49:10Z</time>
      </trkpt>
      <trkpt lat="42.27418" lon="1.78962">
        <ele>1098.173</ele>
        <time>2019-04-08T02:49:13Z</time>
      </trkpt>
      <trkpt lat="42.27414" lon="1.78961">
        <ele>1097.72</ele>
        <time>2019-04-08T02:49:15Z</time>
      </trkpt>
      <trkpt lat="42.27409" lon="1.78961">
        <ele>1097.308</ele>
        <time>2019-04-08T02:49:17Z</time>
      </trkpt>
      <trkpt lat="42.27405" lon="1.78957">
        <ele>1096.332</ele>
        <time>2019-04-08T02:49:19Z</time>
      </trkpt>
      <trkpt lat="42.27401" lon="1.78951">
        <ele>1094.944</ele>
        <time>2019-04-08T02:49:21Z</time>
      </trkpt>
      <trkpt lat="42.27398" lon="1.78946">
        <ele>1093.879</ele>
        <time>2019-04-08T02:49:23Z</time>
      </trkpt>
      <trkpt lat="42.27397" lon="1.78945">
        <ele>1093.68</ele>
        <time>2019-04-08T02:49:23Z</time>
      </trkpt>
      <trkpt lat="42.27396" lon="1.78942">
        <ele>1092.67</ele>
        <time>2019-04-08T02:49:25Z</time>
      </trkpt>
      <trkpt lat="42.27396" lon="1.78941">
        <ele>1092.694</ele>
        <time>2019-04-08T02:49:25Z</time>
      </trkpt>
      <trkpt lat="42.27394" lon="1.7894">
        <ele>1092.323</ele>
        <time>2019-04-08T02:49:26Z</time>
      </trkpt>
      <trkpt lat="42.2739" lon="1.78939">
        <ele>1091.995</ele>
        <time>2019-04-08T02:49:27Z</time>
      </trkpt>
      <trkpt lat="42.27389" lon="1.78939">
        <ele>1091.943</ele>
        <time>2019-04-08T02:49:28Z</time>
      </trkpt>
      <trkpt lat="42.27384" lon="1.78939">
        <ele>1091.264</ele>
        <time>2019-04-08T02:49:29Z</time>
      </trkpt>
      <trkpt lat="42.27381" lon="1.7894">
        <ele>1090.71</ele>
        <time>2019-04-08T02:49:31Z</time>
      </trkpt>
      <trkpt lat="42.27379" lon="1.78942">
        <ele>1090.208</ele>
        <time>2019-04-08T02:49:32Z</time>
      </trkpt>
      <trkpt lat="42.27379" lon="1.78943">
        <ele>1090.377</ele>
        <time>2019-04-08T02:49:32Z</time>
      </trkpt>
      <trkpt lat="42.27377" lon="1.78944">
        <ele>1090.279</ele>
        <time>2019-04-08T02:49:33Z</time>
      </trkpt>
      <trkpt lat="42.27373" lon="1.78939">
        <ele>1089.244</ele>
        <time>2019-04-08T02:49:35Z</time>
      </trkpt>
      <trkpt lat="42.2737" lon="1.7894">
        <ele>1089.245</ele>
        <time>2019-04-08T02:49:36Z</time>
      </trkpt>
      <trkpt lat="42.27365" lon="1.7894">
        <ele>1088.115</ele>
        <time>2019-04-08T02:49:38Z</time>
      </trkpt>
      <trkpt lat="42.27364" lon="1.78939">
        <ele>1088.079</ele>
        <time>2019-04-08T02:49:39Z</time>
      </trkpt>
      <trkpt lat="42.27361" lon="1.78943">
        <ele>1087.618</ele>
        <time>2019-04-08T02:49:40Z</time>
      </trkpt>
      <trkpt lat="42.27357" lon="1.78946">
        <ele>1087.14</ele>
        <time>2019-04-08T02:49:42Z</time>
      </trkpt>
      <trkpt lat="42.2735" lon="1.78949">
        <ele>1086.393</ele>
        <time>2019-04-08T02:49:45Z</time>
      </trkpt>
      <trkpt lat="42.27348" lon="1.7895">
        <ele>1085.865</ele>
        <time>2019-04-08T02:49:46Z</time>
      </trkpt>
      <trkpt lat="42.27344" lon="1.78951">
        <ele>1084.621</ele>
        <time>2019-04-08T02:49:47Z</time>
      </trkpt>
      <trkpt lat="42.27342" lon="1.78951">
        <ele>1084.008</ele>
        <time>2019-04-08T02:49:48Z</time>
      </trkpt>
      <trkpt lat="42.2734" lon="1.7895">
        <ele>1083.352</ele>
        <time>2019-04-08T02:49:49Z</time>
      </trkpt>
      <trkpt lat="42.27339" lon="1.7895">
        <ele>1083.284</ele>
        <time>2019-04-08T02:49:50Z</time>
      </trkpt>
      <trkpt lat="42.27337" lon="1.78949">
        <ele>1082.739</ele>
        <time>2019-04-08T02:49:50Z</time>
      </trkpt>
      <trkpt lat="42.27336" lon="1.78948">
        <ele>1082.28</ele>
        <time>2019-04-08T02:49:51Z</time>
      </trkpt>
      <trkpt lat="42.27335" lon="1.78947">
        <ele>1082.01</ele>
        <time>2019-04-08T02:49:51Z</time>
      </trkpt>
      <trkpt lat="42.27332" lon="1.78946">
        <ele>1080.934</ele>
        <time>2019-04-08T02:49:52Z</time>
      </trkpt>
      <trkpt lat="42.27331" lon="1.78944">
        <ele>1080.873</ele>
        <time>2019-04-08T02:49:53Z</time>
      </trkpt>
      <trkpt lat="42.27328" lon="1.78941">
        <ele>1079.875</ele>
        <time>2019-04-08T02:49:55Z</time>
      </trkpt>
      <trkpt lat="42.27325" lon="1.78938">
        <ele>1079.169</ele>
        <time>2019-04-08T02:49:56Z</time>
      </trkpt>
      <trkpt lat="42.27323" lon="1.78935">
        <ele>1078.504</ele>
        <time>2019-04-08T02:49:57Z</time>
      </trkpt>
      <trkpt lat="42.27321" lon="1.78932">
        <ele>1077.224</ele>
        <time>2019-04-08T02:49:59Z</time>
      </trkpt>
      <trkpt lat="42.2732" lon="1.78932">
        <ele>1077.108</ele>
        <time>2019-04-08T02:49:59Z</time>
      </trkpt>
      <trkpt lat="42.27319" lon="1.78932">
        <ele>1077.189</ele>
        <time>2019-04-08T02:49:59Z</time>
      </trkpt>
      <trkpt lat="42.27314" lon="1.78936">
        <ele>1076.791</ele>
        <time>2019-04-08T02:50:01Z</time>
      </trkpt>
      <trkpt lat="42.27311" lon="1.78936">
        <ele>1076.486</ele>
        <time>2019-04-08T02:50:03Z</time>
      </trkpt>
      <trkpt lat="42.27309" lon="1.78933">
        <ele>1075.267</ele>
        <time>2019-04-08T02:50:04Z</time>
      </trkpt>
      <trkpt lat="42.27308" lon="1.78931">
        <ele>1074.417</ele>
        <time>2019-04-08T02:50:05Z</time>
      </trkpt>
      <trkpt lat="42.27307" lon="1.7893">
        <ele>1074.341</ele>
        <time>2019-04-08T02:50:05Z</time>
      </trkpt>
      <trkpt lat="42.27304" lon="1.78929">
        <ele>1073.76</ele>
        <time>2019-04-08T02:50:06Z</time>
      </trkpt>
      <trkpt lat="42.273" lon="1.78927">
        <ele>1073.652</ele>
        <time>2019-04-08T02:50:08Z</time>
      </trkpt>
      <trkpt lat="42.27299" lon="1.78927">
        <ele>1073.529</ele>
        <time>2019-04-08T02:50:08Z</time>
      </trkpt>
      <trkpt lat="42.27298" lon="1.78926">
        <ele>1073.6</ele>
        <time>2019-04-08T02:50:09Z</time>
      </trkpt>
      <trkpt lat="42.27296" lon="1.78925">
        <ele>1074.12</ele>
        <time>2019-04-08T02:50:10Z</time>
      </trkpt>
      <trkpt lat="42.27295" lon="1.78925">
        <ele>1073.908</ele>
        <time>2019-04-08T02:50:10Z</time>
      </trkpt>
      <trkpt lat="42.27294" lon="1.78925">
        <ele>1073.985</ele>
        <time>2019-04-08T02:50:10Z</time>
      </trkpt>
      <trkpt lat="42.27293" lon="1.78924">
        <ele>1074.157</ele>
        <time>2019-04-08T02:50:11Z</time>
      </trkpt>
      <trkpt lat="42.27289" lon="1.78923">
        <ele>1073.572</ele>
        <time>2019-04-08T02:50:13Z</time>
      </trkpt>
      <trkpt lat="42.27288" lon="1.78922">
        <ele>1072.983</ele>
        <time>2019-04-08T02:50:13Z</time>
      </trkpt>
      <trkpt lat="42.27287" lon="1.78921">
        <ele>1072.163</ele>
        <time>2019-04-08T02:50:13Z</time>
      </trkpt>
      <trkpt lat="42.27287" lon="1.78921">
        <ele>1071.747</ele>
        <time>2019-04-08T02:50:14Z</time>
      </trkpt>
      <trkpt lat="42.27286" lon="1.7892">
        <ele>1071.536</ele>
        <time>2019-04-08T02:50:14Z</time>
      </trkpt>
      <trkpt lat="42.27283" lon="1.78918">
        <ele>1070.588</ele>
        <time>2019-04-08T02:50:15Z</time>
      </trkpt>
      <trkpt lat="42.27282" lon="1.78917">
        <ele>1070.566</ele>
        <time>2019-04-08T02:50:16Z</time>
      </trkpt>
      <trkpt lat="42.2728" lon="1.78917">
        <ele>1070.229</ele>
        <time>2019-04-08T02:50:17Z</time>
      </trkpt>
      <trkpt lat="42.27277" lon="1.78914">
        <ele>1069.621</ele>
        <time>2019-04-08T02:50:18Z</time>
      </trkpt>
      <trkpt lat="42.27269" lon="1.78907">
        <ele>1068.108</ele>
        <time>2019-04-08T02:50:22Z</time>
      </trkpt>
      <trkpt lat="42.27268" lon="1.78905">
        <ele>1067.989</ele>
        <time>2019-04-08T02:50:22Z</time>
      </trkpt>
      <trkpt lat="42.27265" lon="1.789">
        <ele>1066.991</ele>
        <time>2019-04-08T02:50:24Z</time>
      </trkpt>
      <trkpt lat="42.27263" lon="1.78898">
        <ele>1066.656</ele>
        <time>2019-04-08T02:50:25Z</time>
      </trkpt>
      <trkpt lat="42.27262" lon="1.78896">
        <ele>1066.127</ele>
        <time>2019-04-08T02:50:26Z</time>
      </trkpt>
      <trkpt lat="42.27261" lon="1.78892">
        <ele>1065.937</ele>
        <time>2019-04-08T02:50:27Z</time>
      </trkpt>
      <trkpt lat="42.2726" lon="1.7889">
        <ele>1065.831</ele>
        <time>2019-04-08T02:50:28Z</time>
      </trkpt>
      <trkpt lat="42.2726" lon="1.78888">
        <ele>1064.62</ele>
        <time>2019-04-08T02:50:29Z</time>
      </trkpt>
      <trkpt lat="42.2726" lon="1.78886">
        <ele>1063.452</ele>
        <time>2019-04-08T02:50:29Z</time>
      </trkpt>
      <trkpt lat="42.27261" lon="1.78886">
        <ele>1063.145</ele>
        <time>2019-04-08T02:50:29Z</time>
      </trkpt>
      <trkpt lat="42.2726" lon="1.78884">
        <ele>1062.247</ele>
        <time>2019-04-08T02:50:30Z</time>
      </trkpt>
      <trkpt lat="42.2726" lon="1.78882">
        <ele>1061.511</ele>
        <time>2019-04-08T02:50:31Z</time>
      </trkpt>
      <trkpt lat="42.2726" lon="1.7888">
        <ele>1061.108</ele>
        <time>2019-04-08T02:50:31Z</time>
      </trkpt>
      <trkpt lat="42.2726" lon="1.78879">
        <ele>1060.987</ele>
        <time>2019-04-08T02:50:31Z</time>
      </trkpt>
      <trkpt lat="42.27259" lon="1.78876">
        <ele>1060.249</ele>
        <time>2019-04-08T02:50:32Z</time>
      </trkpt>
      <trkpt lat="42.27259" lon="1.78875">
        <ele>1060.064</ele>
        <time>2019-04-08T02:50:33Z</time>
      </trkpt>
      <trkpt lat="42.27258" lon="1.78874">
        <ele>1059.135</ele>
        <time>2019-04-08T02:50:33Z</time>
      </trkpt>
      <trkpt lat="42.27257" lon="1.78875">
        <ele>1059.145</ele>
        <time>2019-04-08T02:50:33Z</time>
      </trkpt>
      <trkpt lat="42.27256" lon="1.78873">
        <ele>1058.119</ele>
        <time>2019-04-08T02:50:34Z</time>
      </trkpt>
      <trkpt lat="42.27254" lon="1.78872">
        <ele>1057.388</ele>
        <time>2019-04-08T02:50:35Z</time>
      </trkpt>
      <trkpt lat="42.27254" lon="1.78871">
        <ele>1057.11</ele>
        <time>2019-04-08T02:50:35Z</time>
      </trkpt>
      <trkpt lat="42.27253" lon="1.7887">
        <ele>1056.634</ele>
        <time>2019-04-08T02:50:35Z</time>
      </trkpt>
      <trkpt lat="42.2725" lon="1.78868">
        <ele>1055.855</ele>
        <time>2019-04-08T02:50:37Z</time>
      </trkpt>
      <trkpt lat="42.27248" lon="1.78866">
        <ele>1055.11</ele>
        <time>2019-04-08T02:50:38Z</time>
      </trkpt>
      <trkpt lat="42.27247" lon="1.78864">
        <ele>1054.608</ele>
        <time>2019-04-08T02:50:39Z</time>
      </trkpt>
      <trkpt lat="42.27244" lon="1.78855">
        <ele>1053.556</ele>
        <time>2019-04-08T02:50:41Z</time>
      </trkpt>
      <trkpt lat="42.27243" lon="1.78854">
        <ele>1053.398</ele>
        <time>2019-04-08T02:50:42Z</time>
      </trkpt>
      <trkpt lat="42.2724" lon="1.78851">
        <ele>1052.023</ele>
        <time>2019-04-08T02:50:43Z</time>
      </trkpt>
      <trkpt lat="42.27237" lon="1.7885">
        <ele>1051.054</ele>
        <time>2019-04-08T02:50:45Z</time>
      </trkpt>
      <trkpt lat="42.27236" lon="1.78851">
        <ele>1050.454</ele>
        <time>2019-04-08T02:50:45Z</time>
      </trkpt>
      <trkpt lat="42.27236" lon="1.78851">
        <ele>1050.038</ele>
        <time>2019-04-08T02:50:45Z</time>
      </trkpt>
      <trkpt lat="42.27235" lon="1.78851">
        <ele>1049.637</ele>
        <time>2019-04-08T02:50:46Z</time>
      </trkpt>
      <trkpt lat="42.27234" lon="1.7885">
        <ele>1048.569</ele>
        <time>2019-04-08T02:50:46Z</time>
      </trkpt>
      <trkpt lat="42.27235" lon="1.78849">
        <ele>1048.069</ele>
        <time>2019-04-08T02:50:46Z</time>
      </trkpt>
      <trkpt lat="42.27234" lon="1.78848">
        <ele>1047.704</ele>
        <time>2019-04-08T02:50:47Z</time>
      </trkpt>
      <trkpt lat="42.27234" lon="1.78848">
        <ele>1047.224</ele>
        <time>2019-04-08T02:50:47Z</time>
      </trkpt>
      <trkpt lat="42.27234" lon="1.78848">
        <ele>1047.008</ele>
        <time>2019-04-08T02:50:47Z</time>
      </trkpt>
      <trkpt lat="42.27235" lon="1.78848">
        <ele>1046.989</ele>
        <time>2019-04-08T02:50:47Z</time>
      </trkpt>
      <trkpt lat="42.27235" lon="1.78847">
        <ele>1047.051</ele>
        <time>2019-04-08T02:50:47Z</time>
      </trkpt>
      <trkpt lat="42.27236" lon="1.78847">
        <ele>1046.866</ele>
        <time>2019-04-08T02:50:48Z</time>
      </trkpt>
      <trkpt lat="42.27238" lon="1.78848">
        <ele>1047.897</ele>
        <time>2019-04-08T02:50:49Z</time>
      </trkpt>
      <trkpt lat="42.27241" lon="1.78849">
        <ele>1048.367</ele>
        <time>2019-04-08T02:50:49Z</time>
      </trkpt>
      <trkpt lat="42.27241" lon="1.78849">
        <ele>1048.471</ele>
        <time>2019-04-08T02:50:50Z</time>
      </trkpt>
      <trkpt lat="42.27241" lon="1.78848">
        <ele>1048.76</ele>
        <time>2019-04-08T02:50:50Z</time>
      </trkpt>
      <trkpt lat="42.27243" lon="1.78847">
        <ele>1048.862</ele>
        <time>2019-04-08T02:50:51Z</time>
      </trkpt>
      <trkpt lat="42.27248" lon="1.78849">
        <ele>1049.236</ele>
        <time>2019-04-08T02:50:53Z</time>
      </trkpt>
      <trkpt lat="42.27248" lon="1.78849">
        <ele>1049.417</ele>
        <time>2019-04-08T02:50:53Z</time>
      </trkpt>
      <trkpt lat="42.27252" lon="1.78848">
        <ele>1049.618</ele>
        <time>2019-04-08T02:50:54Z</time>
      </trkpt>
      <trkpt lat="42.27242" lon="1.78844">
        <ele>1049.508</ele>
        <time>2019-04-08T02:50:58Z</time>
      </trkpt>
      <trkpt lat="42.27235" lon="1.78844">
        <ele>1048.436</ele>
        <time>2019-04-08T02:51:01Z</time>
      </trkpt>
      <trkpt lat="42.27234" lon="1.78843">
        <ele>1048.118</ele>
        <time>2019-04-08T02:51:02Z</time>
      </trkpt>
      <trkpt lat="42.27227" lon="1.78841">
        <ele>1047.073</ele>
        <time>2019-04-08T02:51:04Z</time>
      </trkpt>
      <trkpt lat="42.27225" lon="1.7884">
        <ele>1046.634</ele>
        <time>2019-04-08T02:51:05Z</time>
      </trkpt>
      <trkpt lat="42.27225" lon="1.78836">
        <ele>1046.134</ele>
        <time>2019-04-08T02:51:06Z</time>
      </trkpt>
      <trkpt lat="42.27225" lon="1.78835">
        <ele>1045.748</ele>
        <time>2019-04-08T02:51:07Z</time>
      </trkpt>
      <trkpt lat="42.27224" lon="1.78834">
        <ele>1045.497</ele>
        <time>2019-04-08T02:51:07Z</time>
      </trkpt>
      <trkpt lat="42.27224" lon="1.78833">
        <ele>1045.149</ele>
        <time>2019-04-08T02:51:07Z</time>
      </trkpt>
      <trkpt lat="42.27223" lon="1.78833">
        <ele>1044.339</ele>
        <time>2019-04-08T02:51:08Z</time>
      </trkpt>
      <trkpt lat="42.27221" lon="1.78832">
        <ele>1043.601</ele>
        <time>2019-04-08T02:51:08Z</time>
      </trkpt>
      <trkpt lat="42.2722" lon="1.78832">
        <ele>1043.221</ele>
        <time>2019-04-08T02:51:09Z</time>
      </trkpt>
      <trkpt lat="42.2722" lon="1.78832">
        <ele>1043.008</ele>
        <time>2019-04-08T02:51:09Z</time>
      </trkpt>
      <trkpt lat="42.27219" lon="1.78831">
        <ele>1042.686</ele>
        <time>2019-04-08T02:51:09Z</time>
      </trkpt>
      <trkpt lat="42.27218" lon="1.78831">
        <ele>1042.278</ele>
        <time>2019-04-08T02:51:10Z</time>
      </trkpt>
      <trkpt lat="42.27217" lon="1.7883">
        <ele>1041.733</ele>
        <time>2019-04-08T02:51:10Z</time>
      </trkpt>
      <trkpt lat="42.27217" lon="1.78828">
        <ele>1041.244</ele>
        <time>2019-04-08T02:51:11Z</time>
      </trkpt>
      <trkpt lat="42.27216" lon="1.78828">
        <ele>1041.264</ele>
        <time>2019-04-08T02:51:11Z</time>
      </trkpt>
      <trkpt lat="42.27215" lon="1.78827">
        <ele>1039.988</ele>
        <time>2019-04-08T02:51:12Z</time>
      </trkpt>
      <trkpt lat="42.27214" lon="1.78827">
        <ele>1039.657</ele>
        <time>2019-04-08T02:51:12Z</time>
      </trkpt>
      <trkpt lat="42.27214" lon="1.78827">
        <ele>1039.169</ele>
        <time>2019-04-08T02:51:12Z</time>
      </trkpt>
      <trkpt lat="42.27213" lon="1.78827">
        <ele>1039.032</ele>
        <time>2019-04-08T02:51:12Z</time>
      </trkpt>
      <trkpt lat="42.27211" lon="1.78827">
        <ele>1038.892</ele>
        <time>2019-04-08T02:51:13Z</time>
      </trkpt>
      <trkpt lat="42.2721" lon="1.78828">
        <ele>1038.511</ele>
        <time>2019-04-08T02:51:13Z</time>
      </trkpt>
      <trkpt lat="42.27208" lon="1.78824">
        <ele>1038.508</ele>
        <time>2019-04-08T02:51:15Z</time>
      </trkpt>
      <trkpt lat="42.27208" lon="1.78821">
        <ele>1038.616</ele>
        <time>2019-04-08T02:51:16Z</time>
      </trkpt>
      <trkpt lat="42.27208" lon="1.78816">
        <ele>1039.128</ele>
        <time>2019-04-08T02:51:17Z</time>
      </trkpt>
      <trkpt lat="42.27205" lon="1.78811">
        <ele>1039.483</ele>
        <time>2019-04-08T02:51:19Z</time>
      </trkpt>
      <trkpt lat="42.27202" lon="1.78808">
        <ele>1039.314</ele>
        <time>2019-04-08T02:51:21Z</time>
      </trkpt>
      <trkpt lat="42.27201" lon="1.78807">
        <ele>1039.444</ele>
        <time>2019-04-08T02:51:21Z</time>
      </trkpt>
      <trkpt lat="42.272" lon="1.78807">
        <ele>1039.728</ele>
        <time>2019-04-08T02:51:21Z</time>
      </trkpt>
      <trkpt lat="42.27199" lon="1.78806">
        <ele>1039.687</ele>
        <time>2019-04-08T02:51:22Z</time>
      </trkpt>
      <trkpt lat="42.27198" lon="1.78806">
        <ele>1039.559</ele>
        <time>2019-04-08T02:51:22Z</time>
      </trkpt>
      <trkpt lat="42.27198" lon="1.78806">
        <ele>1039.748</ele>
        <time>2019-04-08T02:51:22Z</time>
      </trkpt>
      <trkpt lat="42.27196" lon="1.78804">
        <ele>1040.061</ele>
        <time>2019-04-08T02:51:23Z</time>
      </trkpt>
      <trkpt lat="42.27195" lon="1.78803">
        <ele>1039.917</ele>
        <time>2019-04-08T02:51:24Z</time>
      </trkpt>
      <trkpt lat="42.27193" lon="1.78804">
        <ele>1039.608</ele>
        <time>2019-04-08T02:51:25Z</time>
      </trkpt>
      <trkpt lat="42.27192" lon="1.78804">
        <ele>1039.637</ele>
        <time>2019-04-08T02:51:25Z</time>
      </trkpt>
      <trkpt lat="42.27189" lon="1.78804">
        <ele>1038.539</ele>
        <time>2019-04-08T02:51:26Z</time>
      </trkpt>
      <trkpt lat="42.27188" lon="1.78804">
        <ele>1038.214</ele>
        <time>2019-04-08T02:51:27Z</time>
      </trkpt>
      <trkpt lat="42.27187" lon="1.78804">
        <ele>1037.675</ele>
        <time>2019-04-08T02:51:27Z</time>
      </trkpt>
      <trkpt lat="42.27186" lon="1.78805">
        <ele>1037.535</ele>
        <time>2019-04-08T02:51:28Z</time>
      </trkpt>
      <trkpt lat="42.27183" lon="1.78807">
        <ele>1036.729</ele>
        <time>2019-04-08T02:51:29Z</time>
      </trkpt>
      <trkpt lat="42.27182" lon="1.78808">
        <ele>1036.518</ele>
        <time>2019-04-08T02:51:29Z</time>
      </trkpt>
      <trkpt lat="42.2718" lon="1.78808">
        <ele>1035.09</ele>
        <time>2019-04-08T02:51:30Z</time>
      </trkpt>
      <trkpt lat="42.27177" lon="1.78807">
        <ele>1034.014</ele>
        <time>2019-04-08T02:51:31Z</time>
      </trkpt>
      <trkpt lat="42.27176" lon="1.78807">
        <ele>1033.654</ele>
        <time>2019-04-08T02:51:32Z</time>
      </trkpt>
      <trkpt lat="42.27175" lon="1.78804">
        <ele>1033.109</ele>
        <time>2019-04-08T02:51:33Z</time>
      </trkpt>
      <trkpt lat="42.27174" lon="1.78803">
        <ele>1032.708</ele>
        <time>2019-04-08T02:51:33Z</time>
      </trkpt>
      <trkpt lat="42.27174" lon="1.78802">
        <ele>1032.524</ele>
        <time>2019-04-08T02:51:34Z</time>
      </trkpt>
      <trkpt lat="42.27173" lon="1.78801">
        <ele>1032.556</ele>
        <time>2019-04-08T02:51:34Z</time>
      </trkpt>
      <trkpt lat="42.27171" lon="1.78798">
        <ele>1032.791</ele>
        <time>2019-04-08T02:51:35Z</time>
      </trkpt>
      <trkpt lat="42.27169" lon="1.78796">
        <ele>1032.642</ele>
        <time>2019-04-08T02:51:36Z</time>
      </trkpt>
      <trkpt lat="42.27165" lon="1.78794">
        <ele>1033.092</ele>
        <time>2019-04-08T02:51:38Z</time>
      </trkpt>
      <trkpt lat="42.27163" lon="1.78801">
        <ele>1033.596</ele>
        <time>2019-04-08T02:51:40Z</time>
      </trkpt>
      <trkpt lat="42.27164" lon="1.78802">
        <ele>1033.645</ele>
        <time>2019-04-08T02:51:40Z</time>
      </trkpt>
      <trkpt lat="42.27166" lon="1.78804">
        <ele>1034.197</ele>
        <time>2019-04-08T02:51:41Z</time>
      </trkpt>
      <trkpt lat="42.27168" lon="1.78802">
        <ele>1033.831</ele>
        <time>2019-04-08T02:51:42Z</time>
      </trkpt>
      <trkpt lat="42.27166" lon="1.78804">
        <ele>1033.761</ele>
        <time>2019-04-08T02:51:43Z</time>
      </trkpt>
      <trkpt lat="42.27162" lon="1.78803">
        <ele>1033.707</ele>
        <time>2019-04-08T02:51:44Z</time>
      </trkpt>
      <trkpt lat="42.27154" lon="1.78802">
        <ele>1033.208</ele>
        <time>2019-04-08T02:51:48Z</time>
      </trkpt>
      <trkpt lat="42.27148" lon="1.78802">
        <ele>1032.776</ele>
        <time>2019-04-08T02:51:50Z</time>
      </trkpt>
      <trkpt lat="42.27145" lon="1.78799">
        <ele>1032.728</ele>
        <time>2019-04-08T02:51:51Z</time>
      </trkpt>
      <trkpt lat="42.27144" lon="1.78799">
        <ele>1032.763</ele>
        <time>2019-04-08T02:51:52Z</time>
      </trkpt>
      <trkpt lat="42.27141" lon="1.78798">
        <ele>1032.724</ele>
        <time>2019-04-08T02:51:53Z</time>
      </trkpt>
      <trkpt lat="42.27139" lon="1.78797">
        <ele>1032.954</ele>
        <time>2019-04-08T02:51:54Z</time>
      </trkpt>
      <trkpt lat="42.27132" lon="1.78794">
        <ele>1032.358</ele>
        <time>2019-04-08T02:51:57Z</time>
      </trkpt>
      <trkpt lat="42.27131" lon="1.78794">
        <ele>1031.917</ele>
        <time>2019-04-08T02:51:57Z</time>
      </trkpt>
      <trkpt lat="42.27128" lon="1.78792">
        <ele>1031.729</ele>
        <time>2019-04-08T02:51:59Z</time>
      </trkpt>
      <trkpt lat="42.27127" lon="1.78791">
        <ele>1031.794</ele>
        <time>2019-04-08T02:51:59Z</time>
      </trkpt>
      <trkpt lat="42.27125" lon="1.7879">
        <ele>1031.357</ele>
        <time>2019-04-08T02:52:00Z</time>
      </trkpt>
      <trkpt lat="42.27121" lon="1.78786">
        <ele>1030.622</ele>
        <time>2019-04-08T02:52:02Z</time>
      </trkpt>
      <trkpt lat="42.27119" lon="1.78786">
        <ele>1029.208</ele>
        <time>2019-04-08T02:52:03Z</time>
      </trkpt>
      <trkpt lat="42.27116" lon="1.78787">
        <ele>1028.272</ele>
        <time>2019-04-08T02:52:04Z</time>
      </trkpt>
      <trkpt lat="42.27114" lon="1.78787">
        <ele>1028.084</ele>
        <time>2019-04-08T02:52:05Z</time>
      </trkpt>
      <trkpt lat="42.27114" lon="1.78787">
        <ele>1026.769</ele>
        <time>2019-04-08T02:52:05Z</time>
      </trkpt>
      <trkpt lat="42.27113" lon="1.78783">
        <ele>1025.64</ele>
        <time>2019-04-08T02:52:06Z</time>
      </trkpt>
      <trkpt lat="42.27115" lon="1.78773">
        <ele>1025.28</ele>
        <time>2019-04-08T02:52:09Z</time>
      </trkpt>
      <trkpt lat="42.27117" lon="1.78766">
        <ele>1024.614</ele>
        <time>2019-04-08T02:52:12Z</time>
      </trkpt>
      <trkpt lat="42.27118" lon="1.78765">
        <ele>1024.523</ele>
        <time>2019-04-08T02:52:12Z</time>
      </trkpt>
      <trkpt lat="42.2712" lon="1.78771">
        <ele>1023.915</ele>
        <time>2019-04-08T02:52:14Z</time>
      </trkpt>
      <trkpt lat="42.2712" lon="1.78768">
        <ele>1023.542</ele>
        <time>2019-04-08T02:52:15Z</time>
      </trkpt>
      <trkpt lat="42.27121" lon="1.78768">
        <ele>1023.822</ele>
        <time>2019-04-08T02:52:15Z</time>
      </trkpt>
      <trkpt lat="42.27126" lon="1.78774">
        <ele>1023.814</ele>
        <time>2019-04-08T02:52:18Z</time>
      </trkpt>
      <trkpt lat="42.27133" lon="1.78785">
        <ele>1023.508</ele>
        <time>2019-04-08T02:52:22Z</time>
      </trkpt>
      <trkpt lat="42.27134" lon="1.78787">
        <ele>1023.027</ele>
        <time>2019-04-08T02:52:23Z</time>
      </trkpt>
      <trkpt lat="42.27135" lon="1.7879">
        <ele>1022.129</ele>
        <time>2019-04-08T02:52:24Z</time>
      </trkpt>
      <trkpt lat="42.27134" lon="1.78792">
        <ele>1021.664</ele>
        <time>2019-04-08T02:52:25Z</time>
      </trkpt>
      <trkpt lat="42.27132" lon="1.78794">
        <ele>1021.385</ele>
        <time>2019-04-08T02:52:26Z</time>
      </trkpt>
      <trkpt lat="42.2713" lon="1.78794">
        <ele>1021.555</ele>
        <time>2019-04-08T02:52:26Z</time>
      </trkpt>
      <trkpt lat="42.27125" lon="1.78794">
        <ele>1021.599</ele>
        <time>2019-04-08T02:52:28Z</time>
      </trkpt>
      <trkpt lat="42.2712" lon="1.78797">
        <ele>1021.568</ele>
        <time>2019-04-08T02:52:30Z</time>
      </trkpt>
      <trkpt lat="42.27118" lon="1.78798">
        <ele>1021.41</ele>
        <time>2019-04-08T02:52:31Z</time>
      </trkpt>
      <trkpt lat="42.27117" lon="1.78799">
        <ele>1021.542</ele>
        <time>2019-04-08T02:52:32Z</time>
      </trkpt>
      <trkpt lat="42.27113" lon="1.78803">
        <ele>1021.822</ele>
        <time>2019-04-08T02:52:34Z</time>
      </trkpt>
      <trkpt lat="42.27109" lon="1.78807">
        <ele>1022.214</ele>
        <time>2019-04-08T02:52:36Z</time>
      </trkpt>
      <trkpt lat="42.27107" lon="1.78807">
        <ele>1022.108</ele>
        <time>2019-04-08T02:52:37Z</time>
      </trkpt>
      <trkpt lat="42.27106" lon="1.78808">
        <ele>1022.137</ele>
        <time>2019-04-08T02:52:37Z</time>
      </trkpt>
      <trkpt lat="42.27105" lon="1.78809">
        <ele>1022.219</ele>
        <time>2019-04-08T02:52:38Z</time>
      </trkpt>
      <trkpt lat="42.27103" lon="1.78809">
        <ele>1022.434</ele>
        <time>2019-04-08T02:52:39Z</time>
      </trkpt>
      <trkpt lat="42.27101" lon="1.78811">
        <ele>1022.495</ele>
        <time>2019-04-08T02:52:39Z</time>
      </trkpt>
      <trkpt lat="42.2711" lon="1.78742">
        <ele>1004.445</ele>
        <time>2019-04-08T02:53:00Z</time>
      </trkpt>
      <trkpt lat="42.27031" lon="1.79364">
        <ele>972.589</ele>
        <time>2019-04-08T03:13:41Z</time>
      </trkpt>
      <trkpt lat="42.27031" lon="1.79364">
        <ele>972.598</ele>
        <time>2019-04-08T03:13:41Z</time>
      </trkpt>
      <trkpt lat="42.27034" lon="1.79361">
        <ele>973.11</ele>
        <time>2019-04-08T03:13:42Z</time>
      </trkpt>
      <trkpt lat="42.27034" lon="1.79355">
        <ele>973.183</ele>
        <time>2019-04-08T03:13:44Z</time>
      </trkpt>
      <trkpt lat="42.27034" lon="1.79353">
        <ele>973.125</ele>
        <time>2019-04-08T03:13:45Z</time>
      </trkpt>
      <trkpt lat="42.27033" lon="1.79329">
        <ele>971.617</ele>
        <time>2019-04-08T03:13:52Z</time>
      </trkpt>
      <trkpt lat="42.2703" lon="1.79312">
        <ele>967.708</ele>
        <time>2019-04-08T03:13:57Z</time>
      </trkpt>
      <trkpt lat="42.27026" lon="1.79283">
        <ele>964.451</ele>
        <time>2019-04-08T03:14:06Z</time>
      </trkpt>
      <trkpt lat="42.27025" lon="1.79275">
        <ele>964.323</ele>
        <time>2019-04-08T03:14:08Z</time>
      </trkpt>
      <trkpt lat="42.27024" lon="1.7927">
        <ele>963.438</ele>
        <time>2019-04-08T03:14:10Z</time>
      </trkpt>
      <trkpt lat="42.27021" lon="1.79262">
        <ele>963.589</ele>
        <time>2019-04-08T03:14:12Z</time>
      </trkpt>
      <trkpt lat="42.27022" lon="1.79242">
        <ele>960.679</ele>
        <time>2019-04-08T03:14:18Z</time>
      </trkpt>
      <trkpt lat="42.27022" lon="1.7923">
        <ele>958.713</ele>
        <time>2019-04-08T03:14:22Z</time>
      </trkpt>
      <trkpt lat="42.27022" lon="1.79209">
        <ele>955.342</ele>
        <time>2019-04-08T03:14:28Z</time>
      </trkpt>
      <trkpt lat="42.27023" lon="1.79198">
        <ele>953.394</ele>
        <time>2019-04-08T03:14:31Z</time>
      </trkpt>
      <trkpt lat="42.27021" lon="1.79182">
        <ele>951.953</ele>
        <time>2019-04-08T03:14:36Z</time>
      </trkpt>
      <trkpt lat="42.27017" lon="1.7917">
        <ele>950.904</ele>
        <time>2019-04-08T03:14:40Z</time>
      </trkpt>
      <trkpt lat="42.27006" lon="1.79165">
        <ele>951.414</ele>
        <time>2019-04-08T03:14:44Z</time>
      </trkpt>
      <trkpt lat="42.27002" lon="1.79172">
        <ele>952.908</ele>
        <time>2019-04-08T03:14:47Z</time>
      </trkpt>
      <trkpt lat="42.26999" lon="1.79182">
        <ele>957.148</ele>
        <time>2019-04-08T03:14:50Z</time>
      </trkpt>
      <trkpt lat="42.26997" lon="1.79185">
        <ele>957.62</ele>
        <time>2019-04-08T03:14:52Z</time>
      </trkpt>
      <trkpt lat="42.26996" lon="1.79185">
        <ele>958.155</ele>
        <time>2019-04-08T03:14:52Z</time>
      </trkpt>
      <trkpt lat="42.26995" lon="1.79177">
        <ele>961.666</ele>
        <time>2019-04-08T03:14:54Z</time>
      </trkpt>
      <trkpt lat="42.26994" lon="1.79171">
        <ele>961.956</ele>
        <time>2019-04-08T03:14:56Z</time>
      </trkpt>
      <trkpt lat="42.26993" lon="1.7916">
        <ele>963.57</ele>
        <time>2019-04-08T03:14:59Z</time>
      </trkpt>
      <trkpt lat="42.26991" lon="1.79155">
        <ele>964.499</ele>
        <time>2019-04-08T03:15:01Z</time>
      </trkpt>
      <trkpt lat="42.2699" lon="1.79153">
        <ele>963.981</ele>
        <time>2019-04-08T03:15:02Z</time>
      </trkpt>
      <trkpt lat="42.2699" lon="1.79153">
        <ele>968.731</ele>
        <time>2019-04-08T03:15:02Z</time>
      </trkpt>
      <trkpt lat="42.2699" lon="1.79153">
        <ele>960.561</ele>
        <time>2019-04-08T03:15:02Z</time>
      </trkpt>
      <trkpt lat="42.26987" lon="1.79148">
        <ele>965.307</ele>
        <time>2019-04-08T03:15:04Z</time>
      </trkpt>
      <trkpt lat="42.26983" lon="1.79138">
        <ele>965.908</ele>
        <time>2019-04-08T03:15:07Z</time>
      </trkpt>
      <trkpt lat="42.26978" lon="1.79133">
        <ele>965.966</ele>
        <time>2019-04-08T03:15:10Z</time>
      </trkpt>
      <trkpt lat="42.2697" lon="1.7912">
        <ele>965.938</ele>
        <time>2019-04-08T03:15:15Z</time>
      </trkpt>
      <trkpt lat="42.26967" lon="1.79117">
        <ele>964.343</ele>
        <time>2019-04-08T03:15:16Z</time>
      </trkpt>
      <trkpt lat="42.26967" lon="1.79117">
        <ele>964.394</ele>
        <time>2019-04-08T03:15:17Z</time>
      </trkpt>
      <trkpt lat="42.26968" lon="1.79116">
        <ele>964.474</ele>
        <time>2019-04-08T03:15:17Z</time>
      </trkpt>
      <trkpt lat="42.26968" lon="1.79116">
        <ele>963.978</ele>
        <time>2019-04-08T03:15:17Z</time>
      </trkpt>
      <trkpt lat="42.26967" lon="1.79118">
        <ele>964.017</ele>
        <time>2019-04-08T03:15:18Z</time>
      </trkpt>
      <trkpt lat="42.26967" lon="1.79117">
        <ele>964.369</ele>
        <time>2019-04-08T03:15:18Z</time>
      </trkpt>
      <trkpt lat="42.26962" lon="1.79119">
        <ele>964.884</ele>
        <time>2019-04-08T03:15:20Z</time>
      </trkpt>
      <trkpt lat="42.26958" lon="1.79116">
        <ele>964.807</ele>
        <time>2019-04-08T03:15:22Z</time>
      </trkpt>
      <trkpt lat="42.26951" lon="1.79107">
        <ele>965.417</ele>
        <time>2019-04-08T03:15:26Z</time>
      </trkpt>
      <trkpt lat="42.26952" lon="1.79088">
        <ele>968.808</ele>
        <time>2019-04-08T03:15:31Z</time>
      </trkpt>
      <trkpt lat="42.26953" lon="1.79081">
        <ele>971.251</ele>
        <time>2019-04-08T03:15:33Z</time>
      </trkpt>
      <trkpt lat="42.26952" lon="1.79073">
        <ele>972.153</ele>
        <time>2019-04-08T03:15:36Z</time>
      </trkpt>
      <trkpt lat="42.26952" lon="1.79071">
        <ele>972.178</ele>
        <time>2019-04-08T03:15:36Z</time>
      </trkpt>
      <trkpt lat="42.26942" lon="1.79058">
        <ele>972.039</ele>
        <time>2019-04-08T03:15:42Z</time>
      </trkpt>
      <trkpt lat="42.26939" lon="1.79052">
        <ele>972.129</ele>
        <time>2019-04-08T03:15:44Z</time>
      </trkpt>
      <trkpt lat="42.26941" lon="1.79054">
        <ele>971.613</ele>
        <time>2019-04-08T03:15:45Z</time>
      </trkpt>
      <trkpt lat="42.26941" lon="1.79055">
        <ele>971.112</ele>
        <time>2019-04-08T03:15:45Z</time>
      </trkpt>
      <trkpt lat="42.26941" lon="1.79054">
        <ele>970.694</ele>
        <time>2019-04-08T03:15:46Z</time>
      </trkpt>
      <trkpt lat="42.26941" lon="1.79054">
        <ele>970.627</ele>
        <time>2019-04-08T03:15:46Z</time>
      </trkpt>
      <trkpt lat="42.26941" lon="1.79053">
        <ele>971.268</ele>
        <time>2019-04-08T03:15:46Z</time>
      </trkpt>
      <trkpt lat="42.26941" lon="1.79053">
        <ele>972.514</ele>
        <time>2019-04-08T03:15:46Z</time>
      </trkpt>
      <trkpt lat="42.26941" lon="1.79053">
        <ele>971.108</ele>
        <time>2019-04-08T03:15:46Z</time>
      </trkpt>
      <trkpt lat="42.26942" lon="1.79054">
        <ele>971.245</ele>
        <time>2019-04-08T03:15:47Z</time>
      </trkpt>
      <trkpt lat="42.26942" lon="1.79054">
        <ele>970.687</ele>
        <time>2019-04-08T03:15:47Z</time>
      </trkpt>
      <trkpt lat="42.26941" lon="1.79053">
        <ele>970.662</ele>
        <time>2019-04-08T03:15:48Z</time>
      </trkpt>
      <trkpt lat="42.26941" lon="1.79053">
        <ele>970.193</ele>
        <time>2019-04-08T03:15:48Z</time>
      </trkpt>
      <trkpt lat="42.2694" lon="1.79053">
        <ele>970.143</ele>
        <time>2019-04-08T03:15:48Z</time>
      </trkpt>
      <trkpt lat="42.26943" lon="1.79054">
        <ele>969.697</ele>
        <time>2019-04-08T03:15:50Z</time>
      </trkpt>
      <trkpt lat="42.26939" lon="1.79051">
        <ele>970.176</ele>
        <time>2019-04-08T03:15:51Z</time>
      </trkpt>
      <trkpt lat="42.2694" lon="1.79051">
        <ele>972.058</ele>
        <time>2019-04-08T03:15:52Z</time>
      </trkpt>
      <trkpt lat="42.26941" lon="1.79052">
        <ele>971.247</ele>
        <time>2019-04-08T03:15:52Z</time>
      </trkpt>
      <trkpt lat="42.26942" lon="1.79053">
        <ele>972.629</ele>
        <time>2019-04-08T03:15:53Z</time>
      </trkpt>
      <trkpt lat="42.26942" lon="1.79053">
        <ele>972.621</ele>
        <time>2019-04-08T03:15:53Z</time>
      </trkpt>
      <trkpt lat="42.26943" lon="1.79053">
        <ele>969.608</ele>
        <time>2019-04-08T03:15:53Z</time>
      </trkpt>
      <trkpt lat="42.26944" lon="1.79054">
        <ele>972.687</ele>
        <time>2019-04-08T03:15:53Z</time>
      </trkpt>
      <trkpt lat="42.2695" lon="1.79067">
        <ele>969.729</ele>
        <time>2019-04-08T03:15:58Z</time>
      </trkpt>
      <trkpt lat="42.26954" lon="1.79077">
        <ele>970.214</ele>
        <time>2019-04-08T03:16:02Z</time>
      </trkpt>
      <trkpt lat="42.2695" lon="1.79089">
        <ele>966.895</ele>
        <time>2019-04-08T03:16:06Z</time>
      </trkpt>
      <trkpt lat="42.26949" lon="1.79096">
        <ele>965.865</ele>
        <time>2019-04-08T03:16:08Z</time>
      </trkpt>
      <trkpt lat="42.2695" lon="1.79106">
        <ele>962.939</ele>
        <time>2019-04-08T03:16:10Z</time>
      </trkpt>
      <trkpt lat="42.26946" lon="1.79118">
        <ele>963.418</ele>
        <time>2019-04-08T03:16:14Z</time>
      </trkpt>
      <trkpt lat="42.26948" lon="1.79133">
        <ele>966.85</ele>
        <time>2019-04-08T03:16:19Z</time>
      </trkpt>
      <trkpt lat="42.26948" lon="1.79136">
        <ele>967.735</ele>
        <time>2019-04-08T03:16:20Z</time>
      </trkpt>
      <trkpt lat="42.26949" lon="1.79152">
        <ele>971.186</ele>
        <time>2019-04-08T03:16:24Z</time>
      </trkpt>
      <trkpt lat="42.26948" lon="1.79155">
        <ele>972.614</ele>
        <time>2019-04-08T03:16:26Z</time>
      </trkpt>
      <trkpt lat="42.26947" lon="1.79171">
        <ele>975.908</ele>
        <time>2019-04-08T03:16:30Z</time>
      </trkpt>
      <trkpt lat="42.26945" lon="1.79186">
        <ele>979.746</ele>
        <time>2019-04-08T03:16:35Z</time>
      </trkpt>
      <trkpt lat="42.26943" lon="1.79196">
        <ele>983.618</ele>
        <time>2019-04-08T03:16:38Z</time>
      </trkpt>
      <trkpt lat="42.26942" lon="1.79199">
        <ele>984.163</ele>
        <time>2019-04-08T03:16:39Z</time>
      </trkpt>
      <trkpt lat="42.26941" lon="1.79202">
        <ele>985.054</ele>
        <time>2019-04-08T03:16:40Z</time>
      </trkpt>
      <trkpt lat="42.26936" lon="1.79201">
        <ele>988.424</ele>
        <time>2019-04-08T03:16:42Z</time>
      </trkpt>
      <trkpt lat="42.26932" lon="1.79195">
        <ele>991.488</ele>
        <time>2019-04-08T03:16:44Z</time>
      </trkpt>
      <trkpt lat="42.26926" lon="1.79187">
        <ele>994.617</ele>
        <time>2019-04-08T03:16:47Z</time>
      </trkpt>
      <trkpt lat="42.26922" lon="1.79176">
        <ele>999.119</ele>
        <time>2019-04-08T03:16:51Z</time>
      </trkpt>
      <trkpt lat="42.26921" lon="1.7917">
        <ele>1000.977</ele>
        <time>2019-04-08T03:16:53Z</time>
      </trkpt>
      <trkpt lat="42.26922" lon="1.79162">
        <ele>1002.961</ele>
        <time>2019-04-08T03:16:55Z</time>
      </trkpt>
      <trkpt lat="42.26922" lon="1.79162">
        <ele>1002.827</ele>
        <time>2019-04-08T03:16:55Z</time>
      </trkpt>
      <trkpt lat="42.26919" lon="1.79166">
        <ele>1003.808</ele>
        <time>2019-04-08T03:16:57Z</time>
      </trkpt>
      <trkpt lat="42.26914" lon="1.79159">
        <ele>1004.81</ele>
        <time>2019-04-08T03:17:00Z</time>
      </trkpt>
      <trkpt lat="42.26912" lon="1.79155">
        <ele>1004.832</ele>
        <time>2019-04-08T03:17:02Z</time>
      </trkpt>
      <trkpt lat="42.2691" lon="1.79151">
        <ele>1005.277</ele>
        <time>2019-04-08T03:17:03Z</time>
      </trkpt>
      <trkpt lat="42.26905" lon="1.79146">
        <ele>1005.778</ele>
        <time>2019-04-08T03:17:05Z</time>
      </trkpt>
      <trkpt lat="42.26891" lon="1.7913">
        <ele>1007.218</ele>
        <time>2019-04-08T03:17:13Z</time>
      </trkpt>
      <trkpt lat="42.26884" lon="1.79115">
        <ele>1008.612</ele>
        <time>2019-04-08T03:17:18Z</time>
      </trkpt>
      <trkpt lat="42.26884" lon="1.79106">
        <ele>1010.041</ele>
        <time>2019-04-08T03:17:21Z</time>
      </trkpt>
      <trkpt lat="42.26895" lon="1.79084">
        <ele>1012.463</ele>
        <time>2019-04-08T03:17:28Z</time>
      </trkpt>
      <trkpt lat="42.26903" lon="1.79068">
        <ele>1013.952</ele>
        <time>2019-04-08T03:17:34Z</time>
      </trkpt>
      <trkpt lat="42.26913" lon="1.79052">
        <ele>1016.453</ele>
        <time>2019-04-08T03:17:40Z</time>
      </trkpt>
      <trkpt lat="42.26913" lon="1.79042">
        <ele>1018.308</ele>
        <time>2019-04-08T03:17:43Z</time>
      </trkpt>
      <trkpt lat="42.26912" lon="1.79029">
        <ele>1020.208</ele>
        <time>2019-04-08T03:17:47Z</time>
      </trkpt>
      <trkpt lat="42.26906" lon="1.79017">
        <ele>1021.118</ele>
        <time>2019-04-08T03:17:52Z</time>
      </trkpt>
      <trkpt lat="42.26892" lon="1.79003">
        <ele>1018.71</ele>
        <time>2019-04-08T03:17:58Z</time>
      </trkpt>
      <trkpt lat="42.26873" lon="1.78988">
        <ele>1019.185</ele>
        <time>2019-04-08T03:18:07Z</time>
      </trkpt>
      <trkpt lat="42.26863" lon="1.78977">
        <ele>1018.796</ele>
        <time>2019-04-08T03:18:13Z</time>
      </trkpt>
      <trkpt lat="42.26848" lon="1.78961">
        <ele>1017.876</ele>
        <time>2019-04-08T03:18:20Z</time>
      </trkpt>
      <trkpt lat="42.2684" lon="1.78944">
        <ele>1017.82</ele>
        <time>2019-04-08T03:18:26Z</time>
      </trkpt>
      <trkpt lat="42.26838" lon="1.78934">
        <ele>1018.399</ele>
        <time>2019-04-08T03:18:29Z</time>
      </trkpt>
      <trkpt lat="42.26843" lon="1.78928">
        <ele>1021.161</ele>
        <time>2019-04-08T03:18:32Z</time>
      </trkpt>
      <trkpt lat="42.26852" lon="1.7893">
        <ele>1024.518</ele>
        <time>2019-04-08T03:18:35Z</time>
      </trkpt>
      <trkpt lat="42.26861" lon="1.78931">
        <ele>1027.498</ele>
        <time>2019-04-08T03:18:39Z</time>
      </trkpt>
      <trkpt lat="42.26868" lon="1.78924">
        <ele>1030.717</ele>
        <time>2019-04-08T03:18:43Z</time>
      </trkpt>
      <trkpt lat="42.26871" lon="1.7892">
        <ele>1032.208</ele>
        <time>2019-04-08T03:18:44Z</time>
      </trkpt>
      <trkpt lat="42.26871" lon="1.78915">
        <ele>1033.684</ele>
        <time>2019-04-08T03:18:46Z</time>
      </trkpt>
      <trkpt lat="42.26867" lon="1.7891">
        <ele>1035.576</ele>
        <time>2019-04-08T03:18:48Z</time>
      </trkpt>
      <trkpt lat="42.26862" lon="1.78909">
        <ele>1036.941</ele>
        <time>2019-04-08T03:18:50Z</time>
      </trkpt>
      <trkpt lat="42.2686" lon="1.78901">
        <ele>1038.972</ele>
        <time>2019-04-08T03:18:52Z</time>
      </trkpt>
      <trkpt lat="42.26862" lon="1.78899">
        <ele>1039.932</ele>
        <time>2019-04-08T03:18:53Z</time>
      </trkpt>
      <trkpt lat="42.26866" lon="1.78894">
        <ele>1041.896</ele>
        <time>2019-04-08T03:18:56Z</time>
      </trkpt>
      <trkpt lat="42.26869" lon="1.78883">
        <ele>1044.775</ele>
        <time>2019-04-08T03:18:59Z</time>
      </trkpt>
      <trkpt lat="42.26869" lon="1.78882">
        <ele>1045.157</ele>
        <time>2019-04-08T03:18:59Z</time>
      </trkpt>
      <trkpt lat="42.26867" lon="1.78867">
        <ele>1048.913</ele>
        <time>2019-04-08T03:19:04Z</time>
      </trkpt>
      <trkpt lat="42.26863" lon="1.78863">
        <ele>1050.543</ele>
        <time>2019-04-08T03:19:06Z</time>
      </trkpt>
      <trkpt lat="42.26857" lon="1.78858">
        <ele>1053.707</ele>
        <time>2019-04-08T03:19:09Z</time>
      </trkpt>
      <trkpt lat="42.26849" lon="1.78853">
        <ele>1057.108</ele>
        <time>2019-04-08T03:19:12Z</time>
      </trkpt>
      <trkpt lat="42.26841" lon="1.78844">
        <ele>1060.024</ele>
        <time>2019-04-08T03:19:16Z</time>
      </trkpt>
      <trkpt lat="42.26834" lon="1.78835">
        <ele>1063.856</ele>
        <time>2019-04-08T03:19:20Z</time>
      </trkpt>
      <trkpt lat="42.26828" lon="1.78822">
        <ele>1066.861</ele>
        <time>2019-04-08T03:19:25Z</time>
      </trkpt>
      <trkpt lat="42.26824" lon="1.78815">
        <ele>1069.252</ele>
        <time>2019-04-08T03:19:27Z</time>
      </trkpt>
      <trkpt lat="42.26817" lon="1.78805">
        <ele>1073.122</ele>
        <time>2019-04-08T03:19:31Z</time>
      </trkpt>
      <trkpt lat="42.26812" lon="1.78798">
        <ele>1075.476</ele>
        <time>2019-04-08T03:19:34Z</time>
      </trkpt>
      <trkpt lat="42.26811" lon="1.78791">
        <ele>1076.865</ele>
        <time>2019-04-08T03:19:36Z</time>
      </trkpt>
      <trkpt lat="42.26812" lon="1.78787">
        <ele>1077.887</ele>
        <time>2019-04-08T03:19:38Z</time>
      </trkpt>
      <trkpt lat="42.26809" lon="1.78776">
        <ele>1080.742</ele>
        <time>2019-04-08T03:19:41Z</time>
      </trkpt>
      <trkpt lat="42.26807" lon="1.78772">
        <ele>1082.122</ele>
        <time>2019-04-08T03:19:42Z</time>
      </trkpt>
      <trkpt lat="42.26808" lon="1.78764">
        <ele>1083.114</ele>
        <time>2019-04-08T03:19:45Z</time>
      </trkpt>
      <trkpt lat="42.26808" lon="1.78754">
        <ele>1084.508</ele>
        <time>2019-04-08T03:19:48Z</time>
      </trkpt>
      <trkpt lat="42.26804" lon="1.78742">
        <ele>1087.447</ele>
        <time>2019-04-08T03:19:52Z</time>
      </trkpt>
      <trkpt lat="42.26804" lon="1.78731">
        <ele>1089.459</ele>
        <time>2019-04-08T03:19:55Z</time>
      </trkpt>
      <trkpt lat="42.26803" lon="1.78723">
        <ele>1091.374</ele>
        <time>2019-04-08T03:19:57Z</time>
      </trkpt>
      <trkpt lat="42.26802" lon="1.78706">
        <ele>1095.295</ele>
        <time>2019-04-08T03:20:02Z</time>
      </trkpt>
      <trkpt lat="42.268" lon="1.78695">
        <ele>1098.555</ele>
        <time>2019-04-08T03:20:06Z</time>
      </trkpt>
      <trkpt lat="42.26801" lon="1.78689">
        <ele>1099.549</ele>
        <time>2019-04-08T03:20:08Z</time>
      </trkpt>
      <trkpt lat="42.26801" lon="1.78678">
        <ele>1102.878</ele>
        <time>2019-04-08T03:20:11Z</time>
      </trkpt>
      <trkpt lat="42.26801" lon="1.78667">
        <ele>1106.27</ele>
        <time>2019-04-08T03:20:14Z</time>
      </trkpt>
      <trkpt lat="42.268" lon="1.78663">
        <ele>1107.253</ele>
        <time>2019-04-08T03:20:15Z</time>
      </trkpt>
      <trkpt lat="42.26798" lon="1.78651">
        <ele>1110.904</ele>
        <time>2019-04-08T03:20:19Z</time>
      </trkpt>
      <trkpt lat="42.26797" lon="1.78645">
        <ele>1112.414</ele>
        <time>2019-04-08T03:20:21Z</time>
      </trkpt>
      <trkpt lat="42.26797" lon="1.78642">
        <ele>1113.408</ele>
        <time>2019-04-08T03:20:22Z</time>
      </trkpt>
      <trkpt lat="42.26794" lon="1.78633">
        <ele>1115.828</ele>
        <time>2019-04-08T03:20:24Z</time>
      </trkpt>
      <trkpt lat="42.26792" lon="1.78629">
        <ele>1116.81</ele>
        <time>2019-04-08T03:20:26Z</time>
      </trkpt>
      <trkpt lat="42.26791" lon="1.78627">
        <ele>1117.855</ele>
        <time>2019-04-08T03:20:27Z</time>
      </trkpt>
      <trkpt lat="42.26787" lon="1.7862">
        <ele>1121.166</ele>
        <time>2019-04-08T03:20:29Z</time>
      </trkpt>
      <trkpt lat="42.26784" lon="1.78618">
        <ele>1123.456</ele>
        <time>2019-04-08T03:20:31Z</time>
      </trkpt>
      <trkpt lat="42.26781" lon="1.78614">
        <ele>1127.42</ele>
        <time>2019-04-08T03:20:32Z</time>
      </trkpt>
      <trkpt lat="42.26779" lon="1.78607">
        <ele>1127.969</ele>
        <time>2019-04-08T03:20:35Z</time>
      </trkpt>
      <trkpt lat="42.26773" lon="1.78585">
        <ele>1129.861</ele>
        <time>2019-04-08T03:20:41Z</time>
      </trkpt>
      <trkpt lat="42.26772" lon="1.78578">
        <ele>1131.661</ele>
        <time>2019-04-08T03:20:44Z</time>
      </trkpt>
      <trkpt lat="42.26765" lon="1.78557">
        <ele>1134.521</ele>
        <time>2019-04-08T03:20:50Z</time>
      </trkpt>
      <trkpt lat="42.26761" lon="1.78544">
        <ele>1137.913</ele>
        <time>2019-04-08T03:20:55Z</time>
      </trkpt>
      <trkpt lat="42.26756" lon="1.78515">
        <ele>1140.308</ele>
        <time>2019-04-08T03:21:03Z</time>
      </trkpt>
      <trkpt lat="42.26754" lon="1.78508">
        <ele>1140.439</ele>
        <time>2019-04-08T03:21:06Z</time>
      </trkpt>
      <trkpt lat="42.26743" lon="1.78488">
        <ele>1140.481</ele>
        <time>2019-04-08T03:21:13Z</time>
      </trkpt>
      <trkpt lat="42.26739" lon="1.78484">
        <ele>1140.446</ele>
        <time>2019-04-08T03:21:15Z</time>
      </trkpt>
      <trkpt lat="42.26725" lon="1.78462">
        <ele>1142.797</ele>
        <time>2019-04-08T03:21:24Z</time>
      </trkpt>
      <trkpt lat="42.26711" lon="1.78438">
        <ele>1145.277</ele>
        <time>2019-04-08T03:21:32Z</time>
      </trkpt>
      <trkpt lat="42.26705" lon="1.78427">
        <ele>1148.411</ele>
        <time>2019-04-08T03:21:37Z</time>
      </trkpt>
      <trkpt lat="42.267" lon="1.78415">
        <ele>1151.47</ele>
        <time>2019-04-08T03:21:41Z</time>
      </trkpt>
      <trkpt lat="42.26696" lon="1.78402">
        <ele>1154.752</ele>
        <time>2019-04-08T03:21:45Z</time>
      </trkpt>
      <trkpt lat="42.26696" lon="1.78402">
        <ele>1154.769</ele>
        <time>2019-04-08T04:14:07Z</time>
      </trkpt>
      <trkpt lat="42.26689" lon="1.78372">
        <ele>1157.104</ele>
        <time>2019-04-08T04:14:16Z</time>
      </trkpt>
      <trkpt lat="42.26685" lon="1.78342">
        <ele>1156.124</ele>
        <time>2019-04-08T04:14:25Z</time>
      </trkpt>
      <trkpt lat="42.26684" lon="1.78324">
        <ele>1154.208</ele>
        <time>2019-04-08T04:14:30Z</time>
      </trkpt>
      <trkpt lat="42.2668" lon="1.78294">
        <ele>1155.259</ele>
        <time>2019-04-08T04:14:39Z</time>
      </trkpt>
      <trkpt lat="42.2668" lon="1.78287">
        <ele>1155.751</ele>
        <time>2019-04-08T04:14:41Z</time>
      </trkpt>
      <trkpt lat="42.26668" lon="1.78257">
        <ele>1156.766</ele>
        <time>2019-04-08T04:14:51Z</time>
      </trkpt>
      <trkpt lat="42.26657" lon="1.78253">
        <ele>1156.287</ele>
        <time>2019-04-08T04:14:56Z</time>
      </trkpt>
      <trkpt lat="42.26632" lon="1.78251">
        <ele>1158.237</ele>
        <time>2019-04-08T04:15:06Z</time>
      </trkpt>
      <trkpt lat="42.26615" lon="1.78257">
        <ele>1161.431</ele>
        <time>2019-04-08T04:15:13Z</time>
      </trkpt>
      <trkpt lat="42.26612" lon="1.78257">
        <ele>1162.43</ele>
        <time>2019-04-08T04:15:14Z</time>
      </trkpt>
      <trkpt lat="42.26607" lon="1.7827">
        <ele>1166.262</ele>
        <time>2019-04-08T04:15:18Z</time>
      </trkpt>
      <trkpt lat="42.26594" lon="1.78282">
        <ele>1168.159</ele>
        <time>2019-04-08T04:15:25Z</time>
      </trkpt>
      <trkpt lat="42.26593" lon="1.78283">
        <ele>1172.003</ele>
        <time>2019-04-08T04:15:25Z</time>
      </trkpt>
      <trkpt lat="42.26592" lon="1.78283">
        <ele>1161.923</ele>
        <time>2019-04-08T04:15:26Z</time>
      </trkpt>
      <trkpt lat="42.26586" lon="1.78286">
        <ele>1166.308</ele>
        <time>2019-04-08T04:15:28Z</time>
      </trkpt>
      <trkpt lat="42.2658" lon="1.7829">
        <ele>1166.838</ele>
        <time>2019-04-08T04:15:31Z</time>
      </trkpt>
      <trkpt lat="42.26577" lon="1.78291">
        <ele>1165.47</ele>
        <time>2019-04-08T04:15:32Z</time>
      </trkpt>
      <trkpt lat="42.26577" lon="1.78291">
        <ele>1171.655</ele>
        <time>2019-04-08T04:15:32Z</time>
      </trkpt>
      <trkpt lat="42.26577" lon="1.78292">
        <ele>1164.816</ele>
        <time>2019-04-08T04:15:32Z</time>
      </trkpt>
      <trkpt lat="42.26577" lon="1.78292">
        <ele>1169.786</ele>
        <time>2019-04-08T04:15:32Z</time>
      </trkpt>
      <trkpt lat="42.26577" lon="1.78291">
        <ele>1164.82</ele>
        <time>2019-04-08T04:15:32Z</time>
      </trkpt>
      <trkpt lat="42.26577" lon="1.78291">
        <ele>1169.699</ele>
        <time>2019-04-08T04:15:32Z</time>
      </trkpt>
      <trkpt lat="42.26577" lon="1.78291">
        <ele>1162.471</ele>
        <time>2019-04-08T04:15:32Z</time>
      </trkpt>
      <trkpt lat="42.26577" lon="1.78291">
        <ele>1168.698</ele>
        <time>2019-04-08T04:15:32Z</time>
      </trkpt>
      <trkpt lat="42.26577" lon="1.78292">
        <ele>1164.415</ele>
        <time>2019-04-08T04:15:32Z</time>
      </trkpt>
      <trkpt lat="42.26577" lon="1.78292">
        <ele>1171.126</ele>
        <time>2019-04-08T04:15:32Z</time>
      </trkpt>
      <trkpt lat="42.26577" lon="1.78292">
        <ele>1166.208</ele>
        <time>2019-04-08T04:15:32Z</time>
      </trkpt>
      <trkpt lat="42.26576" lon="1.78292">
        <ele>1166.832</ele>
        <time>2019-04-08T04:15:33Z</time>
      </trkpt>
      <trkpt lat="42.26567" lon="1.78289">
        <ele>1166.724</ele>
        <time>2019-04-08T04:15:37Z</time>
      </trkpt>
      <trkpt lat="42.26564" lon="1.78279">
        <ele>1167.239</ele>
        <time>2019-04-08T04:15:40Z</time>
      </trkpt>
      <trkpt lat="42.26559" lon="1.78262">
        <ele>1167.37</ele>
        <time>2019-04-08T04:15:45Z</time>
      </trkpt>
      <trkpt lat="42.26554" lon="1.7825">
        <ele>1166.85</ele>
        <time>2019-04-08T04:15:49Z</time>
      </trkpt>
      <trkpt lat="42.26554" lon="1.7824">
        <ele>1167.294</ele>
        <time>2019-04-08T04:15:52Z</time>
      </trkpt>
      <trkpt lat="42.26551" lon="1.78205">
        <ele>1169.113</ele>
        <time>2019-04-08T04:16:03Z</time>
      </trkpt>
      <trkpt lat="42.26543" lon="1.78175">
        <ele>1172.095</ele>
        <time>2019-04-08T04:16:12Z</time>
      </trkpt>
      <trkpt lat="42.26533" lon="1.78153">
        <ele>1171.657</ele>
        <time>2019-04-08T04:16:20Z</time>
      </trkpt>
      <trkpt lat="42.26529" lon="1.78137">
        <ele>1170.1</ele>
        <time>2019-04-08T04:16:25Z</time>
      </trkpt>
      <trkpt lat="42.26529" lon="1.78135">
        <ele>1170.12</ele>
        <time>2019-04-08T04:16:25Z</time>
      </trkpt>
      <trkpt lat="42.26536" lon="1.78126">
        <ele>1170.608</ele>
        <time>2019-04-08T04:16:30Z</time>
      </trkpt>
      <trkpt lat="42.26554" lon="1.78115">
        <ele>1172.068</ele>
        <time>2019-04-08T04:16:37Z</time>
      </trkpt>
      <trkpt lat="42.26568" lon="1.78105">
        <ele>1174.42</ele>
        <time>2019-04-08T04:16:44Z</time>
      </trkpt>
      <trkpt lat="42.26584" lon="1.78094">
        <ele>1177.495</ele>
        <time>2019-04-08T04:16:51Z</time>
      </trkpt>
      <trkpt lat="42.26587" lon="1.78092">
        <ele>1177.936</ele>
        <time>2019-04-08T04:16:52Z</time>
      </trkpt>
      <trkpt lat="42.26597" lon="1.78078">
        <ele>1180.246</ele>
        <time>2019-04-08T04:16:58Z</time>
      </trkpt>
      <trkpt lat="42.26598" lon="1.78076">
        <ele>1180.28</ele>
        <time>2019-04-08T04:16:59Z</time>
      </trkpt>
      <trkpt lat="42.26598" lon="1.78075">
        <ele>1180.679</ele>
        <time>2019-04-08T04:16:59Z</time>
      </trkpt>
      <trkpt lat="42.26598" lon="1.78057">
        <ele>1182.791</ele>
        <time>2019-04-08T04:17:04Z</time>
      </trkpt>
      <trkpt lat="42.26596" lon="1.78035">
        <ele>1184.623</ele>
        <time>2019-04-08T04:17:11Z</time>
      </trkpt>
      <trkpt lat="42.26592" lon="1.78">
        <ele>1187.983</ele>
        <time>2019-04-08T04:17:21Z</time>
      </trkpt>
      <trkpt lat="42.2659" lon="1.77994">
        <ele>1187.511</ele>
        <time>2019-04-08T04:17:23Z</time>
      </trkpt>
      <trkpt lat="42.26589" lon="1.77988">
        <ele>1188.408</ele>
        <time>2019-04-08T04:17:25Z</time>
      </trkpt>
      <trkpt lat="42.26588" lon="1.7798">
        <ele>1188.345</ele>
        <time>2019-04-08T04:17:28Z</time>
      </trkpt>
      <trkpt lat="42.26579" lon="1.77949">
        <ele>1190.327</ele>
        <time>2019-04-08T04:17:37Z</time>
      </trkpt>
      <trkpt lat="42.26577" lon="1.7794">
        <ele>1191.362</ele>
        <time>2019-04-08T04:17:40Z</time>
      </trkpt>
      <trkpt lat="42.26576" lon="1.77936">
        <ele>1191.253</ele>
        <time>2019-04-08T04:17:41Z</time>
      </trkpt>
      <trkpt lat="42.26571" lon="1.77922">
        <ele>1193.143</ele>
        <time>2019-04-08T04:17:46Z</time>
      </trkpt>
      <trkpt lat="42.26562" lon="1.77902">
        <ele>1195.547</ele>
        <time>2019-04-08T04:17:53Z</time>
      </trkpt>
      <trkpt lat="42.26559" lon="1.77897">
        <ele>1196.076</ele>
        <time>2019-04-08T04:17:55Z</time>
      </trkpt>
      <trkpt lat="42.26558" lon="1.77896">
        <ele>1196.078</ele>
        <time>2019-04-08T04:17:55Z</time>
      </trkpt>
      <trkpt lat="42.26544" lon="1.77876">
        <ele>1200.385</ele>
        <time>2019-04-08T04:18:03Z</time>
      </trkpt>
      <trkpt lat="42.26536" lon="1.77865">
        <ele>1200.389</ele>
        <time>2019-04-08T04:18:08Z</time>
      </trkpt>
      <trkpt lat="42.26531" lon="1.77827">
        <ele>1201.417</ele>
        <time>2019-04-08T04:18:20Z</time>
      </trkpt>
      <trkpt lat="42.26533" lon="1.77815">
        <ele>1202.308</ele>
        <time>2019-04-08T04:18:23Z</time>
      </trkpt>
      <trkpt lat="42.26538" lon="1.77804">
        <ele>1204.731</ele>
        <time>2019-04-08T04:18:27Z</time>
      </trkpt>
      <trkpt lat="42.26545" lon="1.77782">
        <ele>1208.083</ele>
        <time>2019-04-08T04:18:34Z</time>
      </trkpt>
      <trkpt lat="42.26548" lon="1.77756">
        <ele>1210.418</ele>
        <time>2019-04-08T04:18:42Z</time>
      </trkpt>
      <trkpt lat="42.26549" lon="1.77726">
        <ele>1213.399</ele>
        <time>2019-04-08T04:18:51Z</time>
      </trkpt>
      <trkpt lat="42.26546" lon="1.77696">
        <ele>1216.359</ele>
        <time>2019-04-08T04:19:00Z</time>
      </trkpt>
      <trkpt lat="42.26539" lon="1.77669">
        <ele>1217.263</ele>
        <time>2019-04-08T04:19:08Z</time>
      </trkpt>
      <trkpt lat="42.26524" lon="1.77655">
        <ele>1217.392</ele>
        <time>2019-04-08T04:19:15Z</time>
      </trkpt>
      <trkpt lat="42.26519" lon="1.77653">
        <ele>1218.114</ele>
        <time>2019-04-08T04:19:17Z</time>
      </trkpt>
      <trkpt lat="42.26513" lon="1.77647">
        <ele>1215.863</ele>
        <time>2019-04-08T04:19:20Z</time>
      </trkpt>
      <trkpt lat="42.2649" lon="1.77639">
        <ele>1214.344</ele>
        <time>2019-04-08T04:19:30Z</time>
      </trkpt>
      <trkpt lat="42.26481" lon="1.77631">
        <ele>1213.318</ele>
        <time>2019-04-08T04:19:34Z</time>
      </trkpt>
      <trkpt lat="42.26478" lon="1.77624">
        <ele>1213.408</ele>
        <time>2019-04-08T04:19:37Z</time>
      </trkpt>
      <trkpt lat="42.26464" lon="1.77597">
        <ele>1212.599</ele>
        <time>2019-04-08T04:19:46Z</time>
      </trkpt>
      <trkpt lat="42.26459" lon="1.77585">
        <ele>1211.441</ele>
        <time>2019-04-08T04:19:50Z</time>
      </trkpt>
      <trkpt lat="42.26455" lon="1.7758">
        <ele>1211.416</ele>
        <time>2019-04-08T04:19:52Z</time>
      </trkpt>
      <trkpt lat="42.26453" lon="1.77572">
        <ele>1211.457</ele>
        <time>2019-04-08T04:19:55Z</time>
      </trkpt>
      <trkpt lat="42.26451" lon="1.77561">
        <ele>1212.037</ele>
        <time>2019-04-08T04:19:58Z</time>
      </trkpt>
      <trkpt lat="42.26456" lon="1.77552">
        <ele>1212.421</ele>
        <time>2019-04-08T04:20:02Z</time>
      </trkpt>
      <trkpt lat="42.26469" lon="1.7753">
        <ele>1215.89</ele>
        <time>2019-04-08T04:20:10Z</time>
      </trkpt>
      <trkpt lat="42.26476" lon="1.77511">
        <ele>1218.612</ele>
        <time>2019-04-08T04:20:16Z</time>
      </trkpt>
      <trkpt lat="42.26479" lon="1.7749">
        <ele>1221.568</ele>
        <time>2019-04-08T04:20:23Z</time>
      </trkpt>
      <trkpt lat="42.26479" lon="1.77483">
        <ele>1223.042</ele>
        <time>2019-04-08T04:20:25Z</time>
      </trkpt>
      <trkpt lat="42.2648" lon="1.77479">
        <ele>1223.526</ele>
        <time>2019-04-08T04:20:26Z</time>
      </trkpt>
      <trkpt lat="42.26482" lon="1.77453">
        <ele>1226.808</ele>
        <time>2019-04-08T04:20:34Z</time>
      </trkpt>
      <trkpt lat="42.26487" lon="1.77443">
        <ele>1228.769</ele>
        <time>2019-04-08T04:20:37Z</time>
      </trkpt>
      <trkpt lat="42.26491" lon="1.77434">
        <ele>1232.171</ele>
        <time>2019-04-08T04:20:40Z</time>
      </trkpt>
      <trkpt lat="42.26491" lon="1.77433">
        <ele>1232.776</ele>
        <time>2019-04-08T04:20:41Z</time>
      </trkpt>
      <trkpt lat="42.26495" lon="1.77419">
        <ele>1235.597</ele>
        <time>2019-04-08T04:20:45Z</time>
      </trkpt>
      <trkpt lat="42.26499" lon="1.77382">
        <ele>1237.517</ele>
        <time>2019-04-08T04:20:56Z</time>
      </trkpt>
      <trkpt lat="42.265" lon="1.77374">
        <ele>1237.471</ele>
        <time>2019-04-08T04:20:59Z</time>
      </trkpt>
      <trkpt lat="42.26493" lon="1.77354">
        <ele>1238.36</ele>
        <time>2019-04-08T04:21:05Z</time>
      </trkpt>
      <trkpt lat="42.26492" lon="1.77336">
        <ele>1239.362</ele>
        <time>2019-04-08T04:21:10Z</time>
      </trkpt>
      <trkpt lat="42.26495" lon="1.77306">
        <ele>1241.284</ele>
        <time>2019-04-08T04:21:19Z</time>
      </trkpt>
      <trkpt lat="42.26498" lon="1.77279">
        <ele>1244.107</ele>
        <time>2019-04-08T04:21:27Z</time>
      </trkpt>
      <trkpt lat="42.26497" lon="1.77253">
        <ele>1247.017</ele>
        <time>2019-04-08T04:21:35Z</time>
      </trkpt>
      <trkpt lat="42.26496" lon="1.77223">
        <ele>1249.908</ele>
        <time>2019-04-08T04:21:44Z</time>
      </trkpt>
      <trkpt lat="42.26491" lon="1.77194">
        <ele>1251.371</ele>
        <time>2019-04-08T04:21:53Z</time>
      </trkpt>
      <trkpt lat="42.2649" lon="1.77175">
        <ele>1252.483</ele>
        <time>2019-04-08T04:21:59Z</time>
      </trkpt>
      <trkpt lat="42.26489" lon="1.77172">
        <ele>1256.158</ele>
        <time>2019-04-08T04:21:59Z</time>
      </trkpt>
      <trkpt lat="42.26489" lon="1.7717">
        <ele>1248.589</ele>
        <time>2019-04-08T04:22:00Z</time>
      </trkpt>
      <trkpt lat="42.26489" lon="1.77155">
        <ele>1252.819</ele>
        <time>2019-04-08T04:22:04Z</time>
      </trkpt>
      <trkpt lat="42.26483" lon="1.77125">
        <ele>1253.753</ele>
        <time>2019-04-08T04:22:14Z</time>
      </trkpt>
      <trkpt lat="42.26483" lon="1.77105">
        <ele>1255.242</ele>
        <time>2019-04-08T04:22:20Z</time>
      </trkpt>
      <trkpt lat="42.26485" lon="1.77088">
        <ele>1258.084</ele>
        <time>2019-04-08T04:22:25Z</time>
      </trkpt>
      <trkpt lat="42.26481" lon="1.77077">
        <ele>1261.473</ele>
        <time>2019-04-08T04:22:28Z</time>
      </trkpt>
      <trkpt lat="42.26479" lon="1.77076">
        <ele>1262.585</ele>
        <time>2019-04-08T04:22:29Z</time>
      </trkpt>
      <trkpt lat="42.26464" lon="1.77056">
        <ele>1265.713</ele>
        <time>2019-04-08T04:22:37Z</time>
      </trkpt>
      <trkpt lat="42.2646" lon="1.77048">
        <ele>1267.608</ele>
        <time>2019-04-08T04:22:41Z</time>
      </trkpt>
      <trkpt lat="42.2645" lon="1.77027">
        <ele>1271.54</ele>
        <time>2019-04-08T04:22:48Z</time>
      </trkpt>
      <trkpt lat="42.26437" lon="1.77008">
        <ele>1274.922</ele>
        <time>2019-04-08T04:22:55Z</time>
      </trkpt>
      <trkpt lat="42.26432" lon="1.77004">
        <ele>1275.897</ele>
        <time>2019-04-08T04:22:58Z</time>
      </trkpt>
      <trkpt lat="42.26425" lon="1.76998">
        <ele>1277.728</ele>
        <time>2019-04-08T04:23:01Z</time>
      </trkpt>
      <trkpt lat="42.26409" lon="1.76977">
        <ele>1280.648</ele>
        <time>2019-04-08T04:23:10Z</time>
      </trkpt>
      <trkpt lat="42.26402" lon="1.76969">
        <ele>1282.622</ele>
        <time>2019-04-08T04:23:14Z</time>
      </trkpt>
      <trkpt lat="42.26398" lon="1.76962">
        <ele>1284.011</ele>
        <time>2019-04-08T04:23:16Z</time>
      </trkpt>
      <trkpt lat="42.26392" lon="1.76953">
        <ele>1285.453</ele>
        <time>2019-04-08T04:23:20Z</time>
      </trkpt>
      <trkpt lat="42.26391" lon="1.76948">
        <ele>1285.939</ele>
        <time>2019-04-08T04:23:22Z</time>
      </trkpt>
      <trkpt lat="42.26387" lon="1.76945">
        <ele>1286.901</ele>
        <time>2019-04-08T04:23:23Z</time>
      </trkpt>
      <trkpt lat="42.2639" lon="1.76955">
        <ele>1284.921</ele>
        <time>2019-04-08T04:23:26Z</time>
      </trkpt>
      <trkpt lat="42.2639" lon="1.76955">
        <ele>1284.908</ele>
        <time>2019-04-08T04:23:27Z</time>
      </trkpt>
      <trkpt lat="42.26391" lon="1.76956">
        <ele>1290.836</ele>
        <time>2019-04-08T04:23:27Z</time>
      </trkpt>
      <trkpt lat="42.26391" lon="1.76957">
        <ele>1279.318</ele>
        <time>2019-04-08T04:23:27Z</time>
      </trkpt>
      <trkpt lat="42.26392" lon="1.7696">
        <ele>1284.063</ele>
        <time>2019-04-08T04:23:28Z</time>
      </trkpt>
      <trkpt lat="42.26395" lon="1.76962">
        <ele>1285.594</ele>
        <time>2019-04-08T04:23:29Z</time>
      </trkpt>
      <trkpt lat="42.26398" lon="1.76956">
        <ele>1286.064</ele>
        <time>2019-04-08T04:23:31Z</time>
      </trkpt>
      <trkpt lat="42.26395" lon="1.76958">
        <ele>1286.058</ele>
        <time>2019-04-08T04:23:33Z</time>
      </trkpt>
      <trkpt lat="42.26385" lon="1.76932">
        <ele>1287.467</ele>
        <time>2019-04-08T04:23:42Z</time>
      </trkpt>
      <trkpt lat="42.26377" lon="1.76919">
        <ele>1290.379</ele>
        <time>2019-04-08T04:23:47Z</time>
      </trkpt>
      <trkpt lat="42.26363" lon="1.76907">
        <ele>1293.627</ele>
        <time>2019-04-08T04:23:53Z</time>
      </trkpt>
      <trkpt lat="42.26361" lon="1.76904">
        <ele>1294.168</ele>
        <time>2019-04-08T04:23:54Z</time>
      </trkpt>
      <trkpt lat="42.2636" lon="1.76903">
        <ele>1294.114</ele>
        <time>2019-04-08T04:23:55Z</time>
      </trkpt>
      <trkpt lat="42.26355" lon="1.76883">
        <ele>1297.408</ele>
        <time>2019-04-08T04:24:01Z</time>
      </trkpt>
      <trkpt lat="42.26355" lon="1.76881">
        <ele>1298.075</ele>
        <time>2019-04-08T04:24:02Z</time>
      </trkpt>
      <trkpt lat="42.26358" lon="1.76867">
        <ele>1301.477</ele>
        <time>2019-04-08T04:24:06Z</time>
      </trkpt>
      <trkpt lat="42.26356" lon="1.76852">
        <ele>1304.282</ele>
        <time>2019-04-08T04:24:10Z</time>
      </trkpt>
      <trkpt lat="42.26347" lon="1.76844">
        <ele>1307.153</ele>
        <time>2019-04-08T04:24:14Z</time>
      </trkpt>
      <trkpt lat="42.26345" lon="1.76842">
        <ele>1308.173</ele>
        <time>2019-04-08T04:24:15Z</time>
      </trkpt>
      <trkpt lat="42.26342" lon="1.76838">
        <ele>1309.117</ele>
        <time>2019-04-08T04:24:17Z</time>
      </trkpt>
      <trkpt lat="42.26334" lon="1.76827">
        <ele>1312.076</ele>
        <time>2019-04-08T04:24:22Z</time>
      </trkpt>
      <trkpt lat="42.26329" lon="1.76808">
        <ele>1315.258</ele>
        <time>2019-04-08T04:24:28Z</time>
      </trkpt>
      <trkpt lat="42.2632" lon="1.7679">
        <ele>1318.643</ele>
        <time>2019-04-08T04:24:35Z</time>
      </trkpt>
      <trkpt lat="42.26313" lon="1.76773">
        <ele>1321.064</ele>
        <time>2019-04-08T04:24:40Z</time>
      </trkpt>
      <trkpt lat="42.26308" lon="1.76762">
        <ele>1323.41</ele>
        <time>2019-04-08T04:24:44Z</time>
      </trkpt>
      <trkpt lat="42.26302" lon="1.76755">
        <ele>1324.808</ele>
        <time>2019-04-08T04:24:47Z</time>
      </trkpt>
      <trkpt lat="42.26294" lon="1.76744">
        <ele>1327.787</ele>
        <time>2019-04-08T04:24:52Z</time>
      </trkpt>
      <trkpt lat="42.26288" lon="1.76735">
        <ele>1329.399</ele>
        <time>2019-04-08T04:24:55Z</time>
      </trkpt>
      <trkpt lat="42.26277" lon="1.7672">
        <ele>1332.574</ele>
        <time>2019-04-08T04:25:02Z</time>
      </trkpt>
      <trkpt lat="42.26272" lon="1.76711">
        <ele>1334.515</ele>
        <time>2019-04-08T04:25:05Z</time>
      </trkpt>
      <trkpt lat="42.26272" lon="1.7671">
        <ele>1335.035</ele>
        <time>2019-04-08T04:25:05Z</time>
      </trkpt>
      <trkpt lat="42.26263" lon="1.76699">
        <ele>1338.349</ele>
        <time>2019-04-08T04:25:10Z</time>
      </trkpt>
      <trkpt lat="42.26249" lon="1.76681">
        <ele>1341.728</ele>
        <time>2019-04-08T04:25:18Z</time>
      </trkpt>
      <trkpt lat="42.26246" lon="1.76682">
        <ele>1343.13</ele>
        <time>2019-04-08T04:25:19Z</time>
      </trkpt>
      <trkpt lat="42.26248" lon="1.767">
        <ele>1344.125</ele>
        <time>2019-04-08T04:25:25Z</time>
      </trkpt>
      <trkpt lat="42.26256" lon="1.76728">
        <ele>1346.526</ele>
        <time>2019-04-08T04:25:33Z</time>
      </trkpt>
      <trkpt lat="42.26259" lon="1.76754">
        <ele>1348.908</ele>
        <time>2019-04-08T04:25:41Z</time>
      </trkpt>
      <trkpt lat="42.26259" lon="1.76763">
        <ele>1352.208</ele>
        <time>2019-04-08T04:25:44Z</time>
      </trkpt>
      <trkpt lat="42.26259" lon="1.76787">
        <ele>1353.755</ele>
        <time>2019-04-08T04:25:51Z</time>
      </trkpt>
      <trkpt lat="42.26259" lon="1.76811">
        <ele>1356.767</ele>
        <time>2019-04-08T04:25:58Z</time>
      </trkpt>
      <trkpt lat="42.26257" lon="1.76833">
        <ele>1360.062</ele>
        <time>2019-04-08T04:26:05Z</time>
      </trkpt>
      <trkpt lat="42.26258" lon="1.76861">
        <ele>1363.393</ele>
        <time>2019-04-08T04:26:13Z</time>
      </trkpt>
      <trkpt lat="42.26257" lon="1.76867">
        <ele>1365.283</ele>
        <time>2019-04-08T04:26:15Z</time>
      </trkpt>
      <trkpt lat="42.26254" lon="1.7687">
        <ele>1365.797</ele>
        <time>2019-04-08T04:26:16Z</time>
      </trkpt>
      <trkpt lat="42.26254" lon="1.76871">
        <ele>1365.736</ele>
        <time>2019-04-08T04:26:16Z</time>
      </trkpt>
      <trkpt lat="42.26252" lon="1.76869">
        <ele>1365.878</ele>
        <time>2019-04-08T04:26:17Z</time>
      </trkpt>
      <trkpt lat="42.26253" lon="1.76869">
        <ele>1365.281</ele>
        <time>2019-04-08T04:26:17Z</time>
      </trkpt>
      <trkpt lat="42.26253" lon="1.76869">
        <ele>1365.361</ele>
        <time>2019-04-08T04:26:18Z</time>
      </trkpt>
      <trkpt lat="42.26254" lon="1.7687">
        <ele>1365.317</ele>
        <time>2019-04-08T04:26:18Z</time>
      </trkpt>
      <trkpt lat="42.26254" lon="1.76869">
        <ele>1365.308</ele>
        <time>2019-04-08T04:26:18Z</time>
      </trkpt>
      <trkpt lat="42.26254" lon="1.76869">
        <ele>1365.361</ele>
        <time>2019-04-08T04:26:18Z</time>
      </trkpt>
      <trkpt lat="42.26254" lon="1.76869">
        <ele>1365.833</ele>
        <time>2019-04-08T04:26:18Z</time>
      </trkpt>
      <trkpt lat="42.26249" lon="1.76862">
        <ele>1366.758</ele>
        <time>2019-04-08T04:26:21Z</time>
      </trkpt>
      <trkpt lat="42.26243" lon="1.76856">
        <ele>1367.159</ele>
        <time>2019-04-08T04:26:24Z</time>
      </trkpt>
      <trkpt lat="42.26236" lon="1.76833">
        <ele>1367.699</ele>
        <time>2019-04-08T04:26:31Z</time>
      </trkpt>
      <trkpt lat="42.26234" lon="1.76821">
        <ele>1369.193</ele>
        <time>2019-04-08T04:26:35Z</time>
      </trkpt>
      <trkpt lat="42.26229" lon="1.76796">
        <ele>1372.422</ele>
        <time>2019-04-08T04:26:43Z</time>
      </trkpt>
      <trkpt lat="42.26228" lon="1.76793">
        <ele>1373.584</ele>
        <time>2019-04-08T04:26:44Z</time>
      </trkpt>
      <trkpt lat="42.26223" lon="1.76776">
        <ele>1376.311</ele>
        <time>2019-04-08T04:26:49Z</time>
      </trkpt>
      <trkpt lat="42.26216" lon="1.76762">
        <ele>1379.621</ele>
        <time>2019-04-08T04:26:54Z</time>
      </trkpt>
      <trkpt lat="42.26214" lon="1.7676">
        <ele>1380.203</ele>
        <time>2019-04-08T04:26:55Z</time>
      </trkpt>
      <trkpt lat="42.2621" lon="1.76753">
        <ele>1382.108</ele>
        <time>2019-04-08T04:26:58Z</time>
      </trkpt>
      <trkpt lat="42.26202" lon="1.76743">
        <ele>1384.574</ele>
        <time>2019-04-08T04:27:02Z</time>
      </trkpt>
      <trkpt lat="42.26201" lon="1.76741">
        <ele>1384.576</ele>
        <time>2019-04-08T04:27:03Z</time>
      </trkpt>
      <trkpt lat="42.262" lon="1.76739">
        <ele>1385.591</ele>
        <time>2019-04-08T04:27:04Z</time>
      </trkpt>
      <trkpt lat="42.26191" lon="1.76725">
        <ele>1388.852</ele>
        <time>2019-04-08T04:27:09Z</time>
      </trkpt>
      <trkpt lat="42.26174" lon="1.76705">
        <ele>1391.712</ele>
        <time>2019-04-08T04:27:18Z</time>
      </trkpt>
      <trkpt lat="42.26172" lon="1.76698">
        <ele>1393.776</ele>
        <time>2019-04-08T04:27:20Z</time>
      </trkpt>
      <trkpt lat="42.26156" lon="1.76682">
        <ele>1396.645</ele>
        <time>2019-04-08T04:27:28Z</time>
      </trkpt>
      <trkpt lat="42.26153" lon="1.76674">
        <ele>1396.947</ele>
        <time>2019-04-08T04:27:31Z</time>
      </trkpt>
      <trkpt lat="42.2615" lon="1.7667">
        <ele>1398.087</ele>
        <time>2019-04-08T04:27:33Z</time>
      </trkpt>
      <trkpt lat="42.26146" lon="1.76662">
        <ele>1399.042</ele>
        <time>2019-04-08T04:27:36Z</time>
      </trkpt>
      <trkpt lat="42.26129" lon="1.76645">
        <ele>1401.726</ele>
        <time>2019-04-08T04:27:44Z</time>
      </trkpt>
      <trkpt lat="42.26127" lon="1.76644">
        <ele>1401.708</ele>
        <time>2019-04-08T04:27:45Z</time>
      </trkpt>
      <trkpt lat="42.26122" lon="1.76635">
        <ele>1403.361</ele>
        <time>2019-04-08T04:27:48Z</time>
      </trkpt>
      <trkpt lat="42.26111" lon="1.7662">
        <ele>1406.163</ele>
        <time>2019-04-08T04:27:54Z</time>
      </trkpt>
      <trkpt lat="42.261" lon="1.76613">
        <ele>1409.098</ele>
        <time>2019-04-08T04:27:59Z</time>
      </trkpt>
      <trkpt lat="42.26092" lon="1.76597">
        <ele>1412.399</ele>
        <time>2019-04-08T04:28:05Z</time>
      </trkpt>
      <trkpt lat="42.26092" lon="1.76593">
        <ele>1412.829</ele>
        <time>2019-04-08T04:28:06Z</time>
      </trkpt>
      <trkpt lat="42.26094" lon="1.7658">
        <ele>1415.833</ele>
        <time>2019-04-08T04:28:10Z</time>
      </trkpt>
      <trkpt lat="42.26092" lon="1.7658">
        <ele>1416.612</ele>
        <time>2019-04-08T04:28:11Z</time>
      </trkpt>
      <trkpt lat="42.26092" lon="1.7658">
        <ele>1440.334</ele>
        <time>2019-04-08T04:28:11Z</time>
      </trkpt>
      <trkpt lat="42.26092" lon="1.7658">
        <ele>1398.976</ele>
        <time>2019-04-08T04:28:11Z</time>
      </trkpt>
      <trkpt lat="42.26092" lon="1.7658">
        <ele>1414.29</ele>
        <time>2019-04-08T04:28:11Z</time>
      </trkpt>
      <trkpt lat="42.26092" lon="1.76579">
        <ele>1423.419</ele>
        <time>2019-04-08T04:28:11Z</time>
      </trkpt>
      <trkpt lat="42.26092" lon="1.76579">
        <ele>1414.308</ele>
        <time>2019-04-08T04:28:11Z</time>
      </trkpt>
      <trkpt lat="42.26092" lon="1.76579">
        <ele>1411.44</ele>
        <time>2019-04-08T04:28:11Z</time>
      </trkpt>
      <trkpt lat="42.26088" lon="1.7658">
        <ele>1416.662</ele>
        <time>2019-04-08T04:28:12Z</time>
      </trkpt>
      <trkpt lat="42.26082" lon="1.76585">
        <ele>1419.087</ele>
        <time>2019-04-08T04:28:15Z</time>
      </trkpt>
      <trkpt lat="42.26075" lon="1.76589">
        <ele>1420.648</ele>
        <time>2019-04-08T04:28:19Z</time>
      </trkpt>
      <trkpt lat="42.26063" lon="1.76593">
        <ele>1424.018</ele>
        <time>2019-04-08T04:28:23Z</time>
      </trkpt>
      <trkpt lat="42.26061" lon="1.76593">
        <ele>1424.822</ele>
        <time>2019-04-08T04:28:24Z</time>
      </trkpt>
      <trkpt lat="42.26054" lon="1.76611">
        <ele>1426.891</ele>
        <time>2019-04-08T04:28:30Z</time>
      </trkpt>
      <trkpt lat="42.26057" lon="1.76618">
        <ele>1428.213</ele>
        <time>2019-04-08T04:28:32Z</time>
      </trkpt>
      <trkpt lat="42.26056" lon="1.7662">
        <ele>1430.251</ele>
        <time>2019-04-08T04:28:33Z</time>
      </trkpt>
      <trkpt lat="42.26048" lon="1.76616">
        <ele>1430.201</ele>
        <time>2019-04-08T04:28:37Z</time>
      </trkpt>
      <trkpt lat="42.26037" lon="1.7661">
        <ele>1430.211</ele>
        <time>2019-04-08T04:28:42Z</time>
      </trkpt>
      <trkpt lat="42.26026" lon="1.76605">
        <ele>1432.508</ele>
        <time>2019-04-08T04:28:46Z</time>
      </trkpt>
      <trkpt lat="42.26025" lon="1.76605">
        <ele>1432.098</ele>
        <time>2019-04-08T04:28:47Z</time>
      </trkpt>
      <trkpt lat="42.26024" lon="1.76605">
        <ele>1435.47</ele>
        <time>2019-04-08T04:28:47Z</time>
      </trkpt>
      <trkpt lat="42.26023" lon="1.76605">
        <ele>1428.735</ele>
        <time>2019-04-08T04:28:47Z</time>
      </trkpt>
      <trkpt lat="42.26014" lon="1.76602">
        <ele>1433.066</ele>
        <time>2019-04-08T04:28:51Z</time>
      </trkpt>
      <trkpt lat="42.26027" lon="1.76604">
        <ele>1438.456</ele>
        <time>2019-04-08T05:14:39Z</time>
      </trkpt>
      <trkpt lat="42.26025" lon="1.76605">
        <ele>1438.39</ele>
        <time>2019-04-08T05:14:39Z</time>
      </trkpt>
      <trkpt lat="42.25942" lon="1.76625">
        <ele>1438.859</ele>
        <time>2019-04-08T05:15:13Z</time>
      </trkpt>
      <trkpt lat="42.25854" lon="1.76609">
        <ele>1431.141</ele>
        <time>2019-04-08T05:15:49Z</time>
      </trkpt>
      <trkpt lat="42.25771" lon="1.76578">
        <ele>1427.383</ele>
        <time>2019-04-08T05:16:23Z</time>
      </trkpt>
      <trkpt lat="42.2569" lon="1.76526">
        <ele>1423.025</ele>
        <time>2019-04-08T05:16:59Z</time>
      </trkpt>
      <trkpt lat="42.25597" lon="1.76515">
        <ele>1419.617</ele>
        <time>2019-04-08T05:17:37Z</time>
      </trkpt>
      <trkpt lat="42.25522" lon="1.76593">
        <ele>1424.808</ele>
        <time>2019-04-08T05:18:14Z</time>
      </trkpt>
      <trkpt lat="42.25448" lon="1.76623">
        <ele>1422.511</ele>
        <time>2019-04-08T05:18:45Z</time>
      </trkpt>
      <trkpt lat="42.25443" lon="1.76517">
        <ele>1406.123</ele>
        <time>2019-04-08T05:19:17Z</time>
      </trkpt>
      <trkpt lat="42.25403" lon="1.76406">
        <ele>1397.998</ele>
        <time>2019-04-08T05:19:53Z</time>
      </trkpt>
      <trkpt lat="42.25337" lon="1.76315">
        <ele>1391.349</ele>
        <time>2019-04-08T05:20:31Z</time>
      </trkpt>
      <trkpt lat="42.25252" lon="1.76267">
        <ele>1379.359</ele>
        <time>2019-04-08T05:21:08Z</time>
      </trkpt>
      <trkpt lat="42.25184" lon="1.76173">
        <ele>1373.433</ele>
        <time>2019-04-08T05:21:47Z</time>
      </trkpt>
      <trkpt lat="42.25149" lon="1.76022">
        <ele>1368.612</ele>
        <time>2019-04-08T05:22:34Z</time>
      </trkpt>
      <trkpt lat="42.25224" lon="1.7593">
        <ele>1351.954</ele>
        <time>2019-04-08T05:23:14Z</time>
      </trkpt>
      <trkpt lat="42.25345" lon="1.75947">
        <ele>1329.758</ele>
        <time>2019-04-08T05:24:03Z</time>
      </trkpt>
      <trkpt lat="42.25423" lon="1.75878">
        <ele>1323.052</ele>
        <time>2019-04-08T05:24:40Z</time>
      </trkpt>
      <trkpt lat="42.25533" lon="1.75854">
        <ele>1314.317</ele>
        <time>2019-04-08T05:25:25Z</time>
      </trkpt>
      <trkpt lat="42.25614" lon="1.75752">
        <ele>1290.708</ele>
        <time>2019-04-08T05:26:09Z</time>
      </trkpt>
      <trkpt lat="42.25617" lon="1.75639">
        <ele>1298.028</ele>
        <time>2019-04-08T05:26:43Z</time>
      </trkpt>
      <trkpt lat="42.25619" lon="1.75514">
        <ele>1288.41</ele>
        <time>2019-04-08T05:27:20Z</time>
      </trkpt>
      <trkpt lat="42.25557" lon="1.75405">
        <ele>1258.015</ele>
        <time>2019-04-08T05:28:01Z</time>
      </trkpt>
      <trkpt lat="42.25546" lon="1.75252">
        <ele>1258.096</ele>
        <time>2019-04-08T05:28:46Z</time>
      </trkpt>
      <trkpt lat="42.25492" lon="1.75159">
        <ele>1270.096</ele>
        <time>2019-04-08T05:29:21Z</time>
      </trkpt>
      <trkpt lat="42.25463" lon="1.75052">
        <ele>1259.06</ele>
        <time>2019-04-08T05:29:55Z</time>
      </trkpt>
      <trkpt lat="42.25549" lon="1.75004">
        <ele>1265.269</ele>
        <time>2019-04-08T05:30:32Z</time>
      </trkpt>
      <trkpt lat="42.25556" lon="1.74929">
        <ele>1248.531</ele>
        <time>2019-04-08T05:30:55Z</time>
      </trkpt>
      <trkpt lat="42.25526" lon="1.74761">
        <ele>1256.798</ele>
        <time>2019-04-08T05:31:46Z</time>
      </trkpt>
      <trkpt lat="42.25497" lon="1.74651">
        <ele>1259.915</ele>
        <time>2019-04-08T05:32:21Z</time>
      </trkpt>
      <trkpt lat="42.25536" lon="1.74524">
        <ele>1256.226</ele>
        <time>2019-04-08T05:33:01Z</time>
      </trkpt>
      <trkpt lat="42.2553" lon="1.74365">
        <ele>1261.908</ele>
        <time>2019-04-08T05:33:49Z</time>
      </trkpt>
      <trkpt lat="42.25515" lon="1.74265">
        <ele>1270.112</ele>
        <time>2019-04-08T05:34:19Z</time>
      </trkpt>
      <trkpt lat="42.25482" lon="1.74114">
        <ele>1267.354</ele>
        <time>2019-04-08T05:35:05Z</time>
      </trkpt>
      <trkpt lat="42.25447" lon="1.74024">
        <ele>1265.779</ele>
        <time>2019-04-08T05:35:36Z</time>
      </trkpt>
      <trkpt lat="42.25417" lon="1.73927">
        <ele>1263.38</ele>
        <time>2019-04-08T05:36:07Z</time>
      </trkpt>
      <trkpt lat="42.25341" lon="1.73894">
        <ele>1271.51</ele>
        <time>2019-04-08T05:36:39Z</time>
      </trkpt>
      <trkpt lat="42.25279" lon="1.73845">
        <ele>1278.224</ele>
        <time>2019-04-08T05:37:08Z</time>
      </trkpt>
      <trkpt lat="42.25272" lon="1.73715">
        <ele>1265.223</ele>
        <time>2019-04-08T05:37:46Z</time>
      </trkpt>
      <trkpt lat="42.25226" lon="1.73615">
        <ele>1248.585</ele>
        <time>2019-04-08T05:38:21Z</time>
      </trkpt>
      <trkpt lat="42.25167" lon="1.73562">
        <ele>1216.891</ele>
        <time>2019-04-08T05:38:49Z</time>
      </trkpt>
      <trkpt lat="42.25126" lon="1.73515">
        <ele>1186.081</ele>
        <time>2019-04-08T05:39:11Z</time>
      </trkpt>
      <trkpt lat="42.25156" lon="1.73393">
        <ele>1148.019</ele>
        <time>2019-04-08T05:39:49Z</time>
      </trkpt>
      <trkpt lat="42.2521" lon="1.73312">
        <ele>1116.708</ele>
        <time>2019-04-08T05:40:21Z</time>
      </trkpt>
      <trkpt lat="42.25167" lon="1.73215">
        <ele>1106.722</ele>
        <time>2019-04-08T05:40:55Z</time>
      </trkpt>
      <trkpt lat="42.25106" lon="1.7314">
        <ele>1094.764</ele>
        <time>2019-04-08T05:41:28Z</time>
      </trkpt>
      <trkpt lat="42.25074" lon="1.73016">
        <ele>1083.149</ele>
        <time>2019-04-08T05:42:07Z</time>
      </trkpt>
      <trkpt lat="42.25135" lon="1.72912">
        <ele>1087.43</ele>
        <time>2019-04-08T05:42:46Z</time>
      </trkpt>
      <trkpt lat="42.25164" lon="1.72797">
        <ele>1094.62</ele>
        <time>2019-04-08T05:43:22Z</time>
      </trkpt>
      <trkpt lat="42.25182" lon="1.72669">
        <ele>1098.154</ele>
        <time>2019-04-08T05:44:01Z</time>
      </trkpt>
      <trkpt lat="42.2516" lon="1.72516">
        <ele>1123.053</ele>
        <time>2019-04-08T05:44:47Z</time>
      </trkpt>
      <trkpt lat="42.2519" lon="1.7237">
        <ele>1146.195</ele>
        <time>2019-04-08T05:45:32Z</time>
      </trkpt>
      <trkpt lat="42.25204" lon="1.72231">
        <ele>1166.326</ele>
        <time>2019-04-08T05:46:13Z</time>
      </trkpt>
      <trkpt lat="42.25236" lon="1.72097">
        <ele>1187.047</ele>
        <time>2019-04-08T05:46:55Z</time>
      </trkpt>
      <trkpt lat="42.25258" lon="1.71953">
        <ele>1196.111</ele>
        <time>2019-04-08T05:47:39Z</time>
      </trkpt>
      <trkpt lat="42.25227" lon="1.71917">
        <ele>1225.908</ele>
        <time>2019-04-08T05:47:55Z</time>
      </trkpt>
      <trkpt lat="42.25164" lon="1.71999">
        <ele>1243.115</ele>
        <time>2019-04-08T05:48:30Z</time>
      </trkpt>
      <trkpt lat="42.25086" lon="1.72114">
        <ele>1250.847</ele>
        <time>2019-04-08T05:49:16Z</time>
      </trkpt>
      <trkpt lat="42.25047" lon="1.72221">
        <ele>1266.772</ele>
        <time>2019-04-08T05:49:52Z</time>
      </trkpt>
      <trkpt lat="42.24984" lon="1.72326">
        <ele>1281.753</ele>
        <time>2019-04-08T05:50:32Z</time>
      </trkpt>
      <trkpt lat="42.24913" lon="1.72453">
        <ele>1291.273</ele>
        <time>2019-04-08T05:51:19Z</time>
      </trkpt>
      <trkpt lat="42.24867" lon="1.72564">
        <ele>1303.857</ele>
        <time>2019-04-08T05:51:57Z</time>
      </trkpt>
      <trkpt lat="42.24782" lon="1.72667">
        <ele>1313.826</ele>
        <time>2019-04-08T05:52:42Z</time>
      </trkpt>
      <trkpt lat="42.24737" lon="1.7279">
        <ele>1324.058</ele>
        <time>2019-04-08T05:53:23Z</time>
      </trkpt>
      <trkpt lat="42.24668" lon="1.72834">
        <ele>1324.919</ele>
        <time>2019-04-08T05:53:53Z</time>
      </trkpt>
      <trkpt lat="42.24566" lon="1.72807">
        <ele>1320.009</ele>
        <time>2019-04-08T05:54:35Z</time>
      </trkpt>
      <trkpt lat="42.24498" lon="1.7285">
        <ele>1324.919</ele>
        <time>2019-04-08T05:55:05Z</time>
      </trkpt>
      <trkpt lat="42.24467" lon="1.73017">
        <ele>1304.808</ele>
        <time>2019-04-08T05:55:56Z</time>
      </trkpt>
      <trkpt lat="42.24411" lon="1.73039">
        <ele>1287.824</ele>
        <time>2019-04-08T05:56:19Z</time>
      </trkpt>
      <trkpt lat="42.24336" lon="1.72861">
        <ele>1269.646</ele>
        <time>2019-04-08T05:57:20Z</time>
      </trkpt>
      <trkpt lat="42.24232" lon="1.72851">
        <ele>1261.551</ele>
        <time>2019-04-08T05:58:02Z</time>
      </trkpt>
      <trkpt lat="42.24127" lon="1.72891">
        <ele>1262.452</ele>
        <time>2019-04-08T05:58:45Z</time>
      </trkpt>
      <trkpt lat="42.24035" lon="1.72987">
        <ele>1254.342</ele>
        <time>2019-04-08T05:59:32Z</time>
      </trkpt>
      <trkpt lat="42.23966" lon="1.73051">
        <ele>1267.736</ele>
        <time>2019-04-08T06:00:06Z</time>
      </trkpt>
      <trkpt lat="42.23919" lon="1.73185">
        <ele>1279.285</ele>
        <time>2019-04-08T06:00:49Z</time>
      </trkpt>
      <trkpt lat="42.23828" lon="1.73268">
        <ele>1263.847</ele>
        <time>2019-04-08T06:01:34Z</time>
      </trkpt>
      <trkpt lat="42.23759" lon="1.73128">
        <ele>1252.479</ele>
        <time>2019-04-08T06:02:23Z</time>
      </trkpt>
      <trkpt lat="42.23658" lon="1.73186">
        <ele>1259.905</ele>
        <time>2019-04-08T06:03:07Z</time>
      </trkpt>
      <trkpt lat="42.23607" lon="1.73305">
        <ele>1268.125</ele>
        <time>2019-04-08T06:03:48Z</time>
      </trkpt>
      <trkpt lat="42.23568" lon="1.73435">
        <ele>1272.408</ele>
        <time>2019-04-08T06:04:30Z</time>
      </trkpt>
      <trkpt lat="42.23477" lon="1.73526">
        <ele>1283.58</ele>
        <time>2019-04-08T06:05:15Z</time>
      </trkpt>
      <trkpt lat="42.23412" lon="1.73642">
        <ele>1288.912</ele>
        <time>2019-04-08T06:05:58Z</time>
      </trkpt>
      <trkpt lat="42.23392" lon="1.73782">
        <ele>1278.867</ele>
        <time>2019-04-08T06:06:41Z</time>
      </trkpt>
      <trkpt lat="42.23379" lon="1.73901">
        <ele>1273.928</ele>
        <time>2019-04-08T06:07:16Z</time>
      </trkpt>
      <trkpt lat="42.23341" lon="1.73932">
        <ele>1266.388</ele>
        <time>2019-04-08T06:07:34Z</time>
      </trkpt>
      <trkpt lat="42.23259" lon="1.73862">
        <ele>1261.542</ele>
        <time>2019-04-08T06:08:13Z</time>
      </trkpt>
      <trkpt lat="42.23214" lon="1.73861">
        <ele>1245.171</ele>
        <time>2019-04-08T06:08:31Z</time>
      </trkpt>
      <trkpt lat="42.23283" lon="1.7395">
        <ele>1235.953</ele>
        <time>2019-04-08T06:09:09Z</time>
      </trkpt>
      <trkpt lat="42.23351" lon="1.74027">
        <ele>1234.047</ele>
        <time>2019-04-08T06:09:45Z</time>
      </trkpt>
      <trkpt lat="42.23269" lon="1.73979">
        <ele>1224.929</ele>
        <time>2019-04-08T06:10:21Z</time>
      </trkpt>
      <trkpt lat="42.23189" lon="1.73904">
        <ele>1214.821</ele>
        <time>2019-04-08T06:11:00Z</time>
      </trkpt>
      <trkpt lat="42.23166" lon="1.73903">
        <ele>1206.108</ele>
        <time>2019-04-08T06:11:09Z</time>
      </trkpt>
      <trkpt lat="42.23219" lon="1.74003">
        <ele>1198.977</ele>
        <time>2019-04-08T06:11:45Z</time>
      </trkpt>
      <trkpt lat="42.23287" lon="1.74082">
        <ele>1196.599</ele>
        <time>2019-04-08T06:12:21Z</time>
      </trkpt>
      <trkpt lat="42.23361" lon="1.74164">
        <ele>1194.784</ele>
        <time>2019-04-08T06:13:00Z</time>
      </trkpt>
      <trkpt lat="42.2343" lon="1.74248">
        <ele>1188.445</ele>
        <time>2019-04-08T06:13:37Z</time>
      </trkpt>
      <trkpt lat="42.23477" lon="1.74355">
        <ele>1175.015</ele>
        <time>2019-04-08T06:14:14Z</time>
      </trkpt>
      <trkpt lat="42.2355" lon="1.74467">
        <ele>1159.659</ele>
        <time>2019-04-08T06:14:58Z</time>
      </trkpt>
      <trkpt lat="42.23656" lon="1.74579">
        <ele>1136.048</ele>
        <time>2019-04-08T06:15:52Z</time>
      </trkpt>
      <trkpt lat="42.23722" lon="1.7469">
        <ele>1109.69</ele>
        <time>2019-04-08T06:16:34Z</time>
      </trkpt>
      <trkpt lat="42.23858" lon="1.74692">
        <ele>1075.422</ele>
        <time>2019-04-08T06:17:29Z</time>
      </trkpt>
      <trkpt lat="42.23937" lon="1.74798">
        <ele>1047.562</ele>
        <time>2019-04-08T06:18:13Z</time>
      </trkpt>
      <trkpt lat="42.23997" lon="1.74925">
        <ele>1022.008</ele>
        <time>2019-04-08T06:18:58Z</time>
      </trkpt>
      <trkpt lat="42.24088" lon="1.75011">
        <ele>998.508</ele>
        <time>2019-04-08T06:19:42Z</time>
      </trkpt>
      <trkpt lat="42.24191" lon="1.75078">
        <ele>966.875</ele>
        <time>2019-04-08T06:20:28Z</time>
      </trkpt>
      <trkpt lat="42.24234" lon="1.75102">
        <ele>958.657</ele>
        <time>2019-04-08T06:20:47Z</time>
      </trkpt>
      <trkpt lat="42.24323" lon="1.75013">
        <ele>968.762</ele>
        <time>2019-04-08T06:21:31Z</time>
      </trkpt>
      <trkpt lat="42.2441" lon="1.74887">
        <ele>976.543</ele>
        <time>2019-04-08T06:22:22Z</time>
      </trkpt>
      <trkpt lat="42.24549" lon="1.74852">
        <ele>983.653</ele>
        <time>2019-04-08T06:23:19Z</time>
      </trkpt>
      <trkpt lat="42.2463" lon="1.74787">
        <ele>997.037</ele>
        <time>2019-04-08T06:23:57Z</time>
      </trkpt>
      <trkpt lat="42.24678" lon="1.74788">
        <ele>1023.676</ele>
        <time>2019-04-08T06:24:16Z</time>
      </trkpt>
      <trkpt lat="42.24757" lon="1.74902">
        <ele>1046.278</ele>
        <time>2019-04-08T06:25:02Z</time>
      </trkpt>
      <trkpt lat="42.2489" lon="1.75001">
        <ele>1049.984</ele>
        <time>2019-04-08T06:26:03Z</time>
      </trkpt>
      <trkpt lat="42.24994" lon="1.75033">
        <ele>1067.707</ele>
        <time>2019-04-08T06:26:46Z</time>
      </trkpt>
      <trkpt lat="42.25025" lon="1.7518">
        <ele>1099.917</ele>
        <time>2019-04-08T06:27:31Z</time>
      </trkpt>
      <trkpt lat="42.2501" lon="1.75307">
        <ele>1122.608</ele>
        <time>2019-04-08T06:28:09Z</time>
      </trkpt>
      <trkpt lat="42.25061" lon="1.75345">
        <ele>1144.731</ele>
        <time>2019-04-08T06:28:32Z</time>
      </trkpt>
      <trkpt lat="42.25082" lon="1.754">
        <ele>1175.563</ele>
        <time>2019-04-08T06:28:50Z</time>
      </trkpt>
      <trkpt lat="42.25089" lon="1.7547">
        <ele>1204.868</ele>
        <time>2019-04-08T06:29:11Z</time>
      </trkpt>
      <trkpt lat="42.25077" lon="1.75548">
        <ele>1231.719</ele>
        <time>2019-04-08T06:29:35Z</time>
      </trkpt>
      <trkpt lat="42.25074" lon="1.75685">
        <ele>1261.999</ele>
        <time>2019-04-08T06:30:16Z</time>
      </trkpt>
      <trkpt lat="42.2509" lon="1.75802">
        <ele>1287.413</ele>
        <time>2019-04-08T06:30:51Z</time>
      </trkpt>
      <trkpt lat="42.251" lon="1.75888">
        <ele>1318.662</ele>
        <time>2019-04-08T06:31:17Z</time>
      </trkpt>
      <trkpt lat="42.25109" lon="1.75988">
        <ele>1349.864</ele>
        <time>2019-04-08T06:31:46Z</time>
      </trkpt>
      <trkpt lat="42.25155" lon="1.76054">
        <ele>1365.241</ele>
        <time>2019-04-08T06:32:13Z</time>
      </trkpt>
      <trkpt lat="42.25214" lon="1.76245">
        <ele>1367.281</ele>
        <time>2019-04-08T06:33:15Z</time>
      </trkpt>
      <trkpt lat="42.2531" lon="1.763">
        <ele>1375.909</ele>
        <time>2019-04-08T06:33:57Z</time>
      </trkpt>
      <trkpt lat="42.25387" lon="1.7638">
        <ele>1389.808</ele>
        <time>2019-04-08T06:34:35Z</time>
      </trkpt>
      <trkpt lat="42.25434" lon="1.76491">
        <ele>1395.097</ele>
        <time>2019-04-08T06:35:13Z</time>
      </trkpt>
      <trkpt lat="42.25445" lon="1.76608">
        <ele>1407.019</ele>
        <time>2019-04-08T06:35:48Z</time>
      </trkpt>
      <trkpt lat="42.2551" lon="1.76605">
        <ele>1416.344</ele>
        <time>2019-04-08T06:36:15Z</time>
      </trkpt>
      <trkpt lat="42.25581" lon="1.76524">
        <ele>1411.835</ele>
        <time>2019-04-08T06:36:52Z</time>
      </trkpt>
      <trkpt lat="42.25686" lon="1.76527">
        <ele>1413.365</ele>
        <time>2019-04-08T06:37:34Z</time>
      </trkpt>
      <trkpt lat="42.26014" lon="1.76602">
        <ele>1433.079</ele>
        <time>2019-04-08T09:15:15Z</time>
      </trkpt>
      <trkpt lat="42.26013" lon="1.76604">
        <ele>1434.528</ele>
        <time>2019-04-08T09:15:15Z</time>
      </trkpt>
      <trkpt lat="42.26011" lon="1.76605">
        <ele>1434.48</ele>
        <time>2019-04-08T09:15:16Z</time>
      </trkpt>
      <trkpt lat="42.26019" lon="1.76625">
        <ele>1436.954</ele>
        <time>2019-04-08T09:15:23Z</time>
      </trkpt>
      <trkpt lat="42.2603" lon="1.76645">
        <ele>1439.756</ele>
        <time>2019-04-08T09:15:30Z</time>
      </trkpt>
      <trkpt lat="42.26031" lon="1.76651">
        <ele>1439.811</ele>
        <time>2019-04-08T09:15:32Z</time>
      </trkpt>
      <trkpt lat="42.26034" lon="1.76667">
        <ele>1441.708</ele>
        <time>2019-04-08T09:15:37Z</time>
      </trkpt>
      <trkpt lat="42.26036" lon="1.76672">
        <ele>1443.658</ele>
        <time>2019-04-08T09:15:38Z</time>
      </trkpt>
      <trkpt lat="42.26037" lon="1.76672">
        <ele>1444.03</ele>
        <time>2019-04-08T09:15:38Z</time>
      </trkpt>
      <trkpt lat="42.26036" lon="1.76673">
        <ele>1445.055</ele>
        <time>2019-04-08T09:15:39Z</time>
      </trkpt>
      <trkpt lat="42.26036" lon="1.76688">
        <ele>1447.956</ele>
        <time>2019-04-08T09:15:43Z</time>
      </trkpt>
      <trkpt lat="42.26036" lon="1.76689">
        <ele>1448.456</ele>
        <time>2019-04-08T09:15:44Z</time>
      </trkpt>
      <trkpt lat="42.26035" lon="1.76692">
        <ele>1450.41</ele>
        <time>2019-04-08T09:15:45Z</time>
      </trkpt>
      <trkpt lat="42.26036" lon="1.76705">
        <ele>1453.349</ele>
        <time>2019-04-08T09:15:48Z</time>
      </trkpt>
      <trkpt lat="42.26038" lon="1.76707">
        <ele>1455.251</ele>
        <time>2019-04-08T09:15:49Z</time>
      </trkpt>
      <trkpt lat="42.26037" lon="1.76714">
        <ele>1457.168</ele>
        <time>2019-04-08T09:15:51Z</time>
      </trkpt>
      <trkpt lat="42.26046" lon="1.76727">
        <ele>1460.442</ele>
        <time>2019-04-08T09:15:56Z</time>
      </trkpt>
      <trkpt lat="42.26056" lon="1.76742">
        <ele>1463.826</ele>
        <time>2019-04-08T09:16:02Z</time>
      </trkpt>
      <trkpt lat="42.26064" lon="1.76755">
        <ele>1466.708</ele>
        <time>2019-04-08T09:16:07Z</time>
      </trkpt>
      <trkpt lat="42.26075" lon="1.76773">
        <ele>1470.559</ele>
        <time>2019-04-08T09:16:14Z</time>
      </trkpt>
      <trkpt lat="42.26085" lon="1.76793">
        <ele>1473.841</ele>
        <time>2019-04-08T09:16:22Z</time>
      </trkpt>
      <trkpt lat="42.26091" lon="1.76807">
        <ele>1476.776</ele>
        <time>2019-04-08T09:16:26Z</time>
      </trkpt>
      <trkpt lat="42.26093" lon="1.76813">
        <ele>1478.357</ele>
        <time>2019-04-08T09:16:28Z</time>
      </trkpt>
      <trkpt lat="42.26094" lon="1.76837">
        <ele>1480.717</ele>
        <time>2019-04-08T09:16:35Z</time>
      </trkpt>
      <trkpt lat="42.26092" lon="1.7686">
        <ele>1484.021</ele>
        <time>2019-04-08T09:16:42Z</time>
      </trkpt>
      <trkpt lat="42.26087" lon="1.76887">
        <ele>1486.33</ele>
        <time>2019-04-08T09:16:50Z</time>
      </trkpt>
      <trkpt lat="42.26093" lon="1.76925">
        <ele>1487.932</ele>
        <time>2019-04-08T09:17:02Z</time>
      </trkpt>
      <trkpt lat="42.26093" lon="1.76933">
        <ele>1487.954</ele>
        <time>2019-04-08T09:17:04Z</time>
      </trkpt>
      <trkpt lat="42.2609" lon="1.76948">
        <ele>1489.856</ele>
        <time>2019-04-08T09:17:09Z</time>
      </trkpt>
      <trkpt lat="42.26094" lon="1.76963">
        <ele>1490.211</ele>
        <time>2019-04-08T09:17:14Z</time>
      </trkpt>
      <trkpt lat="42.26094" lon="1.76964">
        <ele>1490.208</ele>
        <time>2019-04-08T09:17:14Z</time>
      </trkpt>
      <trkpt lat="42.26105" lon="1.76978">
        <ele>1489.268</ele>
        <time>2019-04-08T09:17:20Z</time>
      </trkpt>
      <trkpt lat="42.26107" lon="1.76986">
        <ele>1489.76</ele>
        <time>2019-04-08T09:17:22Z</time>
      </trkpt>
      <trkpt lat="42.26112" lon="1.77007">
        <ele>1489.715</ele>
        <time>2019-04-08T09:17:29Z</time>
      </trkpt>
      <trkpt lat="42.26106" lon="1.77028">
        <ele>1491.216</ele>
        <time>2019-04-08T09:17:36Z</time>
      </trkpt>
      <trkpt lat="42.26104" lon="1.77029">
        <ele>1491.116</ele>
        <time>2019-04-08T09:17:37Z</time>
      </trkpt>
      <trkpt lat="42.26099" lon="1.77036">
        <ele>1491.26</ele>
        <time>2019-04-08T09:17:40Z</time>
      </trkpt>
      <trkpt lat="42.26095" lon="1.77051">
        <ele>1491.219</ele>
        <time>2019-04-08T09:17:44Z</time>
      </trkpt>
      <trkpt lat="42.26091" lon="1.77061">
        <ele>1491.151</ele>
        <time>2019-04-08T09:17:48Z</time>
      </trkpt>
      <trkpt lat="42.2609" lon="1.77065">
        <ele>1491.262</ele>
        <time>2019-04-08T09:17:49Z</time>
      </trkpt>
      <trkpt lat="42.26085" lon="1.77079">
        <ele>1492.183</ele>
        <time>2019-04-08T09:17:54Z</time>
      </trkpt>
      <trkpt lat="42.26076" lon="1.77099">
        <ele>1495.511</ele>
        <time>2019-04-08T09:18:00Z</time>
      </trkpt>
      <trkpt lat="42.26074" lon="1.77101">
        <ele>1496.008</ele>
        <time>2019-04-08T09:18:01Z</time>
      </trkpt>
      <trkpt lat="42.26071" lon="1.7711">
        <ele>1496.469</ele>
        <time>2019-04-08T09:18:04Z</time>
      </trkpt>
      <trkpt lat="42.26072" lon="1.7712">
        <ele>1496.471</ele>
        <time>2019-04-08T09:18:07Z</time>
      </trkpt>
      <trkpt lat="42.26069" lon="1.77133">
        <ele>1496.456</ele>
        <time>2019-04-08T09:18:11Z</time>
      </trkpt>
      <trkpt lat="42.26073" lon="1.77158">
        <ele>1496.597</ele>
        <time>2019-04-08T09:18:19Z</time>
      </trkpt>
      <trkpt lat="42.26073" lon="1.77163">
        <ele>1496.927</ele>
        <time>2019-04-08T09:18:20Z</time>
      </trkpt>
      <trkpt lat="42.26073" lon="1.77172">
        <ele>1497.431</ele>
        <time>2019-04-08T09:18:23Z</time>
      </trkpt>
      <trkpt lat="42.26069" lon="1.77186">
        <ele>1498.82</ele>
        <time>2019-04-08T09:18:27Z</time>
      </trkpt>
      <trkpt lat="42.2607" lon="1.77206">
        <ele>1501.362</ele>
        <time>2019-04-08T09:18:33Z</time>
      </trkpt>
      <trkpt lat="42.26072" lon="1.77214">
        <ele>1501.755</ele>
        <time>2019-04-08T09:18:36Z</time>
      </trkpt>
      <trkpt lat="42.26081" lon="1.77236">
        <ele>1503.207</ele>
        <time>2019-04-08T09:18:43Z</time>
      </trkpt>
      <trkpt lat="42.26081" lon="1.77238">
        <ele>1503.217</ele>
        <time>2019-04-08T09:18:44Z</time>
      </trkpt>
      <trkpt lat="42.26085" lon="1.77264">
        <ele>1505.708</ele>
        <time>2019-04-08T09:18:52Z</time>
      </trkpt>
      <trkpt lat="42.26082" lon="1.77278">
        <ele>1505.788</ele>
        <time>2019-04-08T09:18:56Z</time>
      </trkpt>
      <trkpt lat="42.2607" lon="1.77287">
        <ele>1502.31</ele>
        <time>2019-04-08T09:19:01Z</time>
      </trkpt>
      <trkpt lat="42.26061" lon="1.77299">
        <ele>1498.925</ele>
        <time>2019-04-08T09:19:06Z</time>
      </trkpt>
      <trkpt lat="42.26059" lon="1.77301">
        <ele>1498.916</ele>
        <time>2019-04-08T09:19:07Z</time>
      </trkpt>
      <trkpt lat="42.26047" lon="1.77314">
        <ele>1499.426</ele>
        <time>2019-04-08T09:19:14Z</time>
      </trkpt>
      <trkpt lat="42.26034" lon="1.77331">
        <ele>1496.09</ele>
        <time>2019-04-08T09:19:21Z</time>
      </trkpt>
      <trkpt lat="42.26033" lon="1.77334">
        <ele>1495.649</ele>
        <time>2019-04-08T09:19:22Z</time>
      </trkpt>
      <trkpt lat="42.26029" lon="1.77339">
        <ele>1495.031</ele>
        <time>2019-04-08T09:19:24Z</time>
      </trkpt>
      <trkpt lat="42.26027" lon="1.77341">
        <ele>1494.579</ele>
        <time>2019-04-08T09:19:25Z</time>
      </trkpt>
      <trkpt lat="42.26023" lon="1.77346">
        <ele>1494.005</ele>
        <time>2019-04-08T09:19:27Z</time>
      </trkpt>
      <trkpt lat="42.26021" lon="1.77351">
        <ele>1493.725</ele>
        <time>2019-04-08T09:19:29Z</time>
      </trkpt>
      <trkpt lat="42.26016" lon="1.77358">
        <ele>1492.708</ele>
        <time>2019-04-08T09:19:32Z</time>
      </trkpt>
      <trkpt lat="42.2601" lon="1.77365">
        <ele>1491.73</ele>
        <time>2019-04-08T09:19:35Z</time>
      </trkpt>
      <trkpt lat="42.26008" lon="1.7737">
        <ele>1491.132</ele>
        <time>2019-04-08T09:19:37Z</time>
      </trkpt>
      <trkpt lat="42.26005" lon="1.77375">
        <ele>1490.717</ele>
        <time>2019-04-08T09:19:38Z</time>
      </trkpt>
      <trkpt lat="42.26001" lon="1.7738">
        <ele>1490.368</ele>
        <time>2019-04-08T09:19:41Z</time>
      </trkpt>
      <trkpt lat="42.26002" lon="1.77382">
        <ele>1490.228</ele>
        <time>2019-04-08T09:19:41Z</time>
      </trkpt>
      <trkpt lat="42.25996" lon="1.7739">
        <ele>1489.842</ele>
        <time>2019-04-08T09:19:44Z</time>
      </trkpt>
      <trkpt lat="42.25986" lon="1.77405">
        <ele>1489.251</ele>
        <time>2019-04-08T09:19:50Z</time>
      </trkpt>
      <trkpt lat="42.25984" lon="1.77414">
        <ele>1489.273</ele>
        <time>2019-04-08T09:19:53Z</time>
      </trkpt>
      <trkpt lat="42.25982" lon="1.77418">
        <ele>1489.215</ele>
        <time>2019-04-08T09:19:55Z</time>
      </trkpt>
      <trkpt lat="42.2598" lon="1.77426">
        <ele>1489.265</ele>
        <time>2019-04-08T09:19:57Z</time>
      </trkpt>
      <trkpt lat="42.25975" lon="1.77431">
        <ele>1489.711</ele>
        <time>2019-04-08T09:20:00Z</time>
      </trkpt>
      <trkpt lat="42.25963" lon="1.77445">
        <ele>1491.108</ele>
        <time>2019-04-08T09:20:06Z</time>
      </trkpt>
      <trkpt lat="42.2596" lon="1.77452">
        <ele>1490.334</ele>
        <time>2019-04-08T09:20:08Z</time>
      </trkpt>
      <trkpt lat="42.2596" lon="1.77455">
        <ele>1490.326</ele>
        <time>2019-04-08T09:20:09Z</time>
      </trkpt>
      <trkpt lat="42.25953" lon="1.77474">
        <ele>1489.321</ele>
        <time>2019-04-08T09:20:16Z</time>
      </trkpt>
      <trkpt lat="42.2595" lon="1.77483">
        <ele>1488.872</ele>
        <time>2019-04-08T09:20:18Z</time>
      </trkpt>
      <trkpt lat="42.25947" lon="1.77492">
        <ele>1490.742</ele>
        <time>2019-04-08T09:20:21Z</time>
      </trkpt>
      <trkpt lat="42.25936" lon="1.77495">
        <ele>1492.746</ele>
        <time>2019-04-08T09:20:26Z</time>
      </trkpt>
      <trkpt lat="42.25931" lon="1.77495">
        <ele>1492.665</ele>
        <time>2019-04-08T09:20:28Z</time>
      </trkpt>
      <trkpt lat="42.25925" lon="1.775">
        <ele>1491.657</ele>
        <time>2019-04-08T09:20:31Z</time>
      </trkpt>
      <trkpt lat="42.25917" lon="1.7751">
        <ele>1490.746</ele>
        <time>2019-04-08T09:20:35Z</time>
      </trkpt>
      <trkpt lat="42.25909" lon="1.77528">
        <ele>1489.288</ele>
        <time>2019-04-08T09:20:42Z</time>
      </trkpt>
      <trkpt lat="42.259" lon="1.7755">
        <ele>1489.716</ele>
        <time>2019-04-08T09:20:49Z</time>
      </trkpt>
      <trkpt lat="42.259" lon="1.77552">
        <ele>1489.708</ele>
        <time>2019-04-08T09:20:49Z</time>
      </trkpt>
      <trkpt lat="42.25898" lon="1.77554">
        <ele>1490.267</ele>
        <time>2019-04-08T09:20:50Z</time>
      </trkpt>
      <trkpt lat="42.25896" lon="1.77563">
        <ele>1491.189</ele>
        <time>2019-04-08T09:20:53Z</time>
      </trkpt>
      <trkpt lat="42.25894" lon="1.77575">
        <ele>1491.294</ele>
        <time>2019-04-08T09:20:57Z</time>
      </trkpt>
      <trkpt lat="42.25893" lon="1.77581">
        <ele>1490.865</ele>
        <time>2019-04-08T09:20:59Z</time>
      </trkpt>
      <trkpt lat="42.2589" lon="1.77592">
        <ele>1490.335</ele>
        <time>2019-04-08T09:21:02Z</time>
      </trkpt>
      <trkpt lat="42.25891" lon="1.77599">
        <ele>1490.739</ele>
        <time>2019-04-08T09:21:04Z</time>
      </trkpt>
      <trkpt lat="42.2589" lon="1.77603">
        <ele>1490.768</ele>
        <time>2019-04-08T09:21:05Z</time>
      </trkpt>
      <trkpt lat="42.25899" lon="1.77625">
        <ele>1490.32</ele>
        <time>2019-04-08T09:21:13Z</time>
      </trkpt>
      <trkpt lat="42.25899" lon="1.77634">
        <ele>1490.897</ele>
        <time>2019-04-08T09:21:16Z</time>
      </trkpt>
      <trkpt lat="42.25901" lon="1.77646">
        <ele>1490.823</ele>
        <time>2019-04-08T09:21:19Z</time>
      </trkpt>
      <trkpt lat="42.2589" lon="1.77674">
        <ele>1493.125</ele>
        <time>2019-04-08T09:21:29Z</time>
      </trkpt>
      <trkpt lat="42.25888" lon="1.7768">
        <ele>1493.708</ele>
        <time>2019-04-08T09:21:31Z</time>
      </trkpt>
      <trkpt lat="42.25881" lon="1.777">
        <ele>1496.512</ele>
        <time>2019-04-08T09:21:37Z</time>
      </trkpt>
      <trkpt lat="42.25877" lon="1.77708">
        <ele>1498.534</ele>
        <time>2019-04-08T09:21:40Z</time>
      </trkpt>
      <trkpt lat="42.25875" lon="1.7771">
        <ele>1498.999</ele>
        <time>2019-04-08T09:21:41Z</time>
      </trkpt>
      <trkpt lat="42.2587" lon="1.77717">
        <ele>1502.74</ele>
        <time>2019-04-08T09:21:44Z</time>
      </trkpt>
      <trkpt lat="42.2587" lon="1.77729">
        <ele>1502.77</ele>
        <time>2019-04-08T09:21:47Z</time>
      </trkpt>
      <trkpt lat="42.25871" lon="1.77731">
        <ele>1502.774</ele>
        <time>2019-04-08T09:21:48Z</time>
      </trkpt>
      <trkpt lat="42.25871" lon="1.77741">
        <ele>1501.893</ele>
        <time>2019-04-08T09:21:51Z</time>
      </trkpt>
      <trkpt lat="42.2587" lon="1.77755">
        <ele>1500.375</ele>
        <time>2019-04-08T09:21:55Z</time>
      </trkpt>
      <trkpt lat="42.25863" lon="1.7776">
        <ele>1500.326</ele>
        <time>2019-04-08T09:21:58Z</time>
      </trkpt>
      <trkpt lat="42.25857" lon="1.77772">
        <ele>1498.847</ele>
        <time>2019-04-08T09:22:03Z</time>
      </trkpt>
      <trkpt lat="42.25856" lon="1.77783">
        <ele>1497.511</ele>
        <time>2019-04-08T09:22:06Z</time>
      </trkpt>
      <trkpt lat="42.25848" lon="1.77799">
        <ele>1497.408</ele>
        <time>2019-04-08T09:22:12Z</time>
      </trkpt>
      <trkpt lat="42.25843" lon="1.77808">
        <ele>1496.975</ele>
        <time>2019-04-08T09:22:15Z</time>
      </trkpt>
      <trkpt lat="42.25837" lon="1.77819">
        <ele>1496.447</ele>
        <time>2019-04-08T09:22:19Z</time>
      </trkpt>
      <trkpt lat="42.25835" lon="1.77833">
        <ele>1495.022</ele>
        <time>2019-04-08T09:22:23Z</time>
      </trkpt>
      <trkpt lat="42.25835" lon="1.77835">
        <ele>1495.023</ele>
        <time>2019-04-08T09:22:24Z</time>
      </trkpt>
      <trkpt lat="42.25832" lon="1.77845">
        <ele>1493.153</ele>
        <time>2019-04-08T09:22:27Z</time>
      </trkpt>
      <trkpt lat="42.25827" lon="1.77857">
        <ele>1492.637</ele>
        <time>2019-04-08T09:22:31Z</time>
      </trkpt>
      <trkpt lat="42.25824" lon="1.77869">
        <ele>1490.356</ele>
        <time>2019-04-08T09:22:35Z</time>
      </trkpt>
      <trkpt lat="42.2583" lon="1.77876">
        <ele>1489.248</ele>
        <time>2019-04-08T09:22:38Z</time>
      </trkpt>
      <trkpt lat="42.25833" lon="1.7788">
        <ele>1488.815</ele>
        <time>2019-04-08T09:22:40Z</time>
      </trkpt>
      <trkpt lat="42.25833" lon="1.77889">
        <ele>1487.965</ele>
        <time>2019-04-08T09:22:42Z</time>
      </trkpt>
      <trkpt lat="42.25829" lon="1.77894">
        <ele>1487.911</ele>
        <time>2019-04-08T09:22:45Z</time>
      </trkpt>
      <trkpt lat="42.25823" lon="1.77909">
        <ele>1487.408</ele>
        <time>2019-04-08T09:22:50Z</time>
      </trkpt>
      <trkpt lat="42.25822" lon="1.77912">
        <ele>1486.914</ele>
        <time>2019-04-08T09:22:51Z</time>
      </trkpt>
      <trkpt lat="42.25822" lon="1.77916">
        <ele>1486.926</ele>
        <time>2019-04-08T09:22:52Z</time>
      </trkpt>
      <trkpt lat="42.25822" lon="1.77918">
        <ele>1486.851</ele>
        <time>2019-04-08T09:22:53Z</time>
      </trkpt>
      <trkpt lat="42.25822" lon="1.77925">
        <ele>1486.852</ele>
        <time>2019-04-08T09:22:55Z</time>
      </trkpt>
      <trkpt lat="42.25822" lon="1.77927">
        <ele>1487.332</ele>
        <time>2019-04-08T09:22:55Z</time>
      </trkpt>
      <trkpt lat="42.25822" lon="1.77938">
        <ele>1485.586</ele>
        <time>2019-04-08T09:22:59Z</time>
      </trkpt>
      <trkpt lat="42.2582" lon="1.77945">
        <ele>1485.445</ele>
        <time>2019-04-08T09:23:01Z</time>
      </trkpt>
      <trkpt lat="42.25818" lon="1.77949">
        <ele>1485.547</ele>
        <time>2019-04-08T09:23:02Z</time>
      </trkpt>
      <trkpt lat="42.25817" lon="1.77953">
        <ele>1485.576</ele>
        <time>2019-04-08T09:23:03Z</time>
      </trkpt>
      <trkpt lat="42.25812" lon="1.77962">
        <ele>1485.09</ele>
        <time>2019-04-08T09:23:07Z</time>
      </trkpt>
      <trkpt lat="42.25807" lon="1.77967">
        <ele>1484.419</ele>
        <time>2019-04-08T09:23:09Z</time>
      </trkpt>
      <trkpt lat="42.25799" lon="1.77982">
        <ele>1485.408</ele>
        <time>2019-04-08T09:23:15Z</time>
      </trkpt>
      <trkpt lat="42.25797" lon="1.77993">
        <ele>1484.48</ele>
        <time>2019-04-08T09:23:18Z</time>
      </trkpt>
      <trkpt lat="42.25795" lon="1.77996">
        <ele>1484.412</ele>
        <time>2019-04-08T09:23:19Z</time>
      </trkpt>
      <trkpt lat="42.25791" lon="1.78003">
        <ele>1484.447</ele>
        <time>2019-04-08T09:23:22Z</time>
      </trkpt>
      <trkpt lat="42.2578" lon="1.78015">
        <ele>1484.488</ele>
        <time>2019-04-08T09:23:27Z</time>
      </trkpt>
      <trkpt lat="42.25776" lon="1.78024">
        <ele>1483.678</ele>
        <time>2019-04-08T09:23:31Z</time>
      </trkpt>
      <trkpt lat="42.25771" lon="1.78029">
        <ele>1484.062</ele>
        <time>2019-04-08T09:23:33Z</time>
      </trkpt>
      <trkpt lat="42.25771" lon="1.78033">
        <ele>1484.061</ele>
        <time>2019-04-08T09:23:34Z</time>
      </trkpt>
      <trkpt lat="42.25768" lon="1.78047">
        <ele>1482.053</ele>
        <time>2019-04-08T09:23:38Z</time>
      </trkpt>
      <trkpt lat="42.25768" lon="1.78052">
        <ele>1482.022</ele>
        <time>2019-04-08T09:23:40Z</time>
      </trkpt>
      <trkpt lat="42.25769" lon="1.78058">
        <ele>1482.162</ele>
        <time>2019-04-08T09:23:41Z</time>
      </trkpt>
      <trkpt lat="42.25764" lon="1.78069">
        <ele>1481.608</ele>
        <time>2019-04-08T09:23:45Z</time>
      </trkpt>
      <trkpt lat="42.25762" lon="1.78072">
        <ele>1481.508</ele>
        <time>2019-04-08T09:23:47Z</time>
      </trkpt>
      <trkpt lat="42.25761" lon="1.78073">
        <ele>1481.585</ele>
        <time>2019-04-08T09:23:47Z</time>
      </trkpt>
      <trkpt lat="42.25757" lon="1.78078">
        <ele>1482.087</ele>
        <time>2019-04-08T09:23:49Z</time>
      </trkpt>
      <trkpt lat="42.25756" lon="1.78082">
        <ele>1482.062</ele>
        <time>2019-04-08T09:23:50Z</time>
      </trkpt>
      <trkpt lat="42.25751" lon="1.78085">
        <ele>1482.573</ele>
        <time>2019-04-08T09:23:53Z</time>
      </trkpt>
      <trkpt lat="42.25751" lon="1.78093">
        <ele>1483.193</ele>
        <time>2019-04-08T09:23:55Z</time>
      </trkpt>
      <trkpt lat="42.2575" lon="1.78095">
        <ele>1483.187</ele>
        <time>2019-04-08T09:23:55Z</time>
      </trkpt>
      <trkpt lat="42.25747" lon="1.78104">
        <ele>1483.086</ele>
        <time>2019-04-08T09:23:59Z</time>
      </trkpt>
      <trkpt lat="42.25743" lon="1.78111">
        <ele>1483.678</ele>
        <time>2019-04-08T09:24:01Z</time>
      </trkpt>
      <trkpt lat="42.25737" lon="1.78116">
        <ele>1483.165</ele>
        <time>2019-04-08T09:24:04Z</time>
      </trkpt>
      <trkpt lat="42.25735" lon="1.78121">
        <ele>1482.568</ele>
        <time>2019-04-08T09:24:06Z</time>
      </trkpt>
      <trkpt lat="42.25732" lon="1.78126">
        <ele>1483.114</ele>
        <time>2019-04-08T09:24:07Z</time>
      </trkpt>
      <trkpt lat="42.25728" lon="1.78128">
        <ele>1482.508</ele>
        <time>2019-04-08T09:24:09Z</time>
      </trkpt>
      <trkpt lat="42.25723" lon="1.78139">
        <ele>1483.589</ele>
        <time>2019-04-08T09:24:13Z</time>
      </trkpt>
      <trkpt lat="42.25717" lon="1.7815">
        <ele>1483.981</ele>
        <time>2019-04-08T09:24:17Z</time>
      </trkpt>
      <trkpt lat="42.25716" lon="1.78151">
        <ele>1483.656</ele>
        <time>2019-04-08T09:24:17Z</time>
      </trkpt>
      <trkpt lat="42.25701" lon="1.78159">
        <ele>1484.497</ele>
        <time>2019-04-08T09:24:24Z</time>
      </trkpt>
      <trkpt lat="42.25698" lon="1.78162">
        <ele>1484.957</ele>
        <time>2019-04-08T09:24:25Z</time>
      </trkpt>
      <trkpt lat="42.25691" lon="1.78171">
        <ele>1484.941</ele>
        <time>2019-04-08T09:24:29Z</time>
      </trkpt>
      <trkpt lat="42.25681" lon="1.78187">
        <ele>1483.54</ele>
        <time>2019-04-08T09:24:36Z</time>
      </trkpt>
      <trkpt lat="42.2568" lon="1.78194">
        <ele>1483.112</ele>
        <time>2019-04-08T09:24:37Z</time>
      </trkpt>
      <trkpt lat="42.25679" lon="1.78195">
        <ele>1483.695</ele>
        <time>2019-04-08T09:24:38Z</time>
      </trkpt>
      <trkpt lat="42.25678" lon="1.78197">
        <ele>1483.549</ele>
        <time>2019-04-08T09:24:39Z</time>
      </trkpt>
      <trkpt lat="42.25676" lon="1.782">
        <ele>1483.023</ele>
        <time>2019-04-08T09:24:40Z</time>
      </trkpt>
      <trkpt lat="42.25675" lon="1.78204">
        <ele>1483.508</ele>
        <time>2019-04-08T09:24:41Z</time>
      </trkpt>
      <trkpt lat="42.25675" lon="1.78213">
        <ele>1484.052</ele>
        <time>2019-04-08T09:24:44Z</time>
      </trkpt>
      <trkpt lat="42.25676" lon="1.78215">
        <ele>1483.914</ele>
        <time>2019-04-08T09:24:45Z</time>
      </trkpt>
      <trkpt lat="42.25675" lon="1.78219">
        <ele>1484.079</ele>
        <time>2019-04-08T09:24:46Z</time>
      </trkpt>
      <trkpt lat="42.25671" lon="1.7823">
        <ele>1484.08</ele>
        <time>2019-04-08T09:24:49Z</time>
      </trkpt>
      <trkpt lat="42.25672" lon="1.78236">
        <ele>1484.05</ele>
        <time>2019-04-08T09:24:51Z</time>
      </trkpt>
      <trkpt lat="42.25671" lon="1.7824">
        <ele>1484.524</ele>
        <time>2019-04-08T09:24:52Z</time>
      </trkpt>
      <trkpt lat="42.25672" lon="1.78247">
        <ele>1485.013</ele>
        <time>2019-04-08T09:24:54Z</time>
      </trkpt>
      <trkpt lat="42.25671" lon="1.7825">
        <ele>1485.555</ele>
        <time>2019-04-08T09:24:55Z</time>
      </trkpt>
      <trkpt lat="42.25671" lon="1.78257">
        <ele>1485.926</ele>
        <time>2019-04-08T09:24:57Z</time>
      </trkpt>
      <trkpt lat="42.2567" lon="1.78261">
        <ele>1486.347</ele>
        <time>2019-04-08T09:24:59Z</time>
      </trkpt>
      <trkpt lat="42.25663" lon="1.78274">
        <ele>1487.811</ele>
        <time>2019-04-08T09:25:03Z</time>
      </trkpt>
      <trkpt lat="42.25663" lon="1.78279">
        <ele>1486.808</ele>
        <time>2019-04-08T09:25:05Z</time>
      </trkpt>
      <trkpt lat="42.25662" lon="1.7828">
        <ele>1486.945</ele>
        <time>2019-04-08T09:25:05Z</time>
      </trkpt>
      <trkpt lat="42.25659" lon="1.7829">
        <ele>1486.447</ele>
        <time>2019-04-08T09:25:08Z</time>
      </trkpt>
      <trkpt lat="42.2566" lon="1.78292">
        <ele>1486.022</ele>
        <time>2019-04-08T09:25:09Z</time>
      </trkpt>
      <trkpt lat="42.25661" lon="1.783">
        <ele>1485.093</ele>
        <time>2019-04-08T09:25:12Z</time>
      </trkpt>
      <trkpt lat="42.25659" lon="1.78303">
        <ele>1484.013</ele>
        <time>2019-04-08T09:25:13Z</time>
      </trkpt>
      <trkpt lat="42.25657" lon="1.78308">
        <ele>1483.087</ele>
        <time>2019-04-08T09:25:14Z</time>
      </trkpt>
      <trkpt lat="42.25654" lon="1.78315">
        <ele>1482.086</ele>
        <time>2019-04-08T09:25:17Z</time>
      </trkpt>
      <trkpt lat="42.25646" lon="1.78326">
        <ele>1479.668</ele>
        <time>2019-04-08T09:25:21Z</time>
      </trkpt>
      <trkpt lat="42.25644" lon="1.78331">
        <ele>1479.181</ele>
        <time>2019-04-08T09:25:23Z</time>
      </trkpt>
      <trkpt lat="42.25639" lon="1.78345">
        <ele>1477.761</ele>
        <time>2019-04-08T09:25:28Z</time>
      </trkpt>
      <trkpt lat="42.25616" lon="1.78359">
        <ele>1475.917</ele>
        <time>2019-04-08T09:25:38Z</time>
      </trkpt>
      <trkpt lat="42.25607" lon="1.78364">
        <ele>1476.808</ele>
        <time>2019-04-08T09:25:41Z</time>
      </trkpt>
      <trkpt lat="42.25601" lon="1.78366">
        <ele>1476.731</ele>
        <time>2019-04-08T09:25:44Z</time>
      </trkpt>
      <trkpt lat="42.25601" lon="1.78366">
        <ele>1482.513</ele>
        <time>2019-04-08T09:25:44Z</time>
      </trkpt>
      <trkpt lat="42.25601" lon="1.78366">
        <ele>1469.128</ele>
        <time>2019-04-08T09:25:44Z</time>
      </trkpt>
      <trkpt lat="42.25604" lon="1.78374">
        <ele>1478.329</ele>
        <time>2019-04-08T09:25:47Z</time>
      </trkpt>
      <trkpt lat="42.25602" lon="1.78378">
        <ele>1478.729</ele>
        <time>2019-04-08T09:25:48Z</time>
      </trkpt>
      <trkpt lat="42.25598" lon="1.78379">
        <ele>1478.873</ele>
        <time>2019-04-08T09:25:50Z</time>
      </trkpt>
      <trkpt lat="42.25597" lon="1.78375">
        <ele>1479.712</ele>
        <time>2019-04-08T09:25:51Z</time>
      </trkpt>
      <trkpt lat="42.25595" lon="1.78369">
        <ele>1481.184</ele>
        <time>2019-04-08T09:25:53Z</time>
      </trkpt>
      <trkpt lat="42.25598" lon="1.78362">
        <ele>1483.931</ele>
        <time>2019-04-08T09:25:55Z</time>
      </trkpt>
      <trkpt lat="42.25599" lon="1.78352">
        <ele>1487.861</ele>
        <time>2019-04-08T09:25:58Z</time>
      </trkpt>
      <trkpt lat="42.25595" lon="1.78349">
        <ele>1489.307</ele>
        <time>2019-04-08T09:26:00Z</time>
      </trkpt>
      <trkpt lat="42.25591" lon="1.7834">
        <ele>1492.108</ele>
        <time>2019-04-08T09:26:03Z</time>
      </trkpt>
      <trkpt lat="42.25588" lon="1.78336">
        <ele>1494.136</ele>
        <time>2019-04-08T09:26:05Z</time>
      </trkpt>
      <trkpt lat="42.2559" lon="1.78329">
        <ele>1497.538</ele>
        <time>2019-04-08T09:26:07Z</time>
      </trkpt>
      <trkpt lat="42.25594" lon="1.78327">
        <ele>1498.963</ele>
        <time>2019-04-08T09:26:09Z</time>
      </trkpt>
      <trkpt lat="42.25596" lon="1.78326">
        <ele>1499.974</ele>
        <time>2019-04-08T09:26:10Z</time>
      </trkpt>
      <trkpt lat="42.256" lon="1.78319">
        <ele>1505.174</ele>
        <time>2019-04-08T09:26:12Z</time>
      </trkpt>
      <trkpt lat="42.25602" lon="1.78316">
        <ele>1504.788</ele>
        <time>2019-04-08T09:26:13Z</time>
      </trkpt>
      <trkpt lat="42.25604" lon="1.78308">
        <ele>1506.547</ele>
        <time>2019-04-08T09:26:16Z</time>
      </trkpt>
      <trkpt lat="42.25602" lon="1.78306">
        <ele>1507.029</ele>
        <time>2019-04-08T09:26:17Z</time>
      </trkpt>
      <trkpt lat="42.25601" lon="1.78305">
        <ele>1508.053</ele>
        <time>2019-04-08T09:26:17Z</time>
      </trkpt>
      <trkpt lat="42.25601" lon="1.783">
        <ele>1509.504</ele>
        <time>2019-04-08T09:26:19Z</time>
      </trkpt>
      <trkpt lat="42.25599" lon="1.78295">
        <ele>1510.914</ele>
        <time>2019-04-08T09:26:20Z</time>
      </trkpt>
      <trkpt lat="42.25597" lon="1.7829">
        <ele>1514.208</ele>
        <time>2019-04-08T09:26:22Z</time>
      </trkpt>
      <trkpt lat="42.2559" lon="1.78283">
        <ele>1517.218</ele>
        <time>2019-04-08T09:26:25Z</time>
      </trkpt>
      <trkpt lat="42.25587" lon="1.78278">
        <ele>1519.64</ele>
        <time>2019-04-08T09:26:27Z</time>
      </trkpt>
      <trkpt lat="42.25586" lon="1.78278">
        <ele>1519.625</ele>
        <time>2019-04-08T09:26:28Z</time>
      </trkpt>
      <trkpt lat="42.25583" lon="1.78274">
        <ele>1521.496</ele>
        <time>2019-04-08T09:26:30Z</time>
      </trkpt>
      <trkpt lat="42.25578" lon="1.78268">
        <ele>1523.876</ele>
        <time>2019-04-08T09:26:32Z</time>
      </trkpt>
      <trkpt lat="42.25575" lon="1.78259">
        <ele>1525.32</ele>
        <time>2019-04-08T09:26:35Z</time>
      </trkpt>
      <trkpt lat="42.25573" lon="1.78256">
        <ele>1525.829</ele>
        <time>2019-04-08T09:26:36Z</time>
      </trkpt>
      <trkpt lat="42.25572" lon="1.78254">
        <ele>1525.861</ele>
        <time>2019-04-08T09:26:37Z</time>
      </trkpt>
      <trkpt lat="42.25566" lon="1.78248">
        <ele>1527.239</ele>
        <time>2019-04-08T09:26:40Z</time>
      </trkpt>
      <trkpt lat="42.25555" lon="1.78241">
        <ele>1528.201</ele>
        <time>2019-04-08T09:26:45Z</time>
      </trkpt>
      <trkpt lat="42.25548" lon="1.78239">
        <ele>1529.721</ele>
        <time>2019-04-08T09:26:48Z</time>
      </trkpt>
      <trkpt lat="42.25539" lon="1.78236">
        <ele>1532.008</ele>
        <time>2019-04-08T09:26:52Z</time>
      </trkpt>
      <trkpt lat="42.25535" lon="1.78235">
        <ele>1533.116</ele>
        <time>2019-04-08T09:26:53Z</time>
      </trkpt>
      <trkpt lat="42.25527" lon="1.78239">
        <ele>1535.548</ele>
        <time>2019-04-08T09:26:57Z</time>
      </trkpt>
      <trkpt lat="42.25518" lon="1.78244">
        <ele>1538.793</ele>
        <time>2019-04-08T09:27:00Z</time>
      </trkpt>
      <trkpt lat="42.2551" lon="1.78246">
        <ele>1540.384</ele>
        <time>2019-04-08T09:27:04Z</time>
      </trkpt>
      <trkpt lat="42.25504" lon="1.78252">
        <ele>1542.694</ele>
        <time>2019-04-08T09:27:07Z</time>
      </trkpt>
      <trkpt lat="42.255" lon="1.78252">
        <ele>1544.028</ele>
        <time>2019-04-08T09:27:08Z</time>
      </trkpt>
      <trkpt lat="42.25495" lon="1.78252">
        <ele>1545.527</ele>
        <time>2019-04-08T09:27:10Z</time>
      </trkpt>
      <trkpt lat="42.25489" lon="1.78252">
        <ele>1547.419</ele>
        <time>2019-04-08T09:27:13Z</time>
      </trkpt>
      <trkpt lat="42.25478" lon="1.78249">
        <ele>1549.977</ele>
        <time>2019-04-08T09:27:17Z</time>
      </trkpt>
      <trkpt lat="42.25473" lon="1.78248">
        <ele>1551.261</ele>
        <time>2019-04-08T09:27:19Z</time>
      </trkpt>
      <trkpt lat="42.25472" lon="1.78248">
        <ele>1551.227</ele>
        <time>2019-04-08T09:27:20Z</time>
      </trkpt>
      <trkpt lat="42.25466" lon="1.78246">
        <ele>1552.808</ele>
        <time>2019-04-08T09:27:22Z</time>
      </trkpt>
      <trkpt lat="42.25462" lon="1.78243">
        <ele>1553.29</ele>
        <time>2019-04-08T09:27:24Z</time>
      </trkpt>
      <trkpt lat="42.25455" lon="1.7824">
        <ele>1554.612</ele>
        <time>2019-04-08T09:27:27Z</time>
      </trkpt>
      <trkpt lat="42.25455" lon="1.78242">
        <ele>1554.187</ele>
        <time>2019-04-08T09:27:27Z</time>
      </trkpt>
      <trkpt lat="42.25444" lon="1.78248">
        <ele>1555.158</ele>
        <time>2019-04-08T09:27:32Z</time>
      </trkpt>
      <trkpt lat="42.25433" lon="1.78252">
        <ele>1555.128</ele>
        <time>2019-04-08T09:27:37Z</time>
      </trkpt>
      <trkpt lat="42.25458" lon="1.78241">
        <ele>1549.942</ele>
        <time>2019-04-08T09:27:47Z</time>
      </trkpt>
      <trkpt lat="42.25459" lon="1.7824">
        <ele>1549.961</ele>
        <time>2019-04-08T09:27:48Z</time>
      </trkpt>
      <trkpt lat="42.25459" lon="1.7824">
        <ele>1550.813</ele>
        <time>2019-04-08T09:27:48Z</time>
      </trkpt>
      <trkpt lat="42.25459" lon="1.78239">
        <ele>1553.768</ele>
        <time>2019-04-08T09:27:48Z</time>
      </trkpt>
      <trkpt lat="42.25462" lon="1.78224">
        <ele>1551.342</ele>
        <time>2019-04-08T09:27:53Z</time>
      </trkpt>
      <trkpt lat="42.25464" lon="1.7821">
        <ele>1550.826</ele>
        <time>2019-04-08T09:27:57Z</time>
      </trkpt>
      <trkpt lat="42.25467" lon="1.78203">
        <ele>1551.208</ele>
        <time>2019-04-08T09:28:00Z</time>
      </trkpt>
      <trkpt lat="42.25468" lon="1.78199">
        <ele>1551.319</ele>
        <time>2019-04-08T09:28:01Z</time>
      </trkpt>
      <trkpt lat="42.25472" lon="1.7818">
        <ele>1551.371</ele>
        <time>2019-04-08T09:28:07Z</time>
      </trkpt>
      <trkpt lat="42.25475" lon="1.78159">
        <ele>1550.726</ele>
        <time>2019-04-08T09:28:13Z</time>
      </trkpt>
      <trkpt lat="42.25477" lon="1.78156">
        <ele>1550.767</ele>
        <time>2019-04-08T09:28:14Z</time>
      </trkpt>
      <trkpt lat="42.25476" lon="1.78163">
        <ele>1551.297</ele>
        <time>2019-04-08T09:28:16Z</time>
      </trkpt>
      <trkpt lat="42.25472" lon="1.78179">
        <ele>1551.281</ele>
        <time>2019-04-08T09:28:21Z</time>
      </trkpt>
      <trkpt lat="42.2547" lon="1.78182">
        <ele>1551.29</ele>
        <time>2019-04-08T09:28:22Z</time>
      </trkpt>
      <trkpt lat="42.25469" lon="1.78193">
        <ele>1551.772</ele>
        <time>2019-04-08T09:28:25Z</time>
      </trkpt>
      <trkpt lat="42.2546" lon="1.78215">
        <ele>1551.341</ele>
        <time>2019-04-08T09:28:33Z</time>
      </trkpt>
      <trkpt lat="42.2546" lon="1.7822">
        <ele>1551.381</ele>
        <time>2019-04-08T09:28:34Z</time>
      </trkpt>
      <trkpt lat="42.25459" lon="1.78233">
        <ele>1550.709</ele>
        <time>2019-04-08T09:28:38Z</time>
      </trkpt>
      <trkpt lat="42.25458" lon="1.78238">
        <ele>1550.808</ele>
        <time>2019-04-08T09:28:40Z</time>
      </trkpt>
      <trkpt lat="42.25458" lon="1.78239">
        <ele>1551.367</ele>
        <time>2019-04-08T09:28:40Z</time>
      </trkpt>
      <trkpt lat="42.25458" lon="1.78239">
        <ele>1550.769</ele>
        <time>2019-04-08T09:28:40Z</time>
      </trkpt>
      <trkpt lat="42.25461" lon="1.78241">
        <ele>1550.724</ele>
        <time>2019-04-08T09:28:41Z</time>
      </trkpt>
      <trkpt lat="42.25468" lon="1.78247">
        <ele>1549.455</ele>
        <time>2019-04-08T09:28:45Z</time>
      </trkpt>
      <trkpt lat="42.25473" lon="1.78246">
        <ele>1548.945</ele>
        <time>2019-04-08T09:28:47Z</time>
      </trkpt>
      <trkpt lat="42.25486" lon="1.78248">
        <ele>1546.959</ele>
        <time>2019-04-08T09:28:52Z</time>
      </trkpt>
      <trkpt lat="42.25496" lon="1.7825">
        <ele>1544.028</ele>
        <time>2019-04-08T09:28:56Z</time>
      </trkpt>
      <trkpt lat="42.25505" lon="1.78249">
        <ele>1541.24</ele>
        <time>2019-04-08T09:28:59Z</time>
      </trkpt>
      <trkpt lat="42.25513" lon="1.78245">
        <ele>1539.842</ele>
        <time>2019-04-08T09:29:03Z</time>
      </trkpt>
      <trkpt lat="42.25519" lon="1.78241">
        <ele>1538.822</ele>
        <time>2019-04-08T09:29:06Z</time>
      </trkpt>
      <trkpt lat="42.25532" lon="1.78235">
        <ele>1535.814</ele>
        <time>2019-04-08T09:29:11Z</time>
      </trkpt>
      <trkpt lat="42.25544" lon="1.78231">
        <ele>1533.008</ele>
        <time>2019-04-08T09:29:16Z</time>
      </trkpt>
      <trkpt lat="42.25556" lon="1.78233">
        <ele>1530.137</ele>
        <time>2019-04-08T09:29:21Z</time>
      </trkpt>
      <trkpt lat="42.25569" lon="1.78246">
        <ele>1527.719</ele>
        <time>2019-04-08T09:29:28Z</time>
      </trkpt>
      <trkpt lat="42.25579" lon="1.78262">
        <ele>1525.454</ele>
        <time>2019-04-08T09:29:34Z</time>
      </trkpt>
      <trkpt lat="42.2558" lon="1.78263">
        <ele>1525.355</ele>
        <time>2019-04-08T09:29:34Z</time>
      </trkpt>
      <trkpt lat="42.25589" lon="1.78277">
        <ele>1522.015</ele>
        <time>2019-04-08T09:29:40Z</time>
      </trkpt>
      <trkpt lat="42.25595" lon="1.78281">
        <ele>1519.129</ele>
        <time>2019-04-08T09:29:42Z</time>
      </trkpt>
      <trkpt lat="42.25598" lon="1.78285">
        <ele>1516.778</ele>
        <time>2019-04-08T09:29:44Z</time>
      </trkpt>
      <trkpt lat="42.25603" lon="1.78289">
        <ele>1514.29</ele>
        <time>2019-04-08T09:29:46Z</time>
      </trkpt>
      <trkpt lat="42.25603" lon="1.78294">
        <ele>1513.436</ele>
        <time>2019-04-08T09:29:48Z</time>
      </trkpt>
      <trkpt lat="42.25604" lon="1.78296">
        <ele>1511.017</ele>
        <time>2019-04-08T09:29:49Z</time>
      </trkpt>
      <trkpt lat="42.25605" lon="1.78305">
        <ele>1508.018</ele>
        <time>2019-04-08T09:29:52Z</time>
      </trkpt>
      <trkpt lat="42.25606" lon="1.78309">
        <ele>1505.608</ele>
        <time>2019-04-08T09:29:53Z</time>
      </trkpt>
      <trkpt lat="42.25604" lon="1.78312">
        <ele>1505.146</ele>
        <time>2019-04-08T09:29:54Z</time>
      </trkpt>
      <trkpt lat="42.25603" lon="1.78318">
        <ele>1503.728</ele>
        <time>2019-04-08T09:29:56Z</time>
      </trkpt>
      <trkpt lat="42.25598" lon="1.78323">
        <ele>1500.463</ele>
        <time>2019-04-08T09:29:58Z</time>
      </trkpt>
      <trkpt lat="42.25594" lon="1.78326">
        <ele>1497.984</ele>
        <time>2019-04-08T09:30:00Z</time>
      </trkpt>
      <trkpt lat="42.25594" lon="1.78326">
        <ele>1497.564</ele>
        <time>2019-04-08T09:30:00Z</time>
      </trkpt>
      <trkpt lat="42.25596" lon="1.78337">
        <ele>1494.648</ele>
        <time>2019-04-08T09:30:03Z</time>
      </trkpt>
      <trkpt lat="42.25598" lon="1.78342">
        <ele>1493.237</ele>
        <time>2019-04-08T09:30:05Z</time>
      </trkpt>
      <trkpt lat="42.25602" lon="1.78349">
        <ele>1490.389</ele>
        <time>2019-04-08T09:30:08Z</time>
      </trkpt>
      <trkpt lat="42.25603" lon="1.78357">
        <ele>1487.431</ele>
        <time>2019-04-08T09:30:10Z</time>
      </trkpt>
      <trkpt lat="42.25597" lon="1.78369">
        <ele>1484.061</ele>
        <time>2019-04-08T09:30:15Z</time>
      </trkpt>
      <trkpt lat="42.25595" lon="1.7837">
        <ele>1483.507</ele>
        <time>2019-04-08T09:30:15Z</time>
      </trkpt>
      <trkpt lat="42.25594" lon="1.78371">
        <ele>1483.508</ele>
        <time>2019-04-08T09:30:16Z</time>
      </trkpt>
      <trkpt lat="42.25595" lon="1.78382">
        <ele>1480.126</ele>
        <time>2019-04-08T09:30:19Z</time>
      </trkpt>
      <trkpt lat="42.25596" lon="1.78383">
        <ele>1479.788</ele>
        <time>2019-04-08T09:30:20Z</time>
      </trkpt>
      <trkpt lat="42.25595" lon="1.78384">
        <ele>1480.193</ele>
        <time>2019-04-08T09:30:20Z</time>
      </trkpt>
      <trkpt lat="42.25595" lon="1.78384">
        <ele>1479.214</ele>
        <time>2019-04-08T09:30:21Z</time>
      </trkpt>
      <trkpt lat="42.25595" lon="1.78382">
        <ele>1479.754</ele>
        <time>2019-04-08T09:30:21Z</time>
      </trkpt>
      <trkpt lat="42.25596" lon="1.78384">
        <ele>1479.618</ele>
        <time>2019-04-08T09:30:22Z</time>
      </trkpt>
      <trkpt lat="42.25596" lon="1.78384">
        <ele>1479.797</ele>
        <time>2019-04-08T09:30:22Z</time>
      </trkpt>
      <trkpt lat="42.25596" lon="1.78384">
        <ele>1479.649</ele>
        <time>2019-04-08T09:30:22Z</time>
      </trkpt>
      <trkpt lat="42.25596" lon="1.78385">
        <ele>1479.618</ele>
        <time>2019-04-08T09:30:23Z</time>
      </trkpt>
      <trkpt lat="42.25595" lon="1.78386">
        <ele>1479.698</ele>
        <time>2019-04-08T09:30:23Z</time>
      </trkpt>
      <trkpt lat="42.25595" lon="1.78386">
        <ele>1479.617</ele>
        <time>2019-04-08T09:30:23Z</time>
      </trkpt>
      <trkpt lat="42.25595" lon="1.78386">
        <ele>1479.608</ele>
        <time>2019-04-08T09:30:23Z</time>
      </trkpt>
      <trkpt lat="42.25594" lon="1.78385">
        <ele>1479.744</ele>
        <time>2019-04-08T09:30:23Z</time>
      </trkpt>
      <trkpt lat="42.25595" lon="1.78386">
        <ele>1480.156</ele>
        <time>2019-04-08T09:30:24Z</time>
      </trkpt>
      <trkpt lat="42.25595" lon="1.78384">
        <ele>1480.131</ele>
        <time>2019-04-08T09:30:24Z</time>
      </trkpt>
      <trkpt lat="42.25596" lon="1.78385">
        <ele>1480.262</ele>
        <time>2019-04-08T09:30:25Z</time>
      </trkpt>
      <trkpt lat="42.25597" lon="1.78384">
        <ele>1480.672</ele>
        <time>2019-04-08T09:30:25Z</time>
      </trkpt>
      <trkpt lat="42.25598" lon="1.78384">
        <ele>1480.126</ele>
        <time>2019-04-08T09:30:25Z</time>
      </trkpt>
      <trkpt lat="42.25599" lon="1.78384">
        <ele>1480.615</ele>
        <time>2019-04-08T09:30:26Z</time>
      </trkpt>
      <trkpt lat="42.2561" lon="1.78375">
        <ele>1479.787</ele>
        <time>2019-04-08T09:30:31Z</time>
      </trkpt>
      <trkpt lat="42.25617" lon="1.78372">
        <ele>1477.761</ele>
        <time>2019-04-08T09:30:34Z</time>
      </trkpt>
      <trkpt lat="42.25619" lon="1.78371">
        <ele>1478.221</ele>
        <time>2019-04-08T09:30:35Z</time>
      </trkpt>
      <trkpt lat="42.2562" lon="1.78368">
        <ele>1477.813</ele>
        <time>2019-04-08T09:30:36Z</time>
      </trkpt>
      <trkpt lat="42.25619" lon="1.78372">
        <ele>1477.308</ele>
        <time>2019-04-08T09:30:37Z</time>
      </trkpt>
      <trkpt lat="42.25619" lon="1.78377">
        <ele>1475.339</ele>
        <time>2019-04-08T09:30:39Z</time>
      </trkpt>
      <trkpt lat="42.2562" lon="1.78384">
        <ele>1473.031</ele>
        <time>2019-04-08T09:30:41Z</time>
      </trkpt>
      <trkpt lat="42.25618" lon="1.78397">
        <ele>1469.656</ele>
        <time>2019-04-08T09:30:45Z</time>
      </trkpt>
      <trkpt lat="42.25615" lon="1.78401">
        <ele>1468.767</ele>
        <time>2019-04-08T09:30:46Z</time>
      </trkpt>
      <trkpt lat="42.25613" lon="1.78409">
        <ele>1467.217</ele>
        <time>2019-04-08T09:30:49Z</time>
      </trkpt>
      <trkpt lat="42.25612" lon="1.78417">
        <ele>1464.731</ele>
        <time>2019-04-08T09:30:51Z</time>
      </trkpt>
      <trkpt lat="42.25609" lon="1.78427">
        <ele>1462.83</ele>
        <time>2019-04-08T09:30:54Z</time>
      </trkpt>
      <trkpt lat="42.25609" lon="1.78432">
        <ele>1459.942</ele>
        <time>2019-04-08T09:30:56Z</time>
      </trkpt>
      <trkpt lat="42.25616" lon="1.78444">
        <ele>1457.054</ele>
        <time>2019-04-08T09:31:00Z</time>
      </trkpt>
      <trkpt lat="42.25619" lon="1.78453">
        <ele>1453.756</ele>
        <time>2019-04-08T09:31:03Z</time>
      </trkpt>
      <trkpt lat="42.2562" lon="1.78462">
        <ele>1452.211</ele>
        <time>2019-04-08T09:31:06Z</time>
      </trkpt>
      <trkpt lat="42.25622" lon="1.78469">
        <ele>1451.308</ele>
        <time>2019-04-08T09:31:08Z</time>
      </trkpt>
      <trkpt lat="42.25625" lon="1.78476">
        <ele>1448.898</ele>
        <time>2019-04-08T09:31:11Z</time>
      </trkpt>
      <trkpt lat="42.25626" lon="1.78479">
        <ele>1447.51</ele>
        <time>2019-04-08T09:31:12Z</time>
      </trkpt>
      <trkpt lat="42.25633" lon="1.78486">
        <ele>1444.645</ele>
        <time>2019-04-08T09:31:15Z</time>
      </trkpt>
      <trkpt lat="42.25634" lon="1.78494">
        <ele>1442.696</ele>
        <time>2019-04-08T09:31:17Z</time>
      </trkpt>
      <trkpt lat="42.25634" lon="1.78492">
        <ele>1441.286</ele>
        <time>2019-04-08T09:31:18Z</time>
      </trkpt>
      <trkpt lat="42.25634" lon="1.78492">
        <ele>1441.63</ele>
        <time>2019-04-08T09:31:18Z</time>
      </trkpt>
      <trkpt lat="42.25634" lon="1.78501">
        <ele>1437.839</ele>
        <time>2019-04-08T09:31:20Z</time>
      </trkpt>
      <trkpt lat="42.25636" lon="1.78519">
        <ele>1435.971</ele>
        <time>2019-04-08T09:31:26Z</time>
      </trkpt>
      <trkpt lat="42.25637" lon="1.78522">
        <ele>1435.943</ele>
        <time>2019-04-08T09:31:27Z</time>
      </trkpt>
      <trkpt lat="42.25638" lon="1.78534">
        <ele>1435.564</ele>
        <time>2019-04-08T09:31:30Z</time>
      </trkpt>
      <trkpt lat="42.25641" lon="1.78542">
        <ele>1435.01</ele>
        <time>2019-04-08T09:31:33Z</time>
      </trkpt>
      <trkpt lat="42.25641" lon="1.78554">
        <ele>1434.508</ele>
        <time>2019-04-08T09:31:36Z</time>
      </trkpt>
      <trkpt lat="42.25642" lon="1.78575">
        <ele>1435.087</ele>
        <time>2019-04-08T09:31:43Z</time>
      </trkpt>
      <trkpt lat="42.25644" lon="1.7858">
        <ele>1435.079</ele>
        <time>2019-04-08T09:31:45Z</time>
      </trkpt>
      <trkpt lat="42.25644" lon="1.78597">
        <ele>1435.064</ele>
        <time>2019-04-08T09:31:50Z</time>
      </trkpt>
      <trkpt lat="42.25643" lon="1.78603">
        <ele>1434.945</ele>
        <time>2019-04-08T09:31:51Z</time>
      </trkpt>
      <trkpt lat="42.25644" lon="1.78606">
        <ele>1435.595</ele>
        <time>2019-04-08T09:31:52Z</time>
      </trkpt>
      <trkpt lat="42.25644" lon="1.7861">
        <ele>1435.469</ele>
        <time>2019-04-08T09:31:53Z</time>
      </trkpt>
      <trkpt lat="42.25644" lon="1.78612">
        <ele>1434.938</ele>
        <time>2019-04-08T09:31:54Z</time>
      </trkpt>
      <trkpt lat="42.25647" lon="1.78627">
        <ele>1433.12</ele>
        <time>2019-04-08T09:31:59Z</time>
      </trkpt>
      <trkpt lat="42.25647" lon="1.78632">
        <ele>1432.083</ele>
        <time>2019-04-08T09:32:00Z</time>
      </trkpt>
      <trkpt lat="42.25638" lon="1.78644">
        <ele>1431.125</ele>
        <time>2019-04-08T09:32:05Z</time>
      </trkpt>
      <trkpt lat="42.25636" lon="1.78648">
        <ele>1431.117</ele>
        <time>2019-04-08T09:32:06Z</time>
      </trkpt>
      <trkpt lat="42.25633" lon="1.78665">
        <ele>1430.108</ele>
        <time>2019-04-08T09:32:11Z</time>
      </trkpt>
      <trkpt lat="42.25624" lon="1.78703">
        <ele>1431.581</ele>
        <time>2019-04-08T09:32:23Z</time>
      </trkpt>
      <trkpt lat="42.25619" lon="1.78723">
        <ele>1433.573</ele>
        <time>2019-04-08T09:32:30Z</time>
      </trkpt>
      <trkpt lat="42.25618" lon="1.78732">
        <ele>1434.598</ele>
        <time>2019-04-08T09:32:32Z</time>
      </trkpt>
      <trkpt lat="42.25618" lon="1.78743">
        <ele>1435.559</ele>
        <time>2019-04-08T09:32:35Z</time>
      </trkpt>
      <trkpt lat="42.25619" lon="1.78751">
        <ele>1435.499</ele>
        <time>2019-04-08T09:32:38Z</time>
      </trkpt>
      <trkpt lat="42.2562" lon="1.78756">
        <ele>1435.453</ele>
        <time>2019-04-08T09:32:40Z</time>
      </trkpt>
      <trkpt lat="42.25621" lon="1.78762">
        <ele>1435.022</ele>
        <time>2019-04-08T09:32:41Z</time>
      </trkpt>
      <trkpt lat="42.25618" lon="1.78768">
        <ele>1434.474</ele>
        <time>2019-04-08T09:32:44Z</time>
      </trkpt>
      <trkpt lat="42.2561" lon="1.78781">
        <ele>1432.666</ele>
        <time>2019-04-08T09:32:49Z</time>
      </trkpt>
      <trkpt lat="42.25608" lon="1.78786">
        <ele>1432.129</ele>
        <time>2019-04-08T09:32:50Z</time>
      </trkpt>
      <trkpt lat="42.25607" lon="1.78807">
        <ele>1430.221</ele>
        <time>2019-04-08T09:32:57Z</time>
      </trkpt>
      <trkpt lat="42.25604" lon="1.78821">
        <ele>1429.708</ele>
        <time>2019-04-08T09:33:01Z</time>
      </trkpt>
      <trkpt lat="42.25602" lon="1.78834">
        <ele>1428.739</ele>
        <time>2019-04-08T09:33:05Z</time>
      </trkpt>
      <trkpt lat="42.25598" lon="1.78855">
        <ele>1429.131</ele>
        <time>2019-04-08T09:33:11Z</time>
      </trkpt>
      <trkpt lat="42.25596" lon="1.78874">
        <ele>1430.686</ele>
        <time>2019-04-08T09:33:17Z</time>
      </trkpt>
      <trkpt lat="42.25595" lon="1.78879">
        <ele>1430.117</ele>
        <time>2019-04-08T09:33:18Z</time>
      </trkpt>
      <trkpt lat="42.25596" lon="1.78893">
        <ele>1428.747</ele>
        <time>2019-04-08T09:33:23Z</time>
      </trkpt>
      <trkpt lat="42.25598" lon="1.78901">
        <ele>1428.271</ele>
        <time>2019-04-08T09:33:25Z</time>
      </trkpt>
      <trkpt lat="42.25597" lon="1.78907">
        <ele>1428.31</ele>
        <time>2019-04-08T09:33:27Z</time>
      </trkpt>
      <trkpt lat="42.25593" lon="1.78928">
        <ele>1426.862</ele>
        <time>2019-04-08T09:33:33Z</time>
      </trkpt>
      <trkpt lat="42.25591" lon="1.78934">
        <ele>1427.399</ele>
        <time>2019-04-08T09:33:35Z</time>
      </trkpt>
      <trkpt lat="42.2559" lon="1.78941">
        <ele>1426.807</ele>
        <time>2019-04-08T09:33:37Z</time>
      </trkpt>
      <trkpt lat="42.25589" lon="1.78952">
        <ele>1425.827</ele>
        <time>2019-04-08T09:33:41Z</time>
      </trkpt>
      <trkpt lat="42.25588" lon="1.78958">
        <ele>1426.408</ele>
        <time>2019-04-08T09:33:42Z</time>
      </trkpt>
      <trkpt lat="42.25586" lon="1.78969">
        <ele>1424.962</ele>
        <time>2019-04-08T09:33:46Z</time>
      </trkpt>
      <trkpt lat="42.25586" lon="1.78975">
        <ele>1424.014</ele>
        <time>2019-04-08T09:33:48Z</time>
      </trkpt>
      <trkpt lat="42.25586" lon="1.78981">
        <ele>1421.949</ele>
        <time>2019-04-08T09:33:49Z</time>
      </trkpt>
      <trkpt lat="42.25576" lon="1.78999">
        <ele>1419.05</ele>
        <time>2019-04-08T09:33:56Z</time>
      </trkpt>
      <trkpt lat="42.2557" lon="1.79011">
        <ele>1418.28</ele>
        <time>2019-04-08T09:34:00Z</time>
      </trkpt>
      <trkpt lat="42.25564" lon="1.79016">
        <ele>1417.274</ele>
        <time>2019-04-08T09:34:03Z</time>
      </trkpt>
      <trkpt lat="42.25559" lon="1.79022">
        <ele>1416.393</ele>
        <time>2019-04-08T09:34:06Z</time>
      </trkpt>
      <trkpt lat="42.25552" lon="1.7904">
        <ele>1414.795</ele>
        <time>2019-04-08T09:34:12Z</time>
      </trkpt>
      <trkpt lat="42.2555" lon="1.79043">
        <ele>1414.792</ele>
        <time>2019-04-08T09:34:13Z</time>
      </trkpt>
      <trkpt lat="42.25544" lon="1.79055">
        <ele>1414.373</ele>
        <time>2019-04-08T09:34:17Z</time>
      </trkpt>
      <trkpt lat="42.25545" lon="1.7907">
        <ele>1412.82</ele>
        <time>2019-04-08T09:34:22Z</time>
      </trkpt>
      <trkpt lat="42.25546" lon="1.79075">
        <ele>1412.808</ele>
        <time>2019-04-08T09:34:23Z</time>
      </trkpt>
      <trkpt lat="42.25542" lon="1.79089">
        <ele>1412.492</ele>
        <time>2019-04-08T09:34:28Z</time>
      </trkpt>
      <trkpt lat="42.25539" lon="1.79096">
        <ele>1411.894</ele>
        <time>2019-04-08T09:34:30Z</time>
      </trkpt>
      <trkpt lat="42.25536" lon="1.79105">
        <ele>1410.999</ele>
        <time>2019-04-08T09:34:33Z</time>
      </trkpt>
      <trkpt lat="42.25534" lon="1.79123">
        <ele>1409.91</ele>
        <time>2019-04-08T09:34:39Z</time>
      </trkpt>
      <trkpt lat="42.25528" lon="1.79139">
        <ele>1408.64</ele>
        <time>2019-04-08T09:34:44Z</time>
      </trkpt>
      <trkpt lat="42.25524" lon="1.79152">
        <ele>1407.094</ele>
        <time>2019-04-08T09:34:48Z</time>
      </trkpt>
      <trkpt lat="42.25524" lon="1.79156">
        <ele>1406.113</ele>
        <time>2019-04-08T09:34:49Z</time>
      </trkpt>
      <trkpt lat="42.25523" lon="1.79163">
        <ele>1405.245</ele>
        <time>2019-04-08T09:34:51Z</time>
      </trkpt>
      <trkpt lat="42.25518" lon="1.79167">
        <ele>1404.187</ele>
        <time>2019-04-08T09:34:53Z</time>
      </trkpt>
      <trkpt lat="42.25512" lon="1.79177">
        <ele>1402.342</ele>
        <time>2019-04-08T09:34:57Z</time>
      </trkpt>
      <trkpt lat="42.2551" lon="1.79181">
        <ele>1401.726</ele>
        <time>2019-04-08T09:34:58Z</time>
      </trkpt>
      <trkpt lat="42.2551" lon="1.79192">
        <ele>1400.908</ele>
        <time>2019-04-08T09:35:02Z</time>
      </trkpt>
      <trkpt lat="42.2551" lon="1.79192">
        <ele>1400.811</ele>
        <time>2019-04-08T09:35:02Z</time>
      </trkpt>
      <trkpt lat="42.2551" lon="1.79204">
        <ele>1399.853</ele>
        <time>2019-04-08T09:35:06Z</time>
      </trkpt>
      <trkpt lat="42.25507" lon="1.79221">
        <ele>1399.498</ele>
        <time>2019-04-08T09:35:11Z</time>
      </trkpt>
      <trkpt lat="42.25507" lon="1.79222">
        <ele>1399.499</ele>
        <time>2019-04-08T09:35:11Z</time>
      </trkpt>
      <trkpt lat="42.25503" lon="1.79243">
        <ele>1398.449</ele>
        <time>2019-04-08T09:35:17Z</time>
      </trkpt>
      <trkpt lat="42.25501" lon="1.7926">
        <ele>1398.513</ele>
        <time>2019-04-08T09:35:23Z</time>
      </trkpt>
      <trkpt lat="42.25498" lon="1.7927">
        <ele>1398.592</ele>
        <time>2019-04-08T09:35:26Z</time>
      </trkpt>
      <trkpt lat="42.25495" lon="1.79279">
        <ele>1397.914</ele>
        <time>2019-04-08T09:35:29Z</time>
      </trkpt>
      <trkpt lat="42.25489" lon="1.79289">
        <ele>1397.597</ele>
        <time>2019-04-08T09:35:32Z</time>
      </trkpt>
      <trkpt lat="42.25484" lon="1.79307">
        <ele>1397.423</ele>
        <time>2019-04-08T09:35:38Z</time>
      </trkpt>
      <trkpt lat="42.25481" lon="1.7932">
        <ele>1396.625</ele>
        <time>2019-04-08T09:35:42Z</time>
      </trkpt>
      <trkpt lat="42.25475" lon="1.79344">
        <ele>1396.008</ele>
        <time>2019-04-08T09:35:50Z</time>
      </trkpt>
      <trkpt lat="42.25468" lon="1.79355">
        <ele>1396.022</ele>
        <time>2019-04-08T09:35:54Z</time>
      </trkpt>
      <trkpt lat="42.2546" lon="1.79363">
        <ele>1396.134</ele>
        <time>2019-04-08T09:35:58Z</time>
      </trkpt>
      <trkpt lat="42.25452" lon="1.79369">
        <ele>1395.149</ele>
        <time>2019-04-08T09:36:01Z</time>
      </trkpt>
      <trkpt lat="42.25446" lon="1.79382">
        <ele>1394.54</ele>
        <time>2019-04-08T09:36:06Z</time>
      </trkpt>
      <trkpt lat="42.25437" lon="1.79398">
        <ele>1395.08</ele>
        <time>2019-04-08T09:36:12Z</time>
      </trkpt>
      <trkpt lat="42.25424" lon="1.79418">
        <ele>1395.544</ele>
        <time>2019-04-08T09:36:20Z</time>
      </trkpt>
      <trkpt lat="42.25418" lon="1.79426">
        <ele>1396.013</ele>
        <time>2019-04-08T09:36:23Z</time>
      </trkpt>
      <trkpt lat="42.25413" lon="1.79434">
        <ele>1396.535</ele>
        <time>2019-04-08T09:36:26Z</time>
      </trkpt>
      <trkpt lat="42.25407" lon="1.79443">
        <ele>1396.613</ele>
        <time>2019-04-08T09:36:30Z</time>
      </trkpt>
      <trkpt lat="42.25406" lon="1.79443">
        <ele>1396.643</ele>
        <time>2019-04-08T09:36:30Z</time>
      </trkpt>
      <trkpt lat="42.25399" lon="1.79446">
        <ele>1396.507</ele>
        <time>2019-04-08T09:36:33Z</time>
      </trkpt>
      <trkpt lat="42.25388" lon="1.79453">
        <ele>1396.508</ele>
        <time>2019-04-08T09:36:38Z</time>
      </trkpt>
      <trkpt lat="42.25386" lon="1.79453">
        <ele>1396.014</ele>
        <time>2019-04-08T09:36:39Z</time>
      </trkpt>
      <trkpt lat="42.25383" lon="1.79454">
        <ele>1396.126</ele>
        <time>2019-04-08T09:36:40Z</time>
      </trkpt>
      <trkpt lat="42.2538" lon="1.79452">
        <ele>1395.651</ele>
        <time>2019-04-08T09:36:41Z</time>
      </trkpt>
      <trkpt lat="42.2538" lon="1.79452">
        <ele>1396.182</ele>
        <time>2019-04-08T09:36:41Z</time>
      </trkpt>
      <trkpt lat="42.2538" lon="1.79452">
        <ele>1396.992</ele>
        <time>2019-04-08T09:36:41Z</time>
      </trkpt>
      <trkpt lat="42.2538" lon="1.79452">
        <ele>1393.156</ele>
        <time>2019-04-08T09:36:41Z</time>
      </trkpt>
      <trkpt lat="42.2538" lon="1.79452">
        <ele>1399.085</ele>
        <time>2019-04-08T09:36:41Z</time>
      </trkpt>
      <trkpt lat="42.2538" lon="1.79452">
        <ele>1378.877</ele>
        <time>2019-04-08T09:36:41Z</time>
      </trkpt>
      <trkpt lat="42.2538" lon="1.79453">
        <ele>1396.997</ele>
        <time>2019-04-08T09:36:41Z</time>
      </trkpt>
      <trkpt lat="42.2538" lon="1.79453">
        <ele>1401.723</ele>
        <time>2019-04-08T09:36:41Z</time>
      </trkpt>
      <trkpt lat="42.25381" lon="1.79453">
        <ele>1389.725</ele>
        <time>2019-04-08T09:36:41Z</time>
      </trkpt>
      <trkpt lat="42.25381" lon="1.79453">
        <ele>1396.608</ele>
        <time>2019-04-08T09:36:41Z</time>
      </trkpt>
      <trkpt lat="42.2538" lon="1.79453">
        <ele>1396.532</ele>
        <time>2019-04-08T09:36:42Z</time>
      </trkpt>
      <trkpt lat="42.2538" lon="1.79452">
        <ele>1396.164</ele>
        <time>2019-04-08T09:36:42Z</time>
      </trkpt>
      <trkpt lat="42.25379" lon="1.7945">
        <ele>1397.019</ele>
        <time>2019-04-08T09:36:43Z</time>
      </trkpt>
      <trkpt lat="42.25379" lon="1.79449">
        <ele>1397.06</ele>
        <time>2019-04-08T09:36:43Z</time>
      </trkpt>
      <trkpt lat="42.25379" lon="1.79453">
        <ele>1396.99</ele>
        <time>2019-04-08T09:36:44Z</time>
      </trkpt>
      <trkpt lat="42.25379" lon="1.79452">
        <ele>1396.914</ele>
        <time>2019-04-08T09:36:45Z</time>
      </trkpt>
      <trkpt lat="42.25377" lon="1.79449">
        <ele>1397.013</ele>
        <time>2019-04-08T09:36:46Z</time>
      </trkpt>
      <trkpt lat="42.25377" lon="1.79449">
        <ele>1396.955</ele>
        <time>2019-04-08T09:36:46Z</time>
      </trkpt>
      <trkpt lat="42.25379" lon="1.79451">
        <ele>1396.522</ele>
        <time>2019-04-08T09:36:47Z</time>
      </trkpt>
      <trkpt lat="42.25389" lon="1.79465">
        <ele>1395.562</ele>
        <time>2019-04-08T09:36:53Z</time>
      </trkpt>
      <trkpt lat="42.25396" lon="1.79484">
        <ele>1395.608</ele>
        <time>2019-04-08T09:36:59Z</time>
      </trkpt>
      <trkpt lat="42.25406" lon="1.79504">
        <ele>1395.508</ele>
        <time>2019-04-08T09:37:06Z</time>
      </trkpt>
      <trkpt lat="42.25409" lon="1.79511">
        <ele>1396.165</ele>
        <time>2019-04-08T09:37:09Z</time>
      </trkpt>
      <trkpt lat="42.2541" lon="1.79521">
        <ele>1395.647</ele>
        <time>2019-04-08T09:37:12Z</time>
      </trkpt>
      <trkpt lat="42.2541" lon="1.79526">
        <ele>1395.512</ele>
        <time>2019-04-08T09:37:13Z</time>
      </trkpt>
      <trkpt lat="42.25413" lon="1.79542">
        <ele>1395.073</ele>
        <time>2019-04-08T09:37:18Z</time>
      </trkpt>
      <trkpt lat="42.25418" lon="1.79558">
        <ele>1393.683</ele>
        <time>2019-04-08T09:37:23Z</time>
      </trkpt>
      <trkpt lat="42.25419" lon="1.79562">
        <ele>1393.787</ele>
        <time>2019-04-08T09:37:24Z</time>
      </trkpt>
      <trkpt lat="42.2542" lon="1.79571">
        <ele>1393.236</ele>
        <time>2019-04-08T09:37:27Z</time>
      </trkpt>
      <trkpt lat="42.25421" lon="1.79576">
        <ele>1393.168</ele>
        <time>2019-04-08T09:37:29Z</time>
      </trkpt>
      <trkpt lat="42.25422" lon="1.79578">
        <ele>1393.185</ele>
        <time>2019-04-08T09:37:29Z</time>
      </trkpt>
      <trkpt lat="42.25424" lon="1.79589">
        <ele>1391.789</ele>
        <time>2019-04-08T09:37:33Z</time>
      </trkpt>
      <trkpt lat="42.25426" lon="1.79592">
        <ele>1391.217</ele>
        <time>2019-04-08T09:37:34Z</time>
      </trkpt>
      <trkpt lat="42.25428" lon="1.79602">
        <ele>1389.708</ele>
        <time>2019-04-08T09:37:37Z</time>
      </trkpt>
      <trkpt lat="42.25432" lon="1.7961">
        <ele>1388.461</ele>
        <time>2019-04-08T09:37:40Z</time>
      </trkpt>
      <trkpt lat="42.25446" lon="1.79627">
        <ele>1386.573</ele>
        <time>2019-04-08T09:37:47Z</time>
      </trkpt>
      <trkpt lat="42.25449" lon="1.7963">
        <ele>1384.998</ele>
        <time>2019-04-08T09:37:49Z</time>
      </trkpt>
      <trkpt lat="42.2545" lon="1.79637">
        <ele>1383.049</ele>
        <time>2019-04-08T09:37:51Z</time>
      </trkpt>
      <trkpt lat="42.25455" lon="1.79651">
        <ele>1380.749</ele>
        <time>2019-04-08T09:37:56Z</time>
      </trkpt>
      <trkpt lat="42.25459" lon="1.79657">
        <ele>1380.723</ele>
        <time>2019-04-08T09:37:58Z</time>
      </trkpt>
      <trkpt lat="42.25463" lon="1.79663">
        <ele>1378.762</ele>
        <time>2019-04-08T09:38:00Z</time>
      </trkpt>
      <trkpt lat="42.25468" lon="1.79676">
        <ele>1377.714</ele>
        <time>2019-04-08T09:38:05Z</time>
      </trkpt>
      <trkpt lat="42.2547" lon="1.79681">
        <ele>1377.317</ele>
        <time>2019-04-08T09:38:06Z</time>
      </trkpt>
      <trkpt lat="42.25471" lon="1.79687">
        <ele>1376.387</ele>
        <time>2019-04-08T09:38:08Z</time>
      </trkpt>
      <trkpt lat="42.25471" lon="1.79693">
        <ele>1375.915</ele>
        <time>2019-04-08T09:38:10Z</time>
      </trkpt>
      <trkpt lat="42.25471" lon="1.79699">
        <ele>1375.408</ele>
        <time>2019-04-08T09:38:12Z</time>
      </trkpt>
      <trkpt lat="42.2547" lon="1.79706">
        <ele>1374.384</ele>
        <time>2019-04-08T09:38:14Z</time>
      </trkpt>
      <trkpt lat="42.25471" lon="1.7971">
        <ele>1374.496</ele>
        <time>2019-04-08T09:38:15Z</time>
      </trkpt>
      <trkpt lat="42.25471" lon="1.79742">
        <ele>1372.441</ele>
        <time>2019-04-08T09:38:24Z</time>
      </trkpt>
      <trkpt lat="42.2547" lon="1.79746">
        <ele>1372.092</ele>
        <time>2019-04-08T09:38:26Z</time>
      </trkpt>
      <trkpt lat="42.25471" lon="1.79751">
        <ele>1372.072</ele>
        <time>2019-04-08T09:38:27Z</time>
      </trkpt>
      <trkpt lat="42.2547" lon="1.79754">
        <ele>1371.946</ele>
        <time>2019-04-08T09:38:28Z</time>
      </trkpt>
      <trkpt lat="42.25466" lon="1.79768">
        <ele>1371.945</ele>
        <time>2019-04-08T09:38:33Z</time>
      </trkpt>
      <trkpt lat="42.25468" lon="1.79783">
        <ele>1371.987</ele>
        <time>2019-04-08T09:38:37Z</time>
      </trkpt>
      <trkpt lat="42.25468" lon="1.79787">
        <ele>1372.034</ele>
        <time>2019-04-08T09:38:38Z</time>
      </trkpt>
      <trkpt lat="42.25467" lon="1.79795">
        <ele>1371.155</ele>
        <time>2019-04-08T09:38:41Z</time>
      </trkpt>
      <trkpt lat="42.2547" lon="1.79806">
        <ele>1370.01</ele>
        <time>2019-04-08T09:38:44Z</time>
      </trkpt>
      <trkpt lat="42.25471" lon="1.79809">
        <ele>1369.608</ele>
        <time>2019-04-08T09:38:45Z</time>
      </trkpt>
      <trkpt lat="42.25472" lon="1.79825">
        <ele>1367.666</ele>
        <time>2019-04-08T09:38:50Z</time>
      </trkpt>
      <trkpt lat="42.25473" lon="1.79832">
        <ele>1366.778</ele>
        <time>2019-04-08T09:38:52Z</time>
      </trkpt>
      <trkpt lat="42.25479" lon="1.79842">
        <ele>1365.383</ele>
        <time>2019-04-08T09:38:56Z</time>
      </trkpt>
      <trkpt lat="42.2548" lon="1.79851">
        <ele>1365.744</ele>
        <time>2019-04-08T09:38:58Z</time>
      </trkpt>
      <trkpt lat="42.2548" lon="1.79868">
        <ele>1361.824</ele>
        <time>2019-04-08T09:39:03Z</time>
      </trkpt>
      <trkpt lat="42.25478" lon="1.7988">
        <ele>1360.488</ele>
        <time>2019-04-08T09:39:07Z</time>
      </trkpt>
      <trkpt lat="42.25474" lon="1.79894">
        <ele>1358.667</ele>
        <time>2019-04-08T09:39:12Z</time>
      </trkpt>
      <trkpt lat="42.25472" lon="1.79907">
        <ele>1355.299</ele>
        <time>2019-04-08T09:39:16Z</time>
      </trkpt>
      <trkpt lat="42.25467" lon="1.79916">
        <ele>1356.798</ele>
        <time>2019-04-08T09:39:19Z</time>
      </trkpt>
      <trkpt lat="42.2546" lon="1.79916">
        <ele>1356.115</ele>
        <time>2019-04-08T09:39:22Z</time>
      </trkpt>
      <trkpt lat="42.25468" lon="1.7991">
        <ele>1357.126</ele>
        <time>2019-04-08T09:39:25Z</time>
      </trkpt>
      <trkpt lat="42.25467" lon="1.799">
        <ele>1358.508</ele>
        <time>2019-04-08T09:39:28Z</time>
      </trkpt>
      <trkpt lat="42.25474" lon="1.79928">
        <ele>1360.442</ele>
        <time>2019-04-08T09:39:37Z</time>
      </trkpt>
      <trkpt lat="42.25474" lon="1.79945">
        <ele>1360.514</ele>
        <time>2019-04-08T09:39:42Z</time>
      </trkpt>
      <trkpt lat="42.25451" lon="1.79912">
        <ele>1340.339</ele>
        <time>2019-04-08T09:39:55Z</time>
      </trkpt>
      <trkpt lat="42.25438" lon="1.79909">
        <ele>1338.32</ele>
        <time>2019-04-08T09:40:01Z</time>
      </trkpt>
      <trkpt lat="42.25434" lon="1.7991">
        <ele>1337.36</ele>
        <time>2019-04-08T09:40:02Z</time>
      </trkpt>
      <trkpt lat="42.25432" lon="1.79919">
        <ele>1336.064</ele>
        <time>2019-04-08T09:40:05Z</time>
      </trkpt>
      <trkpt lat="42.25431" lon="1.79924">
        <ele>1336.093</ele>
        <time>2019-04-08T09:40:07Z</time>
      </trkpt>
      <trkpt lat="42.25428" lon="1.79927">
        <ele>1336.595</ele>
        <time>2019-04-08T09:40:08Z</time>
      </trkpt>
      <trkpt lat="42.25414" lon="1.79933">
        <ele>1337.041</ele>
        <time>2019-04-08T09:40:14Z</time>
      </trkpt>
      <trkpt lat="42.2541" lon="1.79938">
        <ele>1337.381</ele>
        <time>2019-04-08T09:40:16Z</time>
      </trkpt>
      <trkpt lat="42.25405" lon="1.79946">
        <ele>1339.309</ele>
        <time>2019-04-08T09:40:19Z</time>
      </trkpt>
      <trkpt lat="42.25402" lon="1.79955">
        <ele>1341.808</ele>
        <time>2019-04-08T09:40:22Z</time>
      </trkpt>
      <trkpt lat="42.2547" lon="1.79948">
        <ele>1374.297</ele>
        <time>2019-04-08T12:16:16Z</time>
      </trkpt>
      <trkpt lat="42.25468" lon="1.79946">
        <ele>1373.359</ele>
        <time>2019-04-08T12:16:16Z</time>
      </trkpt>
      <trkpt lat="42.25467" lon="1.79945">
        <ele>1373.224</ele>
        <time>2019-04-08T12:16:17Z</time>
      </trkpt>
      <trkpt lat="42.25465" lon="1.79943">
        <ele>1373.295</ele>
        <time>2019-04-08T12:16:18Z</time>
      </trkpt>
      <trkpt lat="42.25463" lon="1.79942">
        <ele>1373.255</ele>
        <time>2019-04-08T12:16:19Z</time>
      </trkpt>
      <trkpt lat="42.25461" lon="1.79941">
        <ele>1373.119</ele>
        <time>2019-04-08T12:16:20Z</time>
      </trkpt>
      <trkpt lat="42.25458" lon="1.7994">
        <ele>1373.398</ele>
        <time>2019-04-08T12:16:21Z</time>
      </trkpt>
      <trkpt lat="42.25455" lon="1.79939">
        <ele>1373.28</ele>
        <time>2019-04-08T12:16:22Z</time>
      </trkpt>
      <trkpt lat="42.25454" lon="1.79938">
        <ele>1373.241</ele>
        <time>2019-04-08T12:16:23Z</time>
      </trkpt>
      <trkpt lat="42.25453" lon="1.79935">
        <ele>1373.181</ele>
        <time>2019-04-08T12:16:23Z</time>
      </trkpt>
      <trkpt lat="42.25451" lon="1.79933">
        <ele>1373.009</ele>
        <time>2019-04-08T12:16:24Z</time>
      </trkpt>
      <trkpt lat="42.25448" lon="1.79932">
        <ele>1371.208</ele>
        <time>2019-04-08T12:16:26Z</time>
      </trkpt>
      <trkpt lat="42.25445" lon="1.7993">
        <ele>1371.347</ele>
        <time>2019-04-08T12:16:27Z</time>
      </trkpt>
      <trkpt lat="42.25443" lon="1.79929">
        <ele>1371.249</ele>
        <time>2019-04-08T12:16:28Z</time>
      </trkpt>
      <trkpt lat="42.25439" lon="1.79928">
        <ele>1372.114</ele>
        <time>2019-04-08T12:16:29Z</time>
      </trkpt>
      <trkpt lat="42.25437" lon="1.79926">
        <ele>1372.195</ele>
        <time>2019-04-08T12:16:31Z</time>
      </trkpt>
      <trkpt lat="42.25435" lon="1.79926">
        <ele>1372.125</ele>
        <time>2019-04-08T12:16:31Z</time>
      </trkpt>
      <trkpt lat="42.25432" lon="1.79927">
        <ele>1372.219</ele>
        <time>2019-04-08T12:16:33Z</time>
      </trkpt>
      <trkpt lat="42.2543" lon="1.79927">
        <ele>1372.338</ele>
        <time>2019-04-08T12:16:33Z</time>
      </trkpt>
      <trkpt lat="42.25427" lon="1.79928">
        <ele>1372.33</ele>
        <time>2019-04-08T12:16:34Z</time>
      </trkpt>
      <trkpt lat="42.25426" lon="1.79929">
        <ele>1372.339</ele>
        <time>2019-04-08T12:16:35Z</time>
      </trkpt>
      <trkpt lat="42.25423" lon="1.79932">
        <ele>1372.101</ele>
        <time>2019-04-08T12:16:36Z</time>
      </trkpt>
      <trkpt lat="42.25421" lon="1.79934">
        <ele>1372.421</ele>
        <time>2019-04-08T12:16:37Z</time>
      </trkpt>
      <trkpt lat="42.25419" lon="1.79935">
        <ele>1372.108</ele>
        <time>2019-04-08T12:16:38Z</time>
      </trkpt>
      <trkpt lat="42.25418" lon="1.79938">
        <ele>1373.186</ele>
        <time>2019-04-08T12:16:39Z</time>
      </trkpt>
      <trkpt lat="42.25416" lon="1.7994">
        <ele>1374.198</ele>
        <time>2019-04-08T12:16:40Z</time>
      </trkpt>
      <trkpt lat="42.25416" lon="1.79942">
        <ele>1374.183</ele>
        <time>2019-04-08T12:16:41Z</time>
      </trkpt>
      <trkpt lat="42.25415" lon="1.79945">
        <ele>1375.274</ele>
        <time>2019-04-08T12:16:42Z</time>
      </trkpt>
      <trkpt lat="42.25414" lon="1.79948">
        <ele>1375.354</ele>
        <time>2019-04-08T12:16:43Z</time>
      </trkpt>
      <trkpt lat="42.25414" lon="1.7995">
        <ele>1376.188</ele>
        <time>2019-04-08T12:16:43Z</time>
      </trkpt>
      <trkpt lat="42.25413" lon="1.79953">
        <ele>1376.157</ele>
        <time>2019-04-08T12:16:44Z</time>
      </trkpt>
      <trkpt lat="42.25413" lon="1.79956">
        <ele>1377.149</ele>
        <time>2019-04-08T12:16:45Z</time>
      </trkpt>
      <trkpt lat="42.25412" lon="1.79959">
        <ele>1377.246</ele>
        <time>2019-04-08T12:16:46Z</time>
      </trkpt>
      <trkpt lat="42.25412" lon="1.79962">
        <ele>1379.188</ele>
        <time>2019-04-08T12:16:47Z</time>
      </trkpt>
      <trkpt lat="42.25413" lon="1.79965">
        <ele>1379.216</ele>
        <time>2019-04-08T12:16:48Z</time>
      </trkpt>
      <trkpt lat="42.25412" lon="1.79968">
        <ele>1379.308</ele>
        <time>2019-04-08T12:16:49Z</time>
      </trkpt>
      <trkpt lat="42.25412" lon="1.7997">
        <ele>1380.247</ele>
        <time>2019-04-08T12:16:49Z</time>
      </trkpt>
      <trkpt lat="42.25412" lon="1.79973">
        <ele>1379.329</ele>
        <time>2019-04-08T12:16:50Z</time>
      </trkpt>
      <trkpt lat="42.25411" lon="1.79976">
        <ele>1380.134</ele>
        <time>2019-04-08T12:16:51Z</time>
      </trkpt>
      <trkpt lat="42.25411" lon="1.79978">
        <ele>1380.065</ele>
        <time>2019-04-08T12:16:52Z</time>
      </trkpt>
      <trkpt lat="42.2541" lon="1.79981">
        <ele>1381.375</ele>
        <time>2019-04-08T12:16:53Z</time>
      </trkpt>
      <trkpt lat="42.25407" lon="1.79984">
        <ele>1382.059</ele>
        <time>2019-04-08T12:16:54Z</time>
      </trkpt>
      <trkpt lat="42.25404" lon="1.79986">
        <ele>1383.228</ele>
        <time>2019-04-08T12:16:55Z</time>
      </trkpt>
      <trkpt lat="42.25403" lon="1.79989">
        <ele>1383.39</ele>
        <time>2019-04-08T12:16:56Z</time>
      </trkpt>
      <trkpt lat="42.25401" lon="1.79991">
        <ele>1384.264</ele>
        <time>2019-04-08T12:16:57Z</time>
      </trkpt>
      <trkpt lat="42.254" lon="1.79993">
        <ele>1384.306</ele>
        <time>2019-04-08T12:16:58Z</time>
      </trkpt>
      <trkpt lat="42.25398" lon="1.79995">
        <ele>1384.916</ele>
        <time>2019-04-08T12:16:59Z</time>
      </trkpt>
      <trkpt lat="42.25397" lon="1.79997">
        <ele>1385.008</ele>
        <time>2019-04-08T12:17:00Z</time>
      </trkpt>
      <trkpt lat="42.25395" lon="1.79999">
        <ele>1386.359</ele>
        <time>2019-04-08T12:17:01Z</time>
      </trkpt>
      <trkpt lat="42.25394" lon="1.80001">
        <ele>1386.241</ele>
        <time>2019-04-08T12:17:01Z</time>
      </trkpt>
      <trkpt lat="42.25393" lon="1.80004">
        <ele>1387.196</ele>
        <time>2019-04-08T12:17:02Z</time>
      </trkpt>
      <trkpt lat="42.25391" lon="1.80007">
        <ele>1388.327</ele>
        <time>2019-04-08T12:17:03Z</time>
      </trkpt>
      <trkpt lat="42.25391" lon="1.80009">
        <ele>1388.197</ele>
        <time>2019-04-08T12:17:04Z</time>
      </trkpt>
      <trkpt lat="42.25389" lon="1.80012">
        <ele>1389.281</ele>
        <time>2019-04-08T12:17:05Z</time>
      </trkpt>
      <trkpt lat="42.25388" lon="1.80015">
        <ele>1388.26</ele>
        <time>2019-04-08T12:17:06Z</time>
      </trkpt>
      <trkpt lat="42.25387" lon="1.80018">
        <ele>1389.052</ele>
        <time>2019-04-08T12:17:07Z</time>
      </trkpt>
      <trkpt lat="42.25387" lon="1.8002">
        <ele>1390.123</ele>
        <time>2019-04-08T12:17:08Z</time>
      </trkpt>
      <trkpt lat="42.25386" lon="1.80022">
        <ele>1390.183</ele>
        <time>2019-04-08T12:17:09Z</time>
      </trkpt>
      <trkpt lat="42.25385" lon="1.80025">
        <ele>1391.311</ele>
        <time>2019-04-08T12:17:09Z</time>
      </trkpt>
      <trkpt lat="42.25384" lon="1.80027">
        <ele>1392.208</ele>
        <time>2019-04-08T12:17:10Z</time>
      </trkpt>
      <trkpt lat="42.25383" lon="1.8003">
        <ele>1393.255</ele>
        <time>2019-04-08T12:17:11Z</time>
      </trkpt>
      <trkpt lat="42.25382" lon="1.80033">
        <ele>1393.287</ele>
        <time>2019-04-08T12:17:12Z</time>
      </trkpt>
      <trkpt lat="42.2538" lon="1.80036">
        <ele>1393.062</ele>
        <time>2019-04-08T12:17:13Z</time>
      </trkpt>
      <trkpt lat="42.25379" lon="1.80038">
        <ele>1394.323</ele>
        <time>2019-04-08T12:17:14Z</time>
      </trkpt>
      <trkpt lat="42.25379" lon="1.80041">
        <ele>1394.313</ele>
        <time>2019-04-08T12:17:15Z</time>
      </trkpt>
      <trkpt lat="42.25377" lon="1.80043">
        <ele>1395.127</ele>
        <time>2019-04-08T12:17:16Z</time>
      </trkpt>
      <trkpt lat="42.25376" lon="1.80046">
        <ele>1394.396</ele>
        <time>2019-04-08T12:17:17Z</time>
      </trkpt>
      <trkpt lat="42.25376" lon="1.8005">
        <ele>1394.348</ele>
        <time>2019-04-08T12:17:18Z</time>
      </trkpt>
      <trkpt lat="42.25375" lon="1.80053">
        <ele>1394.071</ele>
        <time>2019-04-08T12:17:19Z</time>
      </trkpt>
      <trkpt lat="42.25373" lon="1.80056">
        <ele>1394.241</ele>
        <time>2019-04-08T12:17:20Z</time>
      </trkpt>
      <trkpt lat="42.25372" lon="1.80059">
        <ele>1394.315</ele>
        <time>2019-04-08T12:17:21Z</time>
      </trkpt>
      <trkpt lat="42.25369" lon="1.80062">
        <ele>1394.108</ele>
        <time>2019-04-08T12:17:22Z</time>
      </trkpt>
      <trkpt lat="42.25367" lon="1.80063">
        <ele>1394.31</ele>
        <time>2019-04-08T12:17:23Z</time>
      </trkpt>
      <trkpt lat="42.25365" lon="1.80066">
        <ele>1395.212</ele>
        <time>2019-04-08T12:17:24Z</time>
      </trkpt>
      <trkpt lat="42.25364" lon="1.80068">
        <ele>1396.097</ele>
        <time>2019-04-08T12:17:25Z</time>
      </trkpt>
      <trkpt lat="42.25363" lon="1.80071">
        <ele>1396.158</ele>
        <time>2019-04-08T12:17:26Z</time>
      </trkpt>
      <trkpt lat="42.25363" lon="1.80073">
        <ele>1397.218</ele>
        <time>2019-04-08T12:17:27Z</time>
      </trkpt>
      <trkpt lat="42.25363" lon="1.80076">
        <ele>1397.242</ele>
        <time>2019-04-08T12:17:28Z</time>
      </trkpt>
      <trkpt lat="42.25362" lon="1.80078">
        <ele>1399.151</ele>
        <time>2019-04-08T12:17:28Z</time>
      </trkpt>
      <trkpt lat="42.25362" lon="1.80081">
        <ele>1399.393</ele>
        <time>2019-04-08T12:17:29Z</time>
      </trkpt>
      <trkpt lat="42.25361" lon="1.80084">
        <ele>1400.172</ele>
        <time>2019-04-08T12:17:30Z</time>
      </trkpt>
      <trkpt lat="42.25361" lon="1.80087">
        <ele>1401.213</ele>
        <time>2019-04-08T12:17:31Z</time>
      </trkpt>
      <trkpt lat="42.25361" lon="1.8009">
        <ele>1401.314</ele>
        <time>2019-04-08T12:17:32Z</time>
      </trkpt>
      <trkpt lat="42.25361" lon="1.80092">
        <ele>1402.208</ele>
        <time>2019-04-08T12:17:33Z</time>
      </trkpt>
      <trkpt lat="42.25361" lon="1.80095">
        <ele>1403.32</ele>
        <time>2019-04-08T12:17:33Z</time>
      </trkpt>
      <trkpt lat="42.25361" lon="1.80097">
        <ele>1404.222</ele>
        <time>2019-04-08T12:17:34Z</time>
      </trkpt>
      <trkpt lat="42.25362" lon="1.801">
        <ele>1404.147</ele>
        <time>2019-04-08T12:17:35Z</time>
      </trkpt>
      <trkpt lat="42.25362" lon="1.80103">
        <ele>1405.298</ele>
        <time>2019-04-08T12:17:36Z</time>
      </trkpt>
      <trkpt lat="42.25363" lon="1.80106">
        <ele>1406.188</ele>
        <time>2019-04-08T12:17:37Z</time>
      </trkpt>
      <trkpt lat="42.25363" lon="1.8011">
        <ele>1407.372</ele>
        <time>2019-04-08T12:17:38Z</time>
      </trkpt>
      <trkpt lat="42.25364" lon="1.80113">
        <ele>1407.351</ele>
        <time>2019-04-08T12:17:39Z</time>
      </trkpt>
      <trkpt lat="42.25366" lon="1.80116">
        <ele>1407.263</ele>
        <time>2019-04-08T12:17:40Z</time>
      </trkpt>
      <trkpt lat="42.25366" lon="1.80118">
        <ele>1407.194</ele>
        <time>2019-04-08T12:17:41Z</time>
      </trkpt>
      <trkpt lat="42.25366" lon="1.80122">
        <ele>1407.257</ele>
        <time>2019-04-08T12:17:42Z</time>
      </trkpt>
      <trkpt lat="42.25366" lon="1.80125">
        <ele>1407.322</ele>
        <time>2019-04-08T12:17:43Z</time>
      </trkpt>
      <trkpt lat="42.25366" lon="1.80128">
        <ele>1407.108</ele>
        <time>2019-04-08T12:17:43Z</time>
      </trkpt>
      <trkpt lat="42.25366" lon="1.80131">
        <ele>1407.062</ele>
        <time>2019-04-08T12:17:44Z</time>
      </trkpt>
      <trkpt lat="42.25366" lon="1.80133">
        <ele>1407.274</ele>
        <time>2019-04-08T12:17:45Z</time>
      </trkpt>
      <trkpt lat="42.25366" lon="1.80137">
        <ele>1407.189</ele>
        <time>2019-04-08T12:17:46Z</time>
      </trkpt>
      <trkpt lat="42.25366" lon="1.80139">
        <ele>1406.06</ele>
        <time>2019-04-08T12:17:47Z</time>
      </trkpt>
      <trkpt lat="42.25365" lon="1.80142">
        <ele>1406.16</ele>
        <time>2019-04-08T12:17:48Z</time>
      </trkpt>
      <trkpt lat="42.25365" lon="1.80145">
        <ele>1408.114</ele>
        <time>2019-04-08T12:17:49Z</time>
      </trkpt>
      <trkpt lat="42.25364" lon="1.80148">
        <ele>1408.153</ele>
        <time>2019-04-08T12:17:49Z</time>
      </trkpt>
      <trkpt lat="42.25365" lon="1.80151">
        <ele>1409.235</ele>
        <time>2019-04-08T12:17:50Z</time>
      </trkpt>
      <trkpt lat="42.25364" lon="1.80154">
        <ele>1410.118</ele>
        <time>2019-04-08T12:17:51Z</time>
      </trkpt>
      <trkpt lat="42.25363" lon="1.80157">
        <ele>1410.398</ele>
        <time>2019-04-08T12:17:52Z</time>
      </trkpt>
      <trkpt lat="42.25363" lon="1.8016">
        <ele>1411.117</ele>
        <time>2019-04-08T12:17:53Z</time>
      </trkpt>
      <trkpt lat="42.25364" lon="1.80163">
        <ele>1411.108</ele>
        <time>2019-04-08T12:17:54Z</time>
      </trkpt>
      <trkpt lat="42.25364" lon="1.80166">
        <ele>1411.124</ele>
        <time>2019-04-08T12:17:55Z</time>
      </trkpt>
      <trkpt lat="42.25364" lon="1.80169">
        <ele>1409.346</ele>
        <time>2019-04-08T12:17:56Z</time>
      </trkpt>
      <trkpt lat="42.25364" lon="1.80172">
        <ele>1409.231</ele>
        <time>2019-04-08T12:17:57Z</time>
      </trkpt>
      <trkpt lat="42.25364" lon="1.80175">
        <ele>1409.112</ele>
        <time>2019-04-08T12:17:58Z</time>
      </trkpt>
      <trkpt lat="42.25365" lon="1.80178">
        <ele>1409.382</ele>
        <time>2019-04-08T12:17:59Z</time>
      </trkpt>
      <trkpt lat="42.25365" lon="1.80181">
        <ele>1410.296</ele>
        <time>2019-04-08T12:17:59Z</time>
      </trkpt>
      <trkpt lat="42.25365" lon="1.80184">
        <ele>1410.395</ele>
        <time>2019-04-08T12:18:00Z</time>
      </trkpt>
      <trkpt lat="42.25365" lon="1.80187">
        <ele>1411.157</ele>
        <time>2019-04-08T12:18:01Z</time>
      </trkpt>
      <trkpt lat="42.25364" lon="1.8019">
        <ele>1410.296</ele>
        <time>2019-04-08T12:18:02Z</time>
      </trkpt>
      <trkpt lat="42.25365" lon="1.80193">
        <ele>1410.031</ele>
        <time>2019-04-08T12:18:03Z</time>
      </trkpt>
      <trkpt lat="42.25364" lon="1.80197">
        <ele>1409.324</ele>
        <time>2019-04-08T12:18:04Z</time>
      </trkpt>
      <trkpt lat="42.25364" lon="1.802">
        <ele>1409.308</ele>
        <time>2019-04-08T12:18:05Z</time>
      </trkpt>
      <trkpt lat="42.25363" lon="1.80203">
        <ele>1409.292</ele>
        <time>2019-04-08T12:18:06Z</time>
      </trkpt>
      <trkpt lat="42.25363" lon="1.80206">
        <ele>1409.244</ele>
        <time>2019-04-08T12:18:07Z</time>
      </trkpt>
      <trkpt lat="42.25364" lon="1.80209">
        <ele>1409.069</ele>
        <time>2019-04-08T12:18:08Z</time>
      </trkpt>
      <trkpt lat="42.25365" lon="1.80211">
        <ele>1409.19</ele>
        <time>2019-04-08T12:18:09Z</time>
      </trkpt>
      <trkpt lat="42.25365" lon="1.80214">
        <ele>1410.22</ele>
        <time>2019-04-08T12:18:09Z</time>
      </trkpt>
      <trkpt lat="42.25365" lon="1.80217">
        <ele>1410.144</ele>
        <time>2019-04-08T12:18:10Z</time>
      </trkpt>
      <trkpt lat="42.25365" lon="1.8022">
        <ele>1410.083</ele>
        <time>2019-04-08T12:18:11Z</time>
      </trkpt>
      <trkpt lat="42.25365" lon="1.80223">
        <ele>1409.335</ele>
        <time>2019-04-08T12:18:12Z</time>
      </trkpt>
      <trkpt lat="42.25365" lon="1.80226">
        <ele>1409.827</ele>
        <time>2019-04-08T12:18:13Z</time>
      </trkpt>
      <trkpt lat="42.25366" lon="1.80229">
        <ele>1410.268</ele>
        <time>2019-04-08T12:18:14Z</time>
      </trkpt>
      <trkpt lat="42.25364" lon="1.80231">
        <ele>1410.214</ele>
        <time>2019-04-08T12:18:15Z</time>
      </trkpt>
      <trkpt lat="42.25363" lon="1.80235">
        <ele>1410.408</ele>
        <time>2019-04-08T12:18:16Z</time>
      </trkpt>
      <trkpt lat="42.25361" lon="1.80237">
        <ele>1410.275</ele>
        <time>2019-04-08T12:18:17Z</time>
      </trkpt>
      <trkpt lat="42.25359" lon="1.80239">
        <ele>1410.277</ele>
        <time>2019-04-08T12:18:18Z</time>
      </trkpt>
      <trkpt lat="42.25358" lon="1.80241">
        <ele>1410.252</ele>
        <time>2019-04-08T12:18:19Z</time>
      </trkpt>
      <trkpt lat="42.25357" lon="1.80244">
        <ele>1410.173</ele>
        <time>2019-04-08T12:18:20Z</time>
      </trkpt>
      <trkpt lat="42.25357" lon="1.80246">
        <ele>1410.073</ele>
        <time>2019-04-08T12:18:20Z</time>
      </trkpt>
      <trkpt lat="42.25357" lon="1.8025">
        <ele>1410.087</ele>
        <time>2019-04-08T12:18:21Z</time>
      </trkpt>
      <trkpt lat="42.25357" lon="1.80252">
        <ele>1412.386</ele>
        <time>2019-04-08T12:18:22Z</time>
      </trkpt>
      <trkpt lat="42.25356" lon="1.80256">
        <ele>1412.448</ele>
        <time>2019-04-08T12:18:23Z</time>
      </trkpt>
      <trkpt lat="42.25355" lon="1.80259">
        <ele>1413.031</ele>
        <time>2019-04-08T12:18:24Z</time>
      </trkpt>
      <trkpt lat="42.25354" lon="1.80261">
        <ele>1413.261</ele>
        <time>2019-04-08T12:18:25Z</time>
      </trkpt>
      <trkpt lat="42.25353" lon="1.80264">
        <ele>1414.307</ele>
        <time>2019-04-08T12:18:26Z</time>
      </trkpt>
      <trkpt lat="42.25353" lon="1.80267">
        <ele>1414.108</ele>
        <time>2019-04-08T12:18:27Z</time>
      </trkpt>
      <trkpt lat="42.25352" lon="1.8027">
        <ele>1415.066</ele>
        <time>2019-04-08T12:18:28Z</time>
      </trkpt>
      <trkpt lat="42.25352" lon="1.80273">
        <ele>1415.048</ele>
        <time>2019-04-08T12:18:29Z</time>
      </trkpt>
      <trkpt lat="42.25352" lon="1.80276">
        <ele>1415.193</ele>
        <time>2019-04-08T12:18:30Z</time>
      </trkpt>
      <trkpt lat="42.25351" lon="1.80278">
        <ele>1416.334</ele>
        <time>2019-04-08T12:18:30Z</time>
      </trkpt>
      <trkpt lat="42.25351" lon="1.80281">
        <ele>1417.124</ele>
        <time>2019-04-08T12:18:31Z</time>
      </trkpt>
      <trkpt lat="42.25349" lon="1.80283">
        <ele>1417.118</ele>
        <time>2019-04-08T12:18:32Z</time>
      </trkpt>
      <trkpt lat="42.25349" lon="1.80286">
        <ele>1417.247</ele>
        <time>2019-04-08T12:18:33Z</time>
      </trkpt>
      <trkpt lat="42.25348" lon="1.80289">
        <ele>1418.159</ele>
        <time>2019-04-08T12:18:34Z</time>
      </trkpt>
      <trkpt lat="42.25348" lon="1.80292">
        <ele>1418.368</ele>
        <time>2019-04-08T12:18:35Z</time>
      </trkpt>
      <trkpt lat="42.25348" lon="1.80294">
        <ele>1418.142</ele>
        <time>2019-04-08T12:18:35Z</time>
      </trkpt>
      <trkpt lat="42.25347" lon="1.80297">
        <ele>1418.226</ele>
        <time>2019-04-08T12:18:36Z</time>
      </trkpt>
      <trkpt lat="42.25348" lon="1.803">
        <ele>1419.108</ele>
        <time>2019-04-08T12:18:37Z</time>
      </trkpt>
      <trkpt lat="42.25347" lon="1.80302">
        <ele>1420.149</ele>
        <time>2019-04-08T12:18:38Z</time>
      </trkpt>
      <trkpt lat="42.25347" lon="1.80305">
        <ele>1420.151</ele>
        <time>2019-04-08T12:18:38Z</time>
      </trkpt>
      <trkpt lat="42.25347" lon="1.80308">
        <ele>1420.276</ele>
        <time>2019-04-08T12:18:39Z</time>
      </trkpt>
      <trkpt lat="42.25347" lon="1.8031">
        <ele>1420.187</ele>
        <time>2019-04-08T12:18:40Z</time>
      </trkpt>
      <trkpt lat="42.25348" lon="1.80313">
        <ele>1421.317</ele>
        <time>2019-04-08T12:18:41Z</time>
      </trkpt>
      <trkpt lat="42.25348" lon="1.80316">
        <ele>1421.211</ele>
        <time>2019-04-08T12:18:42Z</time>
      </trkpt>
      <trkpt lat="42.25349" lon="1.8032">
        <ele>1421.34</ele>
        <time>2019-04-08T12:18:43Z</time>
      </trkpt>
      <trkpt lat="42.25349" lon="1.80322">
        <ele>1421.362</ele>
        <time>2019-04-08T12:18:44Z</time>
      </trkpt>
      <trkpt lat="42.25349" lon="1.80325">
        <ele>1419.076</ele>
        <time>2019-04-08T12:18:45Z</time>
      </trkpt>
      <trkpt lat="42.25349" lon="1.80328">
        <ele>1419.29</ele>
        <time>2019-04-08T12:18:45Z</time>
      </trkpt>
      <trkpt lat="42.25349" lon="1.80331">
        <ele>1419.319</ele>
        <time>2019-04-08T12:18:46Z</time>
      </trkpt>
      <trkpt lat="42.25349" lon="1.80334">
        <ele>1419.308</ele>
        <time>2019-04-08T12:18:47Z</time>
      </trkpt>
      <trkpt lat="42.25347" lon="1.80338">
        <ele>1419.24</ele>
        <time>2019-04-08T12:18:49Z</time>
      </trkpt>
      <trkpt lat="42.25347" lon="1.80341">
        <ele>1419.192</ele>
        <time>2019-04-08T12:18:50Z</time>
      </trkpt>
      <trkpt lat="42.25346" lon="1.80345">
        <ele>1419.157</ele>
        <time>2019-04-08T12:18:51Z</time>
      </trkpt>
      <trkpt lat="42.25345" lon="1.80348">
        <ele>1419.238</ele>
        <time>2019-04-08T12:18:52Z</time>
      </trkpt>
      <trkpt lat="42.25346" lon="1.80351">
        <ele>1419.238</ele>
        <time>2019-04-08T12:18:53Z</time>
      </trkpt>
      <trkpt lat="42.25346" lon="1.80354">
        <ele>1419.272</ele>
        <time>2019-04-08T12:18:54Z</time>
      </trkpt>
      <trkpt lat="42.25346" lon="1.80358">
        <ele>1419.151</ele>
        <time>2019-04-08T12:18:55Z</time>
      </trkpt>
      <trkpt lat="42.25346" lon="1.80362">
        <ele>1419.223</ele>
        <time>2019-04-08T12:18:56Z</time>
      </trkpt>
      <trkpt lat="42.25347" lon="1.80365">
        <ele>1419.121</ele>
        <time>2019-04-08T12:18:57Z</time>
      </trkpt>
      <trkpt lat="42.25347" lon="1.80368">
        <ele>1419.241</ele>
        <time>2019-04-08T12:18:58Z</time>
      </trkpt>
      <trkpt lat="42.25348" lon="1.80371">
        <ele>1419.305</ele>
        <time>2019-04-08T12:18:59Z</time>
      </trkpt>
      <trkpt lat="42.25349" lon="1.80375">
        <ele>1419.308</ele>
        <time>2019-04-08T12:19:00Z</time>
      </trkpt>
      <trkpt lat="42.2535" lon="1.80377">
        <ele>1419.355</ele>
        <time>2019-04-08T12:19:01Z</time>
      </trkpt>
      <trkpt lat="42.2535" lon="1.80381">
        <ele>1419.327</ele>
        <time>2019-04-08T12:19:02Z</time>
      </trkpt>
      <trkpt lat="42.25351" lon="1.80385">
        <ele>1420.132</ele>
        <time>2019-04-08T12:19:03Z</time>
      </trkpt>
      <trkpt lat="42.25352" lon="1.80388">
        <ele>1420.013</ele>
        <time>2019-04-08T12:19:04Z</time>
      </trkpt>
      <trkpt lat="42.25353" lon="1.80391">
        <ele>1422.393</ele>
        <time>2019-04-08T12:19:05Z</time>
      </trkpt>
      <trkpt lat="42.25354" lon="1.80394">
        <ele>1422.237</ele>
        <time>2019-04-08T12:19:06Z</time>
      </trkpt>
      <trkpt lat="42.25354" lon="1.80398">
        <ele>1423.276</ele>
        <time>2019-04-08T12:19:07Z</time>
      </trkpt>
      <trkpt lat="42.25354" lon="1.80401">
        <ele>1423.258</ele>
        <time>2019-04-08T12:19:08Z</time>
      </trkpt>
      <trkpt lat="42.25354" lon="1.80404">
        <ele>1423.385</ele>
        <time>2019-04-08T12:19:09Z</time>
      </trkpt>
      <trkpt lat="42.25354" lon="1.80407">
        <ele>1423.289</ele>
        <time>2019-04-08T12:19:10Z</time>
      </trkpt>
      <trkpt lat="42.25355" lon="1.80411">
        <ele>1423.317</ele>
        <time>2019-04-08T12:19:11Z</time>
      </trkpt>
      <trkpt lat="42.25355" lon="1.80414">
        <ele>1423.208</ele>
        <time>2019-04-08T12:19:12Z</time>
      </trkpt>
      <trkpt lat="42.25355" lon="1.80417">
        <ele>1423.381</ele>
        <time>2019-04-08T12:19:13Z</time>
      </trkpt>
      <trkpt lat="42.25355" lon="1.80421">
        <ele>1423.063</ele>
        <time>2019-04-08T12:19:14Z</time>
      </trkpt>
      <trkpt lat="42.25356" lon="1.80424">
        <ele>1423.028</ele>
        <time>2019-04-08T12:19:15Z</time>
      </trkpt>
      <trkpt lat="42.25357" lon="1.80427">
        <ele>1424.059</ele>
        <time>2019-04-08T12:19:16Z</time>
      </trkpt>
      <trkpt lat="42.25357" lon="1.80429">
        <ele>1424.249</ele>
        <time>2019-04-08T12:19:17Z</time>
      </trkpt>
      <trkpt lat="42.25357" lon="1.80432">
        <ele>1425.243</ele>
        <time>2019-04-08T12:19:18Z</time>
      </trkpt>
      <trkpt lat="42.25357" lon="1.80435">
        <ele>1426.352</ele>
        <time>2019-04-08T12:19:18Z</time>
      </trkpt>
      <trkpt lat="42.25358" lon="1.80438">
        <ele>1426.144</ele>
        <time>2019-04-08T12:19:19Z</time>
      </trkpt>
      <trkpt lat="42.25357" lon="1.80441">
        <ele>1427.011</ele>
        <time>2019-04-08T12:19:20Z</time>
      </trkpt>
      <trkpt lat="42.25357" lon="1.80444">
        <ele>1427.321</ele>
        <time>2019-04-08T12:19:21Z</time>
      </trkpt>
      <trkpt lat="42.25358" lon="1.80446">
        <ele>1428.403</ele>
        <time>2019-04-08T12:19:22Z</time>
      </trkpt>
      <trkpt lat="42.25358" lon="1.8045">
        <ele>1428.908</ele>
        <time>2019-04-08T12:19:23Z</time>
      </trkpt>
      <trkpt lat="42.25359" lon="1.80453">
        <ele>1430.344</ele>
        <time>2019-04-08T12:19:24Z</time>
      </trkpt>
      <trkpt lat="42.25359" lon="1.80455">
        <ele>1430.276</ele>
        <time>2019-04-08T12:19:25Z</time>
      </trkpt>
      <trkpt lat="42.25358" lon="1.80458">
        <ele>1430.181</ele>
        <time>2019-04-08T12:19:25Z</time>
      </trkpt>
      <trkpt lat="42.25358" lon="1.80461">
        <ele>1433.092</ele>
        <time>2019-04-08T12:19:26Z</time>
      </trkpt>
      <trkpt lat="42.25359" lon="1.80464">
        <ele>1433.282</ele>
        <time>2019-04-08T12:19:27Z</time>
      </trkpt>
      <trkpt lat="42.25359" lon="1.80467">
        <ele>1434.176</ele>
        <time>2019-04-08T12:19:28Z</time>
      </trkpt>
      <trkpt lat="42.25358" lon="1.80469">
        <ele>1435.165</ele>
        <time>2019-04-08T12:19:29Z</time>
      </trkpt>
      <trkpt lat="42.25359" lon="1.80471">
        <ele>1435.247</ele>
        <time>2019-04-08T12:19:30Z</time>
      </trkpt>
      <trkpt lat="42.25359" lon="1.80475">
        <ele>1435.231</ele>
        <time>2019-04-08T12:19:30Z</time>
      </trkpt>
      <trkpt lat="42.25359" lon="1.80478">
        <ele>1436.361</ele>
        <time>2019-04-08T12:19:31Z</time>
      </trkpt>
      <trkpt lat="42.2536" lon="1.8048">
        <ele>1437.007</ele>
        <time>2019-04-08T12:19:32Z</time>
      </trkpt>
      <trkpt lat="42.2536" lon="1.80483">
        <ele>1439.208</ele>
        <time>2019-04-08T12:19:33Z</time>
      </trkpt>
      <trkpt lat="42.25361" lon="1.80495">
        <ele>1440.346</ele>
        <time>2019-04-08T12:19:37Z</time>
      </trkpt>
      <trkpt lat="42.25357" lon="1.80507">
        <ele>1443.368</ele>
        <time>2019-04-08T12:19:41Z</time>
      </trkpt>
      <trkpt lat="42.25359" lon="1.80514">
        <ele>1445.283</ele>
        <time>2019-04-08T12:19:43Z</time>
      </trkpt>
      <trkpt lat="42.25358" lon="1.80516">
        <ele>1445.154</ele>
        <time>2019-04-08T12:19:44Z</time>
      </trkpt>
      <trkpt lat="42.25356" lon="1.80518">
        <ele>1446.354</ele>
        <time>2019-04-08T12:19:44Z</time>
      </trkpt>
      <trkpt lat="42.25355" lon="1.8052">
        <ele>1446.298</ele>
        <time>2019-04-08T12:19:45Z</time>
      </trkpt>
      <trkpt lat="42.25355" lon="1.80523">
        <ele>1448.277</ele>
        <time>2019-04-08T12:19:46Z</time>
      </trkpt>
      <trkpt lat="42.25356" lon="1.80525">
        <ele>1449.019</ele>
        <time>2019-04-08T12:19:47Z</time>
      </trkpt>
      <trkpt lat="42.25357" lon="1.80528">
        <ele>1450.372</ele>
        <time>2019-04-08T12:19:48Z</time>
      </trkpt>
      <trkpt lat="42.25356" lon="1.8053">
        <ele>1451.313</ele>
        <time>2019-04-08T12:19:48Z</time>
      </trkpt>
      <trkpt lat="42.25357" lon="1.80533">
        <ele>1452.314</ele>
        <time>2019-04-08T12:19:49Z</time>
      </trkpt>
      <trkpt lat="42.25356" lon="1.80536">
        <ele>1453.208</ele>
        <time>2019-04-08T12:19:50Z</time>
      </trkpt>
      <trkpt lat="42.25355" lon="1.80539">
        <ele>1453.29</ele>
        <time>2019-04-08T12:19:51Z</time>
      </trkpt>
      <trkpt lat="42.25356" lon="1.80541">
        <ele>1455.052</ele>
        <time>2019-04-08T12:19:52Z</time>
      </trkpt>
      <trkpt lat="42.25357" lon="1.80544">
        <ele>1456.167</ele>
        <time>2019-04-08T12:19:53Z</time>
      </trkpt>
      <trkpt lat="42.25356" lon="1.80547">
        <ele>1456.098</ele>
        <time>2019-04-08T12:19:54Z</time>
      </trkpt>
      <trkpt lat="42.25356" lon="1.8055">
        <ele>1457.098</ele>
        <time>2019-04-08T12:19:55Z</time>
      </trkpt>
      <trkpt lat="42.25357" lon="1.80552">
        <ele>1458.122</ele>
        <time>2019-04-08T12:19:55Z</time>
      </trkpt>
      <trkpt lat="42.25354" lon="1.80564">
        <ele>1461.211</ele>
        <time>2019-04-08T12:19:59Z</time>
      </trkpt>
      <trkpt lat="42.25353" lon="1.80571">
        <ele>1461.283</ele>
        <time>2019-04-08T12:20:01Z</time>
      </trkpt>
      <trkpt lat="42.25353" lon="1.80573">
        <ele>1462.094</ele>
        <time>2019-04-08T12:20:02Z</time>
      </trkpt>
      <trkpt lat="42.25352" lon="1.80575">
        <ele>1462.057</ele>
        <time>2019-04-08T12:20:02Z</time>
      </trkpt>
      <trkpt lat="42.25352" lon="1.80579">
        <ele>1463.322</ele>
        <time>2019-04-08T12:20:03Z</time>
      </trkpt>
      <trkpt lat="42.25352" lon="1.80582">
        <ele>1464.408</ele>
        <time>2019-04-08T12:20:04Z</time>
      </trkpt>
      <trkpt lat="42.25352" lon="1.80584">
        <ele>1466.212</ele>
        <time>2019-04-08T12:20:05Z</time>
      </trkpt>
      <trkpt lat="42.25353" lon="1.80587">
        <ele>1466.214</ele>
        <time>2019-04-08T12:20:06Z</time>
      </trkpt>
      <trkpt lat="42.25352" lon="1.80589">
        <ele>1466.279</ele>
        <time>2019-04-08T12:20:07Z</time>
      </trkpt>
      <trkpt lat="42.25352" lon="1.80592">
        <ele>1467.26</ele>
        <time>2019-04-08T12:20:08Z</time>
      </trkpt>
      <trkpt lat="42.25352" lon="1.80595">
        <ele>1468.17</ele>
        <time>2019-04-08T12:20:08Z</time>
      </trkpt>
      <trkpt lat="42.25352" lon="1.80599">
        <ele>1468.194</ele>
        <time>2019-04-08T12:20:09Z</time>
      </trkpt>
      <trkpt lat="42.25353" lon="1.80601">
        <ele>1468.223</ele>
        <time>2019-04-08T12:20:10Z</time>
      </trkpt>
      <trkpt lat="42.25353" lon="1.80603">
        <ele>1468.445</ele>
        <time>2019-04-08T12:20:11Z</time>
      </trkpt>
      <trkpt lat="42.25354" lon="1.80606">
        <ele>1468.259</ele>
        <time>2019-04-08T12:20:12Z</time>
      </trkpt>
      <trkpt lat="42.25354" lon="1.80609">
        <ele>1470.203</ele>
        <time>2019-04-08T12:20:13Z</time>
      </trkpt>
      <trkpt lat="42.25354" lon="1.80612">
        <ele>1471.223</ele>
        <time>2019-04-08T12:20:14Z</time>
      </trkpt>
      <trkpt lat="42.25354" lon="1.80616">
        <ele>1471.108</ele>
        <time>2019-04-08T12:20:15Z</time>
      </trkpt>
      <trkpt lat="42.25354" lon="1.80618">
        <ele>1472.178</ele>
        <time>2019-04-08T12:20:15Z</time>
      </trkpt>
      <trkpt lat="42.25355" lon="1.80621">
        <ele>1472.04</ele>
        <time>2019-04-08T12:20:16Z</time>
      </trkpt>
      <trkpt lat="42.25356" lon="1.80623">
        <ele>1472.285</ele>
        <time>2019-04-08T12:20:17Z</time>
      </trkpt>
      <trkpt lat="42.25357" lon="1.80626">
        <ele>1474.026</ele>
        <time>2019-04-08T12:20:18Z</time>
      </trkpt>
      <trkpt lat="42.25357" lon="1.80628">
        <ele>1474.126</ele>
        <time>2019-04-08T12:20:19Z</time>
      </trkpt>
      <trkpt lat="42.25357" lon="1.80631">
        <ele>1474.29</ele>
        <time>2019-04-08T12:20:20Z</time>
      </trkpt>
      <trkpt lat="42.25358" lon="1.80634">
        <ele>1474.139</ele>
        <time>2019-04-08T12:20:20Z</time>
      </trkpt>
      <trkpt lat="42.25359" lon="1.80637">
        <ele>1475.331</ele>
        <time>2019-04-08T12:20:21Z</time>
      </trkpt>
      <trkpt lat="42.25362" lon="1.80649">
        <ele>1477.215</ele>
        <time>2019-04-08T12:20:25Z</time>
      </trkpt>
      <trkpt lat="42.2536" lon="1.80663">
        <ele>1477.365</ele>
        <time>2019-04-08T12:20:29Z</time>
      </trkpt>
      <trkpt lat="42.25357" lon="1.80676">
        <ele>1479.011</ele>
        <time>2019-04-08T12:20:33Z</time>
      </trkpt>
      <trkpt lat="42.25362" lon="1.80685">
        <ele>1479.208</ele>
        <time>2019-04-08T12:20:37Z</time>
      </trkpt>
      <trkpt lat="42.25363" lon="1.80688">
        <ele>1479.254</ele>
        <time>2019-04-08T12:20:37Z</time>
      </trkpt>
      <trkpt lat="42.25365" lon="1.80693">
        <ele>1479.196</ele>
        <time>2019-04-08T12:20:39Z</time>
      </trkpt>
      <trkpt lat="42.25366" lon="1.80696">
        <ele>1479.021</ele>
        <time>2019-04-08T12:20:40Z</time>
      </trkpt>
      <trkpt lat="42.25367" lon="1.80699">
        <ele>1479.112</ele>
        <time>2019-04-08T12:20:41Z</time>
      </trkpt>
      <trkpt lat="42.25367" lon="1.80702">
        <ele>1480.282</ele>
        <time>2019-04-08T12:20:42Z</time>
      </trkpt>
      <trkpt lat="42.25368" lon="1.80704">
        <ele>1480.296</ele>
        <time>2019-04-08T12:20:43Z</time>
      </trkpt>
      <trkpt lat="42.25368" lon="1.80708">
        <ele>1481.035</ele>
        <time>2019-04-08T12:20:44Z</time>
      </trkpt>
      <trkpt lat="42.25368" lon="1.8071">
        <ele>1481.147</ele>
        <time>2019-04-08T12:20:45Z</time>
      </trkpt>
      <trkpt lat="42.25369" lon="1.80713">
        <ele>1481.251</ele>
        <time>2019-04-08T12:20:46Z</time>
      </trkpt>
      <trkpt lat="42.2537" lon="1.80717">
        <ele>1481.101</ele>
        <time>2019-04-08T12:20:47Z</time>
      </trkpt>
      <trkpt lat="42.25371" lon="1.8072">
        <ele>1482.111</ele>
        <time>2019-04-08T12:20:48Z</time>
      </trkpt>
      <trkpt lat="42.25372" lon="1.80722">
        <ele>1482.208</ele>
        <time>2019-04-08T12:20:48Z</time>
      </trkpt>
      <trkpt lat="42.25373" lon="1.80725">
        <ele>1482.238</ele>
        <time>2019-04-08T12:20:49Z</time>
      </trkpt>
      <trkpt lat="42.25375" lon="1.80727">
        <ele>1482.32</ele>
        <time>2019-04-08T12:20:50Z</time>
      </trkpt>
      <trkpt lat="42.25376" lon="1.8073">
        <ele>1482.115</ele>
        <time>2019-04-08T12:20:51Z</time>
      </trkpt>
      <trkpt lat="42.25377" lon="1.80732">
        <ele>1482.356</ele>
        <time>2019-04-08T12:20:52Z</time>
      </trkpt>
      <trkpt lat="42.25377" lon="1.80736">
        <ele>1482.216</ele>
        <time>2019-04-08T12:20:53Z</time>
      </trkpt>
      <trkpt lat="42.25377" lon="1.8074">
        <ele>1483.22</ele>
        <time>2019-04-08T12:20:54Z</time>
      </trkpt>
      <trkpt lat="42.25378" lon="1.80743">
        <ele>1483.329</ele>
        <time>2019-04-08T12:20:55Z</time>
      </trkpt>
      <trkpt lat="42.25379" lon="1.80746">
        <ele>1484.461</ele>
        <time>2019-04-08T12:20:56Z</time>
      </trkpt>
      <trkpt lat="42.25379" lon="1.8075">
        <ele>1484.277</ele>
        <time>2019-04-08T12:20:58Z</time>
      </trkpt>
      <trkpt lat="42.25379" lon="1.80754">
        <ele>1484.261</ele>
        <time>2019-04-08T12:20:59Z</time>
      </trkpt>
      <trkpt lat="42.2538" lon="1.80757">
        <ele>1485.427</ele>
        <time>2019-04-08T12:21:00Z</time>
      </trkpt>
      <trkpt lat="42.25379" lon="1.80762">
        <ele>1485.108</ele>
        <time>2019-04-08T12:21:01Z</time>
      </trkpt>
      <trkpt lat="42.25379" lon="1.80765">
        <ele>1485.11</ele>
        <time>2019-04-08T12:21:02Z</time>
      </trkpt>
      <trkpt lat="42.25379" lon="1.8077">
        <ele>1485.242</ele>
        <time>2019-04-08T12:21:03Z</time>
      </trkpt>
      <trkpt lat="42.25379" lon="1.80772">
        <ele>1485.177</ele>
        <time>2019-04-08T12:21:04Z</time>
      </trkpt>
      <trkpt lat="42.25379" lon="1.80777">
        <ele>1485.138</ele>
        <time>2019-04-08T12:21:06Z</time>
      </trkpt>
      <trkpt lat="42.25379" lon="1.8078">
        <ele>1485.218</ele>
        <time>2019-04-08T12:21:07Z</time>
      </trkpt>
      <trkpt lat="42.25379" lon="1.80784">
        <ele>1485.282</ele>
        <time>2019-04-08T12:21:08Z</time>
      </trkpt>
      <trkpt lat="42.25379" lon="1.80788">
        <ele>1486.271</ele>
        <time>2019-04-08T12:21:09Z</time>
      </trkpt>
      <trkpt lat="42.25379" lon="1.80791">
        <ele>1486.383</ele>
        <time>2019-04-08T12:21:10Z</time>
      </trkpt>
      <trkpt lat="42.2538" lon="1.80794">
        <ele>1486.331</ele>
        <time>2019-04-08T12:21:11Z</time>
      </trkpt>
      <trkpt lat="42.2538" lon="1.80797">
        <ele>1486.261</ele>
        <time>2019-04-08T12:21:12Z</time>
      </trkpt>
      <trkpt lat="42.2538" lon="1.808">
        <ele>1486.207</ele>
        <time>2019-04-08T12:21:13Z</time>
      </trkpt>
      <trkpt lat="42.2538" lon="1.80803">
        <ele>1487.208</ele>
        <time>2019-04-08T12:21:13Z</time>
      </trkpt>
      <trkpt lat="42.2538" lon="1.80806">
        <ele>1487.026</ele>
        <time>2019-04-08T12:21:14Z</time>
      </trkpt>
      <trkpt lat="42.2538" lon="1.80809">
        <ele>1487.278</ele>
        <time>2019-04-08T12:21:15Z</time>
      </trkpt>
      <trkpt lat="42.2538" lon="1.80812">
        <ele>1487.143</ele>
        <time>2019-04-08T12:21:16Z</time>
      </trkpt>
      <trkpt lat="42.25381" lon="1.80816">
        <ele>1487.294</ele>
        <time>2019-04-08T12:21:17Z</time>
      </trkpt>
      <trkpt lat="42.25381" lon="1.80819">
        <ele>1488.334</ele>
        <time>2019-04-08T12:21:18Z</time>
      </trkpt>
      <trkpt lat="42.2538" lon="1.80821">
        <ele>1489.078</ele>
        <time>2019-04-08T12:21:19Z</time>
      </trkpt>
      <trkpt lat="42.2538" lon="1.80823">
        <ele>1489.247</ele>
        <time>2019-04-08T12:21:20Z</time>
      </trkpt>
      <trkpt lat="42.2538" lon="1.80827">
        <ele>1489.479</ele>
        <time>2019-04-08T12:21:20Z</time>
      </trkpt>
      <trkpt lat="42.2538" lon="1.80831">
        <ele>1490.369</ele>
        <time>2019-04-08T12:21:22Z</time>
      </trkpt>
      <trkpt lat="42.2538" lon="1.80835">
        <ele>1491.204</ele>
        <time>2019-04-08T12:21:23Z</time>
      </trkpt>
      <trkpt lat="42.25381" lon="1.80839">
        <ele>1492.324</ele>
        <time>2019-04-08T12:21:24Z</time>
      </trkpt>
      <trkpt lat="42.25381" lon="1.80843">
        <ele>1492.308</ele>
        <time>2019-04-08T12:21:25Z</time>
      </trkpt>
      <trkpt lat="42.25382" lon="1.80847">
        <ele>1492.129</ele>
        <time>2019-04-08T12:21:27Z</time>
      </trkpt>
      <trkpt lat="42.25382" lon="1.80851">
        <ele>1492.291</ele>
        <time>2019-04-08T12:21:28Z</time>
      </trkpt>
      <trkpt lat="42.25382" lon="1.80854">
        <ele>1492.136</ele>
        <time>2019-04-08T12:21:29Z</time>
      </trkpt>
      <trkpt lat="42.25382" lon="1.80856">
        <ele>1492.237</ele>
        <time>2019-04-08T12:21:29Z</time>
      </trkpt>
      <trkpt lat="42.25382" lon="1.8086">
        <ele>1493.277</ele>
        <time>2019-04-08T12:21:30Z</time>
      </trkpt>
      <trkpt lat="42.25382" lon="1.80864">
        <ele>1494.281</ele>
        <time>2019-04-08T12:21:31Z</time>
      </trkpt>
      <trkpt lat="42.25382" lon="1.80866">
        <ele>1494.26</ele>
        <time>2019-04-08T12:21:32Z</time>
      </trkpt>
      <trkpt lat="42.25382" lon="1.80869">
        <ele>1495.232</ele>
        <time>2019-04-08T12:21:33Z</time>
      </trkpt>
      <trkpt lat="42.25383" lon="1.80872">
        <ele>1496.285</ele>
        <time>2019-04-08T12:21:34Z</time>
      </trkpt>
      <trkpt lat="42.25385" lon="1.80874">
        <ele>1496.389</ele>
        <time>2019-04-08T12:21:35Z</time>
      </trkpt>
      <trkpt lat="42.25385" lon="1.80878">
        <ele>1497.217</ele>
        <time>2019-04-08T12:21:36Z</time>
      </trkpt>
      <trkpt lat="42.25387" lon="1.80881">
        <ele>1497.308</ele>
        <time>2019-04-08T12:21:37Z</time>
      </trkpt>
      <trkpt lat="42.25387" lon="1.80884">
        <ele>1498.241</ele>
        <time>2019-04-08T12:21:38Z</time>
      </trkpt>
      <trkpt lat="42.25387" lon="1.80886">
        <ele>1498.143</ele>
        <time>2019-04-08T12:21:39Z</time>
      </trkpt>
      <trkpt lat="42.25387" lon="1.80889">
        <ele>1499.038</ele>
        <time>2019-04-08T12:21:40Z</time>
      </trkpt>
      <trkpt lat="42.25387" lon="1.80892">
        <ele>1499.359</ele>
        <time>2019-04-08T12:21:40Z</time>
      </trkpt>
      <trkpt lat="42.25388" lon="1.80894">
        <ele>1500.239</ele>
        <time>2019-04-08T12:21:41Z</time>
      </trkpt>
      <trkpt lat="42.25389" lon="1.80898">
        <ele>1501.293</ele>
        <time>2019-04-08T12:21:42Z</time>
      </trkpt>
      <trkpt lat="42.2539" lon="1.80901">
        <ele>1501.392</ele>
        <time>2019-04-08T12:21:43Z</time>
      </trkpt>
      <trkpt lat="42.25391" lon="1.80903">
        <ele>1501.254</ele>
        <time>2019-04-08T12:21:44Z</time>
      </trkpt>
      <trkpt lat="42.25392" lon="1.80905">
        <ele>1502.256</ele>
        <time>2019-04-08T12:21:45Z</time>
      </trkpt>
      <trkpt lat="42.25393" lon="1.80908">
        <ele>1502.259</ele>
        <time>2019-04-08T12:21:46Z</time>
      </trkpt>
      <trkpt lat="42.25393" lon="1.8091">
        <ele>1501.114</ele>
        <time>2019-04-08T12:21:46Z</time>
      </trkpt>
      <trkpt lat="42.25393" lon="1.80914">
        <ele>1502.108</ele>
        <time>2019-04-08T12:21:47Z</time>
      </trkpt>
      <trkpt lat="42.25393" lon="1.80917">
        <ele>1502.288</ele>
        <time>2019-04-08T12:21:48Z</time>
      </trkpt>
      <trkpt lat="42.25392" lon="1.8092">
        <ele>1502.22</ele>
        <time>2019-04-08T12:21:49Z</time>
      </trkpt>
      <trkpt lat="42.25392" lon="1.80922">
        <ele>1503.165</ele>
        <time>2019-04-08T12:21:50Z</time>
      </trkpt>
      <trkpt lat="42.25391" lon="1.80925">
        <ele>1503.276</ele>
        <time>2019-04-08T12:21:51Z</time>
      </trkpt>
      <trkpt lat="42.25391" lon="1.80928">
        <ele>1504.176</ele>
        <time>2019-04-08T12:21:52Z</time>
      </trkpt>
      <trkpt lat="42.2539" lon="1.8093">
        <ele>1504.18</ele>
        <time>2019-04-08T12:21:53Z</time>
      </trkpt>
      <trkpt lat="42.2539" lon="1.80933">
        <ele>1505.289</ele>
        <time>2019-04-08T12:21:53Z</time>
      </trkpt>
      <trkpt lat="42.25389" lon="1.80936">
        <ele>1506.261</ele>
        <time>2019-04-08T12:21:54Z</time>
      </trkpt>
      <trkpt lat="42.25388" lon="1.80939">
        <ele>1506.147</ele>
        <time>2019-04-08T12:21:55Z</time>
      </trkpt>
      <trkpt lat="42.25387" lon="1.80942">
        <ele>1506.029</ele>
        <time>2019-04-08T12:21:56Z</time>
      </trkpt>
      <trkpt lat="42.25387" lon="1.80945">
        <ele>1507.221</ele>
        <time>2019-04-08T12:21:57Z</time>
      </trkpt>
      <trkpt lat="42.25387" lon="1.80948">
        <ele>1507.408</ele>
        <time>2019-04-08T12:21:58Z</time>
      </trkpt>
      <trkpt lat="42.25386" lon="1.80951">
        <ele>1507.337</ele>
        <time>2019-04-08T12:21:59Z</time>
      </trkpt>
      <trkpt lat="42.25385" lon="1.80955">
        <ele>1507.269</ele>
        <time>2019-04-08T12:22:00Z</time>
      </trkpt>
      <trkpt lat="42.25385" lon="1.80958">
        <ele>1508.074</ele>
        <time>2019-04-08T12:22:01Z</time>
      </trkpt>
      <trkpt lat="42.25385" lon="1.80961">
        <ele>1508.175</ele>
        <time>2019-04-08T12:22:02Z</time>
      </trkpt>
      <trkpt lat="42.25386" lon="1.80964">
        <ele>1509.365</ele>
        <time>2019-04-08T12:22:03Z</time>
      </trkpt>
      <trkpt lat="42.25386" lon="1.80967">
        <ele>1509.249</ele>
        <time>2019-04-08T12:22:04Z</time>
      </trkpt>
      <trkpt lat="42.25386" lon="1.8097">
        <ele>1510.288</ele>
        <time>2019-04-08T12:22:05Z</time>
      </trkpt>
      <trkpt lat="42.25386" lon="1.80973">
        <ele>1510.04</ele>
        <time>2019-04-08T12:22:06Z</time>
      </trkpt>
      <trkpt lat="42.25386" lon="1.80975">
        <ele>1510.231</ele>
        <time>2019-04-08T12:22:06Z</time>
      </trkpt>
      <trkpt lat="42.25386" lon="1.80978">
        <ele>1511.361</ele>
        <time>2019-04-08T12:22:07Z</time>
      </trkpt>
      <trkpt lat="42.25386" lon="1.80981">
        <ele>1511.107</ele>
        <time>2019-04-08T12:22:08Z</time>
      </trkpt>
      <trkpt lat="42.25387" lon="1.80984">
        <ele>1511.408</ele>
        <time>2019-04-08T12:22:09Z</time>
      </trkpt>
      <trkpt lat="42.25387" lon="1.80987">
        <ele>1512.366</ele>
        <time>2019-04-08T12:22:10Z</time>
      </trkpt>
      <trkpt lat="42.25388" lon="1.80989">
        <ele>1512.228</ele>
        <time>2019-04-08T12:22:11Z</time>
      </trkpt>
      <trkpt lat="42.25388" lon="1.80992">
        <ele>1512.083</ele>
        <time>2019-04-08T12:22:12Z</time>
      </trkpt>
      <trkpt lat="42.25387" lon="1.80995">
        <ele>1512.994</ele>
        <time>2019-04-08T12:22:12Z</time>
      </trkpt>
      <trkpt lat="42.25387" lon="1.80998">
        <ele>1513.254</ele>
        <time>2019-04-08T12:22:13Z</time>
      </trkpt>
      <trkpt lat="42.25387" lon="1.81001">
        <ele>1512.998</ele>
        <time>2019-04-08T12:22:14Z</time>
      </trkpt>
      <trkpt lat="42.25387" lon="1.81004">
        <ele>1512.317</ele>
        <time>2019-04-08T12:22:15Z</time>
      </trkpt>
      <trkpt lat="42.25387" lon="1.81007">
        <ele>1512.459</ele>
        <time>2019-04-08T12:22:16Z</time>
      </trkpt>
      <trkpt lat="42.25387" lon="1.8101">
        <ele>1513.378</ele>
        <time>2019-04-08T12:22:17Z</time>
      </trkpt>
      <trkpt lat="42.25387" lon="1.81013">
        <ele>1513.133</ele>
        <time>2019-04-08T12:22:18Z</time>
      </trkpt>
      <trkpt lat="42.25388" lon="1.81016">
        <ele>1513.326</ele>
        <time>2019-04-08T12:22:19Z</time>
      </trkpt>
      <trkpt lat="42.25388" lon="1.8102">
        <ele>1514.108</ele>
        <time>2019-04-08T12:22:20Z</time>
      </trkpt>
      <trkpt lat="42.25389" lon="1.81023">
        <ele>1514.15</ele>
        <time>2019-04-08T12:22:21Z</time>
      </trkpt>
      <trkpt lat="42.2539" lon="1.81026">
        <ele>1514.252</ele>
        <time>2019-04-08T12:22:22Z</time>
      </trkpt>
      <trkpt lat="42.25391" lon="1.81029">
        <ele>1514.157</ele>
        <time>2019-04-08T12:22:23Z</time>
      </trkpt>
      <trkpt lat="42.25391" lon="1.81032">
        <ele>1515.178</ele>
        <time>2019-04-08T12:22:24Z</time>
      </trkpt>
      <trkpt lat="42.25391" lon="1.81035">
        <ele>1515.368</ele>
        <time>2019-04-08T12:22:25Z</time>
      </trkpt>
      <trkpt lat="42.25391" lon="1.81038">
        <ele>1515.932</ele>
        <time>2019-04-08T12:22:26Z</time>
      </trkpt>
      <trkpt lat="42.25391" lon="1.81041">
        <ele>1516.331</ele>
        <time>2019-04-08T12:22:26Z</time>
      </trkpt>
      <trkpt lat="42.25391" lon="1.81045">
        <ele>1516.453</ele>
        <time>2019-04-08T12:22:27Z</time>
      </trkpt>
      <trkpt lat="42.2539" lon="1.81048">
        <ele>1516.138</ele>
        <time>2019-04-08T12:22:28Z</time>
      </trkpt>
      <trkpt lat="42.2539" lon="1.8105">
        <ele>1517.27</ele>
        <time>2019-04-08T12:22:29Z</time>
      </trkpt>
      <trkpt lat="42.25389" lon="1.81053">
        <ele>1517.317</ele>
        <time>2019-04-08T12:22:30Z</time>
      </trkpt>
      <trkpt lat="42.25389" lon="1.81056">
        <ele>1517.308</ele>
        <time>2019-04-08T12:22:31Z</time>
      </trkpt>
      <trkpt lat="42.2539" lon="1.81058">
        <ele>1518.116</ele>
        <time>2019-04-08T12:22:32Z</time>
      </trkpt>
      <trkpt lat="42.25391" lon="1.8106">
        <ele>1518.138</ele>
        <time>2019-04-08T12:22:32Z</time>
      </trkpt>
      <trkpt lat="42.25391" lon="1.81063">
        <ele>1518.023</ele>
        <time>2019-04-08T12:22:33Z</time>
      </trkpt>
      <trkpt lat="42.25392" lon="1.81068">
        <ele>1519.374</ele>
        <time>2019-04-08T12:22:35Z</time>
      </trkpt>
      <trkpt lat="42.25392" lon="1.81071">
        <ele>1519.284</ele>
        <time>2019-04-08T12:22:36Z</time>
      </trkpt>
      <trkpt lat="42.25393" lon="1.81074">
        <ele>1519.198</ele>
        <time>2019-04-08T12:22:37Z</time>
      </trkpt>
      <trkpt lat="42.25394" lon="1.81077">
        <ele>1519.337</ele>
        <time>2019-04-08T12:22:37Z</time>
      </trkpt>
      <trkpt lat="42.25395" lon="1.8108">
        <ele>1519.349</ele>
        <time>2019-04-08T12:22:38Z</time>
      </trkpt>
      <trkpt lat="42.25395" lon="1.81083">
        <ele>1519.276</ele>
        <time>2019-04-08T12:22:39Z</time>
      </trkpt>
      <trkpt lat="42.25396" lon="1.81086">
        <ele>1520.39</ele>
        <time>2019-04-08T12:22:40Z</time>
      </trkpt>
      <trkpt lat="42.25395" lon="1.81089">
        <ele>1519.219</ele>
        <time>2019-04-08T12:22:41Z</time>
      </trkpt>
      <trkpt lat="42.25395" lon="1.81091">
        <ele>1520.108</ele>
        <time>2019-04-08T12:22:42Z</time>
      </trkpt>
      <trkpt lat="42.25395" lon="1.81094">
        <ele>1520.22</ele>
        <time>2019-04-08T12:22:43Z</time>
      </trkpt>
      <trkpt lat="42.25395" lon="1.81098">
        <ele>1521.072</ele>
        <time>2019-04-08T12:22:44Z</time>
      </trkpt>
      <trkpt lat="42.25395" lon="1.811">
        <ele>1521.137</ele>
        <time>2019-04-08T12:22:44Z</time>
      </trkpt>
      <trkpt lat="42.25395" lon="1.81103">
        <ele>1521.238</ele>
        <time>2019-04-08T12:22:45Z</time>
      </trkpt>
      <trkpt lat="42.25395" lon="1.81106">
        <ele>1522.138</ele>
        <time>2019-04-08T12:22:46Z</time>
      </trkpt>
      <trkpt lat="42.25395" lon="1.81109">
        <ele>1522.252</ele>
        <time>2019-04-08T12:22:47Z</time>
      </trkpt>
      <trkpt lat="42.25395" lon="1.81112">
        <ele>1523.421</ele>
        <time>2019-04-08T12:22:48Z</time>
      </trkpt>
      <trkpt lat="42.25395" lon="1.81115">
        <ele>1523.283</ele>
        <time>2019-04-08T12:22:49Z</time>
      </trkpt>
      <trkpt lat="42.25397" lon="1.81117">
        <ele>1523.382</ele>
        <time>2019-04-08T12:22:50Z</time>
      </trkpt>
      <trkpt lat="42.25398" lon="1.81121">
        <ele>1523.243</ele>
        <time>2019-04-08T12:22:51Z</time>
      </trkpt>
      <trkpt lat="42.25398" lon="1.81124">
        <ele>1523.817</ele>
        <time>2019-04-08T12:22:52Z</time>
      </trkpt>
      <trkpt lat="42.25399" lon="1.81127">
        <ele>1524.108</ele>
        <time>2019-04-08T12:22:53Z</time>
      </trkpt>
      <trkpt lat="42.25399" lon="1.81131">
        <ele>1524.151</ele>
        <time>2019-04-08T12:22:54Z</time>
      </trkpt>
      <trkpt lat="42.25399" lon="1.81134">
        <ele>1524.073</ele>
        <time>2019-04-08T12:22:55Z</time>
      </trkpt>
      <trkpt lat="42.25399" lon="1.81137">
        <ele>1524.158</ele>
        <time>2019-04-08T12:22:56Z</time>
      </trkpt>
      <trkpt lat="42.254" lon="1.8114">
        <ele>1524.169</ele>
        <time>2019-04-08T12:22:57Z</time>
      </trkpt>
      <trkpt lat="42.25399" lon="1.81142">
        <ele>1525.219</ele>
        <time>2019-04-08T12:22:57Z</time>
      </trkpt>
      <trkpt lat="42.25399" lon="1.81145">
        <ele>1525.333</ele>
        <time>2019-04-08T12:22:58Z</time>
      </trkpt>
      <trkpt lat="42.254" lon="1.81149">
        <ele>1525.162</ele>
        <time>2019-04-08T12:22:59Z</time>
      </trkpt>
      <trkpt lat="42.254" lon="1.81152">
        <ele>1525.224</ele>
        <time>2019-04-08T12:23:00Z</time>
      </trkpt>
      <trkpt lat="42.254" lon="1.81155">
        <ele>1525.017</ele>
        <time>2019-04-08T12:23:01Z</time>
      </trkpt>
      <trkpt lat="42.254" lon="1.81157">
        <ele>1526.287</ele>
        <time>2019-04-08T12:23:02Z</time>
      </trkpt>
      <trkpt lat="42.25399" lon="1.81161">
        <ele>1526.315</ele>
        <time>2019-04-08T12:23:03Z</time>
      </trkpt>
      <trkpt lat="42.25399" lon="1.81164">
        <ele>1526.108</ele>
        <time>2019-04-08T12:23:04Z</time>
      </trkpt>
      <trkpt lat="42.254" lon="1.81167">
        <ele>1527.024</ele>
        <time>2019-04-08T12:23:05Z</time>
      </trkpt>
      <trkpt lat="42.254" lon="1.8117">
        <ele>1527.336</ele>
        <time>2019-04-08T12:23:06Z</time>
      </trkpt>
      <trkpt lat="42.254" lon="1.81174">
        <ele>1528.051</ele>
        <time>2019-04-08T12:23:07Z</time>
      </trkpt>
      <trkpt lat="42.254" lon="1.81177">
        <ele>1528.262</ele>
        <time>2019-04-08T12:23:08Z</time>
      </trkpt>
      <trkpt lat="42.25401" lon="1.81179">
        <ele>1528.142</ele>
        <time>2019-04-08T12:23:08Z</time>
      </trkpt>
      <trkpt lat="42.25402" lon="1.81183">
        <ele>1528.246</ele>
        <time>2019-04-08T12:23:10Z</time>
      </trkpt>
      <trkpt lat="42.25403" lon="1.81186">
        <ele>1528.125</ele>
        <time>2019-04-08T12:23:11Z</time>
      </trkpt>
      <trkpt lat="42.25403" lon="1.8119">
        <ele>1529.127</ele>
        <time>2019-04-08T12:23:12Z</time>
      </trkpt>
      <trkpt lat="42.25403" lon="1.81194">
        <ele>1529.285</ele>
        <time>2019-04-08T12:23:13Z</time>
      </trkpt>
      <trkpt lat="42.25403" lon="1.81198">
        <ele>1529.189</ele>
        <time>2019-04-08T12:23:14Z</time>
      </trkpt>
      <trkpt lat="42.25402" lon="1.81202">
        <ele>1528.217</ele>
        <time>2019-04-08T12:23:15Z</time>
      </trkpt>
      <trkpt lat="42.25401" lon="1.81204">
        <ele>1529.408</ele>
        <time>2019-04-08T12:23:16Z</time>
      </trkpt>
      <trkpt lat="42.254" lon="1.81208">
        <ele>1529.341</ele>
        <time>2019-04-08T12:23:17Z</time>
      </trkpt>
      <trkpt lat="42.25399" lon="1.81211">
        <ele>1530.183</ele>
        <time>2019-04-08T12:23:18Z</time>
      </trkpt>
      <trkpt lat="42.25399" lon="1.81213">
        <ele>1530.018</ele>
        <time>2019-04-08T12:23:19Z</time>
      </trkpt>
      <trkpt lat="42.25398" lon="1.81217">
        <ele>1531.139</ele>
        <time>2019-04-08T12:23:20Z</time>
      </trkpt>
      <trkpt lat="42.25397" lon="1.81219">
        <ele>1531.179</ele>
        <time>2019-04-08T12:23:21Z</time>
      </trkpt>
      <trkpt lat="42.25395" lon="1.81221">
        <ele>1532.193</ele>
        <time>2019-04-08T12:23:22Z</time>
      </trkpt>
      <trkpt lat="42.25393" lon="1.81223">
        <ele>1532.352</ele>
        <time>2019-04-08T12:23:23Z</time>
      </trkpt>
      <trkpt lat="42.25392" lon="1.81225">
        <ele>1532.294</ele>
        <time>2019-04-08T12:23:24Z</time>
      </trkpt>
      <trkpt lat="42.2539" lon="1.81228">
        <ele>1534.249</ele>
        <time>2019-04-08T12:23:25Z</time>
      </trkpt>
      <trkpt lat="42.25389" lon="1.8123">
        <ele>1534.202</ele>
        <time>2019-04-08T12:23:26Z</time>
      </trkpt>
      <trkpt lat="42.25387" lon="1.81232">
        <ele>1535.022</ele>
        <time>2019-04-08T12:23:27Z</time>
      </trkpt>
      <trkpt lat="42.25386" lon="1.81234">
        <ele>1535.308</ele>
        <time>2019-04-08T12:23:27Z</time>
      </trkpt>
      <trkpt lat="42.25386" lon="1.81237">
        <ele>1536.267</ele>
        <time>2019-04-08T12:23:28Z</time>
      </trkpt>
      <trkpt lat="42.25386" lon="1.81239">
        <ele>1536.269</ele>
        <time>2019-04-08T12:23:29Z</time>
      </trkpt>
      <trkpt lat="42.25385" lon="1.81241">
        <ele>1536.114</ele>
        <time>2019-04-08T12:23:29Z</time>
      </trkpt>
      <trkpt lat="42.25384" lon="1.81244">
        <ele>1537.135</ele>
        <time>2019-04-08T12:23:30Z</time>
      </trkpt>
      <trkpt lat="42.25382" lon="1.81246">
        <ele>1538.275</ele>
        <time>2019-04-08T12:23:31Z</time>
      </trkpt>
      <trkpt lat="42.25381" lon="1.81248">
        <ele>1538.259</ele>
        <time>2019-04-08T12:23:32Z</time>
      </trkpt>
      <trkpt lat="42.2538" lon="1.81251">
        <ele>1538.218</ele>
        <time>2019-04-08T12:23:33Z</time>
      </trkpt>
      <trkpt lat="42.25379" lon="1.81253">
        <ele>1539.27</ele>
        <time>2019-04-08T12:23:34Z</time>
      </trkpt>
      <trkpt lat="42.25377" lon="1.81256">
        <ele>1540.228</ele>
        <time>2019-04-08T12:23:35Z</time>
      </trkpt>
      <trkpt lat="42.25377" lon="1.81259">
        <ele>1539.189</ele>
        <time>2019-04-08T12:23:36Z</time>
      </trkpt>
      <trkpt lat="42.25375" lon="1.81262">
        <ele>1540.317</ele>
        <time>2019-04-08T12:23:37Z</time>
      </trkpt>
      <trkpt lat="42.25374" lon="1.81264">
        <ele>1541.308</ele>
        <time>2019-04-08T12:23:38Z</time>
      </trkpt>
      <trkpt lat="42.25372" lon="1.81265">
        <ele>1542.135</ele>
        <time>2019-04-08T12:23:38Z</time>
      </trkpt>
      <trkpt lat="42.25371" lon="1.81267">
        <ele>1542.297</ele>
        <time>2019-04-08T12:23:39Z</time>
      </trkpt>
      <trkpt lat="42.25369" lon="1.81269">
        <ele>1542.272</ele>
        <time>2019-04-08T12:23:40Z</time>
      </trkpt>
      <trkpt lat="42.25367" lon="1.8127">
        <ele>1542.063</ele>
        <time>2019-04-08T12:23:41Z</time>
      </trkpt>
      <trkpt lat="42.25365" lon="1.81271">
        <ele>1542.163</ele>
        <time>2019-04-08T12:23:42Z</time>
      </trkpt>
      <trkpt lat="42.25363" lon="1.81272">
        <ele>1544.257</ele>
        <time>2019-04-08T12:23:43Z</time>
      </trkpt>
      <trkpt lat="42.25361" lon="1.81273">
        <ele>1544.436</ele>
        <time>2019-04-08T12:23:43Z</time>
      </trkpt>
      <trkpt lat="42.25359" lon="1.81275">
        <ele>1545.328</ele>
        <time>2019-04-08T12:23:44Z</time>
      </trkpt>
      <trkpt lat="42.25357" lon="1.81276">
        <ele>1545.263</ele>
        <time>2019-04-08T12:23:45Z</time>
      </trkpt>
      <trkpt lat="42.25355" lon="1.81278">
        <ele>1544.244</ele>
        <time>2019-04-08T12:23:46Z</time>
      </trkpt>
      <trkpt lat="42.25354" lon="1.8128">
        <ele>1545.218</ele>
        <time>2019-04-08T12:23:47Z</time>
      </trkpt>
      <trkpt lat="42.25352" lon="1.81283">
        <ele>1545.108</ele>
        <time>2019-04-08T12:23:48Z</time>
      </trkpt>
      <trkpt lat="42.2535" lon="1.81285">
        <ele>1546.269</ele>
        <time>2019-04-08T12:23:49Z</time>
      </trkpt>
      <trkpt lat="42.25349" lon="1.81287">
        <ele>1547.351</ele>
        <time>2019-04-08T12:23:50Z</time>
      </trkpt>
      <trkpt lat="42.25348" lon="1.8129">
        <ele>1547.296</ele>
        <time>2019-04-08T12:23:51Z</time>
      </trkpt>
      <trkpt lat="42.25348" lon="1.81292">
        <ele>1547.947</ele>
        <time>2019-04-08T12:23:51Z</time>
      </trkpt>
      <trkpt lat="42.25347" lon="1.81295">
        <ele>1548.257</ele>
        <time>2019-04-08T12:23:52Z</time>
      </trkpt>
      <trkpt lat="42.25346" lon="1.81297">
        <ele>1549.261</ele>
        <time>2019-04-08T12:23:53Z</time>
      </trkpt>
      <trkpt lat="42.25345" lon="1.81299">
        <ele>1549.26</ele>
        <time>2019-04-08T12:23:54Z</time>
      </trkpt>
      <trkpt lat="42.25344" lon="1.81302">
        <ele>1549.162</ele>
        <time>2019-04-08T12:23:55Z</time>
      </trkpt>
      <trkpt lat="42.25342" lon="1.81304">
        <ele>1551.315</ele>
        <time>2019-04-08T12:23:56Z</time>
      </trkpt>
      <trkpt lat="42.25341" lon="1.81307">
        <ele>1550.265</ele>
        <time>2019-04-08T12:23:57Z</time>
      </trkpt>
      <trkpt lat="42.2534" lon="1.81309">
        <ele>1550.311</ele>
        <time>2019-04-08T12:23:57Z</time>
      </trkpt>
      <trkpt lat="42.2534" lon="1.81312">
        <ele>1551.208</ele>
        <time>2019-04-08T12:23:58Z</time>
      </trkpt>
      <trkpt lat="42.2534" lon="1.81315">
        <ele>1552.184</ele>
        <time>2019-04-08T12:23:59Z</time>
      </trkpt>
      <trkpt lat="42.25339" lon="1.81319">
        <ele>1552.156</ele>
        <time>2019-04-08T12:24:00Z</time>
      </trkpt>
      <trkpt lat="42.25339" lon="1.81321">
        <ele>1552.191</ele>
        <time>2019-04-08T12:24:01Z</time>
      </trkpt>
      <trkpt lat="42.25338" lon="1.81324">
        <ele>1553.122</ele>
        <time>2019-04-08T12:24:02Z</time>
      </trkpt>
      <trkpt lat="42.25337" lon="1.81328">
        <ele>1553.232</ele>
        <time>2019-04-08T12:24:03Z</time>
      </trkpt>
      <trkpt lat="42.25336" lon="1.8133">
        <ele>1553.086</ele>
        <time>2019-04-08T12:24:04Z</time>
      </trkpt>
      <trkpt lat="42.25335" lon="1.81333">
        <ele>1554.475</ele>
        <time>2019-04-08T12:24:05Z</time>
      </trkpt>
      <trkpt lat="42.25334" lon="1.81335">
        <ele>1554.337</ele>
        <time>2019-04-08T12:24:06Z</time>
      </trkpt>
      <trkpt lat="42.25333" lon="1.81337">
        <ele>1555.214</ele>
        <time>2019-04-08T12:24:06Z</time>
      </trkpt>
      <trkpt lat="42.25333" lon="1.8134">
        <ele>1555.354</ele>
        <time>2019-04-08T12:24:07Z</time>
      </trkpt>
      <trkpt lat="42.25332" lon="1.81343">
        <ele>1555.409</ele>
        <time>2019-04-08T12:24:08Z</time>
      </trkpt>
      <trkpt lat="42.25331" lon="1.81347">
        <ele>1556.108</ele>
        <time>2019-04-08T12:24:09Z</time>
      </trkpt>
      <trkpt lat="42.2533" lon="1.8135">
        <ele>1556.244</ele>
        <time>2019-04-08T12:24:10Z</time>
      </trkpt>
      <trkpt lat="42.2533" lon="1.81353">
        <ele>1555.176</ele>
        <time>2019-04-08T12:24:11Z</time>
      </trkpt>
      <trkpt lat="42.2533" lon="1.81357">
        <ele>1555.171</ele>
        <time>2019-04-08T12:24:12Z</time>
      </trkpt>
      <trkpt lat="42.25329" lon="1.81361">
        <ele>1556.222</ele>
        <time>2019-04-08T12:24:14Z</time>
      </trkpt>
      <trkpt lat="42.2533" lon="1.81364">
        <ele>1556.192</ele>
        <time>2019-04-08T12:24:15Z</time>
      </trkpt>
      <trkpt lat="42.2533" lon="1.81367">
        <ele>1556.236</ele>
        <time>2019-04-08T12:24:15Z</time>
      </trkpt>
      <trkpt lat="42.25331" lon="1.8137">
        <ele>1556.495</ele>
        <time>2019-04-08T12:24:16Z</time>
      </trkpt>
      <trkpt lat="42.25331" lon="1.81373">
        <ele>1556.357</ele>
        <time>2019-04-08T12:24:17Z</time>
      </trkpt>
      <trkpt lat="42.25332" lon="1.81376">
        <ele>1556.165</ele>
        <time>2019-04-08T12:24:18Z</time>
      </trkpt>
      <trkpt lat="42.25333" lon="1.81379">
        <ele>1556.168</ele>
        <time>2019-04-08T12:24:19Z</time>
      </trkpt>
      <trkpt lat="42.25334" lon="1.81383">
        <ele>1555.114</ele>
        <time>2019-04-08T12:24:20Z</time>
      </trkpt>
      <trkpt lat="42.25335" lon="1.81386">
        <ele>1555.308</ele>
        <time>2019-04-08T12:24:21Z</time>
      </trkpt>
      <trkpt lat="42.25337" lon="1.8139">
        <ele>1555.399</ele>
        <time>2019-04-08T12:24:23Z</time>
      </trkpt>
      <trkpt lat="42.25338" lon="1.81394">
        <ele>1555.251</ele>
        <time>2019-04-08T12:24:24Z</time>
      </trkpt>
      <trkpt lat="42.2534" lon="1.81398">
        <ele>1555.156</ele>
        <time>2019-04-08T12:24:25Z</time>
      </trkpt>
      <trkpt lat="42.25341" lon="1.814">
        <ele>1554.337</ele>
        <time>2019-04-08T12:24:26Z</time>
      </trkpt>
      <trkpt lat="42.25342" lon="1.81402">
        <ele>1554.197</ele>
        <time>2019-04-08T12:24:27Z</time>
      </trkpt>
      <trkpt lat="42.25342" lon="1.81405">
        <ele>1554.121</ele>
        <time>2019-04-08T12:24:28Z</time>
      </trkpt>
      <trkpt lat="42.25342" lon="1.81409">
        <ele>1552.12</ele>
        <time>2019-04-08T12:24:29Z</time>
      </trkpt>
      <trkpt lat="42.25341" lon="1.81414">
        <ele>1551.382</ele>
        <time>2019-04-08T12:24:30Z</time>
      </trkpt>
      <trkpt lat="42.25341" lon="1.81418">
        <ele>1550.383</ele>
        <time>2019-04-08T12:24:32Z</time>
      </trkpt>
      <trkpt lat="42.2534" lon="1.81422">
        <ele>1549.125</ele>
        <time>2019-04-08T12:24:33Z</time>
      </trkpt>
      <trkpt lat="42.2534" lon="1.81425">
        <ele>1549.417</ele>
        <time>2019-04-08T12:24:34Z</time>
      </trkpt>
      <trkpt lat="42.2534" lon="1.81429">
        <ele>1548.308</ele>
        <time>2019-04-08T12:24:35Z</time>
      </trkpt>
      <trkpt lat="42.25339" lon="1.81433">
        <ele>1548.261</ele>
        <time>2019-04-08T12:24:36Z</time>
      </trkpt>
      <trkpt lat="42.25339" lon="1.81438">
        <ele>1546.273</ele>
        <time>2019-04-08T12:24:38Z</time>
      </trkpt>
      <trkpt lat="42.2534" lon="1.81442">
        <ele>1545.118</ele>
        <time>2019-04-08T12:24:39Z</time>
      </trkpt>
      <trkpt lat="42.2534" lon="1.81446">
        <ele>1545.269</ele>
        <time>2019-04-08T12:24:40Z</time>
      </trkpt>
      <trkpt lat="42.2534" lon="1.8145">
        <ele>1545.279</ele>
        <time>2019-04-08T12:24:41Z</time>
      </trkpt>
      <trkpt lat="42.2534" lon="1.81455">
        <ele>1544.293</ele>
        <time>2019-04-08T12:24:43Z</time>
      </trkpt>
      <trkpt lat="42.2534" lon="1.81457">
        <ele>1544.312</ele>
        <time>2019-04-08T12:24:43Z</time>
      </trkpt>
      <trkpt lat="42.25341" lon="1.8146">
        <ele>1544.064</ele>
        <time>2019-04-08T12:24:44Z</time>
      </trkpt>
      <trkpt lat="42.25341" lon="1.81463">
        <ele>1543.137</ele>
        <time>2019-04-08T12:24:45Z</time>
      </trkpt>
      <trkpt lat="42.25341" lon="1.81465">
        <ele>1542.349</ele>
        <time>2019-04-08T12:24:46Z</time>
      </trkpt>
      <trkpt lat="42.25342" lon="1.81469">
        <ele>1542.213</ele>
        <time>2019-04-08T12:24:47Z</time>
      </trkpt>
      <trkpt lat="42.25342" lon="1.81473">
        <ele>1541.208</ele>
        <time>2019-04-08T12:24:48Z</time>
      </trkpt>
      <trkpt lat="42.25342" lon="1.81476">
        <ele>1541.416</ele>
        <time>2019-04-08T12:24:49Z</time>
      </trkpt>
      <trkpt lat="42.25343" lon="1.81478">
        <ele>1541.248</ele>
        <time>2019-04-08T12:24:50Z</time>
      </trkpt>
      <trkpt lat="42.25343" lon="1.81481">
        <ele>1541.163</ele>
        <time>2019-04-08T12:24:51Z</time>
      </trkpt>
      <trkpt lat="42.25344" lon="1.81484">
        <ele>1539.214</ele>
        <time>2019-04-08T12:24:51Z</time>
      </trkpt>
      <trkpt lat="42.25343" lon="1.81487">
        <ele>1538.144</ele>
        <time>2019-04-08T12:24:52Z</time>
      </trkpt>
      <trkpt lat="42.25344" lon="1.8149">
        <ele>1538.298</ele>
        <time>2019-04-08T12:24:53Z</time>
      </trkpt>
      <trkpt lat="42.25343" lon="1.81494">
        <ele>1538.247</ele>
        <time>2019-04-08T12:24:55Z</time>
      </trkpt>
      <trkpt lat="42.25343" lon="1.81497">
        <ele>1538.149</ele>
        <time>2019-04-08T12:24:55Z</time>
      </trkpt>
      <trkpt lat="42.25343" lon="1.815">
        <ele>1538.248</ele>
        <time>2019-04-08T12:24:56Z</time>
      </trkpt>
      <trkpt lat="42.25343" lon="1.81502">
        <ele>1538.261</ele>
        <time>2019-04-08T12:24:57Z</time>
      </trkpt>
      <trkpt lat="42.25344" lon="1.81507">
        <ele>1538.217</ele>
        <time>2019-04-08T12:24:58Z</time>
      </trkpt>
      <trkpt lat="42.25344" lon="1.8151">
        <ele>1538.308</ele>
        <time>2019-04-08T12:24:59Z</time>
      </trkpt>
      <trkpt lat="42.25344" lon="1.81513">
        <ele>1537.117</ele>
        <time>2019-04-08T12:25:00Z</time>
      </trkpt>
      <trkpt lat="42.25344" lon="1.81516">
        <ele>1537.139</ele>
        <time>2019-04-08T12:25:01Z</time>
      </trkpt>
      <trkpt lat="42.25344" lon="1.81519">
        <ele>1537.254</ele>
        <time>2019-04-08T12:25:02Z</time>
      </trkpt>
      <trkpt lat="42.25344" lon="1.81522">
        <ele>1537.175</ele>
        <time>2019-04-08T12:25:03Z</time>
      </trkpt>
      <trkpt lat="42.25343" lon="1.81524">
        <ele>1537.265</ele>
        <time>2019-04-08T12:25:03Z</time>
      </trkpt>
      <trkpt lat="42.25343" lon="1.81527">
        <ele>1537.149</ele>
        <time>2019-04-08T12:25:04Z</time>
      </trkpt>
      <trkpt lat="42.25343" lon="1.8153">
        <ele>1537.398</ele>
        <time>2019-04-08T12:25:05Z</time>
      </trkpt>
      <trkpt lat="42.25343" lon="1.81532">
        <ele>1537.11</ele>
        <time>2019-04-08T12:25:06Z</time>
      </trkpt>
      <trkpt lat="42.25343" lon="1.81537">
        <ele>1537.077</ele>
        <time>2019-04-08T12:25:07Z</time>
      </trkpt>
      <trkpt lat="42.25342" lon="1.81542">
        <ele>1537.161</ele>
        <time>2019-04-08T12:25:09Z</time>
      </trkpt>
      <trkpt lat="42.25342" lon="1.81547">
        <ele>1537.127</ele>
        <time>2019-04-08T12:25:10Z</time>
      </trkpt>
      <trkpt lat="42.25342" lon="1.81551">
        <ele>1537.108</ele>
        <time>2019-04-08T12:25:11Z</time>
      </trkpt>
      <trkpt lat="42.25342" lon="1.81555">
        <ele>1537.22</ele>
        <time>2019-04-08T12:25:13Z</time>
      </trkpt>
      <trkpt lat="42.25341" lon="1.8156">
        <ele>1537.252</ele>
        <time>2019-04-08T12:25:14Z</time>
      </trkpt>
      <trkpt lat="42.25341" lon="1.81563">
        <ele>1537.147</ele>
        <time>2019-04-08T12:25:15Z</time>
      </trkpt>
      <trkpt lat="42.25341" lon="1.81565">
        <ele>1536.268</ele>
        <time>2019-04-08T12:25:16Z</time>
      </trkpt>
      <trkpt lat="42.25341" lon="1.81568">
        <ele>1536.278</ele>
        <time>2019-04-08T12:25:17Z</time>
      </trkpt>
      <trkpt lat="42.25342" lon="1.81572">
        <ele>1536.282</ele>
        <time>2019-04-08T12:25:18Z</time>
      </trkpt>
      <trkpt lat="42.25342" lon="1.81575">
        <ele>1536.371</ele>
        <time>2019-04-08T12:25:19Z</time>
      </trkpt>
      <trkpt lat="42.25342" lon="1.81578">
        <ele>1536.343</ele>
        <time>2019-04-08T12:25:19Z</time>
      </trkpt>
      <trkpt lat="42.25342" lon="1.81581">
        <ele>1536.186</ele>
        <time>2019-04-08T12:25:20Z</time>
      </trkpt>
      <trkpt lat="42.25342" lon="1.81583">
        <ele>1536.16</ele>
        <time>2019-04-08T12:25:21Z</time>
      </trkpt>
      <trkpt lat="42.25343" lon="1.81585">
        <ele>1535.226</ele>
        <time>2019-04-08T12:25:22Z</time>
      </trkpt>
      <trkpt lat="42.25343" lon="1.81588">
        <ele>1533.108</ele>
        <time>2019-04-08T12:25:22Z</time>
      </trkpt>
      <trkpt lat="42.25343" lon="1.81591">
        <ele>1533.161</ele>
        <time>2019-04-08T12:25:23Z</time>
      </trkpt>
      <trkpt lat="42.25343" lon="1.81593">
        <ele>1533.133</ele>
        <time>2019-04-08T12:25:24Z</time>
      </trkpt>
      <trkpt lat="42.25344" lon="1.81598">
        <ele>1533.148</ele>
        <time>2019-04-08T12:25:26Z</time>
      </trkpt>
      <trkpt lat="42.25345" lon="1.81602">
        <ele>1531.039</ele>
        <time>2019-04-08T12:25:27Z</time>
      </trkpt>
      <trkpt lat="42.25344" lon="1.81605">
        <ele>1531.239</ele>
        <time>2019-04-08T12:25:27Z</time>
      </trkpt>
      <trkpt lat="42.25344" lon="1.81609">
        <ele>1531.093</ele>
        <time>2019-04-08T12:25:29Z</time>
      </trkpt>
      <trkpt lat="42.25345" lon="1.81612">
        <ele>1530.282</ele>
        <time>2019-04-08T12:25:30Z</time>
      </trkpt>
      <trkpt lat="42.25346" lon="1.81615">
        <ele>1528.174</ele>
        <time>2019-04-08T12:25:31Z</time>
      </trkpt>
      <trkpt lat="42.25346" lon="1.81619">
        <ele>1528.148</ele>
        <time>2019-04-08T12:25:32Z</time>
      </trkpt>
      <trkpt lat="42.25346" lon="1.81624">
        <ele>1528.161</ele>
        <time>2019-04-08T12:25:33Z</time>
      </trkpt>
      <trkpt lat="42.25347" lon="1.81628">
        <ele>1524.417</ele>
        <time>2019-04-08T12:25:35Z</time>
      </trkpt>
      <trkpt lat="42.25347" lon="1.81631">
        <ele>1524.208</ele>
        <time>2019-04-08T12:25:35Z</time>
      </trkpt>
      <trkpt lat="42.25347" lon="1.81635">
        <ele>1524.167</ele>
        <time>2019-04-08T12:25:37Z</time>
      </trkpt>
      <trkpt lat="42.25348" lon="1.81639">
        <ele>1522.179</ele>
        <time>2019-04-08T12:25:38Z</time>
      </trkpt>
      <trkpt lat="42.25348" lon="1.81643">
        <ele>1521.194</ele>
        <time>2019-04-08T12:25:39Z</time>
      </trkpt>
      <trkpt lat="42.25348" lon="1.81646">
        <ele>1520.195</ele>
        <time>2019-04-08T12:25:40Z</time>
      </trkpt>
      <trkpt lat="42.25348" lon="1.81648">
        <ele>1519.095</ele>
        <time>2019-04-08T12:25:41Z</time>
      </trkpt>
      <trkpt lat="42.25348" lon="1.81652">
        <ele>1518.239</ele>
        <time>2019-04-08T12:25:42Z</time>
      </trkpt>
      <trkpt lat="42.25348" lon="1.81655">
        <ele>1517.458</ele>
        <time>2019-04-08T12:25:42Z</time>
      </trkpt>
      <trkpt lat="42.25349" lon="1.81657">
        <ele>1517.17</ele>
        <time>2019-04-08T12:25:43Z</time>
      </trkpt>
      <trkpt lat="42.25349" lon="1.8166">
        <ele>1515.116</ele>
        <time>2019-04-08T12:25:44Z</time>
      </trkpt>
      <trkpt lat="42.2535" lon="1.81663">
        <ele>1514.376</ele>
        <time>2019-04-08T12:25:45Z</time>
      </trkpt>
      <trkpt lat="42.25351" lon="1.81666">
        <ele>1513.213</ele>
        <time>2019-04-08T12:25:46Z</time>
      </trkpt>
      <trkpt lat="42.25353" lon="1.8167">
        <ele>1512.208</ele>
        <time>2019-04-08T12:25:48Z</time>
      </trkpt>
      <trkpt lat="42.25353" lon="1.81675">
        <ele>1511.054</ele>
        <time>2019-04-08T12:25:49Z</time>
      </trkpt>
      <trkpt lat="42.25353" lon="1.81677">
        <ele>1510.366</ele>
        <time>2019-04-08T12:25:50Z</time>
      </trkpt>
      <trkpt lat="42.25354" lon="1.81681">
        <ele>1509.191</ele>
        <time>2019-04-08T12:25:51Z</time>
      </trkpt>
      <trkpt lat="42.25355" lon="1.81685">
        <ele>1509.222</ele>
        <time>2019-04-08T12:25:52Z</time>
      </trkpt>
      <trkpt lat="42.25355" lon="1.8169">
        <ele>1507.222</ele>
        <time>2019-04-08T12:25:53Z</time>
      </trkpt>
      <trkpt lat="42.25356" lon="1.81692">
        <ele>1507.286</ele>
        <time>2019-04-08T12:25:54Z</time>
      </trkpt>
      <trkpt lat="42.25356" lon="1.81695">
        <ele>1507.245</ele>
        <time>2019-04-08T12:25:55Z</time>
      </trkpt>
      <trkpt lat="42.25358" lon="1.81703">
        <ele>1506.257</ele>
        <time>2019-04-08T12:25:58Z</time>
      </trkpt>
      <trkpt lat="42.25358" lon="1.81718">
        <ele>1502.929</ele>
        <time>2019-04-08T12:26:02Z</time>
      </trkpt>
      <trkpt lat="42.25358" lon="1.8172">
        <ele>1502.2</ele>
        <time>2019-04-08T12:26:03Z</time>
      </trkpt>
      <trkpt lat="42.25358" lon="1.81725">
        <ele>1502.12</ele>
        <time>2019-04-08T12:26:04Z</time>
      </trkpt>
      <trkpt lat="42.25358" lon="1.81727">
        <ele>1501.308</ele>
        <time>2019-04-08T12:26:05Z</time>
      </trkpt>
      <trkpt lat="42.25359" lon="1.81732">
        <ele>1501.185</ele>
        <time>2019-04-08T12:26:06Z</time>
      </trkpt>
      <trkpt lat="42.25359" lon="1.81737">
        <ele>1501.227</ele>
        <time>2019-04-08T12:26:07Z</time>
      </trkpt>
      <trkpt lat="42.25358" lon="1.81742">
        <ele>1500.132</ele>
        <time>2019-04-08T12:26:09Z</time>
      </trkpt>
      <trkpt lat="42.25358" lon="1.81745">
        <ele>1500.183</ele>
        <time>2019-04-08T12:26:10Z</time>
      </trkpt>
      <trkpt lat="42.25358" lon="1.81747">
        <ele>1500.253</ele>
        <time>2019-04-08T12:26:11Z</time>
      </trkpt>
      <trkpt lat="42.25359" lon="1.81749">
        <ele>1499.277</ele>
        <time>2019-04-08T12:26:11Z</time>
      </trkpt>
      <trkpt lat="42.25359" lon="1.81759">
        <ele>1499.146</ele>
        <time>2019-04-08T12:26:14Z</time>
      </trkpt>
      <trkpt lat="42.25359" lon="1.81763">
        <ele>1499.288</ele>
        <time>2019-04-08T12:26:15Z</time>
      </trkpt>
      <trkpt lat="42.2536" lon="1.81767">
        <ele>1499.162</ele>
        <time>2019-04-08T12:26:16Z</time>
      </trkpt>
      <trkpt lat="42.2536" lon="1.81771">
        <ele>1499.183</ele>
        <time>2019-04-08T12:26:18Z</time>
      </trkpt>
      <trkpt lat="42.2536" lon="1.81774">
        <ele>1499.411</ele>
        <time>2019-04-08T12:26:19Z</time>
      </trkpt>
      <trkpt lat="42.25359" lon="1.81777">
        <ele>1499.008</ele>
        <time>2019-04-08T12:26:20Z</time>
      </trkpt>
      <trkpt lat="42.2536" lon="1.8178">
        <ele>1499.149</ele>
        <time>2019-04-08T12:26:21Z</time>
      </trkpt>
      <trkpt lat="42.25359" lon="1.81784">
        <ele>1500.111</ele>
        <time>2019-04-08T12:26:22Z</time>
      </trkpt>
      <trkpt lat="42.2536" lon="1.81788">
        <ele>1500.126</ele>
        <time>2019-04-08T12:26:23Z</time>
      </trkpt>
      <trkpt lat="42.25362" lon="1.81791">
        <ele>1500.137</ele>
        <time>2019-04-08T12:26:24Z</time>
      </trkpt>
      <trkpt lat="42.25364" lon="1.81795">
        <ele>1500.177</ele>
        <time>2019-04-08T12:26:26Z</time>
      </trkpt>
      <trkpt lat="42.25365" lon="1.81798">
        <ele>1499.391</ele>
        <time>2019-04-08T12:26:26Z</time>
      </trkpt>
      <trkpt lat="42.25367" lon="1.81801">
        <ele>1499.27</ele>
        <time>2019-04-08T12:26:28Z</time>
      </trkpt>
      <trkpt lat="42.25368" lon="1.81805">
        <ele>1499.342</ele>
        <time>2019-04-08T12:26:29Z</time>
      </trkpt>
      <trkpt lat="42.25368" lon="1.81809">
        <ele>1499.254</ele>
        <time>2019-04-08T12:26:30Z</time>
      </trkpt>
      <trkpt lat="42.2537" lon="1.81813">
        <ele>1499.356</ele>
        <time>2019-04-08T12:26:31Z</time>
      </trkpt>
      <trkpt lat="42.25372" lon="1.81817">
        <ele>1499.311</ele>
        <time>2019-04-08T12:26:33Z</time>
      </trkpt>
      <trkpt lat="42.25373" lon="1.81819">
        <ele>1499.208</ele>
        <time>2019-04-08T12:26:34Z</time>
      </trkpt>
      <trkpt lat="42.25374" lon="1.81824">
        <ele>1499.268</ele>
        <time>2019-04-08T12:26:35Z</time>
      </trkpt>
      <trkpt lat="42.25375" lon="1.81827">
        <ele>1498.11</ele>
        <time>2019-04-08T12:26:36Z</time>
      </trkpt>
      <trkpt lat="42.25374" lon="1.81831">
        <ele>1498.265</ele>
        <time>2019-04-08T12:26:37Z</time>
      </trkpt>
      <trkpt lat="42.25374" lon="1.81834">
        <ele>1498.396</ele>
        <time>2019-04-08T12:26:38Z</time>
      </trkpt>
      <trkpt lat="42.25372" lon="1.81838">
        <ele>1497.276</ele>
        <time>2019-04-08T12:26:40Z</time>
      </trkpt>
      <trkpt lat="42.25371" lon="1.81842">
        <ele>1497.14</ele>
        <time>2019-04-08T12:26:41Z</time>
      </trkpt>
      <trkpt lat="42.25371" lon="1.81846">
        <ele>1496.199</ele>
        <time>2019-04-08T12:26:42Z</time>
      </trkpt>
      <trkpt lat="42.25371" lon="1.8185">
        <ele>1494.131</ele>
        <time>2019-04-08T12:26:43Z</time>
      </trkpt>
      <trkpt lat="42.2537" lon="1.81853">
        <ele>1493.232</ele>
        <time>2019-04-08T12:26:44Z</time>
      </trkpt>
      <trkpt lat="42.2537" lon="1.81856">
        <ele>1493.192</ele>
        <time>2019-04-08T12:26:45Z</time>
      </trkpt>
      <trkpt lat="42.25369" lon="1.8186">
        <ele>1492.111</ele>
        <time>2019-04-08T12:26:46Z</time>
      </trkpt>
      <trkpt lat="42.25369" lon="1.81863">
        <ele>1492.208</ele>
        <time>2019-04-08T12:26:47Z</time>
      </trkpt>
      <trkpt lat="42.25368" lon="1.81865">
        <ele>1491.266</ele>
        <time>2019-04-08T12:26:48Z</time>
      </trkpt>
      <trkpt lat="42.25367" lon="1.81869">
        <ele>1490.338</ele>
        <time>2019-04-08T12:26:49Z</time>
      </trkpt>
      <trkpt lat="42.25365" lon="1.81872">
        <ele>1489.023</ele>
        <time>2019-04-08T12:26:50Z</time>
      </trkpt>
      <trkpt lat="42.25364" lon="1.81875">
        <ele>1488.234</ele>
        <time>2019-04-08T12:26:51Z</time>
      </trkpt>
      <trkpt lat="42.25363" lon="1.81878">
        <ele>1488.164</ele>
        <time>2019-04-08T12:26:52Z</time>
      </trkpt>
      <trkpt lat="42.25362" lon="1.81881">
        <ele>1487.398</ele>
        <time>2019-04-08T12:26:53Z</time>
      </trkpt>
      <trkpt lat="42.25361" lon="1.81885">
        <ele>1487.097</ele>
        <time>2019-04-08T12:26:54Z</time>
      </trkpt>
      <trkpt lat="42.2536" lon="1.81889">
        <ele>1486.219</ele>
        <time>2019-04-08T12:26:56Z</time>
      </trkpt>
      <trkpt lat="42.25359" lon="1.81891">
        <ele>1486.248</ele>
        <time>2019-04-08T12:26:57Z</time>
      </trkpt>
      <trkpt lat="42.25357" lon="1.81895">
        <ele>1486.161</ele>
        <time>2019-04-08T12:26:58Z</time>
      </trkpt>
      <trkpt lat="42.25356" lon="1.81897">
        <ele>1484.517</ele>
        <time>2019-04-08T12:26:59Z</time>
      </trkpt>
      <trkpt lat="42.25354" lon="1.81901">
        <ele>1483.208</ele>
        <time>2019-04-08T12:27:00Z</time>
      </trkpt>
      <trkpt lat="42.25353" lon="1.81903">
        <ele>1483.237</ele>
        <time>2019-04-08T12:27:01Z</time>
      </trkpt>
      <trkpt lat="42.25352" lon="1.81906">
        <ele>1483.299</ele>
        <time>2019-04-08T12:27:02Z</time>
      </trkpt>
      <trkpt lat="42.2535" lon="1.81908">
        <ele>1483.134</ele>
        <time>2019-04-08T12:27:03Z</time>
      </trkpt>
      <trkpt lat="42.25349" lon="1.81912">
        <ele>1482.145</ele>
        <time>2019-04-08T12:27:04Z</time>
      </trkpt>
      <trkpt lat="42.25348" lon="1.81916">
        <ele>1482.275</ele>
        <time>2019-04-08T12:27:05Z</time>
      </trkpt>
      <trkpt lat="42.25347" lon="1.81919">
        <ele>1482.269</ele>
        <time>2019-04-08T12:27:06Z</time>
      </trkpt>
      <trkpt lat="42.25346" lon="1.81921">
        <ele>1482.328</ele>
        <time>2019-04-08T12:27:07Z</time>
      </trkpt>
      <trkpt lat="42.25345" lon="1.81923">
        <ele>1482.23</ele>
        <time>2019-04-08T12:27:08Z</time>
      </trkpt>
      <trkpt lat="42.25344" lon="1.81925">
        <ele>1482.063</ele>
        <time>2019-04-08T12:27:08Z</time>
      </trkpt>
      <trkpt lat="42.25342" lon="1.81928">
        <ele>1481.244</ele>
        <time>2019-04-08T12:27:09Z</time>
      </trkpt>
      <trkpt lat="42.25341" lon="1.8193">
        <ele>1481.318</ele>
        <time>2019-04-08T12:27:10Z</time>
      </trkpt>
      <trkpt lat="42.25338" lon="1.81933">
        <ele>1481.108</ele>
        <time>2019-04-08T12:27:12Z</time>
      </trkpt>
      <trkpt lat="42.25336" lon="1.81935">
        <ele>1481.219</ele>
        <time>2019-04-08T12:27:12Z</time>
      </trkpt>
      <trkpt lat="42.25334" lon="1.81939">
        <ele>1482.021</ele>
        <time>2019-04-08T12:27:14Z</time>
      </trkpt>
      <trkpt lat="42.25332" lon="1.81941">
        <ele>1482.226</ele>
        <time>2019-04-08T12:27:15Z</time>
      </trkpt>
      <trkpt lat="42.25331" lon="1.81943">
        <ele>1482.337</ele>
        <time>2019-04-08T12:27:16Z</time>
      </trkpt>
      <trkpt lat="42.25329" lon="1.81946">
        <ele>1482.397</ele>
        <time>2019-04-08T12:27:17Z</time>
      </trkpt>
      <trkpt lat="42.25327" lon="1.81948">
        <ele>1482.281</ele>
        <time>2019-04-08T12:27:18Z</time>
      </trkpt>
      <trkpt lat="42.25326" lon="1.8195">
        <ele>1482.19</ele>
        <time>2019-04-08T12:27:18Z</time>
      </trkpt>
      <trkpt lat="42.25325" lon="1.81952">
        <ele>1482.212</ele>
        <time>2019-04-08T12:27:19Z</time>
      </trkpt>
      <trkpt lat="42.25323" lon="1.81954">
        <ele>1482.136</ele>
        <time>2019-04-08T12:27:20Z</time>
      </trkpt>
      <trkpt lat="42.25321" lon="1.81956">
        <ele>1481.217</ele>
        <time>2019-04-08T12:27:21Z</time>
      </trkpt>
      <trkpt lat="42.25319" lon="1.81958">
        <ele>1481.118</ele>
        <time>2019-04-08T12:27:22Z</time>
      </trkpt>
      <trkpt lat="42.25317" lon="1.81961">
        <ele>1481.208</ele>
        <time>2019-04-08T12:27:23Z</time>
      </trkpt>
      <trkpt lat="42.25315" lon="1.81963">
        <ele>1481.216</ele>
        <time>2019-04-08T12:27:24Z</time>
      </trkpt>
      <trkpt lat="42.25314" lon="1.81965">
        <ele>1481.178</ele>
        <time>2019-04-08T12:27:25Z</time>
      </trkpt>
      <trkpt lat="42.25312" lon="1.81966">
        <ele>1481.143</ele>
        <time>2019-04-08T12:27:26Z</time>
      </trkpt>
      <trkpt lat="42.2531" lon="1.81968">
        <ele>1481.314</ele>
        <time>2019-04-08T12:27:27Z</time>
      </trkpt>
      <trkpt lat="42.25309" lon="1.81969">
        <ele>1480.274</ele>
        <time>2019-04-08T12:27:28Z</time>
      </trkpt>
      <trkpt lat="42.25307" lon="1.81971">
        <ele>1480.258</ele>
        <time>2019-04-08T12:27:29Z</time>
      </trkpt>
      <trkpt lat="42.25304" lon="1.81974">
        <ele>1480.157</ele>
        <time>2019-04-08T12:27:30Z</time>
      </trkpt>
      <trkpt lat="42.25302" lon="1.81976">
        <ele>1479.279</ele>
        <time>2019-04-08T12:27:31Z</time>
      </trkpt>
      <trkpt lat="42.253" lon="1.81978">
        <ele>1477.229</ele>
        <time>2019-04-08T12:27:32Z</time>
      </trkpt>
      <trkpt lat="42.25297" lon="1.8198">
        <ele>1477.1</ele>
        <time>2019-04-08T12:27:33Z</time>
      </trkpt>
      <trkpt lat="42.25295" lon="1.81982">
        <ele>1476.32</ele>
        <time>2019-04-08T12:27:34Z</time>
      </trkpt>
      <trkpt lat="42.25293" lon="1.81985">
        <ele>1476.208</ele>
        <time>2019-04-08T12:27:35Z</time>
      </trkpt>
      <trkpt lat="42.25291" lon="1.81988">
        <ele>1476.375</ele>
        <time>2019-04-08T12:27:36Z</time>
      </trkpt>
      <trkpt lat="42.2529" lon="1.8199">
        <ele>1476.187</ele>
        <time>2019-04-08T12:27:37Z</time>
      </trkpt>
      <trkpt lat="42.25286" lon="1.81996">
        <ele>1476.282</ele>
        <time>2019-04-08T12:27:40Z</time>
      </trkpt>
      <trkpt lat="42.25278" lon="1.82005">
        <ele>1477.253</ele>
        <time>2019-04-08T12:27:44Z</time>
      </trkpt>
      <trkpt lat="42.25276" lon="1.82007">
        <ele>1477.323</ele>
        <time>2019-04-08T12:27:45Z</time>
      </trkpt>
      <trkpt lat="42.25274" lon="1.82009">
        <ele>1477.077</ele>
        <time>2019-04-08T12:27:46Z</time>
      </trkpt>
      <trkpt lat="42.25271" lon="1.82011">
        <ele>1477.126</ele>
        <time>2019-04-08T12:27:47Z</time>
      </trkpt>
      <trkpt lat="42.25269" lon="1.82013">
        <ele>1477.348</ele>
        <time>2019-04-08T12:27:48Z</time>
      </trkpt>
      <trkpt lat="42.25267" lon="1.82013">
        <ele>1477.159</ele>
        <time>2019-04-08T12:27:49Z</time>
      </trkpt>
      <trkpt lat="42.25264" lon="1.82016">
        <ele>1478.103</ele>
        <time>2019-04-08T12:27:50Z</time>
      </trkpt>
      <trkpt lat="42.25261" lon="1.82018">
        <ele>1478.223</ele>
        <time>2019-04-08T12:27:52Z</time>
      </trkpt>
      <trkpt lat="42.25259" lon="1.82019">
        <ele>1478.408</ele>
        <time>2019-04-08T12:27:53Z</time>
      </trkpt>
      <trkpt lat="42.25256" lon="1.82021">
        <ele>1479.238</ele>
        <time>2019-04-08T12:27:54Z</time>
      </trkpt>
      <trkpt lat="42.25253" lon="1.82022">
        <ele>1479.17</ele>
        <time>2019-04-08T12:27:55Z</time>
      </trkpt>
      <trkpt lat="42.2525" lon="1.82023">
        <ele>1479.195</ele>
        <time>2019-04-08T12:27:56Z</time>
      </trkpt>
      <trkpt lat="42.25248" lon="1.82024">
        <ele>1479.136</ele>
        <time>2019-04-08T12:27:57Z</time>
      </trkpt>
      <trkpt lat="42.25246" lon="1.82026">
        <ele>1480.286</ele>
        <time>2019-04-08T12:27:58Z</time>
      </trkpt>
      <trkpt lat="42.25244" lon="1.82027">
        <ele>1480.29</ele>
        <time>2019-04-08T12:27:59Z</time>
      </trkpt>
      <trkpt lat="42.25242" lon="1.82028">
        <ele>1480.269</ele>
        <time>2019-04-08T12:28:00Z</time>
      </trkpt>
      <trkpt lat="42.2524" lon="1.82029">
        <ele>1481.331</ele>
        <time>2019-04-08T12:28:01Z</time>
      </trkpt>
      <trkpt lat="42.25238" lon="1.8203">
        <ele>1482.028</ele>
        <time>2019-04-08T12:28:02Z</time>
      </trkpt>
      <trkpt lat="42.25236" lon="1.82031">
        <ele>1482.189</ele>
        <time>2019-04-08T12:28:02Z</time>
      </trkpt>
      <trkpt lat="42.25233" lon="1.82032">
        <ele>1482.417</ele>
        <time>2019-04-08T12:28:04Z</time>
      </trkpt>
      <trkpt lat="42.25231" lon="1.82033">
        <ele>1482.108</ele>
        <time>2019-04-08T12:28:05Z</time>
      </trkpt>
      <trkpt lat="42.25228" lon="1.82033">
        <ele>1483.365</ele>
        <time>2019-04-08T12:28:06Z</time>
      </trkpt>
      <trkpt lat="42.25225" lon="1.82034">
        <ele>1483.237</ele>
        <time>2019-04-08T12:28:07Z</time>
      </trkpt>
      <trkpt lat="42.25223" lon="1.82035">
        <ele>1483.232</ele>
        <time>2019-04-08T12:28:08Z</time>
      </trkpt>
      <trkpt lat="42.25221" lon="1.82035">
        <ele>1483.173</ele>
        <time>2019-04-08T12:28:09Z</time>
      </trkpt>
      <trkpt lat="42.25218" lon="1.82036">
        <ele>1483.373</ele>
        <time>2019-04-08T12:28:10Z</time>
      </trkpt>
      <trkpt lat="42.25216" lon="1.82036">
        <ele>1484.257</ele>
        <time>2019-04-08T12:28:11Z</time>
      </trkpt>
      <trkpt lat="42.25213" lon="1.82037">
        <ele>1485.136</ele>
        <time>2019-04-08T12:28:12Z</time>
      </trkpt>
      <trkpt lat="42.2521" lon="1.82038">
        <ele>1485.328</ele>
        <time>2019-04-08T12:28:13Z</time>
      </trkpt>
      <trkpt lat="42.25208" lon="1.82039">
        <ele>1485.299</ele>
        <time>2019-04-08T12:28:14Z</time>
      </trkpt>
      <trkpt lat="42.25206" lon="1.82039">
        <ele>1485.207</ele>
        <time>2019-04-08T12:28:15Z</time>
      </trkpt>
      <trkpt lat="42.25203" lon="1.8204">
        <ele>1486.227</ele>
        <time>2019-04-08T12:28:16Z</time>
      </trkpt>
      <trkpt lat="42.25201" lon="1.82042">
        <ele>1486.308</ele>
        <time>2019-04-08T12:28:17Z</time>
      </trkpt>
      <trkpt lat="42.25199" lon="1.82043">
        <ele>1486.352</ele>
        <time>2019-04-08T12:28:18Z</time>
      </trkpt>
      <trkpt lat="42.25196" lon="1.82044">
        <ele>1486.334</ele>
        <time>2019-04-08T12:28:19Z</time>
      </trkpt>
      <trkpt lat="42.25194" lon="1.82046">
        <ele>1486.279</ele>
        <time>2019-04-08T12:28:20Z</time>
      </trkpt>
      <trkpt lat="42.25192" lon="1.82047">
        <ele>1486.12</ele>
        <time>2019-04-08T12:28:21Z</time>
      </trkpt>
      <trkpt lat="42.2519" lon="1.82047">
        <ele>1486.15</ele>
        <time>2019-04-08T12:28:22Z</time>
      </trkpt>
      <trkpt lat="42.25188" lon="1.82049">
        <ele>1487.284</ele>
        <time>2019-04-08T12:28:23Z</time>
      </trkpt>
      <trkpt lat="42.25186" lon="1.82051">
        <ele>1488.413</ele>
        <time>2019-04-08T12:28:24Z</time>
      </trkpt>
      <trkpt lat="42.25184" lon="1.82053">
        <ele>1488.375</ele>
        <time>2019-04-08T12:28:25Z</time>
      </trkpt>
      <trkpt lat="42.25182" lon="1.82054">
        <ele>1488.162</ele>
        <time>2019-04-08T12:28:25Z</time>
      </trkpt>
      <trkpt lat="42.2518" lon="1.82055">
        <ele>1488.183</ele>
        <time>2019-04-08T12:28:26Z</time>
      </trkpt>
      <trkpt lat="42.25177" lon="1.82057">
        <ele>1488.311</ele>
        <time>2019-04-08T12:28:28Z</time>
      </trkpt>
      <trkpt lat="42.25175" lon="1.82059">
        <ele>1489.308</ele>
        <time>2019-04-08T12:28:29Z</time>
      </trkpt>
      <trkpt lat="42.25173" lon="1.82061">
        <ele>1489.459</ele>
        <time>2019-04-08T12:28:30Z</time>
      </trkpt>
      <trkpt lat="42.2517" lon="1.82062">
        <ele>1489.231</ele>
        <time>2019-04-08T12:28:31Z</time>
      </trkpt>
      <trkpt lat="42.25168" lon="1.82064">
        <ele>1489.296</ele>
        <time>2019-04-08T12:28:32Z</time>
      </trkpt>
      <trkpt lat="42.25166" lon="1.82066">
        <ele>1489.187</ele>
        <time>2019-04-08T12:28:33Z</time>
      </trkpt>
      <trkpt lat="42.25164" lon="1.82068">
        <ele>1489.267</ele>
        <time>2019-04-08T12:28:34Z</time>
      </trkpt>
      <trkpt lat="42.25162" lon="1.8207">
        <ele>1490.271</ele>
        <time>2019-04-08T12:28:35Z</time>
      </trkpt>
      <trkpt lat="42.2516" lon="1.82073">
        <ele>1490.38</ele>
        <time>2019-04-08T12:28:36Z</time>
      </trkpt>
      <trkpt lat="42.25158" lon="1.82075">
        <ele>1490.122</ele>
        <time>2019-04-08T12:28:37Z</time>
      </trkpt>
      <trkpt lat="42.25155" lon="1.82077">
        <ele>1490.313</ele>
        <time>2019-04-08T12:28:38Z</time>
      </trkpt>
      <trkpt lat="42.25152" lon="1.82079">
        <ele>1490.243</ele>
        <time>2019-04-08T12:28:40Z</time>
      </trkpt>
      <trkpt lat="42.2515" lon="1.82081">
        <ele>1490.107</ele>
        <time>2019-04-08T12:28:41Z</time>
      </trkpt>
      <trkpt lat="42.25148" lon="1.82082">
        <ele>1491.208</ele>
        <time>2019-04-08T12:28:42Z</time>
      </trkpt>
      <trkpt lat="42.25146" lon="1.82084">
        <ele>1491.364</ele>
        <time>2019-04-08T12:28:43Z</time>
      </trkpt>
      <trkpt lat="42.25144" lon="1.82086">
        <ele>1491.186</ele>
        <time>2019-04-08T12:28:44Z</time>
      </trkpt>
      <trkpt lat="42.25143" lon="1.82088">
        <ele>1491.151</ele>
        <time>2019-04-08T12:28:44Z</time>
      </trkpt>
      <trkpt lat="42.25141" lon="1.8209">
        <ele>1491.332</ele>
        <time>2019-04-08T12:28:45Z</time>
      </trkpt>
      <trkpt lat="42.2514" lon="1.82092">
        <ele>1491.362</ele>
        <time>2019-04-08T12:28:46Z</time>
      </trkpt>
      <trkpt lat="42.25139" lon="1.82095">
        <ele>1491.356</ele>
        <time>2019-04-08T12:28:47Z</time>
      </trkpt>
      <trkpt lat="42.25136" lon="1.82096">
        <ele>1491.255</ele>
        <time>2019-04-08T12:28:48Z</time>
      </trkpt>
      <trkpt lat="42.25134" lon="1.82098">
        <ele>1491.127</ele>
        <time>2019-04-08T12:28:49Z</time>
      </trkpt>
      <trkpt lat="42.25132" lon="1.821">
        <ele>1491.246</ele>
        <time>2019-04-08T12:28:50Z</time>
      </trkpt>
      <trkpt lat="42.2513" lon="1.82101">
        <ele>1492.388</ele>
        <time>2019-04-08T12:28:51Z</time>
      </trkpt>
      <trkpt lat="42.25128" lon="1.82104">
        <ele>1492.116</ele>
        <time>2019-04-08T12:28:52Z</time>
      </trkpt>
      <trkpt lat="42.25127" lon="1.82106">
        <ele>1492.108</ele>
        <time>2019-04-08T12:28:53Z</time>
      </trkpt>
      <trkpt lat="42.25126" lon="1.82109">
        <ele>1492.217</ele>
        <time>2019-04-08T12:28:54Z</time>
      </trkpt>
      <trkpt lat="42.25123" lon="1.8211">
        <ele>1492.389</ele>
        <time>2019-04-08T12:28:55Z</time>
      </trkpt>
      <trkpt lat="42.2512" lon="1.82113">
        <ele>1492.254</ele>
        <time>2019-04-08T12:28:56Z</time>
      </trkpt>
      <trkpt lat="42.25117" lon="1.82115">
        <ele>1492.155</ele>
        <time>2019-04-08T12:28:58Z</time>
      </trkpt>
      <trkpt lat="42.25115" lon="1.82118">
        <ele>1492.235</ele>
        <time>2019-04-08T12:28:59Z</time>
      </trkpt>
      <trkpt lat="42.25112" lon="1.8212">
        <ele>1492.119</ele>
        <time>2019-04-08T12:29:00Z</time>
      </trkpt>
      <trkpt lat="42.2511" lon="1.82122">
        <ele>1492.158</ele>
        <time>2019-04-08T12:29:01Z</time>
      </trkpt>
      <trkpt lat="42.25108" lon="1.82125">
        <ele>1492.19</ele>
        <time>2019-04-08T12:29:02Z</time>
      </trkpt>
      <trkpt lat="42.25107" lon="1.82129">
        <ele>1493.162</ele>
        <time>2019-04-08T12:29:03Z</time>
      </trkpt>
      <trkpt lat="42.25106" lon="1.82132">
        <ele>1494.283</ele>
        <time>2019-04-08T12:29:04Z</time>
      </trkpt>
      <trkpt lat="42.25104" lon="1.82135">
        <ele>1494.111</ele>
        <time>2019-04-08T12:29:06Z</time>
      </trkpt>
      <trkpt lat="42.25103" lon="1.82136">
        <ele>1494.208</ele>
        <time>2019-04-08T12:29:06Z</time>
      </trkpt>
      <trkpt lat="42.251" lon="1.82138">
        <ele>1494.319</ele>
        <time>2019-04-08T12:29:08Z</time>
      </trkpt>
      <trkpt lat="42.25099" lon="1.8214">
        <ele>1494.381</ele>
        <time>2019-04-08T12:29:08Z</time>
      </trkpt>
      <trkpt lat="42.25096" lon="1.82143">
        <ele>1494.066</ele>
        <time>2019-04-08T12:29:10Z</time>
      </trkpt>
      <trkpt lat="42.25094" lon="1.82146">
        <ele>1494.287</ele>
        <time>2019-04-08T12:29:11Z</time>
      </trkpt>
      <trkpt lat="42.25093" lon="1.8215">
        <ele>1494.227</ele>
        <time>2019-04-08T12:29:12Z</time>
      </trkpt>
      <trkpt lat="42.25092" lon="1.82154">
        <ele>1494.241</ele>
        <time>2019-04-08T12:29:14Z</time>
      </trkpt>
      <trkpt lat="42.2509" lon="1.82157">
        <ele>1494.36</ele>
        <time>2019-04-08T12:29:14Z</time>
      </trkpt>
      <trkpt lat="42.25089" lon="1.8216">
        <ele>1494.222</ele>
        <time>2019-04-08T12:29:16Z</time>
      </trkpt>
      <trkpt lat="42.25087" lon="1.82163">
        <ele>1494.287</ele>
        <time>2019-04-08T12:29:17Z</time>
      </trkpt>
      <trkpt lat="42.25087" lon="1.82167">
        <ele>1494.242</ele>
        <time>2019-04-08T12:29:18Z</time>
      </trkpt>
      <trkpt lat="42.25085" lon="1.82171">
        <ele>1494.226</ele>
        <time>2019-04-08T12:29:19Z</time>
      </trkpt>
      <trkpt lat="42.25084" lon="1.82174">
        <ele>1493.208</ele>
        <time>2019-04-08T12:29:20Z</time>
      </trkpt>
      <trkpt lat="42.25083" lon="1.82178">
        <ele>1493.131</ele>
        <time>2019-04-08T12:29:21Z</time>
      </trkpt>
      <trkpt lat="42.25081" lon="1.82181">
        <ele>1493.193</ele>
        <time>2019-04-08T12:29:22Z</time>
      </trkpt>
      <trkpt lat="42.2508" lon="1.82184">
        <ele>1493.298</ele>
        <time>2019-04-08T12:29:24Z</time>
      </trkpt>
      <trkpt lat="42.2508" lon="1.82187">
        <ele>1492.389</ele>
        <time>2019-04-08T12:29:24Z</time>
      </trkpt>
      <trkpt lat="42.25078" lon="1.8219">
        <ele>1492.189</ele>
        <time>2019-04-08T12:29:26Z</time>
      </trkpt>
      <trkpt lat="42.25078" lon="1.82193">
        <ele>1492.283</ele>
        <time>2019-04-08T12:29:26Z</time>
      </trkpt>
      <trkpt lat="42.25077" lon="1.82197">
        <ele>1493.412</ele>
        <time>2019-04-08T12:29:28Z</time>
      </trkpt>
      <trkpt lat="42.25077" lon="1.82201">
        <ele>1493.124</ele>
        <time>2019-04-08T12:29:29Z</time>
      </trkpt>
      <trkpt lat="42.25076" lon="1.82205">
        <ele>1492.142</ele>
        <time>2019-04-08T12:29:30Z</time>
      </trkpt>
      <trkpt lat="42.25076" lon="1.82208">
        <ele>1491.322</ele>
        <time>2019-04-08T12:29:31Z</time>
      </trkpt>
      <trkpt lat="42.25077" lon="1.82211">
        <ele>1491.314</ele>
        <time>2019-04-08T12:29:32Z</time>
      </trkpt>
      <trkpt lat="42.25076" lon="1.82215">
        <ele>1491.108</ele>
        <time>2019-04-08T12:29:33Z</time>
      </trkpt>
      <trkpt lat="42.25075" lon="1.82218">
        <ele>1492.217</ele>
        <time>2019-04-08T12:29:34Z</time>
      </trkpt>
      <trkpt lat="42.25073" lon="1.82221">
        <ele>1492.269</ele>
        <time>2019-04-08T12:29:35Z</time>
      </trkpt>
      <trkpt lat="42.25072" lon="1.82224">
        <ele>1492.254</ele>
        <time>2019-04-08T12:29:36Z</time>
      </trkpt>
      <trkpt lat="42.25072" lon="1.82228">
        <ele>1492.025</ele>
        <time>2019-04-08T12:29:37Z</time>
      </trkpt>
      <trkpt lat="42.25071" lon="1.82232">
        <ele>1492.245</ele>
        <time>2019-04-08T12:29:38Z</time>
      </trkpt>
      <trkpt lat="42.2507" lon="1.82236">
        <ele>1492.269</ele>
        <time>2019-04-08T12:29:40Z</time>
      </trkpt>
      <trkpt lat="42.25069" lon="1.82239">
        <ele>1492.268</ele>
        <time>2019-04-08T12:29:41Z</time>
      </trkpt>
      <trkpt lat="42.25068" lon="1.82243">
        <ele>1492.16</ele>
        <time>2019-04-08T12:29:42Z</time>
      </trkpt>
      <trkpt lat="42.25068" lon="1.82247">
        <ele>1492.321</ele>
        <time>2019-04-08T12:29:43Z</time>
      </trkpt>
      <trkpt lat="42.25066" lon="1.8225">
        <ele>1493.041</ele>
        <time>2019-04-08T12:29:44Z</time>
      </trkpt>
      <trkpt lat="42.25065" lon="1.82253">
        <ele>1493.205</ele>
        <time>2019-04-08T12:29:45Z</time>
      </trkpt>
      <trkpt lat="42.25064" lon="1.82255">
        <ele>1493.408</ele>
        <time>2019-04-08T12:29:46Z</time>
      </trkpt>
      <trkpt lat="42.25063" lon="1.82259">
        <ele>1493.365</ele>
        <time>2019-04-08T12:29:47Z</time>
      </trkpt>
      <trkpt lat="42.25061" lon="1.82263">
        <ele>1493.017</ele>
        <time>2019-04-08T12:29:49Z</time>
      </trkpt>
      <trkpt lat="42.2506" lon="1.82266">
        <ele>1493.292</ele>
        <time>2019-04-08T12:29:50Z</time>
      </trkpt>
      <trkpt lat="42.25059" lon="1.82269">
        <ele>1493.273</ele>
        <time>2019-04-08T12:29:51Z</time>
      </trkpt>
      <trkpt lat="42.25058" lon="1.82273">
        <ele>1493.283</ele>
        <time>2019-04-08T12:29:52Z</time>
      </trkpt>
      <trkpt lat="42.25058" lon="1.82277">
        <ele>1493.327</ele>
        <time>2019-04-08T12:29:53Z</time>
      </trkpt>
      <trkpt lat="42.25057" lon="1.82282">
        <ele>1494.236</ele>
        <time>2019-04-08T12:29:54Z</time>
      </trkpt>
      <trkpt lat="42.25056" lon="1.82284">
        <ele>1494.348</ele>
        <time>2019-04-08T12:29:55Z</time>
      </trkpt>
      <trkpt lat="42.25056" lon="1.82288">
        <ele>1494.377</ele>
        <time>2019-04-08T12:29:56Z</time>
      </trkpt>
      <trkpt lat="42.25055" lon="1.82292">
        <ele>1495.161</ele>
        <time>2019-04-08T12:29:58Z</time>
      </trkpt>
      <trkpt lat="42.25054" lon="1.82294">
        <ele>1496.227</ele>
        <time>2019-04-08T12:29:58Z</time>
      </trkpt>
      <trkpt lat="42.25055" lon="1.82298">
        <ele>1496.208</ele>
        <time>2019-04-08T12:30:00Z</time>
      </trkpt>
      <trkpt lat="42.25054" lon="1.82301">
        <ele>1496.34</ele>
        <time>2019-04-08T12:30:00Z</time>
      </trkpt>
      <trkpt lat="42.25054" lon="1.82304">
        <ele>1496.112</ele>
        <time>2019-04-08T12:30:01Z</time>
      </trkpt>
      <trkpt lat="42.25053" lon="1.82307">
        <ele>1496.157</ele>
        <time>2019-04-08T12:30:02Z</time>
      </trkpt>
      <trkpt lat="42.25053" lon="1.82309">
        <ele>1496.188</ele>
        <time>2019-04-08T12:30:03Z</time>
      </trkpt>
      <trkpt lat="42.25051" lon="1.82311">
        <ele>1496.248</ele>
        <time>2019-04-08T12:30:04Z</time>
      </trkpt>
      <trkpt lat="42.25049" lon="1.82314">
        <ele>1496.212</ele>
        <time>2019-04-08T12:30:05Z</time>
      </trkpt>
      <trkpt lat="42.25048" lon="1.82317">
        <ele>1496.391</ele>
        <time>2019-04-08T12:30:06Z</time>
      </trkpt>
      <trkpt lat="42.25047" lon="1.8232">
        <ele>1495.333</ele>
        <time>2019-04-08T12:30:07Z</time>
      </trkpt>
      <trkpt lat="42.25045" lon="1.82324">
        <ele>1495.278</ele>
        <time>2019-04-08T12:30:08Z</time>
      </trkpt>
      <trkpt lat="42.25043" lon="1.82326">
        <ele>1495.333</ele>
        <time>2019-04-08T12:30:09Z</time>
      </trkpt>
      <trkpt lat="42.25041" lon="1.82329">
        <ele>1495.326</ele>
        <time>2019-04-08T12:30:10Z</time>
      </trkpt>
      <trkpt lat="42.25039" lon="1.82332">
        <ele>1496.208</ele>
        <time>2019-04-08T12:30:12Z</time>
      </trkpt>
      <trkpt lat="42.25038" lon="1.82335">
        <ele>1496.29</ele>
        <time>2019-04-08T12:30:13Z</time>
      </trkpt>
      <trkpt lat="42.25037" lon="1.82338">
        <ele>1496.042</ele>
        <time>2019-04-08T12:30:14Z</time>
      </trkpt>
      <trkpt lat="42.25036" lon="1.82342">
        <ele>1496.127</ele>
        <time>2019-04-08T12:30:15Z</time>
      </trkpt>
      <trkpt lat="42.25034" lon="1.82345">
        <ele>1496.328</ele>
        <time>2019-04-08T12:30:16Z</time>
      </trkpt>
      <trkpt lat="42.25033" lon="1.82348">
        <ele>1496.088</ele>
        <time>2019-04-08T12:30:17Z</time>
      </trkpt>
      <trkpt lat="42.25032" lon="1.82352">
        <ele>1496.342</ele>
        <time>2019-04-08T12:30:18Z</time>
      </trkpt>
      <trkpt lat="42.25031" lon="1.82356">
        <ele>1496.311</ele>
        <time>2019-04-08T12:30:20Z</time>
      </trkpt>
      <trkpt lat="42.2503" lon="1.8236">
        <ele>1496.463</ele>
        <time>2019-04-08T12:30:21Z</time>
      </trkpt>
      <trkpt lat="42.25029" lon="1.82363">
        <ele>1496.357</ele>
        <time>2019-04-08T12:30:22Z</time>
      </trkpt>
      <trkpt lat="42.25028" lon="1.82366">
        <ele>1496.2</ele>
        <time>2019-04-08T12:30:23Z</time>
      </trkpt>
      <trkpt lat="42.25027" lon="1.82369">
        <ele>1496.22</ele>
        <time>2019-04-08T12:30:24Z</time>
      </trkpt>
      <trkpt lat="42.25026" lon="1.82373">
        <ele>1496.108</ele>
        <time>2019-04-08T12:30:25Z</time>
      </trkpt>
      <trkpt lat="42.25026" lon="1.82377">
        <ele>1496.168</ele>
        <time>2019-04-08T12:30:26Z</time>
      </trkpt>
      <trkpt lat="42.25026" lon="1.8238">
        <ele>1496.03</ele>
        <time>2019-04-08T12:30:27Z</time>
      </trkpt>
      <trkpt lat="42.25025" lon="1.82383">
        <ele>1496.035</ele>
        <time>2019-04-08T12:30:28Z</time>
      </trkpt>
      <trkpt lat="42.25023" lon="1.82387">
        <ele>1497.156</ele>
        <time>2019-04-08T12:30:29Z</time>
      </trkpt>
      <trkpt lat="42.25022" lon="1.8239">
        <ele>1497.246</ele>
        <time>2019-04-08T12:30:30Z</time>
      </trkpt>
      <trkpt lat="42.2502" lon="1.82393">
        <ele>1497.29</ele>
        <time>2019-04-08T12:30:32Z</time>
      </trkpt>
      <trkpt lat="42.2502" lon="1.82397">
        <ele>1498.419</ele>
        <time>2019-04-08T12:30:33Z</time>
      </trkpt>
      <trkpt lat="42.25019" lon="1.82401">
        <ele>1498.191</ele>
        <time>2019-04-08T12:30:34Z</time>
      </trkpt>
      <trkpt lat="42.25018" lon="1.82403">
        <ele>1498.272</ele>
        <time>2019-04-08T12:30:35Z</time>
      </trkpt>
      <trkpt lat="42.25017" lon="1.82406">
        <ele>1498.313</ele>
        <time>2019-04-08T12:30:36Z</time>
      </trkpt>
      <trkpt lat="42.25015" lon="1.82411">
        <ele>1498.314</ele>
        <time>2019-04-08T12:30:37Z</time>
      </trkpt>
      <trkpt lat="42.25014" lon="1.82414">
        <ele>1498.208</ele>
        <time>2019-04-08T12:30:38Z</time>
      </trkpt>
      <trkpt lat="42.25012" lon="1.82416">
        <ele>1498.39</ele>
        <time>2019-04-08T12:30:39Z</time>
      </trkpt>
      <trkpt lat="42.2501" lon="1.8242">
        <ele>1498.182</ele>
        <time>2019-04-08T12:30:41Z</time>
      </trkpt>
      <trkpt lat="42.25008" lon="1.82421">
        <ele>1498.177</ele>
        <time>2019-04-08T12:30:41Z</time>
      </trkpt>
      <trkpt lat="42.25006" lon="1.82424">
        <ele>1498.348</ele>
        <time>2019-04-08T12:30:43Z</time>
      </trkpt>
      <trkpt lat="42.25004" lon="1.82426">
        <ele>1498.328</ele>
        <time>2019-04-08T12:30:44Z</time>
      </trkpt>
      <trkpt lat="42.25003" lon="1.8243">
        <ele>1498.092</ele>
        <time>2019-04-08T12:30:45Z</time>
      </trkpt>
      <trkpt lat="42.25001" lon="1.82433">
        <ele>1499.181</ele>
        <time>2019-04-08T12:30:46Z</time>
      </trkpt>
      <trkpt lat="42.24999" lon="1.82437">
        <ele>1499.323</ele>
        <time>2019-04-08T12:30:47Z</time>
      </trkpt>
      <trkpt lat="42.24998" lon="1.82439">
        <ele>1499.224</ele>
        <time>2019-04-08T12:30:48Z</time>
      </trkpt>
      <trkpt lat="42.24996" lon="1.82443">
        <ele>1499.104</ele>
        <time>2019-04-08T12:30:49Z</time>
      </trkpt>
      <trkpt lat="42.24995" lon="1.82446">
        <ele>1499.314</ele>
        <time>2019-04-08T12:30:50Z</time>
      </trkpt>
      <trkpt lat="42.24994" lon="1.82449">
        <ele>1499.208</ele>
        <time>2019-04-08T12:30:52Z</time>
      </trkpt>
      <trkpt lat="42.24992" lon="1.82452">
        <ele>1498.345</ele>
        <time>2019-04-08T12:30:53Z</time>
      </trkpt>
      <trkpt lat="42.24991" lon="1.82455">
        <ele>1498.167</ele>
        <time>2019-04-08T12:30:54Z</time>
      </trkpt>
      <trkpt lat="42.24989" lon="1.82458">
        <ele>1498.182</ele>
        <time>2019-04-08T12:30:55Z</time>
      </trkpt>
      <trkpt lat="42.24987" lon="1.82462">
        <ele>1498.073</ele>
        <time>2019-04-08T12:30:56Z</time>
      </trkpt>
      <trkpt lat="42.24986" lon="1.82465">
        <ele>1498.183</ele>
        <time>2019-04-08T12:30:57Z</time>
      </trkpt>
      <trkpt lat="42.24984" lon="1.82469">
        <ele>1497.267</ele>
        <time>2019-04-08T12:30:59Z</time>
      </trkpt>
      <trkpt lat="42.24982" lon="1.82471">
        <ele>1497.326</ele>
        <time>2019-04-08T12:31:00Z</time>
      </trkpt>
      <trkpt lat="42.24981" lon="1.82473">
        <ele>1498.358</ele>
        <time>2019-04-08T12:31:00Z</time>
      </trkpt>
      <trkpt lat="42.24979" lon="1.82476">
        <ele>1498.137</ele>
        <time>2019-04-08T12:31:02Z</time>
      </trkpt>
      <trkpt lat="42.24977" lon="1.8248">
        <ele>1499.049</ele>
        <time>2019-04-08T12:31:03Z</time>
      </trkpt>
      <trkpt lat="42.24976" lon="1.82483">
        <ele>1499.113</ele>
        <time>2019-04-08T12:31:04Z</time>
      </trkpt>
      <trkpt lat="42.24974" lon="1.82486">
        <ele>1498.308</ele>
        <time>2019-04-08T12:31:05Z</time>
      </trkpt>
      <trkpt lat="42.24971" lon="1.82489">
        <ele>1498.386</ele>
        <time>2019-04-08T12:31:06Z</time>
      </trkpt>
      <trkpt lat="42.24969" lon="1.82491">
        <ele>1498.038</ele>
        <time>2019-04-08T12:31:08Z</time>
      </trkpt>
      <trkpt lat="42.24967" lon="1.82494">
        <ele>1497.153</ele>
        <time>2019-04-08T12:31:09Z</time>
      </trkpt>
      <trkpt lat="42.24965" lon="1.82496">
        <ele>1497.274</ele>
        <time>2019-04-08T12:31:10Z</time>
      </trkpt>
      <trkpt lat="42.24964" lon="1.82499">
        <ele>1497.294</ele>
        <time>2019-04-08T12:31:11Z</time>
      </trkpt>
      <trkpt lat="42.24963" lon="1.82501">
        <ele>1497.168</ele>
        <time>2019-04-08T12:31:12Z</time>
      </trkpt>
      <trkpt lat="42.2496" lon="1.82503">
        <ele>1497.237</ele>
        <time>2019-04-08T12:31:13Z</time>
      </trkpt>
      <trkpt lat="42.24958" lon="1.82505">
        <ele>1497.399</ele>
        <time>2019-04-08T12:31:14Z</time>
      </trkpt>
      <trkpt lat="42.24957" lon="1.82507">
        <ele>1497.167</ele>
        <time>2019-04-08T12:31:15Z</time>
      </trkpt>
      <trkpt lat="42.24956" lon="1.8251">
        <ele>1497.381</ele>
        <time>2019-04-08T12:31:16Z</time>
      </trkpt>
      <trkpt lat="42.24954" lon="1.82512">
        <ele>1497.219</ele>
        <time>2019-04-08T12:31:16Z</time>
      </trkpt>
      <trkpt lat="42.24953" lon="1.82514">
        <ele>1497.208</ele>
        <time>2019-04-08T12:31:17Z</time>
      </trkpt>
      <trkpt lat="42.24951" lon="1.82516">
        <ele>1498.189</ele>
        <time>2019-04-08T12:31:18Z</time>
      </trkpt>
      <trkpt lat="42.24948" lon="1.82518">
        <ele>1498.121</ele>
        <time>2019-04-08T12:31:19Z</time>
      </trkpt>
      <trkpt lat="42.24946" lon="1.8252">
        <ele>1498.186</ele>
        <time>2019-04-08T12:31:20Z</time>
      </trkpt>
      <trkpt lat="42.24944" lon="1.82521">
        <ele>1498.147</ele>
        <time>2019-04-08T12:31:21Z</time>
      </trkpt>
      <trkpt lat="42.24942" lon="1.82523">
        <ele>1498.397</ele>
        <time>2019-04-08T12:31:22Z</time>
      </trkpt>
      <trkpt lat="42.2494" lon="1.82525">
        <ele>1498.121</ele>
        <time>2019-04-08T12:31:23Z</time>
      </trkpt>
      <trkpt lat="42.24939" lon="1.82528">
        <ele>1497.41</ele>
        <time>2019-04-08T12:31:24Z</time>
      </trkpt>
      <trkpt lat="42.24937" lon="1.8253">
        <ele>1497.372</ele>
        <time>2019-04-08T12:31:25Z</time>
      </trkpt>
      <trkpt lat="42.24931" lon="1.82534">
        <ele>1496.013</ele>
        <time>2019-04-08T12:31:28Z</time>
      </trkpt>
      <trkpt lat="42.24928" lon="1.82536">
        <ele>1496.243</ele>
        <time>2019-04-08T12:31:29Z</time>
      </trkpt>
      <trkpt lat="42.24927" lon="1.82537">
        <ele>1496.307</ele>
        <time>2019-04-08T12:31:30Z</time>
      </trkpt>
      <trkpt lat="42.24919" lon="1.82546">
        <ele>1496.308</ele>
        <time>2019-04-08T12:31:34Z</time>
      </trkpt>
      <trkpt lat="42.24917" lon="1.82547">
        <ele>1496.334</ele>
        <time>2019-04-08T12:31:35Z</time>
      </trkpt>
      <trkpt lat="42.24916" lon="1.82549">
        <ele>1497.116</ele>
        <time>2019-04-08T12:31:35Z</time>
      </trkpt>
      <trkpt lat="42.24914" lon="1.8255">
        <ele>1497.111</ele>
        <time>2019-04-08T12:31:36Z</time>
      </trkpt>
      <trkpt lat="42.24912" lon="1.82552">
        <ele>1497.812</ele>
        <time>2019-04-08T12:31:37Z</time>
      </trkpt>
      <trkpt lat="42.2491" lon="1.82555">
        <ele>1498.372</ele>
        <time>2019-04-08T12:31:38Z</time>
      </trkpt>
      <trkpt lat="42.24909" lon="1.82557">
        <ele>1499.216</ele>
        <time>2019-04-08T12:31:39Z</time>
      </trkpt>
      <trkpt lat="42.24909" lon="1.8256">
        <ele>1499.365</ele>
        <time>2019-04-08T12:31:40Z</time>
      </trkpt>
      <trkpt lat="42.24907" lon="1.82563">
        <ele>1499.197</ele>
        <time>2019-04-08T12:31:41Z</time>
      </trkpt>
      <trkpt lat="42.24906" lon="1.82566">
        <ele>1500.143</ele>
        <time>2019-04-08T12:31:42Z</time>
      </trkpt>
      <trkpt lat="42.24905" lon="1.82569">
        <ele>1500.164</ele>
        <time>2019-04-08T12:31:43Z</time>
      </trkpt>
      <trkpt lat="42.24903" lon="1.8257">
        <ele>1500.21</ele>
        <time>2019-04-08T12:31:44Z</time>
      </trkpt>
      <trkpt lat="42.24901" lon="1.82573">
        <ele>1500.308</ele>
        <time>2019-04-08T12:31:45Z</time>
      </trkpt>
      <trkpt lat="42.24899" lon="1.82574">
        <ele>1500.247</ele>
        <time>2019-04-08T12:31:46Z</time>
      </trkpt>
      <trkpt lat="42.2489" lon="1.82581">
        <ele>1500.289</ele>
        <time>2019-04-08T12:31:50Z</time>
      </trkpt>
      <trkpt lat="42.2488" lon="1.82586">
        <ele>1500.084</ele>
        <time>2019-04-08T12:31:54Z</time>
      </trkpt>
      <trkpt lat="42.2487" lon="1.82589">
        <ele>1500.255</ele>
        <time>2019-04-08T12:31:59Z</time>
      </trkpt>
      <trkpt lat="42.24866" lon="1.82589">
        <ele>1500.255</ele>
        <time>2019-04-08T12:32:00Z</time>
      </trkpt>
      <trkpt lat="42.24856" lon="1.82591">
        <ele>1499.149</ele>
        <time>2019-04-08T12:32:04Z</time>
      </trkpt>
      <trkpt lat="42.24846" lon="1.82593">
        <ele>1497.318</ele>
        <time>2019-04-08T12:32:08Z</time>
      </trkpt>
      <trkpt lat="42.24844" lon="1.82593">
        <ele>1497.48</ele>
        <time>2019-04-08T12:32:09Z</time>
      </trkpt>
      <trkpt lat="42.24834" lon="1.82594">
        <ele>1496.225</ele>
        <time>2019-04-08T12:32:13Z</time>
      </trkpt>
      <trkpt lat="42.24826" lon="1.82595">
        <ele>1495.126</ele>
        <time>2019-04-08T12:32:16Z</time>
      </trkpt>
      <trkpt lat="42.24824" lon="1.82594">
        <ele>1495.108</ele>
        <time>2019-04-08T12:32:17Z</time>
      </trkpt>
      <trkpt lat="42.24822" lon="1.82594">
        <ele>1494.208</ele>
        <time>2019-04-08T12:32:18Z</time>
      </trkpt>
      <trkpt lat="42.24819" lon="1.82594">
        <ele>1493.255</ele>
        <time>2019-04-08T12:32:19Z</time>
      </trkpt>
      <trkpt lat="42.24817" lon="1.82595">
        <ele>1493.177</ele>
        <time>2019-04-08T12:32:20Z</time>
      </trkpt>
      <trkpt lat="42.24814" lon="1.82596">
        <ele>1492.122</ele>
        <time>2019-04-08T12:32:21Z</time>
      </trkpt>
      <trkpt lat="42.24812" lon="1.82596">
        <ele>1492.253</ele>
        <time>2019-04-08T12:32:22Z</time>
      </trkpt>
      <trkpt lat="42.2481" lon="1.82597">
        <ele>1492.163</ele>
        <time>2019-04-08T12:32:23Z</time>
      </trkpt>
      <trkpt lat="42.24807" lon="1.82597">
        <ele>1491.057</ele>
        <time>2019-04-08T12:32:24Z</time>
      </trkpt>
      <trkpt lat="42.24805" lon="1.82597">
        <ele>1491.286</ele>
        <time>2019-04-08T12:32:25Z</time>
      </trkpt>
      <trkpt lat="42.24803" lon="1.82597">
        <ele>1491.118</ele>
        <time>2019-04-08T12:32:25Z</time>
      </trkpt>
      <trkpt lat="42.24801" lon="1.82598">
        <ele>1491.164</ele>
        <time>2019-04-08T12:32:26Z</time>
      </trkpt>
      <trkpt lat="42.24798" lon="1.82599">
        <ele>1488.106</ele>
        <time>2019-04-08T12:32:28Z</time>
      </trkpt>
      <trkpt lat="42.24796" lon="1.82599">
        <ele>1488.216</ele>
        <time>2019-04-08T12:32:28Z</time>
      </trkpt>
      <trkpt lat="42.24794" lon="1.826">
        <ele>1488.108</ele>
        <time>2019-04-08T12:32:29Z</time>
      </trkpt>
      <trkpt lat="42.24791" lon="1.82601">
        <ele>1488.449</ele>
        <time>2019-04-08T12:32:30Z</time>
      </trkpt>
      <trkpt lat="42.24789" lon="1.82602">
        <ele>1488.111</ele>
        <time>2019-04-08T12:32:31Z</time>
      </trkpt>
      <trkpt lat="42.24788" lon="1.82603">
        <ele>1488.266</ele>
        <time>2019-04-08T12:32:32Z</time>
      </trkpt>
      <trkpt lat="42.24786" lon="1.82604">
        <ele>1488.127</ele>
        <time>2019-04-08T12:32:33Z</time>
      </trkpt>
      <trkpt lat="42.24783" lon="1.82605">
        <ele>1488.127</ele>
        <time>2019-04-08T12:32:34Z</time>
      </trkpt>
      <trkpt lat="42.24779" lon="1.82606">
        <ele>1487.291</ele>
        <time>2019-04-08T12:32:35Z</time>
      </trkpt>
      <trkpt lat="42.24773" lon="1.82608">
        <ele>1486.33</ele>
        <time>2019-04-08T12:32:38Z</time>
      </trkpt>
      <trkpt lat="42.24771" lon="1.82608">
        <ele>1485.272</ele>
        <time>2019-04-08T12:32:39Z</time>
      </trkpt>
      <trkpt lat="42.24769" lon="1.82608">
        <ele>1485.199</ele>
        <time>2019-04-08T12:32:40Z</time>
      </trkpt>
      <trkpt lat="42.24765" lon="1.82607">
        <ele>1484.107</ele>
        <time>2019-04-08T12:32:41Z</time>
      </trkpt>
      <trkpt lat="42.24763" lon="1.82607">
        <ele>1482.227</ele>
        <time>2019-04-08T12:32:42Z</time>
      </trkpt>
      <trkpt lat="42.2476" lon="1.82607">
        <ele>1481.108</ele>
        <time>2019-04-08T12:32:43Z</time>
      </trkpt>
      <trkpt lat="42.24758" lon="1.82607">
        <ele>1481.112</ele>
        <time>2019-04-08T12:32:44Z</time>
      </trkpt>
      <trkpt lat="42.24754" lon="1.82606">
        <ele>1481.244</ele>
        <time>2019-04-08T12:32:45Z</time>
      </trkpt>
      <trkpt lat="42.24749" lon="1.82605">
        <ele>1481.239</ele>
        <time>2019-04-08T12:32:48Z</time>
      </trkpt>
      <trkpt lat="42.24746" lon="1.82604">
        <ele>1481.06</ele>
        <time>2019-04-08T12:32:49Z</time>
      </trkpt>
      <trkpt lat="42.24744" lon="1.82603">
        <ele>1480.13</ele>
        <time>2019-04-08T12:32:50Z</time>
      </trkpt>
      <trkpt lat="42.24742" lon="1.82602">
        <ele>1480.224</ele>
        <time>2019-04-08T12:32:51Z</time>
      </trkpt>
      <trkpt lat="42.24739" lon="1.82599">
        <ele>1479.293</ele>
        <time>2019-04-08T12:32:52Z</time>
      </trkpt>
      <trkpt lat="42.24738" lon="1.82597">
        <ele>1478.065</ele>
        <time>2019-04-08T12:32:53Z</time>
      </trkpt>
      <trkpt lat="42.24736" lon="1.82596">
        <ele>1478.297</ele>
        <time>2019-04-08T12:32:54Z</time>
      </trkpt>
      <trkpt lat="42.24734" lon="1.82595">
        <ele>1478.223</ele>
        <time>2019-04-08T12:32:54Z</time>
      </trkpt>
      <trkpt lat="42.24732" lon="1.82594">
        <ele>1477.125</ele>
        <time>2019-04-08T12:32:55Z</time>
      </trkpt>
      <trkpt lat="42.2473" lon="1.82594">
        <ele>1477.108</ele>
        <time>2019-04-08T12:32:56Z</time>
      </trkpt>
      <trkpt lat="42.24728" lon="1.82593">
        <ele>1477.252</ele>
        <time>2019-04-08T12:32:57Z</time>
      </trkpt>
      <trkpt lat="42.24727" lon="1.82591">
        <ele>1476.914</ele>
        <time>2019-04-08T12:32:58Z</time>
      </trkpt>
      <trkpt lat="42.24725" lon="1.82591">
        <ele>1474.129</ele>
        <time>2019-04-08T12:32:59Z</time>
      </trkpt>
      <trkpt lat="42.24723" lon="1.8259">
        <ele>1473.15</ele>
        <time>2019-04-08T12:32:59Z</time>
      </trkpt>
      <trkpt lat="42.24721" lon="1.82589">
        <ele>1473.22</ele>
        <time>2019-04-08T12:33:00Z</time>
      </trkpt>
      <trkpt lat="42.24718" lon="1.82589">
        <ele>1473.124</ele>
        <time>2019-04-08T12:33:01Z</time>
      </trkpt>
      <trkpt lat="42.24716" lon="1.82589">
        <ele>1472.283</ele>
        <time>2019-04-08T12:33:02Z</time>
      </trkpt>
      <trkpt lat="42.24715" lon="1.8259">
        <ele>1471.295</ele>
        <time>2019-04-08T12:33:03Z</time>
      </trkpt>
      <trkpt lat="42.24711" lon="1.8259">
        <ele>1470.198</ele>
        <time>2019-04-08T12:33:04Z</time>
      </trkpt>
      <trkpt lat="42.24709" lon="1.8259">
        <ele>1469.215</ele>
        <time>2019-04-08T12:33:05Z</time>
      </trkpt>
      <trkpt lat="42.24707" lon="1.82591">
        <ele>1469.126</ele>
        <time>2019-04-08T12:33:06Z</time>
      </trkpt>
      <trkpt lat="42.24702" lon="1.82592">
        <ele>1469.108</ele>
        <time>2019-04-08T12:33:08Z</time>
      </trkpt>
      <trkpt lat="42.24701" lon="1.82591">
        <ele>1468.262</ele>
        <time>2019-04-08T12:33:08Z</time>
      </trkpt>
      <trkpt lat="42.24699" lon="1.82591">
        <ele>1468.024</ele>
        <time>2019-04-08T12:33:09Z</time>
      </trkpt>
      <trkpt lat="42.24696" lon="1.82591">
        <ele>1468.029</ele>
        <time>2019-04-08T12:33:10Z</time>
      </trkpt>
      <trkpt lat="42.24694" lon="1.82591">
        <ele>1467.23</ele>
        <time>2019-04-08T12:33:11Z</time>
      </trkpt>
      <trkpt lat="42.2469" lon="1.82591">
        <ele>1466.38</ele>
        <time>2019-04-08T12:33:12Z</time>
      </trkpt>
      <trkpt lat="42.24688" lon="1.82591">
        <ele>1466.294</ele>
        <time>2019-04-08T12:33:13Z</time>
      </trkpt>
      <trkpt lat="42.24685" lon="1.8259">
        <ele>1466.383</ele>
        <time>2019-04-08T12:33:15Z</time>
      </trkpt>
      <trkpt lat="42.24682" lon="1.8259">
        <ele>1466.295</ele>
        <time>2019-04-08T12:33:16Z</time>
      </trkpt>
      <trkpt lat="42.2468" lon="1.8259">
        <ele>1466.167</ele>
        <time>2019-04-08T12:33:17Z</time>
      </trkpt>
      <trkpt lat="42.24677" lon="1.82589">
        <ele>1466.181</ele>
        <time>2019-04-08T12:33:18Z</time>
      </trkpt>
      <trkpt lat="42.24675" lon="1.82587">
        <ele>1466.219</ele>
        <time>2019-04-08T12:33:19Z</time>
      </trkpt>
      <trkpt lat="42.24643" lon="1.82556">
        <ele>1469.108</ele>
        <time>2019-04-08T12:33:35Z</time>
      </trkpt>
      <trkpt lat="42.24644" lon="1.82543">
        <ele>1467.149</ele>
        <time>2019-04-08T12:33:38Z</time>
      </trkpt>
      <trkpt lat="42.2464" lon="1.82532">
        <ele>1466.191</ele>
        <time>2019-04-08T12:33:42Z</time>
      </trkpt>
      <trkpt lat="42.24636" lon="1.82521">
        <ele>1466.276</ele>
        <time>2019-04-08T12:33:46Z</time>
      </trkpt>
      <trkpt lat="42.24635" lon="1.82509">
        <ele>1466.167</ele>
        <time>2019-04-08T12:33:50Z</time>
      </trkpt>
      <trkpt lat="42.24635" lon="1.82496">
        <ele>1466.257</ele>
        <time>2019-04-08T12:33:53Z</time>
      </trkpt>
      <trkpt lat="42.24638" lon="1.82484">
        <ele>1466.291</ele>
        <time>2019-04-08T12:33:57Z</time>
      </trkpt>
      <trkpt lat="42.24633" lon="1.82473">
        <ele>1466.17</ele>
        <time>2019-04-08T12:34:01Z</time>
      </trkpt>
      <trkpt lat="42.24628" lon="1.82462">
        <ele>1467.122</ele>
        <time>2019-04-08T12:34:05Z</time>
      </trkpt>
      <trkpt lat="42.24626" lon="1.82449">
        <ele>1468.138</ele>
        <time>2019-04-08T12:34:09Z</time>
      </trkpt>
      <trkpt lat="42.24621" lon="1.82438">
        <ele>1469.07</ele>
        <time>2019-04-08T12:34:13Z</time>
      </trkpt>
      <trkpt lat="42.24618" lon="1.82426">
        <ele>1469.317</ele>
        <time>2019-04-08T12:34:16Z</time>
      </trkpt>
      <trkpt lat="42.24613" lon="1.82415">
        <ele>1472.208</ele>
        <time>2019-04-08T12:34:20Z</time>
      </trkpt>
      <trkpt lat="42.24607" lon="1.82403">
        <ele>1473.386</ele>
        <time>2019-04-08T12:34:24Z</time>
      </trkpt>
      <trkpt lat="42.24602" lon="1.8239">
        <ele>1475.218</ele>
        <time>2019-04-08T12:34:29Z</time>
      </trkpt>
      <trkpt lat="42.24597" lon="1.82378">
        <ele>1477.163</ele>
        <time>2019-04-08T12:34:33Z</time>
      </trkpt>
      <trkpt lat="42.24593" lon="1.82367">
        <ele>1478.184</ele>
        <time>2019-04-08T12:34:37Z</time>
      </trkpt>
      <trkpt lat="42.24587" lon="1.82357">
        <ele>1480.124</ele>
        <time>2019-04-08T12:34:40Z</time>
      </trkpt>
      <trkpt lat="42.2458" lon="1.82344">
        <ele>1481.158</ele>
        <time>2019-04-08T12:34:45Z</time>
      </trkpt>
      <trkpt lat="42.24575" lon="1.82332">
        <ele>1482.247</ele>
        <time>2019-04-08T12:34:49Z</time>
      </trkpt>
      <trkpt lat="42.24573" lon="1.82329">
        <ele>1482.219</ele>
        <time>2019-04-08T12:34:50Z</time>
      </trkpt>
      <trkpt lat="42.24572" lon="1.82327">
        <ele>1482.264</ele>
        <time>2019-04-08T12:34:51Z</time>
      </trkpt>
      <trkpt lat="42.2457" lon="1.82324">
        <ele>1484.006</ele>
        <time>2019-04-08T12:34:52Z</time>
      </trkpt>
      <trkpt lat="42.24568" lon="1.82321">
        <ele>1484.316</ele>
        <time>2019-04-08T12:34:54Z</time>
      </trkpt>
      <trkpt lat="42.24565" lon="1.82318">
        <ele>1485.008</ele>
        <time>2019-04-08T12:34:55Z</time>
      </trkpt>
      <trkpt lat="42.24563" lon="1.82315">
        <ele>1485.259</ele>
        <time>2019-04-08T12:34:56Z</time>
      </trkpt>
      <trkpt lat="42.24561" lon="1.82313">
        <ele>1485.231</ele>
        <time>2019-04-08T12:34:57Z</time>
      </trkpt>
      <trkpt lat="42.24558" lon="1.82311">
        <ele>1486.196</ele>
        <time>2019-04-08T12:34:58Z</time>
      </trkpt>
      <trkpt lat="42.24555" lon="1.8231">
        <ele>1486.127</ele>
        <time>2019-04-08T12:35:00Z</time>
      </trkpt>
      <trkpt lat="42.24553" lon="1.82309">
        <ele>1486.287</ele>
        <time>2019-04-08T12:35:01Z</time>
      </trkpt>
      <trkpt lat="42.2455" lon="1.82308">
        <ele>1486.211</ele>
        <time>2019-04-08T12:35:02Z</time>
      </trkpt>
      <trkpt lat="42.24546" lon="1.82307">
        <ele>1488.26</ele>
        <time>2019-04-08T12:35:03Z</time>
      </trkpt>
      <trkpt lat="42.24543" lon="1.82308">
        <ele>1488.142</ele>
        <time>2019-04-08T12:35:05Z</time>
      </trkpt>
      <trkpt lat="42.24541" lon="1.8231">
        <ele>1488.073</ele>
        <time>2019-04-08T12:35:06Z</time>
      </trkpt>
      <trkpt lat="42.24538" lon="1.82312">
        <ele>1488.185</ele>
        <time>2019-04-08T12:35:07Z</time>
      </trkpt>
      <trkpt lat="42.24535" lon="1.82314">
        <ele>1486.113</ele>
        <time>2019-04-08T12:35:08Z</time>
      </trkpt>
      <trkpt lat="42.24533" lon="1.82317">
        <ele>1486.108</ele>
        <time>2019-04-08T12:35:10Z</time>
      </trkpt>
      <trkpt lat="42.2453" lon="1.82318">
        <ele>1486.15</ele>
        <time>2019-04-08T12:35:11Z</time>
      </trkpt>
      <trkpt lat="42.24529" lon="1.82319">
        <ele>1487.042</ele>
        <time>2019-04-08T12:35:11Z</time>
      </trkpt>
      <trkpt lat="42.24527" lon="1.8232">
        <ele>1487.287</ele>
        <time>2019-04-08T12:35:12Z</time>
      </trkpt>
      <trkpt lat="42.24525" lon="1.82321">
        <ele>1487.098</ele>
        <time>2019-04-08T12:35:13Z</time>
      </trkpt>
      <trkpt lat="42.24523" lon="1.82322">
        <ele>1486.128</ele>
        <time>2019-04-08T12:35:14Z</time>
      </trkpt>
      <trkpt lat="42.24522" lon="1.82325">
        <ele>1486.272</ele>
        <time>2019-04-08T12:35:15Z</time>
      </trkpt>
      <trkpt lat="42.2452" lon="1.82327">
        <ele>1485.121</ele>
        <time>2019-04-08T12:35:15Z</time>
      </trkpt>
      <trkpt lat="42.24518" lon="1.82329">
        <ele>1485.073</ele>
        <time>2019-04-08T12:35:17Z</time>
      </trkpt>
      <trkpt lat="42.24516" lon="1.82331">
        <ele>1484.037</ele>
        <time>2019-04-08T12:35:17Z</time>
      </trkpt>
      <trkpt lat="42.24514" lon="1.82331">
        <ele>1483.149</ele>
        <time>2019-04-08T12:35:18Z</time>
      </trkpt>
      <trkpt lat="42.24512" lon="1.8233">
        <ele>1482.213</ele>
        <time>2019-04-08T12:35:19Z</time>
      </trkpt>
      <trkpt lat="42.2451" lon="1.8233">
        <ele>1482.208</ele>
        <time>2019-04-08T12:35:20Z</time>
      </trkpt>
      <trkpt lat="42.24509" lon="1.8233">
        <ele>1481.156</ele>
        <time>2019-04-08T12:35:21Z</time>
      </trkpt>
      <trkpt lat="42.24506" lon="1.8233">
        <ele>1480.218</ele>
        <time>2019-04-08T12:35:22Z</time>
      </trkpt>
      <trkpt lat="42.24504" lon="1.8233">
        <ele>1480.133</ele>
        <time>2019-04-08T12:35:22Z</time>
      </trkpt>
      <trkpt lat="42.24502" lon="1.82329">
        <ele>1478.184</ele>
        <time>2019-04-08T12:35:23Z</time>
      </trkpt>
      <trkpt lat="42.245" lon="1.8233">
        <ele>1478.374</ele>
        <time>2019-04-08T12:35:24Z</time>
      </trkpt>
      <trkpt lat="42.24498" lon="1.8233">
        <ele>1478.278</ele>
        <time>2019-04-08T12:35:25Z</time>
      </trkpt>
      <trkpt lat="42.24496" lon="1.82329">
        <ele>1478.097</ele>
        <time>2019-04-08T12:35:26Z</time>
      </trkpt>
      <trkpt lat="42.24494" lon="1.82329">
        <ele>1477.099</ele>
        <time>2019-04-08T12:35:27Z</time>
      </trkpt>
      <trkpt lat="42.24492" lon="1.8233">
        <ele>1476.186</ele>
        <time>2019-04-08T12:35:27Z</time>
      </trkpt>
      <trkpt lat="42.24489" lon="1.82329">
        <ele>1476.06</ele>
        <time>2019-04-08T12:35:28Z</time>
      </trkpt>
      <trkpt lat="42.24489" lon="1.82326">
        <ele>1475.126</ele>
        <time>2019-04-08T12:35:29Z</time>
      </trkpt>
      <trkpt lat="42.24489" lon="1.82324">
        <ele>1475.208</ele>
        <time>2019-04-08T12:35:30Z</time>
      </trkpt>
      <trkpt lat="42.24491" lon="1.82322">
        <ele>1474.181</ele>
        <time>2019-04-08T12:35:31Z</time>
      </trkpt>
      <trkpt lat="42.24493" lon="1.8232">
        <ele>1472.323</ele>
        <time>2019-04-08T12:35:32Z</time>
      </trkpt>
      <trkpt lat="42.24495" lon="1.82318">
        <ele>1472.118</ele>
        <time>2019-04-08T12:35:33Z</time>
      </trkpt>
      <trkpt lat="42.24496" lon="1.82316">
        <ele>1471.139</ele>
        <time>2019-04-08T12:35:34Z</time>
      </trkpt>
      <trkpt lat="42.24496" lon="1.82313">
        <ele>1471.129</ele>
        <time>2019-04-08T12:35:34Z</time>
      </trkpt>
      <trkpt lat="42.24497" lon="1.82311">
        <ele>1470.213</ele>
        <time>2019-04-08T12:35:35Z</time>
      </trkpt>
      <trkpt lat="42.24498" lon="1.82309">
        <ele>1469.032</ele>
        <time>2019-04-08T12:35:36Z</time>
      </trkpt>
      <trkpt lat="42.24497" lon="1.82307">
        <ele>1469.144</ele>
        <time>2019-04-08T12:35:37Z</time>
      </trkpt>
      <trkpt lat="42.24494" lon="1.82307">
        <ele>1468.129</ele>
        <time>2019-04-08T12:35:38Z</time>
      </trkpt>
      <trkpt lat="42.24492" lon="1.82308">
        <ele>1468.1</ele>
        <time>2019-04-08T12:35:39Z</time>
      </trkpt>
      <trkpt lat="42.2449" lon="1.82309">
        <ele>1467.32</ele>
        <time>2019-04-08T12:35:40Z</time>
      </trkpt>
      <trkpt lat="42.24488" lon="1.82311">
        <ele>1467.108</ele>
        <time>2019-04-08T12:35:41Z</time>
      </trkpt>
      <trkpt lat="42.24486" lon="1.82312">
        <ele>1466.275</ele>
        <time>2019-04-08T12:35:41Z</time>
      </trkpt>
      <trkpt lat="42.24484" lon="1.82314">
        <ele>1465.767</ele>
        <time>2019-04-08T12:35:42Z</time>
      </trkpt>
      <trkpt lat="42.24481" lon="1.82315">
        <ele>1465.052</ele>
        <time>2019-04-08T12:35:44Z</time>
      </trkpt>
      <trkpt lat="42.24479" lon="1.82316">
        <ele>1464.093</ele>
        <time>2019-04-08T12:35:44Z</time>
      </trkpt>
      <trkpt lat="42.24477" lon="1.82318">
        <ele>1464.213</ele>
        <time>2019-04-08T12:35:46Z</time>
      </trkpt>
      <trkpt lat="42.24474" lon="1.82319">
        <ele>1463.287</ele>
        <time>2019-04-08T12:35:47Z</time>
      </trkpt>
      <trkpt lat="42.24472" lon="1.8232">
        <ele>1463.116</ele>
        <time>2019-04-08T12:35:48Z</time>
      </trkpt>
      <trkpt lat="42.2447" lon="1.82322">
        <ele>1462.098</ele>
        <time>2019-04-08T12:35:48Z</time>
      </trkpt>
      <trkpt lat="42.24468" lon="1.82325">
        <ele>1462.164</ele>
        <time>2019-04-08T12:35:50Z</time>
      </trkpt>
      <trkpt lat="42.24466" lon="1.82325">
        <ele>1462.106</ele>
        <time>2019-04-08T12:35:50Z</time>
      </trkpt>
      <trkpt lat="42.24464" lon="1.82327">
        <ele>1462.216</ele>
        <time>2019-04-08T12:35:51Z</time>
      </trkpt>
      <trkpt lat="42.24462" lon="1.82328">
        <ele>1462.108</ele>
        <time>2019-04-08T12:35:52Z</time>
      </trkpt>
      <trkpt lat="42.2446" lon="1.82331">
        <ele>1461.289</ele>
        <time>2019-04-08T12:35:53Z</time>
      </trkpt>
      <trkpt lat="42.24459" lon="1.82334">
        <ele>1461.271</ele>
        <time>2019-04-08T12:35:54Z</time>
      </trkpt>
      <trkpt lat="42.24457" lon="1.82337">
        <ele>1461.276</ele>
        <time>2019-04-08T12:35:55Z</time>
      </trkpt>
      <trkpt lat="42.24456" lon="1.8234">
        <ele>1461.047</ele>
        <time>2019-04-08T12:35:56Z</time>
      </trkpt>
      <trkpt lat="42.24455" lon="1.82345">
        <ele>1462.397</ele>
        <time>2019-04-08T12:35:58Z</time>
      </trkpt>
      <trkpt lat="42.24453" lon="1.82348">
        <ele>1461.151</ele>
        <time>2019-04-08T12:35:59Z</time>
      </trkpt>
      <trkpt lat="42.24453" lon="1.82351">
        <ele>1461.19</ele>
        <time>2019-04-08T12:36:00Z</time>
      </trkpt>
      <trkpt lat="42.24452" lon="1.82354">
        <ele>1461.262</ele>
        <time>2019-04-08T12:36:01Z</time>
      </trkpt>
      <trkpt lat="42.24451" lon="1.82357">
        <ele>1461.196</ele>
        <time>2019-04-08T12:36:02Z</time>
      </trkpt>
      <trkpt lat="42.24449" lon="1.8236">
        <ele>1460.131</ele>
        <time>2019-04-08T12:36:03Z</time>
      </trkpt>
      <trkpt lat="42.24448" lon="1.82361">
        <ele>1459.124</ele>
        <time>2019-04-08T12:36:04Z</time>
      </trkpt>
      <trkpt lat="42.24445" lon="1.82362">
        <ele>1459.208</ele>
        <time>2019-04-08T12:36:05Z</time>
      </trkpt>
      <trkpt lat="42.24443" lon="1.82363">
        <ele>1458.922</ele>
        <time>2019-04-08T12:36:06Z</time>
      </trkpt>
      <trkpt lat="42.2444" lon="1.82364">
        <ele>1458.344</ele>
        <time>2019-04-08T12:36:07Z</time>
      </trkpt>
      <trkpt lat="42.24433" lon="1.82368">
        <ele>1456.849</ele>
        <time>2019-04-08T12:36:10Z</time>
      </trkpt>
      <trkpt lat="42.24429" lon="1.82369">
        <ele>1456.19</ele>
        <time>2019-04-08T12:36:12Z</time>
      </trkpt>
      <trkpt lat="42.24426" lon="1.8237">
        <ele>1456.29</ele>
        <time>2019-04-08T12:36:13Z</time>
      </trkpt>
      <trkpt lat="42.24424" lon="1.82372">
        <ele>1455.134</ele>
        <time>2019-04-08T12:36:14Z</time>
      </trkpt>
      <trkpt lat="42.24422" lon="1.82373">
        <ele>1454.243</ele>
        <time>2019-04-08T12:36:14Z</time>
      </trkpt>
      <trkpt lat="42.2442" lon="1.82375">
        <ele>1454.175</ele>
        <time>2019-04-08T12:36:15Z</time>
      </trkpt>
      <trkpt lat="42.24418" lon="1.82376">
        <ele>1454.244</ele>
        <time>2019-04-08T12:36:16Z</time>
      </trkpt>
      <trkpt lat="42.24416" lon="1.82378">
        <ele>1453.105</ele>
        <time>2019-04-08T12:36:17Z</time>
      </trkpt>
      <trkpt lat="42.24414" lon="1.82381">
        <ele>1453.015</ele>
        <time>2019-04-08T12:36:18Z</time>
      </trkpt>
      <trkpt lat="42.24412" lon="1.82382">
        <ele>1453.308</ele>
        <time>2019-04-08T12:36:19Z</time>
      </trkpt>
      <trkpt lat="42.24411" lon="1.82384">
        <ele>1453.127</ele>
        <time>2019-04-08T12:36:20Z</time>
      </trkpt>
      <trkpt lat="42.24409" lon="1.82385">
        <ele>1453.359</ele>
        <time>2019-04-08T12:36:21Z</time>
      </trkpt>
      <trkpt lat="42.24406" lon="1.82387">
        <ele>1453.294</ele>
        <time>2019-04-08T12:36:22Z</time>
      </trkpt>
      <trkpt lat="42.24405" lon="1.82388">
        <ele>1453.165</ele>
        <time>2019-04-08T12:36:23Z</time>
      </trkpt>
      <trkpt lat="42.24403" lon="1.8239">
        <ele>1453.255</ele>
        <time>2019-04-08T12:36:24Z</time>
      </trkpt>
      <trkpt lat="42.24401" lon="1.82392">
        <ele>1452.129</ele>
        <time>2019-04-08T12:36:25Z</time>
      </trkpt>
      <trkpt lat="42.244" lon="1.82394">
        <ele>1452.218</ele>
        <time>2019-04-08T12:36:26Z</time>
      </trkpt>
      <trkpt lat="42.24397" lon="1.82397">
        <ele>1452.02</ele>
        <time>2019-04-08T12:36:27Z</time>
      </trkpt>
      <trkpt lat="42.24395" lon="1.824">
        <ele>1453.033</ele>
        <time>2019-04-08T12:36:28Z</time>
      </trkpt>
      <trkpt lat="42.24393" lon="1.82404">
        <ele>1453.023</ele>
        <time>2019-04-08T12:36:30Z</time>
      </trkpt>
      <trkpt lat="42.24391" lon="1.82407">
        <ele>1453.215</ele>
        <time>2019-04-08T12:36:31Z</time>
      </trkpt>
      <trkpt lat="42.24389" lon="1.82411">
        <ele>1453.208</ele>
        <time>2019-04-08T12:36:32Z</time>
      </trkpt>
      <trkpt lat="42.24387" lon="1.82414">
        <ele>1453.146</ele>
        <time>2019-04-08T12:36:33Z</time>
      </trkpt>
      <trkpt lat="42.24385" lon="1.82417">
        <ele>1453.248</ele>
        <time>2019-04-08T12:36:35Z</time>
      </trkpt>
      <trkpt lat="42.24383" lon="1.8242">
        <ele>1453.173</ele>
        <time>2019-04-08T12:36:36Z</time>
      </trkpt>
      <trkpt lat="42.24381" lon="1.82424">
        <ele>1452.144</ele>
        <time>2019-04-08T12:36:37Z</time>
      </trkpt>
      <trkpt lat="42.2438" lon="1.82427">
        <ele>1452.034</ele>
        <time>2019-04-08T12:36:38Z</time>
      </trkpt>
      <trkpt lat="42.24378" lon="1.8243">
        <ele>1452.168</ele>
        <time>2019-04-08T12:36:39Z</time>
      </trkpt>
      <trkpt lat="42.24376" lon="1.82434">
        <ele>1452.297</ele>
        <time>2019-04-08T12:36:41Z</time>
      </trkpt>
      <trkpt lat="42.24375" lon="1.82437">
        <ele>1452.219</ele>
        <time>2019-04-08T12:36:42Z</time>
      </trkpt>
      <trkpt lat="42.24374" lon="1.8244">
        <ele>1452.159</ele>
        <time>2019-04-08T12:36:43Z</time>
      </trkpt>
      <trkpt lat="42.24372" lon="1.82443">
        <ele>1452.103</ele>
        <time>2019-04-08T12:36:44Z</time>
      </trkpt>
      <trkpt lat="42.24371" lon="1.82447">
        <ele>1452.223</ele>
        <time>2019-04-08T12:36:45Z</time>
      </trkpt>
      <trkpt lat="42.2437" lon="1.82451">
        <ele>1451.108</ele>
        <time>2019-04-08T12:36:46Z</time>
      </trkpt>
      <trkpt lat="42.24369" lon="1.82454">
        <ele>1451.228</ele>
        <time>2019-04-08T12:36:47Z</time>
      </trkpt>
      <trkpt lat="42.24368" lon="1.82456">
        <ele>1451.24</ele>
        <time>2019-04-08T12:36:48Z</time>
      </trkpt>
      <trkpt lat="42.24367" lon="1.8246">
        <ele>1451.035</ele>
        <time>2019-04-08T12:36:49Z</time>
      </trkpt>
      <trkpt lat="42.24366" lon="1.82464">
        <ele>1452.176</ele>
        <time>2019-04-08T12:36:51Z</time>
      </trkpt>
      <trkpt lat="42.24365" lon="1.82469">
        <ele>1452.266</ele>
        <time>2019-04-08T12:36:52Z</time>
      </trkpt>
      <trkpt lat="42.24364" lon="1.82472">
        <ele>1452.17</ele>
        <time>2019-04-08T12:36:53Z</time>
      </trkpt>
      <trkpt lat="42.24363" lon="1.82477">
        <ele>1452.189</ele>
        <time>2019-04-08T12:36:54Z</time>
      </trkpt>
      <trkpt lat="42.24362" lon="1.82481">
        <ele>1451.161</ele>
        <time>2019-04-08T12:36:56Z</time>
      </trkpt>
      <trkpt lat="42.24361" lon="1.82485">
        <ele>1451.162</ele>
        <time>2019-04-08T12:36:57Z</time>
      </trkpt>
      <trkpt lat="42.2436" lon="1.82489">
        <ele>1452.183</ele>
        <time>2019-04-08T12:36:58Z</time>
      </trkpt>
      <trkpt lat="42.24359" lon="1.82492">
        <ele>1451.211</ele>
        <time>2019-04-08T12:36:59Z</time>
      </trkpt>
      <trkpt lat="42.24358" lon="1.82496">
        <ele>1450.208</ele>
        <time>2019-04-08T12:37:01Z</time>
      </trkpt>
      <trkpt lat="42.24357" lon="1.825">
        <ele>1450.289</ele>
        <time>2019-04-08T12:37:02Z</time>
      </trkpt>
      <trkpt lat="42.24356" lon="1.82504">
        <ele>1450.221</ele>
        <time>2019-04-08T12:37:03Z</time>
      </trkpt>
      <trkpt lat="42.24355" lon="1.82507">
        <ele>1450.176</ele>
        <time>2019-04-08T12:37:04Z</time>
      </trkpt>
      <trkpt lat="42.24353" lon="1.8251">
        <ele>1449.227</ele>
        <time>2019-04-08T12:37:05Z</time>
      </trkpt>
      <trkpt lat="42.24353" lon="1.82513">
        <ele>1449.347</ele>
        <time>2019-04-08T12:37:06Z</time>
      </trkpt>
      <trkpt lat="42.24352" lon="1.82516">
        <ele>1449.291</ele>
        <time>2019-04-08T12:37:07Z</time>
      </trkpt>
      <trkpt lat="42.2435" lon="1.82519">
        <ele>1448.17</ele>
        <time>2019-04-08T12:37:08Z</time>
      </trkpt>
      <trkpt lat="42.24349" lon="1.82522">
        <ele>1448.142</ele>
        <time>2019-04-08T12:37:09Z</time>
      </trkpt>
      <trkpt lat="42.24348" lon="1.82525">
        <ele>1448.121</ele>
        <time>2019-04-08T12:37:10Z</time>
      </trkpt>
      <trkpt lat="42.24348" lon="1.82529">
        <ele>1447.241</ele>
        <time>2019-04-08T12:37:11Z</time>
      </trkpt>
      <trkpt lat="42.24348" lon="1.82532">
        <ele>1447.205</ele>
        <time>2019-04-08T12:37:12Z</time>
      </trkpt>
      <trkpt lat="42.24347" lon="1.82536">
        <ele>1448.208</ele>
        <time>2019-04-08T12:37:13Z</time>
      </trkpt>
      <trkpt lat="42.24346" lon="1.82539">
        <ele>1448.165</ele>
        <time>2019-04-08T12:37:15Z</time>
      </trkpt>
      <trkpt lat="42.24344" lon="1.82542">
        <ele>1448.167</ele>
        <time>2019-04-08T12:37:16Z</time>
      </trkpt>
      <trkpt lat="42.24343" lon="1.82545">
        <ele>1447.082</ele>
        <time>2019-04-08T12:37:17Z</time>
      </trkpt>
      <trkpt lat="42.24341" lon="1.82548">
        <ele>1447.143</ele>
        <time>2019-04-08T12:37:18Z</time>
      </trkpt>
      <trkpt lat="42.24338" lon="1.8255">
        <ele>1447.013</ele>
        <time>2019-04-08T12:37:19Z</time>
      </trkpt>
      <trkpt lat="42.24336" lon="1.82552">
        <ele>1447.157</ele>
        <time>2019-04-08T12:37:20Z</time>
      </trkpt>
      <trkpt lat="42.24334" lon="1.82555">
        <ele>1447.086</ele>
        <time>2019-04-08T12:37:21Z</time>
      </trkpt>
      <trkpt lat="42.24332" lon="1.82559">
        <ele>1446.848</ele>
        <time>2019-04-08T12:37:23Z</time>
      </trkpt>
      <trkpt lat="42.24331" lon="1.82561">
        <ele>1446.298</ele>
        <time>2019-04-08T12:37:23Z</time>
      </trkpt>
      <trkpt lat="42.24329" lon="1.82563">
        <ele>1447.115</ele>
        <time>2019-04-08T12:37:24Z</time>
      </trkpt>
      <trkpt lat="42.24327" lon="1.82566">
        <ele>1448.226</ele>
        <time>2019-04-08T12:37:25Z</time>
      </trkpt>
      <trkpt lat="42.24326" lon="1.82568">
        <ele>1448.208</ele>
        <time>2019-04-08T12:37:26Z</time>
      </trkpt>
      <trkpt lat="42.24325" lon="1.82571">
        <ele>1448.282</ele>
        <time>2019-04-08T12:37:27Z</time>
      </trkpt>
      <trkpt lat="42.24323" lon="1.82573">
        <ele>1448.144</ele>
        <time>2019-04-08T12:37:28Z</time>
      </trkpt>
      <trkpt lat="42.24322" lon="1.82576">
        <ele>1448.149</ele>
        <time>2019-04-08T12:37:29Z</time>
      </trkpt>
      <trkpt lat="42.24321" lon="1.82578">
        <ele>1448.03</ele>
        <time>2019-04-08T12:37:30Z</time>
      </trkpt>
      <trkpt lat="42.2432" lon="1.82581">
        <ele>1447.19</ele>
        <time>2019-04-08T12:37:31Z</time>
      </trkpt>
      <trkpt lat="42.24319" lon="1.82583">
        <ele>1447.124</ele>
        <time>2019-04-08T12:37:32Z</time>
      </trkpt>
      <trkpt lat="42.24317" lon="1.82587">
        <ele>1447.153</ele>
        <time>2019-04-08T12:37:33Z</time>
      </trkpt>
      <trkpt lat="42.24316" lon="1.82589">
        <ele>1447.065</ele>
        <time>2019-04-08T12:37:34Z</time>
      </trkpt>
      <trkpt lat="42.24316" lon="1.82592">
        <ele>1447.215</ele>
        <time>2019-04-08T12:37:34Z</time>
      </trkpt>
      <trkpt lat="42.24314" lon="1.82596">
        <ele>1448.065</ele>
        <time>2019-04-08T12:37:36Z</time>
      </trkpt>
      <trkpt lat="42.24314" lon="1.82599">
        <ele>1448.011</ele>
        <time>2019-04-08T12:37:37Z</time>
      </trkpt>
      <trkpt lat="42.24313" lon="1.82601">
        <ele>1448.308</ele>
        <time>2019-04-08T12:37:37Z</time>
      </trkpt>
      <trkpt lat="42.24313" lon="1.82604">
        <ele>1448.134</ele>
        <time>2019-04-08T12:37:38Z</time>
      </trkpt>
      <trkpt lat="42.24313" lon="1.82607">
        <ele>1448.216</ele>
        <time>2019-04-08T12:37:39Z</time>
      </trkpt>
      <trkpt lat="42.24312" lon="1.82609">
        <ele>1447.241</ele>
        <time>2019-04-08T12:37:40Z</time>
      </trkpt>
      <trkpt lat="42.24311" lon="1.82612">
        <ele>1447.162</ele>
        <time>2019-04-08T12:37:41Z</time>
      </trkpt>
      <trkpt lat="42.2431" lon="1.82614">
        <ele>1447.352</ele>
        <time>2019-04-08T12:37:42Z</time>
      </trkpt>
      <trkpt lat="42.24309" lon="1.82616">
        <ele>1447.186</ele>
        <time>2019-04-08T12:37:42Z</time>
      </trkpt>
      <trkpt lat="42.24308" lon="1.82619">
        <ele>1447.155</ele>
        <time>2019-04-08T12:37:43Z</time>
      </trkpt>
      <trkpt lat="42.24307" lon="1.82621">
        <ele>1447.027</ele>
        <time>2019-04-08T12:37:44Z</time>
      </trkpt>
      <trkpt lat="42.24306" lon="1.82624">
        <ele>1447.054</ele>
        <time>2019-04-08T12:37:45Z</time>
      </trkpt>
      <trkpt lat="42.24305" lon="1.82626">
        <ele>1446.256</ele>
        <time>2019-04-08T12:37:46Z</time>
      </trkpt>
      <trkpt lat="42.24304" lon="1.82629">
        <ele>1446.211</ele>
        <time>2019-04-08T12:37:46Z</time>
      </trkpt>
      <trkpt lat="42.24303" lon="1.82631">
        <ele>1446.308</ele>
        <time>2019-04-08T12:37:47Z</time>
      </trkpt>
      <trkpt lat="42.24302" lon="1.82634">
        <ele>1446.188</ele>
        <time>2019-04-08T12:37:48Z</time>
      </trkpt>
      <trkpt lat="42.24301" lon="1.82636">
        <ele>1446.22</ele>
        <time>2019-04-08T12:37:49Z</time>
      </trkpt>
      <trkpt lat="42.243" lon="1.82639">
        <ele>1446.125</ele>
        <time>2019-04-08T12:37:50Z</time>
      </trkpt>
      <trkpt lat="42.24299" lon="1.82641">
        <ele>1446.176</ele>
        <time>2019-04-08T12:37:51Z</time>
      </trkpt>
      <trkpt lat="42.24297" lon="1.82645">
        <ele>1447.226</ele>
        <time>2019-04-08T12:37:52Z</time>
      </trkpt>
      <trkpt lat="42.24296" lon="1.82649">
        <ele>1447.23</ele>
        <time>2019-04-08T12:37:53Z</time>
      </trkpt>
      <trkpt lat="42.24295" lon="1.82652">
        <ele>1447.049</ele>
        <time>2019-04-08T12:37:54Z</time>
      </trkpt>
      <trkpt lat="42.24293" lon="1.82654">
        <ele>1447.051</ele>
        <time>2019-04-08T12:37:55Z</time>
      </trkpt>
      <trkpt lat="42.2429" lon="1.82656">
        <ele>1447.118</ele>
        <time>2019-04-08T12:37:56Z</time>
      </trkpt>
      <trkpt lat="42.24288" lon="1.82658">
        <ele>1447.198</ele>
        <time>2019-04-08T12:37:58Z</time>
      </trkpt>
      <trkpt lat="42.24285" lon="1.82659">
        <ele>1447.217</ele>
        <time>2019-04-08T12:37:59Z</time>
      </trkpt>
      <trkpt lat="42.24283" lon="1.82661">
        <ele>1447.208</ele>
        <time>2019-04-08T12:38:00Z</time>
      </trkpt>
      <trkpt lat="42.2428" lon="1.82662">
        <ele>1447.234</ele>
        <time>2019-04-08T12:38:01Z</time>
      </trkpt>
      <trkpt lat="42.24277" lon="1.82664">
        <ele>1448.226</ele>
        <time>2019-04-08T12:38:02Z</time>
      </trkpt>
      <trkpt lat="42.24276" lon="1.82668">
        <ele>1448.111</ele>
        <time>2019-04-08T12:38:03Z</time>
      </trkpt>
      <trkpt lat="42.24276" lon="1.8267">
        <ele>1447.262</ele>
        <time>2019-04-08T12:38:04Z</time>
      </trkpt>
      <trkpt lat="42.24276" lon="1.82674">
        <ele>1447.282</ele>
        <time>2019-04-08T12:38:05Z</time>
      </trkpt>
      <trkpt lat="42.24277" lon="1.82678">
        <ele>1447.176</ele>
        <time>2019-04-08T12:38:06Z</time>
      </trkpt>
      <trkpt lat="42.24277" lon="1.8268">
        <ele>1447.185</ele>
        <time>2019-04-08T12:38:07Z</time>
      </trkpt>
      <trkpt lat="42.24278" lon="1.82682">
        <ele>1446.217</ele>
        <time>2019-04-08T12:38:08Z</time>
      </trkpt>
      <trkpt lat="42.24279" lon="1.82684">
        <ele>1445.191</ele>
        <time>2019-04-08T12:38:09Z</time>
      </trkpt>
      <trkpt lat="42.24281" lon="1.82687">
        <ele>1445.181</ele>
        <time>2019-04-08T12:38:10Z</time>
      </trkpt>
      <trkpt lat="42.24283" lon="1.82688">
        <ele>1445.019</ele>
        <time>2019-04-08T12:38:11Z</time>
      </trkpt>
      <trkpt lat="42.24285" lon="1.8269">
        <ele>1444.008</ele>
        <time>2019-04-08T12:38:12Z</time>
      </trkpt>
      <trkpt lat="42.24288" lon="1.82692">
        <ele>1445.232</ele>
        <time>2019-04-08T12:38:13Z</time>
      </trkpt>
      <trkpt lat="42.2429" lon="1.82694">
        <ele>1445.054</ele>
        <time>2019-04-08T12:38:14Z</time>
      </trkpt>
      <trkpt lat="42.24292" lon="1.82696">
        <ele>1444.239</ele>
        <time>2019-04-08T12:38:15Z</time>
      </trkpt>
      <trkpt lat="42.24294" lon="1.82698">
        <ele>1444.28</ele>
        <time>2019-04-08T12:38:16Z</time>
      </trkpt>
      <trkpt lat="42.24296" lon="1.827">
        <ele>1444.28</ele>
        <time>2019-04-08T12:38:17Z</time>
      </trkpt>
      <trkpt lat="42.24298" lon="1.82703">
        <ele>1444.354</ele>
        <time>2019-04-08T12:38:18Z</time>
      </trkpt>
      <trkpt lat="42.243" lon="1.82706">
        <ele>1442.263</ele>
        <time>2019-04-08T12:38:19Z</time>
      </trkpt>
      <trkpt lat="42.24301" lon="1.82709">
        <ele>1441.195</ele>
        <time>2019-04-08T12:38:20Z</time>
      </trkpt>
      <trkpt lat="42.24302" lon="1.82712">
        <ele>1440.285</ele>
        <time>2019-04-08T12:38:21Z</time>
      </trkpt>
      <trkpt lat="42.24304" lon="1.82715">
        <ele>1440.189</ele>
        <time>2019-04-08T12:38:22Z</time>
      </trkpt>
      <trkpt lat="42.24305" lon="1.82718">
        <ele>1440.117</ele>
        <time>2019-04-08T12:38:23Z</time>
      </trkpt>
      <trkpt lat="42.24306" lon="1.82721">
        <ele>1440.208</ele>
        <time>2019-04-08T12:38:24Z</time>
      </trkpt>
      <trkpt lat="42.24308" lon="1.82724">
        <ele>1440.211</ele>
        <time>2019-04-08T12:38:25Z</time>
      </trkpt>
      <trkpt lat="42.2431" lon="1.82727">
        <ele>1440.173</ele>
        <time>2019-04-08T12:38:27Z</time>
      </trkpt>
      <trkpt lat="42.24311" lon="1.8273">
        <ele>1440.198</ele>
        <time>2019-04-08T12:38:28Z</time>
      </trkpt>
      <trkpt lat="42.24312" lon="1.82733">
        <ele>1440.149</ele>
        <time>2019-04-08T12:38:29Z</time>
      </trkpt>
      <trkpt lat="42.24314" lon="1.82736">
        <ele>1440.179</ele>
        <time>2019-04-08T12:38:30Z</time>
      </trkpt>
      <trkpt lat="42.24316" lon="1.82739">
        <ele>1439.193</ele>
        <time>2019-04-08T12:38:31Z</time>
      </trkpt>
      <trkpt lat="42.24317" lon="1.82742">
        <ele>1439.082</ele>
        <time>2019-04-08T12:38:32Z</time>
      </trkpt>
      <trkpt lat="42.24318" lon="1.82745">
        <ele>1438.284</ele>
        <time>2019-04-08T12:38:33Z</time>
      </trkpt>
      <trkpt lat="42.24319" lon="1.82747">
        <ele>1437.822</ele>
        <time>2019-04-08T12:38:34Z</time>
      </trkpt>
      <trkpt lat="42.2432" lon="1.8275">
        <ele>1437.262</ele>
        <time>2019-04-08T12:38:35Z</time>
      </trkpt>
      <trkpt lat="42.24322" lon="1.82753">
        <ele>1437.208</ele>
        <time>2019-04-08T12:38:36Z</time>
      </trkpt>
      <trkpt lat="42.24323" lon="1.82756">
        <ele>1437.208</ele>
        <time>2019-04-08T12:38:37Z</time>
      </trkpt>
      <trkpt lat="42.24324" lon="1.82759">
        <ele>1438.325</ele>
        <time>2019-04-08T12:38:38Z</time>
      </trkpt>
      <trkpt lat="42.24325" lon="1.82761">
        <ele>1438.357</ele>
        <time>2019-04-08T12:38:39Z</time>
      </trkpt>
      <trkpt lat="42.24327" lon="1.82764">
        <ele>1438.252</ele>
        <time>2019-04-08T12:38:39Z</time>
      </trkpt>
      <trkpt lat="42.24328" lon="1.82767">
        <ele>1438.193</ele>
        <time>2019-04-08T12:38:41Z</time>
      </trkpt>
      <trkpt lat="42.2433" lon="1.8277">
        <ele>1437.253</ele>
        <time>2019-04-08T12:38:42Z</time>
      </trkpt>
      <trkpt lat="42.2433" lon="1.82773">
        <ele>1437.177</ele>
        <time>2019-04-08T12:38:43Z</time>
      </trkpt>
      <trkpt lat="42.24331" lon="1.82776">
        <ele>1437.156</ele>
        <time>2019-04-08T12:38:44Z</time>
      </trkpt>
      <trkpt lat="42.24332" lon="1.82779">
        <ele>1437.078</ele>
        <time>2019-04-08T12:38:45Z</time>
      </trkpt>
      <trkpt lat="42.24334" lon="1.82783">
        <ele>1437.197</ele>
        <time>2019-04-08T12:38:46Z</time>
      </trkpt>
      <trkpt lat="42.24336" lon="1.82786">
        <ele>1437.123</ele>
        <time>2019-04-08T12:38:47Z</time>
      </trkpt>
      <trkpt lat="42.24337" lon="1.8279">
        <ele>1437.325</ele>
        <time>2019-04-08T12:38:48Z</time>
      </trkpt>
      <trkpt lat="42.24338" lon="1.82793">
        <ele>1437.208</ele>
        <time>2019-04-08T12:38:49Z</time>
      </trkpt>
      <trkpt lat="42.24339" lon="1.82796">
        <ele>1436.362</ele>
        <time>2019-04-08T12:38:50Z</time>
      </trkpt>
      <trkpt lat="42.2434" lon="1.82799">
        <ele>1436.144</ele>
        <time>2019-04-08T12:38:51Z</time>
      </trkpt>
      <trkpt lat="42.24341" lon="1.82802">
        <ele>1435.299</ele>
        <time>2019-04-08T12:38:52Z</time>
      </trkpt>
      <trkpt lat="42.24342" lon="1.82805">
        <ele>1435.18</ele>
        <time>2019-04-08T12:38:53Z</time>
      </trkpt>
      <trkpt lat="42.24342" lon="1.82808">
        <ele>1435.22</ele>
        <time>2019-04-08T12:38:54Z</time>
      </trkpt>
      <trkpt lat="42.24342" lon="1.82812">
        <ele>1435.164</ele>
        <time>2019-04-08T12:38:55Z</time>
      </trkpt>
      <trkpt lat="42.24342" lon="1.82815">
        <ele>1434.163</ele>
        <time>2019-04-08T12:38:56Z</time>
      </trkpt>
      <trkpt lat="42.24341" lon="1.82818">
        <ele>1433.125</ele>
        <time>2019-04-08T12:38:57Z</time>
      </trkpt>
      <trkpt lat="42.24341" lon="1.82821">
        <ele>1433.052</ele>
        <time>2019-04-08T12:38:58Z</time>
      </trkpt>
      <trkpt lat="42.2434" lon="1.82824">
        <ele>1433.253</ele>
        <time>2019-04-08T12:38:59Z</time>
      </trkpt>
      <trkpt lat="42.24339" lon="1.82827">
        <ele>1433.208</ele>
        <time>2019-04-08T12:39:00Z</time>
      </trkpt>
      <trkpt lat="42.24337" lon="1.8283">
        <ele>1432.008</ele>
        <time>2019-04-08T12:39:01Z</time>
      </trkpt>
      <trkpt lat="42.24337" lon="1.82833">
        <ele>1432.138</ele>
        <time>2019-04-08T12:39:02Z</time>
      </trkpt>
      <trkpt lat="42.24336" lon="1.82837">
        <ele>1432.22</ele>
        <time>2019-04-08T12:39:03Z</time>
      </trkpt>
      <trkpt lat="42.24335" lon="1.8284">
        <ele>1432.175</ele>
        <time>2019-04-08T12:39:04Z</time>
      </trkpt>
      <trkpt lat="42.24335" lon="1.82843">
        <ele>1431.036</ele>
        <time>2019-04-08T12:39:05Z</time>
      </trkpt>
      <trkpt lat="42.24335" lon="1.82847">
        <ele>1431.226</ele>
        <time>2019-04-08T12:39:06Z</time>
      </trkpt>
      <trkpt lat="42.24335" lon="1.82851">
        <ele>1431.27</ele>
        <time>2019-04-08T12:39:07Z</time>
      </trkpt>
      <trkpt lat="42.24335" lon="1.82855">
        <ele>1432.179</ele>
        <time>2019-04-08T12:39:08Z</time>
      </trkpt>
      <trkpt lat="42.24334" lon="1.82858">
        <ele>1431.191</ele>
        <time>2019-04-08T12:39:10Z</time>
      </trkpt>
      <trkpt lat="42.24334" lon="1.82862">
        <ele>1431.115</ele>
        <time>2019-04-08T12:39:11Z</time>
      </trkpt>
      <trkpt lat="42.24334" lon="1.82866">
        <ele>1431.265</ele>
        <time>2019-04-08T12:39:12Z</time>
      </trkpt>
      <trkpt lat="42.24334" lon="1.8287">
        <ele>1431.111</ele>
        <time>2019-04-08T12:39:13Z</time>
      </trkpt>
      <trkpt lat="42.24334" lon="1.82873">
        <ele>1431.208</ele>
        <time>2019-04-08T12:39:14Z</time>
      </trkpt>
      <trkpt lat="42.24334" lon="1.82876">
        <ele>1431.194</ele>
        <time>2019-04-08T12:39:15Z</time>
      </trkpt>
      <trkpt lat="42.24334" lon="1.82879">
        <ele>1431.256</ele>
        <time>2019-04-08T12:39:16Z</time>
      </trkpt>
      <trkpt lat="42.24333" lon="1.82882">
        <ele>1430.231</ele>
        <time>2019-04-08T12:39:16Z</time>
      </trkpt>
      <trkpt lat="42.24332" lon="1.82884">
        <ele>1430.262</ele>
        <time>2019-04-08T12:39:17Z</time>
      </trkpt>
      <trkpt lat="42.24331" lon="1.82887">
        <ele>1429.162</ele>
        <time>2019-04-08T12:39:18Z</time>
      </trkpt>
      <trkpt lat="42.24331" lon="1.82891">
        <ele>1429.256</ele>
        <time>2019-04-08T12:39:19Z</time>
      </trkpt>
      <trkpt lat="42.2433" lon="1.82894">
        <ele>1429.155</ele>
        <time>2019-04-08T12:39:20Z</time>
      </trkpt>
      <trkpt lat="42.2433" lon="1.82897">
        <ele>1429.097</ele>
        <time>2019-04-08T12:39:21Z</time>
      </trkpt>
      <trkpt lat="42.24329" lon="1.82901">
        <ele>1429.288</ele>
        <time>2019-04-08T12:39:22Z</time>
      </trkpt>
      <trkpt lat="42.24328" lon="1.82904">
        <ele>1429.024</ele>
        <time>2019-04-08T12:39:23Z</time>
      </trkpt>
      <trkpt lat="42.24327" lon="1.82906">
        <ele>1428.126</ele>
        <time>2019-04-08T12:39:24Z</time>
      </trkpt>
      <trkpt lat="42.24326" lon="1.82908">
        <ele>1428.108</ele>
        <time>2019-04-08T12:39:25Z</time>
      </trkpt>
      <trkpt lat="42.24324" lon="1.82911">
        <ele>1427.241</ele>
        <time>2019-04-08T12:39:26Z</time>
      </trkpt>
      <trkpt lat="42.24323" lon="1.82914">
        <ele>1428.113</ele>
        <time>2019-04-08T12:39:27Z</time>
      </trkpt>
      <trkpt lat="42.24322" lon="1.82916">
        <ele>1428.078</ele>
        <time>2019-04-08T12:39:28Z</time>
      </trkpt>
      <trkpt lat="42.24322" lon="1.82918">
        <ele>1426.059</ele>
        <time>2019-04-08T12:39:28Z</time>
      </trkpt>
      <trkpt lat="42.2432" lon="1.8292">
        <ele>1426.249</ele>
        <time>2019-04-08T12:39:29Z</time>
      </trkpt>
      <trkpt lat="42.24319" lon="1.82923">
        <ele>1426.053</ele>
        <time>2019-04-08T12:39:30Z</time>
      </trkpt>
      <trkpt lat="42.24319" lon="1.82926">
        <ele>1426.242</ele>
        <time>2019-04-08T12:39:31Z</time>
      </trkpt>
      <trkpt lat="42.24318" lon="1.82928">
        <ele>1425.054</ele>
        <time>2019-04-08T12:39:32Z</time>
      </trkpt>
      <trkpt lat="42.24317" lon="1.82931">
        <ele>1425.071</ele>
        <time>2019-04-08T12:39:33Z</time>
      </trkpt>
      <trkpt lat="42.24316" lon="1.82934">
        <ele>1425.241</ele>
        <time>2019-04-08T12:39:34Z</time>
      </trkpt>
      <trkpt lat="42.24316" lon="1.82938">
        <ele>1425.215</ele>
        <time>2019-04-08T12:39:35Z</time>
      </trkpt>
      <trkpt lat="42.24316" lon="1.8294">
        <ele>1424.108</ele>
        <time>2019-04-08T12:39:35Z</time>
      </trkpt>
      <trkpt lat="42.24315" lon="1.82943">
        <ele>1424.17</ele>
        <time>2019-04-08T12:39:36Z</time>
      </trkpt>
      <trkpt lat="42.24315" lon="1.82945">
        <ele>1424.162</ele>
        <time>2019-04-08T12:39:37Z</time>
      </trkpt>
      <trkpt lat="42.24315" lon="1.82949">
        <ele>1424.127</ele>
        <time>2019-04-08T12:39:38Z</time>
      </trkpt>
      <trkpt lat="42.24314" lon="1.82952">
        <ele>1423.128</ele>
        <time>2019-04-08T12:39:39Z</time>
      </trkpt>
      <trkpt lat="42.24313" lon="1.82955">
        <ele>1422.178</ele>
        <time>2019-04-08T12:39:40Z</time>
      </trkpt>
      <trkpt lat="42.24311" lon="1.82956">
        <ele>1421.222</ele>
        <time>2019-04-08T12:39:41Z</time>
      </trkpt>
      <trkpt lat="42.2431" lon="1.82958">
        <ele>1420.061</ele>
        <time>2019-04-08T12:39:41Z</time>
      </trkpt>
      <trkpt lat="42.2431" lon="1.82961">
        <ele>1420.213</ele>
        <time>2019-04-08T12:39:42Z</time>
      </trkpt>
      <trkpt lat="42.2431" lon="1.82964">
        <ele>1419.856</ele>
        <time>2019-04-08T12:39:43Z</time>
      </trkpt>
      <trkpt lat="42.2431" lon="1.82968">
        <ele>1419.159</ele>
        <time>2019-04-08T12:39:44Z</time>
      </trkpt>
      <trkpt lat="42.24309" lon="1.8297">
        <ele>1419.314</ele>
        <time>2019-04-08T12:39:45Z</time>
      </trkpt>
      <trkpt lat="42.24309" lon="1.82974">
        <ele>1418.208</ele>
        <time>2019-04-08T12:39:46Z</time>
      </trkpt>
      <trkpt lat="42.24309" lon="1.82977">
        <ele>1418.238</ele>
        <time>2019-04-08T12:39:47Z</time>
      </trkpt>
      <trkpt lat="42.24308" lon="1.8298">
        <ele>1416.15</ele>
        <time>2019-04-08T12:39:48Z</time>
      </trkpt>
      <trkpt lat="42.24308" lon="1.82983">
        <ele>1416.115</ele>
        <time>2019-04-08T12:39:49Z</time>
      </trkpt>
      <trkpt lat="42.24306" lon="1.82986">
        <ele>1415.116</ele>
        <time>2019-04-08T12:39:50Z</time>
      </trkpt>
      <trkpt lat="42.24305" lon="1.82988">
        <ele>1414.266</ele>
        <time>2019-04-08T12:39:51Z</time>
      </trkpt>
      <trkpt lat="42.24303" lon="1.82991">
        <ele>1413.22</ele>
        <time>2019-04-08T12:39:52Z</time>
      </trkpt>
      <trkpt lat="42.24301" lon="1.82992">
        <ele>1413.199</ele>
        <time>2019-04-08T12:39:53Z</time>
      </trkpt>
      <trkpt lat="42.24299" lon="1.82991">
        <ele>1412.141</ele>
        <time>2019-04-08T12:39:54Z</time>
      </trkpt>
      <trkpt lat="42.24297" lon="1.82992">
        <ele>1411.074</ele>
        <time>2019-04-08T12:39:55Z</time>
      </trkpt>
      <trkpt lat="42.24296" lon="1.82996">
        <ele>1411.056</ele>
        <time>2019-04-08T12:39:56Z</time>
      </trkpt>
      <trkpt lat="42.24296" lon="1.82998">
        <ele>1410.121</ele>
        <time>2019-04-08T12:39:57Z</time>
      </trkpt>
      <trkpt lat="42.24296" lon="1.83001">
        <ele>1410.308</ele>
        <time>2019-04-08T12:39:58Z</time>
      </trkpt>
      <trkpt lat="42.24295" lon="1.83004">
        <ele>1409.15</ele>
        <time>2019-04-08T12:39:58Z</time>
      </trkpt>
      <trkpt lat="42.24295" lon="1.83006">
        <ele>1409.182</ele>
        <time>2019-04-08T12:39:59Z</time>
      </trkpt>
      <trkpt lat="42.24294" lon="1.83009">
        <ele>1409.037</ele>
        <time>2019-04-08T12:40:00Z</time>
      </trkpt>
      <trkpt lat="42.24293" lon="1.83012">
        <ele>1408.298</ele>
        <time>2019-04-08T12:40:01Z</time>
      </trkpt>
      <trkpt lat="42.24293" lon="1.83014">
        <ele>1408.948</ele>
        <time>2019-04-08T12:40:02Z</time>
      </trkpt>
      <trkpt lat="42.24292" lon="1.83017">
        <ele>1408.142</ele>
        <time>2019-04-08T12:40:02Z</time>
      </trkpt>
      <trkpt lat="42.24291" lon="1.8302">
        <ele>1407.141</ele>
        <time>2019-04-08T12:40:03Z</time>
      </trkpt>
      <trkpt lat="42.24291" lon="1.83023">
        <ele>1407.293</ele>
        <time>2019-04-08T12:40:04Z</time>
      </trkpt>
      <trkpt lat="42.2429" lon="1.83026">
        <ele>1407.133</ele>
        <time>2019-04-08T12:40:05Z</time>
      </trkpt>
      <trkpt lat="42.24289" lon="1.83029">
        <ele>1406.123</ele>
        <time>2019-04-08T12:40:06Z</time>
      </trkpt>
      <trkpt lat="42.24289" lon="1.83032">
        <ele>1406.215</ele>
        <time>2019-04-08T12:40:07Z</time>
      </trkpt>
      <trkpt lat="42.24289" lon="1.83035">
        <ele>1406.208</ele>
        <time>2019-04-08T12:40:08Z</time>
      </trkpt>
      <trkpt lat="42.24288" lon="1.83039">
        <ele>1405.016</ele>
        <time>2019-04-08T12:40:09Z</time>
      </trkpt>
      <trkpt lat="42.24287" lon="1.83041">
        <ele>1405.158</ele>
        <time>2019-04-08T12:40:10Z</time>
      </trkpt>
      <trkpt lat="42.24287" lon="1.83044">
        <ele>1404.013</ele>
        <time>2019-04-08T12:40:11Z</time>
      </trkpt>
      <trkpt lat="42.24286" lon="1.83048">
        <ele>1403.064</ele>
        <time>2019-04-08T12:40:12Z</time>
      </trkpt>
      <trkpt lat="42.24286" lon="1.8305">
        <ele>1403.114</ele>
        <time>2019-04-08T12:40:13Z</time>
      </trkpt>
      <trkpt lat="42.24285" lon="1.83053">
        <ele>1403.298</ele>
        <time>2019-04-08T12:40:13Z</time>
      </trkpt>
      <trkpt lat="42.24284" lon="1.83056">
        <ele>1402.177</ele>
        <time>2019-04-08T12:40:14Z</time>
      </trkpt>
      <trkpt lat="42.24283" lon="1.83059">
        <ele>1402.069</ele>
        <time>2019-04-08T12:40:15Z</time>
      </trkpt>
      <trkpt lat="42.24281" lon="1.83062">
        <ele>1401.248</ele>
        <time>2019-04-08T12:40:17Z</time>
      </trkpt>
      <trkpt lat="42.2428" lon="1.83066">
        <ele>1401.161</ele>
        <time>2019-04-08T12:40:18Z</time>
      </trkpt>
      <trkpt lat="42.2428" lon="1.8307">
        <ele>1401.117</ele>
        <time>2019-04-08T12:40:19Z</time>
      </trkpt>
      <trkpt lat="42.2428" lon="1.83073">
        <ele>1400.108</ele>
        <time>2019-04-08T12:40:20Z</time>
      </trkpt>
      <trkpt lat="42.2428" lon="1.83076">
        <ele>1400.247</ele>
        <time>2019-04-08T12:40:21Z</time>
      </trkpt>
      <trkpt lat="42.24279" lon="1.83079">
        <ele>1400.289</ele>
        <time>2019-04-08T12:40:22Z</time>
      </trkpt>
      <trkpt lat="42.24278" lon="1.83082">
        <ele>1399.814</ele>
        <time>2019-04-08T12:40:23Z</time>
      </trkpt>
      <trkpt lat="42.24278" lon="1.83086">
        <ele>1399.045</ele>
        <time>2019-04-08T12:40:24Z</time>
      </trkpt>
      <trkpt lat="42.24277" lon="1.83089">
        <ele>1399.155</ele>
        <time>2019-04-08T12:40:25Z</time>
      </trkpt>
      <trkpt lat="42.24276" lon="1.83093">
        <ele>1399.329</ele>
        <time>2019-04-08T12:40:26Z</time>
      </trkpt>
      <trkpt lat="42.24276" lon="1.83096">
        <ele>1399.268</ele>
        <time>2019-04-08T12:40:27Z</time>
      </trkpt>
      <trkpt lat="42.24275" lon="1.831">
        <ele>1399.08</ele>
        <time>2019-04-08T12:40:28Z</time>
      </trkpt>
      <trkpt lat="42.24275" lon="1.83105">
        <ele>1399.151</ele>
        <time>2019-04-08T12:40:30Z</time>
      </trkpt>
      <trkpt lat="42.24275" lon="1.83109">
        <ele>1399.001</ele>
        <time>2019-04-08T12:40:31Z</time>
      </trkpt>
      <trkpt lat="42.24275" lon="1.83111">
        <ele>1399.311</ele>
        <time>2019-04-08T12:40:32Z</time>
      </trkpt>
      <trkpt lat="42.24274" lon="1.83114">
        <ele>1399.108</ele>
        <time>2019-04-08T12:40:32Z</time>
      </trkpt>
      <trkpt lat="42.24274" lon="1.83117">
        <ele>1399.178</ele>
        <time>2019-04-08T12:40:33Z</time>
      </trkpt>
      <trkpt lat="42.24273" lon="1.8312">
        <ele>1399.33</ele>
        <time>2019-04-08T12:40:34Z</time>
      </trkpt>
      <trkpt lat="42.24272" lon="1.83122">
        <ele>1399.115</ele>
        <time>2019-04-08T12:40:35Z</time>
      </trkpt>
      <trkpt lat="42.24271" lon="1.83126">
        <ele>1398.166</ele>
        <time>2019-04-08T12:40:36Z</time>
      </trkpt>
      <trkpt lat="42.2427" lon="1.83129">
        <ele>1397.226</ele>
        <time>2019-04-08T12:40:37Z</time>
      </trkpt>
      <trkpt lat="42.24268" lon="1.83133">
        <ele>1397.23</ele>
        <time>2019-04-08T12:40:39Z</time>
      </trkpt>
      <trkpt lat="42.24267" lon="1.83136">
        <ele>1397.169</ele>
        <time>2019-04-08T12:40:40Z</time>
      </trkpt>
      <trkpt lat="42.24266" lon="1.83139">
        <ele>1396.281</ele>
        <time>2019-04-08T12:40:41Z</time>
      </trkpt>
      <trkpt lat="42.24264" lon="1.83142">
        <ele>1396.035</ele>
        <time>2019-04-08T12:40:42Z</time>
      </trkpt>
      <trkpt lat="42.24263" lon="1.83144">
        <ele>1396.286</ele>
        <time>2019-04-08T12:40:42Z</time>
      </trkpt>
      <trkpt lat="42.24262" lon="1.83147">
        <ele>1395.314</ele>
        <time>2019-04-08T12:40:43Z</time>
      </trkpt>
      <trkpt lat="42.2426" lon="1.8315">
        <ele>1395.108</ele>
        <time>2019-04-08T12:40:45Z</time>
      </trkpt>
      <trkpt lat="42.24258" lon="1.83154">
        <ele>1394.366</ele>
        <time>2019-04-08T12:40:46Z</time>
      </trkpt>
      <trkpt lat="42.24257" lon="1.83158">
        <ele>1394.218</ele>
        <time>2019-04-08T12:40:47Z</time>
      </trkpt>
      <trkpt lat="42.24255" lon="1.83162">
        <ele>1394.173</ele>
        <time>2019-04-08T12:40:49Z</time>
      </trkpt>
      <trkpt lat="42.24255" lon="1.83165">
        <ele>1394.274</ele>
        <time>2019-04-08T12:40:49Z</time>
      </trkpt>
      <trkpt lat="42.24255" lon="1.83167">
        <ele>1394.224</ele>
        <time>2019-04-08T12:40:50Z</time>
      </trkpt>
      <trkpt lat="42.24254" lon="1.8317">
        <ele>1393.078</ele>
        <time>2019-04-08T12:40:51Z</time>
      </trkpt>
      <trkpt lat="42.24253" lon="1.83173">
        <ele>1393.187</ele>
        <time>2019-04-08T12:40:52Z</time>
      </trkpt>
      <trkpt lat="42.24252" lon="1.83176">
        <ele>1392.119</ele>
        <time>2019-04-08T12:40:53Z</time>
      </trkpt>
      <trkpt lat="42.24252" lon="1.83179">
        <ele>1392.127</ele>
        <time>2019-04-08T12:40:54Z</time>
      </trkpt>
      <trkpt lat="42.24252" lon="1.83182">
        <ele>1391.168</ele>
        <time>2019-04-08T12:40:55Z</time>
      </trkpt>
      <trkpt lat="42.2425" lon="1.83184">
        <ele>1391.114</ele>
        <time>2019-04-08T12:40:56Z</time>
      </trkpt>
      <trkpt lat="42.24249" lon="1.83187">
        <ele>1391.008</ele>
        <time>2019-04-08T12:40:57Z</time>
      </trkpt>
      <trkpt lat="42.24247" lon="1.8319">
        <ele>1390.175</ele>
        <time>2019-04-08T12:40:58Z</time>
      </trkpt>
      <trkpt lat="42.24246" lon="1.83193">
        <ele>1389.157</ele>
        <time>2019-04-08T12:40:59Z</time>
      </trkpt>
      <trkpt lat="42.24246" lon="1.83196">
        <ele>1389.292</ele>
        <time>2019-04-08T12:41:00Z</time>
      </trkpt>
      <trkpt lat="42.24244" lon="1.832">
        <ele>1388.883</ele>
        <time>2019-04-08T12:41:01Z</time>
      </trkpt>
      <trkpt lat="42.24244" lon="1.83202">
        <ele>1388.253</ele>
        <time>2019-04-08T12:41:02Z</time>
      </trkpt>
      <trkpt lat="42.24243" lon="1.83205">
        <ele>1388.217</ele>
        <time>2019-04-08T12:41:03Z</time>
      </trkpt>
      <trkpt lat="42.24242" lon="1.83209">
        <ele>1389.196</ele>
        <time>2019-04-08T12:41:04Z</time>
      </trkpt>
      <trkpt lat="42.24242" lon="1.83213">
        <ele>1389.138</ele>
        <time>2019-04-08T12:41:05Z</time>
      </trkpt>
      <trkpt lat="42.2424" lon="1.83217">
        <ele>1389.167</ele>
        <time>2019-04-08T12:41:06Z</time>
      </trkpt>
      <trkpt lat="42.24239" lon="1.8322">
        <ele>1389.981</ele>
        <time>2019-04-08T12:41:07Z</time>
      </trkpt>
      <trkpt lat="42.24238" lon="1.83222">
        <ele>1390.219</ele>
        <time>2019-04-08T12:41:08Z</time>
      </trkpt>
      <trkpt lat="42.24237" lon="1.83224">
        <ele>1390.308</ele>
        <time>2019-04-08T12:41:09Z</time>
      </trkpt>
      <trkpt lat="42.24235" lon="1.83226">
        <ele>1390.139</ele>
        <time>2019-04-08T12:41:10Z</time>
      </trkpt>
      <trkpt lat="42.24235" lon="1.83231">
        <ele>1391.211</ele>
        <time>2019-04-08T12:41:11Z</time>
      </trkpt>
      <trkpt lat="42.24234" lon="1.83236">
        <ele>1391.256</ele>
        <time>2019-04-08T12:41:13Z</time>
      </trkpt>
      <trkpt lat="42.24233" lon="1.8324">
        <ele>1391.177</ele>
        <time>2019-04-08T12:41:14Z</time>
      </trkpt>
      <trkpt lat="42.24232" lon="1.83244">
        <ele>1391.047</ele>
        <time>2019-04-08T12:41:15Z</time>
      </trkpt>
      <trkpt lat="42.24231" lon="1.83248">
        <ele>1391.331</ele>
        <time>2019-04-08T12:41:16Z</time>
      </trkpt>
      <trkpt lat="42.24229" lon="1.83251">
        <ele>1391.26</ele>
        <time>2019-04-08T12:41:18Z</time>
      </trkpt>
      <trkpt lat="42.24228" lon="1.83254">
        <ele>1391.112</ele>
        <time>2019-04-08T12:41:19Z</time>
      </trkpt>
      <trkpt lat="42.24226" lon="1.83257">
        <ele>1391.163</ele>
        <time>2019-04-08T12:41:20Z</time>
      </trkpt>
      <trkpt lat="42.24223" lon="1.83259">
        <ele>1391.144</ele>
        <time>2019-04-08T12:41:21Z</time>
      </trkpt>
      <trkpt lat="42.24222" lon="1.83263">
        <ele>1391.218</ele>
        <time>2019-04-08T12:41:22Z</time>
      </trkpt>
      <trkpt lat="42.2422" lon="1.83266">
        <ele>1390.108</ele>
        <time>2019-04-08T12:41:23Z</time>
      </trkpt>
      <trkpt lat="42.24219" lon="1.83269">
        <ele>1390.319</ele>
        <time>2019-04-08T12:41:24Z</time>
      </trkpt>
      <trkpt lat="42.24217" lon="1.83272">
        <ele>1390.251</ele>
        <time>2019-04-08T12:41:25Z</time>
      </trkpt>
      <trkpt lat="42.24216" lon="1.83274">
        <ele>1390.176</ele>
        <time>2019-04-08T12:41:26Z</time>
      </trkpt>
      <trkpt lat="42.24214" lon="1.83277">
        <ele>1389.147</ele>
        <time>2019-04-08T12:41:27Z</time>
      </trkpt>
      <trkpt lat="42.24212" lon="1.83279">
        <ele>1389.367</ele>
        <time>2019-04-08T12:41:28Z</time>
      </trkpt>
      <trkpt lat="42.2421" lon="1.83282">
        <ele>1389.121</ele>
        <time>2019-04-08T12:41:29Z</time>
      </trkpt>
      <trkpt lat="42.24209" lon="1.83284">
        <ele>1389.17</ele>
        <time>2019-04-08T12:41:30Z</time>
      </trkpt>
      <trkpt lat="42.24207" lon="1.83287">
        <ele>1389.052</ele>
        <time>2019-04-08T12:41:31Z</time>
      </trkpt>
      <trkpt lat="42.24206" lon="1.83289">
        <ele>1389.183</ele>
        <time>2019-04-08T12:41:32Z</time>
      </trkpt>
      <trkpt lat="42.24204" lon="1.8329">
        <ele>1388.825</ele>
        <time>2019-04-08T12:41:33Z</time>
      </trkpt>
      <trkpt lat="42.24201" lon="1.83292">
        <ele>1388.217</ele>
        <time>2019-04-08T12:41:34Z</time>
      </trkpt>
      <trkpt lat="42.24199" lon="1.83293">
        <ele>1388.108</ele>
        <time>2019-04-08T12:41:35Z</time>
      </trkpt>
      <trkpt lat="42.24197" lon="1.83293">
        <ele>1389.021</ele>
        <time>2019-04-08T12:41:36Z</time>
      </trkpt>
      <trkpt lat="42.24195" lon="1.83294">
        <ele>1390.083</ele>
        <time>2019-04-08T12:41:37Z</time>
      </trkpt>
      <trkpt lat="42.24192" lon="1.83295">
        <ele>1391.138</ele>
        <time>2019-04-08T12:41:38Z</time>
      </trkpt>
      <trkpt lat="42.24191" lon="1.83296">
        <ele>1391.039</ele>
        <time>2019-04-08T12:41:39Z</time>
      </trkpt>
      <trkpt lat="42.24189" lon="1.83298">
        <ele>1391.229</ele>
        <time>2019-04-08T12:41:40Z</time>
      </trkpt>
      <trkpt lat="42.24187" lon="1.833">
        <ele>1392.063</ele>
        <time>2019-04-08T12:41:40Z</time>
      </trkpt>
      <trkpt lat="42.24186" lon="1.83302">
        <ele>1392.162</ele>
        <time>2019-04-08T12:41:41Z</time>
      </trkpt>
      <trkpt lat="42.24184" lon="1.83303">
        <ele>1393.094</ele>
        <time>2019-04-08T12:41:42Z</time>
      </trkpt>
      <trkpt lat="42.24182" lon="1.83304">
        <ele>1393.031</ele>
        <time>2019-04-08T12:41:43Z</time>
      </trkpt>
      <trkpt lat="42.2418" lon="1.83305">
        <ele>1393.161</ele>
        <time>2019-04-08T12:41:44Z</time>
      </trkpt>
      <trkpt lat="42.24178" lon="1.83307">
        <ele>1393.207</ele>
        <time>2019-04-08T12:41:44Z</time>
      </trkpt>
      <trkpt lat="42.24176" lon="1.83308">
        <ele>1393.108</ele>
        <time>2019-04-08T12:41:45Z</time>
      </trkpt>
      <trkpt lat="42.24174" lon="1.8331">
        <ele>1394.046</ele>
        <time>2019-04-08T12:41:46Z</time>
      </trkpt>
      <trkpt lat="42.24172" lon="1.83312">
        <ele>1394.318</ele>
        <time>2019-04-08T12:41:47Z</time>
      </trkpt>
      <trkpt lat="42.2417" lon="1.83313">
        <ele>1394.063</ele>
        <time>2019-04-08T12:41:48Z</time>
      </trkpt>
      <trkpt lat="42.24168" lon="1.83315">
        <ele>1395.024</ele>
        <time>2019-04-08T12:41:49Z</time>
      </trkpt>
      <trkpt lat="42.24167" lon="1.83316">
        <ele>1395.214</ele>
        <time>2019-04-08T12:41:50Z</time>
      </trkpt>
      <trkpt lat="42.24165" lon="1.83318">
        <ele>1395.158</ele>
        <time>2019-04-08T12:41:51Z</time>
      </trkpt>
      <trkpt lat="42.24159" lon="1.83322">
        <ele>1395.237</ele>
        <time>2019-04-08T12:41:53Z</time>
      </trkpt>
      <trkpt lat="42.24157" lon="1.83323">
        <ele>1395.169</ele>
        <time>2019-04-08T12:41:54Z</time>
      </trkpt>
      <trkpt lat="42.24155" lon="1.83325">
        <ele>1395.253</ele>
        <time>2019-04-08T12:41:56Z</time>
      </trkpt>
      <trkpt lat="42.24153" lon="1.83327">
        <ele>1395.004</ele>
        <time>2019-04-08T12:41:56Z</time>
      </trkpt>
      <trkpt lat="42.24151" lon="1.83328">
        <ele>1395.114</ele>
        <time>2019-04-08T12:41:57Z</time>
      </trkpt>
      <trkpt lat="42.24148" lon="1.83331">
        <ele>1398.108</ele>
        <time>2019-04-08T12:41:59Z</time>
      </trkpt>
      <trkpt lat="42.24146" lon="1.83333">
        <ele>1399.598</ele>
        <time>2019-04-08T12:42:00Z</time>
      </trkpt>
      <trkpt lat="42.24144" lon="1.83336">
        <ele>1402.28</ele>
        <time>2019-04-08T12:42:01Z</time>
      </trkpt>
      <trkpt lat="42.24142" lon="1.83339">
        <ele>1402.065</ele>
        <time>2019-04-08T12:42:02Z</time>
      </trkpt>
      <trkpt lat="42.24141" lon="1.83341">
        <ele>1402.256</ele>
        <time>2019-04-08T12:42:03Z</time>
      </trkpt>
      <trkpt lat="42.2414" lon="1.83343">
        <ele>1403.026</ele>
        <time>2019-04-08T12:42:04Z</time>
      </trkpt>
      <trkpt lat="42.24138" lon="1.83345">
        <ele>1403.16</ele>
        <time>2019-04-08T12:42:04Z</time>
      </trkpt>
      <trkpt lat="42.24137" lon="1.83347">
        <ele>1403.929</ele>
        <time>2019-04-08T12:42:05Z</time>
      </trkpt>
      <trkpt lat="42.24135" lon="1.83348">
        <ele>1404.251</ele>
        <time>2019-04-08T12:42:06Z</time>
      </trkpt>
      <trkpt lat="42.24134" lon="1.8335">
        <ele>1404.258</ele>
        <time>2019-04-08T12:42:07Z</time>
      </trkpt>
      <trkpt lat="42.24132" lon="1.83352">
        <ele>1405.152</ele>
        <time>2019-04-08T12:42:07Z</time>
      </trkpt>
      <trkpt lat="42.2413" lon="1.83354">
        <ele>1405.317</ele>
        <time>2019-04-08T12:42:09Z</time>
      </trkpt>
      <trkpt lat="42.24128" lon="1.83358">
        <ele>1406.108</ele>
        <time>2019-04-08T12:42:10Z</time>
      </trkpt>
      <trkpt lat="42.24126" lon="1.83361">
        <ele>1406.258</ele>
        <time>2019-04-08T12:42:11Z</time>
      </trkpt>
      <trkpt lat="42.24125" lon="1.83362">
        <ele>1406.04</ele>
        <time>2019-04-08T12:42:12Z</time>
      </trkpt>
      <trkpt lat="42.24124" lon="1.83365">
        <ele>1406.095</ele>
        <time>2019-04-08T12:42:13Z</time>
      </trkpt>
      <trkpt lat="42.24123" lon="1.8337">
        <ele>1406.196</ele>
        <time>2019-04-08T12:42:14Z</time>
      </trkpt>
      <trkpt lat="42.24123" lon="1.83372">
        <ele>1407.166</ele>
        <time>2019-04-08T12:42:15Z</time>
      </trkpt>
      <trkpt lat="42.24123" lon="1.83375">
        <ele>1407.11</ele>
        <time>2019-04-08T12:42:16Z</time>
      </trkpt>
      <trkpt lat="42.24123" lon="1.83378">
        <ele>1407.279</ele>
        <time>2019-04-08T12:42:17Z</time>
      </trkpt>
      <trkpt lat="42.24123" lon="1.8338">
        <ele>1408.121</ele>
        <time>2019-04-08T12:42:17Z</time>
      </trkpt>
      <trkpt lat="42.24124" lon="1.83385">
        <ele>1408.178</ele>
        <time>2019-04-08T12:42:19Z</time>
      </trkpt>
      <trkpt lat="42.24123" lon="1.83388">
        <ele>1407.133</ele>
        <time>2019-04-08T12:42:20Z</time>
      </trkpt>
      <trkpt lat="42.24124" lon="1.83392">
        <ele>1407.226</ele>
        <time>2019-04-08T12:42:21Z</time>
      </trkpt>
      <trkpt lat="42.24122" lon="1.83396">
        <ele>1407.008</ele>
        <time>2019-04-08T12:42:22Z</time>
      </trkpt>
      <trkpt lat="42.24121" lon="1.834">
        <ele>1406.11</ele>
        <time>2019-04-08T12:42:23Z</time>
      </trkpt>
      <trkpt lat="42.2412" lon="1.83404">
        <ele>1406.252</ele>
        <time>2019-04-08T12:42:25Z</time>
      </trkpt>
      <trkpt lat="42.24119" lon="1.83408">
        <ele>1406.267</ele>
        <time>2019-04-08T12:42:26Z</time>
      </trkpt>
      <trkpt lat="42.24118" lon="1.83412">
        <ele>1406.278</ele>
        <time>2019-04-08T12:42:27Z</time>
      </trkpt>
      <trkpt lat="42.24118" lon="1.83416">
        <ele>1406.258</ele>
        <time>2019-04-08T12:42:28Z</time>
      </trkpt>
      <trkpt lat="42.24118" lon="1.83419">
        <ele>1406.232</ele>
        <time>2019-04-08T12:42:29Z</time>
      </trkpt>
      <trkpt lat="42.24117" lon="1.83422">
        <ele>1406.071</ele>
        <time>2019-04-08T12:42:30Z</time>
      </trkpt>
      <trkpt lat="42.24115" lon="1.83426">
        <ele>1405.183</ele>
        <time>2019-04-08T12:42:31Z</time>
      </trkpt>
      <trkpt lat="42.24114" lon="1.83429">
        <ele>1405.139</ele>
        <time>2019-04-08T12:42:33Z</time>
      </trkpt>
      <trkpt lat="42.24113" lon="1.83433">
        <ele>1405.101</ele>
        <time>2019-04-08T12:42:34Z</time>
      </trkpt>
      <trkpt lat="42.24112" lon="1.83435">
        <ele>1405.221</ele>
        <time>2019-04-08T12:42:35Z</time>
      </trkpt>
      <trkpt lat="42.24111" lon="1.83438">
        <ele>1405.108</ele>
        <time>2019-04-08T12:42:35Z</time>
      </trkpt>
      <trkpt lat="42.24111" lon="1.8344">
        <ele>1405.226</ele>
        <time>2019-04-08T12:42:36Z</time>
      </trkpt>
      <trkpt lat="42.2411" lon="1.83443">
        <ele>1405.178</ele>
        <time>2019-04-08T12:42:37Z</time>
      </trkpt>
      <trkpt lat="42.24109" lon="1.83447">
        <ele>1405.163</ele>
        <time>2019-04-08T12:42:38Z</time>
      </trkpt>
      <trkpt lat="42.24108" lon="1.83451">
        <ele>1405.144</ele>
        <time>2019-04-08T12:42:39Z</time>
      </trkpt>
      <trkpt lat="42.24107" lon="1.83453">
        <ele>1405.274</ele>
        <time>2019-04-08T12:42:40Z</time>
      </trkpt>
      <trkpt lat="42.24105" lon="1.83456">
        <ele>1405.178</ele>
        <time>2019-04-08T12:42:42Z</time>
      </trkpt>
      <trkpt lat="42.24103" lon="1.83458">
        <ele>1405.177</ele>
        <time>2019-04-08T12:42:42Z</time>
      </trkpt>
      <trkpt lat="42.24101" lon="1.83461">
        <ele>1405.179</ele>
        <time>2019-04-08T12:42:44Z</time>
      </trkpt>
      <trkpt lat="42.24099" lon="1.83464">
        <ele>1405.019</ele>
        <time>2019-04-08T12:42:45Z</time>
      </trkpt>
      <trkpt lat="42.24097" lon="1.83467">
        <ele>1406.109</ele>
        <time>2019-04-08T12:42:46Z</time>
      </trkpt>
      <trkpt lat="42.24094" lon="1.8347">
        <ele>1406.319</ele>
        <time>2019-04-08T12:42:47Z</time>
      </trkpt>
      <trkpt lat="42.24092" lon="1.83474">
        <ele>1405.208</ele>
        <time>2019-04-08T12:42:49Z</time>
      </trkpt>
      <trkpt lat="42.2409" lon="1.83476">
        <ele>1406.184</ele>
        <time>2019-04-08T12:42:50Z</time>
      </trkpt>
      <trkpt lat="42.24088" lon="1.83479">
        <ele>1406.136</ele>
        <time>2019-04-08T12:42:51Z</time>
      </trkpt>
      <trkpt lat="42.24086" lon="1.8348">
        <ele>1406.161</ele>
        <time>2019-04-08T12:42:52Z</time>
      </trkpt>
      <trkpt lat="42.24084" lon="1.83484">
        <ele>1406.182</ele>
        <time>2019-04-08T12:42:53Z</time>
      </trkpt>
      <trkpt lat="42.24083" lon="1.83486">
        <ele>1407.232</ele>
        <time>2019-04-08T12:42:54Z</time>
      </trkpt>
      <trkpt lat="42.24082" lon="1.83488">
        <ele>1407.196</ele>
        <time>2019-04-08T12:42:55Z</time>
      </trkpt>
      <trkpt lat="42.24079" lon="1.83491">
        <ele>1407.215</ele>
        <time>2019-04-08T12:42:56Z</time>
      </trkpt>
      <trkpt lat="42.24077" lon="1.83492">
        <ele>1407.197</ele>
        <time>2019-04-08T12:42:57Z</time>
      </trkpt>
      <trkpt lat="42.24074" lon="1.83493">
        <ele>1407.153</ele>
        <time>2019-04-08T12:42:59Z</time>
      </trkpt>
      <trkpt lat="42.24065" lon="1.83498">
        <ele>1408.004</ele>
        <time>2019-04-08T12:43:02Z</time>
      </trkpt>
      <trkpt lat="42.24056" lon="1.83507">
        <ele>1408.214</ele>
        <time>2019-04-08T12:43:07Z</time>
      </trkpt>
      <trkpt lat="42.24054" lon="1.83509">
        <ele>1409.008</ele>
        <time>2019-04-08T12:43:08Z</time>
      </trkpt>
      <trkpt lat="42.24046" lon="1.83516">
        <ele>1410.158</ele>
        <time>2019-04-08T12:43:11Z</time>
      </trkpt>
      <trkpt lat="42.24037" lon="1.83519">
        <ele>1411.12</ele>
        <time>2019-04-08T12:43:15Z</time>
      </trkpt>
      <trkpt lat="42.24028" lon="1.83523">
        <ele>1412.065</ele>
        <time>2019-04-08T12:43:19Z</time>
      </trkpt>
      <trkpt lat="42.24026" lon="1.83525">
        <ele>1412.176</ele>
        <time>2019-04-08T12:43:20Z</time>
      </trkpt>
      <trkpt lat="42.24024" lon="1.83526">
        <ele>1412.266</ele>
        <time>2019-04-08T12:43:21Z</time>
      </trkpt>
      <trkpt lat="42.24023" lon="1.83528">
        <ele>1412.34</ele>
        <time>2019-04-08T12:43:22Z</time>
      </trkpt>
      <trkpt lat="42.24021" lon="1.83529">
        <ele>1413.119</ele>
        <time>2019-04-08T12:43:22Z</time>
      </trkpt>
      <trkpt lat="42.24017" lon="1.83531">
        <ele>1413.241</ele>
        <time>2019-04-08T12:43:24Z</time>
      </trkpt>
      <trkpt lat="42.24015" lon="1.83532">
        <ele>1413.223</ele>
        <time>2019-04-08T12:43:25Z</time>
      </trkpt>
      <trkpt lat="42.24014" lon="1.83534">
        <ele>1413.983</ele>
        <time>2019-04-08T12:43:26Z</time>
      </trkpt>
      <trkpt lat="42.24012" lon="1.83535">
        <ele>1414.111</ele>
        <time>2019-04-08T12:43:26Z</time>
      </trkpt>
      <trkpt lat="42.24009" lon="1.83538">
        <ele>1414.208</ele>
        <time>2019-04-08T12:43:28Z</time>
      </trkpt>
      <trkpt lat="42.24007" lon="1.8354">
        <ele>1414.255</ele>
        <time>2019-04-08T12:43:29Z</time>
      </trkpt>
      <trkpt lat="42.24005" lon="1.8354">
        <ele>1414.227</ele>
        <time>2019-04-08T12:43:30Z</time>
      </trkpt>
      <trkpt lat="42.24003" lon="1.8354">
        <ele>1414.272</ele>
        <time>2019-04-08T12:43:31Z</time>
      </trkpt>
      <trkpt lat="42.24" lon="1.83541">
        <ele>1414.083</ele>
        <time>2019-04-08T12:43:32Z</time>
      </trkpt>
      <trkpt lat="42.23998" lon="1.83542">
        <ele>1414.073</ele>
        <time>2019-04-08T12:43:33Z</time>
      </trkpt>
      <trkpt lat="42.23994" lon="1.83541">
        <ele>1415.297</ele>
        <time>2019-04-08T12:43:34Z</time>
      </trkpt>
      <trkpt lat="42.23992" lon="1.83542">
        <ele>1415.266</ele>
        <time>2019-04-08T12:43:35Z</time>
      </trkpt>
      <trkpt lat="42.23989" lon="1.83544">
        <ele>1415.018</ele>
        <time>2019-04-08T12:43:36Z</time>
      </trkpt>
      <trkpt lat="42.23986" lon="1.83547">
        <ele>1415.147</ele>
        <time>2019-04-08T12:43:38Z</time>
      </trkpt>
      <trkpt lat="42.23983" lon="1.83549">
        <ele>1415.129</ele>
        <time>2019-04-08T12:43:39Z</time>
      </trkpt>
      <trkpt lat="42.23982" lon="1.83551">
        <ele>1415.321</ele>
        <time>2019-04-08T12:43:40Z</time>
      </trkpt>
      <trkpt lat="42.23979" lon="1.83553">
        <ele>1415.008</ele>
        <time>2019-04-08T12:43:41Z</time>
      </trkpt>
      <trkpt lat="42.23976" lon="1.83554">
        <ele>1415.187</ele>
        <time>2019-04-08T12:43:42Z</time>
      </trkpt>
      <trkpt lat="42.23973" lon="1.83555">
        <ele>1415.329</ele>
        <time>2019-04-08T12:43:44Z</time>
      </trkpt>
      <trkpt lat="42.2397" lon="1.83556">
        <ele>1415.274</ele>
        <time>2019-04-08T12:43:45Z</time>
      </trkpt>
      <trkpt lat="42.23968" lon="1.83557">
        <ele>1415.145</ele>
        <time>2019-04-08T12:43:46Z</time>
      </trkpt>
      <trkpt lat="42.23966" lon="1.83558">
        <ele>1415.015</ele>
        <time>2019-04-08T12:43:47Z</time>
      </trkpt>
      <trkpt lat="42.23964" lon="1.83559">
        <ele>1414.329</ele>
        <time>2019-04-08T12:43:47Z</time>
      </trkpt>
      <trkpt lat="42.23962" lon="1.83559">
        <ele>1413.238</ele>
        <time>2019-04-08T12:43:48Z</time>
      </trkpt>
      <trkpt lat="42.2396" lon="1.83559">
        <ele>1413.12</ele>
        <time>2019-04-08T12:43:49Z</time>
      </trkpt>
      <trkpt lat="42.23958" lon="1.83559">
        <ele>1413.082</ele>
        <time>2019-04-08T12:43:50Z</time>
      </trkpt>
      <trkpt lat="42.23956" lon="1.83559">
        <ele>1413.243</ele>
        <time>2019-04-08T12:43:51Z</time>
      </trkpt>
      <trkpt lat="42.23953" lon="1.8356">
        <ele>1413.117</ele>
        <time>2019-04-08T12:43:52Z</time>
      </trkpt>
      <trkpt lat="42.2395" lon="1.83562">
        <ele>1413.108</ele>
        <time>2019-04-08T12:43:53Z</time>
      </trkpt>
      <trkpt lat="42.23948" lon="1.83564">
        <ele>1413.281</ele>
        <time>2019-04-08T12:43:54Z</time>
      </trkpt>
      <trkpt lat="42.23947" lon="1.83566">
        <ele>1413.313</ele>
        <time>2019-04-08T12:43:55Z</time>
      </trkpt>
      <trkpt lat="42.23945" lon="1.83569">
        <ele>1413.178</ele>
        <time>2019-04-08T12:43:56Z</time>
      </trkpt>
      <trkpt lat="42.23944" lon="1.83572">
        <ele>1413.199</ele>
        <time>2019-04-08T12:43:57Z</time>
      </trkpt>
      <trkpt lat="42.23942" lon="1.83574">
        <ele>1413.329</ele>
        <time>2019-04-08T12:43:58Z</time>
      </trkpt>
      <trkpt lat="42.23941" lon="1.83577">
        <ele>1413.133</ele>
        <time>2019-04-08T12:43:59Z</time>
      </trkpt>
      <trkpt lat="42.23941" lon="1.8358">
        <ele>1414.052</ele>
        <time>2019-04-08T12:44:00Z</time>
      </trkpt>
      <trkpt lat="42.2394" lon="1.83583">
        <ele>1413.914</ele>
        <time>2019-04-08T12:44:01Z</time>
      </trkpt>
      <trkpt lat="42.2394" lon="1.83586">
        <ele>1413.228</ele>
        <time>2019-04-08T12:44:02Z</time>
      </trkpt>
      <trkpt lat="42.2394" lon="1.83589">
        <ele>1413.189</ele>
        <time>2019-04-08T12:44:02Z</time>
      </trkpt>
      <trkpt lat="42.2394" lon="1.83592">
        <ele>1413.217</ele>
        <time>2019-04-08T12:44:03Z</time>
      </trkpt>
      <trkpt lat="42.2394" lon="1.83595">
        <ele>1413.208</ele>
        <time>2019-04-08T12:44:04Z</time>
      </trkpt>
      <trkpt lat="42.2394" lon="1.836">
        <ele>1412.265</ele>
        <time>2019-04-08T12:44:06Z</time>
      </trkpt>
      <trkpt lat="42.2394" lon="1.83604">
        <ele>1412.137</ele>
        <time>2019-04-08T12:44:07Z</time>
      </trkpt>
      <trkpt lat="42.23939" lon="1.83608">
        <ele>1412.112</ele>
        <time>2019-04-08T12:44:08Z</time>
      </trkpt>
      <trkpt lat="42.23938" lon="1.83613">
        <ele>1413.143</ele>
        <time>2019-04-08T12:44:10Z</time>
      </trkpt>
      <trkpt lat="42.23938" lon="1.83615">
        <ele>1413.293</ele>
        <time>2019-04-08T12:44:10Z</time>
      </trkpt>
      <trkpt lat="42.23937" lon="1.83618">
        <ele>1413.237</ele>
        <time>2019-04-08T12:44:11Z</time>
      </trkpt>
      <trkpt lat="42.23936" lon="1.83621">
        <ele>1413.116</ele>
        <time>2019-04-08T12:44:12Z</time>
      </trkpt>
      <trkpt lat="42.23935" lon="1.83624">
        <ele>1413.168</ele>
        <time>2019-04-08T12:44:13Z</time>
      </trkpt>
      <trkpt lat="42.23934" lon="1.83628">
        <ele>1413.127</ele>
        <time>2019-04-08T12:44:14Z</time>
      </trkpt>
      <trkpt lat="42.23933" lon="1.83631">
        <ele>1413.268</ele>
        <time>2019-04-08T12:44:15Z</time>
      </trkpt>
      <trkpt lat="42.23932" lon="1.83634">
        <ele>1414.214</ele>
        <time>2019-04-08T12:44:16Z</time>
      </trkpt>
      <trkpt lat="42.23931" lon="1.83638">
        <ele>1414.208</ele>
        <time>2019-04-08T12:44:17Z</time>
      </trkpt>
      <trkpt lat="42.2393" lon="1.83641">
        <ele>1416.165</ele>
        <time>2019-04-08T12:44:19Z</time>
      </trkpt>
      <trkpt lat="42.2393" lon="1.83644">
        <ele>1416.127</ele>
        <time>2019-04-08T12:44:20Z</time>
      </trkpt>
      <trkpt lat="42.2393" lon="1.83647">
        <ele>1416.292</ele>
        <time>2019-04-08T12:44:20Z</time>
      </trkpt>
      <trkpt lat="42.23929" lon="1.83651">
        <ele>1416.133</ele>
        <time>2019-04-08T12:44:22Z</time>
      </trkpt>
      <trkpt lat="42.23929" lon="1.83654">
        <ele>1416.153</ele>
        <time>2019-04-08T12:44:22Z</time>
      </trkpt>
      <trkpt lat="42.23928" lon="1.83659">
        <ele>1416.257</ele>
        <time>2019-04-08T12:44:24Z</time>
      </trkpt>
      <trkpt lat="42.23927" lon="1.83666">
        <ele>1416.026</ele>
        <time>2019-04-08T12:44:26Z</time>
      </trkpt>
      <trkpt lat="42.23926" lon="1.83668">
        <ele>1416.138</ele>
        <time>2019-04-08T12:44:27Z</time>
      </trkpt>
      <trkpt lat="42.23923" lon="1.83678">
        <ele>1414.283</ele>
        <time>2019-04-08T12:44:30Z</time>
      </trkpt>
      <trkpt lat="42.23922" lon="1.83682">
        <ele>1413.125</ele>
        <time>2019-04-08T12:44:31Z</time>
      </trkpt>
      <trkpt lat="42.2392" lon="1.83685">
        <ele>1413.217</ele>
        <time>2019-04-08T12:44:32Z</time>
      </trkpt>
      <trkpt lat="42.2392" lon="1.83689">
        <ele>1413.108</ele>
        <time>2019-04-08T12:44:33Z</time>
      </trkpt>
      <trkpt lat="42.23918" lon="1.83692">
        <ele>1413.251</ele>
        <time>2019-04-08T12:44:35Z</time>
      </trkpt>
      <trkpt lat="42.23917" lon="1.83696">
        <ele>1412.223</ele>
        <time>2019-04-08T12:44:36Z</time>
      </trkpt>
      <trkpt lat="42.23915" lon="1.83698">
        <ele>1412.068</ele>
        <time>2019-04-08T12:44:37Z</time>
      </trkpt>
      <trkpt lat="42.23911" lon="1.83705">
        <ele>1411.149</ele>
        <time>2019-04-08T12:44:39Z</time>
      </trkpt>
      <trkpt lat="42.2391" lon="1.83707">
        <ele>1411.299</ele>
        <time>2019-04-08T12:44:40Z</time>
      </trkpt>
      <trkpt lat="42.23908" lon="1.83709">
        <ele>1410.253</ele>
        <time>2019-04-08T12:44:41Z</time>
      </trkpt>
      <trkpt lat="42.23907" lon="1.83713">
        <ele>1410.132</ele>
        <time>2019-04-08T12:44:42Z</time>
      </trkpt>
      <trkpt lat="42.23906" lon="1.83716">
        <ele>1410.174</ele>
        <time>2019-04-08T12:44:44Z</time>
      </trkpt>
      <trkpt lat="42.23906" lon="1.83719">
        <ele>1410.133</ele>
        <time>2019-04-08T12:44:44Z</time>
      </trkpt>
      <trkpt lat="42.23904" lon="1.83722">
        <ele>1409.123</ele>
        <time>2019-04-08T12:44:45Z</time>
      </trkpt>
      <trkpt lat="42.23904" lon="1.83726">
        <ele>1409.315</ele>
        <time>2019-04-08T12:44:47Z</time>
      </trkpt>
      <trkpt lat="42.23902" lon="1.83728">
        <ele>1409.208</ele>
        <time>2019-04-08T12:44:47Z</time>
      </trkpt>
      <trkpt lat="42.239" lon="1.83731">
        <ele>1409.056</ele>
        <time>2019-04-08T12:44:49Z</time>
      </trkpt>
      <trkpt lat="42.23899" lon="1.83734">
        <ele>1410.168</ele>
        <time>2019-04-08T12:44:50Z</time>
      </trkpt>
      <trkpt lat="42.23898" lon="1.83737">
        <ele>1410.123</ele>
        <time>2019-04-08T12:44:51Z</time>
      </trkpt>
      <trkpt lat="42.23896" lon="1.8374">
        <ele>1410.134</ele>
        <time>2019-04-08T12:44:52Z</time>
      </trkpt>
      <trkpt lat="42.23894" lon="1.83743">
        <ele>1409.164</ele>
        <time>2019-04-08T12:44:53Z</time>
      </trkpt>
      <trkpt lat="42.23892" lon="1.83746">
        <ele>1409.298</ele>
        <time>2019-04-08T12:44:54Z</time>
      </trkpt>
      <trkpt lat="42.23891" lon="1.8375">
        <ele>1409.137</ele>
        <time>2019-04-08T12:44:56Z</time>
      </trkpt>
      <trkpt lat="42.23888" lon="1.83753">
        <ele>1409.069</ele>
        <time>2019-04-08T12:44:57Z</time>
      </trkpt>
      <trkpt lat="42.23887" lon="1.83756">
        <ele>1409.032</ele>
        <time>2019-04-08T12:44:58Z</time>
      </trkpt>
      <trkpt lat="42.23886" lon="1.83758">
        <ele>1409.292</ele>
        <time>2019-04-08T12:44:58Z</time>
      </trkpt>
      <trkpt lat="42.23885" lon="1.8376">
        <ele>1409.411</ele>
        <time>2019-04-08T12:44:59Z</time>
      </trkpt>
      <trkpt lat="42.23883" lon="1.83762">
        <ele>1410.008</ele>
        <time>2019-04-08T12:45:00Z</time>
      </trkpt>
      <trkpt lat="42.23882" lon="1.83764">
        <ele>1410.256</ele>
        <time>2019-04-08T12:45:01Z</time>
      </trkpt>
      <trkpt lat="42.2388" lon="1.83766">
        <ele>1410.128</ele>
        <time>2019-04-08T12:45:02Z</time>
      </trkpt>
      <trkpt lat="42.23877" lon="1.83771">
        <ele>1410.163</ele>
        <time>2019-04-08T12:45:04Z</time>
      </trkpt>
      <trkpt lat="42.23875" lon="1.83773">
        <ele>1411.174</ele>
        <time>2019-04-08T12:45:05Z</time>
      </trkpt>
      <trkpt lat="42.23874" lon="1.83775">
        <ele>1411.254</ele>
        <time>2019-04-08T12:45:06Z</time>
      </trkpt>
      <trkpt lat="42.23872" lon="1.83778">
        <ele>1411.368</ele>
        <time>2019-04-08T12:45:07Z</time>
      </trkpt>
      <trkpt lat="42.23869" lon="1.83781">
        <ele>1411.027</ele>
        <time>2019-04-08T12:45:08Z</time>
      </trkpt>
      <trkpt lat="42.23867" lon="1.83783">
        <ele>1412.139</ele>
        <time>2019-04-08T12:45:09Z</time>
      </trkpt>
      <trkpt lat="42.23865" lon="1.83785">
        <ele>1409.057</ele>
        <time>2019-04-08T12:45:10Z</time>
      </trkpt>
      <trkpt lat="42.23862" lon="1.83788">
        <ele>1412</ele>
        <time>2019-04-08T12:45:12Z</time>
      </trkpt>
      <trkpt lat="42.23861" lon="1.83789">
        <ele>1412.32</ele>
        <time>2019-04-08T12:45:12Z</time>
      </trkpt>
      <trkpt lat="42.23859" lon="1.8379">
        <ele>1412.308</ele>
        <time>2019-04-08T12:45:13Z</time>
      </trkpt>
      <trkpt lat="42.23857" lon="1.83794">
        <ele>1412.268</ele>
        <time>2019-04-08T12:45:14Z</time>
      </trkpt>
      <trkpt lat="42.23854" lon="1.83797">
        <ele>1412.39</ele>
        <time>2019-04-08T12:45:16Z</time>
      </trkpt>
      <trkpt lat="42.23853" lon="1.83799">
        <ele>1412.125</ele>
        <time>2019-04-08T12:45:17Z</time>
      </trkpt>
      <trkpt lat="42.23852" lon="1.83801">
        <ele>1412.126</ele>
        <time>2019-04-08T12:45:17Z</time>
      </trkpt>
      <trkpt lat="42.23849" lon="1.83805">
        <ele>1412.186</ele>
        <time>2019-04-08T12:45:19Z</time>
      </trkpt>
      <trkpt lat="42.23848" lon="1.83808">
        <ele>1412.24</ele>
        <time>2019-04-08T12:45:20Z</time>
      </trkpt>
      <trkpt lat="42.23847" lon="1.83811">
        <ele>1412.269</ele>
        <time>2019-04-08T12:45:21Z</time>
      </trkpt>
      <trkpt lat="42.23846" lon="1.83813">
        <ele>1412.141</ele>
        <time>2019-04-08T12:45:22Z</time>
      </trkpt>
      <trkpt lat="42.23845" lon="1.83816">
        <ele>1412.273</ele>
        <time>2019-04-08T12:45:23Z</time>
      </trkpt>
      <trkpt lat="42.23846" lon="1.83821">
        <ele>1412.085</ele>
        <time>2019-04-08T12:45:24Z</time>
      </trkpt>
      <trkpt lat="42.23847" lon="1.83825">
        <ele>1414.013</ele>
        <time>2019-04-08T12:45:25Z</time>
      </trkpt>
      <trkpt lat="42.23848" lon="1.83827">
        <ele>1414.208</ele>
        <time>2019-04-08T12:45:26Z</time>
      </trkpt>
      <trkpt lat="42.23849" lon="1.83831">
        <ele>1414.12</ele>
        <time>2019-04-08T12:45:27Z</time>
      </trkpt>
      <trkpt lat="42.23851" lon="1.83833">
        <ele>1414.122</ele>
        <time>2019-04-08T12:45:28Z</time>
      </trkpt>
      <trkpt lat="42.23854" lon="1.83836">
        <ele>1414.257</ele>
        <time>2019-04-08T12:45:30Z</time>
      </trkpt>
      <trkpt lat="42.23856" lon="1.83839">
        <ele>1414.168</ele>
        <time>2019-04-08T12:45:31Z</time>
      </trkpt>
      <trkpt lat="42.23857" lon="1.83842">
        <ele>1414.128</ele>
        <time>2019-04-08T12:45:32Z</time>
      </trkpt>
      <trkpt lat="42.23858" lon="1.83846">
        <ele>1414.152</ele>
        <time>2019-04-08T12:45:33Z</time>
      </trkpt>
      <trkpt lat="42.23859" lon="1.83849">
        <ele>1414.181</ele>
        <time>2019-04-08T12:45:34Z</time>
      </trkpt>
      <trkpt lat="42.23861" lon="1.83852">
        <ele>1413.243</ele>
        <time>2019-04-08T12:45:35Z</time>
      </trkpt>
      <trkpt lat="42.23862" lon="1.83855">
        <ele>1413.162</ele>
        <time>2019-04-08T12:45:36Z</time>
      </trkpt>
      <trkpt lat="42.23864" lon="1.83857">
        <ele>1413.183</ele>
        <time>2019-04-08T12:45:37Z</time>
      </trkpt>
      <trkpt lat="42.23865" lon="1.8386">
        <ele>1413.211</ele>
        <time>2019-04-08T12:45:38Z</time>
      </trkpt>
      <trkpt lat="42.23866" lon="1.83863">
        <ele>1412.208</ele>
        <time>2019-04-08T12:45:39Z</time>
      </trkpt>
      <trkpt lat="42.23867" lon="1.83865">
        <ele>1413.299</ele>
        <time>2019-04-08T12:45:40Z</time>
      </trkpt>
      <trkpt lat="42.23868" lon="1.83868">
        <ele>1413.191</ele>
        <time>2019-04-08T12:45:41Z</time>
      </trkpt>
      <trkpt lat="42.2387" lon="1.83872">
        <ele>1413.236</ele>
        <time>2019-04-08T12:45:42Z</time>
      </trkpt>
      <trkpt lat="42.23872" lon="1.83875">
        <ele>1413.197</ele>
        <time>2019-04-08T12:45:43Z</time>
      </trkpt>
      <trkpt lat="42.23874" lon="1.83878">
        <ele>1413.197</ele>
        <time>2019-04-08T12:45:45Z</time>
      </trkpt>
      <trkpt lat="42.23876" lon="1.83881">
        <ele>1413.371</ele>
        <time>2019-04-08T12:45:46Z</time>
      </trkpt>
      <trkpt lat="42.23878" lon="1.83884">
        <ele>1413.24</ele>
        <time>2019-04-08T12:45:47Z</time>
      </trkpt>
      <trkpt lat="42.23879" lon="1.83888">
        <ele>1413.192</ele>
        <time>2019-04-08T12:45:48Z</time>
      </trkpt>
      <trkpt lat="42.23881" lon="1.83891">
        <ele>1413.225</ele>
        <time>2019-04-08T12:45:49Z</time>
      </trkpt>
      <trkpt lat="42.23882" lon="1.83894">
        <ele>1412.126</ele>
        <time>2019-04-08T12:45:50Z</time>
      </trkpt>
      <trkpt lat="42.23883" lon="1.83898">
        <ele>1412.208</ele>
        <time>2019-04-08T12:45:52Z</time>
      </trkpt>
      <trkpt lat="42.23884" lon="1.839">
        <ele>1412.308</ele>
        <time>2019-04-08T12:45:52Z</time>
      </trkpt>
      <trkpt lat="42.23885" lon="1.83903">
        <ele>1411.015</ele>
        <time>2019-04-08T12:45:53Z</time>
      </trkpt>
      <trkpt lat="42.23886" lon="1.83907">
        <ele>1411.117</ele>
        <time>2019-04-08T12:45:54Z</time>
      </trkpt>
      <trkpt lat="42.23886" lon="1.8391">
        <ele>1411.182</ele>
        <time>2019-04-08T12:45:56Z</time>
      </trkpt>
      <trkpt lat="42.23887" lon="1.83913">
        <ele>1410.943</ele>
        <time>2019-04-08T12:45:56Z</time>
      </trkpt>
      <trkpt lat="42.23887" lon="1.83915">
        <ele>1410.223</ele>
        <time>2019-04-08T12:45:57Z</time>
      </trkpt>
      <trkpt lat="42.23887" lon="1.83918">
        <ele>1410.117</ele>
        <time>2019-04-08T12:45:58Z</time>
      </trkpt>
      <trkpt lat="42.23887" lon="1.83922">
        <ele>1409.036</ele>
        <time>2019-04-08T12:45:59Z</time>
      </trkpt>
      <trkpt lat="42.23888" lon="1.83925">
        <ele>1409.198</ele>
        <time>2019-04-08T12:46:00Z</time>
      </trkpt>
      <trkpt lat="42.23888" lon="1.83927">
        <ele>1409.084</ele>
        <time>2019-04-08T12:46:01Z</time>
      </trkpt>
      <trkpt lat="42.23889" lon="1.8393">
        <ele>1409.007</ele>
        <time>2019-04-08T12:46:01Z</time>
      </trkpt>
      <trkpt lat="42.2389" lon="1.83932">
        <ele>1409.217</ele>
        <time>2019-04-08T12:46:02Z</time>
      </trkpt>
      <trkpt lat="42.2389" lon="1.83935">
        <ele>1408.308</ele>
        <time>2019-04-08T12:46:03Z</time>
      </trkpt>
      <trkpt lat="42.2389" lon="1.83937">
        <ele>1408.381</ele>
        <time>2019-04-08T12:46:04Z</time>
      </trkpt>
      <trkpt lat="42.23891" lon="1.8394">
        <ele>1408.023</ele>
        <time>2019-04-08T12:46:05Z</time>
      </trkpt>
      <trkpt lat="42.23891" lon="1.83943">
        <ele>1407.238</ele>
        <time>2019-04-08T12:46:05Z</time>
      </trkpt>
      <trkpt lat="42.23891" lon="1.83946">
        <ele>1407.289</ele>
        <time>2019-04-08T12:46:06Z</time>
      </trkpt>
      <trkpt lat="42.23891" lon="1.83948">
        <ele>1406.329</ele>
        <time>2019-04-08T12:46:07Z</time>
      </trkpt>
      <trkpt lat="42.23891" lon="1.83951">
        <ele>1407.263</ele>
        <time>2019-04-08T12:46:08Z</time>
      </trkpt>
      <trkpt lat="42.23891" lon="1.83954">
        <ele>1406.212</ele>
        <time>2019-04-08T12:46:09Z</time>
      </trkpt>
      <trkpt lat="42.23891" lon="1.83957">
        <ele>1406.044</ele>
        <time>2019-04-08T12:46:10Z</time>
      </trkpt>
      <trkpt lat="42.23891" lon="1.8396">
        <ele>1406.175</ele>
        <time>2019-04-08T12:46:11Z</time>
      </trkpt>
      <trkpt lat="42.23892" lon="1.83963">
        <ele>1404.228</ele>
        <time>2019-04-08T12:46:11Z</time>
      </trkpt>
      <trkpt lat="42.23891" lon="1.83966">
        <ele>1404.22</ele>
        <time>2019-04-08T12:46:12Z</time>
      </trkpt>
      <trkpt lat="42.23891" lon="1.83969">
        <ele>1404.208</ele>
        <time>2019-04-08T12:46:13Z</time>
      </trkpt>
      <trkpt lat="42.23891" lon="1.83972">
        <ele>1404.27</ele>
        <time>2019-04-08T12:46:14Z</time>
      </trkpt>
      <trkpt lat="42.23891" lon="1.83975">
        <ele>1404.182</ele>
        <time>2019-04-08T12:46:15Z</time>
      </trkpt>
      <trkpt lat="42.23892" lon="1.83977">
        <ele>1404.187</ele>
        <time>2019-04-08T12:46:16Z</time>
      </trkpt>
      <trkpt lat="42.23892" lon="1.8398">
        <ele>1404.058</ele>
        <time>2019-04-08T12:46:16Z</time>
      </trkpt>
      <trkpt lat="42.23892" lon="1.83983">
        <ele>1403.148</ele>
        <time>2019-04-08T12:46:17Z</time>
      </trkpt>
      <trkpt lat="42.23892" lon="1.83985">
        <ele>1403.142</ele>
        <time>2019-04-08T12:46:18Z</time>
      </trkpt>
      <trkpt lat="42.23892" lon="1.83988">
        <ele>1402.281</ele>
        <time>2019-04-08T12:46:19Z</time>
      </trkpt>
      <trkpt lat="42.23892" lon="1.83991">
        <ele>1402.033</ele>
        <time>2019-04-08T12:46:20Z</time>
      </trkpt>
      <trkpt lat="42.23892" lon="1.83994">
        <ele>1402.234</ele>
        <time>2019-04-08T12:46:21Z</time>
      </trkpt>
      <trkpt lat="42.23892" lon="1.83997">
        <ele>1403.055</ele>
        <time>2019-04-08T12:46:22Z</time>
      </trkpt>
      <trkpt lat="42.23892" lon="1.83999">
        <ele>1402.11</ele>
        <time>2019-04-08T12:46:22Z</time>
      </trkpt>
      <trkpt lat="42.23892" lon="1.84002">
        <ele>1401.008</ele>
        <time>2019-04-08T12:46:23Z</time>
      </trkpt>
      <trkpt lat="42.23892" lon="1.84005">
        <ele>1401.236</ele>
        <time>2019-04-08T12:46:24Z</time>
      </trkpt>
      <trkpt lat="42.23891" lon="1.84008">
        <ele>1401.148</ele>
        <time>2019-04-08T12:46:25Z</time>
      </trkpt>
      <trkpt lat="42.23891" lon="1.84011">
        <ele>1400.113</ele>
        <time>2019-04-08T12:46:26Z</time>
      </trkpt>
      <trkpt lat="42.23892" lon="1.84014">
        <ele>1399.234</ele>
        <time>2019-04-08T12:46:27Z</time>
      </trkpt>
      <trkpt lat="42.23892" lon="1.84018">
        <ele>1398.254</ele>
        <time>2019-04-08T12:46:28Z</time>
      </trkpt>
      <trkpt lat="42.23891" lon="1.84021">
        <ele>1399.238</ele>
        <time>2019-04-08T12:46:29Z</time>
      </trkpt>
      <trkpt lat="42.23891" lon="1.84024">
        <ele>1398.037</ele>
        <time>2019-04-08T12:46:30Z</time>
      </trkpt>
      <trkpt lat="42.2389" lon="1.84027">
        <ele>1397.139</ele>
        <time>2019-04-08T12:46:31Z</time>
      </trkpt>
      <trkpt lat="42.23889" lon="1.8403">
        <ele>1397.154</ele>
        <time>2019-04-08T12:46:31Z</time>
      </trkpt>
      <trkpt lat="42.23889" lon="1.84033">
        <ele>1397.056</ele>
        <time>2019-04-08T12:46:32Z</time>
      </trkpt>
      <trkpt lat="42.23888" lon="1.84035">
        <ele>1397.111</ele>
        <time>2019-04-08T12:46:33Z</time>
      </trkpt>
      <trkpt lat="42.23888" lon="1.84038">
        <ele>1396.308</ele>
        <time>2019-04-08T12:46:34Z</time>
      </trkpt>
      <trkpt lat="42.23888" lon="1.84041">
        <ele>1395.288</ele>
        <time>2019-04-08T12:46:35Z</time>
      </trkpt>
      <trkpt lat="42.23888" lon="1.84045">
        <ele>1395.37</ele>
        <time>2019-04-08T12:46:36Z</time>
      </trkpt>
      <trkpt lat="42.23887" lon="1.84047">
        <ele>1394.125</ele>
        <time>2019-04-08T12:46:37Z</time>
      </trkpt>
      <trkpt lat="42.23887" lon="1.8405">
        <ele>1394.096</ele>
        <time>2019-04-08T12:46:37Z</time>
      </trkpt>
      <trkpt lat="42.23886" lon="1.84053">
        <ele>1393.266</ele>
        <time>2019-04-08T12:46:38Z</time>
      </trkpt>
      <trkpt lat="42.23886" lon="1.84056">
        <ele>1392.93</ele>
        <time>2019-04-08T12:46:39Z</time>
      </trkpt>
      <trkpt lat="42.23885" lon="1.84059">
        <ele>1393.289</ele>
        <time>2019-04-08T12:46:40Z</time>
      </trkpt>
      <trkpt lat="42.23885" lon="1.84062">
        <ele>1393.141</ele>
        <time>2019-04-08T12:46:41Z</time>
      </trkpt>
      <trkpt lat="42.23885" lon="1.84065">
        <ele>1393.068</ele>
        <time>2019-04-08T12:46:42Z</time>
      </trkpt>
      <trkpt lat="42.23885" lon="1.84069">
        <ele>1393.142</ele>
        <time>2019-04-08T12:46:43Z</time>
      </trkpt>
      <trkpt lat="42.23885" lon="1.84072">
        <ele>1393.026</ele>
        <time>2019-04-08T12:46:44Z</time>
      </trkpt>
      <trkpt lat="42.23885" lon="1.84075">
        <ele>1392.108</ele>
        <time>2019-04-08T12:46:45Z</time>
      </trkpt>
      <trkpt lat="42.23884" lon="1.84078">
        <ele>1392.299</ele>
        <time>2019-04-08T12:46:46Z</time>
      </trkpt>
      <trkpt lat="42.23884" lon="1.84081">
        <ele>1391.181</ele>
        <time>2019-04-08T12:46:47Z</time>
      </trkpt>
      <trkpt lat="42.23883" lon="1.84084">
        <ele>1391.136</ele>
        <time>2019-04-08T12:46:48Z</time>
      </trkpt>
      <trkpt lat="42.23883" lon="1.84087">
        <ele>1390.047</ele>
        <time>2019-04-08T12:46:49Z</time>
      </trkpt>
      <trkpt lat="42.23883" lon="1.84091">
        <ele>1391.267</ele>
        <time>2019-04-08T12:46:50Z</time>
      </trkpt>
      <trkpt lat="42.23882" lon="1.84094">
        <ele>1390.291</ele>
        <time>2019-04-08T12:46:51Z</time>
      </trkpt>
      <trkpt lat="42.23882" lon="1.84097">
        <ele>1390.28</ele>
        <time>2019-04-08T12:46:52Z</time>
      </trkpt>
      <trkpt lat="42.23882" lon="1.84101">
        <ele>1390.132</ele>
        <time>2019-04-08T12:46:53Z</time>
      </trkpt>
      <trkpt lat="42.23882" lon="1.84104">
        <ele>1390.149</ele>
        <time>2019-04-08T12:46:54Z</time>
      </trkpt>
      <trkpt lat="42.23881" lon="1.84108">
        <ele>1389.002</ele>
        <time>2019-04-08T12:46:55Z</time>
      </trkpt>
      <trkpt lat="42.2388" lon="1.84112">
        <ele>1388.222</ele>
        <time>2019-04-08T12:46:56Z</time>
      </trkpt>
      <trkpt lat="42.23879" lon="1.84115">
        <ele>1388.208</ele>
        <time>2019-04-08T12:46:57Z</time>
      </trkpt>
      <trkpt lat="42.23878" lon="1.84119">
        <ele>1387.137</ele>
        <time>2019-04-08T12:46:58Z</time>
      </trkpt>
      <trkpt lat="42.23878" lon="1.84121">
        <ele>1387.299</ele>
        <time>2019-04-08T12:46:59Z</time>
      </trkpt>
      <trkpt lat="42.23876" lon="1.84124">
        <ele>1387.164</ele>
        <time>2019-04-08T12:47:00Z</time>
      </trkpt>
      <trkpt lat="42.23875" lon="1.84126">
        <ele>1387.175</ele>
        <time>2019-04-08T12:47:01Z</time>
      </trkpt>
      <trkpt lat="42.23875" lon="1.84129">
        <ele>1386.195</ele>
        <time>2019-04-08T12:47:02Z</time>
      </trkpt>
      <trkpt lat="42.23874" lon="1.84132">
        <ele>1386.169</ele>
        <time>2019-04-08T12:47:03Z</time>
      </trkpt>
      <trkpt lat="42.23873" lon="1.84134">
        <ele>1386.838</ele>
        <time>2019-04-08T12:47:03Z</time>
      </trkpt>
      <trkpt lat="42.23872" lon="1.84137">
        <ele>1386.29</ele>
        <time>2019-04-08T12:47:04Z</time>
      </trkpt>
      <trkpt lat="42.2387" lon="1.8414">
        <ele>1385.135</ele>
        <time>2019-04-08T12:47:06Z</time>
      </trkpt>
      <trkpt lat="42.23869" lon="1.84143">
        <ele>1385.286</ele>
        <time>2019-04-08T12:47:06Z</time>
      </trkpt>
      <trkpt lat="42.23868" lon="1.84146">
        <ele>1384.214</ele>
        <time>2019-04-08T12:47:07Z</time>
      </trkpt>
      <trkpt lat="42.23867" lon="1.84149">
        <ele>1384.008</ele>
        <time>2019-04-08T12:47:08Z</time>
      </trkpt>
      <trkpt lat="42.23867" lon="1.84153">
        <ele>1383.226</ele>
        <time>2019-04-08T12:47:09Z</time>
      </trkpt>
      <trkpt lat="42.23866" lon="1.84155">
        <ele>1383.198</ele>
        <time>2019-04-08T12:47:10Z</time>
      </trkpt>
      <trkpt lat="42.23865" lon="1.84158">
        <ele>1383.233</ele>
        <time>2019-04-08T12:47:11Z</time>
      </trkpt>
      <trkpt lat="42.23864" lon="1.84161">
        <ele>1383.164</ele>
        <time>2019-04-08T12:47:12Z</time>
      </trkpt>
      <trkpt lat="42.23863" lon="1.84164">
        <ele>1382.134</ele>
        <time>2019-04-08T12:47:13Z</time>
      </trkpt>
      <trkpt lat="42.23862" lon="1.84167">
        <ele>1382.218</ele>
        <time>2019-04-08T12:47:14Z</time>
      </trkpt>
      <trkpt lat="42.23861" lon="1.84171">
        <ele>1381.287</ele>
        <time>2019-04-08T12:47:15Z</time>
      </trkpt>
      <trkpt lat="42.2386" lon="1.84174">
        <ele>1381.129</ele>
        <time>2019-04-08T12:47:16Z</time>
      </trkpt>
      <trkpt lat="42.23859" lon="1.84178">
        <ele>1381.138</ele>
        <time>2019-04-08T12:47:18Z</time>
      </trkpt>
      <trkpt lat="42.23859" lon="1.84181">
        <ele>1380.17</ele>
        <time>2019-04-08T12:47:19Z</time>
      </trkpt>
      <trkpt lat="42.23858" lon="1.84184">
        <ele>1380.017</ele>
        <time>2019-04-08T12:47:19Z</time>
      </trkpt>
      <trkpt lat="42.23857" lon="1.84187">
        <ele>1379.208</ele>
        <time>2019-04-08T12:47:20Z</time>
      </trkpt>
      <trkpt lat="42.23856" lon="1.84189">
        <ele>1378.156</ele>
        <time>2019-04-08T12:47:21Z</time>
      </trkpt>
      <trkpt lat="42.23855" lon="1.84191">
        <ele>1378.218</ele>
        <time>2019-04-08T12:47:22Z</time>
      </trkpt>
      <trkpt lat="42.23855" lon="1.84193">
        <ele>1378.293</ele>
        <time>2019-04-08T12:47:23Z</time>
      </trkpt>
      <trkpt lat="42.23854" lon="1.84196">
        <ele>1377.144</ele>
        <time>2019-04-08T12:47:23Z</time>
      </trkpt>
      <trkpt lat="42.23852" lon="1.84198">
        <ele>1377.344</ele>
        <time>2019-04-08T12:47:24Z</time>
      </trkpt>
      <trkpt lat="42.23851" lon="1.842">
        <ele>1376.348</ele>
        <time>2019-04-08T12:47:25Z</time>
      </trkpt>
      <trkpt lat="42.2385" lon="1.84203">
        <ele>1376.037</ele>
        <time>2019-04-08T12:47:26Z</time>
      </trkpt>
      <trkpt lat="42.23849" lon="1.84205">
        <ele>1375.289</ele>
        <time>2019-04-08T12:47:27Z</time>
      </trkpt>
      <trkpt lat="42.23847" lon="1.84208">
        <ele>1375.152</ele>
        <time>2019-04-08T12:47:28Z</time>
      </trkpt>
      <trkpt lat="42.23845" lon="1.8421">
        <ele>1374.253</ele>
        <time>2019-04-08T12:47:29Z</time>
      </trkpt>
      <trkpt lat="42.23844" lon="1.84212">
        <ele>1374.308</ele>
        <time>2019-04-08T12:47:30Z</time>
      </trkpt>
      <trkpt lat="42.23843" lon="1.84215">
        <ele>1375.108</ele>
        <time>2019-04-08T12:47:31Z</time>
      </trkpt>
      <trkpt lat="42.23841" lon="1.84218">
        <ele>1375.148</ele>
        <time>2019-04-08T12:47:32Z</time>
      </trkpt>
      <trkpt lat="42.23839" lon="1.84221">
        <ele>1374.21</ele>
        <time>2019-04-08T12:47:33Z</time>
      </trkpt>
      <trkpt lat="42.23838" lon="1.84225">
        <ele>1374.245</ele>
        <time>2019-04-08T12:47:34Z</time>
      </trkpt>
      <trkpt lat="42.23836" lon="1.84229">
        <ele>1374.076</ele>
        <time>2019-04-08T12:47:35Z</time>
      </trkpt>
      <trkpt lat="42.23835" lon="1.84233">
        <ele>1374.186</ele>
        <time>2019-04-08T12:47:37Z</time>
      </trkpt>
      <trkpt lat="42.23833" lon="1.84236">
        <ele>1374.21</ele>
        <time>2019-04-08T12:47:38Z</time>
      </trkpt>
      <trkpt lat="42.23832" lon="1.8424">
        <ele>1374.019</ele>
        <time>2019-04-08T12:47:39Z</time>
      </trkpt>
      <trkpt lat="42.2383" lon="1.84243">
        <ele>1374.161</ele>
        <time>2019-04-08T12:47:40Z</time>
      </trkpt>
      <trkpt lat="42.23828" lon="1.84247">
        <ele>1374.257</ele>
        <time>2019-04-08T12:47:42Z</time>
      </trkpt>
      <trkpt lat="42.23828" lon="1.84249">
        <ele>1374.1</ele>
        <time>2019-04-08T12:47:43Z</time>
      </trkpt>
      <trkpt lat="42.23827" lon="1.84252">
        <ele>1374.22</ele>
        <time>2019-04-08T12:47:43Z</time>
      </trkpt>
      <trkpt lat="42.23826" lon="1.84255">
        <ele>1374.308</ele>
        <time>2019-04-08T12:47:44Z</time>
      </trkpt>
      <trkpt lat="42.23825" lon="1.84258">
        <ele>1374.178</ele>
        <time>2019-04-08T12:47:45Z</time>
      </trkpt>
      <trkpt lat="42.23824" lon="1.8426">
        <ele>1374.19</ele>
        <time>2019-04-08T12:47:46Z</time>
      </trkpt>
      <trkpt lat="42.23823" lon="1.84263">
        <ele>1374.045</ele>
        <time>2019-04-08T12:47:47Z</time>
      </trkpt>
      <trkpt lat="42.23822" lon="1.84266">
        <ele>1374.236</ele>
        <time>2019-04-08T12:47:48Z</time>
      </trkpt>
      <trkpt lat="42.23821" lon="1.84268">
        <ele>1374.016</ele>
        <time>2019-04-08T12:47:49Z</time>
      </trkpt>
      <trkpt lat="42.2382" lon="1.84271">
        <ele>1375.19</ele>
        <time>2019-04-08T12:47:50Z</time>
      </trkpt>
      <trkpt lat="42.23819" lon="1.84274">
        <ele>1376.149</ele>
        <time>2019-04-08T12:47:51Z</time>
      </trkpt>
      <trkpt lat="42.23817" lon="1.84276">
        <ele>1376.151</ele>
        <time>2019-04-08T12:47:51Z</time>
      </trkpt>
      <trkpt lat="42.23816" lon="1.84279">
        <ele>1376.089</ele>
        <time>2019-04-08T12:47:52Z</time>
      </trkpt>
      <trkpt lat="42.23815" lon="1.84282">
        <ele>1378.206</ele>
        <time>2019-04-08T12:47:54Z</time>
      </trkpt>
      <trkpt lat="42.23814" lon="1.84286">
        <ele>1378.226</ele>
        <time>2019-04-08T12:47:55Z</time>
      </trkpt>
      <trkpt lat="42.23812" lon="1.84289">
        <ele>1378.208</ele>
        <time>2019-04-08T12:47:56Z</time>
      </trkpt>
      <trkpt lat="42.23811" lon="1.84293">
        <ele>1379.081</ele>
        <time>2019-04-08T12:47:57Z</time>
      </trkpt>
      <trkpt lat="42.2381" lon="1.84296">
        <ele>1379.183</ele>
        <time>2019-04-08T12:47:58Z</time>
      </trkpt>
      <trkpt lat="42.23809" lon="1.843">
        <ele>1380.068</ele>
        <time>2019-04-08T12:47:59Z</time>
      </trkpt>
      <trkpt lat="42.23809" lon="1.84303">
        <ele>1380.219</ele>
        <time>2019-04-08T12:48:00Z</time>
      </trkpt>
      <trkpt lat="42.23808" lon="1.84305">
        <ele>1381.269</ele>
        <time>2019-04-08T12:48:01Z</time>
      </trkpt>
      <trkpt lat="42.23807" lon="1.84309">
        <ele>1382.373</ele>
        <time>2019-04-08T12:48:02Z</time>
      </trkpt>
      <trkpt lat="42.23807" lon="1.84313">
        <ele>1382.032</ele>
        <time>2019-04-08T12:48:03Z</time>
      </trkpt>
      <trkpt lat="42.23807" lon="1.84316">
        <ele>1382.114</ele>
        <time>2019-04-08T12:48:04Z</time>
      </trkpt>
      <trkpt lat="42.23806" lon="1.84318">
        <ele>1383.035</ele>
        <time>2019-04-08T12:48:05Z</time>
      </trkpt>
      <trkpt lat="42.23806" lon="1.84322">
        <ele>1384.186</ele>
        <time>2019-04-08T12:48:06Z</time>
      </trkpt>
      <trkpt lat="42.23804" lon="1.84326">
        <ele>1385.114</ele>
        <time>2019-04-08T12:48:07Z</time>
      </trkpt>
      <trkpt lat="42.23803" lon="1.84328">
        <ele>1385.208</ele>
        <time>2019-04-08T12:48:08Z</time>
      </trkpt>
      <trkpt lat="42.23802" lon="1.8433">
        <ele>1384.246</ele>
        <time>2019-04-08T12:48:09Z</time>
      </trkpt>
      <trkpt lat="42.23801" lon="1.84335">
        <ele>1384.268</ele>
        <time>2019-04-08T12:48:10Z</time>
      </trkpt>
      <trkpt lat="42.23799" lon="1.84338">
        <ele>1384.043</ele>
        <time>2019-04-08T12:48:11Z</time>
      </trkpt>
      <trkpt lat="42.23798" lon="1.84342">
        <ele>1384.234</ele>
        <time>2019-04-08T12:48:13Z</time>
      </trkpt>
      <trkpt lat="42.23797" lon="1.84345">
        <ele>1384.174</ele>
        <time>2019-04-08T12:48:14Z</time>
      </trkpt>
      <trkpt lat="42.23796" lon="1.84348">
        <ele>1384.248</ele>
        <time>2019-04-08T12:48:15Z</time>
      </trkpt>
      <trkpt lat="42.23795" lon="1.84351">
        <ele>1384.017</ele>
        <time>2019-04-08T12:48:16Z</time>
      </trkpt>
      <trkpt lat="42.23793" lon="1.84355">
        <ele>1383.019</ele>
        <time>2019-04-08T12:48:17Z</time>
      </trkpt>
      <trkpt lat="42.23791" lon="1.84359">
        <ele>1382.222</ele>
        <time>2019-04-08T12:48:18Z</time>
      </trkpt>
      <trkpt lat="42.2379" lon="1.84362">
        <ele>1381.062</ele>
        <time>2019-04-08T12:48:19Z</time>
      </trkpt>
      <trkpt lat="42.23789" lon="1.84365">
        <ele>1381.108</ele>
        <time>2019-04-08T12:48:20Z</time>
      </trkpt>
      <trkpt lat="42.23787" lon="1.84368">
        <ele>1381.308</ele>
        <time>2019-04-08T12:48:21Z</time>
      </trkpt>
      <trkpt lat="42.23786" lon="1.84371">
        <ele>1381.165</ele>
        <time>2019-04-08T12:48:23Z</time>
      </trkpt>
      <trkpt lat="42.23785" lon="1.84374">
        <ele>1381.257</ele>
        <time>2019-04-08T12:48:24Z</time>
      </trkpt>
      <trkpt lat="42.23784" lon="1.84378">
        <ele>1381.162</ele>
        <time>2019-04-08T12:48:25Z</time>
      </trkpt>
      <trkpt lat="42.23782" lon="1.84382">
        <ele>1381.263</ele>
        <time>2019-04-08T12:48:26Z</time>
      </trkpt>
      <trkpt lat="42.23781" lon="1.84385">
        <ele>1381.383</ele>
        <time>2019-04-08T12:48:27Z</time>
      </trkpt>
      <trkpt lat="42.2378" lon="1.84388">
        <ele>1381.197</ele>
        <time>2019-04-08T12:48:28Z</time>
      </trkpt>
      <trkpt lat="42.23779" lon="1.8439">
        <ele>1381.046</ele>
        <time>2019-04-08T12:48:29Z</time>
      </trkpt>
      <trkpt lat="42.23778" lon="1.84392">
        <ele>1381.128</ele>
        <time>2019-04-08T12:48:30Z</time>
      </trkpt>
      <trkpt lat="42.23777" lon="1.84395">
        <ele>1381.166</ele>
        <time>2019-04-08T12:48:30Z</time>
      </trkpt>
      <trkpt lat="42.23776" lon="1.84399">
        <ele>1381.129</ele>
        <time>2019-04-08T12:48:32Z</time>
      </trkpt>
      <trkpt lat="42.23774" lon="1.84401">
        <ele>1380.121</ele>
        <time>2019-04-08T12:48:33Z</time>
      </trkpt>
      <trkpt lat="42.23767" lon="1.84409">
        <ele>1381.308</ele>
        <time>2019-04-08T12:48:36Z</time>
      </trkpt>
      <trkpt lat="42.23766" lon="1.84411">
        <ele>1381.159</ele>
        <time>2019-04-08T12:48:37Z</time>
      </trkpt>
      <trkpt lat="42.23759" lon="1.84418">
        <ele>1382.151</ele>
        <time>2019-04-08T12:48:41Z</time>
      </trkpt>
      <trkpt lat="42.23752" lon="1.84428">
        <ele>1383.036</ele>
        <time>2019-04-08T12:48:45Z</time>
      </trkpt>
      <trkpt lat="42.23747" lon="1.84439">
        <ele>1383.117</ele>
        <time>2019-04-08T12:48:49Z</time>
      </trkpt>
      <trkpt lat="42.23742" lon="1.84449">
        <ele>1385.117</ele>
        <time>2019-04-08T12:48:52Z</time>
      </trkpt>
      <trkpt lat="42.23742" lon="1.84453">
        <ele>1385.111</ele>
        <time>2019-04-08T12:48:53Z</time>
      </trkpt>
      <trkpt lat="42.2374" lon="1.84465">
        <ele>1385.02</ele>
        <time>2019-04-08T12:48:57Z</time>
      </trkpt>
      <trkpt lat="42.23737" lon="1.84478">
        <ele>1386.022</ele>
        <time>2019-04-08T12:49:01Z</time>
      </trkpt>
      <trkpt lat="42.23733" lon="1.84491">
        <ele>1387.018</ele>
        <time>2019-04-08T12:49:05Z</time>
      </trkpt>
      <trkpt lat="42.23729" lon="1.84502">
        <ele>1391.298</ele>
        <time>2019-04-08T12:49:09Z</time>
      </trkpt>
      <trkpt lat="42.23729" lon="1.84505">
        <ele>1392.117</ele>
        <time>2019-04-08T12:49:10Z</time>
      </trkpt>
      <trkpt lat="42.23728" lon="1.84508">
        <ele>1392.308</ele>
        <time>2019-04-08T12:49:11Z</time>
      </trkpt>
      <trkpt lat="42.23728" lon="1.8451">
        <ele>1392.144</ele>
        <time>2019-04-08T12:49:11Z</time>
      </trkpt>
      <trkpt lat="42.23728" lon="1.84512">
        <ele>1393.216</ele>
        <time>2019-04-08T12:49:12Z</time>
      </trkpt>
      <trkpt lat="42.23727" lon="1.84515">
        <ele>1393.181</ele>
        <time>2019-04-08T12:49:13Z</time>
      </trkpt>
      <trkpt lat="42.23725" lon="1.84517">
        <ele>1393.152</ele>
        <time>2019-04-08T12:49:14Z</time>
      </trkpt>
      <trkpt lat="42.23724" lon="1.84519">
        <ele>1392.012</ele>
        <time>2019-04-08T12:49:15Z</time>
      </trkpt>
      <trkpt lat="42.23722" lon="1.84523">
        <ele>1392.016</ele>
        <time>2019-04-08T12:49:16Z</time>
      </trkpt>
      <trkpt lat="42.23721" lon="1.84525">
        <ele>1391.125</ele>
        <time>2019-04-08T12:49:17Z</time>
      </trkpt>
      <trkpt lat="42.23718" lon="1.84528">
        <ele>1391.217</ele>
        <time>2019-04-08T12:49:18Z</time>
      </trkpt>
      <trkpt lat="42.23717" lon="1.8453">
        <ele>1389.083</ele>
        <time>2019-04-08T12:49:19Z</time>
      </trkpt>
      <trkpt lat="42.23715" lon="1.84532">
        <ele>1389.225</ele>
        <time>2019-04-08T12:49:20Z</time>
      </trkpt>
      <trkpt lat="42.23715" lon="1.84535">
        <ele>1388.217</ele>
        <time>2019-04-08T12:49:21Z</time>
      </trkpt>
      <trkpt lat="42.23713" lon="1.84537">
        <ele>1387.008</ele>
        <time>2019-04-08T12:49:22Z</time>
      </trkpt>
      <trkpt lat="42.23713" lon="1.8454">
        <ele>1387.351</ele>
        <time>2019-04-08T12:49:22Z</time>
      </trkpt>
      <trkpt lat="42.23712" lon="1.84543">
        <ele>1387.133</ele>
        <time>2019-04-08T12:49:23Z</time>
      </trkpt>
      <trkpt lat="42.23711" lon="1.84546">
        <ele>1386.268</ele>
        <time>2019-04-08T12:49:24Z</time>
      </trkpt>
      <trkpt lat="42.2371" lon="1.8455">
        <ele>1386.199</ele>
        <time>2019-04-08T12:49:26Z</time>
      </trkpt>
      <trkpt lat="42.23709" lon="1.84552">
        <ele>1385.029</ele>
        <time>2019-04-08T12:49:26Z</time>
      </trkpt>
      <trkpt lat="42.23709" lon="1.84555">
        <ele>1384.353</ele>
        <time>2019-04-08T12:49:27Z</time>
      </trkpt>
      <trkpt lat="42.23709" lon="1.84559">
        <ele>1383.262</ele>
        <time>2019-04-08T12:49:28Z</time>
      </trkpt>
      <trkpt lat="42.23708" lon="1.84563">
        <ele>1383.054</ele>
        <time>2019-04-08T12:49:29Z</time>
      </trkpt>
      <trkpt lat="42.23708" lon="1.84566">
        <ele>1382.219</ele>
        <time>2019-04-08T12:49:30Z</time>
      </trkpt>
      <trkpt lat="42.23709" lon="1.84569">
        <ele>1381.209</ele>
        <time>2019-04-08T12:49:31Z</time>
      </trkpt>
      <trkpt lat="42.2371" lon="1.84582">
        <ele>1379.219</ele>
        <time>2019-04-08T12:49:35Z</time>
      </trkpt>
      <trkpt lat="42.23713" lon="1.84594">
        <ele>1377.208</ele>
        <time>2019-04-08T12:49:39Z</time>
      </trkpt>
      <trkpt lat="42.23713" lon="1.84597">
        <ele>1377.314</ele>
        <time>2019-04-08T12:49:40Z</time>
      </trkpt>
      <trkpt lat="42.23714" lon="1.846">
        <ele>1377.356</ele>
        <time>2019-04-08T12:49:41Z</time>
      </trkpt>
      <trkpt lat="42.23714" lon="1.84603">
        <ele>1377.141</ele>
        <time>2019-04-08T12:49:42Z</time>
      </trkpt>
      <trkpt lat="42.23715" lon="1.84605">
        <ele>1377.192</ele>
        <time>2019-04-08T12:49:42Z</time>
      </trkpt>
      <trkpt lat="42.23716" lon="1.84608">
        <ele>1377.312</ele>
        <time>2019-04-08T12:49:43Z</time>
      </trkpt>
      <trkpt lat="42.23717" lon="1.84612">
        <ele>1377.246</ele>
        <time>2019-04-08T12:49:44Z</time>
      </trkpt>
      <trkpt lat="42.23716" lon="1.84615">
        <ele>1376.245</ele>
        <time>2019-04-08T12:49:45Z</time>
      </trkpt>
      <trkpt lat="42.23716" lon="1.84618">
        <ele>1376.147</ele>
        <time>2019-04-08T12:49:46Z</time>
      </trkpt>
      <trkpt lat="42.23716" lon="1.8462">
        <ele>1376.021</ele>
        <time>2019-04-08T12:49:47Z</time>
      </trkpt>
      <trkpt lat="42.23716" lon="1.84624">
        <ele>1375.041</ele>
        <time>2019-04-08T12:49:48Z</time>
      </trkpt>
      <trkpt lat="42.23716" lon="1.84628">
        <ele>1375.105</ele>
        <time>2019-04-08T12:49:49Z</time>
      </trkpt>
      <trkpt lat="42.23716" lon="1.84631">
        <ele>1374.008</ele>
        <time>2019-04-08T12:49:50Z</time>
      </trkpt>
      <trkpt lat="42.23716" lon="1.84633">
        <ele>1373.225</ele>
        <time>2019-04-08T12:49:51Z</time>
      </trkpt>
      <trkpt lat="42.23717" lon="1.84636">
        <ele>1373.277</ele>
        <time>2019-04-08T12:49:52Z</time>
      </trkpt>
      <trkpt lat="42.23717" lon="1.84639">
        <ele>1372.152</ele>
        <time>2019-04-08T12:49:53Z</time>
      </trkpt>
      <trkpt lat="42.23717" lon="1.84642">
        <ele>1372.223</ele>
        <time>2019-04-08T12:49:54Z</time>
      </trkpt>
      <trkpt lat="42.23717" lon="1.84646">
        <ele>1371.223</ele>
        <time>2019-04-08T12:49:55Z</time>
      </trkpt>
      <trkpt lat="42.23715" lon="1.8465">
        <ele>1370.287</ele>
        <time>2019-04-08T12:49:56Z</time>
      </trkpt>
      <trkpt lat="42.23714" lon="1.84653">
        <ele>1369.856</ele>
        <time>2019-04-08T12:49:57Z</time>
      </trkpt>
      <trkpt lat="42.23714" lon="1.84655">
        <ele>1369.198</ele>
        <time>2019-04-08T12:49:58Z</time>
      </trkpt>
      <trkpt lat="42.23714" lon="1.84658">
        <ele>1367.141</ele>
        <time>2019-04-08T12:49:59Z</time>
      </trkpt>
      <trkpt lat="42.23715" lon="1.84661">
        <ele>1366.181</ele>
        <time>2019-04-08T12:49:59Z</time>
      </trkpt>
      <trkpt lat="42.23714" lon="1.84664">
        <ele>1366.209</ele>
        <time>2019-04-08T12:50:00Z</time>
      </trkpt>
      <trkpt lat="42.23713" lon="1.84666">
        <ele>1365.108</ele>
        <time>2019-04-08T12:50:01Z</time>
      </trkpt>
      <trkpt lat="42.23712" lon="1.84668">
        <ele>1365.177</ele>
        <time>2019-04-08T12:50:02Z</time>
      </trkpt>
      <trkpt lat="42.23709" lon="1.84671">
        <ele>1364.729</ele>
        <time>2019-04-08T12:50:03Z</time>
      </trkpt>
      <trkpt lat="42.23708" lon="1.84673">
        <ele>1364.144</ele>
        <time>2019-04-08T12:50:04Z</time>
      </trkpt>
      <trkpt lat="42.23709" lon="1.84676">
        <ele>1362.125</ele>
        <time>2019-04-08T12:50:05Z</time>
      </trkpt>
      <trkpt lat="42.23709" lon="1.84679">
        <ele>1361.195</ele>
        <time>2019-04-08T12:50:06Z</time>
      </trkpt>
      <trkpt lat="42.2371" lon="1.84682">
        <ele>1360.249</ele>
        <time>2019-04-08T12:50:07Z</time>
      </trkpt>
      <trkpt lat="42.23709" lon="1.84685">
        <ele>1359.028</ele>
        <time>2019-04-08T12:50:08Z</time>
      </trkpt>
      <trkpt lat="42.23711" lon="1.84687">
        <ele>1358.17</ele>
        <time>2019-04-08T12:50:09Z</time>
      </trkpt>
      <trkpt lat="42.2371" lon="1.84688">
        <ele>1357.156</ele>
        <time>2019-04-08T12:50:09Z</time>
      </trkpt>
      <trkpt lat="42.23709" lon="1.84691">
        <ele>1356.159</ele>
        <time>2019-04-08T12:50:10Z</time>
      </trkpt>
      <trkpt lat="42.23707" lon="1.84693">
        <ele>1355.814</ele>
        <time>2019-04-08T12:50:11Z</time>
      </trkpt>
      <trkpt lat="42.23706" lon="1.84695">
        <ele>1355.208</ele>
        <time>2019-04-08T12:50:12Z</time>
      </trkpt>
      <trkpt lat="42.23704" lon="1.84697">
        <ele>1353.198</ele>
        <time>2019-04-08T12:50:13Z</time>
      </trkpt>
      <trkpt lat="42.23703" lon="1.84698">
        <ele>1353.15</ele>
        <time>2019-04-08T12:50:14Z</time>
      </trkpt>
      <trkpt lat="42.23701" lon="1.847">
        <ele>1352.135</ele>
        <time>2019-04-08T12:50:14Z</time>
      </trkpt>
      <trkpt lat="42.237" lon="1.84702">
        <ele>1352.296</ele>
        <time>2019-04-08T12:50:15Z</time>
      </trkpt>
      <trkpt lat="42.23698" lon="1.84704">
        <ele>1352.146</ele>
        <time>2019-04-08T12:50:16Z</time>
      </trkpt>
      <trkpt lat="42.23695" lon="1.84708">
        <ele>1349.39</ele>
        <time>2019-04-08T12:50:18Z</time>
      </trkpt>
      <trkpt lat="42.2369" lon="1.84716">
        <ele>1347.839</ele>
        <time>2019-04-08T12:50:21Z</time>
      </trkpt>
      <trkpt lat="42.23684" lon="1.84727">
        <ele>1345.051</ele>
        <time>2019-04-08T12:50:25Z</time>
      </trkpt>
      <trkpt lat="42.23677" lon="1.84734">
        <ele>1343.116</ele>
        <time>2019-04-08T12:50:28Z</time>
      </trkpt>
      <trkpt lat="42.23674" lon="1.84747">
        <ele>1339.076</ele>
        <time>2019-04-08T12:50:32Z</time>
      </trkpt>
      <trkpt lat="42.23671" lon="1.84759">
        <ele>1337.213</ele>
        <time>2019-04-08T12:50:36Z</time>
      </trkpt>
      <trkpt lat="42.23667" lon="1.8477">
        <ele>1335.208</ele>
        <time>2019-04-08T12:50:40Z</time>
      </trkpt>
      <trkpt lat="42.23671" lon="1.84782">
        <ele>1332.114</ele>
        <time>2019-04-08T12:50:44Z</time>
      </trkpt>
      <trkpt lat="42.23673" lon="1.84794">
        <ele>1331.126</ele>
        <time>2019-04-08T12:50:48Z</time>
      </trkpt>
      <trkpt lat="42.23672" lon="1.84808">
        <ele>1327.191</ele>
        <time>2019-04-08T12:50:52Z</time>
      </trkpt>
      <trkpt lat="42.23673" lon="1.84821">
        <ele>1324.962</ele>
        <time>2019-04-08T12:50:55Z</time>
      </trkpt>
      <trkpt lat="42.23673" lon="1.84834">
        <ele>1322.082</ele>
        <time>2019-04-08T12:50:59Z</time>
      </trkpt>
      <trkpt lat="42.23676" lon="1.84846">
        <ele>1319.056</ele>
        <time>2019-04-08T12:51:03Z</time>
      </trkpt>
      <trkpt lat="42.23677" lon="1.84856">
        <ele>1316.075</ele>
        <time>2019-04-08T12:51:06Z</time>
      </trkpt>
      <trkpt lat="42.23678" lon="1.84858">
        <ele>1314.147</ele>
        <time>2019-04-08T12:51:07Z</time>
      </trkpt>
      <trkpt lat="42.23679" lon="1.84864">
        <ele>1313.188</ele>
        <time>2019-04-08T12:51:09Z</time>
      </trkpt>
      <trkpt lat="42.23679" lon="1.84876">
        <ele>1311.124</ele>
        <time>2019-04-08T12:51:12Z</time>
      </trkpt>
      <trkpt lat="42.23681" lon="1.84889">
        <ele>1309.226</ele>
        <time>2019-04-08T12:51:16Z</time>
      </trkpt>
      <trkpt lat="42.2368" lon="1.84902">
        <ele>1305.108</ele>
        <time>2019-04-08T12:51:20Z</time>
      </trkpt>
      <trkpt lat="42.23683" lon="1.84913">
        <ele>1303.171</ele>
        <time>2019-04-08T12:51:23Z</time>
      </trkpt>
      <trkpt lat="42.23681" lon="1.84926">
        <ele>1301.233</ele>
        <time>2019-04-08T12:51:28Z</time>
      </trkpt>
      <trkpt lat="42.23679" lon="1.84939">
        <ele>1299.158</ele>
        <time>2019-04-08T12:51:31Z</time>
      </trkpt>
      <trkpt lat="42.23677" lon="1.84952">
        <ele>1297.159</ele>
        <time>2019-04-08T12:51:35Z</time>
      </trkpt>
      <trkpt lat="42.23676" lon="1.84965">
        <ele>1296.279</ele>
        <time>2019-04-08T12:51:39Z</time>
      </trkpt>
      <trkpt lat="42.23683" lon="1.84973">
        <ele>1295.333</ele>
        <time>2019-04-08T12:51:43Z</time>
      </trkpt>
      <trkpt lat="42.23688" lon="1.84984">
        <ele>1293.092</ele>
        <time>2019-04-08T12:51:47Z</time>
      </trkpt>
      <trkpt lat="42.2369" lon="1.84989">
        <ele>1292.274</ele>
        <time>2019-04-08T12:51:48Z</time>
      </trkpt>
      <trkpt lat="42.23691" lon="1.84992">
        <ele>1291.187</ele>
        <time>2019-04-08T12:51:49Z</time>
      </trkpt>
      <trkpt lat="42.23692" lon="1.84999">
        <ele>1290.242</ele>
        <time>2019-04-08T12:51:52Z</time>
      </trkpt>
      <trkpt lat="42.23693" lon="1.85012">
        <ele>1288.126</ele>
        <time>2019-04-08T12:51:55Z</time>
      </trkpt>
      <trkpt lat="42.23693" lon="1.85015">
        <ele>1287.008</ele>
        <time>2019-04-08T12:51:56Z</time>
      </trkpt>
      <trkpt lat="42.23694" lon="1.85018">
        <ele>1287.121</ele>
        <time>2019-04-08T12:51:57Z</time>
      </trkpt>
      <trkpt lat="42.23698" lon="1.8503">
        <ele>1284.213</ele>
        <time>2019-04-08T12:52:01Z</time>
      </trkpt>
      <trkpt lat="42.23701" lon="1.85031">
        <ele>1284.118</ele>
        <time>2019-04-08T12:52:02Z</time>
      </trkpt>
      <trkpt lat="42.23701" lon="1.85034">
        <ele>1283.819</ele>
        <time>2019-04-08T12:52:03Z</time>
      </trkpt>
      <trkpt lat="42.23701" lon="1.85036">
        <ele>1282.079</ele>
        <time>2019-04-08T12:52:04Z</time>
      </trkpt>
      <trkpt lat="42.23702" lon="1.85039">
        <ele>1282.183</ele>
        <time>2019-04-08T12:52:05Z</time>
      </trkpt>
      <trkpt lat="42.23704" lon="1.85041">
        <ele>1282.062</ele>
        <time>2019-04-08T12:52:06Z</time>
      </trkpt>
      <trkpt lat="42.23706" lon="1.85043">
        <ele>1282.224</ele>
        <time>2019-04-08T12:52:07Z</time>
      </trkpt>
      <trkpt lat="42.23706" lon="1.85046">
        <ele>1281.215</ele>
        <time>2019-04-08T12:52:08Z</time>
      </trkpt>
      <trkpt lat="42.23707" lon="1.85058">
        <ele>1278.165</ele>
        <time>2019-04-08T12:52:11Z</time>
      </trkpt>
      <trkpt lat="42.23709" lon="1.85067">
        <ele>1275.311</ele>
        <time>2019-04-08T12:52:14Z</time>
      </trkpt>
      <trkpt lat="42.23711" lon="1.85079">
        <ele>1272.208</ele>
        <time>2019-04-08T12:52:18Z</time>
      </trkpt>
      <trkpt lat="42.23715" lon="1.8509">
        <ele>1269.964</ele>
        <time>2019-04-08T12:52:21Z</time>
      </trkpt>
      <trkpt lat="42.23716" lon="1.85103">
        <ele>1268.216</ele>
        <time>2019-04-08T12:52:25Z</time>
      </trkpt>
      <trkpt lat="42.2372" lon="1.85115">
        <ele>1266.081</ele>
        <time>2019-04-08T12:52:29Z</time>
      </trkpt>
      <trkpt lat="42.23722" lon="1.85128">
        <ele>1263.182</ele>
        <time>2019-04-08T12:52:33Z</time>
      </trkpt>
      <trkpt lat="42.23724" lon="1.85129">
        <ele>1263.242</ele>
        <time>2019-04-08T12:52:34Z</time>
      </trkpt>
      <trkpt lat="42.23727" lon="1.8513">
        <ele>1262.276</ele>
        <time>2019-04-08T12:52:35Z</time>
      </trkpt>
      <trkpt lat="42.23729" lon="1.85131">
        <ele>1261.165</ele>
        <time>2019-04-08T12:52:36Z</time>
      </trkpt>
      <trkpt lat="42.23732" lon="1.85135">
        <ele>1260.037</ele>
        <time>2019-04-08T12:52:38Z</time>
      </trkpt>
      <trkpt lat="42.23737" lon="1.85138">
        <ele>1259.192</ele>
        <time>2019-04-08T12:52:40Z</time>
      </trkpt>
      <trkpt lat="42.23743" lon="1.85148">
        <ele>1255.273</ele>
        <time>2019-04-08T12:52:43Z</time>
      </trkpt>
      <trkpt lat="42.23746" lon="1.85159">
        <ele>1254.22</ele>
        <time>2019-04-08T12:52:47Z</time>
      </trkpt>
      <trkpt lat="42.23753" lon="1.85168">
        <ele>1253.208</ele>
        <time>2019-04-08T12:52:51Z</time>
      </trkpt>
      <trkpt lat="42.23755" lon="1.85171">
        <ele>1252.272</ele>
        <time>2019-04-08T12:52:52Z</time>
      </trkpt>
      <trkpt lat="42.23756" lon="1.85174">
        <ele>1252.284</ele>
        <time>2019-04-08T12:52:53Z</time>
      </trkpt>
      <trkpt lat="42.23757" lon="1.85176">
        <ele>1251.259</ele>
        <time>2019-04-08T12:52:54Z</time>
      </trkpt>
      <trkpt lat="42.23759" lon="1.85179">
        <ele>1251.24</ele>
        <time>2019-04-08T12:52:55Z</time>
      </trkpt>
      <trkpt lat="42.23759" lon="1.85183">
        <ele>1250.13</ele>
        <time>2019-04-08T12:52:56Z</time>
      </trkpt>
      <trkpt lat="42.23761" lon="1.85191">
        <ele>1247.244</ele>
        <time>2019-04-08T12:52:59Z</time>
      </trkpt>
      <trkpt lat="42.23761" lon="1.85194">
        <ele>1246.053</ele>
        <time>2019-04-08T12:53:00Z</time>
      </trkpt>
      <trkpt lat="42.23763" lon="1.85195">
        <ele>1245.945</ele>
        <time>2019-04-08T12:53:00Z</time>
      </trkpt>
      <trkpt lat="42.23765" lon="1.85197">
        <ele>1245.075</ele>
        <time>2019-04-08T12:53:01Z</time>
      </trkpt>
      <trkpt lat="42.23765" lon="1.852">
        <ele>1244.128</ele>
        <time>2019-04-08T12:53:02Z</time>
      </trkpt>
      <trkpt lat="42.23767" lon="1.85202">
        <ele>1243.02</ele>
        <time>2019-04-08T12:53:03Z</time>
      </trkpt>
      <trkpt lat="42.23768" lon="1.85205">
        <ele>1243.108</ele>
        <time>2019-04-08T12:53:04Z</time>
      </trkpt>
      <trkpt lat="42.23769" lon="1.85208">
        <ele>1242.19</ele>
        <time>2019-04-08T12:53:05Z</time>
      </trkpt>
      <trkpt lat="42.23769" lon="1.85211">
        <ele>1242.162</ele>
        <time>2019-04-08T12:53:06Z</time>
      </trkpt>
      <trkpt lat="42.23771" lon="1.85213">
        <ele>1242.067</ele>
        <time>2019-04-08T12:53:07Z</time>
      </trkpt>
      <trkpt lat="42.23772" lon="1.85215">
        <ele>1240.098</ele>
        <time>2019-04-08T12:53:07Z</time>
      </trkpt>
      <trkpt lat="42.23774" lon="1.85222">
        <ele>1240.168</ele>
        <time>2019-04-08T12:53:09Z</time>
      </trkpt>
      <trkpt lat="42.23775" lon="1.85224">
        <ele>1239.252</ele>
        <time>2019-04-08T12:53:10Z</time>
      </trkpt>
      <trkpt lat="42.23776" lon="1.85226">
        <ele>1238.151</ele>
        <time>2019-04-08T12:53:11Z</time>
      </trkpt>
      <trkpt lat="42.23778" lon="1.85229">
        <ele>1237.883</ele>
        <time>2019-04-08T12:53:12Z</time>
      </trkpt>
      <trkpt lat="42.2378" lon="1.85231">
        <ele>1237.039</ele>
        <time>2019-04-08T12:53:13Z</time>
      </trkpt>
      <trkpt lat="42.23783" lon="1.85235">
        <ele>1236.101</ele>
        <time>2019-04-08T12:53:15Z</time>
      </trkpt>
      <trkpt lat="42.23785" lon="1.85237">
        <ele>1235.221</ele>
        <time>2019-04-08T12:53:16Z</time>
      </trkpt>
      <trkpt lat="42.23787" lon="1.85238">
        <ele>1235.308</ele>
        <time>2019-04-08T12:53:17Z</time>
      </trkpt>
      <trkpt lat="42.23789" lon="1.85238">
        <ele>1234.346</ele>
        <time>2019-04-08T12:53:18Z</time>
      </trkpt>
      <trkpt lat="42.23791" lon="1.85241">
        <ele>1233.248</ele>
        <time>2019-04-08T12:53:19Z</time>
      </trkpt>
      <trkpt lat="42.23793" lon="1.85242">
        <ele>1233.223</ele>
        <time>2019-04-08T12:53:19Z</time>
      </trkpt>
      <trkpt lat="42.23795" lon="1.85243">
        <ele>1233.064</ele>
        <time>2019-04-08T12:53:20Z</time>
      </trkpt>
      <trkpt lat="42.23796" lon="1.85246">
        <ele>1232.194</ele>
        <time>2019-04-08T12:53:21Z</time>
      </trkpt>
      <trkpt lat="42.23797" lon="1.85248">
        <ele>1231.228</ele>
        <time>2019-04-08T12:53:22Z</time>
      </trkpt>
      <trkpt lat="42.23797" lon="1.85251">
        <ele>1230.227</ele>
        <time>2019-04-08T12:53:23Z</time>
      </trkpt>
      <trkpt lat="42.23799" lon="1.85252">
        <ele>1229.819</ele>
        <time>2019-04-08T12:53:24Z</time>
      </trkpt>
      <trkpt lat="42.23801" lon="1.85253">
        <ele>1229.095</ele>
        <time>2019-04-08T12:53:25Z</time>
      </trkpt>
      <trkpt lat="42.23803" lon="1.85256">
        <ele>1228.149</ele>
        <time>2019-04-08T12:53:26Z</time>
      </trkpt>
      <trkpt lat="42.23803" lon="1.85259">
        <ele>1226.123</ele>
        <time>2019-04-08T12:53:27Z</time>
      </trkpt>
      <trkpt lat="42.23804" lon="1.85262">
        <ele>1226.108</ele>
        <time>2019-04-08T12:53:28Z</time>
      </trkpt>
      <trkpt lat="42.23805" lon="1.85264">
        <ele>1225.292</ele>
        <time>2019-04-08T12:53:28Z</time>
      </trkpt>
      <trkpt lat="42.23807" lon="1.85266">
        <ele>1224.044</ele>
        <time>2019-04-08T12:53:29Z</time>
      </trkpt>
      <trkpt lat="42.23808" lon="1.85267">
        <ele>1224.169</ele>
        <time>2019-04-08T12:53:30Z</time>
      </trkpt>
      <trkpt lat="42.23809" lon="1.85269">
        <ele>1223.15</ele>
        <time>2019-04-08T12:53:31Z</time>
      </trkpt>
      <trkpt lat="42.23811" lon="1.85271">
        <ele>1221.22</ele>
        <time>2019-04-08T12:53:32Z</time>
      </trkpt>
      <trkpt lat="42.23813" lon="1.85272">
        <ele>1221.084</ele>
        <time>2019-04-08T12:53:32Z</time>
      </trkpt>
      <trkpt lat="42.23815" lon="1.85273">
        <ele>1221.093</ele>
        <time>2019-04-08T12:53:33Z</time>
      </trkpt>
      <trkpt lat="42.23817" lon="1.85273">
        <ele>1219.035</ele>
        <time>2019-04-08T12:53:34Z</time>
      </trkpt>
      <trkpt lat="42.23819" lon="1.85274">
        <ele>1219.033</ele>
        <time>2019-04-08T12:53:35Z</time>
      </trkpt>
      <trkpt lat="42.23821" lon="1.85275">
        <ele>1218.123</ele>
        <time>2019-04-08T12:53:36Z</time>
      </trkpt>
      <trkpt lat="42.23823" lon="1.85276">
        <ele>1217.915</ele>
        <time>2019-04-08T12:53:37Z</time>
      </trkpt>
      <trkpt lat="42.23824" lon="1.85279">
        <ele>1217.108</ele>
        <time>2019-04-08T12:53:37Z</time>
      </trkpt>
      <trkpt lat="42.23827" lon="1.85282">
        <ele>1216.156</ele>
        <time>2019-04-08T12:53:39Z</time>
      </trkpt>
      <trkpt lat="42.23829" lon="1.85284">
        <ele>1214.158</ele>
        <time>2019-04-08T12:53:40Z</time>
      </trkpt>
      <trkpt lat="42.2383" lon="1.85286">
        <ele>1213.033</ele>
        <time>2019-04-08T12:53:41Z</time>
      </trkpt>
      <trkpt lat="42.23832" lon="1.85287">
        <ele>1212.574</ele>
        <time>2019-04-08T12:53:42Z</time>
      </trkpt>
      <trkpt lat="42.23842" lon="1.85292">
        <ele>1211.014</ele>
        <time>2019-04-08T12:53:46Z</time>
      </trkpt>
      <trkpt lat="42.2385" lon="1.85299">
        <ele>1208.398</ele>
        <time>2019-04-08T12:53:50Z</time>
      </trkpt>
      <trkpt lat="42.23852" lon="1.853">
        <ele>1207.167</ele>
        <time>2019-04-08T12:53:50Z</time>
      </trkpt>
      <trkpt lat="42.23854" lon="1.85302">
        <ele>1206.069</ele>
        <time>2019-04-08T12:53:51Z</time>
      </trkpt>
      <trkpt lat="42.23862" lon="1.85305">
        <ele>1205.169</ele>
        <time>2019-04-08T12:53:55Z</time>
      </trkpt>
      <trkpt lat="42.23866" lon="1.85308">
        <ele>1205.104</ele>
        <time>2019-04-08T12:53:56Z</time>
      </trkpt>
      <trkpt lat="42.23873" lon="1.85313">
        <ele>1204.124</ele>
        <time>2019-04-08T12:54:00Z</time>
      </trkpt>
      <trkpt lat="42.23874" lon="1.85315">
        <ele>1204.108</ele>
        <time>2019-04-08T12:54:00Z</time>
      </trkpt>
      <trkpt lat="42.23876" lon="1.85316">
        <ele>1204.279</ele>
        <time>2019-04-08T12:54:01Z</time>
      </trkpt>
      <trkpt lat="42.23879" lon="1.85317">
        <ele>1204.371</ele>
        <time>2019-04-08T12:54:03Z</time>
      </trkpt>
      <trkpt lat="42.23881" lon="1.85319">
        <ele>1203.886</ele>
        <time>2019-04-08T12:54:03Z</time>
      </trkpt>
      <trkpt lat="42.23884" lon="1.8532">
        <ele>1203.257</ele>
        <time>2019-04-08T12:54:04Z</time>
      </trkpt>
      <trkpt lat="42.23886" lon="1.85322">
        <ele>1201.277</ele>
        <time>2019-04-08T12:54:05Z</time>
      </trkpt>
      <trkpt lat="42.23887" lon="1.85324">
        <ele>1201.291</ele>
        <time>2019-04-08T12:54:07Z</time>
      </trkpt>
      <trkpt lat="42.23889" lon="1.85327">
        <ele>1201.15</ele>
        <time>2019-04-08T12:54:08Z</time>
      </trkpt>
      <trkpt lat="42.23891" lon="1.85328">
        <ele>1201.122</ele>
        <time>2019-04-08T12:54:08Z</time>
      </trkpt>
      <trkpt lat="42.23892" lon="1.8533">
        <ele>1201.264</ele>
        <time>2019-04-08T12:54:09Z</time>
      </trkpt>
      <trkpt lat="42.23893" lon="1.85332">
        <ele>1201.206</ele>
        <time>2019-04-08T12:54:10Z</time>
      </trkpt>
      <trkpt lat="42.23895" lon="1.85334">
        <ele>1201.216</ele>
        <time>2019-04-08T12:54:11Z</time>
      </trkpt>
      <trkpt lat="42.23896" lon="1.85336">
        <ele>1201.208</ele>
        <time>2019-04-08T12:54:12Z</time>
      </trkpt>
      <trkpt lat="42.23898" lon="1.85337">
        <ele>1201.049</ele>
        <time>2019-04-08T12:54:12Z</time>
      </trkpt>
      <trkpt lat="42.23899" lon="1.85339">
        <ele>1200.281</ele>
        <time>2019-04-08T12:54:13Z</time>
      </trkpt>
      <trkpt lat="42.23901" lon="1.85341">
        <ele>1200.266</ele>
        <time>2019-04-08T12:54:14Z</time>
      </trkpt>
      <trkpt lat="42.23904" lon="1.85343">
        <ele>1200.257</ele>
        <time>2019-04-08T12:54:15Z</time>
      </trkpt>
      <trkpt lat="42.23906" lon="1.85344">
        <ele>1200.177</ele>
        <time>2019-04-08T12:54:16Z</time>
      </trkpt>
      <trkpt lat="42.23908" lon="1.85346">
        <ele>1199.211</ele>
        <time>2019-04-08T12:54:17Z</time>
      </trkpt>
      <trkpt lat="42.2391" lon="1.85348">
        <ele>1198.04</ele>
        <time>2019-04-08T12:54:18Z</time>
      </trkpt>
      <trkpt lat="42.23912" lon="1.85349">
        <ele>1198.182</ele>
        <time>2019-04-08T12:54:19Z</time>
      </trkpt>
      <trkpt lat="42.23914" lon="1.85351">
        <ele>1198.167</ele>
        <time>2019-04-08T12:54:20Z</time>
      </trkpt>
      <trkpt lat="42.23915" lon="1.85353">
        <ele>1198.281</ele>
        <time>2019-04-08T12:54:21Z</time>
      </trkpt>
      <trkpt lat="42.23917" lon="1.85353">
        <ele>1199.219</ele>
        <time>2019-04-08T12:54:22Z</time>
      </trkpt>
      <trkpt lat="42.23917" lon="1.85356">
        <ele>1199.108</ele>
        <time>2019-04-08T12:54:23Z</time>
      </trkpt>
      <trkpt lat="42.23915" lon="1.85355">
        <ele>1199.079</ele>
        <time>2019-04-08T12:54:23Z</time>
      </trkpt>
      <trkpt lat="42.23914" lon="1.85357">
        <ele>1198.131</ele>
        <time>2019-04-08T12:54:24Z</time>
      </trkpt>
      <trkpt lat="42.23915" lon="1.85361">
        <ele>1198.146</ele>
        <time>2019-04-08T12:54:25Z</time>
      </trkpt>
      <trkpt lat="42.23917" lon="1.85364">
        <ele>1197.247</ele>
        <time>2019-04-08T12:54:26Z</time>
      </trkpt>
      <trkpt lat="42.23918" lon="1.85367">
        <ele>1197.397</ele>
        <time>2019-04-08T12:54:27Z</time>
      </trkpt>
      <trkpt lat="42.23918" lon="1.8537">
        <ele>1197.261</ele>
        <time>2019-04-08T12:54:28Z</time>
      </trkpt>
      <trkpt lat="42.23919" lon="1.85372">
        <ele>1197.16</ele>
        <time>2019-04-08T12:54:29Z</time>
      </trkpt>
      <trkpt lat="42.23921" lon="1.85374">
        <ele>1196.162</ele>
        <time>2019-04-08T12:54:30Z</time>
      </trkpt>
      <trkpt lat="42.23923" lon="1.85376">
        <ele>1196.062</ele>
        <time>2019-04-08T12:54:31Z</time>
      </trkpt>
      <trkpt lat="42.23923" lon="1.85379">
        <ele>1195.183</ele>
        <time>2019-04-08T12:54:32Z</time>
      </trkpt>
      <trkpt lat="42.23925" lon="1.85381">
        <ele>1195.011</ele>
        <time>2019-04-08T12:54:33Z</time>
      </trkpt>
      <trkpt lat="42.23926" lon="1.85384">
        <ele>1194.008</ele>
        <time>2019-04-08T12:54:34Z</time>
      </trkpt>
      <trkpt lat="42.23928" lon="1.85386">
        <ele>1193.249</ele>
        <time>2019-04-08T12:54:34Z</time>
      </trkpt>
      <trkpt lat="42.2393" lon="1.85387">
        <ele>1192.241</ele>
        <time>2019-04-08T12:54:35Z</time>
      </trkpt>
      <trkpt lat="42.23931" lon="1.8539">
        <ele>1192.186</ele>
        <time>2019-04-08T12:54:36Z</time>
      </trkpt>
      <trkpt lat="42.23932" lon="1.85392">
        <ele>1191.227</ele>
        <time>2019-04-08T12:54:37Z</time>
      </trkpt>
      <trkpt lat="42.23934" lon="1.85394">
        <ele>1191.257</ele>
        <time>2019-04-08T12:54:38Z</time>
      </trkpt>
      <trkpt lat="42.23935" lon="1.85396">
        <ele>1190.161</ele>
        <time>2019-04-08T12:54:39Z</time>
      </trkpt>
      <trkpt lat="42.23935" lon="1.85399">
        <ele>1189.06</ele>
        <time>2019-04-08T12:54:39Z</time>
      </trkpt>
      <trkpt lat="42.23937" lon="1.85401">
        <ele>1188.262</ele>
        <time>2019-04-08T12:54:40Z</time>
      </trkpt>
      <trkpt lat="42.23938" lon="1.85404">
        <ele>1188.199</ele>
        <time>2019-04-08T12:54:41Z</time>
      </trkpt>
      <trkpt lat="42.23939" lon="1.85407">
        <ele>1187.207</ele>
        <time>2019-04-08T12:54:42Z</time>
      </trkpt>
      <trkpt lat="42.23939" lon="1.8541">
        <ele>1186.927</ele>
        <time>2019-04-08T12:54:43Z</time>
      </trkpt>
      <trkpt lat="42.23939" lon="1.85412">
        <ele>1186.208</ele>
        <time>2019-04-08T12:54:44Z</time>
      </trkpt>
      <trkpt lat="42.23939" lon="1.85415">
        <ele>1185.172</ele>
        <time>2019-04-08T12:54:45Z</time>
      </trkpt>
      <trkpt lat="42.2394" lon="1.85417">
        <ele>1185.174</ele>
        <time>2019-04-08T12:54:45Z</time>
      </trkpt>
      <trkpt lat="42.23941" lon="1.8542">
        <ele>1185.079</ele>
        <time>2019-04-08T12:54:46Z</time>
      </trkpt>
      <trkpt lat="42.23942" lon="1.85423">
        <ele>1184.13</ele>
        <time>2019-04-08T12:54:47Z</time>
      </trkpt>
      <trkpt lat="42.23943" lon="1.85425">
        <ele>1183.24</ele>
        <time>2019-04-08T12:54:48Z</time>
      </trkpt>
      <trkpt lat="42.23944" lon="1.85427">
        <ele>1183.374</ele>
        <time>2019-04-08T12:54:49Z</time>
      </trkpt>
      <trkpt lat="42.23944" lon="1.8543">
        <ele>1183.163</ele>
        <time>2019-04-08T12:54:50Z</time>
      </trkpt>
      <trkpt lat="42.23945" lon="1.85433">
        <ele>1183.185</ele>
        <time>2019-04-08T12:54:50Z</time>
      </trkpt>
      <trkpt lat="42.23946" lon="1.85436">
        <ele>1182.145</ele>
        <time>2019-04-08T12:54:52Z</time>
      </trkpt>
      <trkpt lat="42.23947" lon="1.85439">
        <ele>1182.247</ele>
        <time>2019-04-08T12:54:53Z</time>
      </trkpt>
      <trkpt lat="42.23947" lon="1.85443">
        <ele>1181.311</ele>
        <time>2019-04-08T12:54:53Z</time>
      </trkpt>
      <trkpt lat="42.23948" lon="1.85446">
        <ele>1181.008</ele>
        <time>2019-04-08T12:54:54Z</time>
      </trkpt>
      <trkpt lat="42.23949" lon="1.85449">
        <ele>1180.347</ele>
        <time>2019-04-08T12:54:56Z</time>
      </trkpt>
      <trkpt lat="42.23951" lon="1.85451">
        <ele>1180.039</ele>
        <time>2019-04-08T12:54:57Z</time>
      </trkpt>
      <trkpt lat="42.23952" lon="1.85453">
        <ele>1180.134</ele>
        <time>2019-04-08T12:54:57Z</time>
      </trkpt>
      <trkpt lat="42.23953" lon="1.85456">
        <ele>1180.025</ele>
        <time>2019-04-08T12:54:58Z</time>
      </trkpt>
      <trkpt lat="42.23955" lon="1.85459">
        <ele>1179.155</ele>
        <time>2019-04-08T12:54:59Z</time>
      </trkpt>
      <trkpt lat="42.23956" lon="1.85461">
        <ele>1178.119</ele>
        <time>2019-04-08T12:55:00Z</time>
      </trkpt>
      <trkpt lat="42.23958" lon="1.85464">
        <ele>1178.228</ele>
        <time>2019-04-08T12:55:01Z</time>
      </trkpt>
      <trkpt lat="42.23959" lon="1.85466">
        <ele>1178.13</ele>
        <time>2019-04-08T12:55:02Z</time>
      </trkpt>
      <trkpt lat="42.2396" lon="1.85468">
        <ele>1178.246</ele>
        <time>2019-04-08T12:55:03Z</time>
      </trkpt>
      <trkpt lat="42.23962" lon="1.85471">
        <ele>1178.188</ele>
        <time>2019-04-08T12:55:04Z</time>
      </trkpt>
      <trkpt lat="42.23964" lon="1.85474">
        <ele>1177.116</ele>
        <time>2019-04-08T12:55:05Z</time>
      </trkpt>
      <trkpt lat="42.23965" lon="1.85476">
        <ele>1177.208</ele>
        <time>2019-04-08T12:55:06Z</time>
      </trkpt>
      <trkpt lat="42.23966" lon="1.85479">
        <ele>1177.177</ele>
        <time>2019-04-08T12:55:07Z</time>
      </trkpt>
      <trkpt lat="42.23967" lon="1.85482">
        <ele>1177.179</ele>
        <time>2019-04-08T12:55:08Z</time>
      </trkpt>
      <trkpt lat="42.23968" lon="1.85484">
        <ele>1176.014</ele>
        <time>2019-04-08T12:55:09Z</time>
      </trkpt>
      <trkpt lat="42.2397" lon="1.85486">
        <ele>1175.145</ele>
        <time>2019-04-08T12:55:10Z</time>
      </trkpt>
      <trkpt lat="42.23971" lon="1.85488">
        <ele>1175.255</ele>
        <time>2019-04-08T12:55:10Z</time>
      </trkpt>
      <trkpt lat="42.23971" lon="1.85491">
        <ele>1175.349</ele>
        <time>2019-04-08T12:55:11Z</time>
      </trkpt>
      <trkpt lat="42.23972" lon="1.85494">
        <ele>1175.128</ele>
        <time>2019-04-08T12:55:12Z</time>
      </trkpt>
      <trkpt lat="42.23974" lon="1.85497">
        <ele>1174.19</ele>
        <time>2019-04-08T12:55:13Z</time>
      </trkpt>
      <trkpt lat="42.23976" lon="1.85499">
        <ele>1174.091</ele>
        <time>2019-04-08T12:55:14Z</time>
      </trkpt>
      <trkpt lat="42.23977" lon="1.85501">
        <ele>1173.081</ele>
        <time>2019-04-08T12:55:15Z</time>
      </trkpt>
      <trkpt lat="42.23978" lon="1.85504">
        <ele>1173.019</ele>
        <time>2019-04-08T12:55:16Z</time>
      </trkpt>
      <trkpt lat="42.23979" lon="1.85507">
        <ele>1172.108</ele>
        <time>2019-04-08T12:55:17Z</time>
      </trkpt>
      <trkpt lat="42.2398" lon="1.8551">
        <ele>1172.022</ele>
        <time>2019-04-08T12:55:18Z</time>
      </trkpt>
      <trkpt lat="42.23981" lon="1.85513">
        <ele>1171.294</ele>
        <time>2019-04-08T12:55:19Z</time>
      </trkpt>
      <trkpt lat="42.23983" lon="1.85515">
        <ele>1171.269</ele>
        <time>2019-04-08T12:55:20Z</time>
      </trkpt>
      <trkpt lat="42.23982" lon="1.85518">
        <ele>1170.21</ele>
        <time>2019-04-08T12:55:21Z</time>
      </trkpt>
      <trkpt lat="42.23982" lon="1.85521">
        <ele>1169.09</ele>
        <time>2019-04-08T12:55:21Z</time>
      </trkpt>
      <trkpt lat="42.23982" lon="1.85524">
        <ele>1169.214</ele>
        <time>2019-04-08T12:55:23Z</time>
      </trkpt>
      <trkpt lat="42.23982" lon="1.85527">
        <ele>1168.923</ele>
        <time>2019-04-08T12:55:23Z</time>
      </trkpt>
      <trkpt lat="42.23984" lon="1.8553">
        <ele>1168.165</ele>
        <time>2019-04-08T12:55:24Z</time>
      </trkpt>
      <trkpt lat="42.23985" lon="1.85533">
        <ele>1167.292</ele>
        <time>2019-04-08T12:55:25Z</time>
      </trkpt>
      <trkpt lat="42.23986" lon="1.85536">
        <ele>1167.173</ele>
        <time>2019-04-08T12:55:26Z</time>
      </trkpt>
      <trkpt lat="42.23987" lon="1.85538">
        <ele>1165.02</ele>
        <time>2019-04-08T12:55:27Z</time>
      </trkpt>
      <trkpt lat="42.23987" lon="1.85541">
        <ele>1165.208</ele>
        <time>2019-04-08T12:55:28Z</time>
      </trkpt>
      <trkpt lat="42.23988" lon="1.85545">
        <ele>1165.322</ele>
        <time>2019-04-08T12:55:29Z</time>
      </trkpt>
      <trkpt lat="42.23988" lon="1.85547">
        <ele>1164.084</ele>
        <time>2019-04-08T12:55:30Z</time>
      </trkpt>
      <trkpt lat="42.23988" lon="1.8555">
        <ele>1164.069</ele>
        <time>2019-04-08T12:55:31Z</time>
      </trkpt>
      <trkpt lat="42.23989" lon="1.85553">
        <ele>1164.18</ele>
        <time>2019-04-08T12:55:32Z</time>
      </trkpt>
      <trkpt lat="42.23989" lon="1.85556">
        <ele>1164.22</ele>
        <time>2019-04-08T12:55:32Z</time>
      </trkpt>
      <trkpt lat="42.23989" lon="1.85558">
        <ele>1163.244</ele>
        <time>2019-04-08T12:55:33Z</time>
      </trkpt>
      <trkpt lat="42.2399" lon="1.85561">
        <ele>1162.033</ele>
        <time>2019-04-08T12:55:34Z</time>
      </trkpt>
      <trkpt lat="42.2399" lon="1.85563">
        <ele>1162.185</ele>
        <time>2019-04-08T12:55:35Z</time>
      </trkpt>
      <trkpt lat="42.23991" lon="1.85566">
        <ele>1160.252</ele>
        <time>2019-04-08T12:55:36Z</time>
      </trkpt>
      <trkpt lat="42.23992" lon="1.85569">
        <ele>1159.153</ele>
        <time>2019-04-08T12:55:37Z</time>
      </trkpt>
      <trkpt lat="42.23993" lon="1.85572">
        <ele>1159.008</ele>
        <time>2019-04-08T12:55:37Z</time>
      </trkpt>
      <trkpt lat="42.23994" lon="1.85574">
        <ele>1159.108</ele>
        <time>2019-04-08T12:55:38Z</time>
      </trkpt>
      <trkpt lat="42.23995" lon="1.85577">
        <ele>1158.168</ele>
        <time>2019-04-08T12:55:39Z</time>
      </trkpt>
      <trkpt lat="42.23996" lon="1.8558">
        <ele>1157.25</ele>
        <time>2019-04-08T12:55:40Z</time>
      </trkpt>
      <trkpt lat="42.23998" lon="1.85582">
        <ele>1156.165</ele>
        <time>2019-04-08T12:55:41Z</time>
      </trkpt>
      <trkpt lat="42.23999" lon="1.85584">
        <ele>1156.236</ele>
        <time>2019-04-08T12:55:42Z</time>
      </trkpt>
      <trkpt lat="42.24001" lon="1.85585">
        <ele>1154.356</ele>
        <time>2019-04-08T12:55:43Z</time>
      </trkpt>
      <trkpt lat="42.24002" lon="1.85588">
        <ele>1155.33</ele>
        <time>2019-04-08T12:55:44Z</time>
      </trkpt>
      <trkpt lat="42.24004" lon="1.8559">
        <ele>1154.159</ele>
        <time>2019-04-08T12:55:45Z</time>
      </trkpt>
      <trkpt lat="42.24006" lon="1.85592">
        <ele>1153.131</ele>
        <time>2019-04-08T12:55:46Z</time>
      </trkpt>
      <trkpt lat="42.24007" lon="1.85593">
        <ele>1153.093</ele>
        <time>2019-04-08T12:55:46Z</time>
      </trkpt>
      <trkpt lat="42.24008" lon="1.85595">
        <ele>1151.265</ele>
        <time>2019-04-08T12:55:47Z</time>
      </trkpt>
      <trkpt lat="42.24009" lon="1.85598">
        <ele>1151.221</ele>
        <time>2019-04-08T12:55:48Z</time>
      </trkpt>
      <trkpt lat="42.2401" lon="1.85601">
        <ele>1150.208</ele>
        <time>2019-04-08T12:55:49Z</time>
      </trkpt>
      <trkpt lat="42.24011" lon="1.85604">
        <ele>1150.322</ele>
        <time>2019-04-08T12:55:50Z</time>
      </trkpt>
      <trkpt lat="42.24012" lon="1.85606">
        <ele>1150.264</ele>
        <time>2019-04-08T12:55:51Z</time>
      </trkpt>
      <trkpt lat="42.24013" lon="1.85609">
        <ele>1149.069</ele>
        <time>2019-04-08T12:55:52Z</time>
      </trkpt>
      <trkpt lat="42.24013" lon="1.85612">
        <ele>1148.17</ele>
        <time>2019-04-08T12:55:52Z</time>
      </trkpt>
      <trkpt lat="42.24013" lon="1.85616">
        <ele>1147.27</ele>
        <time>2019-04-08T12:55:53Z</time>
      </trkpt>
      <trkpt lat="42.24014" lon="1.85618">
        <ele>1147.274</ele>
        <time>2019-04-08T12:55:54Z</time>
      </trkpt>
      <trkpt lat="42.24014" lon="1.85621">
        <ele>1146.113</ele>
        <time>2019-04-08T12:55:55Z</time>
      </trkpt>
      <trkpt lat="42.24017" lon="1.85622">
        <ele>1146.275</ele>
        <time>2019-04-08T12:55:56Z</time>
      </trkpt>
      <trkpt lat="42.24019" lon="1.85623">
        <ele>1146.054</ele>
        <time>2019-04-08T12:55:57Z</time>
      </trkpt>
      <trkpt lat="42.2402" lon="1.85625">
        <ele>1146.156</ele>
        <time>2019-04-08T12:55:58Z</time>
      </trkpt>
      <trkpt lat="42.24022" lon="1.85627">
        <ele>1145.211</ele>
        <time>2019-04-08T12:55:59Z</time>
      </trkpt>
      <trkpt lat="42.24023" lon="1.85627">
        <ele>1144.008</ele>
        <time>2019-04-08T12:55:59Z</time>
      </trkpt>
      <trkpt lat="42.24025" lon="1.85628">
        <ele>1143.258</ele>
        <time>2019-04-08T12:56:00Z</time>
      </trkpt>
      <trkpt lat="42.24026" lon="1.85631">
        <ele>1142.11</ele>
        <time>2019-04-08T12:56:01Z</time>
      </trkpt>
      <trkpt lat="42.24027" lon="1.85633">
        <ele>1141.115</ele>
        <time>2019-04-08T12:56:02Z</time>
      </trkpt>
      <trkpt lat="42.24029" lon="1.85634">
        <ele>1141.246</ele>
        <time>2019-04-08T12:56:03Z</time>
      </trkpt>
      <trkpt lat="42.2403" lon="1.85636">
        <ele>1140.136</ele>
        <time>2019-04-08T12:56:03Z</time>
      </trkpt>
      <trkpt lat="42.24031" lon="1.85638">
        <ele>1139.28</ele>
        <time>2019-04-08T12:56:04Z</time>
      </trkpt>
      <trkpt lat="42.24032" lon="1.85641">
        <ele>1139.179</ele>
        <time>2019-04-08T12:56:05Z</time>
      </trkpt>
      <trkpt lat="42.24033" lon="1.85643">
        <ele>1138.111</ele>
        <time>2019-04-08T12:56:06Z</time>
      </trkpt>
      <trkpt lat="42.24035" lon="1.85646">
        <ele>1138.188</ele>
        <time>2019-04-08T12:56:07Z</time>
      </trkpt>
      <trkpt lat="42.24035" lon="1.85649">
        <ele>1137.024</ele>
        <time>2019-04-08T12:56:08Z</time>
      </trkpt>
      <trkpt lat="42.24036" lon="1.85652">
        <ele>1136.226</ele>
        <time>2019-04-08T12:56:09Z</time>
      </trkpt>
      <trkpt lat="42.24038" lon="1.85654">
        <ele>1135.208</ele>
        <time>2019-04-08T12:56:10Z</time>
      </trkpt>
      <trkpt lat="42.24039" lon="1.85655">
        <ele>1134.011</ele>
        <time>2019-04-08T12:56:10Z</time>
      </trkpt>
      <trkpt lat="42.24041" lon="1.85657">
        <ele>1134.233</ele>
        <time>2019-04-08T12:56:11Z</time>
      </trkpt>
      <trkpt lat="42.24042" lon="1.85659">
        <ele>1133.168</ele>
        <time>2019-04-08T12:56:12Z</time>
      </trkpt>
      <trkpt lat="42.24044" lon="1.8566">
        <ele>1132.259</ele>
        <time>2019-04-08T12:56:13Z</time>
      </trkpt>
      <trkpt lat="42.24046" lon="1.85662">
        <ele>1131.189</ele>
        <time>2019-04-08T12:56:14Z</time>
      </trkpt>
      <trkpt lat="42.24048" lon="1.85664">
        <ele>1131.243</ele>
        <time>2019-04-08T12:56:15Z</time>
      </trkpt>
      <trkpt lat="42.2405" lon="1.85665">
        <ele>1130.212</ele>
        <time>2019-04-08T12:56:15Z</time>
      </trkpt>
      <trkpt lat="42.24052" lon="1.85666">
        <ele>1130.044</ele>
        <time>2019-04-08T12:56:17Z</time>
      </trkpt>
      <trkpt lat="42.24054" lon="1.85668">
        <ele>1129.965</ele>
        <time>2019-04-08T12:56:17Z</time>
      </trkpt>
      <trkpt lat="42.24056" lon="1.85669">
        <ele>1130.068</ele>
        <time>2019-04-08T12:56:18Z</time>
      </trkpt>
      <trkpt lat="42.24058" lon="1.85671">
        <ele>1130.314</ele>
        <time>2019-04-08T12:56:19Z</time>
      </trkpt>
      <trkpt lat="42.2406" lon="1.85674">
        <ele>1130.208</ele>
        <time>2019-04-08T12:56:20Z</time>
      </trkpt>
      <trkpt lat="42.24059" lon="1.85677">
        <ele>1129.279</ele>
        <time>2019-04-08T12:56:21Z</time>
      </trkpt>
      <trkpt lat="42.24058" lon="1.8568">
        <ele>1130.121</ele>
        <time>2019-04-08T12:56:22Z</time>
      </trkpt>
      <trkpt lat="42.24057" lon="1.85684">
        <ele>1129.166</ele>
        <time>2019-04-08T12:56:23Z</time>
      </trkpt>
      <trkpt lat="42.24057" lon="1.85687">
        <ele>1128.157</ele>
        <time>2019-04-08T12:56:24Z</time>
      </trkpt>
      <trkpt lat="42.24056" lon="1.8569">
        <ele>1128.257</ele>
        <time>2019-04-08T12:56:25Z</time>
      </trkpt>
      <trkpt lat="42.24055" lon="1.85694">
        <ele>1128.181</ele>
        <time>2019-04-08T12:56:26Z</time>
      </trkpt>
      <trkpt lat="42.24054" lon="1.85696">
        <ele>1128.12</ele>
        <time>2019-04-08T12:56:27Z</time>
      </trkpt>
      <trkpt lat="42.24053" lon="1.85699">
        <ele>1127.042</ele>
        <time>2019-04-08T12:56:28Z</time>
      </trkpt>
      <trkpt lat="42.24052" lon="1.85703">
        <ele>1127.166</ele>
        <time>2019-04-08T12:56:29Z</time>
      </trkpt>
      <trkpt lat="42.24052" lon="1.85706">
        <ele>1127.129</ele>
        <time>2019-04-08T12:56:30Z</time>
      </trkpt>
      <trkpt lat="42.24051" lon="1.85709">
        <ele>1126.221</ele>
        <time>2019-04-08T12:56:31Z</time>
      </trkpt>
      <trkpt lat="42.24051" lon="1.85712">
        <ele>1126.208</ele>
        <time>2019-04-08T12:56:32Z</time>
      </trkpt>
      <trkpt lat="42.2405" lon="1.85716">
        <ele>1127.179</ele>
        <time>2019-04-08T12:56:33Z</time>
      </trkpt>
      <trkpt lat="42.2405" lon="1.85719">
        <ele>1127.081</ele>
        <time>2019-04-08T12:56:34Z</time>
      </trkpt>
      <trkpt lat="42.24049" lon="1.85723">
        <ele>1126.086</ele>
        <time>2019-04-08T12:56:35Z</time>
      </trkpt>
      <trkpt lat="42.24049" lon="1.85726">
        <ele>1126.097</ele>
        <time>2019-04-08T12:56:36Z</time>
      </trkpt>
      <trkpt lat="42.24048" lon="1.8573">
        <ele>1126.287</ele>
        <time>2019-04-08T12:56:38Z</time>
      </trkpt>
      <trkpt lat="42.24047" lon="1.85733">
        <ele>1125.161</ele>
        <time>2019-04-08T12:56:39Z</time>
      </trkpt>
      <trkpt lat="42.24047" lon="1.85736">
        <ele>1124.22</ele>
        <time>2019-04-08T12:56:40Z</time>
      </trkpt>
      <trkpt lat="42.24046" lon="1.8574">
        <ele>1124.132</ele>
        <time>2019-04-08T12:56:41Z</time>
      </trkpt>
      <trkpt lat="42.24045" lon="1.85743">
        <ele>1124.033</ele>
        <time>2019-04-08T12:56:42Z</time>
      </trkpt>
      <trkpt lat="42.24044" lon="1.85747">
        <ele>1124.123</ele>
        <time>2019-04-08T12:56:43Z</time>
      </trkpt>
      <trkpt lat="42.24044" lon="1.8575">
        <ele>1124.315</ele>
        <time>2019-04-08T12:56:44Z</time>
      </trkpt>
      <trkpt lat="42.24043" lon="1.85754">
        <ele>1124.308</ele>
        <time>2019-04-08T12:56:45Z</time>
      </trkpt>
      <trkpt lat="42.24042" lon="1.85758">
        <ele>1123.266</ele>
        <time>2019-04-08T12:56:46Z</time>
      </trkpt>
      <trkpt lat="42.24042" lon="1.85762">
        <ele>1123.298</ele>
        <time>2019-04-08T12:56:47Z</time>
      </trkpt>
      <trkpt lat="42.24042" lon="1.85765">
        <ele>1123.293</ele>
        <time>2019-04-08T12:56:48Z</time>
      </trkpt>
      <trkpt lat="42.24041" lon="1.85768">
        <ele>1123.024</ele>
        <time>2019-04-08T12:56:49Z</time>
      </trkpt>
      <trkpt lat="42.2404" lon="1.85772">
        <ele>1122.224</ele>
        <time>2019-04-08T12:56:51Z</time>
      </trkpt>
      <trkpt lat="42.24039" lon="1.85776">
        <ele>1123.148</ele>
        <time>2019-04-08T12:56:52Z</time>
      </trkpt>
      <trkpt lat="42.24039" lon="1.8578">
        <ele>1123.097</ele>
        <time>2019-04-08T12:56:53Z</time>
      </trkpt>
      <trkpt lat="42.24038" lon="1.85784">
        <ele>1122.179</ele>
        <time>2019-04-08T12:56:54Z</time>
      </trkpt>
      <trkpt lat="42.24037" lon="1.85787">
        <ele>1122.131</ele>
        <time>2019-04-08T12:56:55Z</time>
      </trkpt>
      <trkpt lat="42.24037" lon="1.85791">
        <ele>1122.261</ele>
        <time>2019-04-08T12:56:56Z</time>
      </trkpt>
      <trkpt lat="42.24036" lon="1.85795">
        <ele>1122.207</ele>
        <time>2019-04-08T12:56:58Z</time>
      </trkpt>
      <trkpt lat="42.24035" lon="1.85799">
        <ele>1122.208</ele>
        <time>2019-04-08T12:56:59Z</time>
      </trkpt>
      <trkpt lat="42.24035" lon="1.85803">
        <ele>1122.226</ele>
        <time>2019-04-08T12:57:00Z</time>
      </trkpt>
      <trkpt lat="42.24034" lon="1.85806">
        <ele>1121.168</ele>
        <time>2019-04-08T12:57:01Z</time>
      </trkpt>
      <trkpt lat="42.24034" lon="1.8581">
        <ele>1122.273</ele>
        <time>2019-04-08T12:57:02Z</time>
      </trkpt>
      <trkpt lat="42.24033" lon="1.85814">
        <ele>1122.154</ele>
        <time>2019-04-08T12:57:03Z</time>
      </trkpt>
      <trkpt lat="42.24032" lon="1.85818">
        <ele>1122.164</ele>
        <time>2019-04-08T12:57:04Z</time>
      </trkpt>
      <trkpt lat="42.24032" lon="1.85822">
        <ele>1121.068</ele>
        <time>2019-04-08T12:57:06Z</time>
      </trkpt>
      <trkpt lat="42.24032" lon="1.85826">
        <ele>1120.197</ele>
        <time>2019-04-08T12:57:07Z</time>
      </trkpt>
      <trkpt lat="42.24031" lon="1.85829">
        <ele>1120.089</ele>
        <time>2019-04-08T12:57:08Z</time>
      </trkpt>
      <trkpt lat="42.24031" lon="1.85833">
        <ele>1120.057</ele>
        <time>2019-04-08T12:57:09Z</time>
      </trkpt>
      <trkpt lat="42.24031" lon="1.85837">
        <ele>1120.1</ele>
        <time>2019-04-08T12:57:10Z</time>
      </trkpt>
      <trkpt lat="42.24032" lon="1.8584">
        <ele>1120.12</ele>
        <time>2019-04-08T12:57:11Z</time>
      </trkpt>
      <trkpt lat="42.24032" lon="1.85843">
        <ele>1119.908</ele>
        <time>2019-04-08T12:57:12Z</time>
      </trkpt>
      <trkpt lat="42.24032" lon="1.85847">
        <ele>1120.218</ele>
        <time>2019-04-08T12:57:13Z</time>
      </trkpt>
      <trkpt lat="42.24032" lon="1.8585">
        <ele>1120.18</ele>
        <time>2019-04-08T12:57:14Z</time>
      </trkpt>
      <trkpt lat="42.24032" lon="1.85854">
        <ele>1119.275</ele>
        <time>2019-04-08T12:57:15Z</time>
      </trkpt>
      <trkpt lat="42.24032" lon="1.85858">
        <ele>1119.136</ele>
        <time>2019-04-08T12:57:16Z</time>
      </trkpt>
      <trkpt lat="42.24033" lon="1.85861">
        <ele>1118.286</ele>
        <time>2019-04-08T12:57:17Z</time>
      </trkpt>
      <trkpt lat="42.24033" lon="1.85865">
        <ele>1118.09</ele>
        <time>2019-04-08T12:57:18Z</time>
      </trkpt>
      <trkpt lat="42.24034" lon="1.85868">
        <ele>1117.279</ele>
        <time>2019-04-08T12:57:19Z</time>
      </trkpt>
      <trkpt lat="42.24034" lon="1.85871">
        <ele>1116.211</ele>
        <time>2019-04-08T12:57:20Z</time>
      </trkpt>
      <trkpt lat="42.24034" lon="1.85875">
        <ele>1117.099</ele>
        <time>2019-04-08T12:57:21Z</time>
      </trkpt>
      <trkpt lat="42.24034" lon="1.85878">
        <ele>1117.207</ele>
        <time>2019-04-08T12:57:22Z</time>
      </trkpt>
      <trkpt lat="42.24035" lon="1.85881">
        <ele>1117.127</ele>
        <time>2019-04-08T12:57:23Z</time>
      </trkpt>
      <trkpt lat="42.24036" lon="1.85885">
        <ele>1117.208</ele>
        <time>2019-04-08T12:57:25Z</time>
      </trkpt>
      <trkpt lat="42.24036" lon="1.85889">
        <ele>1116.272</ele>
        <time>2019-04-08T12:57:26Z</time>
      </trkpt>
      <trkpt lat="42.24037" lon="1.85892">
        <ele>1116.314</ele>
        <time>2019-04-08T12:57:27Z</time>
      </trkpt>
      <trkpt lat="42.24039" lon="1.85895">
        <ele>1115.819</ele>
        <time>2019-04-08T12:57:28Z</time>
      </trkpt>
      <trkpt lat="42.24039" lon="1.85898">
        <ele>1115.15</ele>
        <time>2019-04-08T12:57:29Z</time>
      </trkpt>
      <trkpt lat="42.2404" lon="1.85902">
        <ele>1115.12</ele>
        <time>2019-04-08T12:57:30Z</time>
      </trkpt>
      <trkpt lat="42.24041" lon="1.85906">
        <ele>1115.354</ele>
        <time>2019-04-08T12:57:31Z</time>
      </trkpt>
      <trkpt lat="42.24042" lon="1.8591">
        <ele>1116.173</ele>
        <time>2019-04-08T12:57:32Z</time>
      </trkpt>
      <trkpt lat="42.24043" lon="1.85913">
        <ele>1115.115</ele>
        <time>2019-04-08T12:57:34Z</time>
      </trkpt>
      <trkpt lat="42.24044" lon="1.85917">
        <ele>1115.047</ele>
        <time>2019-04-08T12:57:35Z</time>
      </trkpt>
      <trkpt lat="42.24046" lon="1.85919">
        <ele>1115.129</ele>
        <time>2019-04-08T12:57:36Z</time>
      </trkpt>
      <trkpt lat="42.24047" lon="1.85923">
        <ele>1115.221</ele>
        <time>2019-04-08T12:57:37Z</time>
      </trkpt>
      <trkpt lat="42.24048" lon="1.85926">
        <ele>1114.108</ele>
        <time>2019-04-08T12:57:38Z</time>
      </trkpt>
      <trkpt lat="42.24048" lon="1.85929">
        <ele>1114.277</ele>
        <time>2019-04-08T12:57:39Z</time>
      </trkpt>
      <trkpt lat="42.24049" lon="1.85933">
        <ele>1114.139</ele>
        <time>2019-04-08T12:57:40Z</time>
      </trkpt>
      <trkpt lat="42.24051" lon="1.85937">
        <ele>1113.244</ele>
        <time>2019-04-08T12:57:41Z</time>
      </trkpt>
      <trkpt lat="42.24052" lon="1.85941">
        <ele>1114.095</ele>
        <time>2019-04-08T12:57:42Z</time>
      </trkpt>
      <trkpt lat="42.24054" lon="1.85943">
        <ele>1114.195</ele>
        <time>2019-04-08T12:57:44Z</time>
      </trkpt>
      <trkpt lat="42.24055" lon="1.85946">
        <ele>1114.329</ele>
        <time>2019-04-08T12:57:45Z</time>
      </trkpt>
      <trkpt lat="42.24056" lon="1.85949">
        <ele>1113.918</ele>
        <time>2019-04-08T12:57:45Z</time>
      </trkpt>
      <trkpt lat="42.24058" lon="1.85952">
        <ele>1113.05</ele>
        <time>2019-04-08T12:57:47Z</time>
      </trkpt>
      <trkpt lat="42.24059" lon="1.85955">
        <ele>1113.112</ele>
        <time>2019-04-08T12:57:48Z</time>
      </trkpt>
      <trkpt lat="42.2406" lon="1.85958">
        <ele>1113.232</ele>
        <time>2019-04-08T12:57:49Z</time>
      </trkpt>
      <trkpt lat="42.24062" lon="1.85961">
        <ele>1112.105</ele>
        <time>2019-04-08T12:57:50Z</time>
      </trkpt>
      <trkpt lat="42.24063" lon="1.85964">
        <ele>1113.108</ele>
        <time>2019-04-08T12:57:51Z</time>
      </trkpt>
      <trkpt lat="42.24065" lon="1.85966">
        <ele>1113.124</ele>
        <time>2019-04-08T12:57:52Z</time>
      </trkpt>
      <trkpt lat="42.24067" lon="1.85969">
        <ele>1113.296</ele>
        <time>2019-04-08T12:57:53Z</time>
      </trkpt>
      <trkpt lat="42.24069" lon="1.85971">
        <ele>1112.191</ele>
        <time>2019-04-08T12:57:54Z</time>
      </trkpt>
      <trkpt lat="42.24072" lon="1.85973">
        <ele>1112.292</ele>
        <time>2019-04-08T12:57:55Z</time>
      </trkpt>
      <trkpt lat="42.24073" lon="1.85975">
        <ele>1112.182</ele>
        <time>2019-04-08T12:57:56Z</time>
      </trkpt>
      <trkpt lat="42.24075" lon="1.85977">
        <ele>1111.266</ele>
        <time>2019-04-08T12:57:57Z</time>
      </trkpt>
      <trkpt lat="42.24076" lon="1.85979">
        <ele>1110.955</ele>
        <time>2019-04-08T12:57:58Z</time>
      </trkpt>
      <trkpt lat="42.24078" lon="1.8598">
        <ele>1110.977</ele>
        <time>2019-04-08T12:57:58Z</time>
      </trkpt>
      <trkpt lat="42.24079" lon="1.85983">
        <ele>1111.182</ele>
        <time>2019-04-08T12:57:59Z</time>
      </trkpt>
      <trkpt lat="42.24079" lon="1.85986">
        <ele>1110.143</ele>
        <time>2019-04-08T12:58:00Z</time>
      </trkpt>
      <trkpt lat="42.24079" lon="1.85989">
        <ele>1109.217</ele>
        <time>2019-04-08T12:58:01Z</time>
      </trkpt>
      <trkpt lat="42.24079" lon="1.85991">
        <ele>1109.108</ele>
        <time>2019-04-08T12:58:02Z</time>
      </trkpt>
      <trkpt lat="42.24078" lon="1.85994">
        <ele>1109.281</ele>
        <time>2019-04-08T12:58:03Z</time>
      </trkpt>
      <trkpt lat="42.24076" lon="1.85997">
        <ele>1109.243</ele>
        <time>2019-04-08T12:58:04Z</time>
      </trkpt>
      <trkpt lat="42.24074" lon="1.85999">
        <ele>1109.168</ele>
        <time>2019-04-08T12:58:05Z</time>
      </trkpt>
      <trkpt lat="42.24071" lon="1.86001">
        <ele>1108.179</ele>
        <time>2019-04-08T12:58:06Z</time>
      </trkpt>
      <trkpt lat="42.24069" lon="1.86003">
        <ele>1108.329</ele>
        <time>2019-04-08T12:58:07Z</time>
      </trkpt>
      <trkpt lat="42.24066" lon="1.86005">
        <ele>1109.253</ele>
        <time>2019-04-08T12:58:08Z</time>
      </trkpt>
      <trkpt lat="42.24064" lon="1.86006">
        <ele>1109.282</ele>
        <time>2019-04-08T12:58:09Z</time>
      </trkpt>
      <trkpt lat="42.24062" lon="1.86008">
        <ele>1109.114</ele>
        <time>2019-04-08T12:58:10Z</time>
      </trkpt>
      <trkpt lat="42.2406" lon="1.8601">
        <ele>1108.117</ele>
        <time>2019-04-08T12:58:11Z</time>
      </trkpt>
      <trkpt lat="42.24057" lon="1.86012">
        <ele>1108.187</ele>
        <time>2019-04-08T12:58:12Z</time>
      </trkpt>
      <trkpt lat="42.24055" lon="1.86013">
        <ele>1108.915</ele>
        <time>2019-04-08T12:58:13Z</time>
      </trkpt>
      <trkpt lat="42.24052" lon="1.86014">
        <ele>1109.208</ele>
        <time>2019-04-08T12:58:14Z</time>
      </trkpt>
      <trkpt lat="42.2405" lon="1.86014">
        <ele>1109.144</ele>
        <time>2019-04-08T12:58:15Z</time>
      </trkpt>
      <trkpt lat="42.24047" lon="1.86014">
        <ele>1109.366</ele>
        <time>2019-04-08T12:58:16Z</time>
      </trkpt>
      <trkpt lat="42.24045" lon="1.86013">
        <ele>1109.231</ele>
        <time>2019-04-08T12:58:17Z</time>
      </trkpt>
      <trkpt lat="42.24043" lon="1.86012">
        <ele>1109.182</ele>
        <time>2019-04-08T12:58:19Z</time>
      </trkpt>
      <trkpt lat="42.2404" lon="1.8601">
        <ele>1109.032</ele>
        <time>2019-04-08T12:58:20Z</time>
      </trkpt>
      <trkpt lat="42.24037" lon="1.86007">
        <ele>1110.156</ele>
        <time>2019-04-08T12:58:21Z</time>
      </trkpt>
      <trkpt lat="42.24035" lon="1.86004">
        <ele>1109.195</ele>
        <time>2019-04-08T12:58:22Z</time>
      </trkpt>
      <trkpt lat="42.24033" lon="1.86001">
        <ele>1109.147</ele>
        <time>2019-04-08T12:58:23Z</time>
      </trkpt>
      <trkpt lat="42.24031" lon="1.85998">
        <ele>1109.096</ele>
        <time>2019-04-08T12:58:25Z</time>
      </trkpt>
      <trkpt lat="42.2403" lon="1.85996">
        <ele>1108.131</ele>
        <time>2019-04-08T12:58:26Z</time>
      </trkpt>
      <trkpt lat="42.24028" lon="1.85992">
        <ele>1108.224</ele>
        <time>2019-04-08T12:58:27Z</time>
      </trkpt>
      <trkpt lat="42.24027" lon="1.85989">
        <ele>1108.208</ele>
        <time>2019-04-08T12:58:28Z</time>
      </trkpt>
      <trkpt lat="42.24026" lon="1.85986">
        <ele>1108.122</ele>
        <time>2019-04-08T12:58:29Z</time>
      </trkpt>
      <trkpt lat="42.24025" lon="1.85983">
        <ele>1108.294</ele>
        <time>2019-04-08T12:58:30Z</time>
      </trkpt>
      <trkpt lat="42.24024" lon="1.85981">
        <ele>1108.169</ele>
        <time>2019-04-08T12:58:31Z</time>
      </trkpt>
      <trkpt lat="42.24023" lon="1.85978">
        <ele>1107.05</ele>
        <time>2019-04-08T12:58:32Z</time>
      </trkpt>
      <trkpt lat="42.24023" lon="1.85975">
        <ele>1107.13</ele>
        <time>2019-04-08T12:58:32Z</time>
      </trkpt>
      <trkpt lat="42.24022" lon="1.85972">
        <ele>1106.124</ele>
        <time>2019-04-08T12:58:33Z</time>
      </trkpt>
      <trkpt lat="42.24021" lon="1.8597">
        <ele>1107.183</ele>
        <time>2019-04-08T12:58:34Z</time>
      </trkpt>
      <trkpt lat="42.2402" lon="1.85967">
        <ele>1107.195</ele>
        <time>2019-04-08T12:58:35Z</time>
      </trkpt>
      <trkpt lat="42.24019" lon="1.85964">
        <ele>1107.195</ele>
        <time>2019-04-08T12:58:36Z</time>
      </trkpt>
      <trkpt lat="42.24018" lon="1.85961">
        <ele>1106.149</ele>
        <time>2019-04-08T12:58:37Z</time>
      </trkpt>
      <trkpt lat="42.24017" lon="1.85958">
        <ele>1106.123</ele>
        <time>2019-04-08T12:58:38Z</time>
      </trkpt>
      <trkpt lat="42.24017" lon="1.85954">
        <ele>1105.108</ele>
        <time>2019-04-08T12:58:39Z</time>
      </trkpt>
      <trkpt lat="42.24016" lon="1.85951">
        <ele>1105.272</ele>
        <time>2019-04-08T12:58:40Z</time>
      </trkpt>
      <trkpt lat="42.24015" lon="1.85947">
        <ele>1106.114</ele>
        <time>2019-04-08T12:58:41Z</time>
      </trkpt>
      <trkpt lat="42.24015" lon="1.85944">
        <ele>1105.169</ele>
        <time>2019-04-08T12:58:42Z</time>
      </trkpt>
      <trkpt lat="42.24014" lon="1.8594">
        <ele>1104.73</ele>
        <time>2019-04-08T12:58:43Z</time>
      </trkpt>
      <trkpt lat="42.24013" lon="1.85937">
        <ele>1104.36</ele>
        <time>2019-04-08T12:58:44Z</time>
      </trkpt>
      <trkpt lat="42.24013" lon="1.85933">
        <ele>1104.394</ele>
        <time>2019-04-08T12:58:46Z</time>
      </trkpt>
      <trkpt lat="42.24013" lon="1.8593">
        <ele>1104.223</ele>
        <time>2019-04-08T12:58:47Z</time>
      </trkpt>
      <trkpt lat="42.24012" lon="1.85927">
        <ele>1103.245</ele>
        <time>2019-04-08T12:58:47Z</time>
      </trkpt>
      <trkpt lat="42.24011" lon="1.85924">
        <ele>1104.138</ele>
        <time>2019-04-08T12:58:48Z</time>
      </trkpt>
      <trkpt lat="42.2401" lon="1.85921">
        <ele>1104.07</ele>
        <time>2019-04-08T12:58:49Z</time>
      </trkpt>
      <trkpt lat="42.24009" lon="1.85917">
        <ele>1104.017</ele>
        <time>2019-04-08T12:58:50Z</time>
      </trkpt>
      <trkpt lat="42.24008" lon="1.85914">
        <ele>1104.208</ele>
        <time>2019-04-08T12:58:51Z</time>
      </trkpt>
      <trkpt lat="42.24007" lon="1.8591">
        <ele>1104.256</ele>
        <time>2019-04-08T12:58:53Z</time>
      </trkpt>
      <trkpt lat="42.24006" lon="1.85907">
        <ele>1103.148</ele>
        <time>2019-04-08T12:58:54Z</time>
      </trkpt>
      <trkpt lat="42.24005" lon="1.85904">
        <ele>1103.273</ele>
        <time>2019-04-08T12:58:55Z</time>
      </trkpt>
      <trkpt lat="42.24004" lon="1.85901">
        <ele>1103.024</ele>
        <time>2019-04-08T12:58:56Z</time>
      </trkpt>
      <trkpt lat="42.24003" lon="1.85899">
        <ele>1102.024</ele>
        <time>2019-04-08T12:58:56Z</time>
      </trkpt>
      <trkpt lat="42.24001" lon="1.85896">
        <ele>1102.228</ele>
        <time>2019-04-08T12:58:58Z</time>
      </trkpt>
      <trkpt lat="42.24" lon="1.85894">
        <ele>1102.067</ele>
        <time>2019-04-08T12:58:58Z</time>
      </trkpt>
      <trkpt lat="42.23998" lon="1.85892">
        <ele>1102.129</ele>
        <time>2019-04-08T12:58:59Z</time>
      </trkpt>
      <trkpt lat="42.23996" lon="1.85889">
        <ele>1102.054</ele>
        <time>2019-04-08T12:59:00Z</time>
      </trkpt>
      <trkpt lat="42.23994" lon="1.85887">
        <ele>1101.156</ele>
        <time>2019-04-08T12:59:02Z</time>
      </trkpt>
      <trkpt lat="42.23992" lon="1.85884">
        <ele>1101.111</ele>
        <time>2019-04-08T12:59:03Z</time>
      </trkpt>
      <trkpt lat="42.23991" lon="1.85881">
        <ele>1100.108</ele>
        <time>2019-04-08T12:59:04Z</time>
      </trkpt>
      <trkpt lat="42.23989" lon="1.85878">
        <ele>1100.218</ele>
        <time>2019-04-08T12:59:05Z</time>
      </trkpt>
      <trkpt lat="42.23987" lon="1.85875">
        <ele>1100.22</ele>
        <time>2019-04-08T12:59:06Z</time>
      </trkpt>
      <trkpt lat="42.23986" lon="1.85873">
        <ele>1099.225</ele>
        <time>2019-04-08T12:59:07Z</time>
      </trkpt>
      <trkpt lat="42.23984" lon="1.8587">
        <ele>1099.196</ele>
        <time>2019-04-08T12:59:08Z</time>
      </trkpt>
      <trkpt lat="42.23982" lon="1.85867">
        <ele>1099.366</ele>
        <time>2019-04-08T12:59:09Z</time>
      </trkpt>
      <trkpt lat="42.23981" lon="1.85865">
        <ele>1099.38</ele>
        <time>2019-04-08T12:59:10Z</time>
      </trkpt>
      <trkpt lat="42.23979" lon="1.85863">
        <ele>1098.049</ele>
        <time>2019-04-08T12:59:11Z</time>
      </trkpt>
      <trkpt lat="42.23977" lon="1.85861">
        <ele>1097.971</ele>
        <time>2019-04-08T12:59:12Z</time>
      </trkpt>
      <trkpt lat="42.23975" lon="1.85859">
        <ele>1097.239</ele>
        <time>2019-04-08T12:59:13Z</time>
      </trkpt>
      <trkpt lat="42.23973" lon="1.85856">
        <ele>1097.101</ele>
        <time>2019-04-08T12:59:14Z</time>
      </trkpt>
      <trkpt lat="42.23972" lon="1.85854">
        <ele>1097.321</ele>
        <time>2019-04-08T12:59:15Z</time>
      </trkpt>
      <trkpt lat="42.23971" lon="1.85851">
        <ele>1096.208</ele>
        <time>2019-04-08T12:59:16Z</time>
      </trkpt>
      <trkpt lat="42.2397" lon="1.85848">
        <ele>1096.176</ele>
        <time>2019-04-08T12:59:17Z</time>
      </trkpt>
      <trkpt lat="42.23968" lon="1.85844">
        <ele>1096.288</ele>
        <time>2019-04-08T12:59:18Z</time>
      </trkpt>
      <trkpt lat="42.23968" lon="1.85841">
        <ele>1096.253</ele>
        <time>2019-04-08T12:59:19Z</time>
      </trkpt>
      <trkpt lat="42.23967" lon="1.85837">
        <ele>1096.134</ele>
        <time>2019-04-08T12:59:20Z</time>
      </trkpt>
      <trkpt lat="42.23966" lon="1.85833">
        <ele>1096.114</ele>
        <time>2019-04-08T12:59:21Z</time>
      </trkpt>
      <trkpt lat="42.23966" lon="1.85829">
        <ele>1095.338</ele>
        <time>2019-04-08T12:59:23Z</time>
      </trkpt>
      <trkpt lat="42.23965" lon="1.85826">
        <ele>1094.777</ele>
        <time>2019-04-08T12:59:24Z</time>
      </trkpt>
      <trkpt lat="42.23965" lon="1.85823">
        <ele>1094.139</ele>
        <time>2019-04-08T12:59:24Z</time>
      </trkpt>
      <trkpt lat="42.23965" lon="1.8582">
        <ele>1094.285</ele>
        <time>2019-04-08T12:59:25Z</time>
      </trkpt>
      <trkpt lat="42.23965" lon="1.85817">
        <ele>1094.189</ele>
        <time>2019-04-08T12:59:26Z</time>
      </trkpt>
      <trkpt lat="42.23965" lon="1.85813">
        <ele>1094.317</ele>
        <time>2019-04-08T12:59:27Z</time>
      </trkpt>
      <trkpt lat="42.23965" lon="1.8581">
        <ele>1093.208</ele>
        <time>2019-04-08T12:59:28Z</time>
      </trkpt>
      <trkpt lat="42.23964" lon="1.85807">
        <ele>1093.191</ele>
        <time>2019-04-08T12:59:29Z</time>
      </trkpt>
      <trkpt lat="42.23964" lon="1.85804">
        <ele>1093.053</ele>
        <time>2019-04-08T12:59:30Z</time>
      </trkpt>
      <trkpt lat="42.23964" lon="1.858">
        <ele>1092.068</ele>
        <time>2019-04-08T12:59:31Z</time>
      </trkpt>
      <trkpt lat="42.23963" lon="1.85797">
        <ele>1092.059</ele>
        <time>2019-04-08T12:59:32Z</time>
      </trkpt>
      <trkpt lat="42.23963" lon="1.85793">
        <ele>1091.139</ele>
        <time>2019-04-08T12:59:34Z</time>
      </trkpt>
      <trkpt lat="42.23963" lon="1.8579">
        <ele>1091.293</ele>
        <time>2019-04-08T12:59:35Z</time>
      </trkpt>
      <trkpt lat="42.23962" lon="1.85785">
        <ele>1091.092</ele>
        <time>2019-04-08T12:59:36Z</time>
      </trkpt>
      <trkpt lat="42.23962" lon="1.85782">
        <ele>1091.154</ele>
        <time>2019-04-08T12:59:37Z</time>
      </trkpt>
      <trkpt lat="42.23961" lon="1.85779">
        <ele>1090.188</ele>
        <time>2019-04-08T12:59:38Z</time>
      </trkpt>
      <trkpt lat="42.23959" lon="1.85773">
        <ele>1090.124</ele>
        <time>2019-04-08T12:59:40Z</time>
      </trkpt>
      <trkpt lat="42.23958" lon="1.85771">
        <ele>1089.126</ele>
        <time>2019-04-08T12:59:40Z</time>
      </trkpt>
      <trkpt lat="42.23957" lon="1.85769">
        <ele>1089.308</ele>
        <time>2019-04-08T12:59:41Z</time>
      </trkpt>
      <trkpt lat="42.23955" lon="1.85765">
        <ele>1089.291</ele>
        <time>2019-04-08T12:59:42Z</time>
      </trkpt>
      <trkpt lat="42.23954" lon="1.85762">
        <ele>1089.023</ele>
        <time>2019-04-08T12:59:43Z</time>
      </trkpt>
      <trkpt lat="42.23953" lon="1.8576">
        <ele>1088.188</ele>
        <time>2019-04-08T12:59:44Z</time>
      </trkpt>
      <trkpt lat="42.23949" lon="1.85759">
        <ele>1087.089</ele>
        <time>2019-04-08T12:59:46Z</time>
      </trkpt>
      <trkpt lat="42.2394" lon="1.85756">
        <ele>1087.039</ele>
        <time>2019-04-08T12:59:49Z</time>
      </trkpt>
      <trkpt lat="42.23932" lon="1.8575">
        <ele>1086.213</ele>
        <time>2019-04-08T12:59:53Z</time>
      </trkpt>
      <trkpt lat="42.23929" lon="1.8575">
        <ele>1085.132</ele>
        <time>2019-04-08T12:59:54Z</time>
      </trkpt>
      <trkpt lat="42.23927" lon="1.8575">
        <ele>1085.184</ele>
        <time>2019-04-08T12:59:55Z</time>
      </trkpt>
      <trkpt lat="42.23924" lon="1.85749">
        <ele>1085.175</ele>
        <time>2019-04-08T12:59:56Z</time>
      </trkpt>
      <trkpt lat="42.23922" lon="1.85749">
        <ele>1085.228</ele>
        <time>2019-04-08T12:59:57Z</time>
      </trkpt>
      <trkpt lat="42.2392" lon="1.85748">
        <ele>1085.12</ele>
        <time>2019-04-08T12:59:58Z</time>
      </trkpt>
      <trkpt lat="42.23918" lon="1.85748">
        <ele>1085.308</ele>
        <time>2019-04-08T12:59:59Z</time>
      </trkpt>
      <trkpt lat="42.23915" lon="1.85748">
        <ele>1084.21</ele>
        <time>2019-04-08T13:00:00Z</time>
      </trkpt>
      <trkpt lat="42.23912" lon="1.85747">
        <ele>1084.152</ele>
        <time>2019-04-08T13:00:01Z</time>
      </trkpt>
      <trkpt lat="42.23909" lon="1.85746">
        <ele>1083.177</ele>
        <time>2019-04-08T13:00:02Z</time>
      </trkpt>
      <trkpt lat="42.23908" lon="1.85745">
        <ele>1083.188</ele>
        <time>2019-04-08T13:00:03Z</time>
      </trkpt>
      <trkpt lat="42.23905" lon="1.85744">
        <ele>1083.258</ele>
        <time>2019-04-08T13:00:04Z</time>
      </trkpt>
      <trkpt lat="42.23902" lon="1.85742">
        <ele>1083.212</ele>
        <time>2019-04-08T13:00:06Z</time>
      </trkpt>
      <trkpt lat="42.23899" lon="1.85741">
        <ele>1083.111</ele>
        <time>2019-04-08T13:00:07Z</time>
      </trkpt>
      <trkpt lat="42.23893" lon="1.85736">
        <ele>1083.043</ele>
        <time>2019-04-08T13:00:10Z</time>
      </trkpt>
      <trkpt lat="42.23884" lon="1.85729">
        <ele>1082.148</ele>
        <time>2019-04-08T13:00:14Z</time>
      </trkpt>
      <trkpt lat="42.23877" lon="1.8572">
        <ele>1080.161</ele>
        <time>2019-04-08T13:00:18Z</time>
      </trkpt>
      <trkpt lat="42.23868" lon="1.85718">
        <ele>1080.117</ele>
        <time>2019-04-08T13:00:21Z</time>
      </trkpt>
      <trkpt lat="42.23864" lon="1.8573">
        <ele>1077.108</ele>
        <time>2019-04-08T13:00:25Z</time>
      </trkpt>
      <trkpt lat="42.23867" lon="1.85742">
        <ele>1075.257</ele>
        <time>2019-04-08T13:00:29Z</time>
      </trkpt>
      <trkpt lat="42.23868" lon="1.85756">
        <ele>1072.019</ele>
        <time>2019-04-08T13:00:33Z</time>
      </trkpt>
      <trkpt lat="42.23865" lon="1.85768">
        <ele>1069.194</ele>
        <time>2019-04-08T13:00:37Z</time>
      </trkpt>
      <trkpt lat="42.23865" lon="1.85782">
        <ele>1067.865</ele>
        <time>2019-04-08T13:00:41Z</time>
      </trkpt>
      <trkpt lat="42.23871" lon="1.85793">
        <ele>1064.955</ele>
        <time>2019-04-08T13:00:45Z</time>
      </trkpt>
      <trkpt lat="42.23876" lon="1.85803">
        <ele>1061.149</ele>
        <time>2019-04-08T13:00:49Z</time>
      </trkpt>
      <trkpt lat="42.23866" lon="1.85806">
        <ele>1058.178</ele>
        <time>2019-04-08T13:00:52Z</time>
      </trkpt>
      <trkpt lat="42.23863" lon="1.85818">
        <ele>1055.18</ele>
        <time>2019-04-08T13:00:56Z</time>
      </trkpt>
      <trkpt lat="42.23861" lon="1.8583">
        <ele>1051.933</ele>
        <time>2019-04-08T13:01:00Z</time>
      </trkpt>
      <trkpt lat="42.23862" lon="1.85843">
        <ele>1048.123</ele>
        <time>2019-04-08T13:01:03Z</time>
      </trkpt>
      <trkpt lat="42.23858" lon="1.85855">
        <ele>1045.115</ele>
        <time>2019-04-08T13:01:07Z</time>
      </trkpt>
      <trkpt lat="42.23864" lon="1.85865">
        <ele>1043.308</ele>
        <time>2019-04-08T13:01:11Z</time>
      </trkpt>
      <trkpt lat="42.23864" lon="1.85877">
        <ele>1040.226</ele>
        <time>2019-04-08T13:01:15Z</time>
      </trkpt>
      <trkpt lat="42.23864" lon="1.85891">
        <ele>1038.088</ele>
        <time>2019-04-08T13:01:19Z</time>
      </trkpt>
      <trkpt lat="42.23865" lon="1.85905">
        <ele>1035.163</ele>
        <time>2019-04-08T13:01:23Z</time>
      </trkpt>
      <trkpt lat="42.23865" lon="1.85917">
        <ele>1034.084</ele>
        <time>2019-04-08T13:01:27Z</time>
      </trkpt>
      <trkpt lat="42.23867" lon="1.85929">
        <ele>1032.144</ele>
        <time>2019-04-08T13:01:30Z</time>
      </trkpt>
      <trkpt lat="42.23867" lon="1.85942">
        <ele>1030.388</ele>
        <time>2019-04-08T13:01:34Z</time>
      </trkpt>
      <trkpt lat="42.23865" lon="1.85954">
        <ele>1029.187</ele>
        <time>2019-04-08T13:01:38Z</time>
      </trkpt>
      <trkpt lat="42.2386" lon="1.85964">
        <ele>1028.149</ele>
        <time>2019-04-08T13:01:42Z</time>
      </trkpt>
      <trkpt lat="42.23859" lon="1.85978">
        <ele>1026.133</ele>
        <time>2019-04-08T13:01:46Z</time>
      </trkpt>
      <trkpt lat="42.23864" lon="1.85989">
        <ele>1024.123</ele>
        <time>2019-04-08T13:01:50Z</time>
      </trkpt>
      <trkpt lat="42.23861" lon="1.86001">
        <ele>1023.115</ele>
        <time>2019-04-08T13:01:53Z</time>
      </trkpt>
      <trkpt lat="42.23862" lon="1.86014">
        <ele>1020.108</ele>
        <time>2019-04-08T13:01:57Z</time>
      </trkpt>
      <trkpt lat="42.23856" lon="1.86025">
        <ele>1020.166</ele>
        <time>2019-04-08T13:02:01Z</time>
      </trkpt>
      <trkpt lat="42.23853" lon="1.86038">
        <ele>1018.218</ele>
        <time>2019-04-08T13:02:05Z</time>
      </trkpt>
      <trkpt lat="42.23849" lon="1.86049">
        <ele>1016.263</ele>
        <time>2019-04-08T13:02:09Z</time>
      </trkpt>
      <trkpt lat="42.23846" lon="1.86061">
        <ele>1014.244</ele>
        <time>2019-04-08T13:02:13Z</time>
      </trkpt>
      <trkpt lat="42.23842" lon="1.86072">
        <ele>1012.244</ele>
        <time>2019-04-08T13:02:16Z</time>
      </trkpt>
      <trkpt lat="42.23839" lon="1.86084">
        <ele>1010.278</ele>
        <time>2019-04-08T13:02:20Z</time>
      </trkpt>
      <trkpt lat="42.23835" lon="1.86095">
        <ele>1008.167</ele>
        <time>2019-04-08T13:02:24Z</time>
      </trkpt>
      <trkpt lat="42.23831" lon="1.86107">
        <ele>1006.099</ele>
        <time>2019-04-08T13:02:28Z</time>
      </trkpt>
      <trkpt lat="42.23828" lon="1.86119">
        <ele>1003.279</ele>
        <time>2019-04-08T13:02:31Z</time>
      </trkpt>
      <trkpt lat="42.23826" lon="1.86132">
        <ele>1001.105</ele>
        <time>2019-04-08T13:02:35Z</time>
      </trkpt>
      <trkpt lat="42.23822" lon="1.86144">
        <ele>997.225</ele>
        <time>2019-04-08T13:02:39Z</time>
      </trkpt>
      <trkpt lat="42.2382" lon="1.86157">
        <ele>995.208</ele>
        <time>2019-04-08T13:02:43Z</time>
      </trkpt>
      <trkpt lat="42.23817" lon="1.86169">
        <ele>993.11</ele>
        <time>2019-04-08T13:02:47Z</time>
      </trkpt>
      <trkpt lat="42.23815" lon="1.86182">
        <ele>991.292</ele>
        <time>2019-04-08T13:02:51Z</time>
      </trkpt>
      <trkpt lat="42.23821" lon="1.86192">
        <ele>989.287</ele>
        <time>2019-04-08T13:02:55Z</time>
      </trkpt>
      <trkpt lat="42.23827" lon="1.86202">
        <ele>986.228</ele>
        <time>2019-04-08T13:02:58Z</time>
      </trkpt>
      <trkpt lat="42.2383" lon="1.86213">
        <ele>983.978</ele>
        <time>2019-04-08T13:03:02Z</time>
      </trkpt>
      <trkpt lat="42.23831" lon="1.86226">
        <ele>981.112</ele>
        <time>2019-04-08T13:03:06Z</time>
      </trkpt>
      <trkpt lat="42.23834" lon="1.86238">
        <ele>979.251</ele>
        <time>2019-04-08T13:03:10Z</time>
      </trkpt>
      <trkpt lat="42.23834" lon="1.86251">
        <ele>977.133</ele>
        <time>2019-04-08T13:03:13Z</time>
      </trkpt>
      <trkpt lat="42.23833" lon="1.86254">
        <ele>977.168</ele>
        <time>2019-04-08T13:03:14Z</time>
      </trkpt>
      <trkpt lat="42.23832" lon="1.86257">
        <ele>976.142</ele>
        <time>2019-04-08T13:03:15Z</time>
      </trkpt>
      <trkpt lat="42.23831" lon="1.8626">
        <ele>976.226</ele>
        <time>2019-04-08T13:03:16Z</time>
      </trkpt>
      <trkpt lat="42.23831" lon="1.86273">
        <ele>974.308</ele>
        <time>2019-04-08T13:03:20Z</time>
      </trkpt>
      <trkpt lat="42.23832" lon="1.86275">
        <ele>973.159</ele>
        <time>2019-04-08T13:03:21Z</time>
      </trkpt>
      <trkpt lat="42.23832" lon="1.86278">
        <ele>973.361</ele>
        <time>2019-04-08T13:03:22Z</time>
      </trkpt>
      <trkpt lat="42.23831" lon="1.86281">
        <ele>972.076</ele>
        <time>2019-04-08T13:03:23Z</time>
      </trkpt>
      <trkpt lat="42.23832" lon="1.86284">
        <ele>972.137</ele>
        <time>2019-04-08T13:03:24Z</time>
      </trkpt>
      <trkpt lat="42.23833" lon="1.86294">
        <ele>971.367</ele>
        <time>2019-04-08T13:03:27Z</time>
      </trkpt>
      <trkpt lat="42.23834" lon="1.86296">
        <ele>971.251</ele>
        <time>2019-04-08T13:03:27Z</time>
      </trkpt>
      <trkpt lat="42.23835" lon="1.86298">
        <ele>971.13</ele>
        <time>2019-04-08T13:03:28Z</time>
      </trkpt>
      <trkpt lat="42.23837" lon="1.86301">
        <ele>971.292</ele>
        <time>2019-04-08T13:03:29Z</time>
      </trkpt>
      <trkpt lat="42.23837" lon="1.86304">
        <ele>970.198</ele>
        <time>2019-04-08T13:03:30Z</time>
      </trkpt>
      <trkpt lat="42.23838" lon="1.86306">
        <ele>970.115</ele>
        <time>2019-04-08T13:03:31Z</time>
      </trkpt>
      <trkpt lat="42.23838" lon="1.8631">
        <ele>970.326</ele>
        <time>2019-04-08T13:03:32Z</time>
      </trkpt>
      <trkpt lat="42.23836" lon="1.86319">
        <ele>968.108</ele>
        <time>2019-04-08T13:03:35Z</time>
      </trkpt>
      <trkpt lat="42.23838" lon="1.86332">
        <ele>968.222</ele>
        <time>2019-04-08T13:03:38Z</time>
      </trkpt>
      <trkpt lat="42.23839" lon="1.86344">
        <ele>965.054</ele>
        <time>2019-04-08T13:03:42Z</time>
      </trkpt>
      <trkpt lat="42.23839" lon="1.86347">
        <ele>965.129</ele>
        <time>2019-04-08T13:03:43Z</time>
      </trkpt>
      <trkpt lat="42.23839" lon="1.86356">
        <ele>964.26</ele>
        <time>2019-04-08T13:03:46Z</time>
      </trkpt>
      <trkpt lat="42.2384" lon="1.86358">
        <ele>964.27</ele>
        <time>2019-04-08T13:03:46Z</time>
      </trkpt>
      <trkpt lat="42.23841" lon="1.86361">
        <ele>963.174</ele>
        <time>2019-04-08T13:03:47Z</time>
      </trkpt>
      <trkpt lat="42.23842" lon="1.86364">
        <ele>963.153</ele>
        <time>2019-04-08T13:03:48Z</time>
      </trkpt>
      <trkpt lat="42.23842" lon="1.86367">
        <ele>962.255</ele>
        <time>2019-04-08T13:03:49Z</time>
      </trkpt>
      <trkpt lat="42.23842" lon="1.86369">
        <ele>962.292</ele>
        <time>2019-04-08T13:03:50Z</time>
      </trkpt>
      <trkpt lat="42.23841" lon="1.86373">
        <ele>961.073</ele>
        <time>2019-04-08T13:03:51Z</time>
      </trkpt>
      <trkpt lat="42.2384" lon="1.86376">
        <ele>961.22</ele>
        <time>2019-04-08T13:03:52Z</time>
      </trkpt>
      <trkpt lat="42.2384" lon="1.8638">
        <ele>961.208</ele>
        <time>2019-04-08T13:03:53Z</time>
      </trkpt>
      <trkpt lat="42.2384" lon="1.86383">
        <ele>961.152</ele>
        <time>2019-04-08T13:03:54Z</time>
      </trkpt>
      <trkpt lat="42.2384" lon="1.86386">
        <ele>960.214</ele>
        <time>2019-04-08T13:03:55Z</time>
      </trkpt>
      <trkpt lat="42.2384" lon="1.86389">
        <ele>960.139</ele>
        <time>2019-04-08T13:03:56Z</time>
      </trkpt>
      <trkpt lat="42.2384" lon="1.86392">
        <ele>960.07</ele>
        <time>2019-04-08T13:03:57Z</time>
      </trkpt>
      <trkpt lat="42.2384" lon="1.86396">
        <ele>960.08</ele>
        <time>2019-04-08T13:03:58Z</time>
      </trkpt>
      <trkpt lat="42.2384" lon="1.86399">
        <ele>959.244</ele>
        <time>2019-04-08T13:03:59Z</time>
      </trkpt>
      <trkpt lat="42.23841" lon="1.86401">
        <ele>959.113</ele>
        <time>2019-04-08T13:04:00Z</time>
      </trkpt>
      <trkpt lat="42.23842" lon="1.86405">
        <ele>959.085</ele>
        <time>2019-04-08T13:04:01Z</time>
      </trkpt>
      <trkpt lat="42.23843" lon="1.86407">
        <ele>958.119</ele>
        <time>2019-04-08T13:04:01Z</time>
      </trkpt>
      <trkpt lat="42.23844" lon="1.8641">
        <ele>959.009</ele>
        <time>2019-04-08T13:04:02Z</time>
      </trkpt>
      <trkpt lat="42.23844" lon="1.86414">
        <ele>958.119</ele>
        <time>2019-04-08T13:04:04Z</time>
      </trkpt>
      <trkpt lat="42.23844" lon="1.86418">
        <ele>958.108</ele>
        <time>2019-04-08T13:04:05Z</time>
      </trkpt>
      <trkpt lat="42.23845" lon="1.86421">
        <ele>958.214</ele>
        <time>2019-04-08T13:04:06Z</time>
      </trkpt>
      <trkpt lat="42.23846" lon="1.86424">
        <ele>958.016</ele>
        <time>2019-04-08T13:04:07Z</time>
      </trkpt>
      <trkpt lat="42.23847" lon="1.86426">
        <ele>957.191</ele>
        <time>2019-04-08T13:04:07Z</time>
      </trkpt>
      <trkpt lat="42.23847" lon="1.86429">
        <ele>956.092</ele>
        <time>2019-04-08T13:04:08Z</time>
      </trkpt>
      <trkpt lat="42.23847" lon="1.86432">
        <ele>955.982</ele>
        <time>2019-04-08T13:04:09Z</time>
      </trkpt>
      <trkpt lat="42.23848" lon="1.86434">
        <ele>955.126</ele>
        <time>2019-04-08T13:04:10Z</time>
      </trkpt>
      <trkpt lat="42.23848" lon="1.86437">
        <ele>954.045</ele>
        <time>2019-04-08T13:04:11Z</time>
      </trkpt>
      <trkpt lat="42.23848" lon="1.8644">
        <ele>954.217</ele>
        <time>2019-04-08T13:04:11Z</time>
      </trkpt>
      <trkpt lat="42.23848" lon="1.86442">
        <ele>953.179</ele>
        <time>2019-04-08T13:04:12Z</time>
      </trkpt>
      <trkpt lat="42.23848" lon="1.86445">
        <ele>953.105</ele>
        <time>2019-04-08T13:04:13Z</time>
      </trkpt>
      <trkpt lat="42.23847" lon="1.86448">
        <ele>952.325</ele>
        <time>2019-04-08T13:04:14Z</time>
      </trkpt>
      <trkpt lat="42.23846" lon="1.86451">
        <ele>951.308</ele>
        <time>2019-04-08T13:04:15Z</time>
      </trkpt>
      <trkpt lat="42.23847" lon="1.86454">
        <ele>949.94</ele>
        <time>2019-04-08T13:04:16Z</time>
      </trkpt>
      <trkpt lat="42.23847" lon="1.86457">
        <ele>948.222</ele>
        <time>2019-04-08T13:04:17Z</time>
      </trkpt>
      <trkpt lat="42.23846" lon="1.8646">
        <ele>948.187</ele>
        <time>2019-04-08T13:04:18Z</time>
      </trkpt>
      <trkpt lat="42.23845" lon="1.86462">
        <ele>947.228</ele>
        <time>2019-04-08T13:04:18Z</time>
      </trkpt>
      <trkpt lat="42.23844" lon="1.86464">
        <ele>947.298</ele>
        <time>2019-04-08T13:04:19Z</time>
      </trkpt>
      <trkpt lat="42.23844" lon="1.86467">
        <ele>946.192</ele>
        <time>2019-04-08T13:04:20Z</time>
      </trkpt>
      <trkpt lat="42.23843" lon="1.86471">
        <ele>944.981</ele>
        <time>2019-04-08T13:04:21Z</time>
      </trkpt>
      <trkpt lat="42.23842" lon="1.86473">
        <ele>944.243</ele>
        <time>2019-04-08T13:04:22Z</time>
      </trkpt>
      <trkpt lat="42.23842" lon="1.86476">
        <ele>944.029</ele>
        <time>2019-04-08T13:04:23Z</time>
      </trkpt>
      <trkpt lat="42.23842" lon="1.86479">
        <ele>942.1</ele>
        <time>2019-04-08T13:04:24Z</time>
      </trkpt>
      <trkpt lat="42.23844" lon="1.86481">
        <ele>942.22</ele>
        <time>2019-04-08T13:04:25Z</time>
      </trkpt>
      <trkpt lat="42.23845" lon="1.86483">
        <ele>942.308</ele>
        <time>2019-04-08T13:04:26Z</time>
      </trkpt>
      <trkpt lat="42.23847" lon="1.86485">
        <ele>942.215</ele>
        <time>2019-04-08T13:04:27Z</time>
      </trkpt>
      <trkpt lat="42.2385" lon="1.86486">
        <ele>941.157</ele>
        <time>2019-04-08T13:04:28Z</time>
      </trkpt>
      <trkpt lat="42.23852" lon="1.86488">
        <ele>940.112</ele>
        <time>2019-04-08T13:04:29Z</time>
      </trkpt>
      <trkpt lat="42.23853" lon="1.86491">
        <ele>939.253</ele>
        <time>2019-04-08T13:04:30Z</time>
      </trkpt>
      <trkpt lat="42.23855" lon="1.86492">
        <ele>938.213</ele>
        <time>2019-04-08T13:04:30Z</time>
      </trkpt>
      <trkpt lat="42.23856" lon="1.86494">
        <ele>938.257</ele>
        <time>2019-04-08T13:04:31Z</time>
      </trkpt>
      <trkpt lat="42.23858" lon="1.86495">
        <ele>938.146</ele>
        <time>2019-04-08T13:04:32Z</time>
      </trkpt>
      <trkpt lat="42.2386" lon="1.86496">
        <ele>938.068</ele>
        <time>2019-04-08T13:04:33Z</time>
      </trkpt>
      <trkpt lat="42.23862" lon="1.86498">
        <ele>937.295</ele>
        <time>2019-04-08T13:04:34Z</time>
      </trkpt>
      <trkpt lat="42.23864" lon="1.865">
        <ele>936.149</ele>
        <time>2019-04-08T13:04:35Z</time>
      </trkpt>
      <trkpt lat="42.23865" lon="1.86502">
        <ele>936.223</ele>
        <time>2019-04-08T13:04:36Z</time>
      </trkpt>
      <trkpt lat="42.23868" lon="1.86509">
        <ele>934.208</ele>
        <time>2019-04-08T13:04:38Z</time>
      </trkpt>
      <trkpt lat="42.23871" lon="1.86522">
        <ele>933.262</ele>
        <time>2019-04-08T13:04:42Z</time>
      </trkpt>
      <trkpt lat="42.23875" lon="1.86534">
        <ele>932.334</ele>
        <time>2019-04-08T13:04:46Z</time>
      </trkpt>
      <trkpt lat="42.23873" lon="1.86547">
        <ele>930.269</ele>
        <time>2019-04-08T13:04:50Z</time>
      </trkpt>
      <trkpt lat="42.23871" lon="1.86561">
        <ele>928.16</ele>
        <time>2019-04-08T13:04:54Z</time>
      </trkpt>
      <trkpt lat="42.2387" lon="1.86574">
        <ele>927.14</ele>
        <time>2019-04-08T13:04:58Z</time>
      </trkpt>
      <trkpt lat="42.23869" lon="1.86587">
        <ele>925.384</ele>
        <time>2019-04-08T13:05:02Z</time>
      </trkpt>
      <trkpt lat="42.2387" lon="1.866">
        <ele>922.273</ele>
        <time>2019-04-08T13:05:05Z</time>
      </trkpt>
      <trkpt lat="42.23872" lon="1.866">
        <ele>920.085</ele>
        <time>2019-04-08T13:05:06Z</time>
      </trkpt>
      <trkpt lat="42.2387" lon="1.86601">
        <ele>919.044</ele>
        <time>2019-04-08T13:05:07Z</time>
      </trkpt>
      <trkpt lat="42.23868" lon="1.86604">
        <ele>918.105</ele>
        <time>2019-04-08T13:05:08Z</time>
      </trkpt>
      <trkpt lat="42.23865" lon="1.8661">
        <ele>917.315</ele>
        <time>2019-04-08T13:05:11Z</time>
      </trkpt>
      <trkpt lat="42.23863" lon="1.86612">
        <ele>917.208</ele>
        <time>2019-04-08T13:05:11Z</time>
      </trkpt>
      <trkpt lat="42.23862" lon="1.86614">
        <ele>915.157</ele>
        <time>2019-04-08T13:05:12Z</time>
      </trkpt>
      <trkpt lat="42.23863" lon="1.86617">
        <ele>914.249</ele>
        <time>2019-04-08T13:05:13Z</time>
      </trkpt>
      <trkpt lat="42.23865" lon="1.86619">
        <ele>914.034</ele>
        <time>2019-04-08T13:05:14Z</time>
      </trkpt>
      <trkpt lat="42.23865" lon="1.86621">
        <ele>913.055</ele>
        <time>2019-04-08T13:05:15Z</time>
      </trkpt>
      <trkpt lat="42.23864" lon="1.86624">
        <ele>913.165</ele>
        <time>2019-04-08T13:05:16Z</time>
      </trkpt>
      <trkpt lat="42.23863" lon="1.86626">
        <ele>913.189</ele>
        <time>2019-04-08T13:05:17Z</time>
      </trkpt>
      <trkpt lat="42.23861" lon="1.86629">
        <ele>913.198</ele>
        <time>2019-04-08T13:05:18Z</time>
      </trkpt>
      <trkpt lat="42.23859" lon="1.86632">
        <ele>913.07</ele>
        <time>2019-04-08T13:05:19Z</time>
      </trkpt>
      <trkpt lat="42.23858" lon="1.86635">
        <ele>912.197</ele>
        <time>2019-04-08T13:05:20Z</time>
      </trkpt>
      <trkpt lat="42.23855" lon="1.86645">
        <ele>911.223</ele>
        <time>2019-04-08T13:05:23Z</time>
      </trkpt>
      <trkpt lat="42.23853" lon="1.86648">
        <ele>911.325</ele>
        <time>2019-04-08T13:05:24Z</time>
      </trkpt>
      <trkpt lat="42.23853" lon="1.86652">
        <ele>911.308</ele>
        <time>2019-04-08T13:05:25Z</time>
      </trkpt>
      <trkpt lat="42.23853" lon="1.86655">
        <ele>910.162</ele>
        <time>2019-04-08T13:05:26Z</time>
      </trkpt>
      <trkpt lat="42.23853" lon="1.86659">
        <ele>910.274</ele>
        <time>2019-04-08T13:05:28Z</time>
      </trkpt>
      <trkpt lat="42.23853" lon="1.86662">
        <ele>910.119</ele>
        <time>2019-04-08T13:05:28Z</time>
      </trkpt>
      <trkpt lat="42.23853" lon="1.86666">
        <ele>909.28</ele>
        <time>2019-04-08T13:05:30Z</time>
      </trkpt>
      <trkpt lat="42.23854" lon="1.8667">
        <ele>908.26</ele>
        <time>2019-04-08T13:05:31Z</time>
      </trkpt>
      <trkpt lat="42.23855" lon="1.86673">
        <ele>908.164</ele>
        <time>2019-04-08T13:05:32Z</time>
      </trkpt>
      <trkpt lat="42.23855" lon="1.86676">
        <ele>908.143</ele>
        <time>2019-04-08T13:05:33Z</time>
      </trkpt>
      <trkpt lat="42.23855" lon="1.86679">
        <ele>908.135</ele>
        <time>2019-04-08T13:05:33Z</time>
      </trkpt>
      <trkpt lat="42.23856" lon="1.86681">
        <ele>908.195</ele>
        <time>2019-04-08T13:05:34Z</time>
      </trkpt>
      <trkpt lat="42.23856" lon="1.86684">
        <ele>907.149</ele>
        <time>2019-04-08T13:05:35Z</time>
      </trkpt>
      <trkpt lat="42.23857" lon="1.86687">
        <ele>907.223</ele>
        <time>2019-04-08T13:05:36Z</time>
      </trkpt>
      <trkpt lat="42.23856" lon="1.86691">
        <ele>906.208</ele>
        <time>2019-04-08T13:05:37Z</time>
      </trkpt>
      <trkpt lat="42.23857" lon="1.86694">
        <ele>906.222</ele>
        <time>2019-04-08T13:05:38Z</time>
      </trkpt>
      <trkpt lat="42.23858" lon="1.86697">
        <ele>906.154</ele>
        <time>2019-04-08T13:05:39Z</time>
      </trkpt>
      <trkpt lat="42.23858" lon="1.867">
        <ele>905.279</ele>
        <time>2019-04-08T13:05:40Z</time>
      </trkpt>
      <trkpt lat="42.23858" lon="1.86703">
        <ele>905.18</ele>
        <time>2019-04-08T13:05:41Z</time>
      </trkpt>
      <trkpt lat="42.23858" lon="1.86706">
        <ele>905.18</ele>
        <time>2019-04-08T13:05:42Z</time>
      </trkpt>
      <trkpt lat="42.23859" lon="1.86709">
        <ele>904.264</ele>
        <time>2019-04-08T13:05:42Z</time>
      </trkpt>
      <trkpt lat="42.23859" lon="1.86711">
        <ele>904.193</ele>
        <time>2019-04-08T13:05:43Z</time>
      </trkpt>
      <trkpt lat="42.2386" lon="1.86714">
        <ele>904.195</ele>
        <time>2019-04-08T13:05:44Z</time>
      </trkpt>
      <trkpt lat="42.23861" lon="1.86715">
        <ele>904.269</ele>
        <time>2019-04-08T13:05:45Z</time>
      </trkpt>
      <trkpt lat="42.23862" lon="1.86718">
        <ele>904.204</ele>
        <time>2019-04-08T13:05:46Z</time>
      </trkpt>
      <trkpt lat="42.23862" lon="1.86722">
        <ele>903.124</ele>
        <time>2019-04-08T13:05:47Z</time>
      </trkpt>
      <trkpt lat="42.23861" lon="1.86724">
        <ele>902.208</ele>
        <time>2019-04-08T13:05:48Z</time>
      </trkpt>
      <trkpt lat="42.23859" lon="1.86726">
        <ele>902.229</ele>
        <time>2019-04-08T13:05:49Z</time>
      </trkpt>
      <trkpt lat="42.23858" lon="1.86729">
        <ele>902.251</ele>
        <time>2019-04-08T13:05:50Z</time>
      </trkpt>
      <trkpt lat="42.23856" lon="1.86731">
        <ele>901.016</ele>
        <time>2019-04-08T13:05:50Z</time>
      </trkpt>
      <trkpt lat="42.23855" lon="1.86733">
        <ele>901.117</ele>
        <time>2019-04-08T13:05:51Z</time>
      </trkpt>
      <trkpt lat="42.23854" lon="1.86735">
        <ele>901.247</ele>
        <time>2019-04-08T13:05:52Z</time>
      </trkpt>
      <trkpt lat="42.23852" lon="1.86737">
        <ele>900.381</ele>
        <time>2019-04-08T13:05:53Z</time>
      </trkpt>
      <trkpt lat="42.2385" lon="1.86742">
        <ele>899.04</ele>
        <time>2019-04-08T13:05:55Z</time>
      </trkpt>
      <trkpt lat="42.23851" lon="1.86747">
        <ele>898.292</ele>
        <time>2019-04-08T13:05:56Z</time>
      </trkpt>
      <trkpt lat="42.23847" lon="1.86759">
        <ele>896.299</ele>
        <time>2019-04-08T13:06:00Z</time>
      </trkpt>
      <trkpt lat="42.23849" lon="1.86771">
        <ele>894.107</ele>
        <time>2019-04-08T13:06:03Z</time>
      </trkpt>
      <trkpt lat="42.23849" lon="1.8678">
        <ele>891.227</ele>
        <time>2019-04-08T13:06:06Z</time>
      </trkpt>
      <trkpt lat="42.23848" lon="1.86786">
        <ele>890.308</ele>
        <time>2019-04-08T13:06:08Z</time>
      </trkpt>
      <trkpt lat="42.23844" lon="1.86797">
        <ele>888.322</ele>
        <time>2019-04-08T13:06:12Z</time>
      </trkpt>
      <trkpt lat="42.23842" lon="1.86799">
        <ele>887.114</ele>
        <time>2019-04-08T13:06:13Z</time>
      </trkpt>
      <trkpt lat="42.23839" lon="1.86805">
        <ele>886.099</ele>
        <time>2019-04-08T13:06:15Z</time>
      </trkpt>
      <trkpt lat="42.23833" lon="1.86816">
        <ele>885.17</ele>
        <time>2019-04-08T13:06:19Z</time>
      </trkpt>
      <trkpt lat="42.23832" lon="1.86828">
        <ele>882.24</ele>
        <time>2019-04-08T13:06:22Z</time>
      </trkpt>
      <trkpt lat="42.23827" lon="1.86839">
        <ele>879.384</ele>
        <time>2019-04-08T13:06:26Z</time>
      </trkpt>
      <trkpt lat="42.23825" lon="1.86845">
        <ele>878.263</ele>
        <time>2019-04-08T13:06:28Z</time>
      </trkpt>
      <trkpt lat="42.2382" lon="1.86856">
        <ele>875.115</ele>
        <time>2019-04-08T13:06:32Z</time>
      </trkpt>
      <trkpt lat="42.23817" lon="1.86869">
        <ele>872.897</ele>
        <time>2019-04-08T13:06:36Z</time>
      </trkpt>
      <trkpt lat="42.23816" lon="1.86871">
        <ele>872.023</ele>
        <time>2019-04-08T13:06:37Z</time>
      </trkpt>
      <trkpt lat="42.23812" lon="1.86874">
        <ele>870.325</ele>
        <time>2019-04-08T13:06:39Z</time>
      </trkpt>
      <trkpt lat="42.23811" lon="1.86877">
        <ele>869.208</ele>
        <time>2019-04-08T13:06:39Z</time>
      </trkpt>
      <trkpt lat="42.2381" lon="1.86879">
        <ele>867.292</ele>
        <time>2019-04-08T13:06:40Z</time>
      </trkpt>
      <trkpt lat="42.23808" lon="1.86879">
        <ele>866.254</ele>
        <time>2019-04-08T13:06:41Z</time>
      </trkpt>
      <trkpt lat="42.23806" lon="1.86878">
        <ele>865.159</ele>
        <time>2019-04-08T13:06:42Z</time>
      </trkpt>
      <trkpt lat="42.23804" lon="1.86879">
        <ele>864.06</ele>
        <time>2019-04-08T13:06:43Z</time>
      </trkpt>
      <trkpt lat="42.23802" lon="1.86879">
        <ele>864.22</ele>
        <time>2019-04-08T13:06:44Z</time>
      </trkpt>
      <trkpt lat="42.238" lon="1.86879">
        <ele>863.244</ele>
        <time>2019-04-08T13:06:44Z</time>
      </trkpt>
      <trkpt lat="42.23798" lon="1.86878">
        <ele>862.293</ele>
        <time>2019-04-08T13:06:45Z</time>
      </trkpt>
      <trkpt lat="42.23796" lon="1.86879">
        <ele>861.995</ele>
        <time>2019-04-08T13:06:46Z</time>
      </trkpt>
      <trkpt lat="42.23794" lon="1.86877">
        <ele>860.192</ele>
        <time>2019-04-08T13:06:47Z</time>
      </trkpt>
      <trkpt lat="42.23792" lon="1.86876">
        <ele>859.873</ele>
        <time>2019-04-08T13:06:48Z</time>
      </trkpt>
      <trkpt lat="42.2379" lon="1.86876">
        <ele>859.02</ele>
        <time>2019-04-08T13:06:49Z</time>
      </trkpt>
      <trkpt lat="42.23788" lon="1.86875">
        <ele>857.208</ele>
        <time>2019-04-08T13:06:49Z</time>
      </trkpt>
      <trkpt lat="42.23787" lon="1.86874">
        <ele>857.162</ele>
        <time>2019-04-08T13:06:50Z</time>
      </trkpt>
      <trkpt lat="42.23785" lon="1.86874">
        <ele>856.364</ele>
        <time>2019-04-08T13:06:51Z</time>
      </trkpt>
      <trkpt lat="42.23783" lon="1.86874">
        <ele>855.229</ele>
        <time>2019-04-08T13:06:52Z</time>
      </trkpt>
      <trkpt lat="42.23781" lon="1.86872">
        <ele>854.29</ele>
        <time>2019-04-08T13:06:53Z</time>
      </trkpt>
      <trkpt lat="42.23779" lon="1.86869">
        <ele>854.18</ele>
        <time>2019-04-08T13:06:54Z</time>
      </trkpt>
      <trkpt lat="42.23778" lon="1.86868">
        <ele>854.224</ele>
        <time>2019-04-08T13:06:55Z</time>
      </trkpt>
      <trkpt lat="42.23775" lon="1.86866">
        <ele>853.143</ele>
        <time>2019-04-08T13:06:56Z</time>
      </trkpt>
      <trkpt lat="42.23773" lon="1.86865">
        <ele>852.195</ele>
        <time>2019-04-08T13:06:56Z</time>
      </trkpt>
      <trkpt lat="42.23771" lon="1.86866">
        <ele>851.025</ele>
        <time>2019-04-08T13:06:57Z</time>
      </trkpt>
      <trkpt lat="42.23769" lon="1.86868">
        <ele>851.026</ele>
        <time>2019-04-08T13:06:58Z</time>
      </trkpt>
      <trkpt lat="42.23766" lon="1.86872">
        <ele>850.208</ele>
        <time>2019-04-08T13:07:00Z</time>
      </trkpt>
      <trkpt lat="42.23764" lon="1.86878">
        <ele>849.708</ele>
        <time>2019-04-08T13:07:02Z</time>
      </trkpt>
      <trkpt lat="42.2376" lon="1.86885">
        <ele>847.175</ele>
        <time>2019-04-08T13:07:04Z</time>
      </trkpt>
      <trkpt lat="42.23759" lon="1.86898">
        <ele>844.187</ele>
        <time>2019-04-08T13:07:08Z</time>
      </trkpt>
      <trkpt lat="42.2376" lon="1.869">
        <ele>841.182</ele>
        <time>2019-04-08T13:07:09Z</time>
      </trkpt>
      <trkpt lat="42.23761" lon="1.86905">
        <ele>841.163</ele>
        <time>2019-04-08T13:07:11Z</time>
      </trkpt>
      <trkpt lat="42.23757" lon="1.86917">
        <ele>840.143</ele>
        <time>2019-04-08T13:07:14Z</time>
      </trkpt>
      <trkpt lat="42.23754" lon="1.8693">
        <ele>836.397</ele>
        <time>2019-04-08T13:07:18Z</time>
      </trkpt>
      <trkpt lat="42.23749" lon="1.86941">
        <ele>833.156</ele>
        <time>2019-04-08T13:07:22Z</time>
      </trkpt>
      <trkpt lat="42.23745" lon="1.86953">
        <ele>829.118</ele>
        <time>2019-04-08T13:07:26Z</time>
      </trkpt>
      <trkpt lat="42.23745" lon="1.86956">
        <ele>828.291</ele>
        <time>2019-04-08T13:07:27Z</time>
      </trkpt>
      <trkpt lat="42.23743" lon="1.86969">
        <ele>825.181</ele>
        <time>2019-04-08T13:07:31Z</time>
      </trkpt>
      <trkpt lat="42.23741" lon="1.86982">
        <ele>825.219</ele>
        <time>2019-04-08T13:07:35Z</time>
      </trkpt>
      <trkpt lat="42.23744" lon="1.86991">
        <ele>823.108</ele>
        <time>2019-04-08T13:07:38Z</time>
      </trkpt>
      <trkpt lat="42.23744" lon="1.87003">
        <ele>821.262</ele>
        <time>2019-04-08T13:07:42Z</time>
      </trkpt>
      <trkpt lat="42.2374" lon="1.87014">
        <ele>816.274</ele>
        <time>2019-04-08T13:07:45Z</time>
      </trkpt>
      <trkpt lat="42.23739" lon="1.87017">
        <ele>816.149</ele>
        <time>2019-04-08T13:07:46Z</time>
      </trkpt>
      <trkpt lat="42.23739" lon="1.87022">
        <ele>815.19</ele>
        <time>2019-04-08T13:07:48Z</time>
      </trkpt>
      <trkpt lat="42.23743" lon="1.87035">
        <ele>815.14</ele>
        <time>2019-04-08T13:07:52Z</time>
      </trkpt>
      <trkpt lat="42.23742" lon="1.87048">
        <ele>815.144</ele>
        <time>2019-04-08T13:07:56Z</time>
      </trkpt>
      <trkpt lat="42.23746" lon="1.8706">
        <ele>813.243</ele>
        <time>2019-04-08T13:08:00Z</time>
      </trkpt>
      <trkpt lat="42.23751" lon="1.87072">
        <ele>812.185</ele>
        <time>2019-04-08T13:08:04Z</time>
      </trkpt>
      <trkpt lat="42.23753" lon="1.87083">
        <ele>812.113</ele>
        <time>2019-04-08T13:08:07Z</time>
      </trkpt>
      <trkpt lat="42.23756" lon="1.87096">
        <ele>812.143</ele>
        <time>2019-04-08T13:08:11Z</time>
      </trkpt>
      <trkpt lat="42.23754" lon="1.87111">
        <ele>812.007</ele>
        <time>2019-04-08T13:08:16Z</time>
      </trkpt>
      <trkpt lat="42.23753" lon="1.87123">
        <ele>812.108</ele>
        <time>2019-04-08T13:08:19Z</time>
      </trkpt>
      <trkpt lat="42.23756" lon="1.87136">
        <ele>811.194</ele>
        <time>2019-04-08T13:08:23Z</time>
      </trkpt>
      <trkpt lat="42.23756" lon="1.87139">
        <ele>811.216</ele>
        <time>2019-04-08T13:08:24Z</time>
      </trkpt>
      <trkpt lat="42.23755" lon="1.87141">
        <ele>811.161</ele>
        <time>2019-04-08T13:08:25Z</time>
      </trkpt>
      <trkpt lat="42.23755" lon="1.87143">
        <ele>811.192</ele>
        <time>2019-04-08T13:08:26Z</time>
      </trkpt>
      <trkpt lat="42.23754" lon="1.87148">
        <ele>811.242</ele>
        <time>2019-04-08T13:08:27Z</time>
      </trkpt>
      <trkpt lat="42.23754" lon="1.87151">
        <ele>811.256</ele>
        <time>2019-04-08T13:08:28Z</time>
      </trkpt>
      <trkpt lat="42.23755" lon="1.87154">
        <ele>811.015</ele>
        <time>2019-04-08T13:08:29Z</time>
      </trkpt>
      <trkpt lat="42.23757" lon="1.87156">
        <ele>810.197</ele>
        <time>2019-04-08T13:08:30Z</time>
      </trkpt>
      <trkpt lat="42.23758" lon="1.87158">
        <ele>810.137</ele>
        <time>2019-04-08T13:08:31Z</time>
      </trkpt>
      <trkpt lat="42.23758" lon="1.87161">
        <ele>810.049</ele>
        <time>2019-04-08T13:08:31Z</time>
      </trkpt>
      <trkpt lat="42.23759" lon="1.87164">
        <ele>810.213</ele>
        <time>2019-04-08T13:08:32Z</time>
      </trkpt>
      <trkpt lat="42.23759" lon="1.87168">
        <ele>810.308</ele>
        <time>2019-04-08T13:08:33Z</time>
      </trkpt>
      <trkpt lat="42.2376" lon="1.87171">
        <ele>810.296</ele>
        <time>2019-04-08T13:08:34Z</time>
      </trkpt>
      <trkpt lat="42.23761" lon="1.87175">
        <ele>810.278</ele>
        <time>2019-04-08T13:08:36Z</time>
      </trkpt>
      <trkpt lat="42.23761" lon="1.87178">
        <ele>810.163</ele>
        <time>2019-04-08T13:08:37Z</time>
      </trkpt>
      <trkpt lat="42.23761" lon="1.87182">
        <ele>810.164</ele>
        <time>2019-04-08T13:08:38Z</time>
      </trkpt>
      <trkpt lat="42.2376" lon="1.87185">
        <ele>810.274</ele>
        <time>2019-04-08T13:08:39Z</time>
      </trkpt>
      <trkpt lat="42.23759" lon="1.87189">
        <ele>810.188</ele>
        <time>2019-04-08T13:08:40Z</time>
      </trkpt>
      <trkpt lat="42.23759" lon="1.87194">
        <ele>810.277</ele>
        <time>2019-04-08T13:08:41Z</time>
      </trkpt>
      <trkpt lat="42.23758" lon="1.87196">
        <ele>810.219</ele>
        <time>2019-04-08T13:08:42Z</time>
      </trkpt>
      <trkpt lat="42.23757" lon="1.87198">
        <ele>810.051</ele>
        <time>2019-04-08T13:08:43Z</time>
      </trkpt>
      <trkpt lat="42.23757" lon="1.87201">
        <ele>810.201</ele>
        <time>2019-04-08T13:08:44Z</time>
      </trkpt>
      <trkpt lat="42.23756" lon="1.87203">
        <ele>809.811</ele>
        <time>2019-04-08T13:08:44Z</time>
      </trkpt>
      <trkpt lat="42.23755" lon="1.87206">
        <ele>809.108</ele>
        <time>2019-04-08T13:08:45Z</time>
      </trkpt>
      <trkpt lat="42.23753" lon="1.87209">
        <ele>809.058</ele>
        <time>2019-04-08T13:08:46Z</time>
      </trkpt>
      <trkpt lat="42.23752" lon="1.87213">
        <ele>809.33</ele>
        <time>2019-04-08T13:08:48Z</time>
      </trkpt>
      <trkpt lat="42.2375" lon="1.87215">
        <ele>808.115</ele>
        <time>2019-04-08T13:08:49Z</time>
      </trkpt>
      <trkpt lat="42.23749" lon="1.87217">
        <ele>808.136</ele>
        <time>2019-04-08T13:08:49Z</time>
      </trkpt>
      <trkpt lat="42.23747" lon="1.87219">
        <ele>808.386</ele>
        <time>2019-04-08T13:08:50Z</time>
      </trkpt>
      <trkpt lat="42.23745" lon="1.87221">
        <ele>807.22</ele>
        <time>2019-04-08T13:08:51Z</time>
      </trkpt>
      <trkpt lat="42.23744" lon="1.87223">
        <ele>807.229</ele>
        <time>2019-04-08T13:08:52Z</time>
      </trkpt>
      <trkpt lat="42.23737" lon="1.87231">
        <ele>807.051</ele>
        <time>2019-04-08T13:08:56Z</time>
      </trkpt>
      <trkpt lat="42.23733" lon="1.87237">
        <ele>807.085</ele>
        <time>2019-04-08T13:08:58Z</time>
      </trkpt>
      <trkpt lat="42.2373" lon="1.8724">
        <ele>808.189</ele>
        <time>2019-04-08T13:09:00Z</time>
      </trkpt>
      <trkpt lat="42.23723" lon="1.87249">
        <ele>808.217</ele>
        <time>2019-04-08T13:09:03Z</time>
      </trkpt>
      <trkpt lat="42.23721" lon="1.87252">
        <ele>808.108</ele>
        <time>2019-04-08T13:09:05Z</time>
      </trkpt>
      <trkpt lat="42.23717" lon="1.87255">
        <ele>808.231</ele>
        <time>2019-04-08T13:09:06Z</time>
      </trkpt>
      <trkpt lat="42.23714" lon="1.87257">
        <ele>808.273</ele>
        <time>2019-04-08T13:09:08Z</time>
      </trkpt>
      <trkpt lat="42.23712" lon="1.87259">
        <ele>808.058</ele>
        <time>2019-04-08T13:09:09Z</time>
      </trkpt>
      <trkpt lat="42.23709" lon="1.87261">
        <ele>808.299</ele>
        <time>2019-04-08T13:09:10Z</time>
      </trkpt>
      <trkpt lat="42.23704" lon="1.87265">
        <ele>808.229</ele>
        <time>2019-04-08T13:09:12Z</time>
      </trkpt>
      <trkpt lat="42.23697" lon="1.87275">
        <ele>808.263</ele>
        <time>2019-04-08T13:09:17Z</time>
      </trkpt>
      <trkpt lat="42.23694" lon="1.87277">
        <ele>808.262</ele>
        <time>2019-04-08T13:09:18Z</time>
      </trkpt>
      <trkpt lat="42.23693" lon="1.87279">
        <ele>808.264</ele>
        <time>2019-04-08T13:09:18Z</time>
      </trkpt>
      <trkpt lat="42.23691" lon="1.87281">
        <ele>808.216</ele>
        <time>2019-04-08T13:09:19Z</time>
      </trkpt>
      <trkpt lat="42.23689" lon="1.87284">
        <ele>808.276</ele>
        <time>2019-04-08T13:09:21Z</time>
      </trkpt>
      <trkpt lat="42.23687" lon="1.87288">
        <ele>808.113</ele>
        <time>2019-04-08T13:09:22Z</time>
      </trkpt>
      <trkpt lat="42.23682" lon="1.87298">
        <ele>808.108</ele>
        <time>2019-04-08T13:09:26Z</time>
      </trkpt>
      <trkpt lat="42.23676" lon="1.8731">
        <ele>808.224</ele>
        <time>2019-04-08T13:09:30Z</time>
      </trkpt>
      <trkpt lat="42.23673" lon="1.87316">
        <ele>808.146</ele>
        <time>2019-04-08T13:09:32Z</time>
      </trkpt>
      <trkpt lat="42.23671" lon="1.8732">
        <ele>808.191</ele>
        <time>2019-04-08T13:09:33Z</time>
      </trkpt>
      <trkpt lat="42.2367" lon="1.87327">
        <ele>807.292</ele>
        <time>2019-04-08T13:09:36Z</time>
      </trkpt>
      <trkpt lat="42.23668" lon="1.8734">
        <ele>807.052</ele>
        <time>2019-04-08T13:09:40Z</time>
      </trkpt>
      <trkpt lat="42.23664" lon="1.87354">
        <ele>807.126</ele>
        <time>2019-04-08T13:09:44Z</time>
      </trkpt>
      <trkpt lat="42.23664" lon="1.87357">
        <ele>807.225</ele>
        <time>2019-04-08T13:09:45Z</time>
      </trkpt>
      <trkpt lat="42.23663" lon="1.87359">
        <ele>807.267</ele>
        <time>2019-04-08T13:09:46Z</time>
      </trkpt>
      <trkpt lat="42.23663" lon="1.87362">
        <ele>806.111</ele>
        <time>2019-04-08T13:09:46Z</time>
      </trkpt>
      <trkpt lat="42.23661" lon="1.87365">
        <ele>806.021</ele>
        <time>2019-04-08T13:09:47Z</time>
      </trkpt>
      <trkpt lat="42.2366" lon="1.87368">
        <ele>806.203</ele>
        <time>2019-04-08T13:09:48Z</time>
      </trkpt>
      <trkpt lat="42.23659" lon="1.87371">
        <ele>806.308</ele>
        <time>2019-04-08T13:09:49Z</time>
      </trkpt>
      <trkpt lat="42.23658" lon="1.87373">
        <ele>806.174</ele>
        <time>2019-04-08T13:09:50Z</time>
      </trkpt>
      <trkpt lat="42.23657" lon="1.87376">
        <ele>806.136</ele>
        <time>2019-04-08T13:09:51Z</time>
      </trkpt>
      <trkpt lat="42.23656" lon="1.87379">
        <ele>805.151</ele>
        <time>2019-04-08T13:09:52Z</time>
      </trkpt>
      <trkpt lat="42.23655" lon="1.87381">
        <ele>804.282</ele>
        <time>2019-04-08T13:09:53Z</time>
      </trkpt>
      <trkpt lat="42.23653" lon="1.87384">
        <ele>804.152</ele>
        <time>2019-04-08T13:09:54Z</time>
      </trkpt>
      <trkpt lat="42.23652" lon="1.87387">
        <ele>804.236</ele>
        <time>2019-04-08T13:09:55Z</time>
      </trkpt>
      <trkpt lat="42.23651" lon="1.8739">
        <ele>804.165</ele>
        <time>2019-04-08T13:09:56Z</time>
      </trkpt>
      <trkpt lat="42.23649" lon="1.87393">
        <ele>804.177</ele>
        <time>2019-04-08T13:09:57Z</time>
      </trkpt>
      <trkpt lat="42.23647" lon="1.87396">
        <ele>804.025</ele>
        <time>2019-04-08T13:09:58Z</time>
      </trkpt>
      <trkpt lat="42.23645" lon="1.87399">
        <ele>803.126</ele>
        <time>2019-04-08T13:09:59Z</time>
      </trkpt>
      <trkpt lat="42.23643" lon="1.874">
        <ele>803.208</ele>
        <time>2019-04-08T13:10:00Z</time>
      </trkpt>
      <trkpt lat="42.23642" lon="1.87403">
        <ele>802.108</ele>
        <time>2019-04-08T13:10:01Z</time>
      </trkpt>
      <trkpt lat="42.23641" lon="1.87405">
        <ele>802.085</ele>
        <time>2019-04-08T13:10:02Z</time>
      </trkpt>
      <trkpt lat="42.23639" lon="1.87408">
        <ele>800.777</ele>
        <time>2019-04-08T13:10:03Z</time>
      </trkpt>
      <trkpt lat="42.23637" lon="1.8741">
        <ele>800.142</ele>
        <time>2019-04-08T13:10:04Z</time>
      </trkpt>
      <trkpt lat="42.23634" lon="1.87413">
        <ele>800.273</ele>
        <time>2019-04-08T13:10:06Z</time>
      </trkpt>
      <trkpt lat="42.23632" lon="1.87415">
        <ele>799.133</ele>
        <time>2019-04-08T13:10:07Z</time>
      </trkpt>
      <trkpt lat="42.2363" lon="1.87417">
        <ele>799.347</ele>
        <time>2019-04-08T13:10:08Z</time>
      </trkpt>
      <trkpt lat="42.23628" lon="1.87419">
        <ele>799.256</ele>
        <time>2019-04-08T13:10:09Z</time>
      </trkpt>
      <trkpt lat="42.23626" lon="1.87421">
        <ele>798.058</ele>
        <time>2019-04-08T13:10:10Z</time>
      </trkpt>
      <trkpt lat="42.23625" lon="1.87423">
        <ele>798.114</ele>
        <time>2019-04-08T13:10:10Z</time>
      </trkpt>
      <trkpt lat="42.23623" lon="1.87425">
        <ele>798.254</ele>
        <time>2019-04-08T13:10:11Z</time>
      </trkpt>
      <trkpt lat="42.23622" lon="1.87427">
        <ele>797.109</ele>
        <time>2019-04-08T13:10:12Z</time>
      </trkpt>
      <trkpt lat="42.2362" lon="1.87429">
        <ele>796.108</ele>
        <time>2019-04-08T13:10:13Z</time>
      </trkpt>
      <trkpt lat="42.23618" lon="1.87432">
        <ele>795.224</ele>
        <time>2019-04-08T13:10:14Z</time>
      </trkpt>
      <trkpt lat="42.23617" lon="1.87435">
        <ele>795.136</ele>
        <time>2019-04-08T13:10:15Z</time>
      </trkpt>
      <trkpt lat="42.23615" lon="1.87437">
        <ele>795.261</ele>
        <time>2019-04-08T13:10:16Z</time>
      </trkpt>
      <trkpt lat="42.23614" lon="1.8744">
        <ele>795.122</ele>
        <time>2019-04-08T13:10:17Z</time>
      </trkpt>
      <trkpt lat="42.23612" lon="1.87442">
        <ele>795.162</ele>
        <time>2019-04-08T13:10:18Z</time>
      </trkpt>
      <trkpt lat="42.23611" lon="1.87445">
        <ele>794.136</ele>
        <time>2019-04-08T13:10:19Z</time>
      </trkpt>
      <trkpt lat="42.23609" lon="1.87447">
        <ele>794.225</ele>
        <time>2019-04-08T13:10:20Z</time>
      </trkpt>
      <trkpt lat="42.23608" lon="1.87449">
        <ele>794.197</ele>
        <time>2019-04-08T13:10:21Z</time>
      </trkpt>
      <trkpt lat="42.23607" lon="1.87452">
        <ele>794.169</ele>
        <time>2019-04-08T13:10:22Z</time>
      </trkpt>
      <trkpt lat="42.23605" lon="1.87455">
        <ele>794.004</ele>
        <time>2019-04-08T13:10:23Z</time>
      </trkpt>
      <trkpt lat="42.23603" lon="1.87457">
        <ele>794.324</ele>
        <time>2019-04-08T13:10:24Z</time>
      </trkpt>
      <trkpt lat="42.23601" lon="1.87459">
        <ele>794.208</ele>
        <time>2019-04-08T13:10:25Z</time>
      </trkpt>
      <trkpt lat="42.23599" lon="1.87461">
        <ele>793.289</ele>
        <time>2019-04-08T13:10:26Z</time>
      </trkpt>
      <trkpt lat="42.23596" lon="1.87464">
        <ele>793.381</ele>
        <time>2019-04-08T13:10:27Z</time>
      </trkpt>
      <trkpt lat="42.23595" lon="1.87466">
        <ele>793.126</ele>
        <time>2019-04-08T13:10:28Z</time>
      </trkpt>
      <trkpt lat="42.23593" lon="1.87468">
        <ele>792.147</ele>
        <time>2019-04-08T13:10:29Z</time>
      </trkpt>
      <trkpt lat="42.2359" lon="1.8747">
        <ele>792.217</ele>
        <time>2019-04-08T13:10:30Z</time>
      </trkpt>
      <trkpt lat="42.23588" lon="1.87472">
        <ele>792.221</ele>
        <time>2019-04-08T13:10:31Z</time>
      </trkpt>
      <trkpt lat="42.23585" lon="1.87474">
        <ele>791.11</ele>
        <time>2019-04-08T13:10:32Z</time>
      </trkpt>
      <trkpt lat="42.23583" lon="1.87477">
        <ele>790.272</ele>
        <time>2019-04-08T13:10:34Z</time>
      </trkpt>
      <trkpt lat="42.23581" lon="1.87479">
        <ele>790.118</ele>
        <time>2019-04-08T13:10:35Z</time>
      </trkpt>
      <trkpt lat="42.23579" lon="1.87481">
        <ele>790.298</ele>
        <time>2019-04-08T13:10:36Z</time>
      </trkpt>
      <trkpt lat="42.23577" lon="1.87484">
        <ele>790.317</ele>
        <time>2019-04-08T13:10:37Z</time>
      </trkpt>
      <trkpt lat="42.23575" lon="1.87486">
        <ele>790.208</ele>
        <time>2019-04-08T13:10:38Z</time>
      </trkpt>
      <trkpt lat="42.23573" lon="1.87487">
        <ele>789.344</ele>
        <time>2019-04-08T13:10:39Z</time>
      </trkpt>
      <trkpt lat="42.23571" lon="1.87489">
        <ele>789.216</ele>
        <time>2019-04-08T13:10:40Z</time>
      </trkpt>
      <trkpt lat="42.23569" lon="1.8749">
        <ele>789.231</ele>
        <time>2019-04-08T13:10:40Z</time>
      </trkpt>
      <trkpt lat="42.23567" lon="1.87493">
        <ele>789.172</ele>
        <time>2019-04-08T13:10:42Z</time>
      </trkpt>
      <trkpt lat="42.23564" lon="1.87494">
        <ele>789.282</ele>
        <time>2019-04-08T13:10:43Z</time>
      </trkpt>
      <trkpt lat="42.23562" lon="1.87495">
        <ele>789.176</ele>
        <time>2019-04-08T13:10:44Z</time>
      </trkpt>
      <trkpt lat="42.23559" lon="1.87496">
        <ele>789.225</ele>
        <time>2019-04-08T13:10:45Z</time>
      </trkpt>
      <trkpt lat="42.23556" lon="1.87498">
        <ele>789.097</ele>
        <time>2019-04-08T13:10:46Z</time>
      </trkpt>
      <trkpt lat="42.23555" lon="1.87499">
        <ele>789.151</ele>
        <time>2019-04-08T13:10:47Z</time>
      </trkpt>
      <trkpt lat="42.23551" lon="1.87507">
        <ele>789.101</ele>
        <time>2019-04-08T13:10:50Z</time>
      </trkpt>
      <trkpt lat="42.2355" lon="1.8751">
        <ele>788.211</ele>
        <time>2019-04-08T13:10:51Z</time>
      </trkpt>
      <trkpt lat="42.23548" lon="1.87513">
        <ele>788.208</ele>
        <time>2019-04-08T13:10:52Z</time>
      </trkpt>
      <trkpt lat="42.23548" lon="1.87516">
        <ele>788.198</ele>
        <time>2019-04-08T13:10:53Z</time>
      </trkpt>
      <trkpt lat="42.23547" lon="1.87518">
        <ele>788.32</ele>
        <time>2019-04-08T13:10:53Z</time>
      </trkpt>
      <trkpt lat="42.23547" lon="1.87521">
        <ele>788.175</ele>
        <time>2019-04-08T13:10:54Z</time>
      </trkpt>
      <trkpt lat="42.23546" lon="1.87524">
        <ele>788.196</ele>
        <time>2019-04-08T13:10:55Z</time>
      </trkpt>
      <trkpt lat="42.23545" lon="1.87526">
        <ele>788.256</ele>
        <time>2019-04-08T13:10:56Z</time>
      </trkpt>
      <trkpt lat="42.23545" lon="1.87528">
        <ele>787.31</ele>
        <time>2019-04-08T13:10:57Z</time>
      </trkpt>
      <trkpt lat="42.23547" lon="1.8753">
        <ele>786.269</ele>
        <time>2019-04-08T13:10:58Z</time>
      </trkpt>
      <trkpt lat="42.23549" lon="1.8753">
        <ele>786.181</ele>
        <time>2019-04-08T13:10:58Z</time>
      </trkpt>
      <trkpt lat="42.23551" lon="1.87528">
        <ele>785.269</ele>
        <time>2019-04-08T13:10:59Z</time>
      </trkpt>
      <trkpt lat="42.23553" lon="1.87527">
        <ele>784.004</ele>
        <time>2019-04-08T13:11:00Z</time>
      </trkpt>
      <trkpt lat="42.23555" lon="1.87527">
        <ele>783.324</ele>
        <time>2019-04-08T13:11:01Z</time>
      </trkpt>
      <trkpt lat="42.23557" lon="1.87526">
        <ele>783.308</ele>
        <time>2019-04-08T13:11:02Z</time>
      </trkpt>
      <trkpt lat="42.23559" lon="1.87525">
        <ele>783.179</ele>
        <time>2019-04-08T13:11:02Z</time>
      </trkpt>
      <trkpt lat="42.2356" lon="1.87524">
        <ele>782.241</ele>
        <time>2019-04-08T13:11:03Z</time>
      </trkpt>
      <trkpt lat="42.23562" lon="1.87523">
        <ele>781.146</ele>
        <time>2019-04-08T13:11:04Z</time>
      </trkpt>
      <trkpt lat="42.23564" lon="1.87522">
        <ele>780.147</ele>
        <time>2019-04-08T13:11:05Z</time>
      </trkpt>
      <trkpt lat="42.23565" lon="1.87519">
        <ele>779.277</ele>
        <time>2019-04-08T13:11:06Z</time>
      </trkpt>
      <trkpt lat="42.23567" lon="1.87517">
        <ele>778.281</ele>
        <time>2019-04-08T13:11:07Z</time>
      </trkpt>
      <trkpt lat="42.23569" lon="1.87516">
        <ele>778.04</ele>
        <time>2019-04-08T13:11:07Z</time>
      </trkpt>
      <trkpt lat="42.23571" lon="1.87515">
        <ele>778.172</ele>
        <time>2019-04-08T13:11:08Z</time>
      </trkpt>
      <trkpt lat="42.23573" lon="1.87513">
        <ele>778.252</ele>
        <time>2019-04-08T13:11:09Z</time>
      </trkpt>
      <trkpt lat="42.23575" lon="1.87512">
        <ele>775.053</ele>
        <time>2019-04-08T13:11:10Z</time>
      </trkpt>
      <trkpt lat="42.23575" lon="1.87514">
        <ele>774.308</ele>
        <time>2019-04-08T13:11:11Z</time>
      </trkpt>
      <trkpt lat="42.23576" lon="1.87516">
        <ele>774.208</ele>
        <time>2019-04-08T13:11:12Z</time>
      </trkpt>
      <trkpt lat="42.23577" lon="1.87518">
        <ele>773.378</ele>
        <time>2019-04-08T13:11:13Z</time>
      </trkpt>
      <trkpt lat="42.23579" lon="1.87519">
        <ele>772.11</ele>
        <time>2019-04-08T13:11:13Z</time>
      </trkpt>
      <trkpt lat="42.23582" lon="1.8752">
        <ele>772.255</ele>
        <time>2019-04-08T13:11:15Z</time>
      </trkpt>
      <trkpt lat="42.23585" lon="1.87521">
        <ele>771.116</ele>
        <time>2019-04-08T13:11:16Z</time>
      </trkpt>
      <trkpt lat="42.23587" lon="1.87521">
        <ele>771.156</ele>
        <time>2019-04-08T13:11:17Z</time>
      </trkpt>
      <trkpt lat="42.23589" lon="1.87521">
        <ele>770.15</ele>
        <time>2019-04-08T13:11:18Z</time>
      </trkpt>
      <trkpt lat="42.23591" lon="1.87522">
        <ele>770.229</ele>
        <time>2019-04-08T13:11:18Z</time>
      </trkpt>
      <trkpt lat="42.23593" lon="1.87523">
        <ele>768.081</ele>
        <time>2019-04-08T13:11:19Z</time>
      </trkpt>
      <trkpt lat="42.23595" lon="1.87525">
        <ele>766.072</ele>
        <time>2019-04-08T13:11:20Z</time>
      </trkpt>
      <trkpt lat="42.23597" lon="1.87526">
        <ele>766.113</ele>
        <time>2019-04-08T13:11:21Z</time>
      </trkpt>
      <trkpt lat="42.23599" lon="1.87527">
        <ele>765.114</ele>
        <time>2019-04-08T13:11:22Z</time>
      </trkpt>
      <trkpt lat="42.236" lon="1.87528">
        <ele>764.108</ele>
        <time>2019-04-08T13:11:23Z</time>
      </trkpt>
      <trkpt lat="42.23602" lon="1.87529">
        <ele>763.26</ele>
        <time>2019-04-08T13:11:23Z</time>
      </trkpt>
      <trkpt lat="42.23604" lon="1.87527">
        <ele>763.292</ele>
        <time>2019-04-08T13:11:24Z</time>
      </trkpt>
      <trkpt lat="42.23606" lon="1.87526">
        <ele>763.227</ele>
        <time>2019-04-08T13:11:25Z</time>
      </trkpt>
      <trkpt lat="42.23608" lon="1.87525">
        <ele>762.188</ele>
        <time>2019-04-08T13:11:26Z</time>
      </trkpt>
      <trkpt lat="42.23609" lon="1.87523">
        <ele>761.268</ele>
        <time>2019-04-08T13:11:27Z</time>
      </trkpt>
      <trkpt lat="42.2361" lon="1.87521">
        <ele>761.222</ele>
        <time>2019-04-08T13:11:27Z</time>
      </trkpt>
      <trkpt lat="42.23612" lon="1.8752">
        <ele>761.121</ele>
        <time>2019-04-08T13:11:28Z</time>
      </trkpt>
      <trkpt lat="42.23614" lon="1.87517">
        <ele>760.113</ele>
        <time>2019-04-08T13:11:29Z</time>
      </trkpt>
      <trkpt lat="42.23615" lon="1.87515">
        <ele>759.179</ele>
        <time>2019-04-08T13:11:30Z</time>
      </trkpt>
      <trkpt lat="42.23616" lon="1.87513">
        <ele>758.905</ele>
        <time>2019-04-08T13:11:31Z</time>
      </trkpt>
      <trkpt lat="42.23618" lon="1.87512">
        <ele>757.125</ele>
        <time>2019-04-08T13:11:31Z</time>
      </trkpt>
      <trkpt lat="42.2362" lon="1.8751">
        <ele>757.208</ele>
        <time>2019-04-08T13:11:32Z</time>
      </trkpt>
      <trkpt lat="42.23621" lon="1.87509">
        <ele>757.19</ele>
        <time>2019-04-08T13:11:33Z</time>
      </trkpt>
      <trkpt lat="42.23624" lon="1.87508">
        <ele>756.062</ele>
        <time>2019-04-08T13:11:34Z</time>
      </trkpt>
      <trkpt lat="42.23634" lon="1.87503">
        <ele>755.227</ele>
        <time>2019-04-08T13:11:38Z</time>
      </trkpt>
      <trkpt lat="42.23635" lon="1.87501">
        <ele>754.248</ele>
        <time>2019-04-08T13:11:39Z</time>
      </trkpt>
      <trkpt lat="42.23635" lon="1.87499">
        <ele>753.028</ele>
        <time>2019-04-08T13:11:40Z</time>
      </trkpt>
      <trkpt lat="42.23629" lon="1.87506">
        <ele>751.332</ele>
        <time>2019-04-08T13:11:43Z</time>
      </trkpt>
      <trkpt lat="42.23627" lon="1.87509">
        <ele>751.281</ele>
        <time>2019-04-08T13:11:44Z</time>
      </trkpt>
      <trkpt lat="42.23625" lon="1.87512">
        <ele>751.043</ele>
        <time>2019-04-08T13:11:45Z</time>
      </trkpt>
      <trkpt lat="42.23624" lon="1.87516">
        <ele>750.221</ele>
        <time>2019-04-08T13:11:47Z</time>
      </trkpt>
      <trkpt lat="42.2362" lon="1.87523">
        <ele>750.241</ele>
        <time>2019-04-08T13:11:49Z</time>
      </trkpt>
      <trkpt lat="42.23619" lon="1.87526">
        <ele>750.105</ele>
        <time>2019-04-08T13:11:50Z</time>
      </trkpt>
      <trkpt lat="42.23618" lon="1.87529">
        <ele>749.308</ele>
        <time>2019-04-08T13:11:51Z</time>
      </trkpt>
      <trkpt lat="42.23618" lon="1.87532">
        <ele>748.225</ele>
        <time>2019-04-08T13:11:52Z</time>
      </trkpt>
      <trkpt lat="42.23618" lon="1.87535">
        <ele>748.287</ele>
        <time>2019-04-08T13:11:53Z</time>
      </trkpt>
      <trkpt lat="42.23617" lon="1.87538">
        <ele>748.132</ele>
        <time>2019-04-08T13:11:54Z</time>
      </trkpt>
      <trkpt lat="42.23614" lon="1.87552">
        <ele>747.053</ele>
        <time>2019-04-08T13:11:58Z</time>
      </trkpt>
      <trkpt lat="42.23612" lon="1.87554">
        <ele>747.153</ele>
        <time>2019-04-08T13:11:59Z</time>
      </trkpt>
      <trkpt lat="42.23611" lon="1.87556">
        <ele>747.157</ele>
        <time>2019-04-08T13:12:00Z</time>
      </trkpt>
      <trkpt lat="42.2361" lon="1.87558">
        <ele>747.176</ele>
        <time>2019-04-08T13:12:01Z</time>
      </trkpt>
      <trkpt lat="42.23608" lon="1.87561">
        <ele>747.128</ele>
        <time>2019-04-08T13:12:02Z</time>
      </trkpt>
      <trkpt lat="42.23606" lon="1.87564">
        <ele>747.048</ele>
        <time>2019-04-08T13:12:03Z</time>
      </trkpt>
      <trkpt lat="42.23601" lon="1.87569">
        <ele>747.061</ele>
        <time>2019-04-08T13:12:06Z</time>
      </trkpt>
      <trkpt lat="42.23599" lon="1.87571">
        <ele>747.117</ele>
        <time>2019-04-08T13:12:07Z</time>
      </trkpt>
      <trkpt lat="42.23596" lon="1.87571">
        <ele>747.108</ele>
        <time>2019-04-08T13:12:08Z</time>
      </trkpt>
      <trkpt lat="42.23594" lon="1.87573">
        <ele>747.057</ele>
        <time>2019-04-08T13:12:09Z</time>
      </trkpt>
      <trkpt lat="42.23592" lon="1.87574">
        <ele>747.339</ele>
        <time>2019-04-08T13:12:09Z</time>
      </trkpt>
      <trkpt lat="42.2359" lon="1.87576">
        <ele>747.054</ele>
        <time>2019-04-08T13:12:10Z</time>
      </trkpt>
      <trkpt lat="42.23585" lon="1.8758">
        <ele>747.175</ele>
        <time>2019-04-08T13:12:13Z</time>
      </trkpt>
      <trkpt lat="42.23581" lon="1.87583">
        <ele>747.355</ele>
        <time>2019-04-08T13:12:14Z</time>
      </trkpt>
      <trkpt lat="42.23579" lon="1.87585">
        <ele>747.359</ele>
        <time>2019-04-08T13:12:16Z</time>
      </trkpt>
      <trkpt lat="42.23577" lon="1.87587">
        <ele>747.118</ele>
        <time>2019-04-08T13:12:17Z</time>
      </trkpt>
      <trkpt lat="42.23573" lon="1.8759">
        <ele>747.03</ele>
        <time>2019-04-08T13:12:18Z</time>
      </trkpt>
      <trkpt lat="42.23565" lon="1.87598">
        <ele>747.135</ele>
        <time>2019-04-08T13:12:22Z</time>
      </trkpt>
      <trkpt lat="42.23556" lon="1.87605">
        <ele>747.286</ele>
        <time>2019-04-08T13:12:26Z</time>
      </trkpt>
      <trkpt lat="42.23549" lon="1.87615">
        <ele>747.114</ele>
        <time>2019-04-08T13:12:30Z</time>
      </trkpt>
      <trkpt lat="42.2354" lon="1.87626">
        <ele>747.208</ele>
        <time>2019-04-08T13:12:35Z</time>
      </trkpt>
      <trkpt lat="42.23531" lon="1.87631">
        <ele>747.346</ele>
        <time>2019-04-08T13:12:39Z</time>
      </trkpt>
      <trkpt lat="42.23521" lon="1.87635">
        <ele>747.258</ele>
        <time>2019-04-08T13:12:44Z</time>
      </trkpt>
      <trkpt lat="42.23512" lon="1.87641">
        <ele>746.213</ele>
        <time>2019-04-08T13:12:47Z</time>
      </trkpt>
      <trkpt lat="42.23503" lon="1.87649">
        <ele>747.064</ele>
        <time>2019-04-08T13:12:52Z</time>
      </trkpt>
      <trkpt lat="42.23493" lon="1.87656">
        <ele>747.184</ele>
        <time>2019-04-08T13:12:56Z</time>
      </trkpt>
      <trkpt lat="42.23483" lon="1.87657">
        <ele>746.118</ele>
        <time>2019-04-08T13:13:00Z</time>
      </trkpt>
      <trkpt lat="42.2348" lon="1.87657">
        <ele>746.197</ele>
        <time>2019-04-08T13:13:02Z</time>
      </trkpt>
      <trkpt lat="42.23474" lon="1.87667">
        <ele>746.299</ele>
        <time>2019-04-08T13:13:05Z</time>
      </trkpt>
      <trkpt lat="42.23464" lon="1.87664">
        <ele>746.076</ele>
        <time>2019-04-08T13:13:09Z</time>
      </trkpt>
      <trkpt lat="42.23464" lon="1.87667">
        <ele>745.29</ele>
        <time>2019-04-08T13:13:10Z</time>
      </trkpt>
      <trkpt lat="42.2346" lon="1.87678">
        <ele>745.119</ele>
        <time>2019-04-08T13:13:14Z</time>
      </trkpt>
      <trkpt lat="42.23454" lon="1.87688">
        <ele>745.108</ele>
        <time>2019-04-08T13:13:18Z</time>
      </trkpt>
      <trkpt lat="42.23442" lon="1.87698">
        <ele>745.28</ele>
        <time>2019-04-08T13:13:23Z</time>
      </trkpt>
      <trkpt lat="42.23433" lon="1.87692">
        <ele>744.362</ele>
        <time>2019-04-08T13:13:27Z</time>
      </trkpt>
      <trkpt lat="42.23431" lon="1.87694">
        <ele>744.147</ele>
        <time>2019-04-08T13:13:28Z</time>
      </trkpt>
      <trkpt lat="42.23429" lon="1.87697">
        <ele>744.198</ele>
        <time>2019-04-08T13:13:29Z</time>
      </trkpt>
      <trkpt lat="42.23428" lon="1.87701">
        <ele>744.278</ele>
        <time>2019-04-08T13:13:31Z</time>
      </trkpt>
      <trkpt lat="42.23425" lon="1.87712">
        <ele>743.162</ele>
        <time>2019-04-08T13:13:34Z</time>
      </trkpt>
      <trkpt lat="42.23427" lon="1.87725">
        <ele>743.171</ele>
        <time>2019-04-08T13:13:38Z</time>
      </trkpt>
      <trkpt lat="42.23423" lon="1.87737">
        <ele>743.053</ele>
        <time>2019-04-08T13:13:42Z</time>
      </trkpt>
      <trkpt lat="42.23417" lon="1.87747">
        <ele>743.179</ele>
        <time>2019-04-08T13:13:46Z</time>
      </trkpt>
      <trkpt lat="42.2341" lon="1.87757">
        <ele>741.105</ele>
        <time>2019-04-08T13:13:50Z</time>
      </trkpt>
      <trkpt lat="42.23401" lon="1.87768">
        <ele>741.125</ele>
        <time>2019-04-08T13:13:55Z</time>
      </trkpt>
      <trkpt lat="42.23392" lon="1.87777">
        <ele>741.108</ele>
        <time>2019-04-08T13:13:59Z</time>
      </trkpt>
      <trkpt lat="42.23392" lon="1.8778">
        <ele>741.05</ele>
        <time>2019-04-08T13:14:00Z</time>
      </trkpt>
      <trkpt lat="42.23392" lon="1.87784">
        <ele>741.382</ele>
        <time>2019-04-08T13:14:02Z</time>
      </trkpt>
      <trkpt lat="42.23392" lon="1.87791">
        <ele>741.297</ele>
        <time>2019-04-08T13:14:04Z</time>
      </trkpt>
      <trkpt lat="42.2339" lon="1.87796">
        <ele>741.148</ele>
        <time>2019-04-08T13:14:05Z</time>
      </trkpt>
      <trkpt lat="42.23388" lon="1.87803">
        <ele>741.178</ele>
        <time>2019-04-08T13:14:07Z</time>
      </trkpt>
      <trkpt lat="42.23384" lon="1.87815">
        <ele>741.362</ele>
        <time>2019-04-08T13:14:11Z</time>
      </trkpt>
      <trkpt lat="42.23382" lon="1.87828">
        <ele>741.251</ele>
        <time>2019-04-08T13:14:15Z</time>
      </trkpt>
      <trkpt lat="42.23381" lon="1.87831">
        <ele>741.183</ele>
        <time>2019-04-08T13:14:16Z</time>
      </trkpt>
      <trkpt lat="42.23381" lon="1.87834">
        <ele>741.016</ele>
        <time>2019-04-08T13:14:17Z</time>
      </trkpt>
      <trkpt lat="42.23381" lon="1.87837">
        <ele>741.176</ele>
        <time>2019-04-08T13:14:18Z</time>
      </trkpt>
      <trkpt lat="42.2338" lon="1.87843">
        <ele>741.013</ele>
        <time>2019-04-08T13:14:20Z</time>
      </trkpt>
      <trkpt lat="42.23379" lon="1.87851">
        <ele>741.008</ele>
        <time>2019-04-08T13:14:22Z</time>
      </trkpt>
      <trkpt lat="42.23378" lon="1.87864">
        <ele>741.154</ele>
        <time>2019-04-08T13:14:26Z</time>
      </trkpt>
      <trkpt lat="42.23379" lon="1.87876">
        <ele>741.166</ele>
        <time>2019-04-08T13:14:30Z</time>
      </trkpt>
      <trkpt lat="42.23378" lon="1.8789">
        <ele>741.191</ele>
        <time>2019-04-08T13:14:34Z</time>
      </trkpt>
      <trkpt lat="42.23371" lon="1.87909">
        <ele>741.152</ele>
        <time>2019-04-08T13:14:40Z</time>
      </trkpt>
      <trkpt lat="42.23364" lon="1.87921">
        <ele>741.342</ele>
        <time>2019-04-08T13:14:45Z</time>
      </trkpt>
      <trkpt lat="42.23354" lon="1.87931">
        <ele>741.166</ele>
        <time>2019-04-08T13:14:50Z</time>
      </trkpt>
      <trkpt lat="42.23345" lon="1.87935">
        <ele>741.255</ele>
        <time>2019-04-08T13:14:53Z</time>
      </trkpt>
      <trkpt lat="42.23336" lon="1.87931">
        <ele>741.187</ele>
        <time>2019-04-08T13:14:57Z</time>
      </trkpt>
      <trkpt lat="42.23328" lon="1.87922">
        <ele>741.235</ele>
        <time>2019-04-08T13:15:02Z</time>
      </trkpt>
      <trkpt lat="42.23323" lon="1.87931">
        <ele>741.186</ele>
        <time>2019-04-08T13:15:05Z</time>
      </trkpt>
      <trkpt lat="42.23316" lon="1.87948">
        <ele>741.214</ele>
        <time>2019-04-08T13:15:11Z</time>
      </trkpt>
      <trkpt lat="42.2331" lon="1.8796">
        <ele>741.208</ele>
        <time>2019-04-08T13:15:15Z</time>
      </trkpt>
      <trkpt lat="42.23299" lon="1.87968">
        <ele>741.226</ele>
        <time>2019-04-08T13:15:20Z</time>
      </trkpt>
      <trkpt lat="42.23289" lon="1.87977">
        <ele>741.238</ele>
        <time>2019-04-08T13:15:25Z</time>
      </trkpt>
      <trkpt lat="42.23281" lon="1.87971">
        <ele>741.273</ele>
        <time>2019-04-08T13:15:28Z</time>
      </trkpt>
      <trkpt lat="42.23276" lon="1.87958">
        <ele>741.014</ele>
        <time>2019-04-08T13:15:33Z</time>
      </trkpt>
      <trkpt lat="42.23272" lon="1.87946">
        <ele>741.234</ele>
        <time>2019-04-08T13:15:37Z</time>
      </trkpt>
      <trkpt lat="42.23267" lon="1.87935">
        <ele>741.338</ele>
        <time>2019-04-08T13:15:40Z</time>
      </trkpt>
      <trkpt lat="42.23261" lon="1.87925">
        <ele>741.177</ele>
        <time>2019-04-08T13:15:44Z</time>
      </trkpt>
      <trkpt lat="42.23259" lon="1.87922">
        <ele>741.199</ele>
        <time>2019-04-08T13:15:46Z</time>
      </trkpt>
      <trkpt lat="42.23257" lon="1.87922">
        <ele>741.269</ele>
        <time>2019-04-08T13:15:46Z</time>
      </trkpt>
      <trkpt lat="42.23254" lon="1.87924">
        <ele>741.004</ele>
        <time>2019-04-08T13:15:48Z</time>
      </trkpt>
      <trkpt lat="42.23252" lon="1.87926">
        <ele>741.224</ele>
        <time>2019-04-08T13:15:49Z</time>
      </trkpt>
      <trkpt lat="42.23251" lon="1.87928">
        <ele>741.108</ele>
        <time>2019-04-08T13:15:49Z</time>
      </trkpt>
      <trkpt lat="42.23248" lon="1.87931">
        <ele>741.339</ele>
        <time>2019-04-08T13:15:51Z</time>
      </trkpt>
      <trkpt lat="42.2325" lon="1.8794">
        <ele>741.151</ele>
        <time>2019-04-08T13:15:54Z</time>
      </trkpt>
      <trkpt lat="42.23252" lon="1.87953">
        <ele>741.266</ele>
        <time>2019-04-08T13:15:57Z</time>
      </trkpt>
      <trkpt lat="42.23254" lon="1.87955">
        <ele>741.067</ele>
        <time>2019-04-08T13:15:59Z</time>
      </trkpt>
      <trkpt lat="42.23256" lon="1.87955">
        <ele>741.287</ele>
        <time>2019-04-08T13:16:00Z</time>
      </trkpt>
      <trkpt lat="42.23254" lon="1.87956">
        <ele>741.121</ele>
        <time>2019-04-08T13:16:00Z</time>
      </trkpt>
      <trkpt lat="42.23255" lon="1.87954">
        <ele>741.18</ele>
        <time>2019-04-08T13:16:01Z</time>
      </trkpt>
      <trkpt lat="42.23257" lon="1.87953">
        <ele>741.272</ele>
        <time>2019-04-08T13:16:02Z</time>
      </trkpt>
      <trkpt lat="42.23258" lon="1.87951">
        <ele>741.199</ele>
        <time>2019-04-08T13:16:03Z</time>
      </trkpt>
      <trkpt lat="42.23259" lon="1.87954">
        <ele>747.507</ele>
        <time>2019-04-08T13:16:04Z</time>
      </trkpt>
    </trkseg>
  </trk>
</gpx>